<?xml version="1.0" encoding="UTF-8" standalone="no" ?>
<gpx xmlns="http://www.topografix.com/GPX/1/1" xmlns:xsi="http://www.w3.org/2001/XMLSchema-instance" xsi:schemaLocation="http://www.topografix.com/GPX/1/1 http://www.topografix.com/GPX/1/1/gpx.xsd" version="1.1" creator="VisuGPX - https://www.visugpx.com">
  <metadata>
    <name>Boucle lac anterne</name>
    <desc><![CDATA[Boucle lac anterne. Montée faisable, avec un peu de poussage, descente très trés technique!! Paysage magnifique avec une vue sur le mont blanc superbe. Pensez à faire une pause au refuge.]]></desc>
  </metadata>
  <trk>
    <name><![CDATA[Sixt-Fer-à-Cheval VTT]]></name>
    <trkseg>
      <trkpt lat="46.02408" lon="6.77558">
        <ele>1045.4000244141</ele>
        <time>2023-09-30T05:50:59.000Z</time>
      </trkpt>
      <trkpt lat="46.02408" lon="6.77558">
        <ele>1049.4000244141</ele>
        <time>2023-09-30T05:51:01.000Z</time>
      </trkpt>
      <trkpt lat="46.02408" lon="6.77558">
        <ele>1050.8000488281</ele>
        <time>2023-09-30T05:51:02.000Z</time>
      </trkpt>
      <trkpt lat="46.02408" lon="6.77557">
        <ele>1052.8000488281</ele>
        <time>2023-09-30T05:51:08.000Z</time>
      </trkpt>
      <trkpt lat="46.02408" lon="6.77557">
        <ele>1052.1999511719</ele>
        <time>2023-09-30T05:51:09.000Z</time>
      </trkpt>
      <trkpt lat="46.02407" lon="6.77557">
        <ele>1051.5999755859</ele>
        <time>2023-09-30T05:51:10.000Z</time>
      </trkpt>
      <trkpt lat="46.02406" lon="6.77557">
        <ele>1051.5999755859</ele>
        <time>2023-09-30T05:51:11.000Z</time>
      </trkpt>
      <trkpt lat="46.02406" lon="6.77557">
        <ele>1051.8000488281</ele>
        <time>2023-09-30T05:51:16.000Z</time>
      </trkpt>
      <trkpt lat="46.02405" lon="6.77556">
        <ele>1051.8000488281</ele>
        <time>2023-09-30T05:51:40.000Z</time>
      </trkpt>
      <trkpt lat="46.02404" lon="6.77559">
        <ele>1051.8000488281</ele>
        <time>2023-09-30T05:51:45.000Z</time>
      </trkpt>
      <trkpt lat="46.02402" lon="6.7757">
        <ele>1051.5999755859</ele>
        <time>2023-09-30T05:51:47.000Z</time>
      </trkpt>
      <trkpt lat="46.02402" lon="6.77577">
        <ele>1051.4000244141</ele>
        <time>2023-09-30T05:51:48.000Z</time>
      </trkpt>
      <trkpt lat="46.02402" lon="6.77593">
        <ele>1051.1999511719</ele>
        <time>2023-09-30T05:51:50.000Z</time>
      </trkpt>
      <trkpt lat="46.02402" lon="6.7761">
        <ele>1051</ele>
        <time>2023-09-30T05:51:52.000Z</time>
      </trkpt>
      <trkpt lat="46.02397" lon="6.77624">
        <ele>1050.5999755859</ele>
        <time>2023-09-30T05:51:54.000Z</time>
      </trkpt>
      <trkpt lat="46.02395" lon="6.7763">
        <ele>1050.5999755859</ele>
        <time>2023-09-30T05:51:55.000Z</time>
      </trkpt>
      <trkpt lat="46.02394" lon="6.77636">
        <ele>1050.1999511719</ele>
        <time>2023-09-30T05:51:56.000Z</time>
      </trkpt>
      <trkpt lat="46.02393" lon="6.77642">
        <ele>1050.1999511719</ele>
        <time>2023-09-30T05:51:57.000Z</time>
      </trkpt>
      <trkpt lat="46.02392" lon="6.77647">
        <ele>1049.8000488281</ele>
        <time>2023-09-30T05:51:58.000Z</time>
      </trkpt>
      <trkpt lat="46.02391" lon="6.77655">
        <ele>1049.4000244141</ele>
        <time>2023-09-30T05:51:59.000Z</time>
      </trkpt>
      <trkpt lat="46.02389" lon="6.77666">
        <ele>1049.1999511719</ele>
        <time>2023-09-30T05:52:01.000Z</time>
      </trkpt>
      <trkpt lat="46.02388" lon="6.77671">
        <ele>1049.1999511719</ele>
        <time>2023-09-30T05:52:02.000Z</time>
      </trkpt>
      <trkpt lat="46.02388" lon="6.77675">
        <ele>1049</ele>
        <time>2023-09-30T05:52:03.000Z</time>
      </trkpt>
      <trkpt lat="46.02387" lon="6.77678">
        <ele>1049</ele>
        <time>2023-09-30T05:52:04.000Z</time>
      </trkpt>
      <trkpt lat="46.02386" lon="6.7768">
        <ele>1048.5999755859</ele>
        <time>2023-09-30T05:52:05.000Z</time>
      </trkpt>
      <trkpt lat="46.02385" lon="6.77683">
        <ele>1048.4000244141</ele>
        <time>2023-09-30T05:52:06.000Z</time>
      </trkpt>
      <trkpt lat="46.02384" lon="6.77685">
        <ele>1048.4000244141</ele>
        <time>2023-09-30T05:52:07.000Z</time>
      </trkpt>
      <trkpt lat="46.02383" lon="6.77689">
        <ele>1048.4000244141</ele>
        <time>2023-09-30T05:52:08.000Z</time>
      </trkpt>
      <trkpt lat="46.02382" lon="6.77691">
        <ele>1048.4000244141</ele>
        <time>2023-09-30T05:52:09.000Z</time>
      </trkpt>
      <trkpt lat="46.02381" lon="6.77693">
        <ele>1048.4000244141</ele>
        <time>2023-09-30T05:52:10.000Z</time>
      </trkpt>
      <trkpt lat="46.02382" lon="6.77695">
        <ele>1048.4000244141</ele>
        <time>2023-09-30T05:52:11.000Z</time>
      </trkpt>
      <trkpt lat="46.02381" lon="6.77699">
        <ele>1048.8000488281</ele>
        <time>2023-09-30T05:52:12.000Z</time>
      </trkpt>
      <trkpt lat="46.0238" lon="6.77703">
        <ele>1049</ele>
        <time>2023-09-30T05:52:13.000Z</time>
      </trkpt>
      <trkpt lat="46.02379" lon="6.77706">
        <ele>1049</ele>
        <time>2023-09-30T05:52:14.000Z</time>
      </trkpt>
      <trkpt lat="46.02375" lon="6.7771">
        <ele>1049</ele>
        <time>2023-09-30T05:52:16.000Z</time>
      </trkpt>
      <trkpt lat="46.02374" lon="6.77711">
        <ele>1049.1999511719</ele>
        <time>2023-09-30T05:52:17.000Z</time>
      </trkpt>
      <trkpt lat="46.02374" lon="6.77712">
        <ele>1049.1999511719</ele>
        <time>2023-09-30T05:52:18.000Z</time>
      </trkpt>
      <trkpt lat="46.02372" lon="6.77713">
        <ele>1049.4000244141</ele>
        <time>2023-09-30T05:52:19.000Z</time>
      </trkpt>
      <trkpt lat="46.02371" lon="6.77713">
        <ele>1049.5999755859</ele>
        <time>2023-09-30T05:52:20.000Z</time>
      </trkpt>
      <trkpt lat="46.02367" lon="6.77717">
        <ele>1049.5999755859</ele>
        <time>2023-09-30T05:52:22.000Z</time>
      </trkpt>
      <trkpt lat="46.02366" lon="6.77718">
        <ele>1049.5999755859</ele>
        <time>2023-09-30T05:52:23.000Z</time>
      </trkpt>
      <trkpt lat="46.02364" lon="6.7772">
        <ele>1049.4000244141</ele>
        <time>2023-09-30T05:52:24.000Z</time>
      </trkpt>
      <trkpt lat="46.02356" lon="6.77729">
        <ele>1049.5999755859</ele>
        <time>2023-09-30T05:52:27.000Z</time>
      </trkpt>
      <trkpt lat="46.02342" lon="6.77751">
        <ele>1049.4000244141</ele>
        <time>2023-09-30T05:52:31.000Z</time>
      </trkpt>
      <trkpt lat="46.02336" lon="6.77758">
        <ele>1049</ele>
        <time>2023-09-30T05:52:33.000Z</time>
      </trkpt>
      <trkpt lat="46.02332" lon="6.77763">
        <ele>1049</ele>
        <time>2023-09-30T05:52:34.000Z</time>
      </trkpt>
      <trkpt lat="46.0233" lon="6.77767">
        <ele>1048.8000488281</ele>
        <time>2023-09-30T05:52:35.000Z</time>
      </trkpt>
      <trkpt lat="46.02328" lon="6.77771">
        <ele>1048.5999755859</ele>
        <time>2023-09-30T05:52:36.000Z</time>
      </trkpt>
      <trkpt lat="46.02327" lon="6.77774">
        <ele>1048.5999755859</ele>
        <time>2023-09-30T05:52:37.000Z</time>
      </trkpt>
      <trkpt lat="46.02325" lon="6.77776">
        <ele>1048.5999755859</ele>
        <time>2023-09-30T05:52:38.000Z</time>
      </trkpt>
      <trkpt lat="46.02322" lon="6.77779">
        <ele>1048.5999755859</ele>
        <time>2023-09-30T05:52:39.000Z</time>
      </trkpt>
      <trkpt lat="46.02318" lon="6.77782">
        <ele>1048.5999755859</ele>
        <time>2023-09-30T05:52:40.000Z</time>
      </trkpt>
      <trkpt lat="46.02315" lon="6.77785">
        <ele>1048.5999755859</ele>
        <time>2023-09-30T05:52:41.000Z</time>
      </trkpt>
      <trkpt lat="46.02304" lon="6.77794">
        <ele>1048.8000488281</ele>
        <time>2023-09-30T05:52:45.000Z</time>
      </trkpt>
      <trkpt lat="46.023" lon="6.77794">
        <ele>1048.8000488281</ele>
        <time>2023-09-30T05:52:46.000Z</time>
      </trkpt>
      <trkpt lat="46.02298" lon="6.77794">
        <ele>1049</ele>
        <time>2023-09-30T05:52:47.000Z</time>
      </trkpt>
      <trkpt lat="46.02284" lon="6.77799">
        <ele>1049</ele>
        <time>2023-09-30T05:52:51.000Z</time>
      </trkpt>
      <trkpt lat="46.02282" lon="6.77801">
        <ele>1049</ele>
        <time>2023-09-30T05:52:52.000Z</time>
      </trkpt>
      <trkpt lat="46.0228" lon="6.77804">
        <ele>1049</ele>
        <time>2023-09-30T05:52:53.000Z</time>
      </trkpt>
      <trkpt lat="46.02278" lon="6.77806">
        <ele>1049</ele>
        <time>2023-09-30T05:52:54.000Z</time>
      </trkpt>
      <trkpt lat="46.02276" lon="6.7781">
        <ele>1049</ele>
        <time>2023-09-30T05:52:55.000Z</time>
      </trkpt>
      <trkpt lat="46.0227" lon="6.77826">
        <ele>1049</ele>
        <time>2023-09-30T05:52:57.000Z</time>
      </trkpt>
      <trkpt lat="46.02269" lon="6.77833">
        <ele>1049</ele>
        <time>2023-09-30T05:52:58.000Z</time>
      </trkpt>
      <trkpt lat="46.02268" lon="6.77842">
        <ele>1048.8000488281</ele>
        <time>2023-09-30T05:52:59.000Z</time>
      </trkpt>
      <trkpt lat="46.02268" lon="6.7785">
        <ele>1048.5999755859</ele>
        <time>2023-09-30T05:53:00.000Z</time>
      </trkpt>
      <trkpt lat="46.02268" lon="6.77859">
        <ele>1048.5999755859</ele>
        <time>2023-09-30T05:53:01.000Z</time>
      </trkpt>
      <trkpt lat="46.02269" lon="6.77881">
        <ele>1048.4000244141</ele>
        <time>2023-09-30T05:53:03.000Z</time>
      </trkpt>
      <trkpt lat="46.02268" lon="6.7789">
        <ele>1048</ele>
        <time>2023-09-30T05:53:04.000Z</time>
      </trkpt>
      <trkpt lat="46.02268" lon="6.77898">
        <ele>1047.8000488281</ele>
        <time>2023-09-30T05:53:05.000Z</time>
      </trkpt>
      <trkpt lat="46.02269" lon="6.77907">
        <ele>1047</ele>
        <time>2023-09-30T05:53:06.000Z</time>
      </trkpt>
      <trkpt lat="46.0227" lon="6.77915">
        <ele>1046.5999755859</ele>
        <time>2023-09-30T05:53:07.000Z</time>
      </trkpt>
      <trkpt lat="46.02272" lon="6.77923">
        <ele>1046</ele>
        <time>2023-09-30T05:53:08.000Z</time>
      </trkpt>
      <trkpt lat="46.02275" lon="6.77931">
        <ele>1045.5999755859</ele>
        <time>2023-09-30T05:53:09.000Z</time>
      </trkpt>
      <trkpt lat="46.02278" lon="6.77938">
        <ele>1044.1999511719</ele>
        <time>2023-09-30T05:53:10.000Z</time>
      </trkpt>
      <trkpt lat="46.0228" lon="6.77943">
        <ele>1043</ele>
        <time>2023-09-30T05:53:11.000Z</time>
      </trkpt>
      <trkpt lat="46.02284" lon="6.77948">
        <ele>1042.5999755859</ele>
        <time>2023-09-30T05:53:12.000Z</time>
      </trkpt>
      <trkpt lat="46.02289" lon="6.77953">
        <ele>1040.8000488281</ele>
        <time>2023-09-30T05:53:13.000Z</time>
      </trkpt>
      <trkpt lat="46.02292" lon="6.77958">
        <ele>1040</ele>
        <time>2023-09-30T05:53:14.000Z</time>
      </trkpt>
      <trkpt lat="46.02294" lon="6.77966">
        <ele>1038.8000488281</ele>
        <time>2023-09-30T05:53:15.000Z</time>
      </trkpt>
      <trkpt lat="46.02295" lon="6.77974">
        <ele>1038.4000244141</ele>
        <time>2023-09-30T05:53:16.000Z</time>
      </trkpt>
      <trkpt lat="46.02295" lon="6.77985">
        <ele>1037.5999755859</ele>
        <time>2023-09-30T05:53:17.000Z</time>
      </trkpt>
      <trkpt lat="46.02291" lon="6.78006">
        <ele>1036.1999511719</ele>
        <time>2023-09-30T05:53:19.000Z</time>
      </trkpt>
      <trkpt lat="46.02288" lon="6.78014">
        <ele>1035.5999755859</ele>
        <time>2023-09-30T05:53:20.000Z</time>
      </trkpt>
      <trkpt lat="46.02284" lon="6.78021">
        <ele>1035.4000244141</ele>
        <time>2023-09-30T05:53:21.000Z</time>
      </trkpt>
      <trkpt lat="46.02278" lon="6.78029">
        <ele>1034.8000488281</ele>
        <time>2023-09-30T05:53:22.000Z</time>
      </trkpt>
      <trkpt lat="46.02275" lon="6.78038">
        <ele>1034.4000244141</ele>
        <time>2023-09-30T05:53:23.000Z</time>
      </trkpt>
      <trkpt lat="46.02275" lon="6.78047">
        <ele>1033.4000244141</ele>
        <time>2023-09-30T05:53:24.000Z</time>
      </trkpt>
      <trkpt lat="46.02276" lon="6.78054">
        <ele>1032</ele>
        <time>2023-09-30T05:53:25.000Z</time>
      </trkpt>
      <trkpt lat="46.02277" lon="6.78062">
        <ele>1031.1999511719</ele>
        <time>2023-09-30T05:53:26.000Z</time>
      </trkpt>
      <trkpt lat="46.02277" lon="6.78071">
        <ele>1030.4000244141</ele>
        <time>2023-09-30T05:53:27.000Z</time>
      </trkpt>
      <trkpt lat="46.02277" lon="6.78082">
        <ele>1030</ele>
        <time>2023-09-30T05:53:28.000Z</time>
      </trkpt>
      <trkpt lat="46.02276" lon="6.78093">
        <ele>1029.1999511719</ele>
        <time>2023-09-30T05:53:29.000Z</time>
      </trkpt>
      <trkpt lat="46.02275" lon="6.78102">
        <ele>1028.8000488281</ele>
        <time>2023-09-30T05:53:30.000Z</time>
      </trkpt>
      <trkpt lat="46.02274" lon="6.78108">
        <ele>1027.8000488281</ele>
        <time>2023-09-30T05:53:31.000Z</time>
      </trkpt>
      <trkpt lat="46.02275" lon="6.78116">
        <ele>1027.1999511719</ele>
        <time>2023-09-30T05:53:32.000Z</time>
      </trkpt>
      <trkpt lat="46.02277" lon="6.78124">
        <ele>1025.8000488281</ele>
        <time>2023-09-30T05:53:33.000Z</time>
      </trkpt>
      <trkpt lat="46.02279" lon="6.78131">
        <ele>1023.799987793</ele>
        <time>2023-09-30T05:53:34.000Z</time>
      </trkpt>
      <trkpt lat="46.02281" lon="6.78142">
        <ele>1023</ele>
        <time>2023-09-30T05:53:35.000Z</time>
      </trkpt>
      <trkpt lat="46.02281" lon="6.78149">
        <ele>1021.799987793</ele>
        <time>2023-09-30T05:53:36.000Z</time>
      </trkpt>
      <trkpt lat="46.02282" lon="6.78166">
        <ele>1020.5999755859</ele>
        <time>2023-09-30T05:53:38.000Z</time>
      </trkpt>
      <trkpt lat="46.02282" lon="6.78174">
        <ele>1020</ele>
        <time>2023-09-30T05:53:39.000Z</time>
      </trkpt>
      <trkpt lat="46.0228" lon="6.78182">
        <ele>1018.799987793</ele>
        <time>2023-09-30T05:53:40.000Z</time>
      </trkpt>
      <trkpt lat="46.02277" lon="6.78196">
        <ele>1017.4000244141</ele>
        <time>2023-09-30T05:53:42.000Z</time>
      </trkpt>
      <trkpt lat="46.02278" lon="6.78203">
        <ele>1016.200012207</ele>
        <time>2023-09-30T05:53:43.000Z</time>
      </trkpt>
      <trkpt lat="46.0228" lon="6.78207">
        <ele>1015.799987793</ele>
        <time>2023-09-30T05:53:44.000Z</time>
      </trkpt>
      <trkpt lat="46.02283" lon="6.7821">
        <ele>1015.4000244141</ele>
        <time>2023-09-30T05:53:45.000Z</time>
      </trkpt>
      <trkpt lat="46.02285" lon="6.78213">
        <ele>1014.799987793</ele>
        <time>2023-09-30T05:53:46.000Z</time>
      </trkpt>
      <trkpt lat="46.02286" lon="6.78215">
        <ele>1014</ele>
        <time>2023-09-30T05:53:47.000Z</time>
      </trkpt>
      <trkpt lat="46.02287" lon="6.78216">
        <ele>1013.200012207</ele>
        <time>2023-09-30T05:53:48.000Z</time>
      </trkpt>
      <trkpt lat="46.02287" lon="6.78216">
        <ele>1012.799987793</ele>
        <time>2023-09-30T05:53:49.000Z</time>
      </trkpt>
      <trkpt lat="46.02287" lon="6.78216">
        <ele>1011.799987793</ele>
        <time>2023-09-30T05:53:50.000Z</time>
      </trkpt>
      <trkpt lat="46.02288" lon="6.78216">
        <ele>1011.4000244141</ele>
        <time>2023-09-30T05:53:51.000Z</time>
      </trkpt>
      <trkpt lat="46.0229" lon="6.78216">
        <ele>1011</ele>
        <time>2023-09-30T05:53:52.000Z</time>
      </trkpt>
      <trkpt lat="46.02292" lon="6.78216">
        <ele>1010.5999755859</ele>
        <time>2023-09-30T05:53:53.000Z</time>
      </trkpt>
      <trkpt lat="46.02293" lon="6.78215">
        <ele>1010</ele>
        <time>2023-09-30T05:53:54.000Z</time>
      </trkpt>
      <trkpt lat="46.02297" lon="6.78214">
        <ele>1009.799987793</ele>
        <time>2023-09-30T05:53:56.000Z</time>
      </trkpt>
      <trkpt lat="46.02299" lon="6.78213">
        <ele>1009.799987793</ele>
        <time>2023-09-30T05:53:57.000Z</time>
      </trkpt>
      <trkpt lat="46.02301" lon="6.78212">
        <ele>1009.799987793</ele>
        <time>2023-09-30T05:53:58.000Z</time>
      </trkpt>
      <trkpt lat="46.02302" lon="6.78212">
        <ele>1009.799987793</ele>
        <time>2023-09-30T05:53:59.000Z</time>
      </trkpt>
      <trkpt lat="46.02304" lon="6.78211">
        <ele>1009.799987793</ele>
        <time>2023-09-30T05:54:00.000Z</time>
      </trkpt>
      <trkpt lat="46.02307" lon="6.7821">
        <ele>1010.200012207</ele>
        <time>2023-09-30T05:54:02.000Z</time>
      </trkpt>
      <trkpt lat="46.02307" lon="6.7821">
        <ele>1010.4000244141</ele>
        <time>2023-09-30T05:54:03.000Z</time>
      </trkpt>
      <trkpt lat="46.02307" lon="6.7821">
        <ele>1010.799987793</ele>
        <time>2023-09-30T05:54:04.000Z</time>
      </trkpt>
      <trkpt lat="46.02307" lon="6.7821">
        <ele>1011</ele>
        <time>2023-09-30T05:54:05.000Z</time>
      </trkpt>
      <trkpt lat="46.02307" lon="6.78209">
        <ele>1011.4000244141</ele>
        <time>2023-09-30T05:54:06.000Z</time>
      </trkpt>
      <trkpt lat="46.02308" lon="6.78209">
        <ele>1011.5999755859</ele>
        <time>2023-09-30T05:54:07.000Z</time>
      </trkpt>
      <trkpt lat="46.02309" lon="6.78209">
        <ele>1011.5999755859</ele>
        <time>2023-09-30T05:54:08.000Z</time>
      </trkpt>
      <trkpt lat="46.02312" lon="6.78204">
        <ele>1011.799987793</ele>
        <time>2023-09-30T05:54:10.000Z</time>
      </trkpt>
      <trkpt lat="46.02312" lon="6.78201">
        <ele>1012</ele>
        <time>2023-09-30T05:54:11.000Z</time>
      </trkpt>
      <trkpt lat="46.02313" lon="6.78199">
        <ele>1012.200012207</ele>
        <time>2023-09-30T05:54:12.000Z</time>
      </trkpt>
      <trkpt lat="46.02314" lon="6.78198">
        <ele>1012.799987793</ele>
        <time>2023-09-30T05:54:13.000Z</time>
      </trkpt>
      <trkpt lat="46.02315" lon="6.78197">
        <ele>1012.799987793</ele>
        <time>2023-09-30T05:54:14.000Z</time>
      </trkpt>
      <trkpt lat="46.02316" lon="6.78196">
        <ele>1013.200012207</ele>
        <time>2023-09-30T05:54:15.000Z</time>
      </trkpt>
      <trkpt lat="46.02317" lon="6.78193">
        <ele>1013.5999755859</ele>
        <time>2023-09-30T05:54:16.000Z</time>
      </trkpt>
      <trkpt lat="46.02317" lon="6.78192">
        <ele>1013.799987793</ele>
        <time>2023-09-30T05:54:17.000Z</time>
      </trkpt>
      <trkpt lat="46.02317" lon="6.78192">
        <ele>1014</ele>
        <time>2023-09-30T05:54:18.000Z</time>
      </trkpt>
      <trkpt lat="46.02317" lon="6.78192">
        <ele>1014</ele>
        <time>2023-09-30T05:54:19.000Z</time>
      </trkpt>
      <trkpt lat="46.02318" lon="6.78192">
        <ele>1014.4000244141</ele>
        <time>2023-09-30T05:54:20.000Z</time>
      </trkpt>
      <trkpt lat="46.0232" lon="6.7819">
        <ele>1014.799987793</ele>
        <time>2023-09-30T05:54:22.000Z</time>
      </trkpt>
      <trkpt lat="46.02321" lon="6.78189">
        <ele>1015</ele>
        <time>2023-09-30T05:54:23.000Z</time>
      </trkpt>
      <trkpt lat="46.02322" lon="6.78188">
        <ele>1014.799987793</ele>
        <time>2023-09-30T05:54:24.000Z</time>
      </trkpt>
      <trkpt lat="46.02323" lon="6.78187">
        <ele>1015</ele>
        <time>2023-09-30T05:54:25.000Z</time>
      </trkpt>
      <trkpt lat="46.02323" lon="6.78186">
        <ele>1015.200012207</ele>
        <time>2023-09-30T05:54:26.000Z</time>
      </trkpt>
      <trkpt lat="46.02324" lon="6.78185">
        <ele>1015.4000244141</ele>
        <time>2023-09-30T05:54:27.000Z</time>
      </trkpt>
      <trkpt lat="46.02325" lon="6.78185">
        <ele>1015.4000244141</ele>
        <time>2023-09-30T05:54:28.000Z</time>
      </trkpt>
      <trkpt lat="46.02326" lon="6.78184">
        <ele>1015.5999755859</ele>
        <time>2023-09-30T05:54:29.000Z</time>
      </trkpt>
      <trkpt lat="46.02326" lon="6.78182">
        <ele>1016</ele>
        <time>2023-09-30T05:54:30.000Z</time>
      </trkpt>
      <trkpt lat="46.02327" lon="6.78181">
        <ele>1016.200012207</ele>
        <time>2023-09-30T05:54:31.000Z</time>
      </trkpt>
      <trkpt lat="46.02328" lon="6.78181">
        <ele>1016.4000244141</ele>
        <time>2023-09-30T05:54:32.000Z</time>
      </trkpt>
      <trkpt lat="46.02328" lon="6.78181">
        <ele>1016.4000244141</ele>
        <time>2023-09-30T05:54:33.000Z</time>
      </trkpt>
      <trkpt lat="46.02328" lon="6.78181">
        <ele>1016.5999755859</ele>
        <time>2023-09-30T05:54:34.000Z</time>
      </trkpt>
      <trkpt lat="46.02328" lon="6.78181">
        <ele>1016.799987793</ele>
        <time>2023-09-30T05:54:35.000Z</time>
      </trkpt>
      <trkpt lat="46.02328" lon="6.78181">
        <ele>1017.4000244141</ele>
        <time>2023-09-30T05:54:36.000Z</time>
      </trkpt>
      <trkpt lat="46.02328" lon="6.78181">
        <ele>1017.799987793</ele>
        <time>2023-09-30T05:54:37.000Z</time>
      </trkpt>
      <trkpt lat="46.02329" lon="6.78182">
        <ele>1018</ele>
        <time>2023-09-30T05:54:38.000Z</time>
      </trkpt>
      <trkpt lat="46.02331" lon="6.78182">
        <ele>1018.5999755859</ele>
        <time>2023-09-30T05:54:39.000Z</time>
      </trkpt>
      <trkpt lat="46.02331" lon="6.78182">
        <ele>1018.799987793</ele>
        <time>2023-09-30T05:54:40.000Z</time>
      </trkpt>
      <trkpt lat="46.02332" lon="6.78183">
        <ele>1019.200012207</ele>
        <time>2023-09-30T05:54:41.000Z</time>
      </trkpt>
      <trkpt lat="46.02332" lon="6.78183">
        <ele>1019.200012207</ele>
        <time>2023-09-30T05:54:42.000Z</time>
      </trkpt>
      <trkpt lat="46.02332" lon="6.78183">
        <ele>1019.5999755859</ele>
        <time>2023-09-30T05:54:43.000Z</time>
      </trkpt>
      <trkpt lat="46.02333" lon="6.78182">
        <ele>1020</ele>
        <time>2023-09-30T05:54:44.000Z</time>
      </trkpt>
      <trkpt lat="46.02334" lon="6.78183">
        <ele>1020</ele>
        <time>2023-09-30T05:54:45.000Z</time>
      </trkpt>
      <trkpt lat="46.02334" lon="6.78183">
        <ele>1020.4000244141</ele>
        <time>2023-09-30T05:54:46.000Z</time>
      </trkpt>
      <trkpt lat="46.02335" lon="6.78182">
        <ele>1020.5999755859</ele>
        <time>2023-09-30T05:54:47.000Z</time>
      </trkpt>
      <trkpt lat="46.02335" lon="6.78182">
        <ele>1020.799987793</ele>
        <time>2023-09-30T05:54:48.000Z</time>
      </trkpt>
      <trkpt lat="46.02335" lon="6.78182">
        <ele>1021</ele>
        <time>2023-09-30T05:54:49.000Z</time>
      </trkpt>
      <trkpt lat="46.02336" lon="6.78182">
        <ele>1021.200012207</ele>
        <time>2023-09-30T05:54:50.000Z</time>
      </trkpt>
      <trkpt lat="46.02337" lon="6.78182">
        <ele>1021.5999755859</ele>
        <time>2023-09-30T05:54:51.000Z</time>
      </trkpt>
      <trkpt lat="46.02339" lon="6.78183">
        <ele>1021.5999755859</ele>
        <time>2023-09-30T05:54:52.000Z</time>
      </trkpt>
      <trkpt lat="46.0234" lon="6.78182">
        <ele>1021.799987793</ele>
        <time>2023-09-30T05:54:53.000Z</time>
      </trkpt>
      <trkpt lat="46.02342" lon="6.78183">
        <ele>1022</ele>
        <time>2023-09-30T05:54:54.000Z</time>
      </trkpt>
      <trkpt lat="46.02342" lon="6.78183">
        <ele>1022.4000244141</ele>
        <time>2023-09-30T05:54:55.000Z</time>
      </trkpt>
      <trkpt lat="46.02343" lon="6.78182">
        <ele>1022.4000244141</ele>
        <time>2023-09-30T05:54:56.000Z</time>
      </trkpt>
      <trkpt lat="46.02343" lon="6.78182">
        <ele>1022.5999755859</ele>
        <time>2023-09-30T05:54:57.000Z</time>
      </trkpt>
      <trkpt lat="46.02344" lon="6.78182">
        <ele>1022.799987793</ele>
        <time>2023-09-30T05:54:58.000Z</time>
      </trkpt>
      <trkpt lat="46.02344" lon="6.78182">
        <ele>1022.799987793</ele>
        <time>2023-09-30T05:54:59.000Z</time>
      </trkpt>
      <trkpt lat="46.02345" lon="6.78182">
        <ele>1023</ele>
        <time>2023-09-30T05:55:00.000Z</time>
      </trkpt>
      <trkpt lat="46.02345" lon="6.78182">
        <ele>1023.200012207</ele>
        <time>2023-09-30T05:55:01.000Z</time>
      </trkpt>
      <trkpt lat="46.02346" lon="6.78182">
        <ele>1023.4000244141</ele>
        <time>2023-09-30T05:55:02.000Z</time>
      </trkpt>
      <trkpt lat="46.02347" lon="6.78181">
        <ele>1023.4000244141</ele>
        <time>2023-09-30T05:55:03.000Z</time>
      </trkpt>
      <trkpt lat="46.02347" lon="6.78181">
        <ele>1023.5999755859</ele>
        <time>2023-09-30T05:55:04.000Z</time>
      </trkpt>
      <trkpt lat="46.02347" lon="6.78181">
        <ele>1023.799987793</ele>
        <time>2023-09-30T05:55:05.000Z</time>
      </trkpt>
      <trkpt lat="46.02347" lon="6.78181">
        <ele>1023.799987793</ele>
        <time>2023-09-30T05:55:06.000Z</time>
      </trkpt>
      <trkpt lat="46.02347" lon="6.78181">
        <ele>1024.8000488281</ele>
        <time>2023-09-30T05:55:07.000Z</time>
      </trkpt>
      <trkpt lat="46.02347" lon="6.7818">
        <ele>1025.1999511719</ele>
        <time>2023-09-30T05:55:08.000Z</time>
      </trkpt>
      <trkpt lat="46.02348" lon="6.7818">
        <ele>1025.5999755859</ele>
        <time>2023-09-30T05:55:09.000Z</time>
      </trkpt>
      <trkpt lat="46.02348" lon="6.7818">
        <ele>1025.8000488281</ele>
        <time>2023-09-30T05:55:10.000Z</time>
      </trkpt>
      <trkpt lat="46.02348" lon="6.78179">
        <ele>1026</ele>
        <time>2023-09-30T05:55:11.000Z</time>
      </trkpt>
      <trkpt lat="46.02348" lon="6.78179">
        <ele>1026</ele>
        <time>2023-09-30T05:55:12.000Z</time>
      </trkpt>
      <trkpt lat="46.02349" lon="6.78179">
        <ele>1026.1999511719</ele>
        <time>2023-09-30T05:55:13.000Z</time>
      </trkpt>
      <trkpt lat="46.02351" lon="6.78177">
        <ele>1026.4000244141</ele>
        <time>2023-09-30T05:55:14.000Z</time>
      </trkpt>
      <trkpt lat="46.02352" lon="6.78176">
        <ele>1026.4000244141</ele>
        <time>2023-09-30T05:55:15.000Z</time>
      </trkpt>
      <trkpt lat="46.02354" lon="6.78175">
        <ele>1026.5999755859</ele>
        <time>2023-09-30T05:55:16.000Z</time>
      </trkpt>
      <trkpt lat="46.02354" lon="6.78174">
        <ele>1027</ele>
        <time>2023-09-30T05:55:20.000Z</time>
      </trkpt>
      <trkpt lat="46.02354" lon="6.78174">
        <ele>1027.1999511719</ele>
        <time>2023-09-30T05:55:21.000Z</time>
      </trkpt>
      <trkpt lat="46.02354" lon="6.78174">
        <ele>1027.4000244141</ele>
        <time>2023-09-30T05:55:23.000Z</time>
      </trkpt>
      <trkpt lat="46.02355" lon="6.78172">
        <ele>1027.5999755859</ele>
        <time>2023-09-30T05:55:24.000Z</time>
      </trkpt>
      <trkpt lat="46.02356" lon="6.78172">
        <ele>1027.8000488281</ele>
        <time>2023-09-30T05:55:25.000Z</time>
      </trkpt>
      <trkpt lat="46.02356" lon="6.78172">
        <ele>1028</ele>
        <time>2023-09-30T05:55:27.000Z</time>
      </trkpt>
      <trkpt lat="46.02356" lon="6.78172">
        <ele>1028.5999755859</ele>
        <time>2023-09-30T05:55:28.000Z</time>
      </trkpt>
      <trkpt lat="46.02356" lon="6.78172">
        <ele>1029</ele>
        <time>2023-09-30T05:55:33.000Z</time>
      </trkpt>
      <trkpt lat="46.02356" lon="6.78172">
        <ele>1029.5999755859</ele>
        <time>2023-09-30T05:55:35.000Z</time>
      </trkpt>
      <trkpt lat="46.02356" lon="6.78172">
        <ele>1029.8000488281</ele>
        <time>2023-09-30T05:55:36.000Z</time>
      </trkpt>
      <trkpt lat="46.02356" lon="6.78172">
        <ele>1029.8000488281</ele>
        <time>2023-09-30T05:55:37.000Z</time>
      </trkpt>
      <trkpt lat="46.02356" lon="6.78172">
        <ele>1030.5999755859</ele>
        <time>2023-09-30T05:55:40.000Z</time>
      </trkpt>
      <trkpt lat="46.02357" lon="6.78171">
        <ele>1031</ele>
        <time>2023-09-30T05:55:43.000Z</time>
      </trkpt>
      <trkpt lat="46.02357" lon="6.78171">
        <ele>1031.5999755859</ele>
        <time>2023-09-30T05:55:47.000Z</time>
      </trkpt>
      <trkpt lat="46.02357" lon="6.78171">
        <ele>1032</ele>
        <time>2023-09-30T05:55:49.000Z</time>
      </trkpt>
      <trkpt lat="46.02359" lon="6.7817">
        <ele>1032</ele>
        <time>2023-09-30T05:55:50.000Z</time>
      </trkpt>
      <trkpt lat="46.0236" lon="6.78168">
        <ele>1032.1999511719</ele>
        <time>2023-09-30T05:55:51.000Z</time>
      </trkpt>
      <trkpt lat="46.02362" lon="6.78167">
        <ele>1032.1999511719</ele>
        <time>2023-09-30T05:55:52.000Z</time>
      </trkpt>
      <trkpt lat="46.02363" lon="6.78167">
        <ele>1032.4000244141</ele>
        <time>2023-09-30T05:55:53.000Z</time>
      </trkpt>
      <trkpt lat="46.02363" lon="6.78166">
        <ele>1032.5999755859</ele>
        <time>2023-09-30T05:55:56.000Z</time>
      </trkpt>
      <trkpt lat="46.02363" lon="6.78166">
        <ele>1032.5999755859</ele>
        <time>2023-09-30T05:55:57.000Z</time>
      </trkpt>
      <trkpt lat="46.02363" lon="6.78166">
        <ele>1033</ele>
        <time>2023-09-30T05:55:58.000Z</time>
      </trkpt>
      <trkpt lat="46.02364" lon="6.78166">
        <ele>1033</ele>
        <time>2023-09-30T05:55:59.000Z</time>
      </trkpt>
      <trkpt lat="46.02365" lon="6.78165">
        <ele>1033.1999511719</ele>
        <time>2023-09-30T05:56:00.000Z</time>
      </trkpt>
      <trkpt lat="46.02367" lon="6.78164">
        <ele>1033.4000244141</ele>
        <time>2023-09-30T05:56:01.000Z</time>
      </trkpt>
      <trkpt lat="46.02369" lon="6.78162">
        <ele>1033.5999755859</ele>
        <time>2023-09-30T05:56:02.000Z</time>
      </trkpt>
      <trkpt lat="46.0237" lon="6.78161">
        <ele>1033.8000488281</ele>
        <time>2023-09-30T05:56:03.000Z</time>
      </trkpt>
      <trkpt lat="46.02371" lon="6.78161">
        <ele>1033.8000488281</ele>
        <time>2023-09-30T05:56:04.000Z</time>
      </trkpt>
      <trkpt lat="46.02372" lon="6.7816">
        <ele>1034.1999511719</ele>
        <time>2023-09-30T05:56:05.000Z</time>
      </trkpt>
      <trkpt lat="46.02374" lon="6.78159">
        <ele>1034.1999511719</ele>
        <time>2023-09-30T05:56:06.000Z</time>
      </trkpt>
      <trkpt lat="46.02375" lon="6.78159">
        <ele>1034.4000244141</ele>
        <time>2023-09-30T05:56:07.000Z</time>
      </trkpt>
      <trkpt lat="46.02376" lon="6.78159">
        <ele>1034.5999755859</ele>
        <time>2023-09-30T05:56:08.000Z</time>
      </trkpt>
      <trkpt lat="46.02376" lon="6.78159">
        <ele>1034.8000488281</ele>
        <time>2023-09-30T05:56:09.000Z</time>
      </trkpt>
      <trkpt lat="46.02376" lon="6.78159">
        <ele>1034.8000488281</ele>
        <time>2023-09-30T05:56:10.000Z</time>
      </trkpt>
      <trkpt lat="46.02376" lon="6.78159">
        <ele>1035</ele>
        <time>2023-09-30T05:56:11.000Z</time>
      </trkpt>
      <trkpt lat="46.02378" lon="6.7816">
        <ele>1035.1999511719</ele>
        <time>2023-09-30T05:56:12.000Z</time>
      </trkpt>
      <trkpt lat="46.02379" lon="6.7816">
        <ele>1035.4000244141</ele>
        <time>2023-09-30T05:56:13.000Z</time>
      </trkpt>
      <trkpt lat="46.02379" lon="6.7816">
        <ele>1035.5999755859</ele>
        <time>2023-09-30T05:56:14.000Z</time>
      </trkpt>
      <trkpt lat="46.02379" lon="6.78161">
        <ele>1035.8000488281</ele>
        <time>2023-09-30T05:56:15.000Z</time>
      </trkpt>
      <trkpt lat="46.02379" lon="6.78161">
        <ele>1036</ele>
        <time>2023-09-30T05:56:16.000Z</time>
      </trkpt>
      <trkpt lat="46.02379" lon="6.78161">
        <ele>1036.1999511719</ele>
        <time>2023-09-30T05:56:17.000Z</time>
      </trkpt>
      <trkpt lat="46.02379" lon="6.78161">
        <ele>1036.4000244141</ele>
        <time>2023-09-30T05:56:18.000Z</time>
      </trkpt>
      <trkpt lat="46.02379" lon="6.78161">
        <ele>1036.8000488281</ele>
        <time>2023-09-30T05:56:19.000Z</time>
      </trkpt>
      <trkpt lat="46.02379" lon="6.78161">
        <ele>1036.8000488281</ele>
        <time>2023-09-30T05:56:20.000Z</time>
      </trkpt>
      <trkpt lat="46.02379" lon="6.78161">
        <ele>1037.1999511719</ele>
        <time>2023-09-30T05:56:21.000Z</time>
      </trkpt>
      <trkpt lat="46.02379" lon="6.78161">
        <ele>1037.1999511719</ele>
        <time>2023-09-30T05:56:22.000Z</time>
      </trkpt>
      <trkpt lat="46.02379" lon="6.78161">
        <ele>1038.1999511719</ele>
        <time>2023-09-30T05:56:27.000Z</time>
      </trkpt>
      <trkpt lat="46.02379" lon="6.78161">
        <ele>1039.1999511719</ele>
        <time>2023-09-30T05:56:34.000Z</time>
      </trkpt>
      <trkpt lat="46.02379" lon="6.78161">
        <ele>1039.4000244141</ele>
        <time>2023-09-30T05:56:35.000Z</time>
      </trkpt>
      <trkpt lat="46.02379" lon="6.78161">
        <ele>1040</ele>
        <time>2023-09-30T05:56:38.000Z</time>
      </trkpt>
      <trkpt lat="46.0238" lon="6.78162">
        <ele>1040.8000488281</ele>
        <time>2023-09-30T05:56:42.000Z</time>
      </trkpt>
      <trkpt lat="46.0238" lon="6.78162">
        <ele>1041.1999511719</ele>
        <time>2023-09-30T05:56:44.000Z</time>
      </trkpt>
      <trkpt lat="46.0238" lon="6.78163">
        <ele>1042</ele>
        <time>2023-09-30T05:56:51.000Z</time>
      </trkpt>
      <trkpt lat="46.02381" lon="6.78165">
        <ele>1043</ele>
        <time>2023-09-30T05:56:55.000Z</time>
      </trkpt>
      <trkpt lat="46.02384" lon="6.78166">
        <ele>1044.1999511719</ele>
        <time>2023-09-30T05:57:02.000Z</time>
      </trkpt>
      <trkpt lat="46.02385" lon="6.78167">
        <ele>1045.4000244141</ele>
        <time>2023-09-30T05:57:08.000Z</time>
      </trkpt>
      <trkpt lat="46.02385" lon="6.78167">
        <ele>1046.4000244141</ele>
        <time>2023-09-30T05:57:15.000Z</time>
      </trkpt>
      <trkpt lat="46.02387" lon="6.78171">
        <ele>1048.1999511719</ele>
        <time>2023-09-30T05:57:42.000Z</time>
      </trkpt>
      <trkpt lat="46.02387" lon="6.78173">
        <ele>1049</ele>
        <time>2023-09-30T05:57:46.000Z</time>
      </trkpt>
      <trkpt lat="46.02387" lon="6.78176">
        <ele>1049.1999511719</ele>
        <time>2023-09-30T05:57:47.000Z</time>
      </trkpt>
      <trkpt lat="46.02387" lon="6.78185">
        <ele>1049.8000488281</ele>
        <time>2023-09-30T05:57:51.000Z</time>
      </trkpt>
      <trkpt lat="46.02387" lon="6.78186">
        <ele>1050.1999511719</ele>
        <time>2023-09-30T05:57:52.000Z</time>
      </trkpt>
      <trkpt lat="46.02387" lon="6.78187">
        <ele>1050.1999511719</ele>
        <time>2023-09-30T05:57:53.000Z</time>
      </trkpt>
      <trkpt lat="46.02386" lon="6.78193">
        <ele>1051.1999511719</ele>
        <time>2023-09-30T05:57:55.000Z</time>
      </trkpt>
      <trkpt lat="46.02387" lon="6.78195">
        <ele>1051.8000488281</ele>
        <time>2023-09-30T05:57:56.000Z</time>
      </trkpt>
      <trkpt lat="46.02387" lon="6.78198">
        <ele>1052</ele>
        <time>2023-09-30T05:57:57.000Z</time>
      </trkpt>
      <trkpt lat="46.02387" lon="6.78201">
        <ele>1052.1999511719</ele>
        <time>2023-09-30T05:57:58.000Z</time>
      </trkpt>
      <trkpt lat="46.02388" lon="6.78204">
        <ele>1052.4000244141</ele>
        <time>2023-09-30T05:57:59.000Z</time>
      </trkpt>
      <trkpt lat="46.02388" lon="6.78205">
        <ele>1052.4000244141</ele>
        <time>2023-09-30T05:58:00.000Z</time>
      </trkpt>
      <trkpt lat="46.02388" lon="6.78205">
        <ele>1052.5999755859</ele>
        <time>2023-09-30T05:58:01.000Z</time>
      </trkpt>
      <trkpt lat="46.02388" lon="6.78205">
        <ele>1052.5999755859</ele>
        <time>2023-09-30T05:58:02.000Z</time>
      </trkpt>
      <trkpt lat="46.02386" lon="6.78208">
        <ele>1052.8000488281</ele>
        <time>2023-09-30T05:58:03.000Z</time>
      </trkpt>
      <trkpt lat="46.02384" lon="6.78209">
        <ele>1053</ele>
        <time>2023-09-30T05:58:04.000Z</time>
      </trkpt>
      <trkpt lat="46.02384" lon="6.7821">
        <ele>1053.1999511719</ele>
        <time>2023-09-30T05:58:05.000Z</time>
      </trkpt>
      <trkpt lat="46.02384" lon="6.7821">
        <ele>1053.8000488281</ele>
        <time>2023-09-30T05:58:08.000Z</time>
      </trkpt>
      <trkpt lat="46.02383" lon="6.78214">
        <ele>1054</ele>
        <time>2023-09-30T05:58:11.000Z</time>
      </trkpt>
      <trkpt lat="46.02383" lon="6.78215">
        <ele>1054.1999511719</ele>
        <time>2023-09-30T05:58:12.000Z</time>
      </trkpt>
      <trkpt lat="46.02382" lon="6.78216">
        <ele>1054.1999511719</ele>
        <time>2023-09-30T05:58:13.000Z</time>
      </trkpt>
      <trkpt lat="46.02382" lon="6.78217">
        <ele>1054.1999511719</ele>
        <time>2023-09-30T05:58:14.000Z</time>
      </trkpt>
      <trkpt lat="46.02382" lon="6.78217">
        <ele>1054.4000244141</ele>
        <time>2023-09-30T05:58:15.000Z</time>
      </trkpt>
      <trkpt lat="46.02382" lon="6.78217">
        <ele>1054.4000244141</ele>
        <time>2023-09-30T05:58:16.000Z</time>
      </trkpt>
      <trkpt lat="46.02382" lon="6.78217">
        <ele>1054.5999755859</ele>
        <time>2023-09-30T05:58:18.000Z</time>
      </trkpt>
      <trkpt lat="46.02382" lon="6.78217">
        <ele>1054.8000488281</ele>
        <time>2023-09-30T05:58:21.000Z</time>
      </trkpt>
      <trkpt lat="46.02382" lon="6.78217">
        <ele>1055.1999511719</ele>
        <time>2023-09-30T05:58:22.000Z</time>
      </trkpt>
      <trkpt lat="46.02382" lon="6.78217">
        <ele>1056.1999511719</ele>
        <time>2023-09-30T05:58:27.000Z</time>
      </trkpt>
      <trkpt lat="46.02382" lon="6.78217">
        <ele>1056.4000244141</ele>
        <time>2023-09-30T05:58:28.000Z</time>
      </trkpt>
      <trkpt lat="46.02382" lon="6.78217">
        <ele>1056.5999755859</ele>
        <time>2023-09-30T05:58:33.000Z</time>
      </trkpt>
      <trkpt lat="46.02382" lon="6.78218">
        <ele>1056.5999755859</ele>
        <time>2023-09-30T05:58:34.000Z</time>
      </trkpt>
      <trkpt lat="46.02382" lon="6.7822">
        <ele>1056.8000488281</ele>
        <time>2023-09-30T05:58:35.000Z</time>
      </trkpt>
      <trkpt lat="46.02382" lon="6.78222">
        <ele>1057</ele>
        <time>2023-09-30T05:58:36.000Z</time>
      </trkpt>
      <trkpt lat="46.02382" lon="6.78222">
        <ele>1057.1999511719</ele>
        <time>2023-09-30T05:58:37.000Z</time>
      </trkpt>
      <trkpt lat="46.02382" lon="6.78222">
        <ele>1057.4000244141</ele>
        <time>2023-09-30T05:58:39.000Z</time>
      </trkpt>
      <trkpt lat="46.02382" lon="6.78223">
        <ele>1058.1999511719</ele>
        <time>2023-09-30T05:58:42.000Z</time>
      </trkpt>
      <trkpt lat="46.02382" lon="6.78226">
        <ele>1058.5999755859</ele>
        <time>2023-09-30T05:58:43.000Z</time>
      </trkpt>
      <trkpt lat="46.02382" lon="6.78227">
        <ele>1058.8000488281</ele>
        <time>2023-09-30T05:58:44.000Z</time>
      </trkpt>
      <trkpt lat="46.02382" lon="6.78227">
        <ele>1059.1999511719</ele>
        <time>2023-09-30T05:58:46.000Z</time>
      </trkpt>
      <trkpt lat="46.02382" lon="6.7823">
        <ele>1059.4000244141</ele>
        <time>2023-09-30T05:58:47.000Z</time>
      </trkpt>
      <trkpt lat="46.02382" lon="6.78232">
        <ele>1059.5999755859</ele>
        <time>2023-09-30T05:58:48.000Z</time>
      </trkpt>
      <trkpt lat="46.02383" lon="6.78235">
        <ele>1059.8000488281</ele>
        <time>2023-09-30T05:58:49.000Z</time>
      </trkpt>
      <trkpt lat="46.02383" lon="6.78237">
        <ele>1060</ele>
        <time>2023-09-30T05:58:50.000Z</time>
      </trkpt>
      <trkpt lat="46.02382" lon="6.78241">
        <ele>1060.1999511719</ele>
        <time>2023-09-30T05:58:51.000Z</time>
      </trkpt>
      <trkpt lat="46.02382" lon="6.78243">
        <ele>1060.5999755859</ele>
        <time>2023-09-30T05:58:52.000Z</time>
      </trkpt>
      <trkpt lat="46.02382" lon="6.78245">
        <ele>1060.5999755859</ele>
        <time>2023-09-30T05:58:53.000Z</time>
      </trkpt>
      <trkpt lat="46.02382" lon="6.78248">
        <ele>1060.8000488281</ele>
        <time>2023-09-30T05:58:54.000Z</time>
      </trkpt>
      <trkpt lat="46.02383" lon="6.78252">
        <ele>1061</ele>
        <time>2023-09-30T05:58:55.000Z</time>
      </trkpt>
      <trkpt lat="46.02382" lon="6.78254">
        <ele>1061.1999511719</ele>
        <time>2023-09-30T05:58:56.000Z</time>
      </trkpt>
      <trkpt lat="46.02381" lon="6.78256">
        <ele>1061.1999511719</ele>
        <time>2023-09-30T05:58:57.000Z</time>
      </trkpt>
      <trkpt lat="46.02381" lon="6.78258">
        <ele>1061.4000244141</ele>
        <time>2023-09-30T05:58:58.000Z</time>
      </trkpt>
      <trkpt lat="46.02381" lon="6.7826">
        <ele>1061.4000244141</ele>
        <time>2023-09-30T05:58:59.000Z</time>
      </trkpt>
      <trkpt lat="46.02381" lon="6.78263">
        <ele>1061.4000244141</ele>
        <time>2023-09-30T05:59:00.000Z</time>
      </trkpt>
      <trkpt lat="46.02381" lon="6.78265">
        <ele>1061.5999755859</ele>
        <time>2023-09-30T05:59:01.000Z</time>
      </trkpt>
      <trkpt lat="46.0238" lon="6.78267">
        <ele>1061.8000488281</ele>
        <time>2023-09-30T05:59:02.000Z</time>
      </trkpt>
      <trkpt lat="46.0238" lon="6.78268">
        <ele>1062.1999511719</ele>
        <time>2023-09-30T05:59:03.000Z</time>
      </trkpt>
      <trkpt lat="46.02378" lon="6.7827">
        <ele>1062</ele>
        <time>2023-09-30T05:59:04.000Z</time>
      </trkpt>
      <trkpt lat="46.02378" lon="6.78274">
        <ele>1062.4000244141</ele>
        <time>2023-09-30T05:59:05.000Z</time>
      </trkpt>
      <trkpt lat="46.02379" lon="6.78277">
        <ele>1062.4000244141</ele>
        <time>2023-09-30T05:59:06.000Z</time>
      </trkpt>
      <trkpt lat="46.02378" lon="6.78279">
        <ele>1062.5999755859</ele>
        <time>2023-09-30T05:59:07.000Z</time>
      </trkpt>
      <trkpt lat="46.02372" lon="6.78281">
        <ele>1062.5999755859</ele>
        <time>2023-09-30T05:59:08.000Z</time>
      </trkpt>
      <trkpt lat="46.02371" lon="6.78282">
        <ele>1062.5999755859</ele>
        <time>2023-09-30T05:59:09.000Z</time>
      </trkpt>
      <trkpt lat="46.02369" lon="6.78283">
        <ele>1062.8000488281</ele>
        <time>2023-09-30T05:59:10.000Z</time>
      </trkpt>
      <trkpt lat="46.02369" lon="6.78284">
        <ele>1062.8000488281</ele>
        <time>2023-09-30T05:59:11.000Z</time>
      </trkpt>
      <trkpt lat="46.02368" lon="6.78285">
        <ele>1063</ele>
        <time>2023-09-30T05:59:12.000Z</time>
      </trkpt>
      <trkpt lat="46.02368" lon="6.78285">
        <ele>1063</ele>
        <time>2023-09-30T05:59:13.000Z</time>
      </trkpt>
      <trkpt lat="46.02366" lon="6.78285">
        <ele>1063.1999511719</ele>
        <time>2023-09-30T05:59:14.000Z</time>
      </trkpt>
      <trkpt lat="46.02364" lon="6.78284">
        <ele>1063.4000244141</ele>
        <time>2023-09-30T05:59:15.000Z</time>
      </trkpt>
      <trkpt lat="46.02362" lon="6.78286">
        <ele>1063.4000244141</ele>
        <time>2023-09-30T05:59:16.000Z</time>
      </trkpt>
      <trkpt lat="46.0236" lon="6.78288">
        <ele>1063.5999755859</ele>
        <time>2023-09-30T05:59:17.000Z</time>
      </trkpt>
      <trkpt lat="46.0236" lon="6.78289">
        <ele>1063.8000488281</ele>
        <time>2023-09-30T05:59:18.000Z</time>
      </trkpt>
      <trkpt lat="46.0236" lon="6.7829">
        <ele>1063.8000488281</ele>
        <time>2023-09-30T05:59:19.000Z</time>
      </trkpt>
      <trkpt lat="46.02358" lon="6.78294">
        <ele>1064</ele>
        <time>2023-09-30T05:59:20.000Z</time>
      </trkpt>
      <trkpt lat="46.02357" lon="6.78294">
        <ele>1064.1999511719</ele>
        <time>2023-09-30T05:59:21.000Z</time>
      </trkpt>
      <trkpt lat="46.02357" lon="6.78294">
        <ele>1064.1999511719</ele>
        <time>2023-09-30T05:59:22.000Z</time>
      </trkpt>
      <trkpt lat="46.02356" lon="6.78296">
        <ele>1064.4000244141</ele>
        <time>2023-09-30T05:59:23.000Z</time>
      </trkpt>
      <trkpt lat="46.02356" lon="6.78297">
        <ele>1064.4000244141</ele>
        <time>2023-09-30T05:59:24.000Z</time>
      </trkpt>
      <trkpt lat="46.02356" lon="6.78299">
        <ele>1064.5999755859</ele>
        <time>2023-09-30T05:59:25.000Z</time>
      </trkpt>
      <trkpt lat="46.02355" lon="6.78301">
        <ele>1064.5999755859</ele>
        <time>2023-09-30T05:59:26.000Z</time>
      </trkpt>
      <trkpt lat="46.02355" lon="6.78301">
        <ele>1064.8000488281</ele>
        <time>2023-09-30T05:59:27.000Z</time>
      </trkpt>
      <trkpt lat="46.02355" lon="6.78302">
        <ele>1064.8000488281</ele>
        <time>2023-09-30T05:59:28.000Z</time>
      </trkpt>
      <trkpt lat="46.02355" lon="6.78303">
        <ele>1065</ele>
        <time>2023-09-30T05:59:29.000Z</time>
      </trkpt>
      <trkpt lat="46.02355" lon="6.78303">
        <ele>1065.1999511719</ele>
        <time>2023-09-30T05:59:30.000Z</time>
      </trkpt>
      <trkpt lat="46.02355" lon="6.78303">
        <ele>1065.4000244141</ele>
        <time>2023-09-30T05:59:31.000Z</time>
      </trkpt>
      <trkpt lat="46.02355" lon="6.78303">
        <ele>1065.5999755859</ele>
        <time>2023-09-30T05:59:32.000Z</time>
      </trkpt>
      <trkpt lat="46.02355" lon="6.78304">
        <ele>1065.8000488281</ele>
        <time>2023-09-30T05:59:33.000Z</time>
      </trkpt>
      <trkpt lat="46.02355" lon="6.78304">
        <ele>1066.4000244141</ele>
        <time>2023-09-30T05:59:34.000Z</time>
      </trkpt>
      <trkpt lat="46.02355" lon="6.78304">
        <ele>1066.4000244141</ele>
        <time>2023-09-30T05:59:35.000Z</time>
      </trkpt>
      <trkpt lat="46.02355" lon="6.78304">
        <ele>1066.4000244141</ele>
        <time>2023-09-30T05:59:36.000Z</time>
      </trkpt>
      <trkpt lat="46.02355" lon="6.78304">
        <ele>1066.8000488281</ele>
        <time>2023-09-30T05:59:37.000Z</time>
      </trkpt>
      <trkpt lat="46.02355" lon="6.78304">
        <ele>1067.1999511719</ele>
        <time>2023-09-30T05:59:38.000Z</time>
      </trkpt>
      <trkpt lat="46.02355" lon="6.78304">
        <ele>1067.1999511719</ele>
        <time>2023-09-30T05:59:39.000Z</time>
      </trkpt>
      <trkpt lat="46.02354" lon="6.78305">
        <ele>1067.4000244141</ele>
        <time>2023-09-30T05:59:40.000Z</time>
      </trkpt>
      <trkpt lat="46.02353" lon="6.78306">
        <ele>1067.5999755859</ele>
        <time>2023-09-30T05:59:41.000Z</time>
      </trkpt>
      <trkpt lat="46.02353" lon="6.78307">
        <ele>1067.8000488281</ele>
        <time>2023-09-30T05:59:42.000Z</time>
      </trkpt>
      <trkpt lat="46.02353" lon="6.78307">
        <ele>1068.1999511719</ele>
        <time>2023-09-30T05:59:43.000Z</time>
      </trkpt>
      <trkpt lat="46.02352" lon="6.78307">
        <ele>1068.5999755859</ele>
        <time>2023-09-30T05:59:46.000Z</time>
      </trkpt>
      <trkpt lat="46.02352" lon="6.78309">
        <ele>1068.8000488281</ele>
        <time>2023-09-30T05:59:47.000Z</time>
      </trkpt>
      <trkpt lat="46.02352" lon="6.7831">
        <ele>1069</ele>
        <time>2023-09-30T05:59:48.000Z</time>
      </trkpt>
      <trkpt lat="46.02352" lon="6.7831">
        <ele>1069.1999511719</ele>
        <time>2023-09-30T05:59:50.000Z</time>
      </trkpt>
      <trkpt lat="46.02352" lon="6.78312">
        <ele>1069.4000244141</ele>
        <time>2023-09-30T05:59:51.000Z</time>
      </trkpt>
      <trkpt lat="46.02351" lon="6.78314">
        <ele>1069.8000488281</ele>
        <time>2023-09-30T05:59:52.000Z</time>
      </trkpt>
      <trkpt lat="46.02351" lon="6.78315">
        <ele>1070</ele>
        <time>2023-09-30T05:59:53.000Z</time>
      </trkpt>
      <trkpt lat="46.02351" lon="6.78316">
        <ele>1070.4000244141</ele>
        <time>2023-09-30T05:59:55.000Z</time>
      </trkpt>
      <trkpt lat="46.0235" lon="6.78318">
        <ele>1070.4000244141</ele>
        <time>2023-09-30T05:59:56.000Z</time>
      </trkpt>
      <trkpt lat="46.02349" lon="6.78319">
        <ele>1070.5999755859</ele>
        <time>2023-09-30T05:59:57.000Z</time>
      </trkpt>
      <trkpt lat="46.02349" lon="6.7832">
        <ele>1070.8000488281</ele>
        <time>2023-09-30T05:59:58.000Z</time>
      </trkpt>
      <trkpt lat="46.02349" lon="6.78321">
        <ele>1071.4000244141</ele>
        <time>2023-09-30T06:00:00.000Z</time>
      </trkpt>
      <trkpt lat="46.02349" lon="6.78322">
        <ele>1071.5999755859</ele>
        <time>2023-09-30T06:00:01.000Z</time>
      </trkpt>
      <trkpt lat="46.02349" lon="6.78322">
        <ele>1071.8000488281</ele>
        <time>2023-09-30T06:00:02.000Z</time>
      </trkpt>
      <trkpt lat="46.02349" lon="6.78323">
        <ele>1072.1999511719</ele>
        <time>2023-09-30T06:00:04.000Z</time>
      </trkpt>
      <trkpt lat="46.02348" lon="6.78326">
        <ele>1072.4000244141</ele>
        <time>2023-09-30T06:00:05.000Z</time>
      </trkpt>
      <trkpt lat="46.02347" lon="6.78328">
        <ele>1072.5999755859</ele>
        <time>2023-09-30T06:00:06.000Z</time>
      </trkpt>
      <trkpt lat="46.02346" lon="6.78331">
        <ele>1073</ele>
        <time>2023-09-30T06:00:07.000Z</time>
      </trkpt>
      <trkpt lat="46.02345" lon="6.78331">
        <ele>1073.1999511719</ele>
        <time>2023-09-30T06:00:08.000Z</time>
      </trkpt>
      <trkpt lat="46.02345" lon="6.78332">
        <ele>1073.4000244141</ele>
        <time>2023-09-30T06:00:09.000Z</time>
      </trkpt>
      <trkpt lat="46.02345" lon="6.78332">
        <ele>1073.5999755859</ele>
        <time>2023-09-30T06:00:10.000Z</time>
      </trkpt>
      <trkpt lat="46.02345" lon="6.78333">
        <ele>1073.5999755859</ele>
        <time>2023-09-30T06:00:11.000Z</time>
      </trkpt>
      <trkpt lat="46.02344" lon="6.78335">
        <ele>1073.5999755859</ele>
        <time>2023-09-30T06:00:12.000Z</time>
      </trkpt>
      <trkpt lat="46.02344" lon="6.78338">
        <ele>1073.8000488281</ele>
        <time>2023-09-30T06:00:13.000Z</time>
      </trkpt>
      <trkpt lat="46.02344" lon="6.7834">
        <ele>1074.1999511719</ele>
        <time>2023-09-30T06:00:14.000Z</time>
      </trkpt>
      <trkpt lat="46.02344" lon="6.78341">
        <ele>1074.1999511719</ele>
        <time>2023-09-30T06:00:15.000Z</time>
      </trkpt>
      <trkpt lat="46.02344" lon="6.78344">
        <ele>1074.5999755859</ele>
        <time>2023-09-30T06:00:16.000Z</time>
      </trkpt>
      <trkpt lat="46.02343" lon="6.78346">
        <ele>1074.8000488281</ele>
        <time>2023-09-30T06:00:17.000Z</time>
      </trkpt>
      <trkpt lat="46.02341" lon="6.78348">
        <ele>1075</ele>
        <time>2023-09-30T06:00:18.000Z</time>
      </trkpt>
      <trkpt lat="46.02341" lon="6.78348">
        <ele>1075</ele>
        <time>2023-09-30T06:00:19.000Z</time>
      </trkpt>
      <trkpt lat="46.0234" lon="6.78349">
        <ele>1075.1999511719</ele>
        <time>2023-09-30T06:00:20.000Z</time>
      </trkpt>
      <trkpt lat="46.0234" lon="6.78349">
        <ele>1075.4000244141</ele>
        <time>2023-09-30T06:00:21.000Z</time>
      </trkpt>
      <trkpt lat="46.02338" lon="6.78349">
        <ele>1075.5999755859</ele>
        <time>2023-09-30T06:00:22.000Z</time>
      </trkpt>
      <trkpt lat="46.02336" lon="6.7835">
        <ele>1075.8000488281</ele>
        <time>2023-09-30T06:00:23.000Z</time>
      </trkpt>
      <trkpt lat="46.02335" lon="6.7835">
        <ele>1076</ele>
        <time>2023-09-30T06:00:24.000Z</time>
      </trkpt>
      <trkpt lat="46.02335" lon="6.78352">
        <ele>1076</ele>
        <time>2023-09-30T06:00:25.000Z</time>
      </trkpt>
      <trkpt lat="46.02334" lon="6.78352">
        <ele>1076.1999511719</ele>
        <time>2023-09-30T06:00:26.000Z</time>
      </trkpt>
      <trkpt lat="46.02334" lon="6.78352">
        <ele>1076.4000244141</ele>
        <time>2023-09-30T06:00:27.000Z</time>
      </trkpt>
      <trkpt lat="46.02334" lon="6.78352">
        <ele>1076.5999755859</ele>
        <time>2023-09-30T06:00:28.000Z</time>
      </trkpt>
      <trkpt lat="46.02333" lon="6.78354">
        <ele>1076.8000488281</ele>
        <time>2023-09-30T06:00:29.000Z</time>
      </trkpt>
      <trkpt lat="46.02333" lon="6.78357">
        <ele>1077</ele>
        <time>2023-09-30T06:00:30.000Z</time>
      </trkpt>
      <trkpt lat="46.02333" lon="6.78357">
        <ele>1077.1999511719</ele>
        <time>2023-09-30T06:00:31.000Z</time>
      </trkpt>
      <trkpt lat="46.02332" lon="6.7836">
        <ele>1077.4000244141</ele>
        <time>2023-09-30T06:00:32.000Z</time>
      </trkpt>
      <trkpt lat="46.02329" lon="6.78363">
        <ele>1077.4000244141</ele>
        <time>2023-09-30T06:00:33.000Z</time>
      </trkpt>
      <trkpt lat="46.02329" lon="6.78363">
        <ele>1077.5999755859</ele>
        <time>2023-09-30T06:00:34.000Z</time>
      </trkpt>
      <trkpt lat="46.02329" lon="6.78363">
        <ele>1077.8000488281</ele>
        <time>2023-09-30T06:00:35.000Z</time>
      </trkpt>
      <trkpt lat="46.02329" lon="6.78363">
        <ele>1077.8000488281</ele>
        <time>2023-09-30T06:00:36.000Z</time>
      </trkpt>
      <trkpt lat="46.02328" lon="6.78365">
        <ele>1078</ele>
        <time>2023-09-30T06:00:37.000Z</time>
      </trkpt>
      <trkpt lat="46.02327" lon="6.78365">
        <ele>1078</ele>
        <time>2023-09-30T06:00:38.000Z</time>
      </trkpt>
      <trkpt lat="46.02327" lon="6.78367">
        <ele>1078</ele>
        <time>2023-09-30T06:00:39.000Z</time>
      </trkpt>
      <trkpt lat="46.02327" lon="6.78369">
        <ele>1078.1999511719</ele>
        <time>2023-09-30T06:00:40.000Z</time>
      </trkpt>
      <trkpt lat="46.02327" lon="6.78371">
        <ele>1078.1999511719</ele>
        <time>2023-09-30T06:00:41.000Z</time>
      </trkpt>
      <trkpt lat="46.02327" lon="6.78373">
        <ele>1078.1999511719</ele>
        <time>2023-09-30T06:00:42.000Z</time>
      </trkpt>
      <trkpt lat="46.02326" lon="6.78376">
        <ele>1078.1999511719</ele>
        <time>2023-09-30T06:00:43.000Z</time>
      </trkpt>
      <trkpt lat="46.02327" lon="6.78379">
        <ele>1078.4000244141</ele>
        <time>2023-09-30T06:00:44.000Z</time>
      </trkpt>
      <trkpt lat="46.02327" lon="6.78381">
        <ele>1078.4000244141</ele>
        <time>2023-09-30T06:00:45.000Z</time>
      </trkpt>
      <trkpt lat="46.02325" lon="6.78381">
        <ele>1078.5999755859</ele>
        <time>2023-09-30T06:00:46.000Z</time>
      </trkpt>
      <trkpt lat="46.02324" lon="6.78383">
        <ele>1078.8000488281</ele>
        <time>2023-09-30T06:00:47.000Z</time>
      </trkpt>
      <trkpt lat="46.0232" lon="6.78385">
        <ele>1079</ele>
        <time>2023-09-30T06:00:48.000Z</time>
      </trkpt>
      <trkpt lat="46.0232" lon="6.78385">
        <ele>1078.8000488281</ele>
        <time>2023-09-30T06:00:49.000Z</time>
      </trkpt>
      <trkpt lat="46.02319" lon="6.78386">
        <ele>1079</ele>
        <time>2023-09-30T06:00:50.000Z</time>
      </trkpt>
      <trkpt lat="46.02318" lon="6.78386">
        <ele>1079.1999511719</ele>
        <time>2023-09-30T06:00:51.000Z</time>
      </trkpt>
      <trkpt lat="46.02317" lon="6.78388">
        <ele>1079.1999511719</ele>
        <time>2023-09-30T06:00:52.000Z</time>
      </trkpt>
      <trkpt lat="46.02316" lon="6.7839">
        <ele>1079.4000244141</ele>
        <time>2023-09-30T06:00:53.000Z</time>
      </trkpt>
      <trkpt lat="46.02316" lon="6.78392">
        <ele>1079.4000244141</ele>
        <time>2023-09-30T06:00:54.000Z</time>
      </trkpt>
      <trkpt lat="46.02315" lon="6.78393">
        <ele>1079.8000488281</ele>
        <time>2023-09-30T06:00:55.000Z</time>
      </trkpt>
      <trkpt lat="46.02315" lon="6.78395">
        <ele>1080</ele>
        <time>2023-09-30T06:00:56.000Z</time>
      </trkpt>
      <trkpt lat="46.02314" lon="6.78397">
        <ele>1080</ele>
        <time>2023-09-30T06:00:57.000Z</time>
      </trkpt>
      <trkpt lat="46.02314" lon="6.78398">
        <ele>1080.1999511719</ele>
        <time>2023-09-30T06:00:58.000Z</time>
      </trkpt>
      <trkpt lat="46.02313" lon="6.784">
        <ele>1080.1999511719</ele>
        <time>2023-09-30T06:00:59.000Z</time>
      </trkpt>
      <trkpt lat="46.02313" lon="6.78401">
        <ele>1080.4000244141</ele>
        <time>2023-09-30T06:01:00.000Z</time>
      </trkpt>
      <trkpt lat="46.02312" lon="6.78403">
        <ele>1080.5999755859</ele>
        <time>2023-09-30T06:01:01.000Z</time>
      </trkpt>
      <trkpt lat="46.02312" lon="6.78405">
        <ele>1080.5999755859</ele>
        <time>2023-09-30T06:01:02.000Z</time>
      </trkpt>
      <trkpt lat="46.02311" lon="6.78406">
        <ele>1080.8000488281</ele>
        <time>2023-09-30T06:01:03.000Z</time>
      </trkpt>
      <trkpt lat="46.0231" lon="6.78408">
        <ele>1081</ele>
        <time>2023-09-30T06:01:04.000Z</time>
      </trkpt>
      <trkpt lat="46.0231" lon="6.78409">
        <ele>1081.1999511719</ele>
        <time>2023-09-30T06:01:05.000Z</time>
      </trkpt>
      <trkpt lat="46.0231" lon="6.78409">
        <ele>1081.1999511719</ele>
        <time>2023-09-30T06:01:06.000Z</time>
      </trkpt>
      <trkpt lat="46.0231" lon="6.78409">
        <ele>1081.1999511719</ele>
        <time>2023-09-30T06:01:07.000Z</time>
      </trkpt>
      <trkpt lat="46.0231" lon="6.7841">
        <ele>1081.1999511719</ele>
        <time>2023-09-30T06:01:08.000Z</time>
      </trkpt>
      <trkpt lat="46.0231" lon="6.78411">
        <ele>1081.4000244141</ele>
        <time>2023-09-30T06:01:09.000Z</time>
      </trkpt>
      <trkpt lat="46.0231" lon="6.78412">
        <ele>1081.4000244141</ele>
        <time>2023-09-30T06:01:10.000Z</time>
      </trkpt>
      <trkpt lat="46.0231" lon="6.78414">
        <ele>1081.4000244141</ele>
        <time>2023-09-30T06:01:11.000Z</time>
      </trkpt>
      <trkpt lat="46.0231" lon="6.78415">
        <ele>1081.5999755859</ele>
        <time>2023-09-30T06:01:12.000Z</time>
      </trkpt>
      <trkpt lat="46.0231" lon="6.78417">
        <ele>1081.5999755859</ele>
        <time>2023-09-30T06:01:13.000Z</time>
      </trkpt>
      <trkpt lat="46.0231" lon="6.7842">
        <ele>1081.8000488281</ele>
        <time>2023-09-30T06:01:14.000Z</time>
      </trkpt>
      <trkpt lat="46.02311" lon="6.78422">
        <ele>1081.8000488281</ele>
        <time>2023-09-30T06:01:15.000Z</time>
      </trkpt>
      <trkpt lat="46.02311" lon="6.78424">
        <ele>1082</ele>
        <time>2023-09-30T06:01:16.000Z</time>
      </trkpt>
      <trkpt lat="46.02311" lon="6.78426">
        <ele>1082</ele>
        <time>2023-09-30T06:01:17.000Z</time>
      </trkpt>
      <trkpt lat="46.02312" lon="6.78428">
        <ele>1082.1999511719</ele>
        <time>2023-09-30T06:01:18.000Z</time>
      </trkpt>
      <trkpt lat="46.02311" lon="6.78429">
        <ele>1082.1999511719</ele>
        <time>2023-09-30T06:01:19.000Z</time>
      </trkpt>
      <trkpt lat="46.02312" lon="6.78432">
        <ele>1082.4000244141</ele>
        <time>2023-09-30T06:01:20.000Z</time>
      </trkpt>
      <trkpt lat="46.02312" lon="6.78434">
        <ele>1082.5999755859</ele>
        <time>2023-09-30T06:01:21.000Z</time>
      </trkpt>
      <trkpt lat="46.02312" lon="6.78437">
        <ele>1082.8000488281</ele>
        <time>2023-09-30T06:01:22.000Z</time>
      </trkpt>
      <trkpt lat="46.02312" lon="6.78438">
        <ele>1082.8000488281</ele>
        <time>2023-09-30T06:01:23.000Z</time>
      </trkpt>
      <trkpt lat="46.02312" lon="6.7844">
        <ele>1083</ele>
        <time>2023-09-30T06:01:24.000Z</time>
      </trkpt>
      <trkpt lat="46.02312" lon="6.78441">
        <ele>1083</ele>
        <time>2023-09-30T06:01:25.000Z</time>
      </trkpt>
      <trkpt lat="46.02311" lon="6.78442">
        <ele>1083</ele>
        <time>2023-09-30T06:01:26.000Z</time>
      </trkpt>
      <trkpt lat="46.0231" lon="6.78443">
        <ele>1083.1999511719</ele>
        <time>2023-09-30T06:01:27.000Z</time>
      </trkpt>
      <trkpt lat="46.0231" lon="6.78445">
        <ele>1083.4000244141</ele>
        <time>2023-09-30T06:01:28.000Z</time>
      </trkpt>
      <trkpt lat="46.0231" lon="6.78445">
        <ele>1083.5999755859</ele>
        <time>2023-09-30T06:01:29.000Z</time>
      </trkpt>
      <trkpt lat="46.0231" lon="6.78446">
        <ele>1083.8000488281</ele>
        <time>2023-09-30T06:01:30.000Z</time>
      </trkpt>
      <trkpt lat="46.02311" lon="6.78447">
        <ele>1084</ele>
        <time>2023-09-30T06:01:31.000Z</time>
      </trkpt>
      <trkpt lat="46.02311" lon="6.78449">
        <ele>1084.1999511719</ele>
        <time>2023-09-30T06:01:32.000Z</time>
      </trkpt>
      <trkpt lat="46.02311" lon="6.78451">
        <ele>1084.4000244141</ele>
        <time>2023-09-30T06:01:33.000Z</time>
      </trkpt>
      <trkpt lat="46.02312" lon="6.78454">
        <ele>1084.5999755859</ele>
        <time>2023-09-30T06:01:34.000Z</time>
      </trkpt>
      <trkpt lat="46.02311" lon="6.78455">
        <ele>1084.8000488281</ele>
        <time>2023-09-30T06:01:35.000Z</time>
      </trkpt>
      <trkpt lat="46.02311" lon="6.78458">
        <ele>1084.8000488281</ele>
        <time>2023-09-30T06:01:36.000Z</time>
      </trkpt>
      <trkpt lat="46.02312" lon="6.7846">
        <ele>1085</ele>
        <time>2023-09-30T06:01:37.000Z</time>
      </trkpt>
      <trkpt lat="46.02312" lon="6.78461">
        <ele>1085</ele>
        <time>2023-09-30T06:01:38.000Z</time>
      </trkpt>
      <trkpt lat="46.02312" lon="6.78462">
        <ele>1085.1999511719</ele>
        <time>2023-09-30T06:01:39.000Z</time>
      </trkpt>
      <trkpt lat="46.02313" lon="6.78464">
        <ele>1085.1999511719</ele>
        <time>2023-09-30T06:01:40.000Z</time>
      </trkpt>
      <trkpt lat="46.02314" lon="6.78468">
        <ele>1085.4000244141</ele>
        <time>2023-09-30T06:01:41.000Z</time>
      </trkpt>
      <trkpt lat="46.02315" lon="6.7847">
        <ele>1085.5999755859</ele>
        <time>2023-09-30T06:01:42.000Z</time>
      </trkpt>
      <trkpt lat="46.02316" lon="6.78473">
        <ele>1085.5999755859</ele>
        <time>2023-09-30T06:01:43.000Z</time>
      </trkpt>
      <trkpt lat="46.02316" lon="6.78477">
        <ele>1085.5999755859</ele>
        <time>2023-09-30T06:01:44.000Z</time>
      </trkpt>
      <trkpt lat="46.02316" lon="6.78478">
        <ele>1085.8000488281</ele>
        <time>2023-09-30T06:01:45.000Z</time>
      </trkpt>
      <trkpt lat="46.02316" lon="6.78478">
        <ele>1086</ele>
        <time>2023-09-30T06:01:46.000Z</time>
      </trkpt>
      <trkpt lat="46.02316" lon="6.7848">
        <ele>1086.1999511719</ele>
        <time>2023-09-30T06:01:47.000Z</time>
      </trkpt>
      <trkpt lat="46.02317" lon="6.78483">
        <ele>1086.4000244141</ele>
        <time>2023-09-30T06:01:48.000Z</time>
      </trkpt>
      <trkpt lat="46.02318" lon="6.78486">
        <ele>1086.4000244141</ele>
        <time>2023-09-30T06:01:49.000Z</time>
      </trkpt>
      <trkpt lat="46.02318" lon="6.78488">
        <ele>1086.5999755859</ele>
        <time>2023-09-30T06:01:50.000Z</time>
      </trkpt>
      <trkpt lat="46.02319" lon="6.7849">
        <ele>1087</ele>
        <time>2023-09-30T06:01:51.000Z</time>
      </trkpt>
      <trkpt lat="46.0232" lon="6.78494">
        <ele>1087.1999511719</ele>
        <time>2023-09-30T06:01:52.000Z</time>
      </trkpt>
      <trkpt lat="46.02321" lon="6.78497">
        <ele>1087.4000244141</ele>
        <time>2023-09-30T06:01:53.000Z</time>
      </trkpt>
      <trkpt lat="46.02322" lon="6.78501">
        <ele>1087.4000244141</ele>
        <time>2023-09-30T06:01:54.000Z</time>
      </trkpt>
      <trkpt lat="46.02323" lon="6.78503">
        <ele>1087.5999755859</ele>
        <time>2023-09-30T06:01:55.000Z</time>
      </trkpt>
      <trkpt lat="46.02323" lon="6.78505">
        <ele>1087.8000488281</ele>
        <time>2023-09-30T06:01:56.000Z</time>
      </trkpt>
      <trkpt lat="46.02323" lon="6.78508">
        <ele>1088</ele>
        <time>2023-09-30T06:01:57.000Z</time>
      </trkpt>
      <trkpt lat="46.02323" lon="6.7851">
        <ele>1088</ele>
        <time>2023-09-30T06:01:58.000Z</time>
      </trkpt>
      <trkpt lat="46.02323" lon="6.78512">
        <ele>1088.1999511719</ele>
        <time>2023-09-30T06:01:59.000Z</time>
      </trkpt>
      <trkpt lat="46.02324" lon="6.78515">
        <ele>1088.1999511719</ele>
        <time>2023-09-30T06:02:00.000Z</time>
      </trkpt>
      <trkpt lat="46.02324" lon="6.78519">
        <ele>1088.1999511719</ele>
        <time>2023-09-30T06:02:01.000Z</time>
      </trkpt>
      <trkpt lat="46.02324" lon="6.78521">
        <ele>1088.1999511719</ele>
        <time>2023-09-30T06:02:02.000Z</time>
      </trkpt>
      <trkpt lat="46.02324" lon="6.78523">
        <ele>1088.1999511719</ele>
        <time>2023-09-30T06:02:03.000Z</time>
      </trkpt>
      <trkpt lat="46.02324" lon="6.78526">
        <ele>1088.4000244141</ele>
        <time>2023-09-30T06:02:04.000Z</time>
      </trkpt>
      <trkpt lat="46.02325" lon="6.78529">
        <ele>1088.4000244141</ele>
        <time>2023-09-30T06:02:05.000Z</time>
      </trkpt>
      <trkpt lat="46.02325" lon="6.78531">
        <ele>1088.5999755859</ele>
        <time>2023-09-30T06:02:06.000Z</time>
      </trkpt>
      <trkpt lat="46.02325" lon="6.78532">
        <ele>1088.5999755859</ele>
        <time>2023-09-30T06:02:07.000Z</time>
      </trkpt>
      <trkpt lat="46.02325" lon="6.78535">
        <ele>1088.5999755859</ele>
        <time>2023-09-30T06:02:08.000Z</time>
      </trkpt>
      <trkpt lat="46.02324" lon="6.78537">
        <ele>1088.8000488281</ele>
        <time>2023-09-30T06:02:09.000Z</time>
      </trkpt>
      <trkpt lat="46.02324" lon="6.78538">
        <ele>1088.8000488281</ele>
        <time>2023-09-30T06:02:10.000Z</time>
      </trkpt>
      <trkpt lat="46.02322" lon="6.78538">
        <ele>1088.8000488281</ele>
        <time>2023-09-30T06:02:11.000Z</time>
      </trkpt>
      <trkpt lat="46.02322" lon="6.78538">
        <ele>1089</ele>
        <time>2023-09-30T06:02:12.000Z</time>
      </trkpt>
      <trkpt lat="46.02322" lon="6.78538">
        <ele>1089.1999511719</ele>
        <time>2023-09-30T06:02:13.000Z</time>
      </trkpt>
      <trkpt lat="46.02322" lon="6.78539">
        <ele>1089.1999511719</ele>
        <time>2023-09-30T06:02:14.000Z</time>
      </trkpt>
      <trkpt lat="46.02322" lon="6.78539">
        <ele>1089.4000244141</ele>
        <time>2023-09-30T06:02:15.000Z</time>
      </trkpt>
      <trkpt lat="46.02322" lon="6.78539">
        <ele>1089.5999755859</ele>
        <time>2023-09-30T06:02:16.000Z</time>
      </trkpt>
      <trkpt lat="46.02322" lon="6.78539">
        <ele>1090</ele>
        <time>2023-09-30T06:02:17.000Z</time>
      </trkpt>
      <trkpt lat="46.02322" lon="6.78539">
        <ele>1090</ele>
        <time>2023-09-30T06:02:18.000Z</time>
      </trkpt>
      <trkpt lat="46.02322" lon="6.78541">
        <ele>1090.4000244141</ele>
        <time>2023-09-30T06:02:19.000Z</time>
      </trkpt>
      <trkpt lat="46.02322" lon="6.78541">
        <ele>1090.8000488281</ele>
        <time>2023-09-30T06:02:20.000Z</time>
      </trkpt>
      <trkpt lat="46.02322" lon="6.78541">
        <ele>1091</ele>
        <time>2023-09-30T06:02:21.000Z</time>
      </trkpt>
      <trkpt lat="46.02322" lon="6.78542">
        <ele>1091.4000244141</ele>
        <time>2023-09-30T06:02:22.000Z</time>
      </trkpt>
      <trkpt lat="46.0232" lon="6.78546">
        <ele>1091.5999755859</ele>
        <time>2023-09-30T06:02:23.000Z</time>
      </trkpt>
      <trkpt lat="46.02319" lon="6.78548">
        <ele>1091.8000488281</ele>
        <time>2023-09-30T06:02:24.000Z</time>
      </trkpt>
      <trkpt lat="46.02318" lon="6.78551">
        <ele>1092</ele>
        <time>2023-09-30T06:02:25.000Z</time>
      </trkpt>
      <trkpt lat="46.02318" lon="6.78552">
        <ele>1092.1999511719</ele>
        <time>2023-09-30T06:02:26.000Z</time>
      </trkpt>
      <trkpt lat="46.02318" lon="6.78552">
        <ele>1092.5999755859</ele>
        <time>2023-09-30T06:02:29.000Z</time>
      </trkpt>
      <trkpt lat="46.02318" lon="6.78552">
        <ele>1092.8000488281</ele>
        <time>2023-09-30T06:02:31.000Z</time>
      </trkpt>
      <trkpt lat="46.02318" lon="6.78553">
        <ele>1093</ele>
        <time>2023-09-30T06:02:33.000Z</time>
      </trkpt>
      <trkpt lat="46.02316" lon="6.78555">
        <ele>1093</ele>
        <time>2023-09-30T06:02:34.000Z</time>
      </trkpt>
      <trkpt lat="46.02315" lon="6.78557">
        <ele>1093</ele>
        <time>2023-09-30T06:02:35.000Z</time>
      </trkpt>
      <trkpt lat="46.02314" lon="6.78559">
        <ele>1093.1999511719</ele>
        <time>2023-09-30T06:02:36.000Z</time>
      </trkpt>
      <trkpt lat="46.02312" lon="6.78561">
        <ele>1093.1999511719</ele>
        <time>2023-09-30T06:02:37.000Z</time>
      </trkpt>
      <trkpt lat="46.02311" lon="6.78562">
        <ele>1093.1999511719</ele>
        <time>2023-09-30T06:02:38.000Z</time>
      </trkpt>
      <trkpt lat="46.02311" lon="6.78562">
        <ele>1093.4000244141</ele>
        <time>2023-09-30T06:02:39.000Z</time>
      </trkpt>
      <trkpt lat="46.02311" lon="6.78562">
        <ele>1093.4000244141</ele>
        <time>2023-09-30T06:02:40.000Z</time>
      </trkpt>
      <trkpt lat="46.0231" lon="6.78563">
        <ele>1093.5999755859</ele>
        <time>2023-09-30T06:02:43.000Z</time>
      </trkpt>
      <trkpt lat="46.02308" lon="6.78563">
        <ele>1093.8000488281</ele>
        <time>2023-09-30T06:02:46.000Z</time>
      </trkpt>
      <trkpt lat="46.02305" lon="6.78566">
        <ele>1093.8000488281</ele>
        <time>2023-09-30T06:02:47.000Z</time>
      </trkpt>
      <trkpt lat="46.02305" lon="6.78567">
        <ele>1094</ele>
        <time>2023-09-30T06:02:48.000Z</time>
      </trkpt>
      <trkpt lat="46.02305" lon="6.78567">
        <ele>1094.4000244141</ele>
        <time>2023-09-30T06:02:51.000Z</time>
      </trkpt>
      <trkpt lat="46.02305" lon="6.78567">
        <ele>1094.5999755859</ele>
        <time>2023-09-30T06:02:53.000Z</time>
      </trkpt>
      <trkpt lat="46.02305" lon="6.78568">
        <ele>1094.8000488281</ele>
        <time>2023-09-30T06:02:54.000Z</time>
      </trkpt>
      <trkpt lat="46.02305" lon="6.7857">
        <ele>1095</ele>
        <time>2023-09-30T06:02:55.000Z</time>
      </trkpt>
      <trkpt lat="46.02305" lon="6.7857">
        <ele>1095.1999511719</ele>
        <time>2023-09-30T06:02:56.000Z</time>
      </trkpt>
      <trkpt lat="46.02305" lon="6.7857">
        <ele>1095.4000244141</ele>
        <time>2023-09-30T06:02:57.000Z</time>
      </trkpt>
      <trkpt lat="46.02305" lon="6.7857">
        <ele>1095.5999755859</ele>
        <time>2023-09-30T06:02:58.000Z</time>
      </trkpt>
      <trkpt lat="46.02305" lon="6.7857">
        <ele>1095.8000488281</ele>
        <time>2023-09-30T06:02:59.000Z</time>
      </trkpt>
      <trkpt lat="46.02305" lon="6.7857">
        <ele>1096</ele>
        <time>2023-09-30T06:03:00.000Z</time>
      </trkpt>
      <trkpt lat="46.02305" lon="6.7857">
        <ele>1096.1999511719</ele>
        <time>2023-09-30T06:03:01.000Z</time>
      </trkpt>
      <trkpt lat="46.02305" lon="6.7857">
        <ele>1096.5999755859</ele>
        <time>2023-09-30T06:03:03.000Z</time>
      </trkpt>
      <trkpt lat="46.02305" lon="6.7857">
        <ele>1097.8000488281</ele>
        <time>2023-09-30T06:03:11.000Z</time>
      </trkpt>
      <trkpt lat="46.02305" lon="6.78571">
        <ele>1098.4000244141</ele>
        <time>2023-09-30T06:03:13.000Z</time>
      </trkpt>
      <trkpt lat="46.02304" lon="6.78574">
        <ele>1098.5999755859</ele>
        <time>2023-09-30T06:03:15.000Z</time>
      </trkpt>
      <trkpt lat="46.02304" lon="6.78576">
        <ele>1098.8000488281</ele>
        <time>2023-09-30T06:03:16.000Z</time>
      </trkpt>
      <trkpt lat="46.02301" lon="6.78579">
        <ele>1099</ele>
        <time>2023-09-30T06:03:17.000Z</time>
      </trkpt>
      <trkpt lat="46.02298" lon="6.78583">
        <ele>1099.1999511719</ele>
        <time>2023-09-30T06:03:18.000Z</time>
      </trkpt>
      <trkpt lat="46.02296" lon="6.78586">
        <ele>1099.4000244141</ele>
        <time>2023-09-30T06:03:19.000Z</time>
      </trkpt>
      <trkpt lat="46.02294" lon="6.78589">
        <ele>1099.4000244141</ele>
        <time>2023-09-30T06:03:20.000Z</time>
      </trkpt>
      <trkpt lat="46.02292" lon="6.78592">
        <ele>1099.5999755859</ele>
        <time>2023-09-30T06:03:21.000Z</time>
      </trkpt>
      <trkpt lat="46.02292" lon="6.78594">
        <ele>1099.8000488281</ele>
        <time>2023-09-30T06:03:22.000Z</time>
      </trkpt>
      <trkpt lat="46.02291" lon="6.78595">
        <ele>1100</ele>
        <time>2023-09-30T06:03:23.000Z</time>
      </trkpt>
      <trkpt lat="46.02289" lon="6.78596">
        <ele>1100.1999511719</ele>
        <time>2023-09-30T06:03:24.000Z</time>
      </trkpt>
      <trkpt lat="46.02289" lon="6.78599">
        <ele>1100.4000244141</ele>
        <time>2023-09-30T06:03:25.000Z</time>
      </trkpt>
      <trkpt lat="46.0229" lon="6.78608">
        <ele>1100.5999755859</ele>
        <time>2023-09-30T06:03:26.000Z</time>
      </trkpt>
      <trkpt lat="46.0229" lon="6.78608">
        <ele>1100.8000488281</ele>
        <time>2023-09-30T06:03:27.000Z</time>
      </trkpt>
      <trkpt lat="46.02289" lon="6.78609">
        <ele>1100.8000488281</ele>
        <time>2023-09-30T06:03:28.000Z</time>
      </trkpt>
      <trkpt lat="46.0229" lon="6.7861">
        <ele>1101.1999511719</ele>
        <time>2023-09-30T06:03:29.000Z</time>
      </trkpt>
      <trkpt lat="46.0229" lon="6.78611">
        <ele>1101.1999511719</ele>
        <time>2023-09-30T06:03:30.000Z</time>
      </trkpt>
      <trkpt lat="46.0229" lon="6.78611">
        <ele>1101.4000244141</ele>
        <time>2023-09-30T06:03:31.000Z</time>
      </trkpt>
      <trkpt lat="46.0229" lon="6.78611">
        <ele>1101.8000488281</ele>
        <time>2023-09-30T06:03:32.000Z</time>
      </trkpt>
      <trkpt lat="46.02289" lon="6.78613">
        <ele>1102.1999511719</ele>
        <time>2023-09-30T06:03:34.000Z</time>
      </trkpt>
      <trkpt lat="46.02289" lon="6.78614">
        <ele>1102.4000244141</ele>
        <time>2023-09-30T06:03:35.000Z</time>
      </trkpt>
      <trkpt lat="46.02289" lon="6.78615">
        <ele>1102.8000488281</ele>
        <time>2023-09-30T06:03:36.000Z</time>
      </trkpt>
      <trkpt lat="46.02289" lon="6.78615">
        <ele>1103</ele>
        <time>2023-09-30T06:03:37.000Z</time>
      </trkpt>
      <trkpt lat="46.02289" lon="6.78615">
        <ele>1103.1999511719</ele>
        <time>2023-09-30T06:03:38.000Z</time>
      </trkpt>
      <trkpt lat="46.02289" lon="6.78615">
        <ele>1103.5999755859</ele>
        <time>2023-09-30T06:03:39.000Z</time>
      </trkpt>
      <trkpt lat="46.02289" lon="6.78617">
        <ele>1104</ele>
        <time>2023-09-30T06:03:43.000Z</time>
      </trkpt>
      <trkpt lat="46.02289" lon="6.78617">
        <ele>1104.5999755859</ele>
        <time>2023-09-30T06:03:46.000Z</time>
      </trkpt>
      <trkpt lat="46.02289" lon="6.78617">
        <ele>1104.5999755859</ele>
        <time>2023-09-30T06:03:47.000Z</time>
      </trkpt>
      <trkpt lat="46.02289" lon="6.78619">
        <ele>1105</ele>
        <time>2023-09-30T06:03:48.000Z</time>
      </trkpt>
      <trkpt lat="46.02289" lon="6.78621">
        <ele>1105</ele>
        <time>2023-09-30T06:03:49.000Z</time>
      </trkpt>
      <trkpt lat="46.02289" lon="6.78622">
        <ele>1105.1999511719</ele>
        <time>2023-09-30T06:03:50.000Z</time>
      </trkpt>
      <trkpt lat="46.02288" lon="6.78624">
        <ele>1105.4000244141</ele>
        <time>2023-09-30T06:03:51.000Z</time>
      </trkpt>
      <trkpt lat="46.02288" lon="6.78625">
        <ele>1105.5999755859</ele>
        <time>2023-09-30T06:03:52.000Z</time>
      </trkpt>
      <trkpt lat="46.02287" lon="6.78626">
        <ele>1105.8000488281</ele>
        <time>2023-09-30T06:03:53.000Z</time>
      </trkpt>
      <trkpt lat="46.02286" lon="6.78627">
        <ele>1106</ele>
        <time>2023-09-30T06:03:54.000Z</time>
      </trkpt>
      <trkpt lat="46.02286" lon="6.78628">
        <ele>1106.1999511719</ele>
        <time>2023-09-30T06:03:56.000Z</time>
      </trkpt>
      <trkpt lat="46.02286" lon="6.78628">
        <ele>1106.4000244141</ele>
        <time>2023-09-30T06:03:57.000Z</time>
      </trkpt>
      <trkpt lat="46.02285" lon="6.7863">
        <ele>1106.5999755859</ele>
        <time>2023-09-30T06:03:58.000Z</time>
      </trkpt>
      <trkpt lat="46.02285" lon="6.78633">
        <ele>1106.8000488281</ele>
        <time>2023-09-30T06:03:59.000Z</time>
      </trkpt>
      <trkpt lat="46.02285" lon="6.78634">
        <ele>1107</ele>
        <time>2023-09-30T06:04:00.000Z</time>
      </trkpt>
      <trkpt lat="46.02285" lon="6.78634">
        <ele>1107</ele>
        <time>2023-09-30T06:04:01.000Z</time>
      </trkpt>
      <trkpt lat="46.02285" lon="6.78634">
        <ele>1107.1999511719</ele>
        <time>2023-09-30T06:04:02.000Z</time>
      </trkpt>
      <trkpt lat="46.02285" lon="6.78634">
        <ele>1107.1999511719</ele>
        <time>2023-09-30T06:04:03.000Z</time>
      </trkpt>
      <trkpt lat="46.02285" lon="6.78635">
        <ele>1107.4000244141</ele>
        <time>2023-09-30T06:04:04.000Z</time>
      </trkpt>
      <trkpt lat="46.02284" lon="6.78637">
        <ele>1107.5999755859</ele>
        <time>2023-09-30T06:04:05.000Z</time>
      </trkpt>
      <trkpt lat="46.02283" lon="6.78642">
        <ele>1107.8000488281</ele>
        <time>2023-09-30T06:04:06.000Z</time>
      </trkpt>
      <trkpt lat="46.02283" lon="6.78645">
        <ele>1107.8000488281</ele>
        <time>2023-09-30T06:04:07.000Z</time>
      </trkpt>
      <trkpt lat="46.02283" lon="6.78647">
        <ele>1108</ele>
        <time>2023-09-30T06:04:08.000Z</time>
      </trkpt>
      <trkpt lat="46.02283" lon="6.78651">
        <ele>1108</ele>
        <time>2023-09-30T06:04:09.000Z</time>
      </trkpt>
      <trkpt lat="46.02281" lon="6.78654">
        <ele>1108</ele>
        <time>2023-09-30T06:04:10.000Z</time>
      </trkpt>
      <trkpt lat="46.02281" lon="6.78656">
        <ele>1108</ele>
        <time>2023-09-30T06:04:11.000Z</time>
      </trkpt>
      <trkpt lat="46.02281" lon="6.78656">
        <ele>1108</ele>
        <time>2023-09-30T06:04:12.000Z</time>
      </trkpt>
      <trkpt lat="46.0228" lon="6.78658">
        <ele>1108</ele>
        <time>2023-09-30T06:04:13.000Z</time>
      </trkpt>
      <trkpt lat="46.0228" lon="6.78662">
        <ele>1108</ele>
        <time>2023-09-30T06:04:14.000Z</time>
      </trkpt>
      <trkpt lat="46.02279" lon="6.78664">
        <ele>1108</ele>
        <time>2023-09-30T06:04:15.000Z</time>
      </trkpt>
      <trkpt lat="46.02279" lon="6.78666">
        <ele>1108</ele>
        <time>2023-09-30T06:04:16.000Z</time>
      </trkpt>
      <trkpt lat="46.02279" lon="6.78667">
        <ele>1108.1999511719</ele>
        <time>2023-09-30T06:04:17.000Z</time>
      </trkpt>
      <trkpt lat="46.02279" lon="6.78667">
        <ele>1108.1999511719</ele>
        <time>2023-09-30T06:04:18.000Z</time>
      </trkpt>
      <trkpt lat="46.02279" lon="6.78667">
        <ele>1108.1999511719</ele>
        <time>2023-09-30T06:04:19.000Z</time>
      </trkpt>
      <trkpt lat="46.02278" lon="6.78668">
        <ele>1108.1999511719</ele>
        <time>2023-09-30T06:04:20.000Z</time>
      </trkpt>
      <trkpt lat="46.02277" lon="6.7867">
        <ele>1108.1999511719</ele>
        <time>2023-09-30T06:04:21.000Z</time>
      </trkpt>
      <trkpt lat="46.02277" lon="6.78671">
        <ele>1108.4000244141</ele>
        <time>2023-09-30T06:04:22.000Z</time>
      </trkpt>
      <trkpt lat="46.02276" lon="6.78674">
        <ele>1109</ele>
        <time>2023-09-30T06:04:25.000Z</time>
      </trkpt>
      <trkpt lat="46.02276" lon="6.78676">
        <ele>1109.4000244141</ele>
        <time>2023-09-30T06:04:28.000Z</time>
      </trkpt>
      <trkpt lat="46.02277" lon="6.78676">
        <ele>1109.5999755859</ele>
        <time>2023-09-30T06:04:29.000Z</time>
      </trkpt>
      <trkpt lat="46.02277" lon="6.78678">
        <ele>1110</ele>
        <time>2023-09-30T06:04:30.000Z</time>
      </trkpt>
      <trkpt lat="46.02278" lon="6.78684">
        <ele>1110.4000244141</ele>
        <time>2023-09-30T06:04:34.000Z</time>
      </trkpt>
      <trkpt lat="46.02278" lon="6.78684">
        <ele>1110.4000244141</ele>
        <time>2023-09-30T06:04:35.000Z</time>
      </trkpt>
      <trkpt lat="46.02278" lon="6.78684">
        <ele>1110.5999755859</ele>
        <time>2023-09-30T06:04:36.000Z</time>
      </trkpt>
      <trkpt lat="46.02278" lon="6.78686">
        <ele>1111</ele>
        <time>2023-09-30T06:04:37.000Z</time>
      </trkpt>
      <trkpt lat="46.02278" lon="6.78686">
        <ele>1110.8000488281</ele>
        <time>2023-09-30T06:04:38.000Z</time>
      </trkpt>
      <trkpt lat="46.02279" lon="6.78687">
        <ele>1111.1999511719</ele>
        <time>2023-09-30T06:04:39.000Z</time>
      </trkpt>
      <trkpt lat="46.02279" lon="6.78689">
        <ele>1111.1999511719</ele>
        <time>2023-09-30T06:04:40.000Z</time>
      </trkpt>
      <trkpt lat="46.02279" lon="6.78691">
        <ele>1111.4000244141</ele>
        <time>2023-09-30T06:04:41.000Z</time>
      </trkpt>
      <trkpt lat="46.02279" lon="6.78691">
        <ele>1111.5999755859</ele>
        <time>2023-09-30T06:04:42.000Z</time>
      </trkpt>
      <trkpt lat="46.02279" lon="6.78693">
        <ele>1112</ele>
        <time>2023-09-30T06:04:43.000Z</time>
      </trkpt>
      <trkpt lat="46.02279" lon="6.78693">
        <ele>1112.1999511719</ele>
        <time>2023-09-30T06:04:44.000Z</time>
      </trkpt>
      <trkpt lat="46.02279" lon="6.78693">
        <ele>1112.4000244141</ele>
        <time>2023-09-30T06:04:45.000Z</time>
      </trkpt>
      <trkpt lat="46.02279" lon="6.78693">
        <ele>1112.5999755859</ele>
        <time>2023-09-30T06:04:46.000Z</time>
      </trkpt>
      <trkpt lat="46.02279" lon="6.78694">
        <ele>1112.8000488281</ele>
        <time>2023-09-30T06:04:47.000Z</time>
      </trkpt>
      <trkpt lat="46.02279" lon="6.78695">
        <ele>1113</ele>
        <time>2023-09-30T06:04:48.000Z</time>
      </trkpt>
      <trkpt lat="46.02278" lon="6.78697">
        <ele>1113.1999511719</ele>
        <time>2023-09-30T06:04:49.000Z</time>
      </trkpt>
      <trkpt lat="46.02278" lon="6.78697">
        <ele>1113.4000244141</ele>
        <time>2023-09-30T06:04:50.000Z</time>
      </trkpt>
      <trkpt lat="46.02278" lon="6.78697">
        <ele>1113.5999755859</ele>
        <time>2023-09-30T06:04:51.000Z</time>
      </trkpt>
      <trkpt lat="46.02278" lon="6.78697">
        <ele>1113.5999755859</ele>
        <time>2023-09-30T06:04:52.000Z</time>
      </trkpt>
      <trkpt lat="46.02279" lon="6.78698">
        <ele>1113.8000488281</ele>
        <time>2023-09-30T06:04:53.000Z</time>
      </trkpt>
      <trkpt lat="46.02279" lon="6.78699">
        <ele>1114</ele>
        <time>2023-09-30T06:04:54.000Z</time>
      </trkpt>
      <trkpt lat="46.02279" lon="6.78701">
        <ele>1114.1999511719</ele>
        <time>2023-09-30T06:04:55.000Z</time>
      </trkpt>
      <trkpt lat="46.0228" lon="6.78701">
        <ele>1114.4000244141</ele>
        <time>2023-09-30T06:04:56.000Z</time>
      </trkpt>
      <trkpt lat="46.0228" lon="6.78701">
        <ele>1114.5999755859</ele>
        <time>2023-09-30T06:04:57.000Z</time>
      </trkpt>
      <trkpt lat="46.0228" lon="6.78702">
        <ele>1115</ele>
        <time>2023-09-30T06:04:58.000Z</time>
      </trkpt>
      <trkpt lat="46.0228" lon="6.78702">
        <ele>1115.1999511719</ele>
        <time>2023-09-30T06:04:59.000Z</time>
      </trkpt>
      <trkpt lat="46.02279" lon="6.78703">
        <ele>1115.4000244141</ele>
        <time>2023-09-30T06:05:00.000Z</time>
      </trkpt>
      <trkpt lat="46.0228" lon="6.78705">
        <ele>1115.5999755859</ele>
        <time>2023-09-30T06:05:01.000Z</time>
      </trkpt>
      <trkpt lat="46.0228" lon="6.78705">
        <ele>1115.8000488281</ele>
        <time>2023-09-30T06:05:02.000Z</time>
      </trkpt>
      <trkpt lat="46.0228" lon="6.78705">
        <ele>1115.8000488281</ele>
        <time>2023-09-30T06:05:03.000Z</time>
      </trkpt>
      <trkpt lat="46.0228" lon="6.78705">
        <ele>1116</ele>
        <time>2023-09-30T06:05:04.000Z</time>
      </trkpt>
      <trkpt lat="46.0228" lon="6.78705">
        <ele>1116.1999511719</ele>
        <time>2023-09-30T06:05:05.000Z</time>
      </trkpt>
      <trkpt lat="46.0228" lon="6.78705">
        <ele>1116.4000244141</ele>
        <time>2023-09-30T06:05:06.000Z</time>
      </trkpt>
      <trkpt lat="46.0228" lon="6.78705">
        <ele>1116.5999755859</ele>
        <time>2023-09-30T06:05:07.000Z</time>
      </trkpt>
      <trkpt lat="46.02281" lon="6.78706">
        <ele>1116.8000488281</ele>
        <time>2023-09-30T06:05:08.000Z</time>
      </trkpt>
      <trkpt lat="46.02281" lon="6.78706">
        <ele>1117</ele>
        <time>2023-09-30T06:05:09.000Z</time>
      </trkpt>
      <trkpt lat="46.02281" lon="6.78706">
        <ele>1117</ele>
        <time>2023-09-30T06:05:10.000Z</time>
      </trkpt>
      <trkpt lat="46.02281" lon="6.78707">
        <ele>1117.1999511719</ele>
        <time>2023-09-30T06:05:11.000Z</time>
      </trkpt>
      <trkpt lat="46.02281" lon="6.78707">
        <ele>1117.4000244141</ele>
        <time>2023-09-30T06:05:13.000Z</time>
      </trkpt>
      <trkpt lat="46.02281" lon="6.78707">
        <ele>1117.5999755859</ele>
        <time>2023-09-30T06:05:15.000Z</time>
      </trkpt>
      <trkpt lat="46.02281" lon="6.78707">
        <ele>1118.8000488281</ele>
        <time>2023-09-30T06:05:21.000Z</time>
      </trkpt>
      <trkpt lat="46.02281" lon="6.7871">
        <ele>1119.4000244141</ele>
        <time>2023-09-30T06:05:41.000Z</time>
      </trkpt>
      <trkpt lat="46.02281" lon="6.78712">
        <ele>1119.4000244141</ele>
        <time>2023-09-30T06:05:42.000Z</time>
      </trkpt>
      <trkpt lat="46.02281" lon="6.78716">
        <ele>1119.4000244141</ele>
        <time>2023-09-30T06:05:44.000Z</time>
      </trkpt>
      <trkpt lat="46.02282" lon="6.78718">
        <ele>1119.4000244141</ele>
        <time>2023-09-30T06:05:45.000Z</time>
      </trkpt>
      <trkpt lat="46.02282" lon="6.78722">
        <ele>1119.8000488281</ele>
        <time>2023-09-30T06:05:47.000Z</time>
      </trkpt>
      <trkpt lat="46.02281" lon="6.78729">
        <ele>1120.4000244141</ele>
        <time>2023-09-30T06:05:51.000Z</time>
      </trkpt>
      <trkpt lat="46.0228" lon="6.78731">
        <ele>1120.4000244141</ele>
        <time>2023-09-30T06:05:52.000Z</time>
      </trkpt>
      <trkpt lat="46.0228" lon="6.78733">
        <ele>1120.4000244141</ele>
        <time>2023-09-30T06:05:53.000Z</time>
      </trkpt>
      <trkpt lat="46.02279" lon="6.78734">
        <ele>1120.5999755859</ele>
        <time>2023-09-30T06:05:54.000Z</time>
      </trkpt>
      <trkpt lat="46.02278" lon="6.78739">
        <ele>1120.8000488281</ele>
        <time>2023-09-30T06:05:56.000Z</time>
      </trkpt>
      <trkpt lat="46.02277" lon="6.78741">
        <ele>1121</ele>
        <time>2023-09-30T06:05:57.000Z</time>
      </trkpt>
      <trkpt lat="46.02275" lon="6.78742">
        <ele>1121</ele>
        <time>2023-09-30T06:05:58.000Z</time>
      </trkpt>
      <trkpt lat="46.02274" lon="6.78743">
        <ele>1120.8000488281</ele>
        <time>2023-09-30T06:05:59.000Z</time>
      </trkpt>
      <trkpt lat="46.02272" lon="6.78745">
        <ele>1121</ele>
        <time>2023-09-30T06:06:00.000Z</time>
      </trkpt>
      <trkpt lat="46.02271" lon="6.78747">
        <ele>1121</ele>
        <time>2023-09-30T06:06:01.000Z</time>
      </trkpt>
      <trkpt lat="46.0227" lon="6.78749">
        <ele>1121</ele>
        <time>2023-09-30T06:06:02.000Z</time>
      </trkpt>
      <trkpt lat="46.02268" lon="6.78751">
        <ele>1121.1999511719</ele>
        <time>2023-09-30T06:06:03.000Z</time>
      </trkpt>
      <trkpt lat="46.02267" lon="6.78754">
        <ele>1121.1999511719</ele>
        <time>2023-09-30T06:06:04.000Z</time>
      </trkpt>
      <trkpt lat="46.02266" lon="6.78756">
        <ele>1121.1999511719</ele>
        <time>2023-09-30T06:06:05.000Z</time>
      </trkpt>
      <trkpt lat="46.02264" lon="6.78758">
        <ele>1121.1999511719</ele>
        <time>2023-09-30T06:06:06.000Z</time>
      </trkpt>
      <trkpt lat="46.02263" lon="6.78759">
        <ele>1121.1999511719</ele>
        <time>2023-09-30T06:06:07.000Z</time>
      </trkpt>
      <trkpt lat="46.02262" lon="6.78761">
        <ele>1121.4000244141</ele>
        <time>2023-09-30T06:06:08.000Z</time>
      </trkpt>
      <trkpt lat="46.02261" lon="6.78764">
        <ele>1121.4000244141</ele>
        <time>2023-09-30T06:06:09.000Z</time>
      </trkpt>
      <trkpt lat="46.0226" lon="6.78766">
        <ele>1121.5999755859</ele>
        <time>2023-09-30T06:06:10.000Z</time>
      </trkpt>
      <trkpt lat="46.02259" lon="6.78768">
        <ele>1121.5999755859</ele>
        <time>2023-09-30T06:06:11.000Z</time>
      </trkpt>
      <trkpt lat="46.02257" lon="6.7877">
        <ele>1121.8000488281</ele>
        <time>2023-09-30T06:06:12.000Z</time>
      </trkpt>
      <trkpt lat="46.02256" lon="6.78772">
        <ele>1121.8000488281</ele>
        <time>2023-09-30T06:06:13.000Z</time>
      </trkpt>
      <trkpt lat="46.02256" lon="6.78775">
        <ele>1122</ele>
        <time>2023-09-30T06:06:14.000Z</time>
      </trkpt>
      <trkpt lat="46.02256" lon="6.78778">
        <ele>1122</ele>
        <time>2023-09-30T06:06:15.000Z</time>
      </trkpt>
      <trkpt lat="46.02256" lon="6.78782">
        <ele>1122.1999511719</ele>
        <time>2023-09-30T06:06:16.000Z</time>
      </trkpt>
      <trkpt lat="46.02256" lon="6.78784">
        <ele>1122.1999511719</ele>
        <time>2023-09-30T06:06:17.000Z</time>
      </trkpt>
      <trkpt lat="46.02255" lon="6.78785">
        <ele>1122.1999511719</ele>
        <time>2023-09-30T06:06:18.000Z</time>
      </trkpt>
      <trkpt lat="46.02254" lon="6.78786">
        <ele>1122.4000244141</ele>
        <time>2023-09-30T06:06:19.000Z</time>
      </trkpt>
      <trkpt lat="46.02253" lon="6.7879">
        <ele>1122.4000244141</ele>
        <time>2023-09-30T06:06:20.000Z</time>
      </trkpt>
      <trkpt lat="46.02252" lon="6.78792">
        <ele>1122.4000244141</ele>
        <time>2023-09-30T06:06:21.000Z</time>
      </trkpt>
      <trkpt lat="46.02252" lon="6.78793">
        <ele>1122.5999755859</ele>
        <time>2023-09-30T06:06:22.000Z</time>
      </trkpt>
      <trkpt lat="46.02252" lon="6.78793">
        <ele>1122.8000488281</ele>
        <time>2023-09-30T06:06:23.000Z</time>
      </trkpt>
      <trkpt lat="46.02251" lon="6.78794">
        <ele>1123</ele>
        <time>2023-09-30T06:06:24.000Z</time>
      </trkpt>
      <trkpt lat="46.0225" lon="6.78796">
        <ele>1123</ele>
        <time>2023-09-30T06:06:25.000Z</time>
      </trkpt>
      <trkpt lat="46.02249" lon="6.78799">
        <ele>1123.1999511719</ele>
        <time>2023-09-30T06:06:26.000Z</time>
      </trkpt>
      <trkpt lat="46.02249" lon="6.78801">
        <ele>1123.4000244141</ele>
        <time>2023-09-30T06:06:27.000Z</time>
      </trkpt>
      <trkpt lat="46.02249" lon="6.78806">
        <ele>1123.5999755859</ele>
        <time>2023-09-30T06:06:29.000Z</time>
      </trkpt>
      <trkpt lat="46.02248" lon="6.78808">
        <ele>1123.8000488281</ele>
        <time>2023-09-30T06:06:30.000Z</time>
      </trkpt>
      <trkpt lat="46.02248" lon="6.7881">
        <ele>1124</ele>
        <time>2023-09-30T06:06:31.000Z</time>
      </trkpt>
      <trkpt lat="46.02248" lon="6.78815">
        <ele>1124</ele>
        <time>2023-09-30T06:06:32.000Z</time>
      </trkpt>
      <trkpt lat="46.02248" lon="6.78819">
        <ele>1124.1999511719</ele>
        <time>2023-09-30T06:06:33.000Z</time>
      </trkpt>
      <trkpt lat="46.02248" lon="6.78821">
        <ele>1124.1999511719</ele>
        <time>2023-09-30T06:06:34.000Z</time>
      </trkpt>
      <trkpt lat="46.02248" lon="6.78821">
        <ele>1124.4000244141</ele>
        <time>2023-09-30T06:06:35.000Z</time>
      </trkpt>
      <trkpt lat="46.02248" lon="6.78822">
        <ele>1124.5999755859</ele>
        <time>2023-09-30T06:06:36.000Z</time>
      </trkpt>
      <trkpt lat="46.02247" lon="6.78823">
        <ele>1124.5999755859</ele>
        <time>2023-09-30T06:06:37.000Z</time>
      </trkpt>
      <trkpt lat="46.02247" lon="6.78824">
        <ele>1124.8000488281</ele>
        <time>2023-09-30T06:06:38.000Z</time>
      </trkpt>
      <trkpt lat="46.02247" lon="6.78826">
        <ele>1124.8000488281</ele>
        <time>2023-09-30T06:06:39.000Z</time>
      </trkpt>
      <trkpt lat="46.02247" lon="6.78827">
        <ele>1125.1999511719</ele>
        <time>2023-09-30T06:06:40.000Z</time>
      </trkpt>
      <trkpt lat="46.02247" lon="6.78827">
        <ele>1125.1999511719</ele>
        <time>2023-09-30T06:06:41.000Z</time>
      </trkpt>
      <trkpt lat="46.02247" lon="6.78829">
        <ele>1125.4000244141</ele>
        <time>2023-09-30T06:06:42.000Z</time>
      </trkpt>
      <trkpt lat="46.02247" lon="6.78831">
        <ele>1126</ele>
        <time>2023-09-30T06:06:43.000Z</time>
      </trkpt>
      <trkpt lat="46.02247" lon="6.78833">
        <ele>1126.1999511719</ele>
        <time>2023-09-30T06:06:44.000Z</time>
      </trkpt>
      <trkpt lat="46.02247" lon="6.78836">
        <ele>1126.5999755859</ele>
        <time>2023-09-30T06:06:45.000Z</time>
      </trkpt>
      <trkpt lat="46.02247" lon="6.78838">
        <ele>1126.5999755859</ele>
        <time>2023-09-30T06:06:46.000Z</time>
      </trkpt>
      <trkpt lat="46.02246" lon="6.7884">
        <ele>1126.8000488281</ele>
        <time>2023-09-30T06:06:47.000Z</time>
      </trkpt>
      <trkpt lat="46.02246" lon="6.78843">
        <ele>1126.8000488281</ele>
        <time>2023-09-30T06:06:48.000Z</time>
      </trkpt>
      <trkpt lat="46.02246" lon="6.78844">
        <ele>1127.4000244141</ele>
        <time>2023-09-30T06:06:49.000Z</time>
      </trkpt>
      <trkpt lat="46.02245" lon="6.78846">
        <ele>1127.8000488281</ele>
        <time>2023-09-30T06:06:50.000Z</time>
      </trkpt>
      <trkpt lat="46.02245" lon="6.78847">
        <ele>1127.8000488281</ele>
        <time>2023-09-30T06:06:51.000Z</time>
      </trkpt>
      <trkpt lat="46.02245" lon="6.78847">
        <ele>1128.1999511719</ele>
        <time>2023-09-30T06:06:52.000Z</time>
      </trkpt>
      <trkpt lat="46.02245" lon="6.78848">
        <ele>1128.1999511719</ele>
        <time>2023-09-30T06:06:53.000Z</time>
      </trkpt>
      <trkpt lat="46.02245" lon="6.78849">
        <ele>1128.5999755859</ele>
        <time>2023-09-30T06:06:54.000Z</time>
      </trkpt>
      <trkpt lat="46.02245" lon="6.78851">
        <ele>1128.5999755859</ele>
        <time>2023-09-30T06:06:55.000Z</time>
      </trkpt>
      <trkpt lat="46.02245" lon="6.78853">
        <ele>1129.1999511719</ele>
        <time>2023-09-30T06:06:56.000Z</time>
      </trkpt>
      <trkpt lat="46.02245" lon="6.78854">
        <ele>1129.4000244141</ele>
        <time>2023-09-30T06:06:57.000Z</time>
      </trkpt>
      <trkpt lat="46.02245" lon="6.78856">
        <ele>1129.8000488281</ele>
        <time>2023-09-30T06:06:58.000Z</time>
      </trkpt>
      <trkpt lat="46.02244" lon="6.78858">
        <ele>1130.1999511719</ele>
        <time>2023-09-30T06:06:59.000Z</time>
      </trkpt>
      <trkpt lat="46.02244" lon="6.78861">
        <ele>1130.4000244141</ele>
        <time>2023-09-30T06:07:00.000Z</time>
      </trkpt>
      <trkpt lat="46.02244" lon="6.78863">
        <ele>1130.5999755859</ele>
        <time>2023-09-30T06:07:01.000Z</time>
      </trkpt>
      <trkpt lat="46.02245" lon="6.78864">
        <ele>1130.5999755859</ele>
        <time>2023-09-30T06:07:02.000Z</time>
      </trkpt>
      <trkpt lat="46.02246" lon="6.78865">
        <ele>1130.8000488281</ele>
        <time>2023-09-30T06:07:03.000Z</time>
      </trkpt>
      <trkpt lat="46.02246" lon="6.78867">
        <ele>1131</ele>
        <time>2023-09-30T06:07:04.000Z</time>
      </trkpt>
      <trkpt lat="46.02247" lon="6.78869">
        <ele>1131.1999511719</ele>
        <time>2023-09-30T06:07:05.000Z</time>
      </trkpt>
      <trkpt lat="46.02248" lon="6.78872">
        <ele>1131.4000244141</ele>
        <time>2023-09-30T06:07:06.000Z</time>
      </trkpt>
      <trkpt lat="46.02248" lon="6.78874">
        <ele>1131.5999755859</ele>
        <time>2023-09-30T06:07:07.000Z</time>
      </trkpt>
      <trkpt lat="46.02249" lon="6.78877">
        <ele>1131.8000488281</ele>
        <time>2023-09-30T06:07:08.000Z</time>
      </trkpt>
      <trkpt lat="46.02249" lon="6.78878">
        <ele>1131.8000488281</ele>
        <time>2023-09-30T06:07:09.000Z</time>
      </trkpt>
      <trkpt lat="46.02249" lon="6.7888">
        <ele>1132</ele>
        <time>2023-09-30T06:07:10.000Z</time>
      </trkpt>
      <trkpt lat="46.02249" lon="6.78883">
        <ele>1132.1999511719</ele>
        <time>2023-09-30T06:07:11.000Z</time>
      </trkpt>
      <trkpt lat="46.02249" lon="6.78885">
        <ele>1132.1999511719</ele>
        <time>2023-09-30T06:07:12.000Z</time>
      </trkpt>
      <trkpt lat="46.02249" lon="6.78888">
        <ele>1132.4000244141</ele>
        <time>2023-09-30T06:07:13.000Z</time>
      </trkpt>
      <trkpt lat="46.02249" lon="6.7889">
        <ele>1132.4000244141</ele>
        <time>2023-09-30T06:07:14.000Z</time>
      </trkpt>
      <trkpt lat="46.02249" lon="6.78894">
        <ele>1132.4000244141</ele>
        <time>2023-09-30T06:07:15.000Z</time>
      </trkpt>
      <trkpt lat="46.02249" lon="6.78896">
        <ele>1132.4000244141</ele>
        <time>2023-09-30T06:07:16.000Z</time>
      </trkpt>
      <trkpt lat="46.02248" lon="6.78898">
        <ele>1132.4000244141</ele>
        <time>2023-09-30T06:07:17.000Z</time>
      </trkpt>
      <trkpt lat="46.02249" lon="6.78901">
        <ele>1132.5999755859</ele>
        <time>2023-09-30T06:07:18.000Z</time>
      </trkpt>
      <trkpt lat="46.02249" lon="6.78904">
        <ele>1132.8000488281</ele>
        <time>2023-09-30T06:07:19.000Z</time>
      </trkpt>
      <trkpt lat="46.02249" lon="6.78907">
        <ele>1133</ele>
        <time>2023-09-30T06:07:20.000Z</time>
      </trkpt>
      <trkpt lat="46.0225" lon="6.78909">
        <ele>1133</ele>
        <time>2023-09-30T06:07:21.000Z</time>
      </trkpt>
      <trkpt lat="46.0225" lon="6.78912">
        <ele>1133.1999511719</ele>
        <time>2023-09-30T06:07:22.000Z</time>
      </trkpt>
      <trkpt lat="46.02251" lon="6.78914">
        <ele>1133.1999511719</ele>
        <time>2023-09-30T06:07:23.000Z</time>
      </trkpt>
      <trkpt lat="46.02251" lon="6.78917">
        <ele>1133.4000244141</ele>
        <time>2023-09-30T06:07:24.000Z</time>
      </trkpt>
      <trkpt lat="46.02252" lon="6.7892">
        <ele>1133.5999755859</ele>
        <time>2023-09-30T06:07:25.000Z</time>
      </trkpt>
      <trkpt lat="46.02252" lon="6.78923">
        <ele>1133.5999755859</ele>
        <time>2023-09-30T06:07:26.000Z</time>
      </trkpt>
      <trkpt lat="46.02252" lon="6.78925">
        <ele>1133.8000488281</ele>
        <time>2023-09-30T06:07:27.000Z</time>
      </trkpt>
      <trkpt lat="46.02253" lon="6.78928">
        <ele>1134</ele>
        <time>2023-09-30T06:07:28.000Z</time>
      </trkpt>
      <trkpt lat="46.02253" lon="6.7893">
        <ele>1134.1999511719</ele>
        <time>2023-09-30T06:07:29.000Z</time>
      </trkpt>
      <trkpt lat="46.02254" lon="6.78932">
        <ele>1134.1999511719</ele>
        <time>2023-09-30T06:07:30.000Z</time>
      </trkpt>
      <trkpt lat="46.02254" lon="6.78934">
        <ele>1134.4000244141</ele>
        <time>2023-09-30T06:07:31.000Z</time>
      </trkpt>
      <trkpt lat="46.02254" lon="6.78937">
        <ele>1134.4000244141</ele>
        <time>2023-09-30T06:07:32.000Z</time>
      </trkpt>
      <trkpt lat="46.02255" lon="6.78939">
        <ele>1134.5999755859</ele>
        <time>2023-09-30T06:07:33.000Z</time>
      </trkpt>
      <trkpt lat="46.02255" lon="6.78941">
        <ele>1134.8000488281</ele>
        <time>2023-09-30T06:07:34.000Z</time>
      </trkpt>
      <trkpt lat="46.02254" lon="6.78944">
        <ele>1134.5999755859</ele>
        <time>2023-09-30T06:07:35.000Z</time>
      </trkpt>
      <trkpt lat="46.02254" lon="6.78946">
        <ele>1135</ele>
        <time>2023-09-30T06:07:36.000Z</time>
      </trkpt>
      <trkpt lat="46.02254" lon="6.78947">
        <ele>1134.8000488281</ele>
        <time>2023-09-30T06:07:37.000Z</time>
      </trkpt>
      <trkpt lat="46.02254" lon="6.78949">
        <ele>1135</ele>
        <time>2023-09-30T06:07:38.000Z</time>
      </trkpt>
      <trkpt lat="46.02254" lon="6.78951">
        <ele>1135</ele>
        <time>2023-09-30T06:07:39.000Z</time>
      </trkpt>
      <trkpt lat="46.02254" lon="6.78952">
        <ele>1135</ele>
        <time>2023-09-30T06:07:40.000Z</time>
      </trkpt>
      <trkpt lat="46.02254" lon="6.78954">
        <ele>1135.1999511719</ele>
        <time>2023-09-30T06:07:41.000Z</time>
      </trkpt>
      <trkpt lat="46.02254" lon="6.78955">
        <ele>1135.1999511719</ele>
        <time>2023-09-30T06:07:42.000Z</time>
      </trkpt>
      <trkpt lat="46.02254" lon="6.78957">
        <ele>1135.4000244141</ele>
        <time>2023-09-30T06:07:43.000Z</time>
      </trkpt>
      <trkpt lat="46.02255" lon="6.78959">
        <ele>1135.5999755859</ele>
        <time>2023-09-30T06:07:44.000Z</time>
      </trkpt>
      <trkpt lat="46.02255" lon="6.78961">
        <ele>1135.8000488281</ele>
        <time>2023-09-30T06:07:45.000Z</time>
      </trkpt>
      <trkpt lat="46.02255" lon="6.78961">
        <ele>1136</ele>
        <time>2023-09-30T06:07:46.000Z</time>
      </trkpt>
      <trkpt lat="46.02255" lon="6.78962">
        <ele>1136</ele>
        <time>2023-09-30T06:07:47.000Z</time>
      </trkpt>
      <trkpt lat="46.02255" lon="6.78963">
        <ele>1136.4000244141</ele>
        <time>2023-09-30T06:07:48.000Z</time>
      </trkpt>
      <trkpt lat="46.02255" lon="6.78964">
        <ele>1136.5999755859</ele>
        <time>2023-09-30T06:07:49.000Z</time>
      </trkpt>
      <trkpt lat="46.02254" lon="6.78965">
        <ele>1136.8000488281</ele>
        <time>2023-09-30T06:07:50.000Z</time>
      </trkpt>
      <trkpt lat="46.02254" lon="6.78966">
        <ele>1137</ele>
        <time>2023-09-30T06:07:51.000Z</time>
      </trkpt>
      <trkpt lat="46.02254" lon="6.78967">
        <ele>1137.1999511719</ele>
        <time>2023-09-30T06:07:52.000Z</time>
      </trkpt>
      <trkpt lat="46.02254" lon="6.78969">
        <ele>1137.4000244141</ele>
        <time>2023-09-30T06:07:53.000Z</time>
      </trkpt>
      <trkpt lat="46.02254" lon="6.7897">
        <ele>1137.5999755859</ele>
        <time>2023-09-30T06:07:54.000Z</time>
      </trkpt>
      <trkpt lat="46.02254" lon="6.78971">
        <ele>1137.8000488281</ele>
        <time>2023-09-30T06:07:55.000Z</time>
      </trkpt>
      <trkpt lat="46.02253" lon="6.78971">
        <ele>1137.8000488281</ele>
        <time>2023-09-30T06:07:56.000Z</time>
      </trkpt>
      <trkpt lat="46.02253" lon="6.78972">
        <ele>1138</ele>
        <time>2023-09-30T06:07:57.000Z</time>
      </trkpt>
      <trkpt lat="46.02253" lon="6.78973">
        <ele>1138.1999511719</ele>
        <time>2023-09-30T06:07:58.000Z</time>
      </trkpt>
      <trkpt lat="46.02253" lon="6.78973">
        <ele>1138.4000244141</ele>
        <time>2023-09-30T06:07:59.000Z</time>
      </trkpt>
      <trkpt lat="46.02253" lon="6.78974">
        <ele>1138.4000244141</ele>
        <time>2023-09-30T06:08:00.000Z</time>
      </trkpt>
      <trkpt lat="46.02253" lon="6.78976">
        <ele>1138.5999755859</ele>
        <time>2023-09-30T06:08:01.000Z</time>
      </trkpt>
      <trkpt lat="46.02253" lon="6.78977">
        <ele>1138.8000488281</ele>
        <time>2023-09-30T06:08:02.000Z</time>
      </trkpt>
      <trkpt lat="46.02253" lon="6.78978">
        <ele>1138.8000488281</ele>
        <time>2023-09-30T06:08:03.000Z</time>
      </trkpt>
      <trkpt lat="46.02252" lon="6.78979">
        <ele>1138.8000488281</ele>
        <time>2023-09-30T06:08:04.000Z</time>
      </trkpt>
      <trkpt lat="46.02252" lon="6.7898">
        <ele>1139</ele>
        <time>2023-09-30T06:08:05.000Z</time>
      </trkpt>
      <trkpt lat="46.02252" lon="6.78984">
        <ele>1139</ele>
        <time>2023-09-30T06:08:06.000Z</time>
      </trkpt>
      <trkpt lat="46.02251" lon="6.78985">
        <ele>1139.1999511719</ele>
        <time>2023-09-30T06:08:07.000Z</time>
      </trkpt>
      <trkpt lat="46.02252" lon="6.78987">
        <ele>1139.4000244141</ele>
        <time>2023-09-30T06:08:08.000Z</time>
      </trkpt>
      <trkpt lat="46.02252" lon="6.78989">
        <ele>1139.8000488281</ele>
        <time>2023-09-30T06:08:09.000Z</time>
      </trkpt>
      <trkpt lat="46.02252" lon="6.78991">
        <ele>1140</ele>
        <time>2023-09-30T06:08:10.000Z</time>
      </trkpt>
      <trkpt lat="46.02252" lon="6.78991">
        <ele>1140.1999511719</ele>
        <time>2023-09-30T06:08:11.000Z</time>
      </trkpt>
      <trkpt lat="46.02252" lon="6.78992">
        <ele>1140.4000244141</ele>
        <time>2023-09-30T06:08:12.000Z</time>
      </trkpt>
      <trkpt lat="46.02251" lon="6.78995">
        <ele>1140.5999755859</ele>
        <time>2023-09-30T06:08:13.000Z</time>
      </trkpt>
      <trkpt lat="46.02251" lon="6.78995">
        <ele>1140.8000488281</ele>
        <time>2023-09-30T06:08:14.000Z</time>
      </trkpt>
      <trkpt lat="46.02251" lon="6.78995">
        <ele>1141</ele>
        <time>2023-09-30T06:08:15.000Z</time>
      </trkpt>
      <trkpt lat="46.02251" lon="6.78995">
        <ele>1141.1999511719</ele>
        <time>2023-09-30T06:08:16.000Z</time>
      </trkpt>
      <trkpt lat="46.02251" lon="6.78995">
        <ele>1141.4000244141</ele>
        <time>2023-09-30T06:08:17.000Z</time>
      </trkpt>
      <trkpt lat="46.02251" lon="6.78995">
        <ele>1141.5999755859</ele>
        <time>2023-09-30T06:08:18.000Z</time>
      </trkpt>
      <trkpt lat="46.02251" lon="6.78995">
        <ele>1141.8000488281</ele>
        <time>2023-09-30T06:08:19.000Z</time>
      </trkpt>
      <trkpt lat="46.02251" lon="6.78995">
        <ele>1142</ele>
        <time>2023-09-30T06:08:20.000Z</time>
      </trkpt>
      <trkpt lat="46.02251" lon="6.78997">
        <ele>1142</ele>
        <time>2023-09-30T06:08:21.000Z</time>
      </trkpt>
      <trkpt lat="46.02251" lon="6.79">
        <ele>1142.1999511719</ele>
        <time>2023-09-30T06:08:22.000Z</time>
      </trkpt>
      <trkpt lat="46.02251" lon="6.79003">
        <ele>1142.5999755859</ele>
        <time>2023-09-30T06:08:23.000Z</time>
      </trkpt>
      <trkpt lat="46.02251" lon="6.79006">
        <ele>1142.5999755859</ele>
        <time>2023-09-30T06:08:24.000Z</time>
      </trkpt>
      <trkpt lat="46.0225" lon="6.79008">
        <ele>1142.8000488281</ele>
        <time>2023-09-30T06:08:25.000Z</time>
      </trkpt>
      <trkpt lat="46.0225" lon="6.79008">
        <ele>1143</ele>
        <time>2023-09-30T06:08:26.000Z</time>
      </trkpt>
      <trkpt lat="46.0225" lon="6.79008">
        <ele>1143.1999511719</ele>
        <time>2023-09-30T06:08:27.000Z</time>
      </trkpt>
      <trkpt lat="46.0225" lon="6.79008">
        <ele>1143.5999755859</ele>
        <time>2023-09-30T06:08:28.000Z</time>
      </trkpt>
      <trkpt lat="46.0225" lon="6.79008">
        <ele>1144.1999511719</ele>
        <time>2023-09-30T06:08:30.000Z</time>
      </trkpt>
      <trkpt lat="46.0225" lon="6.79014">
        <ele>1144.4000244141</ele>
        <time>2023-09-30T06:08:32.000Z</time>
      </trkpt>
      <trkpt lat="46.0225" lon="6.79016">
        <ele>1144.5999755859</ele>
        <time>2023-09-30T06:08:33.000Z</time>
      </trkpt>
      <trkpt lat="46.02251" lon="6.79017">
        <ele>1144.5999755859</ele>
        <time>2023-09-30T06:08:34.000Z</time>
      </trkpt>
      <trkpt lat="46.02251" lon="6.79018">
        <ele>1144.5999755859</ele>
        <time>2023-09-30T06:08:35.000Z</time>
      </trkpt>
      <trkpt lat="46.02251" lon="6.79019">
        <ele>1144.8000488281</ele>
        <time>2023-09-30T06:08:36.000Z</time>
      </trkpt>
      <trkpt lat="46.02251" lon="6.79019">
        <ele>1144.8000488281</ele>
        <time>2023-09-30T06:08:37.000Z</time>
      </trkpt>
      <trkpt lat="46.02251" lon="6.79021">
        <ele>1145</ele>
        <time>2023-09-30T06:08:38.000Z</time>
      </trkpt>
      <trkpt lat="46.02251" lon="6.79023">
        <ele>1145</ele>
        <time>2023-09-30T06:08:39.000Z</time>
      </trkpt>
      <trkpt lat="46.0225" lon="6.79025">
        <ele>1145</ele>
        <time>2023-09-30T06:08:40.000Z</time>
      </trkpt>
      <trkpt lat="46.0225" lon="6.79028">
        <ele>1145.4000244141</ele>
        <time>2023-09-30T06:08:41.000Z</time>
      </trkpt>
      <trkpt lat="46.0225" lon="6.7903">
        <ele>1145.5999755859</ele>
        <time>2023-09-30T06:08:42.000Z</time>
      </trkpt>
      <trkpt lat="46.0225" lon="6.79033">
        <ele>1145.5999755859</ele>
        <time>2023-09-30T06:08:43.000Z</time>
      </trkpt>
      <trkpt lat="46.0225" lon="6.79033">
        <ele>1145.8000488281</ele>
        <time>2023-09-30T06:08:44.000Z</time>
      </trkpt>
      <trkpt lat="46.0225" lon="6.79033">
        <ele>1146</ele>
        <time>2023-09-30T06:08:45.000Z</time>
      </trkpt>
      <trkpt lat="46.0225" lon="6.79033">
        <ele>1146.4000244141</ele>
        <time>2023-09-30T06:08:48.000Z</time>
      </trkpt>
      <trkpt lat="46.0225" lon="6.79033">
        <ele>1146.5999755859</ele>
        <time>2023-09-30T06:08:49.000Z</time>
      </trkpt>
      <trkpt lat="46.0225" lon="6.79035">
        <ele>1147</ele>
        <time>2023-09-30T06:08:51.000Z</time>
      </trkpt>
      <trkpt lat="46.0225" lon="6.79037">
        <ele>1147</ele>
        <time>2023-09-30T06:08:52.000Z</time>
      </trkpt>
      <trkpt lat="46.02251" lon="6.79039">
        <ele>1147.4000244141</ele>
        <time>2023-09-30T06:08:53.000Z</time>
      </trkpt>
      <trkpt lat="46.02251" lon="6.79039">
        <ele>1147.4000244141</ele>
        <time>2023-09-30T06:08:54.000Z</time>
      </trkpt>
      <trkpt lat="46.02251" lon="6.79041">
        <ele>1147.5999755859</ele>
        <time>2023-09-30T06:08:55.000Z</time>
      </trkpt>
      <trkpt lat="46.02251" lon="6.79043">
        <ele>1147.8000488281</ele>
        <time>2023-09-30T06:08:56.000Z</time>
      </trkpt>
      <trkpt lat="46.02251" lon="6.79043">
        <ele>1147.8000488281</ele>
        <time>2023-09-30T06:08:57.000Z</time>
      </trkpt>
      <trkpt lat="46.02251" lon="6.79044">
        <ele>1147.8000488281</ele>
        <time>2023-09-30T06:08:58.000Z</time>
      </trkpt>
      <trkpt lat="46.02252" lon="6.79045">
        <ele>1148</ele>
        <time>2023-09-30T06:08:59.000Z</time>
      </trkpt>
      <trkpt lat="46.02252" lon="6.79045">
        <ele>1148.4000244141</ele>
        <time>2023-09-30T06:09:00.000Z</time>
      </trkpt>
      <trkpt lat="46.02252" lon="6.79045">
        <ele>1148.5999755859</ele>
        <time>2023-09-30T06:09:01.000Z</time>
      </trkpt>
      <trkpt lat="46.02252" lon="6.79045">
        <ele>1148.8000488281</ele>
        <time>2023-09-30T06:09:02.000Z</time>
      </trkpt>
      <trkpt lat="46.02252" lon="6.79046">
        <ele>1149</ele>
        <time>2023-09-30T06:09:03.000Z</time>
      </trkpt>
      <trkpt lat="46.02252" lon="6.79048">
        <ele>1149</ele>
        <time>2023-09-30T06:09:04.000Z</time>
      </trkpt>
      <trkpt lat="46.02252" lon="6.79048">
        <ele>1149.1999511719</ele>
        <time>2023-09-30T06:09:05.000Z</time>
      </trkpt>
      <trkpt lat="46.02252" lon="6.79048">
        <ele>1149.1999511719</ele>
        <time>2023-09-30T06:09:06.000Z</time>
      </trkpt>
      <trkpt lat="46.02252" lon="6.79048">
        <ele>1149.4000244141</ele>
        <time>2023-09-30T06:09:07.000Z</time>
      </trkpt>
      <trkpt lat="46.02252" lon="6.79048">
        <ele>1149.5999755859</ele>
        <time>2023-09-30T06:09:08.000Z</time>
      </trkpt>
      <trkpt lat="46.02252" lon="6.79048">
        <ele>1149.8000488281</ele>
        <time>2023-09-30T06:09:09.000Z</time>
      </trkpt>
      <trkpt lat="46.02252" lon="6.7905">
        <ele>1149.8000488281</ele>
        <time>2023-09-30T06:09:10.000Z</time>
      </trkpt>
      <trkpt lat="46.02252" lon="6.79051">
        <ele>1150</ele>
        <time>2023-09-30T06:09:11.000Z</time>
      </trkpt>
      <trkpt lat="46.02252" lon="6.79051">
        <ele>1150.1999511719</ele>
        <time>2023-09-30T06:09:12.000Z</time>
      </trkpt>
      <trkpt lat="46.02252" lon="6.79051">
        <ele>1150.4000244141</ele>
        <time>2023-09-30T06:09:14.000Z</time>
      </trkpt>
      <trkpt lat="46.02252" lon="6.79054">
        <ele>1150.5999755859</ele>
        <time>2023-09-30T06:09:15.000Z</time>
      </trkpt>
      <trkpt lat="46.02252" lon="6.79056">
        <ele>1150.8000488281</ele>
        <time>2023-09-30T06:09:16.000Z</time>
      </trkpt>
      <trkpt lat="46.02251" lon="6.79059">
        <ele>1151</ele>
        <time>2023-09-30T06:09:17.000Z</time>
      </trkpt>
      <trkpt lat="46.02251" lon="6.79062">
        <ele>1151.1999511719</ele>
        <time>2023-09-30T06:09:18.000Z</time>
      </trkpt>
      <trkpt lat="46.02251" lon="6.79066">
        <ele>1151.1999511719</ele>
        <time>2023-09-30T06:09:19.000Z</time>
      </trkpt>
      <trkpt lat="46.02252" lon="6.79069">
        <ele>1151.4000244141</ele>
        <time>2023-09-30T06:09:20.000Z</time>
      </trkpt>
      <trkpt lat="46.02252" lon="6.7907">
        <ele>1151.8000488281</ele>
        <time>2023-09-30T06:09:21.000Z</time>
      </trkpt>
      <trkpt lat="46.02252" lon="6.79072">
        <ele>1151.8000488281</ele>
        <time>2023-09-30T06:09:22.000Z</time>
      </trkpt>
      <trkpt lat="46.02252" lon="6.79075">
        <ele>1152</ele>
        <time>2023-09-30T06:09:23.000Z</time>
      </trkpt>
      <trkpt lat="46.02252" lon="6.79075">
        <ele>1152.1999511719</ele>
        <time>2023-09-30T06:09:24.000Z</time>
      </trkpt>
      <trkpt lat="46.02253" lon="6.79076">
        <ele>1152.4000244141</ele>
        <time>2023-09-30T06:09:25.000Z</time>
      </trkpt>
      <trkpt lat="46.02253" lon="6.79076">
        <ele>1152.5999755859</ele>
        <time>2023-09-30T06:09:26.000Z</time>
      </trkpt>
      <trkpt lat="46.02253" lon="6.79076">
        <ele>1152.8000488281</ele>
        <time>2023-09-30T06:09:27.000Z</time>
      </trkpt>
      <trkpt lat="46.02253" lon="6.79076">
        <ele>1153</ele>
        <time>2023-09-30T06:09:28.000Z</time>
      </trkpt>
      <trkpt lat="46.02253" lon="6.79077">
        <ele>1153.1999511719</ele>
        <time>2023-09-30T06:09:29.000Z</time>
      </trkpt>
      <trkpt lat="46.02253" lon="6.79079">
        <ele>1153.5999755859</ele>
        <time>2023-09-30T06:09:30.000Z</time>
      </trkpt>
      <trkpt lat="46.02253" lon="6.7908">
        <ele>1153.8000488281</ele>
        <time>2023-09-30T06:09:31.000Z</time>
      </trkpt>
      <trkpt lat="46.02253" lon="6.7908">
        <ele>1153.8000488281</ele>
        <time>2023-09-30T06:09:32.000Z</time>
      </trkpt>
      <trkpt lat="46.02254" lon="6.79083">
        <ele>1153.5999755859</ele>
        <time>2023-09-30T06:09:33.000Z</time>
      </trkpt>
      <trkpt lat="46.02255" lon="6.79087">
        <ele>1153.8000488281</ele>
        <time>2023-09-30T06:09:34.000Z</time>
      </trkpt>
      <trkpt lat="46.02255" lon="6.79088">
        <ele>1153.8000488281</ele>
        <time>2023-09-30T06:09:35.000Z</time>
      </trkpt>
      <trkpt lat="46.02255" lon="6.79089">
        <ele>1153.8000488281</ele>
        <time>2023-09-30T06:09:36.000Z</time>
      </trkpt>
      <trkpt lat="46.02254" lon="6.79089">
        <ele>1154</ele>
        <time>2023-09-30T06:09:37.000Z</time>
      </trkpt>
      <trkpt lat="46.02254" lon="6.79089">
        <ele>1154.1999511719</ele>
        <time>2023-09-30T06:09:38.000Z</time>
      </trkpt>
      <trkpt lat="46.02254" lon="6.79091">
        <ele>1154.4000244141</ele>
        <time>2023-09-30T06:09:39.000Z</time>
      </trkpt>
      <trkpt lat="46.02254" lon="6.79091">
        <ele>1154.4000244141</ele>
        <time>2023-09-30T06:09:40.000Z</time>
      </trkpt>
      <trkpt lat="46.02254" lon="6.79092">
        <ele>1154.5999755859</ele>
        <time>2023-09-30T06:09:41.000Z</time>
      </trkpt>
      <trkpt lat="46.02254" lon="6.79094">
        <ele>1155</ele>
        <time>2023-09-30T06:09:42.000Z</time>
      </trkpt>
      <trkpt lat="46.02254" lon="6.79094">
        <ele>1155.1999511719</ele>
        <time>2023-09-30T06:09:43.000Z</time>
      </trkpt>
      <trkpt lat="46.02254" lon="6.79094">
        <ele>1155.5999755859</ele>
        <time>2023-09-30T06:09:44.000Z</time>
      </trkpt>
      <trkpt lat="46.02254" lon="6.79094">
        <ele>1156.1999511719</ele>
        <time>2023-09-30T06:09:45.000Z</time>
      </trkpt>
      <trkpt lat="46.02254" lon="6.79095">
        <ele>1156.1999511719</ele>
        <time>2023-09-30T06:09:46.000Z</time>
      </trkpt>
      <trkpt lat="46.02255" lon="6.79096">
        <ele>1156.5999755859</ele>
        <time>2023-09-30T06:09:47.000Z</time>
      </trkpt>
      <trkpt lat="46.02255" lon="6.79096">
        <ele>1156.5999755859</ele>
        <time>2023-09-30T06:09:48.000Z</time>
      </trkpt>
      <trkpt lat="46.02255" lon="6.79097">
        <ele>1156.5999755859</ele>
        <time>2023-09-30T06:09:49.000Z</time>
      </trkpt>
      <trkpt lat="46.02255" lon="6.79097">
        <ele>1157</ele>
        <time>2023-09-30T06:09:51.000Z</time>
      </trkpt>
      <trkpt lat="46.02255" lon="6.79097">
        <ele>1157</ele>
        <time>2023-09-30T06:09:53.000Z</time>
      </trkpt>
      <trkpt lat="46.02255" lon="6.79097">
        <ele>1157.8000488281</ele>
        <time>2023-09-30T06:09:58.000Z</time>
      </trkpt>
      <trkpt lat="46.02255" lon="6.79098">
        <ele>1158</ele>
        <time>2023-09-30T06:10:09.000Z</time>
      </trkpt>
      <trkpt lat="46.02255" lon="6.79099">
        <ele>1158.1999511719</ele>
        <time>2023-09-30T06:10:14.000Z</time>
      </trkpt>
      <trkpt lat="46.02256" lon="6.79101">
        <ele>1158.4000244141</ele>
        <time>2023-09-30T06:10:15.000Z</time>
      </trkpt>
      <trkpt lat="46.02256" lon="6.79101">
        <ele>1159</ele>
        <time>2023-09-30T06:10:20.000Z</time>
      </trkpt>
      <trkpt lat="46.02256" lon="6.79101">
        <ele>1159.1999511719</ele>
        <time>2023-09-30T06:10:21.000Z</time>
      </trkpt>
      <trkpt lat="46.02256" lon="6.79103">
        <ele>1159.5999755859</ele>
        <time>2023-09-30T06:10:22.000Z</time>
      </trkpt>
      <trkpt lat="46.02256" lon="6.79117">
        <ele>1159.8000488281</ele>
        <time>2023-09-30T06:10:25.000Z</time>
      </trkpt>
      <trkpt lat="46.02256" lon="6.79124">
        <ele>1160.1999511719</ele>
        <time>2023-09-30T06:10:27.000Z</time>
      </trkpt>
      <trkpt lat="46.02256" lon="6.7913">
        <ele>1160.5999755859</ele>
        <time>2023-09-30T06:10:29.000Z</time>
      </trkpt>
      <trkpt lat="46.02256" lon="6.79133">
        <ele>1160.4000244141</ele>
        <time>2023-09-30T06:10:30.000Z</time>
      </trkpt>
      <trkpt lat="46.02257" lon="6.79136">
        <ele>1160.8000488281</ele>
        <time>2023-09-30T06:10:31.000Z</time>
      </trkpt>
      <trkpt lat="46.02257" lon="6.79138">
        <ele>1161</ele>
        <time>2023-09-30T06:10:32.000Z</time>
      </trkpt>
      <trkpt lat="46.02257" lon="6.79138">
        <ele>1161.1999511719</ele>
        <time>2023-09-30T06:10:33.000Z</time>
      </trkpt>
      <trkpt lat="46.02257" lon="6.79138">
        <ele>1161.4000244141</ele>
        <time>2023-09-30T06:10:34.000Z</time>
      </trkpt>
      <trkpt lat="46.02257" lon="6.79139">
        <ele>1161.4000244141</ele>
        <time>2023-09-30T06:10:35.000Z</time>
      </trkpt>
      <trkpt lat="46.02257" lon="6.7914">
        <ele>1161.5999755859</ele>
        <time>2023-09-30T06:10:36.000Z</time>
      </trkpt>
      <trkpt lat="46.02256" lon="6.79141">
        <ele>1161.5999755859</ele>
        <time>2023-09-30T06:10:37.000Z</time>
      </trkpt>
      <trkpt lat="46.02256" lon="6.79142">
        <ele>1161.8000488281</ele>
        <time>2023-09-30T06:10:38.000Z</time>
      </trkpt>
      <trkpt lat="46.02256" lon="6.79143">
        <ele>1161.8000488281</ele>
        <time>2023-09-30T06:10:39.000Z</time>
      </trkpt>
      <trkpt lat="46.02256" lon="6.79143">
        <ele>1162.1999511719</ele>
        <time>2023-09-30T06:10:40.000Z</time>
      </trkpt>
      <trkpt lat="46.02256" lon="6.79143">
        <ele>1162.4000244141</ele>
        <time>2023-09-30T06:10:41.000Z</time>
      </trkpt>
      <trkpt lat="46.02256" lon="6.79143">
        <ele>1162.8000488281</ele>
        <time>2023-09-30T06:10:43.000Z</time>
      </trkpt>
      <trkpt lat="46.02257" lon="6.79143">
        <ele>1163</ele>
        <time>2023-09-30T06:10:44.000Z</time>
      </trkpt>
      <trkpt lat="46.02257" lon="6.79144">
        <ele>1163</ele>
        <time>2023-09-30T06:10:45.000Z</time>
      </trkpt>
      <trkpt lat="46.02257" lon="6.79145">
        <ele>1163.4000244141</ele>
        <time>2023-09-30T06:10:46.000Z</time>
      </trkpt>
      <trkpt lat="46.02257" lon="6.79146">
        <ele>1163.5999755859</ele>
        <time>2023-09-30T06:10:47.000Z</time>
      </trkpt>
      <trkpt lat="46.02258" lon="6.79147">
        <ele>1163.5999755859</ele>
        <time>2023-09-30T06:10:48.000Z</time>
      </trkpt>
      <trkpt lat="46.02258" lon="6.79147">
        <ele>1163.8000488281</ele>
        <time>2023-09-30T06:10:49.000Z</time>
      </trkpt>
      <trkpt lat="46.02258" lon="6.79147">
        <ele>1164.1999511719</ele>
        <time>2023-09-30T06:10:51.000Z</time>
      </trkpt>
      <trkpt lat="46.02258" lon="6.79148">
        <ele>1164.5999755859</ele>
        <time>2023-09-30T06:10:53.000Z</time>
      </trkpt>
      <trkpt lat="46.02258" lon="6.79148">
        <ele>1164.8000488281</ele>
        <time>2023-09-30T06:10:54.000Z</time>
      </trkpt>
      <trkpt lat="46.02258" lon="6.79148">
        <ele>1165.1999511719</ele>
        <time>2023-09-30T06:10:57.000Z</time>
      </trkpt>
      <trkpt lat="46.02258" lon="6.79148">
        <ele>1165.8000488281</ele>
        <time>2023-09-30T06:11:02.000Z</time>
      </trkpt>
      <trkpt lat="46.02259" lon="6.7915">
        <ele>1166</ele>
        <time>2023-09-30T06:11:03.000Z</time>
      </trkpt>
      <trkpt lat="46.02259" lon="6.79152">
        <ele>1166</ele>
        <time>2023-09-30T06:11:04.000Z</time>
      </trkpt>
      <trkpt lat="46.02259" lon="6.79154">
        <ele>1166.1999511719</ele>
        <time>2023-09-30T06:11:05.000Z</time>
      </trkpt>
      <trkpt lat="46.02259" lon="6.79156">
        <ele>1166.4000244141</ele>
        <time>2023-09-30T06:11:06.000Z</time>
      </trkpt>
      <trkpt lat="46.0226" lon="6.79157">
        <ele>1166.4000244141</ele>
        <time>2023-09-30T06:11:07.000Z</time>
      </trkpt>
      <trkpt lat="46.02261" lon="6.79158">
        <ele>1166.8000488281</ele>
        <time>2023-09-30T06:11:08.000Z</time>
      </trkpt>
      <trkpt lat="46.02261" lon="6.79159">
        <ele>1167</ele>
        <time>2023-09-30T06:11:09.000Z</time>
      </trkpt>
      <trkpt lat="46.02261" lon="6.7916">
        <ele>1167.1999511719</ele>
        <time>2023-09-30T06:11:10.000Z</time>
      </trkpt>
      <trkpt lat="46.02262" lon="6.79161">
        <ele>1167.4000244141</ele>
        <time>2023-09-30T06:11:11.000Z</time>
      </trkpt>
      <trkpt lat="46.02262" lon="6.79162">
        <ele>1167.4000244141</ele>
        <time>2023-09-30T06:11:12.000Z</time>
      </trkpt>
      <trkpt lat="46.02262" lon="6.79162">
        <ele>1167.5999755859</ele>
        <time>2023-09-30T06:11:13.000Z</time>
      </trkpt>
      <trkpt lat="46.02262" lon="6.79162">
        <ele>1167.8000488281</ele>
        <time>2023-09-30T06:11:14.000Z</time>
      </trkpt>
      <trkpt lat="46.02263" lon="6.79162">
        <ele>1168</ele>
        <time>2023-09-30T06:11:15.000Z</time>
      </trkpt>
      <trkpt lat="46.02263" lon="6.79163">
        <ele>1168.1999511719</ele>
        <time>2023-09-30T06:11:16.000Z</time>
      </trkpt>
      <trkpt lat="46.02263" lon="6.79163">
        <ele>1168.1999511719</ele>
        <time>2023-09-30T06:11:17.000Z</time>
      </trkpt>
      <trkpt lat="46.02263" lon="6.79164">
        <ele>1168.4000244141</ele>
        <time>2023-09-30T06:11:18.000Z</time>
      </trkpt>
      <trkpt lat="46.02263" lon="6.79165">
        <ele>1168.5999755859</ele>
        <time>2023-09-30T06:11:19.000Z</time>
      </trkpt>
      <trkpt lat="46.02263" lon="6.79165">
        <ele>1168.5999755859</ele>
        <time>2023-09-30T06:11:20.000Z</time>
      </trkpt>
      <trkpt lat="46.02263" lon="6.79165">
        <ele>1169</ele>
        <time>2023-09-30T06:11:22.000Z</time>
      </trkpt>
      <trkpt lat="46.02263" lon="6.79165">
        <ele>1169.1999511719</ele>
        <time>2023-09-30T06:11:23.000Z</time>
      </trkpt>
      <trkpt lat="46.02263" lon="6.79165">
        <ele>1170.4000244141</ele>
        <time>2023-09-30T06:11:30.000Z</time>
      </trkpt>
      <trkpt lat="46.02263" lon="6.79165">
        <ele>1171.8000488281</ele>
        <time>2023-09-30T06:11:39.000Z</time>
      </trkpt>
      <trkpt lat="46.02263" lon="6.79167">
        <ele>1173</ele>
        <time>2023-09-30T06:11:46.000Z</time>
      </trkpt>
      <trkpt lat="46.02263" lon="6.79168">
        <ele>1173.1999511719</ele>
        <time>2023-09-30T06:11:48.000Z</time>
      </trkpt>
      <trkpt lat="46.02264" lon="6.7917">
        <ele>1173.4000244141</ele>
        <time>2023-09-30T06:11:49.000Z</time>
      </trkpt>
      <trkpt lat="46.02264" lon="6.79171">
        <ele>1173.5999755859</ele>
        <time>2023-09-30T06:11:50.000Z</time>
      </trkpt>
      <trkpt lat="46.02264" lon="6.79171">
        <ele>1173.5999755859</ele>
        <time>2023-09-30T06:11:51.000Z</time>
      </trkpt>
      <trkpt lat="46.02264" lon="6.79171">
        <ele>1174.1999511719</ele>
        <time>2023-09-30T06:11:53.000Z</time>
      </trkpt>
      <trkpt lat="46.02265" lon="6.79174">
        <ele>1175</ele>
        <time>2023-09-30T06:11:58.000Z</time>
      </trkpt>
      <trkpt lat="46.02265" lon="6.79178">
        <ele>1175.5999755859</ele>
        <time>2023-09-30T06:12:02.000Z</time>
      </trkpt>
      <trkpt lat="46.02265" lon="6.7918">
        <ele>1176</ele>
        <time>2023-09-30T06:12:05.000Z</time>
      </trkpt>
      <trkpt lat="46.02265" lon="6.7918">
        <ele>1176.5999755859</ele>
        <time>2023-09-30T06:12:12.000Z</time>
      </trkpt>
      <trkpt lat="46.02265" lon="6.79183">
        <ele>1176.8000488281</ele>
        <time>2023-09-30T06:12:13.000Z</time>
      </trkpt>
      <trkpt lat="46.02264" lon="6.79183">
        <ele>1176.8000488281</ele>
        <time>2023-09-30T06:12:16.000Z</time>
      </trkpt>
      <trkpt lat="46.02263" lon="6.79185">
        <ele>1176.8000488281</ele>
        <time>2023-09-30T06:12:17.000Z</time>
      </trkpt>
      <trkpt lat="46.02262" lon="6.79187">
        <ele>1176.8000488281</ele>
        <time>2023-09-30T06:12:18.000Z</time>
      </trkpt>
      <trkpt lat="46.02262" lon="6.79189">
        <ele>1176.8000488281</ele>
        <time>2023-09-30T06:12:19.000Z</time>
      </trkpt>
      <trkpt lat="46.02262" lon="6.79192">
        <ele>1177</ele>
        <time>2023-09-30T06:12:20.000Z</time>
      </trkpt>
      <trkpt lat="46.02262" lon="6.79195">
        <ele>1177</ele>
        <time>2023-09-30T06:12:21.000Z</time>
      </trkpt>
      <trkpt lat="46.02262" lon="6.79197">
        <ele>1177</ele>
        <time>2023-09-30T06:12:22.000Z</time>
      </trkpt>
      <trkpt lat="46.02262" lon="6.792">
        <ele>1177</ele>
        <time>2023-09-30T06:12:23.000Z</time>
      </trkpt>
      <trkpt lat="46.02262" lon="6.79203">
        <ele>1177.4000244141</ele>
        <time>2023-09-30T06:12:24.000Z</time>
      </trkpt>
      <trkpt lat="46.02262" lon="6.79204">
        <ele>1177.5999755859</ele>
        <time>2023-09-30T06:12:25.000Z</time>
      </trkpt>
      <trkpt lat="46.02262" lon="6.79206">
        <ele>1178</ele>
        <time>2023-09-30T06:12:26.000Z</time>
      </trkpt>
      <trkpt lat="46.02263" lon="6.79211">
        <ele>1178.4000244141</ele>
        <time>2023-09-30T06:12:28.000Z</time>
      </trkpt>
      <trkpt lat="46.02262" lon="6.79213">
        <ele>1178.4000244141</ele>
        <time>2023-09-30T06:12:29.000Z</time>
      </trkpt>
      <trkpt lat="46.02262" lon="6.79214">
        <ele>1179</ele>
        <time>2023-09-30T06:12:31.000Z</time>
      </trkpt>
      <trkpt lat="46.02262" lon="6.79214">
        <ele>1179.4000244141</ele>
        <time>2023-09-30T06:12:32.000Z</time>
      </trkpt>
      <trkpt lat="46.02262" lon="6.79214">
        <ele>1179.8000488281</ele>
        <time>2023-09-30T06:12:34.000Z</time>
      </trkpt>
      <trkpt lat="46.02262" lon="6.79215">
        <ele>1180</ele>
        <time>2023-09-30T06:12:35.000Z</time>
      </trkpt>
      <trkpt lat="46.02263" lon="6.79217">
        <ele>1180</ele>
        <time>2023-09-30T06:12:36.000Z</time>
      </trkpt>
      <trkpt lat="46.02263" lon="6.79218">
        <ele>1180.1999511719</ele>
        <time>2023-09-30T06:12:37.000Z</time>
      </trkpt>
      <trkpt lat="46.02263" lon="6.79219">
        <ele>1180.1999511719</ele>
        <time>2023-09-30T06:12:38.000Z</time>
      </trkpt>
      <trkpt lat="46.02263" lon="6.79221">
        <ele>1180.4000244141</ele>
        <time>2023-09-30T06:12:39.000Z</time>
      </trkpt>
      <trkpt lat="46.02263" lon="6.79221">
        <ele>1180.8000488281</ele>
        <time>2023-09-30T06:12:40.000Z</time>
      </trkpt>
      <trkpt lat="46.02263" lon="6.79223">
        <ele>1180.8000488281</ele>
        <time>2023-09-30T06:12:41.000Z</time>
      </trkpt>
      <trkpt lat="46.02264" lon="6.79226">
        <ele>1181</ele>
        <time>2023-09-30T06:12:42.000Z</time>
      </trkpt>
      <trkpt lat="46.02264" lon="6.79229">
        <ele>1181.1999511719</ele>
        <time>2023-09-30T06:12:43.000Z</time>
      </trkpt>
      <trkpt lat="46.02264" lon="6.79231">
        <ele>1181.1999511719</ele>
        <time>2023-09-30T06:12:44.000Z</time>
      </trkpt>
      <trkpt lat="46.02264" lon="6.79233">
        <ele>1181.4000244141</ele>
        <time>2023-09-30T06:12:45.000Z</time>
      </trkpt>
      <trkpt lat="46.02265" lon="6.79235">
        <ele>1181.5999755859</ele>
        <time>2023-09-30T06:12:46.000Z</time>
      </trkpt>
      <trkpt lat="46.02265" lon="6.79236">
        <ele>1181.8000488281</ele>
        <time>2023-09-30T06:12:47.000Z</time>
      </trkpt>
      <trkpt lat="46.02265" lon="6.79237">
        <ele>1181.8000488281</ele>
        <time>2023-09-30T06:12:48.000Z</time>
      </trkpt>
      <trkpt lat="46.02265" lon="6.79237">
        <ele>1182</ele>
        <time>2023-09-30T06:12:49.000Z</time>
      </trkpt>
      <trkpt lat="46.02265" lon="6.79237">
        <ele>1182.1999511719</ele>
        <time>2023-09-30T06:12:50.000Z</time>
      </trkpt>
      <trkpt lat="46.02265" lon="6.79238">
        <ele>1182.4000244141</ele>
        <time>2023-09-30T06:12:51.000Z</time>
      </trkpt>
      <trkpt lat="46.02265" lon="6.79239">
        <ele>1182.5999755859</ele>
        <time>2023-09-30T06:12:52.000Z</time>
      </trkpt>
      <trkpt lat="46.02266" lon="6.7924">
        <ele>1182.8000488281</ele>
        <time>2023-09-30T06:12:53.000Z</time>
      </trkpt>
      <trkpt lat="46.02266" lon="6.79241">
        <ele>1183</ele>
        <time>2023-09-30T06:12:54.000Z</time>
      </trkpt>
      <trkpt lat="46.02266" lon="6.79241">
        <ele>1183</ele>
        <time>2023-09-30T06:12:55.000Z</time>
      </trkpt>
      <trkpt lat="46.02266" lon="6.79241">
        <ele>1183.1999511719</ele>
        <time>2023-09-30T06:12:56.000Z</time>
      </trkpt>
      <trkpt lat="46.02266" lon="6.79241">
        <ele>1183.4000244141</ele>
        <time>2023-09-30T06:12:58.000Z</time>
      </trkpt>
      <trkpt lat="46.02268" lon="6.79245">
        <ele>1183.8000488281</ele>
        <time>2023-09-30T06:13:00.000Z</time>
      </trkpt>
      <trkpt lat="46.02268" lon="6.79245">
        <ele>1184.1999511719</ele>
        <time>2023-09-30T06:13:01.000Z</time>
      </trkpt>
      <trkpt lat="46.02269" lon="6.79246">
        <ele>1184.1999511719</ele>
        <time>2023-09-30T06:13:02.000Z</time>
      </trkpt>
      <trkpt lat="46.0227" lon="6.79247">
        <ele>1184.4000244141</ele>
        <time>2023-09-30T06:13:03.000Z</time>
      </trkpt>
      <trkpt lat="46.0227" lon="6.79248">
        <ele>1184.5999755859</ele>
        <time>2023-09-30T06:13:04.000Z</time>
      </trkpt>
      <trkpt lat="46.0227" lon="6.79248">
        <ele>1184.5999755859</ele>
        <time>2023-09-30T06:13:05.000Z</time>
      </trkpt>
      <trkpt lat="46.02271" lon="6.79248">
        <ele>1184.8000488281</ele>
        <time>2023-09-30T06:13:06.000Z</time>
      </trkpt>
      <trkpt lat="46.02271" lon="6.79248">
        <ele>1184.8000488281</ele>
        <time>2023-09-30T06:13:07.000Z</time>
      </trkpt>
      <trkpt lat="46.02271" lon="6.79249">
        <ele>1185.1999511719</ele>
        <time>2023-09-30T06:13:08.000Z</time>
      </trkpt>
      <trkpt lat="46.02271" lon="6.79249">
        <ele>1185.1999511719</ele>
        <time>2023-09-30T06:13:09.000Z</time>
      </trkpt>
      <trkpt lat="46.02271" lon="6.79249">
        <ele>1185.4000244141</ele>
        <time>2023-09-30T06:13:10.000Z</time>
      </trkpt>
      <trkpt lat="46.02272" lon="6.79249">
        <ele>1185.5999755859</ele>
        <time>2023-09-30T06:13:11.000Z</time>
      </trkpt>
      <trkpt lat="46.02273" lon="6.7925">
        <ele>1185.8000488281</ele>
        <time>2023-09-30T06:13:12.000Z</time>
      </trkpt>
      <trkpt lat="46.02273" lon="6.79249">
        <ele>1186</ele>
        <time>2023-09-30T06:13:13.000Z</time>
      </trkpt>
      <trkpt lat="46.02273" lon="6.79249">
        <ele>1186.4000244141</ele>
        <time>2023-09-30T06:13:14.000Z</time>
      </trkpt>
      <trkpt lat="46.02273" lon="6.79251">
        <ele>1186.5999755859</ele>
        <time>2023-09-30T06:13:15.000Z</time>
      </trkpt>
      <trkpt lat="46.02274" lon="6.79251">
        <ele>1186.5999755859</ele>
        <time>2023-09-30T06:13:16.000Z</time>
      </trkpt>
      <trkpt lat="46.02275" lon="6.79252">
        <ele>1186.8000488281</ele>
        <time>2023-09-30T06:13:17.000Z</time>
      </trkpt>
      <trkpt lat="46.02275" lon="6.79252">
        <ele>1186.8000488281</ele>
        <time>2023-09-30T06:13:18.000Z</time>
      </trkpt>
      <trkpt lat="46.02276" lon="6.79252">
        <ele>1187</ele>
        <time>2023-09-30T06:13:19.000Z</time>
      </trkpt>
      <trkpt lat="46.02276" lon="6.79253">
        <ele>1187</ele>
        <time>2023-09-30T06:13:20.000Z</time>
      </trkpt>
      <trkpt lat="46.02277" lon="6.79252">
        <ele>1187.5999755859</ele>
        <time>2023-09-30T06:13:22.000Z</time>
      </trkpt>
      <trkpt lat="46.02277" lon="6.79252">
        <ele>1187.8000488281</ele>
        <time>2023-09-30T06:13:24.000Z</time>
      </trkpt>
      <trkpt lat="46.02277" lon="6.79253">
        <ele>1188.1999511719</ele>
        <time>2023-09-30T06:13:29.000Z</time>
      </trkpt>
      <trkpt lat="46.02277" lon="6.79254">
        <ele>1188.1999511719</ele>
        <time>2023-09-30T06:13:30.000Z</time>
      </trkpt>
      <trkpt lat="46.02277" lon="6.79254">
        <ele>1188.1999511719</ele>
        <time>2023-09-30T06:13:31.000Z</time>
      </trkpt>
      <trkpt lat="46.02277" lon="6.79254">
        <ele>1188.8000488281</ele>
        <time>2023-09-30T06:13:36.000Z</time>
      </trkpt>
      <trkpt lat="46.02278" lon="6.79255">
        <ele>1188.8000488281</ele>
        <time>2023-09-30T06:13:37.000Z</time>
      </trkpt>
      <trkpt lat="46.02279" lon="6.79255">
        <ele>1189</ele>
        <time>2023-09-30T06:13:38.000Z</time>
      </trkpt>
      <trkpt lat="46.02279" lon="6.79255">
        <ele>1189.5999755859</ele>
        <time>2023-09-30T06:13:40.000Z</time>
      </trkpt>
      <trkpt lat="46.0228" lon="6.79258">
        <ele>1189.5999755859</ele>
        <time>2023-09-30T06:13:41.000Z</time>
      </trkpt>
      <trkpt lat="46.0228" lon="6.79258">
        <ele>1189.8000488281</ele>
        <time>2023-09-30T06:13:42.000Z</time>
      </trkpt>
      <trkpt lat="46.0228" lon="6.79258">
        <ele>1190</ele>
        <time>2023-09-30T06:13:43.000Z</time>
      </trkpt>
      <trkpt lat="46.0228" lon="6.79259">
        <ele>1190.5999755859</ele>
        <time>2023-09-30T06:13:46.000Z</time>
      </trkpt>
      <trkpt lat="46.02281" lon="6.79259">
        <ele>1190.8000488281</ele>
        <time>2023-09-30T06:13:47.000Z</time>
      </trkpt>
      <trkpt lat="46.02281" lon="6.79259">
        <ele>1191.5999755859</ele>
        <time>2023-09-30T06:13:50.000Z</time>
      </trkpt>
      <trkpt lat="46.02282" lon="6.7926">
        <ele>1191.8000488281</ele>
        <time>2023-09-30T06:13:51.000Z</time>
      </trkpt>
      <trkpt lat="46.02283" lon="6.79263">
        <ele>1192</ele>
        <time>2023-09-30T06:13:52.000Z</time>
      </trkpt>
      <trkpt lat="46.02284" lon="6.79266">
        <ele>1192</ele>
        <time>2023-09-30T06:13:53.000Z</time>
      </trkpt>
      <trkpt lat="46.02286" lon="6.79268">
        <ele>1192.1999511719</ele>
        <time>2023-09-30T06:13:54.000Z</time>
      </trkpt>
      <trkpt lat="46.02287" lon="6.7927">
        <ele>1192.1999511719</ele>
        <time>2023-09-30T06:13:55.000Z</time>
      </trkpt>
      <trkpt lat="46.02287" lon="6.79271">
        <ele>1192.4000244141</ele>
        <time>2023-09-30T06:13:56.000Z</time>
      </trkpt>
      <trkpt lat="46.02289" lon="6.79272">
        <ele>1192.4000244141</ele>
        <time>2023-09-30T06:13:57.000Z</time>
      </trkpt>
      <trkpt lat="46.0229" lon="6.79274">
        <ele>1192.4000244141</ele>
        <time>2023-09-30T06:13:58.000Z</time>
      </trkpt>
      <trkpt lat="46.02292" lon="6.79277">
        <ele>1192.8000488281</ele>
        <time>2023-09-30T06:13:59.000Z</time>
      </trkpt>
      <trkpt lat="46.02293" lon="6.79279">
        <ele>1193</ele>
        <time>2023-09-30T06:14:00.000Z</time>
      </trkpt>
      <trkpt lat="46.02294" lon="6.7928">
        <ele>1193.1999511719</ele>
        <time>2023-09-30T06:14:01.000Z</time>
      </trkpt>
      <trkpt lat="46.02294" lon="6.7928">
        <ele>1193.1999511719</ele>
        <time>2023-09-30T06:14:02.000Z</time>
      </trkpt>
      <trkpt lat="46.02294" lon="6.79282">
        <ele>1193.4000244141</ele>
        <time>2023-09-30T06:14:03.000Z</time>
      </trkpt>
      <trkpt lat="46.02293" lon="6.79284">
        <ele>1193.4000244141</ele>
        <time>2023-09-30T06:14:04.000Z</time>
      </trkpt>
      <trkpt lat="46.02293" lon="6.79286">
        <ele>1193.4000244141</ele>
        <time>2023-09-30T06:14:05.000Z</time>
      </trkpt>
      <trkpt lat="46.02292" lon="6.79287">
        <ele>1193.5999755859</ele>
        <time>2023-09-30T06:14:06.000Z</time>
      </trkpt>
      <trkpt lat="46.02291" lon="6.79286">
        <ele>1193.5999755859</ele>
        <time>2023-09-30T06:14:07.000Z</time>
      </trkpt>
      <trkpt lat="46.02291" lon="6.79285">
        <ele>1193.5999755859</ele>
        <time>2023-09-30T06:14:08.000Z</time>
      </trkpt>
      <trkpt lat="46.02291" lon="6.79285">
        <ele>1193.5999755859</ele>
        <time>2023-09-30T06:14:09.000Z</time>
      </trkpt>
      <trkpt lat="46.0229" lon="6.79285">
        <ele>1193.5999755859</ele>
        <time>2023-09-30T06:14:10.000Z</time>
      </trkpt>
      <trkpt lat="46.0229" lon="6.79286">
        <ele>1193.5999755859</ele>
        <time>2023-09-30T06:14:11.000Z</time>
      </trkpt>
      <trkpt lat="46.02289" lon="6.79286">
        <ele>1193.5999755859</ele>
        <time>2023-09-30T06:14:12.000Z</time>
      </trkpt>
      <trkpt lat="46.02289" lon="6.79288">
        <ele>1194</ele>
        <time>2023-09-30T06:14:13.000Z</time>
      </trkpt>
      <trkpt lat="46.02289" lon="6.79288">
        <ele>1194</ele>
        <time>2023-09-30T06:14:14.000Z</time>
      </trkpt>
      <trkpt lat="46.02288" lon="6.7929">
        <ele>1194</ele>
        <time>2023-09-30T06:14:15.000Z</time>
      </trkpt>
      <trkpt lat="46.02288" lon="6.79292">
        <ele>1194.1999511719</ele>
        <time>2023-09-30T06:14:16.000Z</time>
      </trkpt>
      <trkpt lat="46.02287" lon="6.79295">
        <ele>1194.1999511719</ele>
        <time>2023-09-30T06:14:17.000Z</time>
      </trkpt>
      <trkpt lat="46.02288" lon="6.79298">
        <ele>1194.1999511719</ele>
        <time>2023-09-30T06:14:18.000Z</time>
      </trkpt>
      <trkpt lat="46.02288" lon="6.79301">
        <ele>1194.1999511719</ele>
        <time>2023-09-30T06:14:19.000Z</time>
      </trkpt>
      <trkpt lat="46.02289" lon="6.79302">
        <ele>1194.1999511719</ele>
        <time>2023-09-30T06:14:20.000Z</time>
      </trkpt>
      <trkpt lat="46.02288" lon="6.79304">
        <ele>1194.1999511719</ele>
        <time>2023-09-30T06:14:21.000Z</time>
      </trkpt>
      <trkpt lat="46.02288" lon="6.79306">
        <ele>1194.4000244141</ele>
        <time>2023-09-30T06:14:22.000Z</time>
      </trkpt>
      <trkpt lat="46.02288" lon="6.79308">
        <ele>1194.4000244141</ele>
        <time>2023-09-30T06:14:23.000Z</time>
      </trkpt>
      <trkpt lat="46.02288" lon="6.7931">
        <ele>1194.5999755859</ele>
        <time>2023-09-30T06:14:24.000Z</time>
      </trkpt>
      <trkpt lat="46.02288" lon="6.7931">
        <ele>1194.8000488281</ele>
        <time>2023-09-30T06:14:25.000Z</time>
      </trkpt>
      <trkpt lat="46.02288" lon="6.7931">
        <ele>1195</ele>
        <time>2023-09-30T06:14:30.000Z</time>
      </trkpt>
      <trkpt lat="46.02288" lon="6.7931">
        <ele>1194.8000488281</ele>
        <time>2023-09-30T06:14:40.000Z</time>
      </trkpt>
      <trkpt lat="46.02289" lon="6.79312">
        <ele>1195</ele>
        <time>2023-09-30T06:16:22.000Z</time>
      </trkpt>
      <trkpt lat="46.02289" lon="6.79312">
        <ele>1195.8000488281</ele>
        <time>2023-09-30T06:16:24.000Z</time>
      </trkpt>
      <trkpt lat="46.02287" lon="6.79317">
        <ele>1196.8000488281</ele>
        <time>2023-09-30T06:16:30.000Z</time>
      </trkpt>
      <trkpt lat="46.02287" lon="6.79318">
        <ele>1197.4000244141</ele>
        <time>2023-09-30T06:16:31.000Z</time>
      </trkpt>
      <trkpt lat="46.02287" lon="6.79319">
        <ele>1197.5999755859</ele>
        <time>2023-09-30T06:16:32.000Z</time>
      </trkpt>
      <trkpt lat="46.02287" lon="6.79319">
        <ele>1198.5999755859</ele>
        <time>2023-09-30T06:16:37.000Z</time>
      </trkpt>
      <trkpt lat="46.02287" lon="6.79319">
        <ele>1199</ele>
        <time>2023-09-30T06:16:39.000Z</time>
      </trkpt>
      <trkpt lat="46.02286" lon="6.7932">
        <ele>1199.8000488281</ele>
        <time>2023-09-30T06:16:44.000Z</time>
      </trkpt>
      <trkpt lat="46.02286" lon="6.79321">
        <ele>1200.4000244141</ele>
        <time>2023-09-30T06:16:46.000Z</time>
      </trkpt>
      <trkpt lat="46.02285" lon="6.79325">
        <ele>1200.5999755859</ele>
        <time>2023-09-30T06:16:47.000Z</time>
      </trkpt>
      <trkpt lat="46.02284" lon="6.79329">
        <ele>1200.8000488281</ele>
        <time>2023-09-30T06:16:48.000Z</time>
      </trkpt>
      <trkpt lat="46.02283" lon="6.79332">
        <ele>1201.1999511719</ele>
        <time>2023-09-30T06:16:49.000Z</time>
      </trkpt>
      <trkpt lat="46.02282" lon="6.79335">
        <ele>1201.4000244141</ele>
        <time>2023-09-30T06:16:50.000Z</time>
      </trkpt>
      <trkpt lat="46.02281" lon="6.79337">
        <ele>1201.5999755859</ele>
        <time>2023-09-30T06:16:51.000Z</time>
      </trkpt>
      <trkpt lat="46.02281" lon="6.79338">
        <ele>1201.8000488281</ele>
        <time>2023-09-30T06:16:52.000Z</time>
      </trkpt>
      <trkpt lat="46.0228" lon="6.79342">
        <ele>1202</ele>
        <time>2023-09-30T06:16:53.000Z</time>
      </trkpt>
      <trkpt lat="46.02279" lon="6.79345">
        <ele>1202.1999511719</ele>
        <time>2023-09-30T06:16:54.000Z</time>
      </trkpt>
      <trkpt lat="46.02278" lon="6.79349">
        <ele>1202.4000244141</ele>
        <time>2023-09-30T06:16:55.000Z</time>
      </trkpt>
      <trkpt lat="46.02278" lon="6.79351">
        <ele>1202.5999755859</ele>
        <time>2023-09-30T06:16:56.000Z</time>
      </trkpt>
      <trkpt lat="46.02278" lon="6.79352">
        <ele>1202.5999755859</ele>
        <time>2023-09-30T06:16:57.000Z</time>
      </trkpt>
      <trkpt lat="46.02278" lon="6.79353">
        <ele>1202.8000488281</ele>
        <time>2023-09-30T06:16:58.000Z</time>
      </trkpt>
      <trkpt lat="46.02278" lon="6.79357">
        <ele>1202.8000488281</ele>
        <time>2023-09-30T06:16:59.000Z</time>
      </trkpt>
      <trkpt lat="46.02278" lon="6.7936">
        <ele>1203</ele>
        <time>2023-09-30T06:17:00.000Z</time>
      </trkpt>
      <trkpt lat="46.02278" lon="6.79363">
        <ele>1203.1999511719</ele>
        <time>2023-09-30T06:17:01.000Z</time>
      </trkpt>
      <trkpt lat="46.02279" lon="6.79366">
        <ele>1203.1999511719</ele>
        <time>2023-09-30T06:17:02.000Z</time>
      </trkpt>
      <trkpt lat="46.02278" lon="6.79369">
        <ele>1203.5999755859</ele>
        <time>2023-09-30T06:17:03.000Z</time>
      </trkpt>
      <trkpt lat="46.02277" lon="6.79372">
        <ele>1204</ele>
        <time>2023-09-30T06:17:04.000Z</time>
      </trkpt>
      <trkpt lat="46.02276" lon="6.79374">
        <ele>1204.4000244141</ele>
        <time>2023-09-30T06:17:05.000Z</time>
      </trkpt>
      <trkpt lat="46.02276" lon="6.79376">
        <ele>1204.4000244141</ele>
        <time>2023-09-30T06:17:06.000Z</time>
      </trkpt>
      <trkpt lat="46.02276" lon="6.79378">
        <ele>1204.5999755859</ele>
        <time>2023-09-30T06:17:07.000Z</time>
      </trkpt>
      <trkpt lat="46.02277" lon="6.7938">
        <ele>1204.8000488281</ele>
        <time>2023-09-30T06:17:08.000Z</time>
      </trkpt>
      <trkpt lat="46.02277" lon="6.79381">
        <ele>1204.8000488281</ele>
        <time>2023-09-30T06:17:09.000Z</time>
      </trkpt>
      <trkpt lat="46.02278" lon="6.79382">
        <ele>1204.8000488281</ele>
        <time>2023-09-30T06:17:10.000Z</time>
      </trkpt>
      <trkpt lat="46.02276" lon="6.79383">
        <ele>1205</ele>
        <time>2023-09-30T06:17:11.000Z</time>
      </trkpt>
      <trkpt lat="46.02276" lon="6.79383">
        <ele>1205</ele>
        <time>2023-09-30T06:17:12.000Z</time>
      </trkpt>
      <trkpt lat="46.02276" lon="6.79385">
        <ele>1205.4000244141</ele>
        <time>2023-09-30T06:17:13.000Z</time>
      </trkpt>
      <trkpt lat="46.02275" lon="6.79387">
        <ele>1205.4000244141</ele>
        <time>2023-09-30T06:17:14.000Z</time>
      </trkpt>
      <trkpt lat="46.02275" lon="6.79389">
        <ele>1205.5999755859</ele>
        <time>2023-09-30T06:17:15.000Z</time>
      </trkpt>
      <trkpt lat="46.02275" lon="6.79389">
        <ele>1205.8000488281</ele>
        <time>2023-09-30T06:17:16.000Z</time>
      </trkpt>
      <trkpt lat="46.02275" lon="6.7939">
        <ele>1206</ele>
        <time>2023-09-30T06:17:17.000Z</time>
      </trkpt>
      <trkpt lat="46.02275" lon="6.79391">
        <ele>1206</ele>
        <time>2023-09-30T06:17:18.000Z</time>
      </trkpt>
      <trkpt lat="46.02276" lon="6.79392">
        <ele>1206.1999511719</ele>
        <time>2023-09-30T06:17:19.000Z</time>
      </trkpt>
      <trkpt lat="46.02277" lon="6.79392">
        <ele>1206.4000244141</ele>
        <time>2023-09-30T06:17:20.000Z</time>
      </trkpt>
      <trkpt lat="46.02277" lon="6.79394">
        <ele>1206.5999755859</ele>
        <time>2023-09-30T06:17:21.000Z</time>
      </trkpt>
      <trkpt lat="46.02277" lon="6.79395">
        <ele>1207</ele>
        <time>2023-09-30T06:17:22.000Z</time>
      </trkpt>
      <trkpt lat="46.02277" lon="6.79396">
        <ele>1207.1999511719</ele>
        <time>2023-09-30T06:17:23.000Z</time>
      </trkpt>
      <trkpt lat="46.02277" lon="6.79398">
        <ele>1207.4000244141</ele>
        <time>2023-09-30T06:17:24.000Z</time>
      </trkpt>
      <trkpt lat="46.02278" lon="6.79399">
        <ele>1207.5999755859</ele>
        <time>2023-09-30T06:17:25.000Z</time>
      </trkpt>
      <trkpt lat="46.02278" lon="6.794">
        <ele>1207.8000488281</ele>
        <time>2023-09-30T06:17:26.000Z</time>
      </trkpt>
      <trkpt lat="46.02279" lon="6.79401">
        <ele>1208</ele>
        <time>2023-09-30T06:17:27.000Z</time>
      </trkpt>
      <trkpt lat="46.02279" lon="6.79402">
        <ele>1208.1999511719</ele>
        <time>2023-09-30T06:17:28.000Z</time>
      </trkpt>
      <trkpt lat="46.02279" lon="6.79403">
        <ele>1208.4000244141</ele>
        <time>2023-09-30T06:17:29.000Z</time>
      </trkpt>
      <trkpt lat="46.02279" lon="6.79403">
        <ele>1208.5999755859</ele>
        <time>2023-09-30T06:17:30.000Z</time>
      </trkpt>
      <trkpt lat="46.02279" lon="6.79403">
        <ele>1208.8000488281</ele>
        <time>2023-09-30T06:17:31.000Z</time>
      </trkpt>
      <trkpt lat="46.0228" lon="6.79404">
        <ele>1208.8000488281</ele>
        <time>2023-09-30T06:17:32.000Z</time>
      </trkpt>
      <trkpt lat="46.02281" lon="6.79404">
        <ele>1209</ele>
        <time>2023-09-30T06:17:33.000Z</time>
      </trkpt>
      <trkpt lat="46.02281" lon="6.79405">
        <ele>1209.4000244141</ele>
        <time>2023-09-30T06:17:34.000Z</time>
      </trkpt>
      <trkpt lat="46.02281" lon="6.79406">
        <ele>1209.4000244141</ele>
        <time>2023-09-30T06:17:35.000Z</time>
      </trkpt>
      <trkpt lat="46.02281" lon="6.79406">
        <ele>1209.5999755859</ele>
        <time>2023-09-30T06:17:36.000Z</time>
      </trkpt>
      <trkpt lat="46.02281" lon="6.79406">
        <ele>1209.8000488281</ele>
        <time>2023-09-30T06:17:37.000Z</time>
      </trkpt>
      <trkpt lat="46.02282" lon="6.79406">
        <ele>1210.1999511719</ele>
        <time>2023-09-30T06:17:38.000Z</time>
      </trkpt>
      <trkpt lat="46.02282" lon="6.79407">
        <ele>1210.4000244141</ele>
        <time>2023-09-30T06:17:39.000Z</time>
      </trkpt>
      <trkpt lat="46.02282" lon="6.79407">
        <ele>1210.8000488281</ele>
        <time>2023-09-30T06:17:40.000Z</time>
      </trkpt>
      <trkpt lat="46.02282" lon="6.79408">
        <ele>1211</ele>
        <time>2023-09-30T06:17:41.000Z</time>
      </trkpt>
      <trkpt lat="46.02281" lon="6.7941">
        <ele>1211</ele>
        <time>2023-09-30T06:17:42.000Z</time>
      </trkpt>
      <trkpt lat="46.02281" lon="6.79411">
        <ele>1211.4000244141</ele>
        <time>2023-09-30T06:17:43.000Z</time>
      </trkpt>
      <trkpt lat="46.02282" lon="6.79412">
        <ele>1211.4000244141</ele>
        <time>2023-09-30T06:17:44.000Z</time>
      </trkpt>
      <trkpt lat="46.02282" lon="6.79412">
        <ele>1211.8000488281</ele>
        <time>2023-09-30T06:17:45.000Z</time>
      </trkpt>
      <trkpt lat="46.02282" lon="6.79412">
        <ele>1212</ele>
        <time>2023-09-30T06:17:46.000Z</time>
      </trkpt>
      <trkpt lat="46.02282" lon="6.79412">
        <ele>1212.4000244141</ele>
        <time>2023-09-30T06:17:47.000Z</time>
      </trkpt>
      <trkpt lat="46.02282" lon="6.79414">
        <ele>1212.5999755859</ele>
        <time>2023-09-30T06:17:48.000Z</time>
      </trkpt>
      <trkpt lat="46.02281" lon="6.79416">
        <ele>1212.5999755859</ele>
        <time>2023-09-30T06:17:49.000Z</time>
      </trkpt>
      <trkpt lat="46.02281" lon="6.79417">
        <ele>1213</ele>
        <time>2023-09-30T06:17:50.000Z</time>
      </trkpt>
      <trkpt lat="46.02281" lon="6.79418">
        <ele>1213.1999511719</ele>
        <time>2023-09-30T06:17:51.000Z</time>
      </trkpt>
      <trkpt lat="46.02282" lon="6.79419">
        <ele>1213.5999755859</ele>
        <time>2023-09-30T06:17:52.000Z</time>
      </trkpt>
      <trkpt lat="46.02282" lon="6.79419">
        <ele>1213.5999755859</ele>
        <time>2023-09-30T06:17:53.000Z</time>
      </trkpt>
      <trkpt lat="46.02282" lon="6.79419">
        <ele>1213.8000488281</ele>
        <time>2023-09-30T06:17:54.000Z</time>
      </trkpt>
      <trkpt lat="46.02282" lon="6.7942">
        <ele>1214</ele>
        <time>2023-09-30T06:17:55.000Z</time>
      </trkpt>
      <trkpt lat="46.02282" lon="6.7942">
        <ele>1214</ele>
        <time>2023-09-30T06:17:56.000Z</time>
      </trkpt>
      <trkpt lat="46.02283" lon="6.79421">
        <ele>1214.1999511719</ele>
        <time>2023-09-30T06:17:57.000Z</time>
      </trkpt>
      <trkpt lat="46.02283" lon="6.79422">
        <ele>1214.1999511719</ele>
        <time>2023-09-30T06:17:58.000Z</time>
      </trkpt>
      <trkpt lat="46.02283" lon="6.79423">
        <ele>1214.4000244141</ele>
        <time>2023-09-30T06:17:59.000Z</time>
      </trkpt>
      <trkpt lat="46.02283" lon="6.79423">
        <ele>1214.5999755859</ele>
        <time>2023-09-30T06:18:00.000Z</time>
      </trkpt>
      <trkpt lat="46.02284" lon="6.79424">
        <ele>1214.8000488281</ele>
        <time>2023-09-30T06:18:01.000Z</time>
      </trkpt>
      <trkpt lat="46.02285" lon="6.79426">
        <ele>1214.8000488281</ele>
        <time>2023-09-30T06:18:02.000Z</time>
      </trkpt>
      <trkpt lat="46.02286" lon="6.79427">
        <ele>1215.1999511719</ele>
        <time>2023-09-30T06:18:03.000Z</time>
      </trkpt>
      <trkpt lat="46.02286" lon="6.79427">
        <ele>1215.4000244141</ele>
        <time>2023-09-30T06:18:04.000Z</time>
      </trkpt>
      <trkpt lat="46.02287" lon="6.79428">
        <ele>1215.5999755859</ele>
        <time>2023-09-30T06:18:05.000Z</time>
      </trkpt>
      <trkpt lat="46.02288" lon="6.79429">
        <ele>1215.8000488281</ele>
        <time>2023-09-30T06:18:06.000Z</time>
      </trkpt>
      <trkpt lat="46.02289" lon="6.7943">
        <ele>1215.8000488281</ele>
        <time>2023-09-30T06:18:07.000Z</time>
      </trkpt>
      <trkpt lat="46.02289" lon="6.79431">
        <ele>1215.8000488281</ele>
        <time>2023-09-30T06:18:08.000Z</time>
      </trkpt>
      <trkpt lat="46.0229" lon="6.79433">
        <ele>1216</ele>
        <time>2023-09-30T06:18:09.000Z</time>
      </trkpt>
      <trkpt lat="46.0229" lon="6.79434">
        <ele>1216</ele>
        <time>2023-09-30T06:18:10.000Z</time>
      </trkpt>
      <trkpt lat="46.0229" lon="6.79435">
        <ele>1216</ele>
        <time>2023-09-30T06:18:11.000Z</time>
      </trkpt>
      <trkpt lat="46.0229" lon="6.79437">
        <ele>1216</ele>
        <time>2023-09-30T06:18:12.000Z</time>
      </trkpt>
      <trkpt lat="46.02289" lon="6.79438">
        <ele>1216</ele>
        <time>2023-09-30T06:18:13.000Z</time>
      </trkpt>
      <trkpt lat="46.02289" lon="6.79439">
        <ele>1216.1999511719</ele>
        <time>2023-09-30T06:18:14.000Z</time>
      </trkpt>
      <trkpt lat="46.02288" lon="6.79439">
        <ele>1216.4000244141</ele>
        <time>2023-09-30T06:18:15.000Z</time>
      </trkpt>
      <trkpt lat="46.02287" lon="6.7944">
        <ele>1216.4000244141</ele>
        <time>2023-09-30T06:18:16.000Z</time>
      </trkpt>
      <trkpt lat="46.02287" lon="6.79441">
        <ele>1216.4000244141</ele>
        <time>2023-09-30T06:18:17.000Z</time>
      </trkpt>
      <trkpt lat="46.02286" lon="6.79441">
        <ele>1216.4000244141</ele>
        <time>2023-09-30T06:18:18.000Z</time>
      </trkpt>
      <trkpt lat="46.02286" lon="6.79444">
        <ele>1216.5999755859</ele>
        <time>2023-09-30T06:18:19.000Z</time>
      </trkpt>
      <trkpt lat="46.02286" lon="6.79444">
        <ele>1216.5999755859</ele>
        <time>2023-09-30T06:18:20.000Z</time>
      </trkpt>
      <trkpt lat="46.02285" lon="6.79445">
        <ele>1216.5999755859</ele>
        <time>2023-09-30T06:18:21.000Z</time>
      </trkpt>
      <trkpt lat="46.02284" lon="6.79446">
        <ele>1216.5999755859</ele>
        <time>2023-09-30T06:18:22.000Z</time>
      </trkpt>
      <trkpt lat="46.02283" lon="6.79446">
        <ele>1216.8000488281</ele>
        <time>2023-09-30T06:18:23.000Z</time>
      </trkpt>
      <trkpt lat="46.02283" lon="6.79446">
        <ele>1217</ele>
        <time>2023-09-30T06:18:24.000Z</time>
      </trkpt>
      <trkpt lat="46.02282" lon="6.79447">
        <ele>1217.1999511719</ele>
        <time>2023-09-30T06:18:25.000Z</time>
      </trkpt>
      <trkpt lat="46.02281" lon="6.79448">
        <ele>1217.1999511719</ele>
        <time>2023-09-30T06:18:26.000Z</time>
      </trkpt>
      <trkpt lat="46.0228" lon="6.79447">
        <ele>1217.5999755859</ele>
        <time>2023-09-30T06:18:27.000Z</time>
      </trkpt>
      <trkpt lat="46.0228" lon="6.79448">
        <ele>1217.5999755859</ele>
        <time>2023-09-30T06:18:28.000Z</time>
      </trkpt>
      <trkpt lat="46.02279" lon="6.79448">
        <ele>1217.8000488281</ele>
        <time>2023-09-30T06:18:29.000Z</time>
      </trkpt>
      <trkpt lat="46.02278" lon="6.79449">
        <ele>1218</ele>
        <time>2023-09-30T06:18:30.000Z</time>
      </trkpt>
      <trkpt lat="46.02278" lon="6.79449">
        <ele>1218.1999511719</ele>
        <time>2023-09-30T06:18:31.000Z</time>
      </trkpt>
      <trkpt lat="46.02278" lon="6.79449">
        <ele>1218.4000244141</ele>
        <time>2023-09-30T06:18:32.000Z</time>
      </trkpt>
      <trkpt lat="46.02277" lon="6.7945">
        <ele>1218.4000244141</ele>
        <time>2023-09-30T06:18:33.000Z</time>
      </trkpt>
      <trkpt lat="46.02277" lon="6.79452">
        <ele>1218.5999755859</ele>
        <time>2023-09-30T06:18:34.000Z</time>
      </trkpt>
      <trkpt lat="46.02277" lon="6.79453">
        <ele>1218.8000488281</ele>
        <time>2023-09-30T06:18:35.000Z</time>
      </trkpt>
      <trkpt lat="46.02276" lon="6.79456">
        <ele>1219</ele>
        <time>2023-09-30T06:18:36.000Z</time>
      </trkpt>
      <trkpt lat="46.02276" lon="6.79458">
        <ele>1219.4000244141</ele>
        <time>2023-09-30T06:18:37.000Z</time>
      </trkpt>
      <trkpt lat="46.02276" lon="6.7946">
        <ele>1219.5999755859</ele>
        <time>2023-09-30T06:18:38.000Z</time>
      </trkpt>
      <trkpt lat="46.02276" lon="6.79461">
        <ele>1219.8000488281</ele>
        <time>2023-09-30T06:18:39.000Z</time>
      </trkpt>
      <trkpt lat="46.02276" lon="6.79463">
        <ele>1220</ele>
        <time>2023-09-30T06:18:40.000Z</time>
      </trkpt>
      <trkpt lat="46.02276" lon="6.79465">
        <ele>1220.1999511719</ele>
        <time>2023-09-30T06:18:41.000Z</time>
      </trkpt>
      <trkpt lat="46.02276" lon="6.79467">
        <ele>1220.4000244141</ele>
        <time>2023-09-30T06:18:42.000Z</time>
      </trkpt>
      <trkpt lat="46.02277" lon="6.79469">
        <ele>1220.5999755859</ele>
        <time>2023-09-30T06:18:43.000Z</time>
      </trkpt>
      <trkpt lat="46.02277" lon="6.79471">
        <ele>1220.8000488281</ele>
        <time>2023-09-30T06:18:44.000Z</time>
      </trkpt>
      <trkpt lat="46.02277" lon="6.79472">
        <ele>1221.1999511719</ele>
        <time>2023-09-30T06:18:45.000Z</time>
      </trkpt>
      <trkpt lat="46.02277" lon="6.79475">
        <ele>1221.5999755859</ele>
        <time>2023-09-30T06:18:46.000Z</time>
      </trkpt>
      <trkpt lat="46.02277" lon="6.79476">
        <ele>1221.5999755859</ele>
        <time>2023-09-30T06:18:47.000Z</time>
      </trkpt>
      <trkpt lat="46.02278" lon="6.79478">
        <ele>1221.8000488281</ele>
        <time>2023-09-30T06:18:48.000Z</time>
      </trkpt>
      <trkpt lat="46.02278" lon="6.79478">
        <ele>1221.8000488281</ele>
        <time>2023-09-30T06:18:49.000Z</time>
      </trkpt>
      <trkpt lat="46.02278" lon="6.79479">
        <ele>1222</ele>
        <time>2023-09-30T06:18:50.000Z</time>
      </trkpt>
      <trkpt lat="46.02279" lon="6.7948">
        <ele>1222</ele>
        <time>2023-09-30T06:18:51.000Z</time>
      </trkpt>
      <trkpt lat="46.02279" lon="6.7948">
        <ele>1222.1999511719</ele>
        <time>2023-09-30T06:18:52.000Z</time>
      </trkpt>
      <trkpt lat="46.02279" lon="6.79481">
        <ele>1222.5999755859</ele>
        <time>2023-09-30T06:18:53.000Z</time>
      </trkpt>
      <trkpt lat="46.02279" lon="6.79483">
        <ele>1222.8000488281</ele>
        <time>2023-09-30T06:18:54.000Z</time>
      </trkpt>
      <trkpt lat="46.02279" lon="6.79484">
        <ele>1223.1999511719</ele>
        <time>2023-09-30T06:18:55.000Z</time>
      </trkpt>
      <trkpt lat="46.02279" lon="6.79486">
        <ele>1223.4000244141</ele>
        <time>2023-09-30T06:18:56.000Z</time>
      </trkpt>
      <trkpt lat="46.02279" lon="6.79488">
        <ele>1223.4000244141</ele>
        <time>2023-09-30T06:18:57.000Z</time>
      </trkpt>
      <trkpt lat="46.02278" lon="6.7949">
        <ele>1223.8000488281</ele>
        <time>2023-09-30T06:18:58.000Z</time>
      </trkpt>
      <trkpt lat="46.02278" lon="6.79492">
        <ele>1223.8000488281</ele>
        <time>2023-09-30T06:18:59.000Z</time>
      </trkpt>
      <trkpt lat="46.02279" lon="6.79492">
        <ele>1224</ele>
        <time>2023-09-30T06:19:00.000Z</time>
      </trkpt>
      <trkpt lat="46.02279" lon="6.79492">
        <ele>1224.1999511719</ele>
        <time>2023-09-30T06:19:01.000Z</time>
      </trkpt>
      <trkpt lat="46.0228" lon="6.79494">
        <ele>1224.4000244141</ele>
        <time>2023-09-30T06:19:02.000Z</time>
      </trkpt>
      <trkpt lat="46.0228" lon="6.79496">
        <ele>1224.4000244141</ele>
        <time>2023-09-30T06:19:03.000Z</time>
      </trkpt>
      <trkpt lat="46.0228" lon="6.79498">
        <ele>1224.5999755859</ele>
        <time>2023-09-30T06:19:04.000Z</time>
      </trkpt>
      <trkpt lat="46.0228" lon="6.795">
        <ele>1224.8000488281</ele>
        <time>2023-09-30T06:19:05.000Z</time>
      </trkpt>
      <trkpt lat="46.0228" lon="6.79502">
        <ele>1224.8000488281</ele>
        <time>2023-09-30T06:19:06.000Z</time>
      </trkpt>
      <trkpt lat="46.02281" lon="6.79503">
        <ele>1225</ele>
        <time>2023-09-30T06:19:07.000Z</time>
      </trkpt>
      <trkpt lat="46.02281" lon="6.79504">
        <ele>1225</ele>
        <time>2023-09-30T06:19:08.000Z</time>
      </trkpt>
      <trkpt lat="46.02281" lon="6.79504">
        <ele>1225.4000244141</ele>
        <time>2023-09-30T06:19:11.000Z</time>
      </trkpt>
      <trkpt lat="46.0228" lon="6.79505">
        <ele>1225.8000488281</ele>
        <time>2023-09-30T06:19:13.000Z</time>
      </trkpt>
      <trkpt lat="46.0228" lon="6.79506">
        <ele>1226</ele>
        <time>2023-09-30T06:19:14.000Z</time>
      </trkpt>
      <trkpt lat="46.0228" lon="6.79508">
        <ele>1226.4000244141</ele>
        <time>2023-09-30T06:19:15.000Z</time>
      </trkpt>
      <trkpt lat="46.0228" lon="6.79509">
        <ele>1226.8000488281</ele>
        <time>2023-09-30T06:19:16.000Z</time>
      </trkpt>
      <trkpt lat="46.0228" lon="6.7951">
        <ele>1227</ele>
        <time>2023-09-30T06:19:17.000Z</time>
      </trkpt>
      <trkpt lat="46.02281" lon="6.79512">
        <ele>1227.1999511719</ele>
        <time>2023-09-30T06:19:18.000Z</time>
      </trkpt>
      <trkpt lat="46.02281" lon="6.79513">
        <ele>1227.4000244141</ele>
        <time>2023-09-30T06:19:19.000Z</time>
      </trkpt>
      <trkpt lat="46.02281" lon="6.79515">
        <ele>1227.4000244141</ele>
        <time>2023-09-30T06:19:20.000Z</time>
      </trkpt>
      <trkpt lat="46.02281" lon="6.79517">
        <ele>1227.5999755859</ele>
        <time>2023-09-30T06:19:21.000Z</time>
      </trkpt>
      <trkpt lat="46.02281" lon="6.79518">
        <ele>1227.5999755859</ele>
        <time>2023-09-30T06:19:22.000Z</time>
      </trkpt>
      <trkpt lat="46.02282" lon="6.79519">
        <ele>1227.5999755859</ele>
        <time>2023-09-30T06:19:23.000Z</time>
      </trkpt>
      <trkpt lat="46.02282" lon="6.7952">
        <ele>1227.8000488281</ele>
        <time>2023-09-30T06:19:25.000Z</time>
      </trkpt>
      <trkpt lat="46.02282" lon="6.7952">
        <ele>1228</ele>
        <time>2023-09-30T06:19:26.000Z</time>
      </trkpt>
      <trkpt lat="46.02281" lon="6.7952">
        <ele>1228</ele>
        <time>2023-09-30T06:19:27.000Z</time>
      </trkpt>
      <trkpt lat="46.0228" lon="6.79521">
        <ele>1228.1999511719</ele>
        <time>2023-09-30T06:19:28.000Z</time>
      </trkpt>
      <trkpt lat="46.0228" lon="6.79522">
        <ele>1228.4000244141</ele>
        <time>2023-09-30T06:19:29.000Z</time>
      </trkpt>
      <trkpt lat="46.0228" lon="6.79523">
        <ele>1228.5999755859</ele>
        <time>2023-09-30T06:19:30.000Z</time>
      </trkpt>
      <trkpt lat="46.0228" lon="6.79524">
        <ele>1228.5999755859</ele>
        <time>2023-09-30T06:19:31.000Z</time>
      </trkpt>
      <trkpt lat="46.02281" lon="6.79526">
        <ele>1228.8000488281</ele>
        <time>2023-09-30T06:19:32.000Z</time>
      </trkpt>
      <trkpt lat="46.02281" lon="6.79527">
        <ele>1228.8000488281</ele>
        <time>2023-09-30T06:19:33.000Z</time>
      </trkpt>
      <trkpt lat="46.02281" lon="6.79529">
        <ele>1228.8000488281</ele>
        <time>2023-09-30T06:19:34.000Z</time>
      </trkpt>
      <trkpt lat="46.02281" lon="6.79531">
        <ele>1228.8000488281</ele>
        <time>2023-09-30T06:19:35.000Z</time>
      </trkpt>
      <trkpt lat="46.02281" lon="6.79533">
        <ele>1228.8000488281</ele>
        <time>2023-09-30T06:19:36.000Z</time>
      </trkpt>
      <trkpt lat="46.02281" lon="6.79535">
        <ele>1229</ele>
        <time>2023-09-30T06:19:37.000Z</time>
      </trkpt>
      <trkpt lat="46.02281" lon="6.79537">
        <ele>1229</ele>
        <time>2023-09-30T06:19:38.000Z</time>
      </trkpt>
      <trkpt lat="46.02281" lon="6.79539">
        <ele>1229.1999511719</ele>
        <time>2023-09-30T06:19:39.000Z</time>
      </trkpt>
      <trkpt lat="46.02281" lon="6.79541">
        <ele>1229.5999755859</ele>
        <time>2023-09-30T06:19:40.000Z</time>
      </trkpt>
      <trkpt lat="46.02281" lon="6.79543">
        <ele>1229.5999755859</ele>
        <time>2023-09-30T06:19:41.000Z</time>
      </trkpt>
      <trkpt lat="46.0228" lon="6.79545">
        <ele>1229.8000488281</ele>
        <time>2023-09-30T06:19:42.000Z</time>
      </trkpt>
      <trkpt lat="46.0228" lon="6.79547">
        <ele>1230</ele>
        <time>2023-09-30T06:19:43.000Z</time>
      </trkpt>
      <trkpt lat="46.0228" lon="6.79549">
        <ele>1230</ele>
        <time>2023-09-30T06:19:44.000Z</time>
      </trkpt>
      <trkpt lat="46.0228" lon="6.79551">
        <ele>1230.1999511719</ele>
        <time>2023-09-30T06:19:45.000Z</time>
      </trkpt>
      <trkpt lat="46.0228" lon="6.79554">
        <ele>1230.1999511719</ele>
        <time>2023-09-30T06:19:46.000Z</time>
      </trkpt>
      <trkpt lat="46.0228" lon="6.79557">
        <ele>1230.4000244141</ele>
        <time>2023-09-30T06:19:47.000Z</time>
      </trkpt>
      <trkpt lat="46.0228" lon="6.79559">
        <ele>1230.4000244141</ele>
        <time>2023-09-30T06:19:48.000Z</time>
      </trkpt>
      <trkpt lat="46.0228" lon="6.79561">
        <ele>1230.5999755859</ele>
        <time>2023-09-30T06:19:49.000Z</time>
      </trkpt>
      <trkpt lat="46.02279" lon="6.79563">
        <ele>1230.5999755859</ele>
        <time>2023-09-30T06:19:50.000Z</time>
      </trkpt>
      <trkpt lat="46.02278" lon="6.79564">
        <ele>1230.5999755859</ele>
        <time>2023-09-30T06:19:51.000Z</time>
      </trkpt>
      <trkpt lat="46.02278" lon="6.79567">
        <ele>1230.5999755859</ele>
        <time>2023-09-30T06:19:52.000Z</time>
      </trkpt>
      <trkpt lat="46.02277" lon="6.79569">
        <ele>1230.5999755859</ele>
        <time>2023-09-30T06:19:53.000Z</time>
      </trkpt>
      <trkpt lat="46.02277" lon="6.79572">
        <ele>1230.8000488281</ele>
        <time>2023-09-30T06:19:54.000Z</time>
      </trkpt>
      <trkpt lat="46.02277" lon="6.79575">
        <ele>1230.8000488281</ele>
        <time>2023-09-30T06:19:55.000Z</time>
      </trkpt>
      <trkpt lat="46.02276" lon="6.79577">
        <ele>1231</ele>
        <time>2023-09-30T06:19:56.000Z</time>
      </trkpt>
      <trkpt lat="46.02276" lon="6.79579">
        <ele>1231.1999511719</ele>
        <time>2023-09-30T06:19:57.000Z</time>
      </trkpt>
      <trkpt lat="46.02275" lon="6.79582">
        <ele>1231.1999511719</ele>
        <time>2023-09-30T06:19:58.000Z</time>
      </trkpt>
      <trkpt lat="46.02275" lon="6.79585">
        <ele>1231.4000244141</ele>
        <time>2023-09-30T06:19:59.000Z</time>
      </trkpt>
      <trkpt lat="46.02275" lon="6.79587">
        <ele>1231.4000244141</ele>
        <time>2023-09-30T06:20:00.000Z</time>
      </trkpt>
      <trkpt lat="46.02276" lon="6.79591">
        <ele>1231.8000488281</ele>
        <time>2023-09-30T06:20:02.000Z</time>
      </trkpt>
      <trkpt lat="46.02275" lon="6.79593">
        <ele>1232</ele>
        <time>2023-09-30T06:20:03.000Z</time>
      </trkpt>
      <trkpt lat="46.02275" lon="6.79595">
        <ele>1232.1999511719</ele>
        <time>2023-09-30T06:20:04.000Z</time>
      </trkpt>
      <trkpt lat="46.02275" lon="6.79597">
        <ele>1232.1999511719</ele>
        <time>2023-09-30T06:20:05.000Z</time>
      </trkpt>
      <trkpt lat="46.02275" lon="6.79599">
        <ele>1232.4000244141</ele>
        <time>2023-09-30T06:20:06.000Z</time>
      </trkpt>
      <trkpt lat="46.02276" lon="6.79601">
        <ele>1232.5999755859</ele>
        <time>2023-09-30T06:20:07.000Z</time>
      </trkpt>
      <trkpt lat="46.02276" lon="6.79603">
        <ele>1232.5999755859</ele>
        <time>2023-09-30T06:20:08.000Z</time>
      </trkpt>
      <trkpt lat="46.02276" lon="6.79605">
        <ele>1232.8000488281</ele>
        <time>2023-09-30T06:20:09.000Z</time>
      </trkpt>
      <trkpt lat="46.02276" lon="6.79607">
        <ele>1233</ele>
        <time>2023-09-30T06:20:10.000Z</time>
      </trkpt>
      <trkpt lat="46.02276" lon="6.79609">
        <ele>1233.1999511719</ele>
        <time>2023-09-30T06:20:11.000Z</time>
      </trkpt>
      <trkpt lat="46.02277" lon="6.79611">
        <ele>1233.4000244141</ele>
        <time>2023-09-30T06:20:12.000Z</time>
      </trkpt>
      <trkpt lat="46.02276" lon="6.79613">
        <ele>1233.4000244141</ele>
        <time>2023-09-30T06:20:13.000Z</time>
      </trkpt>
      <trkpt lat="46.02276" lon="6.79615">
        <ele>1233.8000488281</ele>
        <time>2023-09-30T06:20:14.000Z</time>
      </trkpt>
      <trkpt lat="46.02277" lon="6.79617">
        <ele>1234</ele>
        <time>2023-09-30T06:20:15.000Z</time>
      </trkpt>
      <trkpt lat="46.02277" lon="6.7962">
        <ele>1234.4000244141</ele>
        <time>2023-09-30T06:20:16.000Z</time>
      </trkpt>
      <trkpt lat="46.02277" lon="6.79622">
        <ele>1234.4000244141</ele>
        <time>2023-09-30T06:20:17.000Z</time>
      </trkpt>
      <trkpt lat="46.02278" lon="6.79624">
        <ele>1234.4000244141</ele>
        <time>2023-09-30T06:20:18.000Z</time>
      </trkpt>
      <trkpt lat="46.02278" lon="6.79625">
        <ele>1234.5999755859</ele>
        <time>2023-09-30T06:20:19.000Z</time>
      </trkpt>
      <trkpt lat="46.02279" lon="6.79628">
        <ele>1234.5999755859</ele>
        <time>2023-09-30T06:20:20.000Z</time>
      </trkpt>
      <trkpt lat="46.02278" lon="6.79629">
        <ele>1235</ele>
        <time>2023-09-30T06:20:21.000Z</time>
      </trkpt>
      <trkpt lat="46.02279" lon="6.79631">
        <ele>1235.1999511719</ele>
        <time>2023-09-30T06:20:22.000Z</time>
      </trkpt>
      <trkpt lat="46.02279" lon="6.79633">
        <ele>1235.1999511719</ele>
        <time>2023-09-30T06:20:23.000Z</time>
      </trkpt>
      <trkpt lat="46.02279" lon="6.79635">
        <ele>1235.4000244141</ele>
        <time>2023-09-30T06:20:24.000Z</time>
      </trkpt>
      <trkpt lat="46.0228" lon="6.79637">
        <ele>1235.4000244141</ele>
        <time>2023-09-30T06:20:25.000Z</time>
      </trkpt>
      <trkpt lat="46.0228" lon="6.79639">
        <ele>1235.5999755859</ele>
        <time>2023-09-30T06:20:26.000Z</time>
      </trkpt>
      <trkpt lat="46.0228" lon="6.79641">
        <ele>1235.5999755859</ele>
        <time>2023-09-30T06:20:27.000Z</time>
      </trkpt>
      <trkpt lat="46.0228" lon="6.79642">
        <ele>1235.8000488281</ele>
        <time>2023-09-30T06:20:28.000Z</time>
      </trkpt>
      <trkpt lat="46.02281" lon="6.79644">
        <ele>1235.8000488281</ele>
        <time>2023-09-30T06:20:29.000Z</time>
      </trkpt>
      <trkpt lat="46.02281" lon="6.79646">
        <ele>1235.8000488281</ele>
        <time>2023-09-30T06:20:30.000Z</time>
      </trkpt>
      <trkpt lat="46.02281" lon="6.79647">
        <ele>1236.1999511719</ele>
        <time>2023-09-30T06:20:31.000Z</time>
      </trkpt>
      <trkpt lat="46.02281" lon="6.79648">
        <ele>1236</ele>
        <time>2023-09-30T06:20:32.000Z</time>
      </trkpt>
      <trkpt lat="46.02281" lon="6.7965">
        <ele>1236.1999511719</ele>
        <time>2023-09-30T06:20:33.000Z</time>
      </trkpt>
      <trkpt lat="46.02282" lon="6.79652">
        <ele>1236.1999511719</ele>
        <time>2023-09-30T06:20:34.000Z</time>
      </trkpt>
      <trkpt lat="46.02282" lon="6.79654">
        <ele>1236.4000244141</ele>
        <time>2023-09-30T06:20:35.000Z</time>
      </trkpt>
      <trkpt lat="46.02284" lon="6.79658">
        <ele>1236.4000244141</ele>
        <time>2023-09-30T06:20:36.000Z</time>
      </trkpt>
      <trkpt lat="46.02285" lon="6.7966">
        <ele>1236.5999755859</ele>
        <time>2023-09-30T06:20:37.000Z</time>
      </trkpt>
      <trkpt lat="46.02285" lon="6.79662">
        <ele>1236.8000488281</ele>
        <time>2023-09-30T06:20:38.000Z</time>
      </trkpt>
      <trkpt lat="46.02286" lon="6.79663">
        <ele>1236.8000488281</ele>
        <time>2023-09-30T06:20:39.000Z</time>
      </trkpt>
      <trkpt lat="46.02286" lon="6.79663">
        <ele>1236.8000488281</ele>
        <time>2023-09-30T06:20:42.000Z</time>
      </trkpt>
      <trkpt lat="46.02286" lon="6.79663">
        <ele>1236.8000488281</ele>
        <time>2023-09-30T06:20:47.000Z</time>
      </trkpt>
      <trkpt lat="46.02286" lon="6.79663">
        <ele>1236.8000488281</ele>
        <time>2023-09-30T06:20:52.000Z</time>
      </trkpt>
      <trkpt lat="46.02287" lon="6.79667">
        <ele>1233.8000488281</ele>
        <time>2023-09-30T06:21:17.000Z</time>
      </trkpt>
      <trkpt lat="46.0229" lon="6.79676">
        <ele>1236.8000488281</ele>
        <time>2023-09-30T06:21:19.000Z</time>
      </trkpt>
      <trkpt lat="46.02291" lon="6.79679">
        <ele>1236.8000488281</ele>
        <time>2023-09-30T06:21:20.000Z</time>
      </trkpt>
      <trkpt lat="46.02291" lon="6.79682">
        <ele>1236.8000488281</ele>
        <time>2023-09-30T06:21:21.000Z</time>
      </trkpt>
      <trkpt lat="46.02291" lon="6.79685">
        <ele>1236.8000488281</ele>
        <time>2023-09-30T06:21:22.000Z</time>
      </trkpt>
      <trkpt lat="46.02292" lon="6.79688">
        <ele>1236.8000488281</ele>
        <time>2023-09-30T06:21:23.000Z</time>
      </trkpt>
      <trkpt lat="46.02292" lon="6.7969">
        <ele>1236.8000488281</ele>
        <time>2023-09-30T06:21:24.000Z</time>
      </trkpt>
      <trkpt lat="46.02293" lon="6.79692">
        <ele>1236.8000488281</ele>
        <time>2023-09-30T06:21:25.000Z</time>
      </trkpt>
      <trkpt lat="46.02293" lon="6.79694">
        <ele>1236.8000488281</ele>
        <time>2023-09-30T06:21:26.000Z</time>
      </trkpt>
      <trkpt lat="46.02293" lon="6.79695">
        <ele>1237</ele>
        <time>2023-09-30T06:21:27.000Z</time>
      </trkpt>
      <trkpt lat="46.02293" lon="6.79697">
        <ele>1237</ele>
        <time>2023-09-30T06:21:28.000Z</time>
      </trkpt>
      <trkpt lat="46.02294" lon="6.79706">
        <ele>1237.1999511719</ele>
        <time>2023-09-30T06:21:31.000Z</time>
      </trkpt>
      <trkpt lat="46.02292" lon="6.79717">
        <ele>1237.4000244141</ele>
        <time>2023-09-30T06:21:34.000Z</time>
      </trkpt>
      <trkpt lat="46.02293" lon="6.79719">
        <ele>1237.5999755859</ele>
        <time>2023-09-30T06:21:35.000Z</time>
      </trkpt>
      <trkpt lat="46.02293" lon="6.79722">
        <ele>1237.5999755859</ele>
        <time>2023-09-30T06:21:36.000Z</time>
      </trkpt>
      <trkpt lat="46.02293" lon="6.79725">
        <ele>1237.8000488281</ele>
        <time>2023-09-30T06:21:37.000Z</time>
      </trkpt>
      <trkpt lat="46.02293" lon="6.79733">
        <ele>1238</ele>
        <time>2023-09-30T06:21:39.000Z</time>
      </trkpt>
      <trkpt lat="46.02293" lon="6.7974">
        <ele>1238.1999511719</ele>
        <time>2023-09-30T06:21:41.000Z</time>
      </trkpt>
      <trkpt lat="46.02295" lon="6.79754">
        <ele>1238.4000244141</ele>
        <time>2023-09-30T06:21:44.000Z</time>
      </trkpt>
      <trkpt lat="46.02295" lon="6.79758">
        <ele>1238.4000244141</ele>
        <time>2023-09-30T06:21:45.000Z</time>
      </trkpt>
      <trkpt lat="46.02296" lon="6.79767">
        <ele>1238.4000244141</ele>
        <time>2023-09-30T06:21:47.000Z</time>
      </trkpt>
      <trkpt lat="46.02296" lon="6.7977">
        <ele>1238.4000244141</ele>
        <time>2023-09-30T06:21:48.000Z</time>
      </trkpt>
      <trkpt lat="46.02296" lon="6.79772">
        <ele>1238.5999755859</ele>
        <time>2023-09-30T06:21:49.000Z</time>
      </trkpt>
      <trkpt lat="46.02296" lon="6.79774">
        <ele>1238.5999755859</ele>
        <time>2023-09-30T06:21:50.000Z</time>
      </trkpt>
      <trkpt lat="46.02296" lon="6.79777">
        <ele>1238.8000488281</ele>
        <time>2023-09-30T06:21:51.000Z</time>
      </trkpt>
      <trkpt lat="46.02296" lon="6.79779">
        <ele>1238.8000488281</ele>
        <time>2023-09-30T06:21:52.000Z</time>
      </trkpt>
      <trkpt lat="46.02296" lon="6.79782">
        <ele>1238.8000488281</ele>
        <time>2023-09-30T06:21:54.000Z</time>
      </trkpt>
      <trkpt lat="46.02296" lon="6.79784">
        <ele>1239</ele>
        <time>2023-09-30T06:21:55.000Z</time>
      </trkpt>
      <trkpt lat="46.02296" lon="6.79786">
        <ele>1239</ele>
        <time>2023-09-30T06:21:56.000Z</time>
      </trkpt>
      <trkpt lat="46.02297" lon="6.79787">
        <ele>1239.1999511719</ele>
        <time>2023-09-30T06:21:57.000Z</time>
      </trkpt>
      <trkpt lat="46.02297" lon="6.79789">
        <ele>1239.4000244141</ele>
        <time>2023-09-30T06:21:58.000Z</time>
      </trkpt>
      <trkpt lat="46.02297" lon="6.7979">
        <ele>1239.5999755859</ele>
        <time>2023-09-30T06:21:59.000Z</time>
      </trkpt>
      <trkpt lat="46.02297" lon="6.79792">
        <ele>1239.5999755859</ele>
        <time>2023-09-30T06:22:00.000Z</time>
      </trkpt>
      <trkpt lat="46.02298" lon="6.79794">
        <ele>1239.8000488281</ele>
        <time>2023-09-30T06:22:01.000Z</time>
      </trkpt>
      <trkpt lat="46.02298" lon="6.79796">
        <ele>1240.1999511719</ele>
        <time>2023-09-30T06:22:02.000Z</time>
      </trkpt>
      <trkpt lat="46.02298" lon="6.79797">
        <ele>1240.5999755859</ele>
        <time>2023-09-30T06:22:03.000Z</time>
      </trkpt>
      <trkpt lat="46.02299" lon="6.79802">
        <ele>1241</ele>
        <time>2023-09-30T06:22:05.000Z</time>
      </trkpt>
      <trkpt lat="46.02299" lon="6.79804">
        <ele>1241</ele>
        <time>2023-09-30T06:22:06.000Z</time>
      </trkpt>
      <trkpt lat="46.02299" lon="6.79805">
        <ele>1241.4000244141</ele>
        <time>2023-09-30T06:22:07.000Z</time>
      </trkpt>
      <trkpt lat="46.023" lon="6.79807">
        <ele>1241.5999755859</ele>
        <time>2023-09-30T06:22:08.000Z</time>
      </trkpt>
      <trkpt lat="46.023" lon="6.79808">
        <ele>1241.8000488281</ele>
        <time>2023-09-30T06:22:09.000Z</time>
      </trkpt>
      <trkpt lat="46.023" lon="6.7981">
        <ele>1242</ele>
        <time>2023-09-30T06:22:10.000Z</time>
      </trkpt>
      <trkpt lat="46.02301" lon="6.79812">
        <ele>1242.1999511719</ele>
        <time>2023-09-30T06:22:11.000Z</time>
      </trkpt>
      <trkpt lat="46.02301" lon="6.79814">
        <ele>1242.5999755859</ele>
        <time>2023-09-30T06:22:12.000Z</time>
      </trkpt>
      <trkpt lat="46.02301" lon="6.79816">
        <ele>1242.4000244141</ele>
        <time>2023-09-30T06:22:13.000Z</time>
      </trkpt>
      <trkpt lat="46.02301" lon="6.79818">
        <ele>1242.5999755859</ele>
        <time>2023-09-30T06:22:14.000Z</time>
      </trkpt>
      <trkpt lat="46.02302" lon="6.79819">
        <ele>1242.8000488281</ele>
        <time>2023-09-30T06:22:15.000Z</time>
      </trkpt>
      <trkpt lat="46.02303" lon="6.7982">
        <ele>1243.1999511719</ele>
        <time>2023-09-30T06:22:16.000Z</time>
      </trkpt>
      <trkpt lat="46.02303" lon="6.79821">
        <ele>1243.4000244141</ele>
        <time>2023-09-30T06:22:17.000Z</time>
      </trkpt>
      <trkpt lat="46.02304" lon="6.79823">
        <ele>1243.5999755859</ele>
        <time>2023-09-30T06:22:18.000Z</time>
      </trkpt>
      <trkpt lat="46.02304" lon="6.79824">
        <ele>1243.8000488281</ele>
        <time>2023-09-30T06:22:19.000Z</time>
      </trkpt>
      <trkpt lat="46.02305" lon="6.79825">
        <ele>1244</ele>
        <time>2023-09-30T06:22:20.000Z</time>
      </trkpt>
      <trkpt lat="46.02305" lon="6.79827">
        <ele>1244.1999511719</ele>
        <time>2023-09-30T06:22:21.000Z</time>
      </trkpt>
      <trkpt lat="46.02306" lon="6.79828">
        <ele>1244.4000244141</ele>
        <time>2023-09-30T06:22:22.000Z</time>
      </trkpt>
      <trkpt lat="46.02306" lon="6.7983">
        <ele>1244.8000488281</ele>
        <time>2023-09-30T06:22:23.000Z</time>
      </trkpt>
      <trkpt lat="46.02307" lon="6.79832">
        <ele>1245.1999511719</ele>
        <time>2023-09-30T06:22:24.000Z</time>
      </trkpt>
      <trkpt lat="46.02307" lon="6.79833">
        <ele>1245.4000244141</ele>
        <time>2023-09-30T06:22:25.000Z</time>
      </trkpt>
      <trkpt lat="46.02307" lon="6.79835">
        <ele>1245.5999755859</ele>
        <time>2023-09-30T06:22:26.000Z</time>
      </trkpt>
      <trkpt lat="46.02308" lon="6.79836">
        <ele>1245.5999755859</ele>
        <time>2023-09-30T06:22:27.000Z</time>
      </trkpt>
      <trkpt lat="46.02308" lon="6.79838">
        <ele>1246</ele>
        <time>2023-09-30T06:22:28.000Z</time>
      </trkpt>
      <trkpt lat="46.02309" lon="6.79839">
        <ele>1246.1999511719</ele>
        <time>2023-09-30T06:22:29.000Z</time>
      </trkpt>
      <trkpt lat="46.02309" lon="6.79841">
        <ele>1246.1999511719</ele>
        <time>2023-09-30T06:22:30.000Z</time>
      </trkpt>
      <trkpt lat="46.02309" lon="6.79842">
        <ele>1246.4000244141</ele>
        <time>2023-09-30T06:22:31.000Z</time>
      </trkpt>
      <trkpt lat="46.0231" lon="6.79844">
        <ele>1246.5999755859</ele>
        <time>2023-09-30T06:22:32.000Z</time>
      </trkpt>
      <trkpt lat="46.0231" lon="6.79845">
        <ele>1247</ele>
        <time>2023-09-30T06:22:33.000Z</time>
      </trkpt>
      <trkpt lat="46.0231" lon="6.79847">
        <ele>1247.1999511719</ele>
        <time>2023-09-30T06:22:34.000Z</time>
      </trkpt>
      <trkpt lat="46.0231" lon="6.79848">
        <ele>1247.5999755859</ele>
        <time>2023-09-30T06:22:35.000Z</time>
      </trkpt>
      <trkpt lat="46.02309" lon="6.79849">
        <ele>1247.8000488281</ele>
        <time>2023-09-30T06:22:36.000Z</time>
      </trkpt>
      <trkpt lat="46.02309" lon="6.7985">
        <ele>1247.8000488281</ele>
        <time>2023-09-30T06:22:37.000Z</time>
      </trkpt>
      <trkpt lat="46.02309" lon="6.79852">
        <ele>1248</ele>
        <time>2023-09-30T06:22:38.000Z</time>
      </trkpt>
      <trkpt lat="46.02309" lon="6.79854">
        <ele>1248.1999511719</ele>
        <time>2023-09-30T06:22:39.000Z</time>
      </trkpt>
      <trkpt lat="46.02308" lon="6.79855">
        <ele>1248.4000244141</ele>
        <time>2023-09-30T06:22:40.000Z</time>
      </trkpt>
      <trkpt lat="46.02307" lon="6.79857">
        <ele>1248.5999755859</ele>
        <time>2023-09-30T06:22:41.000Z</time>
      </trkpt>
      <trkpt lat="46.02305" lon="6.79857">
        <ele>1248.8000488281</ele>
        <time>2023-09-30T06:22:42.000Z</time>
      </trkpt>
      <trkpt lat="46.02305" lon="6.79857">
        <ele>1249</ele>
        <time>2023-09-30T06:22:43.000Z</time>
      </trkpt>
      <trkpt lat="46.02304" lon="6.79858">
        <ele>1248.8000488281</ele>
        <time>2023-09-30T06:22:44.000Z</time>
      </trkpt>
      <trkpt lat="46.02303" lon="6.79858">
        <ele>1249</ele>
        <time>2023-09-30T06:22:45.000Z</time>
      </trkpt>
      <trkpt lat="46.02301" lon="6.79858">
        <ele>1249.1999511719</ele>
        <time>2023-09-30T06:22:46.000Z</time>
      </trkpt>
      <trkpt lat="46.023" lon="6.79857">
        <ele>1249.5999755859</ele>
        <time>2023-09-30T06:22:47.000Z</time>
      </trkpt>
      <trkpt lat="46.02299" lon="6.79856">
        <ele>1249.5999755859</ele>
        <time>2023-09-30T06:22:48.000Z</time>
      </trkpt>
      <trkpt lat="46.02298" lon="6.79855">
        <ele>1249.8000488281</ele>
        <time>2023-09-30T06:22:49.000Z</time>
      </trkpt>
      <trkpt lat="46.02297" lon="6.79854">
        <ele>1250</ele>
        <time>2023-09-30T06:22:50.000Z</time>
      </trkpt>
      <trkpt lat="46.02296" lon="6.79854">
        <ele>1250</ele>
        <time>2023-09-30T06:22:51.000Z</time>
      </trkpt>
      <trkpt lat="46.02295" lon="6.79853">
        <ele>1250.1999511719</ele>
        <time>2023-09-30T06:22:52.000Z</time>
      </trkpt>
      <trkpt lat="46.02295" lon="6.79854">
        <ele>1250.1999511719</ele>
        <time>2023-09-30T06:22:53.000Z</time>
      </trkpt>
      <trkpt lat="46.02294" lon="6.79853">
        <ele>1251</ele>
        <time>2023-09-30T06:22:54.000Z</time>
      </trkpt>
      <trkpt lat="46.02292" lon="6.79853">
        <ele>1251.1999511719</ele>
        <time>2023-09-30T06:22:55.000Z</time>
      </trkpt>
      <trkpt lat="46.02291" lon="6.79853">
        <ele>1251.5999755859</ele>
        <time>2023-09-30T06:22:56.000Z</time>
      </trkpt>
      <trkpt lat="46.02289" lon="6.79854">
        <ele>1251.5999755859</ele>
        <time>2023-09-30T06:22:57.000Z</time>
      </trkpt>
      <trkpt lat="46.02288" lon="6.79854">
        <ele>1251.8000488281</ele>
        <time>2023-09-30T06:22:58.000Z</time>
      </trkpt>
      <trkpt lat="46.02287" lon="6.79855">
        <ele>1252.1999511719</ele>
        <time>2023-09-30T06:22:59.000Z</time>
      </trkpt>
      <trkpt lat="46.02286" lon="6.79855">
        <ele>1252.1999511719</ele>
        <time>2023-09-30T06:23:00.000Z</time>
      </trkpt>
      <trkpt lat="46.02285" lon="6.79856">
        <ele>1252.5999755859</ele>
        <time>2023-09-30T06:23:01.000Z</time>
      </trkpt>
      <trkpt lat="46.02284" lon="6.79857">
        <ele>1252.8000488281</ele>
        <time>2023-09-30T06:23:02.000Z</time>
      </trkpt>
      <trkpt lat="46.02283" lon="6.79857">
        <ele>1253</ele>
        <time>2023-09-30T06:23:03.000Z</time>
      </trkpt>
      <trkpt lat="46.02283" lon="6.79858">
        <ele>1253.1999511719</ele>
        <time>2023-09-30T06:23:04.000Z</time>
      </trkpt>
      <trkpt lat="46.02283" lon="6.79858">
        <ele>1253.4000244141</ele>
        <time>2023-09-30T06:23:05.000Z</time>
      </trkpt>
      <trkpt lat="46.02283" lon="6.79859">
        <ele>1253.5999755859</ele>
        <time>2023-09-30T06:23:06.000Z</time>
      </trkpt>
      <trkpt lat="46.02282" lon="6.7986">
        <ele>1253.5999755859</ele>
        <time>2023-09-30T06:23:07.000Z</time>
      </trkpt>
      <trkpt lat="46.02282" lon="6.79861">
        <ele>1253.8000488281</ele>
        <time>2023-09-30T06:23:08.000Z</time>
      </trkpt>
      <trkpt lat="46.02281" lon="6.79862">
        <ele>1253.8000488281</ele>
        <time>2023-09-30T06:23:09.000Z</time>
      </trkpt>
      <trkpt lat="46.02281" lon="6.79863">
        <ele>1254</ele>
        <time>2023-09-30T06:23:10.000Z</time>
      </trkpt>
      <trkpt lat="46.02281" lon="6.79864">
        <ele>1254.1999511719</ele>
        <time>2023-09-30T06:23:11.000Z</time>
      </trkpt>
      <trkpt lat="46.02281" lon="6.79864">
        <ele>1254.4000244141</ele>
        <time>2023-09-30T06:23:12.000Z</time>
      </trkpt>
      <trkpt lat="46.02279" lon="6.79865">
        <ele>1254.5999755859</ele>
        <time>2023-09-30T06:23:13.000Z</time>
      </trkpt>
      <trkpt lat="46.02279" lon="6.79867">
        <ele>1254.5999755859</ele>
        <time>2023-09-30T06:23:14.000Z</time>
      </trkpt>
      <trkpt lat="46.02279" lon="6.79869">
        <ele>1254.8000488281</ele>
        <time>2023-09-30T06:23:15.000Z</time>
      </trkpt>
      <trkpt lat="46.02279" lon="6.7987">
        <ele>1254.8000488281</ele>
        <time>2023-09-30T06:23:16.000Z</time>
      </trkpt>
      <trkpt lat="46.02279" lon="6.79871">
        <ele>1255</ele>
        <time>2023-09-30T06:23:17.000Z</time>
      </trkpt>
      <trkpt lat="46.02279" lon="6.79872">
        <ele>1255.1999511719</ele>
        <time>2023-09-30T06:23:18.000Z</time>
      </trkpt>
      <trkpt lat="46.02279" lon="6.79872">
        <ele>1255.4000244141</ele>
        <time>2023-09-30T06:23:19.000Z</time>
      </trkpt>
      <trkpt lat="46.02279" lon="6.79872">
        <ele>1255.5999755859</ele>
        <time>2023-09-30T06:23:21.000Z</time>
      </trkpt>
      <trkpt lat="46.02279" lon="6.79872">
        <ele>1255.8000488281</ele>
        <time>2023-09-30T06:23:22.000Z</time>
      </trkpt>
      <trkpt lat="46.02279" lon="6.79872">
        <ele>1256</ele>
        <time>2023-09-30T06:23:23.000Z</time>
      </trkpt>
      <trkpt lat="46.02279" lon="6.79873">
        <ele>1256</ele>
        <time>2023-09-30T06:23:24.000Z</time>
      </trkpt>
      <trkpt lat="46.02279" lon="6.79875">
        <ele>1256.1999511719</ele>
        <time>2023-09-30T06:23:25.000Z</time>
      </trkpt>
      <trkpt lat="46.02279" lon="6.79876">
        <ele>1256.4000244141</ele>
        <time>2023-09-30T06:23:26.000Z</time>
      </trkpt>
      <trkpt lat="46.02279" lon="6.79876">
        <ele>1256.5999755859</ele>
        <time>2023-09-30T06:23:27.000Z</time>
      </trkpt>
      <trkpt lat="46.02278" lon="6.79876">
        <ele>1256.8000488281</ele>
        <time>2023-09-30T06:23:28.000Z</time>
      </trkpt>
      <trkpt lat="46.02278" lon="6.79877">
        <ele>1257.1999511719</ele>
        <time>2023-09-30T06:23:31.000Z</time>
      </trkpt>
      <trkpt lat="46.02278" lon="6.79877">
        <ele>1257.1999511719</ele>
        <time>2023-09-30T06:23:33.000Z</time>
      </trkpt>
      <trkpt lat="46.02278" lon="6.79877">
        <ele>1257.4000244141</ele>
        <time>2023-09-30T06:23:34.000Z</time>
      </trkpt>
      <trkpt lat="46.02277" lon="6.79879">
        <ele>1257.5999755859</ele>
        <time>2023-09-30T06:23:35.000Z</time>
      </trkpt>
      <trkpt lat="46.02276" lon="6.79882">
        <ele>1257.5999755859</ele>
        <time>2023-09-30T06:23:36.000Z</time>
      </trkpt>
      <trkpt lat="46.02275" lon="6.79885">
        <ele>1257.8000488281</ele>
        <time>2023-09-30T06:23:37.000Z</time>
      </trkpt>
      <trkpt lat="46.02275" lon="6.79888">
        <ele>1257.8000488281</ele>
        <time>2023-09-30T06:23:38.000Z</time>
      </trkpt>
      <trkpt lat="46.02274" lon="6.7989">
        <ele>1258</ele>
        <time>2023-09-30T06:23:39.000Z</time>
      </trkpt>
      <trkpt lat="46.02273" lon="6.79893">
        <ele>1258.1999511719</ele>
        <time>2023-09-30T06:23:40.000Z</time>
      </trkpt>
      <trkpt lat="46.02273" lon="6.79895">
        <ele>1258.4000244141</ele>
        <time>2023-09-30T06:23:41.000Z</time>
      </trkpt>
      <trkpt lat="46.02273" lon="6.79898">
        <ele>1258.4000244141</ele>
        <time>2023-09-30T06:23:42.000Z</time>
      </trkpt>
      <trkpt lat="46.02273" lon="6.799">
        <ele>1258.5999755859</ele>
        <time>2023-09-30T06:23:43.000Z</time>
      </trkpt>
      <trkpt lat="46.02273" lon="6.79901">
        <ele>1258.8000488281</ele>
        <time>2023-09-30T06:23:44.000Z</time>
      </trkpt>
      <trkpt lat="46.02273" lon="6.79903">
        <ele>1259</ele>
        <time>2023-09-30T06:23:45.000Z</time>
      </trkpt>
      <trkpt lat="46.02273" lon="6.79903">
        <ele>1259.4000244141</ele>
        <time>2023-09-30T06:23:46.000Z</time>
      </trkpt>
      <trkpt lat="46.02273" lon="6.79904">
        <ele>1259.5999755859</ele>
        <time>2023-09-30T06:23:47.000Z</time>
      </trkpt>
      <trkpt lat="46.02273" lon="6.79906">
        <ele>1259.5999755859</ele>
        <time>2023-09-30T06:23:48.000Z</time>
      </trkpt>
      <trkpt lat="46.02272" lon="6.79908">
        <ele>1259.8000488281</ele>
        <time>2023-09-30T06:23:49.000Z</time>
      </trkpt>
      <trkpt lat="46.02273" lon="6.79911">
        <ele>1260</ele>
        <time>2023-09-30T06:23:50.000Z</time>
      </trkpt>
      <trkpt lat="46.02273" lon="6.79912">
        <ele>1260</ele>
        <time>2023-09-30T06:23:51.000Z</time>
      </trkpt>
      <trkpt lat="46.02273" lon="6.79912">
        <ele>1260.1999511719</ele>
        <time>2023-09-30T06:23:52.000Z</time>
      </trkpt>
      <trkpt lat="46.02273" lon="6.79914">
        <ele>1260.5999755859</ele>
        <time>2023-09-30T06:23:53.000Z</time>
      </trkpt>
      <trkpt lat="46.02274" lon="6.79915">
        <ele>1260.8000488281</ele>
        <time>2023-09-30T06:23:54.000Z</time>
      </trkpt>
      <trkpt lat="46.02274" lon="6.79916">
        <ele>1261</ele>
        <time>2023-09-30T06:23:55.000Z</time>
      </trkpt>
      <trkpt lat="46.02274" lon="6.79916">
        <ele>1261.1999511719</ele>
        <time>2023-09-30T06:23:56.000Z</time>
      </trkpt>
      <trkpt lat="46.02274" lon="6.79916">
        <ele>1261.1999511719</ele>
        <time>2023-09-30T06:23:57.000Z</time>
      </trkpt>
      <trkpt lat="46.02274" lon="6.79918">
        <ele>1261.4000244141</ele>
        <time>2023-09-30T06:23:58.000Z</time>
      </trkpt>
      <trkpt lat="46.02273" lon="6.79919">
        <ele>1261.5999755859</ele>
        <time>2023-09-30T06:23:59.000Z</time>
      </trkpt>
      <trkpt lat="46.02273" lon="6.7992">
        <ele>1261.8000488281</ele>
        <time>2023-09-30T06:24:00.000Z</time>
      </trkpt>
      <trkpt lat="46.02273" lon="6.79921">
        <ele>1262</ele>
        <time>2023-09-30T06:24:01.000Z</time>
      </trkpt>
      <trkpt lat="46.02273" lon="6.79922">
        <ele>1262</ele>
        <time>2023-09-30T06:24:02.000Z</time>
      </trkpt>
      <trkpt lat="46.02274" lon="6.79924">
        <ele>1262.1999511719</ele>
        <time>2023-09-30T06:24:03.000Z</time>
      </trkpt>
      <trkpt lat="46.02274" lon="6.79925">
        <ele>1262.4000244141</ele>
        <time>2023-09-30T06:24:04.000Z</time>
      </trkpt>
      <trkpt lat="46.02274" lon="6.79927">
        <ele>1262.8000488281</ele>
        <time>2023-09-30T06:24:05.000Z</time>
      </trkpt>
      <trkpt lat="46.02274" lon="6.79929">
        <ele>1262.8000488281</ele>
        <time>2023-09-30T06:24:06.000Z</time>
      </trkpt>
      <trkpt lat="46.02274" lon="6.79931">
        <ele>1263.1999511719</ele>
        <time>2023-09-30T06:24:07.000Z</time>
      </trkpt>
      <trkpt lat="46.02274" lon="6.79933">
        <ele>1263.4000244141</ele>
        <time>2023-09-30T06:24:08.000Z</time>
      </trkpt>
      <trkpt lat="46.02274" lon="6.79934">
        <ele>1263.8000488281</ele>
        <time>2023-09-30T06:24:09.000Z</time>
      </trkpt>
      <trkpt lat="46.02274" lon="6.79934">
        <ele>1263.8000488281</ele>
        <time>2023-09-30T06:24:10.000Z</time>
      </trkpt>
      <trkpt lat="46.02274" lon="6.79934">
        <ele>1264</ele>
        <time>2023-09-30T06:24:11.000Z</time>
      </trkpt>
      <trkpt lat="46.02274" lon="6.79936">
        <ele>1264.4000244141</ele>
        <time>2023-09-30T06:24:12.000Z</time>
      </trkpt>
      <trkpt lat="46.02274" lon="6.79936">
        <ele>1264.1999511719</ele>
        <time>2023-09-30T06:24:13.000Z</time>
      </trkpt>
      <trkpt lat="46.02274" lon="6.79936">
        <ele>1264.5999755859</ele>
        <time>2023-09-30T06:24:14.000Z</time>
      </trkpt>
      <trkpt lat="46.02274" lon="6.79936">
        <ele>1264.8000488281</ele>
        <time>2023-09-30T06:24:15.000Z</time>
      </trkpt>
      <trkpt lat="46.02274" lon="6.79936">
        <ele>1265</ele>
        <time>2023-09-30T06:24:16.000Z</time>
      </trkpt>
      <trkpt lat="46.02274" lon="6.79936">
        <ele>1265.4000244141</ele>
        <time>2023-09-30T06:24:19.000Z</time>
      </trkpt>
      <trkpt lat="46.02274" lon="6.79938">
        <ele>1265.4000244141</ele>
        <time>2023-09-30T06:24:20.000Z</time>
      </trkpt>
      <trkpt lat="46.02274" lon="6.79938">
        <ele>1265.5999755859</ele>
        <time>2023-09-30T06:24:21.000Z</time>
      </trkpt>
      <trkpt lat="46.02274" lon="6.79938">
        <ele>1265.5999755859</ele>
        <time>2023-09-30T06:24:22.000Z</time>
      </trkpt>
      <trkpt lat="46.02274" lon="6.79939">
        <ele>1265.8000488281</ele>
        <time>2023-09-30T06:24:24.000Z</time>
      </trkpt>
      <trkpt lat="46.02274" lon="6.7994">
        <ele>1266</ele>
        <time>2023-09-30T06:24:25.000Z</time>
      </trkpt>
      <trkpt lat="46.02274" lon="6.79942">
        <ele>1266.1999511719</ele>
        <time>2023-09-30T06:24:26.000Z</time>
      </trkpt>
      <trkpt lat="46.02275" lon="6.79944">
        <ele>1266.1999511719</ele>
        <time>2023-09-30T06:24:27.000Z</time>
      </trkpt>
      <trkpt lat="46.02275" lon="6.79947">
        <ele>1266.4000244141</ele>
        <time>2023-09-30T06:24:28.000Z</time>
      </trkpt>
      <trkpt lat="46.02275" lon="6.79949">
        <ele>1266.4000244141</ele>
        <time>2023-09-30T06:24:29.000Z</time>
      </trkpt>
      <trkpt lat="46.02275" lon="6.7995">
        <ele>1266.8000488281</ele>
        <time>2023-09-30T06:24:30.000Z</time>
      </trkpt>
      <trkpt lat="46.02275" lon="6.79951">
        <ele>1266.8000488281</ele>
        <time>2023-09-30T06:24:31.000Z</time>
      </trkpt>
      <trkpt lat="46.02275" lon="6.79953">
        <ele>1267.1999511719</ele>
        <time>2023-09-30T06:24:32.000Z</time>
      </trkpt>
      <trkpt lat="46.02275" lon="6.79956">
        <ele>1267.5999755859</ele>
        <time>2023-09-30T06:24:33.000Z</time>
      </trkpt>
      <trkpt lat="46.02275" lon="6.79956">
        <ele>1267.8000488281</ele>
        <time>2023-09-30T06:24:35.000Z</time>
      </trkpt>
      <trkpt lat="46.02275" lon="6.79959">
        <ele>1268</ele>
        <time>2023-09-30T06:24:37.000Z</time>
      </trkpt>
      <trkpt lat="46.02275" lon="6.7996">
        <ele>1268</ele>
        <time>2023-09-30T06:24:38.000Z</time>
      </trkpt>
      <trkpt lat="46.02276" lon="6.79962">
        <ele>1268.1999511719</ele>
        <time>2023-09-30T06:24:39.000Z</time>
      </trkpt>
      <trkpt lat="46.02276" lon="6.79964">
        <ele>1268.4000244141</ele>
        <time>2023-09-30T06:24:40.000Z</time>
      </trkpt>
      <trkpt lat="46.02276" lon="6.79964">
        <ele>1268.4000244141</ele>
        <time>2023-09-30T06:24:41.000Z</time>
      </trkpt>
      <trkpt lat="46.02276" lon="6.79965">
        <ele>1268.8000488281</ele>
        <time>2023-09-30T06:24:42.000Z</time>
      </trkpt>
      <trkpt lat="46.02276" lon="6.79966">
        <ele>1268.8000488281</ele>
        <time>2023-09-30T06:24:43.000Z</time>
      </trkpt>
      <trkpt lat="46.02276" lon="6.79966">
        <ele>1269</ele>
        <time>2023-09-30T06:24:44.000Z</time>
      </trkpt>
      <trkpt lat="46.02276" lon="6.79967">
        <ele>1268.8000488281</ele>
        <time>2023-09-30T06:24:45.000Z</time>
      </trkpt>
      <trkpt lat="46.02276" lon="6.79969">
        <ele>1269</ele>
        <time>2023-09-30T06:24:46.000Z</time>
      </trkpt>
      <trkpt lat="46.02275" lon="6.7997">
        <ele>1269.1999511719</ele>
        <time>2023-09-30T06:24:47.000Z</time>
      </trkpt>
      <trkpt lat="46.02275" lon="6.79971">
        <ele>1269.4000244141</ele>
        <time>2023-09-30T06:24:49.000Z</time>
      </trkpt>
      <trkpt lat="46.02275" lon="6.79971">
        <ele>1269.5999755859</ele>
        <time>2023-09-30T06:24:50.000Z</time>
      </trkpt>
      <trkpt lat="46.02275" lon="6.79971">
        <ele>1269.8000488281</ele>
        <time>2023-09-30T06:24:51.000Z</time>
      </trkpt>
      <trkpt lat="46.02274" lon="6.79973">
        <ele>1269.8000488281</ele>
        <time>2023-09-30T06:24:52.000Z</time>
      </trkpt>
      <trkpt lat="46.02274" lon="6.79975">
        <ele>1270.1999511719</ele>
        <time>2023-09-30T06:24:53.000Z</time>
      </trkpt>
      <trkpt lat="46.02274" lon="6.79976">
        <ele>1270.4000244141</ele>
        <time>2023-09-30T06:24:54.000Z</time>
      </trkpt>
      <trkpt lat="46.02273" lon="6.79978">
        <ele>1270.4000244141</ele>
        <time>2023-09-30T06:24:55.000Z</time>
      </trkpt>
      <trkpt lat="46.02272" lon="6.79979">
        <ele>1270.8000488281</ele>
        <time>2023-09-30T06:24:56.000Z</time>
      </trkpt>
      <trkpt lat="46.02272" lon="6.79981">
        <ele>1271</ele>
        <time>2023-09-30T06:24:57.000Z</time>
      </trkpt>
      <trkpt lat="46.02272" lon="6.79982">
        <ele>1271.1999511719</ele>
        <time>2023-09-30T06:24:58.000Z</time>
      </trkpt>
      <trkpt lat="46.02271" lon="6.79983">
        <ele>1271.1999511719</ele>
        <time>2023-09-30T06:24:59.000Z</time>
      </trkpt>
      <trkpt lat="46.02271" lon="6.79985">
        <ele>1271.4000244141</ele>
        <time>2023-09-30T06:25:00.000Z</time>
      </trkpt>
      <trkpt lat="46.0227" lon="6.79985">
        <ele>1271.8000488281</ele>
        <time>2023-09-30T06:25:01.000Z</time>
      </trkpt>
      <trkpt lat="46.02269" lon="6.79986">
        <ele>1272</ele>
        <time>2023-09-30T06:25:02.000Z</time>
      </trkpt>
      <trkpt lat="46.02269" lon="6.79987">
        <ele>1272.1999511719</ele>
        <time>2023-09-30T06:25:03.000Z</time>
      </trkpt>
      <trkpt lat="46.02268" lon="6.79988">
        <ele>1272.4000244141</ele>
        <time>2023-09-30T06:25:04.000Z</time>
      </trkpt>
      <trkpt lat="46.02268" lon="6.79989">
        <ele>1272.4000244141</ele>
        <time>2023-09-30T06:25:05.000Z</time>
      </trkpt>
      <trkpt lat="46.02267" lon="6.79991">
        <ele>1272.4000244141</ele>
        <time>2023-09-30T06:25:06.000Z</time>
      </trkpt>
      <trkpt lat="46.02267" lon="6.79992">
        <ele>1272.5999755859</ele>
        <time>2023-09-30T06:25:07.000Z</time>
      </trkpt>
      <trkpt lat="46.02266" lon="6.79994">
        <ele>1272.5999755859</ele>
        <time>2023-09-30T06:25:08.000Z</time>
      </trkpt>
      <trkpt lat="46.02266" lon="6.79995">
        <ele>1272.5999755859</ele>
        <time>2023-09-30T06:25:09.000Z</time>
      </trkpt>
      <trkpt lat="46.02266" lon="6.79995">
        <ele>1273</ele>
        <time>2023-09-30T06:25:10.000Z</time>
      </trkpt>
      <trkpt lat="46.02266" lon="6.79995">
        <ele>1273</ele>
        <time>2023-09-30T06:25:11.000Z</time>
      </trkpt>
      <trkpt lat="46.02266" lon="6.79996">
        <ele>1273.1999511719</ele>
        <time>2023-09-30T06:25:12.000Z</time>
      </trkpt>
      <trkpt lat="46.02265" lon="6.79997">
        <ele>1273.1999511719</ele>
        <time>2023-09-30T06:25:13.000Z</time>
      </trkpt>
      <trkpt lat="46.02265" lon="6.79997">
        <ele>1273.1999511719</ele>
        <time>2023-09-30T06:25:14.000Z</time>
      </trkpt>
      <trkpt lat="46.02266" lon="6.79998">
        <ele>1273.8000488281</ele>
        <time>2023-09-30T06:25:20.000Z</time>
      </trkpt>
      <trkpt lat="46.02265" lon="6.8">
        <ele>1273.8000488281</ele>
        <time>2023-09-30T06:25:21.000Z</time>
      </trkpt>
      <trkpt lat="46.02265" lon="6.80001">
        <ele>1274</ele>
        <time>2023-09-30T06:25:22.000Z</time>
      </trkpt>
      <trkpt lat="46.02264" lon="6.80001">
        <ele>1274</ele>
        <time>2023-09-30T06:25:23.000Z</time>
      </trkpt>
      <trkpt lat="46.02264" lon="6.80002">
        <ele>1274</ele>
        <time>2023-09-30T06:25:24.000Z</time>
      </trkpt>
      <trkpt lat="46.02263" lon="6.80003">
        <ele>1274.1999511719</ele>
        <time>2023-09-30T06:25:25.000Z</time>
      </trkpt>
      <trkpt lat="46.02263" lon="6.80003">
        <ele>1274.1999511719</ele>
        <time>2023-09-30T06:25:26.000Z</time>
      </trkpt>
      <trkpt lat="46.02263" lon="6.80004">
        <ele>1274.5999755859</ele>
        <time>2023-09-30T06:25:29.000Z</time>
      </trkpt>
      <trkpt lat="46.02262" lon="6.80006">
        <ele>1274.8000488281</ele>
        <time>2023-09-30T06:25:30.000Z</time>
      </trkpt>
      <trkpt lat="46.02261" lon="6.80007">
        <ele>1275</ele>
        <time>2023-09-30T06:25:31.000Z</time>
      </trkpt>
      <trkpt lat="46.0226" lon="6.80008">
        <ele>1275.1999511719</ele>
        <time>2023-09-30T06:25:32.000Z</time>
      </trkpt>
      <trkpt lat="46.0226" lon="6.80009">
        <ele>1275.4000244141</ele>
        <time>2023-09-30T06:25:33.000Z</time>
      </trkpt>
      <trkpt lat="46.02259" lon="6.8001">
        <ele>1275.4000244141</ele>
        <time>2023-09-30T06:25:34.000Z</time>
      </trkpt>
      <trkpt lat="46.02258" lon="6.80011">
        <ele>1275.8000488281</ele>
        <time>2023-09-30T06:25:35.000Z</time>
      </trkpt>
      <trkpt lat="46.02257" lon="6.80012">
        <ele>1276</ele>
        <time>2023-09-30T06:25:36.000Z</time>
      </trkpt>
      <trkpt lat="46.02257" lon="6.80013">
        <ele>1276</ele>
        <time>2023-09-30T06:25:37.000Z</time>
      </trkpt>
      <trkpt lat="46.02256" lon="6.80015">
        <ele>1276.1999511719</ele>
        <time>2023-09-30T06:25:38.000Z</time>
      </trkpt>
      <trkpt lat="46.02256" lon="6.80016">
        <ele>1276.4000244141</ele>
        <time>2023-09-30T06:25:39.000Z</time>
      </trkpt>
      <trkpt lat="46.02256" lon="6.80017">
        <ele>1276.8000488281</ele>
        <time>2023-09-30T06:25:40.000Z</time>
      </trkpt>
      <trkpt lat="46.02255" lon="6.80019">
        <ele>1276.8000488281</ele>
        <time>2023-09-30T06:25:41.000Z</time>
      </trkpt>
      <trkpt lat="46.02255" lon="6.8002">
        <ele>1277</ele>
        <time>2023-09-30T06:25:42.000Z</time>
      </trkpt>
      <trkpt lat="46.02255" lon="6.8002">
        <ele>1277.4000244141</ele>
        <time>2023-09-30T06:25:43.000Z</time>
      </trkpt>
      <trkpt lat="46.02254" lon="6.80022">
        <ele>1277.4000244141</ele>
        <time>2023-09-30T06:25:44.000Z</time>
      </trkpt>
      <trkpt lat="46.02254" lon="6.80023">
        <ele>1277.5999755859</ele>
        <time>2023-09-30T06:25:45.000Z</time>
      </trkpt>
      <trkpt lat="46.02254" lon="6.80023">
        <ele>1277.8000488281</ele>
        <time>2023-09-30T06:25:46.000Z</time>
      </trkpt>
      <trkpt lat="46.02254" lon="6.80024">
        <ele>1277.8000488281</ele>
        <time>2023-09-30T06:25:47.000Z</time>
      </trkpt>
      <trkpt lat="46.02253" lon="6.80025">
        <ele>1277.8000488281</ele>
        <time>2023-09-30T06:25:48.000Z</time>
      </trkpt>
      <trkpt lat="46.02253" lon="6.80026">
        <ele>1278</ele>
        <time>2023-09-30T06:25:49.000Z</time>
      </trkpt>
      <trkpt lat="46.02253" lon="6.80028">
        <ele>1278.1999511719</ele>
        <time>2023-09-30T06:25:50.000Z</time>
      </trkpt>
      <trkpt lat="46.02253" lon="6.80029">
        <ele>1278.1999511719</ele>
        <time>2023-09-30T06:25:51.000Z</time>
      </trkpt>
      <trkpt lat="46.02253" lon="6.80031">
        <ele>1278.4000244141</ele>
        <time>2023-09-30T06:25:52.000Z</time>
      </trkpt>
      <trkpt lat="46.02253" lon="6.80032">
        <ele>1278.4000244141</ele>
        <time>2023-09-30T06:25:53.000Z</time>
      </trkpt>
      <trkpt lat="46.02253" lon="6.80033">
        <ele>1278.8000488281</ele>
        <time>2023-09-30T06:25:54.000Z</time>
      </trkpt>
      <trkpt lat="46.02253" lon="6.80033">
        <ele>1279</ele>
        <time>2023-09-30T06:25:55.000Z</time>
      </trkpt>
      <trkpt lat="46.02254" lon="6.80034">
        <ele>1279</ele>
        <time>2023-09-30T06:25:56.000Z</time>
      </trkpt>
      <trkpt lat="46.02254" lon="6.80035">
        <ele>1279.1999511719</ele>
        <time>2023-09-30T06:25:57.000Z</time>
      </trkpt>
      <trkpt lat="46.02254" lon="6.80036">
        <ele>1279.4000244141</ele>
        <time>2023-09-30T06:25:58.000Z</time>
      </trkpt>
      <trkpt lat="46.02254" lon="6.80038">
        <ele>1279.5999755859</ele>
        <time>2023-09-30T06:25:59.000Z</time>
      </trkpt>
      <trkpt lat="46.02255" lon="6.80039">
        <ele>1279.5999755859</ele>
        <time>2023-09-30T06:26:00.000Z</time>
      </trkpt>
      <trkpt lat="46.02255" lon="6.8004">
        <ele>1280</ele>
        <time>2023-09-30T06:26:01.000Z</time>
      </trkpt>
      <trkpt lat="46.02256" lon="6.80041">
        <ele>1280.1999511719</ele>
        <time>2023-09-30T06:26:02.000Z</time>
      </trkpt>
      <trkpt lat="46.02256" lon="6.80042">
        <ele>1280.4000244141</ele>
        <time>2023-09-30T06:26:03.000Z</time>
      </trkpt>
      <trkpt lat="46.02256" lon="6.80042">
        <ele>1280.5999755859</ele>
        <time>2023-09-30T06:26:04.000Z</time>
      </trkpt>
      <trkpt lat="46.02257" lon="6.80043">
        <ele>1280.8000488281</ele>
        <time>2023-09-30T06:26:05.000Z</time>
      </trkpt>
      <trkpt lat="46.02258" lon="6.80045">
        <ele>1281</ele>
        <time>2023-09-30T06:26:06.000Z</time>
      </trkpt>
      <trkpt lat="46.02258" lon="6.80045">
        <ele>1281</ele>
        <time>2023-09-30T06:26:07.000Z</time>
      </trkpt>
      <trkpt lat="46.02259" lon="6.80046">
        <ele>1281.1999511719</ele>
        <time>2023-09-30T06:26:08.000Z</time>
      </trkpt>
      <trkpt lat="46.0226" lon="6.80048">
        <ele>1281.4000244141</ele>
        <time>2023-09-30T06:26:09.000Z</time>
      </trkpt>
      <trkpt lat="46.0226" lon="6.8005">
        <ele>1281.4000244141</ele>
        <time>2023-09-30T06:26:10.000Z</time>
      </trkpt>
      <trkpt lat="46.02261" lon="6.80051">
        <ele>1281.5999755859</ele>
        <time>2023-09-30T06:26:11.000Z</time>
      </trkpt>
      <trkpt lat="46.02262" lon="6.80052">
        <ele>1281.8000488281</ele>
        <time>2023-09-30T06:26:12.000Z</time>
      </trkpt>
      <trkpt lat="46.02263" lon="6.80053">
        <ele>1281.8000488281</ele>
        <time>2023-09-30T06:26:13.000Z</time>
      </trkpt>
      <trkpt lat="46.02264" lon="6.80055">
        <ele>1282</ele>
        <time>2023-09-30T06:26:14.000Z</time>
      </trkpt>
      <trkpt lat="46.02264" lon="6.80056">
        <ele>1282.1999511719</ele>
        <time>2023-09-30T06:26:15.000Z</time>
      </trkpt>
      <trkpt lat="46.02265" lon="6.80057">
        <ele>1282.4000244141</ele>
        <time>2023-09-30T06:26:16.000Z</time>
      </trkpt>
      <trkpt lat="46.02266" lon="6.80058">
        <ele>1282.4000244141</ele>
        <time>2023-09-30T06:26:17.000Z</time>
      </trkpt>
      <trkpt lat="46.02266" lon="6.80059">
        <ele>1282.5999755859</ele>
        <time>2023-09-30T06:26:18.000Z</time>
      </trkpt>
      <trkpt lat="46.02266" lon="6.80059">
        <ele>1282.8000488281</ele>
        <time>2023-09-30T06:26:19.000Z</time>
      </trkpt>
      <trkpt lat="46.02266" lon="6.8006">
        <ele>1283.1999511719</ele>
        <time>2023-09-30T06:26:22.000Z</time>
      </trkpt>
      <trkpt lat="46.02266" lon="6.80062">
        <ele>1283.1999511719</ele>
        <time>2023-09-30T06:26:23.000Z</time>
      </trkpt>
      <trkpt lat="46.02266" lon="6.80063">
        <ele>1283.4000244141</ele>
        <time>2023-09-30T06:26:24.000Z</time>
      </trkpt>
      <trkpt lat="46.02267" lon="6.80065">
        <ele>1283.4000244141</ele>
        <time>2023-09-30T06:26:25.000Z</time>
      </trkpt>
      <trkpt lat="46.02268" lon="6.80067">
        <ele>1283.4000244141</ele>
        <time>2023-09-30T06:26:26.000Z</time>
      </trkpt>
      <trkpt lat="46.02269" lon="6.80069">
        <ele>1283.4000244141</ele>
        <time>2023-09-30T06:26:27.000Z</time>
      </trkpt>
      <trkpt lat="46.0227" lon="6.8007">
        <ele>1283.4000244141</ele>
        <time>2023-09-30T06:26:28.000Z</time>
      </trkpt>
      <trkpt lat="46.02273" lon="6.80073">
        <ele>1283.4000244141</ele>
        <time>2023-09-30T06:26:29.000Z</time>
      </trkpt>
      <trkpt lat="46.02275" lon="6.80077">
        <ele>1283.4000244141</ele>
        <time>2023-09-30T06:26:30.000Z</time>
      </trkpt>
      <trkpt lat="46.02275" lon="6.80082">
        <ele>1283.4000244141</ele>
        <time>2023-09-30T06:26:31.000Z</time>
      </trkpt>
      <trkpt lat="46.02275" lon="6.80088">
        <ele>1283.4000244141</ele>
        <time>2023-09-30T06:26:32.000Z</time>
      </trkpt>
      <trkpt lat="46.02273" lon="6.80093">
        <ele>1283.4000244141</ele>
        <time>2023-09-30T06:26:33.000Z</time>
      </trkpt>
      <trkpt lat="46.02271" lon="6.80098">
        <ele>1283.4000244141</ele>
        <time>2023-09-30T06:26:34.000Z</time>
      </trkpt>
      <trkpt lat="46.02269" lon="6.80102">
        <ele>1283.4000244141</ele>
        <time>2023-09-30T06:26:35.000Z</time>
      </trkpt>
      <trkpt lat="46.02267" lon="6.80107">
        <ele>1283.1999511719</ele>
        <time>2023-09-30T06:26:36.000Z</time>
      </trkpt>
      <trkpt lat="46.02262" lon="6.80121">
        <ele>1282.5999755859</ele>
        <time>2023-09-30T06:26:39.000Z</time>
      </trkpt>
      <trkpt lat="46.0226" lon="6.80135">
        <ele>1282.1999511719</ele>
        <time>2023-09-30T06:26:41.000Z</time>
      </trkpt>
      <trkpt lat="46.0226" lon="6.8014">
        <ele>1282</ele>
        <time>2023-09-30T06:26:42.000Z</time>
      </trkpt>
      <trkpt lat="46.0226" lon="6.80145">
        <ele>1281.5999755859</ele>
        <time>2023-09-30T06:26:43.000Z</time>
      </trkpt>
      <trkpt lat="46.0226" lon="6.80151">
        <ele>1281.4000244141</ele>
        <time>2023-09-30T06:26:44.000Z</time>
      </trkpt>
      <trkpt lat="46.0226" lon="6.80154">
        <ele>1281.4000244141</ele>
        <time>2023-09-30T06:26:45.000Z</time>
      </trkpt>
      <trkpt lat="46.02259" lon="6.80157">
        <ele>1280.8000488281</ele>
        <time>2023-09-30T06:26:46.000Z</time>
      </trkpt>
      <trkpt lat="46.02259" lon="6.80158">
        <ele>1280.4000244141</ele>
        <time>2023-09-30T06:26:47.000Z</time>
      </trkpt>
      <trkpt lat="46.02259" lon="6.80158">
        <ele>1279.8000488281</ele>
        <time>2023-09-30T06:26:50.000Z</time>
      </trkpt>
      <trkpt lat="46.02259" lon="6.80158">
        <ele>1279.5999755859</ele>
        <time>2023-09-30T06:26:53.000Z</time>
      </trkpt>
      <trkpt lat="46.02258" lon="6.80164">
        <ele>1279.4000244141</ele>
        <time>2023-09-30T06:26:57.000Z</time>
      </trkpt>
      <trkpt lat="46.02257" lon="6.80171">
        <ele>1279.4000244141</ele>
        <time>2023-09-30T06:26:59.000Z</time>
      </trkpt>
      <trkpt lat="46.02257" lon="6.80178">
        <ele>1279.4000244141</ele>
        <time>2023-09-30T06:27:01.000Z</time>
      </trkpt>
      <trkpt lat="46.02258" lon="6.80181">
        <ele>1279.4000244141</ele>
        <time>2023-09-30T06:27:02.000Z</time>
      </trkpt>
      <trkpt lat="46.02259" lon="6.80192">
        <ele>1279.1999511719</ele>
        <time>2023-09-30T06:27:06.000Z</time>
      </trkpt>
      <trkpt lat="46.02259" lon="6.80194">
        <ele>1279.1999511719</ele>
        <time>2023-09-30T06:27:07.000Z</time>
      </trkpt>
      <trkpt lat="46.0226" lon="6.80196">
        <ele>1279.1999511719</ele>
        <time>2023-09-30T06:27:08.000Z</time>
      </trkpt>
      <trkpt lat="46.0226" lon="6.80198">
        <ele>1279.1999511719</ele>
        <time>2023-09-30T06:27:09.000Z</time>
      </trkpt>
      <trkpt lat="46.0226" lon="6.802">
        <ele>1279.1999511719</ele>
        <time>2023-09-30T06:27:11.000Z</time>
      </trkpt>
      <trkpt lat="46.0226" lon="6.80201">
        <ele>1279.1999511719</ele>
        <time>2023-09-30T06:27:12.000Z</time>
      </trkpt>
      <trkpt lat="46.02259" lon="6.80202">
        <ele>1279.1999511719</ele>
        <time>2023-09-30T06:27:13.000Z</time>
      </trkpt>
      <trkpt lat="46.0226" lon="6.80203">
        <ele>1279.1999511719</ele>
        <time>2023-09-30T06:27:14.000Z</time>
      </trkpt>
      <trkpt lat="46.0226" lon="6.80204">
        <ele>1279.1999511719</ele>
        <time>2023-09-30T06:27:15.000Z</time>
      </trkpt>
      <trkpt lat="46.0226" lon="6.80205">
        <ele>1279.1999511719</ele>
        <time>2023-09-30T06:27:16.000Z</time>
      </trkpt>
      <trkpt lat="46.0226" lon="6.80206">
        <ele>1279.1999511719</ele>
        <time>2023-09-30T06:27:17.000Z</time>
      </trkpt>
      <trkpt lat="46.0226" lon="6.80209">
        <ele>1279.4000244141</ele>
        <time>2023-09-30T06:27:19.000Z</time>
      </trkpt>
      <trkpt lat="46.02261" lon="6.80218">
        <ele>1279.4000244141</ele>
        <time>2023-09-30T06:27:23.000Z</time>
      </trkpt>
      <trkpt lat="46.02261" lon="6.80224">
        <ele>1279.4000244141</ele>
        <time>2023-09-30T06:27:26.000Z</time>
      </trkpt>
      <trkpt lat="46.02261" lon="6.80226">
        <ele>1279.4000244141</ele>
        <time>2023-09-30T06:27:27.000Z</time>
      </trkpt>
      <trkpt lat="46.02261" lon="6.80235">
        <ele>1279.1999511719</ele>
        <time>2023-09-30T06:27:31.000Z</time>
      </trkpt>
      <trkpt lat="46.02261" lon="6.80237">
        <ele>1279.1999511719</ele>
        <time>2023-09-30T06:27:32.000Z</time>
      </trkpt>
      <trkpt lat="46.0226" lon="6.8026">
        <ele>1279.1999511719</ele>
        <time>2023-09-30T06:27:40.000Z</time>
      </trkpt>
      <trkpt lat="46.02258" lon="6.80272">
        <ele>1279.5999755859</ele>
        <time>2023-09-30T06:27:45.000Z</time>
      </trkpt>
      <trkpt lat="46.02258" lon="6.80274">
        <ele>1279.5999755859</ele>
        <time>2023-09-30T06:27:46.000Z</time>
      </trkpt>
      <trkpt lat="46.02258" lon="6.80277">
        <ele>1279.5999755859</ele>
        <time>2023-09-30T06:27:47.000Z</time>
      </trkpt>
      <trkpt lat="46.02258" lon="6.8028">
        <ele>1279.5999755859</ele>
        <time>2023-09-30T06:27:48.000Z</time>
      </trkpt>
      <trkpt lat="46.02258" lon="6.80282">
        <ele>1279.5999755859</ele>
        <time>2023-09-30T06:27:49.000Z</time>
      </trkpt>
      <trkpt lat="46.02258" lon="6.80284">
        <ele>1279.8000488281</ele>
        <time>2023-09-30T06:27:50.000Z</time>
      </trkpt>
      <trkpt lat="46.02259" lon="6.80286">
        <ele>1279.8000488281</ele>
        <time>2023-09-30T06:27:51.000Z</time>
      </trkpt>
      <trkpt lat="46.02259" lon="6.80287">
        <ele>1280</ele>
        <time>2023-09-30T06:27:52.000Z</time>
      </trkpt>
      <trkpt lat="46.0226" lon="6.8029">
        <ele>1280</ele>
        <time>2023-09-30T06:27:53.000Z</time>
      </trkpt>
      <trkpt lat="46.0226" lon="6.80293">
        <ele>1280.4000244141</ele>
        <time>2023-09-30T06:27:54.000Z</time>
      </trkpt>
      <trkpt lat="46.0226" lon="6.80295">
        <ele>1280.5999755859</ele>
        <time>2023-09-30T06:27:55.000Z</time>
      </trkpt>
      <trkpt lat="46.02261" lon="6.80298">
        <ele>1280.8000488281</ele>
        <time>2023-09-30T06:27:56.000Z</time>
      </trkpt>
      <trkpt lat="46.02261" lon="6.803">
        <ele>1280.8000488281</ele>
        <time>2023-09-30T06:27:57.000Z</time>
      </trkpt>
      <trkpt lat="46.02262" lon="6.80302">
        <ele>1281</ele>
        <time>2023-09-30T06:27:58.000Z</time>
      </trkpt>
      <trkpt lat="46.02262" lon="6.80303">
        <ele>1281.4000244141</ele>
        <time>2023-09-30T06:27:59.000Z</time>
      </trkpt>
      <trkpt lat="46.02263" lon="6.80305">
        <ele>1281.4000244141</ele>
        <time>2023-09-30T06:28:00.000Z</time>
      </trkpt>
      <trkpt lat="46.02264" lon="6.80307">
        <ele>1281.4000244141</ele>
        <time>2023-09-30T06:28:01.000Z</time>
      </trkpt>
      <trkpt lat="46.02265" lon="6.80309">
        <ele>1281.4000244141</ele>
        <time>2023-09-30T06:28:02.000Z</time>
      </trkpt>
      <trkpt lat="46.02265" lon="6.80312">
        <ele>1281.1999511719</ele>
        <time>2023-09-30T06:28:03.000Z</time>
      </trkpt>
      <trkpt lat="46.02266" lon="6.80313">
        <ele>1281</ele>
        <time>2023-09-30T06:28:04.000Z</time>
      </trkpt>
      <trkpt lat="46.02266" lon="6.80314">
        <ele>1281</ele>
        <time>2023-09-30T06:28:05.000Z</time>
      </trkpt>
      <trkpt lat="46.02267" lon="6.80316">
        <ele>1281</ele>
        <time>2023-09-30T06:28:06.000Z</time>
      </trkpt>
      <trkpt lat="46.02267" lon="6.80317">
        <ele>1281</ele>
        <time>2023-09-30T06:28:07.000Z</time>
      </trkpt>
      <trkpt lat="46.02267" lon="6.80318">
        <ele>1281</ele>
        <time>2023-09-30T06:28:08.000Z</time>
      </trkpt>
      <trkpt lat="46.02268" lon="6.80319">
        <ele>1281</ele>
        <time>2023-09-30T06:28:09.000Z</time>
      </trkpt>
      <trkpt lat="46.02267" lon="6.80328">
        <ele>1280.5999755859</ele>
        <time>2023-09-30T06:28:12.000Z</time>
      </trkpt>
      <trkpt lat="46.0227" lon="6.80338">
        <ele>1280.5999755859</ele>
        <time>2023-09-30T06:28:15.000Z</time>
      </trkpt>
      <trkpt lat="46.02272" lon="6.80345">
        <ele>1280.5999755859</ele>
        <time>2023-09-30T06:28:16.000Z</time>
      </trkpt>
      <trkpt lat="46.02273" lon="6.80351">
        <ele>1280.5999755859</ele>
        <time>2023-09-30T06:28:17.000Z</time>
      </trkpt>
      <trkpt lat="46.02278" lon="6.80364">
        <ele>1280.1999511719</ele>
        <time>2023-09-30T06:28:19.000Z</time>
      </trkpt>
      <trkpt lat="46.0228" lon="6.8037">
        <ele>1279.8000488281</ele>
        <time>2023-09-30T06:28:20.000Z</time>
      </trkpt>
      <trkpt lat="46.02281" lon="6.80376">
        <ele>1279.5999755859</ele>
        <time>2023-09-30T06:28:21.000Z</time>
      </trkpt>
      <trkpt lat="46.02282" lon="6.80391">
        <ele>1278.4000244141</ele>
        <time>2023-09-30T06:28:23.000Z</time>
      </trkpt>
      <trkpt lat="46.02282" lon="6.80399">
        <ele>1277.8000488281</ele>
        <time>2023-09-30T06:28:24.000Z</time>
      </trkpt>
      <trkpt lat="46.02282" lon="6.80408">
        <ele>1277.5999755859</ele>
        <time>2023-09-30T06:28:25.000Z</time>
      </trkpt>
      <trkpt lat="46.02282" lon="6.80418">
        <ele>1277.4000244141</ele>
        <time>2023-09-30T06:28:26.000Z</time>
      </trkpt>
      <trkpt lat="46.02283" lon="6.80427">
        <ele>1277.1999511719</ele>
        <time>2023-09-30T06:28:27.000Z</time>
      </trkpt>
      <trkpt lat="46.02284" lon="6.80433">
        <ele>1277.1999511719</ele>
        <time>2023-09-30T06:28:28.000Z</time>
      </trkpt>
      <trkpt lat="46.02285" lon="6.80438">
        <ele>1277</ele>
        <time>2023-09-30T06:28:29.000Z</time>
      </trkpt>
      <trkpt lat="46.02285" lon="6.80442">
        <ele>1277</ele>
        <time>2023-09-30T06:28:30.000Z</time>
      </trkpt>
      <trkpt lat="46.02285" lon="6.80445">
        <ele>1277</ele>
        <time>2023-09-30T06:28:31.000Z</time>
      </trkpt>
      <trkpt lat="46.02284" lon="6.80448">
        <ele>1277</ele>
        <time>2023-09-30T06:28:32.000Z</time>
      </trkpt>
      <trkpt lat="46.02283" lon="6.80451">
        <ele>1277</ele>
        <time>2023-09-30T06:28:33.000Z</time>
      </trkpt>
      <trkpt lat="46.02282" lon="6.80453">
        <ele>1277</ele>
        <time>2023-09-30T06:28:34.000Z</time>
      </trkpt>
      <trkpt lat="46.0228" lon="6.80455">
        <ele>1277</ele>
        <time>2023-09-30T06:28:35.000Z</time>
      </trkpt>
      <trkpt lat="46.02269" lon="6.80465">
        <ele>1276.8000488281</ele>
        <time>2023-09-30T06:28:40.000Z</time>
      </trkpt>
      <trkpt lat="46.02264" lon="6.80471">
        <ele>1276.8000488281</ele>
        <time>2023-09-30T06:28:42.000Z</time>
      </trkpt>
      <trkpt lat="46.02263" lon="6.80476">
        <ele>1276.8000488281</ele>
        <time>2023-09-30T06:28:43.000Z</time>
      </trkpt>
      <trkpt lat="46.02261" lon="6.80481">
        <ele>1276.8000488281</ele>
        <time>2023-09-30T06:28:44.000Z</time>
      </trkpt>
      <trkpt lat="46.02259" lon="6.80487">
        <ele>1276.5999755859</ele>
        <time>2023-09-30T06:28:45.000Z</time>
      </trkpt>
      <trkpt lat="46.02258" lon="6.80493">
        <ele>1276.5999755859</ele>
        <time>2023-09-30T06:28:46.000Z</time>
      </trkpt>
      <trkpt lat="46.02259" lon="6.80499">
        <ele>1276.4000244141</ele>
        <time>2023-09-30T06:28:47.000Z</time>
      </trkpt>
      <trkpt lat="46.02258" lon="6.80507">
        <ele>1276.4000244141</ele>
        <time>2023-09-30T06:28:48.000Z</time>
      </trkpt>
      <trkpt lat="46.02259" lon="6.80514">
        <ele>1276.1999511719</ele>
        <time>2023-09-30T06:28:49.000Z</time>
      </trkpt>
      <trkpt lat="46.0226" lon="6.8052">
        <ele>1275.8000488281</ele>
        <time>2023-09-30T06:28:50.000Z</time>
      </trkpt>
      <trkpt lat="46.02261" lon="6.80523">
        <ele>1275.5999755859</ele>
        <time>2023-09-30T06:28:51.000Z</time>
      </trkpt>
      <trkpt lat="46.02261" lon="6.80526">
        <ele>1275.4000244141</ele>
        <time>2023-09-30T06:28:52.000Z</time>
      </trkpt>
      <trkpt lat="46.02261" lon="6.80529">
        <ele>1275.4000244141</ele>
        <time>2023-09-30T06:28:53.000Z</time>
      </trkpt>
      <trkpt lat="46.02261" lon="6.80531">
        <ele>1275.1999511719</ele>
        <time>2023-09-30T06:28:54.000Z</time>
      </trkpt>
      <trkpt lat="46.02261" lon="6.80535">
        <ele>1275.1999511719</ele>
        <time>2023-09-30T06:28:55.000Z</time>
      </trkpt>
      <trkpt lat="46.0226" lon="6.80548">
        <ele>1275.5999755859</ele>
        <time>2023-09-30T06:28:59.000Z</time>
      </trkpt>
      <trkpt lat="46.02253" lon="6.80562">
        <ele>1275.1999511719</ele>
        <time>2023-09-30T06:29:02.000Z</time>
      </trkpt>
      <trkpt lat="46.0225" lon="6.80565">
        <ele>1275.1999511719</ele>
        <time>2023-09-30T06:29:03.000Z</time>
      </trkpt>
      <trkpt lat="46.02247" lon="6.80568">
        <ele>1275.1999511719</ele>
        <time>2023-09-30T06:29:04.000Z</time>
      </trkpt>
      <trkpt lat="46.02245" lon="6.80571">
        <ele>1275.1999511719</ele>
        <time>2023-09-30T06:29:05.000Z</time>
      </trkpt>
      <trkpt lat="46.02243" lon="6.80573">
        <ele>1275</ele>
        <time>2023-09-30T06:29:06.000Z</time>
      </trkpt>
      <trkpt lat="46.02242" lon="6.80576">
        <ele>1275</ele>
        <time>2023-09-30T06:29:07.000Z</time>
      </trkpt>
      <trkpt lat="46.02241" lon="6.80579">
        <ele>1275</ele>
        <time>2023-09-30T06:29:08.000Z</time>
      </trkpt>
      <trkpt lat="46.02239" lon="6.80582">
        <ele>1275</ele>
        <time>2023-09-30T06:29:09.000Z</time>
      </trkpt>
      <trkpt lat="46.02238" lon="6.80585">
        <ele>1275</ele>
        <time>2023-09-30T06:29:10.000Z</time>
      </trkpt>
      <trkpt lat="46.02238" lon="6.80587">
        <ele>1275</ele>
        <time>2023-09-30T06:29:11.000Z</time>
      </trkpt>
      <trkpt lat="46.02236" lon="6.80598">
        <ele>1275.1999511719</ele>
        <time>2023-09-30T06:29:14.000Z</time>
      </trkpt>
      <trkpt lat="46.02235" lon="6.80602">
        <ele>1275.1999511719</ele>
        <time>2023-09-30T06:29:15.000Z</time>
      </trkpt>
      <trkpt lat="46.02235" lon="6.80605">
        <ele>1275.1999511719</ele>
        <time>2023-09-30T06:29:16.000Z</time>
      </trkpt>
      <trkpt lat="46.02234" lon="6.80608">
        <ele>1275.1999511719</ele>
        <time>2023-09-30T06:29:17.000Z</time>
      </trkpt>
      <trkpt lat="46.02233" lon="6.8061">
        <ele>1275.1999511719</ele>
        <time>2023-09-30T06:29:18.000Z</time>
      </trkpt>
      <trkpt lat="46.02232" lon="6.80613">
        <ele>1275.4000244141</ele>
        <time>2023-09-30T06:29:19.000Z</time>
      </trkpt>
      <trkpt lat="46.02231" lon="6.80615">
        <ele>1275.4000244141</ele>
        <time>2023-09-30T06:29:20.000Z</time>
      </trkpt>
      <trkpt lat="46.0223" lon="6.80618">
        <ele>1275.4000244141</ele>
        <time>2023-09-30T06:29:21.000Z</time>
      </trkpt>
      <trkpt lat="46.0223" lon="6.80622">
        <ele>1275.4000244141</ele>
        <time>2023-09-30T06:29:22.000Z</time>
      </trkpt>
      <trkpt lat="46.02229" lon="6.80627">
        <ele>1275.4000244141</ele>
        <time>2023-09-30T06:29:24.000Z</time>
      </trkpt>
      <trkpt lat="46.02228" lon="6.8063">
        <ele>1275.4000244141</ele>
        <time>2023-09-30T06:29:25.000Z</time>
      </trkpt>
      <trkpt lat="46.02228" lon="6.80634">
        <ele>1275.5999755859</ele>
        <time>2023-09-30T06:29:26.000Z</time>
      </trkpt>
      <trkpt lat="46.02227" lon="6.80637">
        <ele>1275.5999755859</ele>
        <time>2023-09-30T06:29:27.000Z</time>
      </trkpt>
      <trkpt lat="46.02227" lon="6.8064">
        <ele>1275.8000488281</ele>
        <time>2023-09-30T06:29:28.000Z</time>
      </trkpt>
      <trkpt lat="46.02227" lon="6.80642">
        <ele>1276</ele>
        <time>2023-09-30T06:29:29.000Z</time>
      </trkpt>
      <trkpt lat="46.02228" lon="6.80645">
        <ele>1276.1999511719</ele>
        <time>2023-09-30T06:29:30.000Z</time>
      </trkpt>
      <trkpt lat="46.02228" lon="6.80647">
        <ele>1276.1999511719</ele>
        <time>2023-09-30T06:29:31.000Z</time>
      </trkpt>
      <trkpt lat="46.02229" lon="6.8065">
        <ele>1276.4000244141</ele>
        <time>2023-09-30T06:29:32.000Z</time>
      </trkpt>
      <trkpt lat="46.0223" lon="6.80652">
        <ele>1276.1999511719</ele>
        <time>2023-09-30T06:29:33.000Z</time>
      </trkpt>
      <trkpt lat="46.02232" lon="6.80657">
        <ele>1276.5999755859</ele>
        <time>2023-09-30T06:29:35.000Z</time>
      </trkpt>
      <trkpt lat="46.02233" lon="6.80659">
        <ele>1276.5999755859</ele>
        <time>2023-09-30T06:29:36.000Z</time>
      </trkpt>
      <trkpt lat="46.02235" lon="6.8066">
        <ele>1276.8000488281</ele>
        <time>2023-09-30T06:29:37.000Z</time>
      </trkpt>
      <trkpt lat="46.02236" lon="6.80662">
        <ele>1277</ele>
        <time>2023-09-30T06:29:38.000Z</time>
      </trkpt>
      <trkpt lat="46.02239" lon="6.80666">
        <ele>1277.1999511719</ele>
        <time>2023-09-30T06:29:40.000Z</time>
      </trkpt>
      <trkpt lat="46.02239" lon="6.80669">
        <ele>1277.4000244141</ele>
        <time>2023-09-30T06:29:41.000Z</time>
      </trkpt>
      <trkpt lat="46.0224" lon="6.80672">
        <ele>1277.4000244141</ele>
        <time>2023-09-30T06:29:42.000Z</time>
      </trkpt>
      <trkpt lat="46.0224" lon="6.80674">
        <ele>1277.4000244141</ele>
        <time>2023-09-30T06:29:43.000Z</time>
      </trkpt>
      <trkpt lat="46.0224" lon="6.80677">
        <ele>1277.5999755859</ele>
        <time>2023-09-30T06:29:44.000Z</time>
      </trkpt>
      <trkpt lat="46.0224" lon="6.80679">
        <ele>1277.5999755859</ele>
        <time>2023-09-30T06:29:45.000Z</time>
      </trkpt>
      <trkpt lat="46.0224" lon="6.80682">
        <ele>1277.8000488281</ele>
        <time>2023-09-30T06:29:46.000Z</time>
      </trkpt>
      <trkpt lat="46.0224" lon="6.80685">
        <ele>1277.8000488281</ele>
        <time>2023-09-30T06:29:48.000Z</time>
      </trkpt>
      <trkpt lat="46.0224" lon="6.80687">
        <ele>1277.8000488281</ele>
        <time>2023-09-30T06:29:49.000Z</time>
      </trkpt>
      <trkpt lat="46.0224" lon="6.80689">
        <ele>1277.8000488281</ele>
        <time>2023-09-30T06:29:50.000Z</time>
      </trkpt>
      <trkpt lat="46.0224" lon="6.80689">
        <ele>1277.8000488281</ele>
        <time>2023-09-30T06:29:51.000Z</time>
      </trkpt>
      <trkpt lat="46.0224" lon="6.80689">
        <ele>1278</ele>
        <time>2023-09-30T06:29:55.000Z</time>
      </trkpt>
      <trkpt lat="46.02238" lon="6.8069">
        <ele>1278</ele>
        <time>2023-09-30T06:30:15.000Z</time>
      </trkpt>
      <trkpt lat="46.02238" lon="6.80692">
        <ele>1278.4000244141</ele>
        <time>2023-09-30T06:30:28.000Z</time>
      </trkpt>
      <trkpt lat="46.02237" lon="6.807">
        <ele>1278.4000244141</ele>
        <time>2023-09-30T06:30:31.000Z</time>
      </trkpt>
      <trkpt lat="46.02236" lon="6.80702">
        <ele>1278.5999755859</ele>
        <time>2023-09-30T06:30:32.000Z</time>
      </trkpt>
      <trkpt lat="46.02236" lon="6.80704">
        <ele>1278.5999755859</ele>
        <time>2023-09-30T06:30:33.000Z</time>
      </trkpt>
      <trkpt lat="46.02233" lon="6.8071">
        <ele>1278.8000488281</ele>
        <time>2023-09-30T06:30:36.000Z</time>
      </trkpt>
      <trkpt lat="46.02232" lon="6.80711">
        <ele>1278.8000488281</ele>
        <time>2023-09-30T06:30:37.000Z</time>
      </trkpt>
      <trkpt lat="46.02231" lon="6.80713">
        <ele>1278.8000488281</ele>
        <time>2023-09-30T06:30:39.000Z</time>
      </trkpt>
      <trkpt lat="46.02231" lon="6.80713">
        <ele>1279</ele>
        <time>2023-09-30T06:30:43.000Z</time>
      </trkpt>
      <trkpt lat="46.0223" lon="6.80713">
        <ele>1279.4000244141</ele>
        <time>2023-09-30T06:30:47.000Z</time>
      </trkpt>
      <trkpt lat="46.0223" lon="6.80713">
        <ele>1279.4000244141</ele>
        <time>2023-09-30T06:30:53.000Z</time>
      </trkpt>
      <trkpt lat="46.0223" lon="6.80714">
        <ele>1279.1999511719</ele>
        <time>2023-09-30T06:31:09.000Z</time>
      </trkpt>
      <trkpt lat="46.02223" lon="6.80713">
        <ele>1279.4000244141</ele>
        <time>2023-09-30T06:31:13.000Z</time>
      </trkpt>
      <trkpt lat="46.02222" lon="6.80712">
        <ele>1279.4000244141</ele>
        <time>2023-09-30T06:31:14.000Z</time>
      </trkpt>
      <trkpt lat="46.02221" lon="6.8071">
        <ele>1279.8000488281</ele>
        <time>2023-09-30T06:31:15.000Z</time>
      </trkpt>
      <trkpt lat="46.0222" lon="6.80709">
        <ele>1279.8000488281</ele>
        <time>2023-09-30T06:31:16.000Z</time>
      </trkpt>
      <trkpt lat="46.02218" lon="6.80708">
        <ele>1280</ele>
        <time>2023-09-30T06:31:17.000Z</time>
      </trkpt>
      <trkpt lat="46.02216" lon="6.80708">
        <ele>1280.1999511719</ele>
        <time>2023-09-30T06:31:18.000Z</time>
      </trkpt>
      <trkpt lat="46.02214" lon="6.80708">
        <ele>1280.1999511719</ele>
        <time>2023-09-30T06:31:19.000Z</time>
      </trkpt>
      <trkpt lat="46.02213" lon="6.80708">
        <ele>1280.5999755859</ele>
        <time>2023-09-30T06:31:20.000Z</time>
      </trkpt>
      <trkpt lat="46.02212" lon="6.80708">
        <ele>1280.8000488281</ele>
        <time>2023-09-30T06:31:21.000Z</time>
      </trkpt>
      <trkpt lat="46.02209" lon="6.80708">
        <ele>1281.1999511719</ele>
        <time>2023-09-30T06:31:23.000Z</time>
      </trkpt>
      <trkpt lat="46.02207" lon="6.80709">
        <ele>1281.5999755859</ele>
        <time>2023-09-30T06:31:24.000Z</time>
      </trkpt>
      <trkpt lat="46.02205" lon="6.80711">
        <ele>1282</ele>
        <time>2023-09-30T06:31:26.000Z</time>
      </trkpt>
      <trkpt lat="46.02204" lon="6.80711">
        <ele>1282.1999511719</ele>
        <time>2023-09-30T06:31:27.000Z</time>
      </trkpt>
      <trkpt lat="46.02203" lon="6.80713">
        <ele>1282.1999511719</ele>
        <time>2023-09-30T06:31:28.000Z</time>
      </trkpt>
      <trkpt lat="46.02202" lon="6.80714">
        <ele>1282.4000244141</ele>
        <time>2023-09-30T06:31:29.000Z</time>
      </trkpt>
      <trkpt lat="46.02202" lon="6.80715">
        <ele>1282.4000244141</ele>
        <time>2023-09-30T06:31:30.000Z</time>
      </trkpt>
      <trkpt lat="46.02201" lon="6.80716">
        <ele>1282.5999755859</ele>
        <time>2023-09-30T06:31:31.000Z</time>
      </trkpt>
      <trkpt lat="46.02201" lon="6.80718">
        <ele>1282.8000488281</ele>
        <time>2023-09-30T06:31:32.000Z</time>
      </trkpt>
      <trkpt lat="46.022" lon="6.80719">
        <ele>1283</ele>
        <time>2023-09-30T06:31:33.000Z</time>
      </trkpt>
      <trkpt lat="46.022" lon="6.80721">
        <ele>1283.1999511719</ele>
        <time>2023-09-30T06:31:34.000Z</time>
      </trkpt>
      <trkpt lat="46.02199" lon="6.80722">
        <ele>1283.4000244141</ele>
        <time>2023-09-30T06:31:35.000Z</time>
      </trkpt>
      <trkpt lat="46.02198" lon="6.80724">
        <ele>1283.5999755859</ele>
        <time>2023-09-30T06:31:36.000Z</time>
      </trkpt>
      <trkpt lat="46.02197" lon="6.80725">
        <ele>1283.8000488281</ele>
        <time>2023-09-30T06:31:37.000Z</time>
      </trkpt>
      <trkpt lat="46.02197" lon="6.80727">
        <ele>1284</ele>
        <time>2023-09-30T06:31:38.000Z</time>
      </trkpt>
      <trkpt lat="46.02196" lon="6.80728">
        <ele>1284.1999511719</ele>
        <time>2023-09-30T06:31:39.000Z</time>
      </trkpt>
      <trkpt lat="46.02195" lon="6.80729">
        <ele>1284.1999511719</ele>
        <time>2023-09-30T06:31:40.000Z</time>
      </trkpt>
      <trkpt lat="46.02194" lon="6.8073">
        <ele>1284.4000244141</ele>
        <time>2023-09-30T06:31:41.000Z</time>
      </trkpt>
      <trkpt lat="46.02193" lon="6.80731">
        <ele>1285</ele>
        <time>2023-09-30T06:31:42.000Z</time>
      </trkpt>
      <trkpt lat="46.02192" lon="6.80732">
        <ele>1285.8000488281</ele>
        <time>2023-09-30T06:31:43.000Z</time>
      </trkpt>
      <trkpt lat="46.02191" lon="6.80733">
        <ele>1286</ele>
        <time>2023-09-30T06:31:44.000Z</time>
      </trkpt>
      <trkpt lat="46.0219" lon="6.80735">
        <ele>1286.1999511719</ele>
        <time>2023-09-30T06:31:45.000Z</time>
      </trkpt>
      <trkpt lat="46.0219" lon="6.80735">
        <ele>1286.4000244141</ele>
        <time>2023-09-30T06:31:46.000Z</time>
      </trkpt>
      <trkpt lat="46.02188" lon="6.80736">
        <ele>1286.4000244141</ele>
        <time>2023-09-30T06:31:47.000Z</time>
      </trkpt>
      <trkpt lat="46.02187" lon="6.80737">
        <ele>1286.8000488281</ele>
        <time>2023-09-30T06:31:48.000Z</time>
      </trkpt>
      <trkpt lat="46.02186" lon="6.80738">
        <ele>1287</ele>
        <time>2023-09-30T06:31:49.000Z</time>
      </trkpt>
      <trkpt lat="46.02184" lon="6.80739">
        <ele>1287.1999511719</ele>
        <time>2023-09-30T06:31:50.000Z</time>
      </trkpt>
      <trkpt lat="46.02183" lon="6.8074">
        <ele>1287.4000244141</ele>
        <time>2023-09-30T06:31:51.000Z</time>
      </trkpt>
      <trkpt lat="46.02182" lon="6.8074">
        <ele>1287.8000488281</ele>
        <time>2023-09-30T06:31:52.000Z</time>
      </trkpt>
      <trkpt lat="46.02181" lon="6.8074">
        <ele>1288</ele>
        <time>2023-09-30T06:31:53.000Z</time>
      </trkpt>
      <trkpt lat="46.02179" lon="6.80741">
        <ele>1288.1999511719</ele>
        <time>2023-09-30T06:31:54.000Z</time>
      </trkpt>
      <trkpt lat="46.02178" lon="6.80742">
        <ele>1288.1999511719</ele>
        <time>2023-09-30T06:31:55.000Z</time>
      </trkpt>
      <trkpt lat="46.02177" lon="6.80743">
        <ele>1288.1999511719</ele>
        <time>2023-09-30T06:31:56.000Z</time>
      </trkpt>
      <trkpt lat="46.02175" lon="6.80744">
        <ele>1288.4000244141</ele>
        <time>2023-09-30T06:31:57.000Z</time>
      </trkpt>
      <trkpt lat="46.02174" lon="6.80745">
        <ele>1288.5999755859</ele>
        <time>2023-09-30T06:31:58.000Z</time>
      </trkpt>
      <trkpt lat="46.02173" lon="6.80746">
        <ele>1289</ele>
        <time>2023-09-30T06:31:59.000Z</time>
      </trkpt>
      <trkpt lat="46.02171" lon="6.80747">
        <ele>1289.4000244141</ele>
        <time>2023-09-30T06:32:00.000Z</time>
      </trkpt>
      <trkpt lat="46.0217" lon="6.80747">
        <ele>1289.5999755859</ele>
        <time>2023-09-30T06:32:01.000Z</time>
      </trkpt>
      <trkpt lat="46.02168" lon="6.80747">
        <ele>1289.5999755859</ele>
        <time>2023-09-30T06:32:02.000Z</time>
      </trkpt>
      <trkpt lat="46.02166" lon="6.80747">
        <ele>1289.8000488281</ele>
        <time>2023-09-30T06:32:03.000Z</time>
      </trkpt>
      <trkpt lat="46.02165" lon="6.80748">
        <ele>1290</ele>
        <time>2023-09-30T06:32:04.000Z</time>
      </trkpt>
      <trkpt lat="46.02163" lon="6.80746">
        <ele>1290.1999511719</ele>
        <time>2023-09-30T06:32:05.000Z</time>
      </trkpt>
      <trkpt lat="46.02161" lon="6.80747">
        <ele>1290.4000244141</ele>
        <time>2023-09-30T06:32:06.000Z</time>
      </trkpt>
      <trkpt lat="46.0216" lon="6.80748">
        <ele>1290.4000244141</ele>
        <time>2023-09-30T06:32:07.000Z</time>
      </trkpt>
      <trkpt lat="46.02158" lon="6.80745">
        <ele>1290.5999755859</ele>
        <time>2023-09-30T06:32:08.000Z</time>
      </trkpt>
      <trkpt lat="46.02157" lon="6.80744">
        <ele>1290.5999755859</ele>
        <time>2023-09-30T06:32:09.000Z</time>
      </trkpt>
      <trkpt lat="46.02156" lon="6.80744">
        <ele>1290.5999755859</ele>
        <time>2023-09-30T06:32:10.000Z</time>
      </trkpt>
      <trkpt lat="46.02155" lon="6.80744">
        <ele>1290.8000488281</ele>
        <time>2023-09-30T06:32:11.000Z</time>
      </trkpt>
      <trkpt lat="46.02154" lon="6.80743">
        <ele>1291</ele>
        <time>2023-09-30T06:32:12.000Z</time>
      </trkpt>
      <trkpt lat="46.02152" lon="6.80743">
        <ele>1291.1999511719</ele>
        <time>2023-09-30T06:32:13.000Z</time>
      </trkpt>
      <trkpt lat="46.02151" lon="6.80744">
        <ele>1291.5999755859</ele>
        <time>2023-09-30T06:32:14.000Z</time>
      </trkpt>
      <trkpt lat="46.0215" lon="6.80745">
        <ele>1291.5999755859</ele>
        <time>2023-09-30T06:32:15.000Z</time>
      </trkpt>
      <trkpt lat="46.02149" lon="6.80745">
        <ele>1291.8000488281</ele>
        <time>2023-09-30T06:32:16.000Z</time>
      </trkpt>
      <trkpt lat="46.02148" lon="6.80746">
        <ele>1291.8000488281</ele>
        <time>2023-09-30T06:32:17.000Z</time>
      </trkpt>
      <trkpt lat="46.02147" lon="6.80746">
        <ele>1292.1999511719</ele>
        <time>2023-09-30T06:32:18.000Z</time>
      </trkpt>
      <trkpt lat="46.02147" lon="6.80746">
        <ele>1292.4000244141</ele>
        <time>2023-09-30T06:32:19.000Z</time>
      </trkpt>
      <trkpt lat="46.02146" lon="6.80747">
        <ele>1292.4000244141</ele>
        <time>2023-09-30T06:32:20.000Z</time>
      </trkpt>
      <trkpt lat="46.02145" lon="6.80748">
        <ele>1292.5999755859</ele>
        <time>2023-09-30T06:32:21.000Z</time>
      </trkpt>
      <trkpt lat="46.02144" lon="6.80749">
        <ele>1292.8000488281</ele>
        <time>2023-09-30T06:32:22.000Z</time>
      </trkpt>
      <trkpt lat="46.02144" lon="6.8075">
        <ele>1293.1999511719</ele>
        <time>2023-09-30T06:32:23.000Z</time>
      </trkpt>
      <trkpt lat="46.02143" lon="6.80751">
        <ele>1293.4000244141</ele>
        <time>2023-09-30T06:32:24.000Z</time>
      </trkpt>
      <trkpt lat="46.02142" lon="6.80751">
        <ele>1293.5999755859</ele>
        <time>2023-09-30T06:32:25.000Z</time>
      </trkpt>
      <trkpt lat="46.02141" lon="6.80753">
        <ele>1293.8000488281</ele>
        <time>2023-09-30T06:32:26.000Z</time>
      </trkpt>
      <trkpt lat="46.02141" lon="6.80754">
        <ele>1293.8000488281</ele>
        <time>2023-09-30T06:32:27.000Z</time>
      </trkpt>
      <trkpt lat="46.0214" lon="6.80754">
        <ele>1294</ele>
        <time>2023-09-30T06:32:28.000Z</time>
      </trkpt>
      <trkpt lat="46.02139" lon="6.80755">
        <ele>1294.1999511719</ele>
        <time>2023-09-30T06:32:29.000Z</time>
      </trkpt>
      <trkpt lat="46.02137" lon="6.80755">
        <ele>1294.4000244141</ele>
        <time>2023-09-30T06:32:30.000Z</time>
      </trkpt>
      <trkpt lat="46.02137" lon="6.80757">
        <ele>1294.5999755859</ele>
        <time>2023-09-30T06:32:31.000Z</time>
      </trkpt>
      <trkpt lat="46.02136" lon="6.80757">
        <ele>1294.5999755859</ele>
        <time>2023-09-30T06:32:32.000Z</time>
      </trkpt>
      <trkpt lat="46.02135" lon="6.80756">
        <ele>1294.8000488281</ele>
        <time>2023-09-30T06:32:33.000Z</time>
      </trkpt>
      <trkpt lat="46.02134" lon="6.80756">
        <ele>1294.8000488281</ele>
        <time>2023-09-30T06:32:34.000Z</time>
      </trkpt>
      <trkpt lat="46.02132" lon="6.80757">
        <ele>1294.8000488281</ele>
        <time>2023-09-30T06:32:35.000Z</time>
      </trkpt>
      <trkpt lat="46.02132" lon="6.80757">
        <ele>1294.8000488281</ele>
        <time>2023-09-30T06:32:36.000Z</time>
      </trkpt>
      <trkpt lat="46.02132" lon="6.80757">
        <ele>1295</ele>
        <time>2023-09-30T06:32:37.000Z</time>
      </trkpt>
      <trkpt lat="46.02133" lon="6.80758">
        <ele>1295</ele>
        <time>2023-09-30T06:32:38.000Z</time>
      </trkpt>
      <trkpt lat="46.02134" lon="6.80757">
        <ele>1295.1999511719</ele>
        <time>2023-09-30T06:32:39.000Z</time>
      </trkpt>
      <trkpt lat="46.02135" lon="6.80757">
        <ele>1295.1999511719</ele>
        <time>2023-09-30T06:32:40.000Z</time>
      </trkpt>
      <trkpt lat="46.02135" lon="6.80757">
        <ele>1295.1999511719</ele>
        <time>2023-09-30T06:32:41.000Z</time>
      </trkpt>
      <trkpt lat="46.02136" lon="6.80757">
        <ele>1295.4000244141</ele>
        <time>2023-09-30T06:32:42.000Z</time>
      </trkpt>
      <trkpt lat="46.02137" lon="6.80758">
        <ele>1295.4000244141</ele>
        <time>2023-09-30T06:32:43.000Z</time>
      </trkpt>
      <trkpt lat="46.02138" lon="6.80758">
        <ele>1295.5999755859</ele>
        <time>2023-09-30T06:32:44.000Z</time>
      </trkpt>
      <trkpt lat="46.02139" lon="6.8076">
        <ele>1295.5999755859</ele>
        <time>2023-09-30T06:32:45.000Z</time>
      </trkpt>
      <trkpt lat="46.0214" lon="6.8076">
        <ele>1295.8000488281</ele>
        <time>2023-09-30T06:32:46.000Z</time>
      </trkpt>
      <trkpt lat="46.02141" lon="6.8076">
        <ele>1295.8000488281</ele>
        <time>2023-09-30T06:32:47.000Z</time>
      </trkpt>
      <trkpt lat="46.02142" lon="6.8076">
        <ele>1296</ele>
        <time>2023-09-30T06:32:48.000Z</time>
      </trkpt>
      <trkpt lat="46.02143" lon="6.8076">
        <ele>1296.1999511719</ele>
        <time>2023-09-30T06:32:49.000Z</time>
      </trkpt>
      <trkpt lat="46.02145" lon="6.8076">
        <ele>1296.1999511719</ele>
        <time>2023-09-30T06:32:50.000Z</time>
      </trkpt>
      <trkpt lat="46.02146" lon="6.80761">
        <ele>1296.4000244141</ele>
        <time>2023-09-30T06:32:51.000Z</time>
      </trkpt>
      <trkpt lat="46.02147" lon="6.80763">
        <ele>1296.4000244141</ele>
        <time>2023-09-30T06:32:52.000Z</time>
      </trkpt>
      <trkpt lat="46.02149" lon="6.80764">
        <ele>1296.5999755859</ele>
        <time>2023-09-30T06:32:53.000Z</time>
      </trkpt>
      <trkpt lat="46.0215" lon="6.80764">
        <ele>1297</ele>
        <time>2023-09-30T06:32:54.000Z</time>
      </trkpt>
      <trkpt lat="46.02152" lon="6.80764">
        <ele>1297.4000244141</ele>
        <time>2023-09-30T06:32:55.000Z</time>
      </trkpt>
      <trkpt lat="46.02154" lon="6.80764">
        <ele>1298</ele>
        <time>2023-09-30T06:32:56.000Z</time>
      </trkpt>
      <trkpt lat="46.02155" lon="6.80765">
        <ele>1298.1999511719</ele>
        <time>2023-09-30T06:32:57.000Z</time>
      </trkpt>
      <trkpt lat="46.02156" lon="6.80765">
        <ele>1298.4000244141</ele>
        <time>2023-09-30T06:32:58.000Z</time>
      </trkpt>
      <trkpt lat="46.02157" lon="6.80765">
        <ele>1298.5999755859</ele>
        <time>2023-09-30T06:32:59.000Z</time>
      </trkpt>
      <trkpt lat="46.02159" lon="6.80766">
        <ele>1298.5999755859</ele>
        <time>2023-09-30T06:33:00.000Z</time>
      </trkpt>
      <trkpt lat="46.02161" lon="6.80767">
        <ele>1298.5999755859</ele>
        <time>2023-09-30T06:33:01.000Z</time>
      </trkpt>
      <trkpt lat="46.02163" lon="6.80767">
        <ele>1298.5999755859</ele>
        <time>2023-09-30T06:33:02.000Z</time>
      </trkpt>
      <trkpt lat="46.02164" lon="6.80767">
        <ele>1298.5999755859</ele>
        <time>2023-09-30T06:33:03.000Z</time>
      </trkpt>
      <trkpt lat="46.02166" lon="6.80767">
        <ele>1298.5999755859</ele>
        <time>2023-09-30T06:33:04.000Z</time>
      </trkpt>
      <trkpt lat="46.02166" lon="6.80768">
        <ele>1298.8000488281</ele>
        <time>2023-09-30T06:33:05.000Z</time>
      </trkpt>
      <trkpt lat="46.02167" lon="6.80769">
        <ele>1298.8000488281</ele>
        <time>2023-09-30T06:33:06.000Z</time>
      </trkpt>
      <trkpt lat="46.02167" lon="6.80771">
        <ele>1299</ele>
        <time>2023-09-30T06:33:07.000Z</time>
      </trkpt>
      <trkpt lat="46.02167" lon="6.80771">
        <ele>1299</ele>
        <time>2023-09-30T06:33:08.000Z</time>
      </trkpt>
      <trkpt lat="46.02166" lon="6.80773">
        <ele>1299</ele>
        <time>2023-09-30T06:33:09.000Z</time>
      </trkpt>
      <trkpt lat="46.02165" lon="6.80773">
        <ele>1299.1999511719</ele>
        <time>2023-09-30T06:33:10.000Z</time>
      </trkpt>
      <trkpt lat="46.02164" lon="6.80774">
        <ele>1299.1999511719</ele>
        <time>2023-09-30T06:33:11.000Z</time>
      </trkpt>
      <trkpt lat="46.02164" lon="6.80775">
        <ele>1299.1999511719</ele>
        <time>2023-09-30T06:33:12.000Z</time>
      </trkpt>
      <trkpt lat="46.02163" lon="6.80776">
        <ele>1299.5999755859</ele>
        <time>2023-09-30T06:33:13.000Z</time>
      </trkpt>
      <trkpt lat="46.02162" lon="6.80776">
        <ele>1299.5999755859</ele>
        <time>2023-09-30T06:33:14.000Z</time>
      </trkpt>
      <trkpt lat="46.02161" lon="6.80777">
        <ele>1299.8000488281</ele>
        <time>2023-09-30T06:33:15.000Z</time>
      </trkpt>
      <trkpt lat="46.02161" lon="6.80776">
        <ele>1300.1999511719</ele>
        <time>2023-09-30T06:33:16.000Z</time>
      </trkpt>
      <trkpt lat="46.0216" lon="6.80775">
        <ele>1300.1999511719</ele>
        <time>2023-09-30T06:33:17.000Z</time>
      </trkpt>
      <trkpt lat="46.02159" lon="6.80775">
        <ele>1300.4000244141</ele>
        <time>2023-09-30T06:33:18.000Z</time>
      </trkpt>
      <trkpt lat="46.02158" lon="6.80774">
        <ele>1300.8000488281</ele>
        <time>2023-09-30T06:33:19.000Z</time>
      </trkpt>
      <trkpt lat="46.02157" lon="6.80774">
        <ele>1300.8000488281</ele>
        <time>2023-09-30T06:33:20.000Z</time>
      </trkpt>
      <trkpt lat="46.02156" lon="6.80774">
        <ele>1301.1999511719</ele>
        <time>2023-09-30T06:33:21.000Z</time>
      </trkpt>
      <trkpt lat="46.02155" lon="6.80774">
        <ele>1301.5999755859</ele>
        <time>2023-09-30T06:33:22.000Z</time>
      </trkpt>
      <trkpt lat="46.02153" lon="6.80774">
        <ele>1301.5999755859</ele>
        <time>2023-09-30T06:33:23.000Z</time>
      </trkpt>
      <trkpt lat="46.02153" lon="6.80773">
        <ele>1301.8000488281</ele>
        <time>2023-09-30T06:33:24.000Z</time>
      </trkpt>
      <trkpt lat="46.02152" lon="6.80774">
        <ele>1302</ele>
        <time>2023-09-30T06:33:25.000Z</time>
      </trkpt>
      <trkpt lat="46.02151" lon="6.80775">
        <ele>1302</ele>
        <time>2023-09-30T06:33:26.000Z</time>
      </trkpt>
      <trkpt lat="46.0215" lon="6.80775">
        <ele>1302.1999511719</ele>
        <time>2023-09-30T06:33:27.000Z</time>
      </trkpt>
      <trkpt lat="46.0215" lon="6.80775">
        <ele>1302.4000244141</ele>
        <time>2023-09-30T06:33:28.000Z</time>
      </trkpt>
      <trkpt lat="46.02149" lon="6.80775">
        <ele>1302.5999755859</ele>
        <time>2023-09-30T06:33:29.000Z</time>
      </trkpt>
      <trkpt lat="46.02148" lon="6.80775">
        <ele>1302.8000488281</ele>
        <time>2023-09-30T06:33:30.000Z</time>
      </trkpt>
      <trkpt lat="46.02147" lon="6.80774">
        <ele>1303.1999511719</ele>
        <time>2023-09-30T06:33:31.000Z</time>
      </trkpt>
      <trkpt lat="46.02146" lon="6.80774">
        <ele>1303.1999511719</ele>
        <time>2023-09-30T06:33:32.000Z</time>
      </trkpt>
      <trkpt lat="46.02146" lon="6.80774">
        <ele>1303.5999755859</ele>
        <time>2023-09-30T06:33:33.000Z</time>
      </trkpt>
      <trkpt lat="46.02145" lon="6.80775">
        <ele>1303.5999755859</ele>
        <time>2023-09-30T06:33:34.000Z</time>
      </trkpt>
      <trkpt lat="46.02144" lon="6.80776">
        <ele>1304</ele>
        <time>2023-09-30T06:33:35.000Z</time>
      </trkpt>
      <trkpt lat="46.02143" lon="6.80776">
        <ele>1304.1999511719</ele>
        <time>2023-09-30T06:33:36.000Z</time>
      </trkpt>
      <trkpt lat="46.02142" lon="6.80776">
        <ele>1304.1999511719</ele>
        <time>2023-09-30T06:33:37.000Z</time>
      </trkpt>
      <trkpt lat="46.02141" lon="6.80775">
        <ele>1304.4000244141</ele>
        <time>2023-09-30T06:33:38.000Z</time>
      </trkpt>
      <trkpt lat="46.0214" lon="6.80775">
        <ele>1304.4000244141</ele>
        <time>2023-09-30T06:33:39.000Z</time>
      </trkpt>
      <trkpt lat="46.02139" lon="6.80776">
        <ele>1304.5999755859</ele>
        <time>2023-09-30T06:33:40.000Z</time>
      </trkpt>
      <trkpt lat="46.02139" lon="6.80778">
        <ele>1304.5999755859</ele>
        <time>2023-09-30T06:33:41.000Z</time>
      </trkpt>
      <trkpt lat="46.02138" lon="6.80779">
        <ele>1304.8000488281</ele>
        <time>2023-09-30T06:33:42.000Z</time>
      </trkpt>
      <trkpt lat="46.02137" lon="6.80779">
        <ele>1304.8000488281</ele>
        <time>2023-09-30T06:33:43.000Z</time>
      </trkpt>
      <trkpt lat="46.02136" lon="6.80779">
        <ele>1305</ele>
        <time>2023-09-30T06:33:44.000Z</time>
      </trkpt>
      <trkpt lat="46.02136" lon="6.80779">
        <ele>1305</ele>
        <time>2023-09-30T06:33:45.000Z</time>
      </trkpt>
      <trkpt lat="46.02135" lon="6.8078">
        <ele>1305.1999511719</ele>
        <time>2023-09-30T06:33:46.000Z</time>
      </trkpt>
      <trkpt lat="46.02134" lon="6.80781">
        <ele>1305.4000244141</ele>
        <time>2023-09-30T06:33:47.000Z</time>
      </trkpt>
      <trkpt lat="46.02133" lon="6.80782">
        <ele>1305.5999755859</ele>
        <time>2023-09-30T06:33:48.000Z</time>
      </trkpt>
      <trkpt lat="46.02133" lon="6.80783">
        <ele>1305.8000488281</ele>
        <time>2023-09-30T06:33:49.000Z</time>
      </trkpt>
      <trkpt lat="46.02133" lon="6.80784">
        <ele>1306.1999511719</ele>
        <time>2023-09-30T06:33:50.000Z</time>
      </trkpt>
      <trkpt lat="46.02132" lon="6.80784">
        <ele>1306.1999511719</ele>
        <time>2023-09-30T06:33:51.000Z</time>
      </trkpt>
      <trkpt lat="46.02132" lon="6.80785">
        <ele>1306.4000244141</ele>
        <time>2023-09-30T06:33:52.000Z</time>
      </trkpt>
      <trkpt lat="46.02131" lon="6.80786">
        <ele>1306.4000244141</ele>
        <time>2023-09-30T06:33:53.000Z</time>
      </trkpt>
      <trkpt lat="46.02129" lon="6.80786">
        <ele>1306.5999755859</ele>
        <time>2023-09-30T06:33:54.000Z</time>
      </trkpt>
      <trkpt lat="46.02128" lon="6.80787">
        <ele>1306.5999755859</ele>
        <time>2023-09-30T06:33:55.000Z</time>
      </trkpt>
      <trkpt lat="46.02127" lon="6.80788">
        <ele>1307</ele>
        <time>2023-09-30T06:33:56.000Z</time>
      </trkpt>
      <trkpt lat="46.02126" lon="6.80788">
        <ele>1307.4000244141</ele>
        <time>2023-09-30T06:33:57.000Z</time>
      </trkpt>
      <trkpt lat="46.02126" lon="6.80787">
        <ele>1307.4000244141</ele>
        <time>2023-09-30T06:33:58.000Z</time>
      </trkpt>
      <trkpt lat="46.02125" lon="6.80787">
        <ele>1307.5999755859</ele>
        <time>2023-09-30T06:33:59.000Z</time>
      </trkpt>
      <trkpt lat="46.02125" lon="6.80787">
        <ele>1307.8000488281</ele>
        <time>2023-09-30T06:34:00.000Z</time>
      </trkpt>
      <trkpt lat="46.02123" lon="6.80788">
        <ele>1308</ele>
        <time>2023-09-30T06:34:01.000Z</time>
      </trkpt>
      <trkpt lat="46.02122" lon="6.80788">
        <ele>1308</ele>
        <time>2023-09-30T06:34:02.000Z</time>
      </trkpt>
      <trkpt lat="46.02121" lon="6.80788">
        <ele>1308.1999511719</ele>
        <time>2023-09-30T06:34:03.000Z</time>
      </trkpt>
      <trkpt lat="46.0212" lon="6.80788">
        <ele>1308.1999511719</ele>
        <time>2023-09-30T06:34:04.000Z</time>
      </trkpt>
      <trkpt lat="46.02119" lon="6.80788">
        <ele>1308.4000244141</ele>
        <time>2023-09-30T06:34:05.000Z</time>
      </trkpt>
      <trkpt lat="46.02118" lon="6.8079">
        <ele>1308.4000244141</ele>
        <time>2023-09-30T06:34:06.000Z</time>
      </trkpt>
      <trkpt lat="46.02116" lon="6.80791">
        <ele>1308.4000244141</ele>
        <time>2023-09-30T06:34:07.000Z</time>
      </trkpt>
      <trkpt lat="46.02114" lon="6.80791">
        <ele>1308.5999755859</ele>
        <time>2023-09-30T06:34:08.000Z</time>
      </trkpt>
      <trkpt lat="46.02112" lon="6.80791">
        <ele>1308.5999755859</ele>
        <time>2023-09-30T06:34:09.000Z</time>
      </trkpt>
      <trkpt lat="46.02111" lon="6.80792">
        <ele>1308.8000488281</ele>
        <time>2023-09-30T06:34:10.000Z</time>
      </trkpt>
      <trkpt lat="46.02109" lon="6.80793">
        <ele>1309</ele>
        <time>2023-09-30T06:34:11.000Z</time>
      </trkpt>
      <trkpt lat="46.02107" lon="6.80794">
        <ele>1309.1999511719</ele>
        <time>2023-09-30T06:34:12.000Z</time>
      </trkpt>
      <trkpt lat="46.02106" lon="6.80794">
        <ele>1309.1999511719</ele>
        <time>2023-09-30T06:34:13.000Z</time>
      </trkpt>
      <trkpt lat="46.02103" lon="6.80795">
        <ele>1309.4000244141</ele>
        <time>2023-09-30T06:34:14.000Z</time>
      </trkpt>
      <trkpt lat="46.02102" lon="6.80795">
        <ele>1309.5999755859</ele>
        <time>2023-09-30T06:34:15.000Z</time>
      </trkpt>
      <trkpt lat="46.021" lon="6.80796">
        <ele>1309.8000488281</ele>
        <time>2023-09-30T06:34:16.000Z</time>
      </trkpt>
      <trkpt lat="46.02098" lon="6.80796">
        <ele>1310</ele>
        <time>2023-09-30T06:34:17.000Z</time>
      </trkpt>
      <trkpt lat="46.02097" lon="6.80797">
        <ele>1310.4000244141</ele>
        <time>2023-09-30T06:34:18.000Z</time>
      </trkpt>
      <trkpt lat="46.02097" lon="6.80799">
        <ele>1310.4000244141</ele>
        <time>2023-09-30T06:34:19.000Z</time>
      </trkpt>
      <trkpt lat="46.02096" lon="6.80801">
        <ele>1310.5999755859</ele>
        <time>2023-09-30T06:34:20.000Z</time>
      </trkpt>
      <trkpt lat="46.02095" lon="6.80799">
        <ele>1310.8000488281</ele>
        <time>2023-09-30T06:34:21.000Z</time>
      </trkpt>
      <trkpt lat="46.02093" lon="6.80799">
        <ele>1311</ele>
        <time>2023-09-30T06:34:22.000Z</time>
      </trkpt>
      <trkpt lat="46.02091" lon="6.80801">
        <ele>1311.1999511719</ele>
        <time>2023-09-30T06:34:23.000Z</time>
      </trkpt>
      <trkpt lat="46.02091" lon="6.80801">
        <ele>1311.4000244141</ele>
        <time>2023-09-30T06:34:24.000Z</time>
      </trkpt>
      <trkpt lat="46.0209" lon="6.80802">
        <ele>1311.8000488281</ele>
        <time>2023-09-30T06:34:25.000Z</time>
      </trkpt>
      <trkpt lat="46.02091" lon="6.80804">
        <ele>1311.8000488281</ele>
        <time>2023-09-30T06:34:26.000Z</time>
      </trkpt>
      <trkpt lat="46.02091" lon="6.80805">
        <ele>1312</ele>
        <time>2023-09-30T06:34:27.000Z</time>
      </trkpt>
      <trkpt lat="46.02091" lon="6.80805">
        <ele>1312.1999511719</ele>
        <time>2023-09-30T06:34:28.000Z</time>
      </trkpt>
      <trkpt lat="46.02092" lon="6.80806">
        <ele>1312.1999511719</ele>
        <time>2023-09-30T06:34:29.000Z</time>
      </trkpt>
      <trkpt lat="46.02092" lon="6.80806">
        <ele>1312.4000244141</ele>
        <time>2023-09-30T06:34:30.000Z</time>
      </trkpt>
      <trkpt lat="46.02093" lon="6.80807">
        <ele>1312.5999755859</ele>
        <time>2023-09-30T06:34:31.000Z</time>
      </trkpt>
      <trkpt lat="46.02094" lon="6.80807">
        <ele>1312.8000488281</ele>
        <time>2023-09-30T06:34:32.000Z</time>
      </trkpt>
      <trkpt lat="46.02095" lon="6.80807">
        <ele>1312.8000488281</ele>
        <time>2023-09-30T06:34:33.000Z</time>
      </trkpt>
      <trkpt lat="46.02097" lon="6.80807">
        <ele>1313</ele>
        <time>2023-09-30T06:34:34.000Z</time>
      </trkpt>
      <trkpt lat="46.02099" lon="6.80807">
        <ele>1313</ele>
        <time>2023-09-30T06:34:35.000Z</time>
      </trkpt>
      <trkpt lat="46.021" lon="6.80808">
        <ele>1313.1999511719</ele>
        <time>2023-09-30T06:34:36.000Z</time>
      </trkpt>
      <trkpt lat="46.02101" lon="6.80807">
        <ele>1313.1999511719</ele>
        <time>2023-09-30T06:34:37.000Z</time>
      </trkpt>
      <trkpt lat="46.02102" lon="6.80807">
        <ele>1313.4000244141</ele>
        <time>2023-09-30T06:34:38.000Z</time>
      </trkpt>
      <trkpt lat="46.02104" lon="6.80806">
        <ele>1313.8000488281</ele>
        <time>2023-09-30T06:34:39.000Z</time>
      </trkpt>
      <trkpt lat="46.02105" lon="6.80807">
        <ele>1314</ele>
        <time>2023-09-30T06:34:40.000Z</time>
      </trkpt>
      <trkpt lat="46.02107" lon="6.80806">
        <ele>1314</ele>
        <time>2023-09-30T06:34:41.000Z</time>
      </trkpt>
      <trkpt lat="46.02108" lon="6.80806">
        <ele>1314.1999511719</ele>
        <time>2023-09-30T06:34:42.000Z</time>
      </trkpt>
      <trkpt lat="46.0211" lon="6.80805">
        <ele>1314.4000244141</ele>
        <time>2023-09-30T06:34:43.000Z</time>
      </trkpt>
      <trkpt lat="46.02112" lon="6.80805">
        <ele>1314.5999755859</ele>
        <time>2023-09-30T06:34:44.000Z</time>
      </trkpt>
      <trkpt lat="46.02113" lon="6.80806">
        <ele>1314.8000488281</ele>
        <time>2023-09-30T06:34:45.000Z</time>
      </trkpt>
      <trkpt lat="46.02114" lon="6.80806">
        <ele>1315</ele>
        <time>2023-09-30T06:34:46.000Z</time>
      </trkpt>
      <trkpt lat="46.02116" lon="6.80806">
        <ele>1315</ele>
        <time>2023-09-30T06:34:47.000Z</time>
      </trkpt>
      <trkpt lat="46.02117" lon="6.80807">
        <ele>1315.1999511719</ele>
        <time>2023-09-30T06:34:48.000Z</time>
      </trkpt>
      <trkpt lat="46.02119" lon="6.80808">
        <ele>1315.1999511719</ele>
        <time>2023-09-30T06:34:49.000Z</time>
      </trkpt>
      <trkpt lat="46.0212" lon="6.80809">
        <ele>1315.4000244141</ele>
        <time>2023-09-30T06:34:50.000Z</time>
      </trkpt>
      <trkpt lat="46.0212" lon="6.80811">
        <ele>1315.5999755859</ele>
        <time>2023-09-30T06:34:51.000Z</time>
      </trkpt>
      <trkpt lat="46.0212" lon="6.80813">
        <ele>1315.8000488281</ele>
        <time>2023-09-30T06:34:52.000Z</time>
      </trkpt>
      <trkpt lat="46.02121" lon="6.80815">
        <ele>1315.8000488281</ele>
        <time>2023-09-30T06:34:53.000Z</time>
      </trkpt>
      <trkpt lat="46.02122" lon="6.80817">
        <ele>1316</ele>
        <time>2023-09-30T06:34:54.000Z</time>
      </trkpt>
      <trkpt lat="46.02122" lon="6.80818">
        <ele>1316</ele>
        <time>2023-09-30T06:34:55.000Z</time>
      </trkpt>
      <trkpt lat="46.02122" lon="6.80819">
        <ele>1316.1999511719</ele>
        <time>2023-09-30T06:34:56.000Z</time>
      </trkpt>
      <trkpt lat="46.02121" lon="6.80819">
        <ele>1316.4000244141</ele>
        <time>2023-09-30T06:34:57.000Z</time>
      </trkpt>
      <trkpt lat="46.02119" lon="6.80819">
        <ele>1316.5999755859</ele>
        <time>2023-09-30T06:34:58.000Z</time>
      </trkpt>
      <trkpt lat="46.02118" lon="6.80818">
        <ele>1316.5999755859</ele>
        <time>2023-09-30T06:34:59.000Z</time>
      </trkpt>
      <trkpt lat="46.02117" lon="6.80818">
        <ele>1316.8000488281</ele>
        <time>2023-09-30T06:35:00.000Z</time>
      </trkpt>
      <trkpt lat="46.02116" lon="6.80818">
        <ele>1317</ele>
        <time>2023-09-30T06:35:01.000Z</time>
      </trkpt>
      <trkpt lat="46.02115" lon="6.80818">
        <ele>1317.4000244141</ele>
        <time>2023-09-30T06:35:02.000Z</time>
      </trkpt>
      <trkpt lat="46.02114" lon="6.80817">
        <ele>1317.5999755859</ele>
        <time>2023-09-30T06:35:03.000Z</time>
      </trkpt>
      <trkpt lat="46.02112" lon="6.80817">
        <ele>1317.8000488281</ele>
        <time>2023-09-30T06:35:04.000Z</time>
      </trkpt>
      <trkpt lat="46.02112" lon="6.80817">
        <ele>1318</ele>
        <time>2023-09-30T06:35:05.000Z</time>
      </trkpt>
      <trkpt lat="46.0211" lon="6.80817">
        <ele>1318.1999511719</ele>
        <time>2023-09-30T06:35:06.000Z</time>
      </trkpt>
      <trkpt lat="46.02109" lon="6.80816">
        <ele>1318.1999511719</ele>
        <time>2023-09-30T06:35:07.000Z</time>
      </trkpt>
      <trkpt lat="46.02108" lon="6.80816">
        <ele>1318.4000244141</ele>
        <time>2023-09-30T06:35:08.000Z</time>
      </trkpt>
      <trkpt lat="46.02106" lon="6.80815">
        <ele>1318.5999755859</ele>
        <time>2023-09-30T06:35:09.000Z</time>
      </trkpt>
      <trkpt lat="46.02105" lon="6.80815">
        <ele>1318.5999755859</ele>
        <time>2023-09-30T06:35:10.000Z</time>
      </trkpt>
      <trkpt lat="46.02103" lon="6.80814">
        <ele>1318.8000488281</ele>
        <time>2023-09-30T06:35:11.000Z</time>
      </trkpt>
      <trkpt lat="46.02102" lon="6.80814">
        <ele>1319</ele>
        <time>2023-09-30T06:35:12.000Z</time>
      </trkpt>
      <trkpt lat="46.02101" lon="6.80815">
        <ele>1319.1999511719</ele>
        <time>2023-09-30T06:35:13.000Z</time>
      </trkpt>
      <trkpt lat="46.021" lon="6.80815">
        <ele>1319.1999511719</ele>
        <time>2023-09-30T06:35:14.000Z</time>
      </trkpt>
      <trkpt lat="46.02099" lon="6.80815">
        <ele>1319.4000244141</ele>
        <time>2023-09-30T06:35:15.000Z</time>
      </trkpt>
      <trkpt lat="46.02098" lon="6.80814">
        <ele>1319.4000244141</ele>
        <time>2023-09-30T06:35:16.000Z</time>
      </trkpt>
      <trkpt lat="46.02097" lon="6.80814">
        <ele>1319.4000244141</ele>
        <time>2023-09-30T06:35:17.000Z</time>
      </trkpt>
      <trkpt lat="46.02096" lon="6.80814">
        <ele>1319.5999755859</ele>
        <time>2023-09-30T06:35:18.000Z</time>
      </trkpt>
      <trkpt lat="46.02095" lon="6.80813">
        <ele>1319.8000488281</ele>
        <time>2023-09-30T06:35:19.000Z</time>
      </trkpt>
      <trkpt lat="46.02094" lon="6.80813">
        <ele>1320</ele>
        <time>2023-09-30T06:35:20.000Z</time>
      </trkpt>
      <trkpt lat="46.02093" lon="6.80813">
        <ele>1320.4000244141</ele>
        <time>2023-09-30T06:35:21.000Z</time>
      </trkpt>
      <trkpt lat="46.02091" lon="6.80814">
        <ele>1320.4000244141</ele>
        <time>2023-09-30T06:35:22.000Z</time>
      </trkpt>
      <trkpt lat="46.02091" lon="6.80814">
        <ele>1320.5999755859</ele>
        <time>2023-09-30T06:35:23.000Z</time>
      </trkpt>
      <trkpt lat="46.02089" lon="6.80814">
        <ele>1320.5999755859</ele>
        <time>2023-09-30T06:35:24.000Z</time>
      </trkpt>
      <trkpt lat="46.02088" lon="6.80814">
        <ele>1320.8000488281</ele>
        <time>2023-09-30T06:35:25.000Z</time>
      </trkpt>
      <trkpt lat="46.02088" lon="6.80814">
        <ele>1320.8000488281</ele>
        <time>2023-09-30T06:35:26.000Z</time>
      </trkpt>
      <trkpt lat="46.02086" lon="6.80814">
        <ele>1321</ele>
        <time>2023-09-30T06:35:27.000Z</time>
      </trkpt>
      <trkpt lat="46.02085" lon="6.80815">
        <ele>1321.1999511719</ele>
        <time>2023-09-30T06:35:28.000Z</time>
      </trkpt>
      <trkpt lat="46.02084" lon="6.80815">
        <ele>1321.4000244141</ele>
        <time>2023-09-30T06:35:29.000Z</time>
      </trkpt>
      <trkpt lat="46.02083" lon="6.80815">
        <ele>1321.5999755859</ele>
        <time>2023-09-30T06:35:30.000Z</time>
      </trkpt>
      <trkpt lat="46.02082" lon="6.80814">
        <ele>1321.5999755859</ele>
        <time>2023-09-30T06:35:31.000Z</time>
      </trkpt>
      <trkpt lat="46.02081" lon="6.80814">
        <ele>1321.8000488281</ele>
        <time>2023-09-30T06:35:32.000Z</time>
      </trkpt>
      <trkpt lat="46.0208" lon="6.80815">
        <ele>1322</ele>
        <time>2023-09-30T06:35:33.000Z</time>
      </trkpt>
      <trkpt lat="46.02079" lon="6.80815">
        <ele>1322.1999511719</ele>
        <time>2023-09-30T06:35:34.000Z</time>
      </trkpt>
      <trkpt lat="46.02078" lon="6.80816">
        <ele>1322.5999755859</ele>
        <time>2023-09-30T06:35:35.000Z</time>
      </trkpt>
      <trkpt lat="46.02077" lon="6.80817">
        <ele>1322.5999755859</ele>
        <time>2023-09-30T06:35:36.000Z</time>
      </trkpt>
      <trkpt lat="46.02077" lon="6.80818">
        <ele>1322.8000488281</ele>
        <time>2023-09-30T06:35:37.000Z</time>
      </trkpt>
      <trkpt lat="46.02077" lon="6.80821">
        <ele>1322.8000488281</ele>
        <time>2023-09-30T06:35:38.000Z</time>
      </trkpt>
      <trkpt lat="46.02076" lon="6.80823">
        <ele>1323</ele>
        <time>2023-09-30T06:35:39.000Z</time>
      </trkpt>
      <trkpt lat="46.02076" lon="6.80825">
        <ele>1323</ele>
        <time>2023-09-30T06:35:40.000Z</time>
      </trkpt>
      <trkpt lat="46.02076" lon="6.80827">
        <ele>1323.1999511719</ele>
        <time>2023-09-30T06:35:41.000Z</time>
      </trkpt>
      <trkpt lat="46.02077" lon="6.80828">
        <ele>1323.4000244141</ele>
        <time>2023-09-30T06:35:42.000Z</time>
      </trkpt>
      <trkpt lat="46.02078" lon="6.80829">
        <ele>1323.4000244141</ele>
        <time>2023-09-30T06:35:43.000Z</time>
      </trkpt>
      <trkpt lat="46.02079" lon="6.8083">
        <ele>1323.8000488281</ele>
        <time>2023-09-30T06:35:44.000Z</time>
      </trkpt>
      <trkpt lat="46.0208" lon="6.8083">
        <ele>1324</ele>
        <time>2023-09-30T06:35:45.000Z</time>
      </trkpt>
      <trkpt lat="46.02081" lon="6.8083">
        <ele>1324.1999511719</ele>
        <time>2023-09-30T06:35:46.000Z</time>
      </trkpt>
      <trkpt lat="46.02082" lon="6.8083">
        <ele>1324.4000244141</ele>
        <time>2023-09-30T06:35:47.000Z</time>
      </trkpt>
      <trkpt lat="46.02084" lon="6.80831">
        <ele>1324.5999755859</ele>
        <time>2023-09-30T06:35:48.000Z</time>
      </trkpt>
      <trkpt lat="46.02085" lon="6.80831">
        <ele>1325</ele>
        <time>2023-09-30T06:35:49.000Z</time>
      </trkpt>
      <trkpt lat="46.02086" lon="6.80831">
        <ele>1325</ele>
        <time>2023-09-30T06:35:50.000Z</time>
      </trkpt>
      <trkpt lat="46.02087" lon="6.80831">
        <ele>1325.1999511719</ele>
        <time>2023-09-30T06:35:51.000Z</time>
      </trkpt>
      <trkpt lat="46.02088" lon="6.80832">
        <ele>1325.1999511719</ele>
        <time>2023-09-30T06:35:52.000Z</time>
      </trkpt>
      <trkpt lat="46.02089" lon="6.80831">
        <ele>1325.1999511719</ele>
        <time>2023-09-30T06:35:53.000Z</time>
      </trkpt>
      <trkpt lat="46.0209" lon="6.8083">
        <ele>1324.8000488281</ele>
        <time>2023-09-30T06:35:54.000Z</time>
      </trkpt>
      <trkpt lat="46.02092" lon="6.8083">
        <ele>1325</ele>
        <time>2023-09-30T06:35:55.000Z</time>
      </trkpt>
      <trkpt lat="46.02093" lon="6.8083">
        <ele>1325</ele>
        <time>2023-09-30T06:35:56.000Z</time>
      </trkpt>
      <trkpt lat="46.02095" lon="6.8083">
        <ele>1325</ele>
        <time>2023-09-30T06:35:57.000Z</time>
      </trkpt>
      <trkpt lat="46.02097" lon="6.80831">
        <ele>1325</ele>
        <time>2023-09-30T06:35:58.000Z</time>
      </trkpt>
      <trkpt lat="46.02098" lon="6.80832">
        <ele>1325</ele>
        <time>2023-09-30T06:35:59.000Z</time>
      </trkpt>
      <trkpt lat="46.02099" lon="6.80833">
        <ele>1325</ele>
        <time>2023-09-30T06:36:00.000Z</time>
      </trkpt>
      <trkpt lat="46.021" lon="6.80834">
        <ele>1325</ele>
        <time>2023-09-30T06:36:01.000Z</time>
      </trkpt>
      <trkpt lat="46.02101" lon="6.80836">
        <ele>1325</ele>
        <time>2023-09-30T06:36:02.000Z</time>
      </trkpt>
      <trkpt lat="46.02101" lon="6.80838">
        <ele>1325.1999511719</ele>
        <time>2023-09-30T06:36:03.000Z</time>
      </trkpt>
      <trkpt lat="46.02101" lon="6.80839">
        <ele>1325.1999511719</ele>
        <time>2023-09-30T06:36:04.000Z</time>
      </trkpt>
      <trkpt lat="46.02101" lon="6.8084">
        <ele>1325.4000244141</ele>
        <time>2023-09-30T06:36:05.000Z</time>
      </trkpt>
      <trkpt lat="46.021" lon="6.80842">
        <ele>1325.4000244141</ele>
        <time>2023-09-30T06:36:06.000Z</time>
      </trkpt>
      <trkpt lat="46.02099" lon="6.80842">
        <ele>1325.5999755859</ele>
        <time>2023-09-30T06:36:07.000Z</time>
      </trkpt>
      <trkpt lat="46.02097" lon="6.80842">
        <ele>1326</ele>
        <time>2023-09-30T06:36:08.000Z</time>
      </trkpt>
      <trkpt lat="46.02096" lon="6.80842">
        <ele>1326.1999511719</ele>
        <time>2023-09-30T06:36:09.000Z</time>
      </trkpt>
      <trkpt lat="46.02095" lon="6.80842">
        <ele>1326.5999755859</ele>
        <time>2023-09-30T06:36:10.000Z</time>
      </trkpt>
      <trkpt lat="46.02093" lon="6.80842">
        <ele>1326.8000488281</ele>
        <time>2023-09-30T06:36:11.000Z</time>
      </trkpt>
      <trkpt lat="46.02092" lon="6.80842">
        <ele>1327.1999511719</ele>
        <time>2023-09-30T06:36:12.000Z</time>
      </trkpt>
      <trkpt lat="46.0209" lon="6.80842">
        <ele>1327.4000244141</ele>
        <time>2023-09-30T06:36:13.000Z</time>
      </trkpt>
      <trkpt lat="46.02089" lon="6.80841">
        <ele>1327.5999755859</ele>
        <time>2023-09-30T06:36:14.000Z</time>
      </trkpt>
      <trkpt lat="46.02088" lon="6.8084">
        <ele>1327.5999755859</ele>
        <time>2023-09-30T06:36:15.000Z</time>
      </trkpt>
      <trkpt lat="46.02086" lon="6.80839">
        <ele>1327.8000488281</ele>
        <time>2023-09-30T06:36:16.000Z</time>
      </trkpt>
      <trkpt lat="46.02084" lon="6.8084">
        <ele>1328</ele>
        <time>2023-09-30T06:36:17.000Z</time>
      </trkpt>
      <trkpt lat="46.02082" lon="6.8084">
        <ele>1328</ele>
        <time>2023-09-30T06:36:18.000Z</time>
      </trkpt>
      <trkpt lat="46.02082" lon="6.8084">
        <ele>1328.4000244141</ele>
        <time>2023-09-30T06:36:19.000Z</time>
      </trkpt>
      <trkpt lat="46.02081" lon="6.8084">
        <ele>1328.4000244141</ele>
        <time>2023-09-30T06:36:20.000Z</time>
      </trkpt>
      <trkpt lat="46.0208" lon="6.80839">
        <ele>1328.8000488281</ele>
        <time>2023-09-30T06:36:21.000Z</time>
      </trkpt>
      <trkpt lat="46.02079" lon="6.80839">
        <ele>1328.8000488281</ele>
        <time>2023-09-30T06:36:22.000Z</time>
      </trkpt>
      <trkpt lat="46.02078" lon="6.80838">
        <ele>1329</ele>
        <time>2023-09-30T06:36:23.000Z</time>
      </trkpt>
      <trkpt lat="46.02077" lon="6.80837">
        <ele>1329.1999511719</ele>
        <time>2023-09-30T06:36:24.000Z</time>
      </trkpt>
      <trkpt lat="46.02076" lon="6.80837">
        <ele>1329.1999511719</ele>
        <time>2023-09-30T06:36:25.000Z</time>
      </trkpt>
      <trkpt lat="46.02075" lon="6.80836">
        <ele>1329.1999511719</ele>
        <time>2023-09-30T06:36:26.000Z</time>
      </trkpt>
      <trkpt lat="46.02074" lon="6.80836">
        <ele>1329.4000244141</ele>
        <time>2023-09-30T06:36:27.000Z</time>
      </trkpt>
      <trkpt lat="46.02073" lon="6.80835">
        <ele>1329.4000244141</ele>
        <time>2023-09-30T06:36:28.000Z</time>
      </trkpt>
      <trkpt lat="46.02072" lon="6.80835">
        <ele>1329.8000488281</ele>
        <time>2023-09-30T06:36:29.000Z</time>
      </trkpt>
      <trkpt lat="46.02071" lon="6.80835">
        <ele>1330</ele>
        <time>2023-09-30T06:36:30.000Z</time>
      </trkpt>
      <trkpt lat="46.02071" lon="6.80835">
        <ele>1330.1999511719</ele>
        <time>2023-09-30T06:36:31.000Z</time>
      </trkpt>
      <trkpt lat="46.0207" lon="6.80835">
        <ele>1330.1999511719</ele>
        <time>2023-09-30T06:36:32.000Z</time>
      </trkpt>
      <trkpt lat="46.0207" lon="6.80834">
        <ele>1330.4000244141</ele>
        <time>2023-09-30T06:36:33.000Z</time>
      </trkpt>
      <trkpt lat="46.02069" lon="6.80834">
        <ele>1330.4000244141</ele>
        <time>2023-09-30T06:36:34.000Z</time>
      </trkpt>
      <trkpt lat="46.02068" lon="6.80833">
        <ele>1330.5999755859</ele>
        <time>2023-09-30T06:36:35.000Z</time>
      </trkpt>
      <trkpt lat="46.02067" lon="6.80832">
        <ele>1330.8000488281</ele>
        <time>2023-09-30T06:36:36.000Z</time>
      </trkpt>
      <trkpt lat="46.02066" lon="6.80831">
        <ele>1330.5999755859</ele>
        <time>2023-09-30T06:36:37.000Z</time>
      </trkpt>
      <trkpt lat="46.02066" lon="6.8083">
        <ele>1330.5999755859</ele>
        <time>2023-09-30T06:36:38.000Z</time>
      </trkpt>
      <trkpt lat="46.02065" lon="6.8083">
        <ele>1330.8000488281</ele>
        <time>2023-09-30T06:36:39.000Z</time>
      </trkpt>
      <trkpt lat="46.02064" lon="6.80829">
        <ele>1331.1999511719</ele>
        <time>2023-09-30T06:36:40.000Z</time>
      </trkpt>
      <trkpt lat="46.02064" lon="6.80828">
        <ele>1331.4000244141</ele>
        <time>2023-09-30T06:36:41.000Z</time>
      </trkpt>
      <trkpt lat="46.02063" lon="6.80828">
        <ele>1331.5999755859</ele>
        <time>2023-09-30T06:36:42.000Z</time>
      </trkpt>
      <trkpt lat="46.02062" lon="6.80827">
        <ele>1332</ele>
        <time>2023-09-30T06:36:43.000Z</time>
      </trkpt>
      <trkpt lat="46.02061" lon="6.80827">
        <ele>1332</ele>
        <time>2023-09-30T06:36:44.000Z</time>
      </trkpt>
      <trkpt lat="46.0206" lon="6.80828">
        <ele>1332.4000244141</ele>
        <time>2023-09-30T06:36:45.000Z</time>
      </trkpt>
      <trkpt lat="46.02058" lon="6.80828">
        <ele>1332.4000244141</ele>
        <time>2023-09-30T06:36:46.000Z</time>
      </trkpt>
      <trkpt lat="46.02057" lon="6.80828">
        <ele>1332.5999755859</ele>
        <time>2023-09-30T06:36:47.000Z</time>
      </trkpt>
      <trkpt lat="46.02057" lon="6.80828">
        <ele>1332.8000488281</ele>
        <time>2023-09-30T06:36:48.000Z</time>
      </trkpt>
      <trkpt lat="46.02056" lon="6.80828">
        <ele>1333.1999511719</ele>
        <time>2023-09-30T06:36:49.000Z</time>
      </trkpt>
      <trkpt lat="46.02054" lon="6.80828">
        <ele>1333.4000244141</ele>
        <time>2023-09-30T06:36:50.000Z</time>
      </trkpt>
      <trkpt lat="46.02053" lon="6.80829">
        <ele>1333.4000244141</ele>
        <time>2023-09-30T06:36:51.000Z</time>
      </trkpt>
      <trkpt lat="46.02053" lon="6.80831">
        <ele>1333.5999755859</ele>
        <time>2023-09-30T06:36:52.000Z</time>
      </trkpt>
      <trkpt lat="46.02053" lon="6.80833">
        <ele>1333.5999755859</ele>
        <time>2023-09-30T06:36:53.000Z</time>
      </trkpt>
      <trkpt lat="46.02053" lon="6.80834">
        <ele>1333.8000488281</ele>
        <time>2023-09-30T06:36:54.000Z</time>
      </trkpt>
      <trkpt lat="46.02054" lon="6.80836">
        <ele>1334</ele>
        <time>2023-09-30T06:36:55.000Z</time>
      </trkpt>
      <trkpt lat="46.02055" lon="6.80837">
        <ele>1334</ele>
        <time>2023-09-30T06:36:56.000Z</time>
      </trkpt>
      <trkpt lat="46.02056" lon="6.80838">
        <ele>1334.1999511719</ele>
        <time>2023-09-30T06:36:57.000Z</time>
      </trkpt>
      <trkpt lat="46.02057" lon="6.80839">
        <ele>1334.1999511719</ele>
        <time>2023-09-30T06:36:58.000Z</time>
      </trkpt>
      <trkpt lat="46.02058" lon="6.80839">
        <ele>1334.1999511719</ele>
        <time>2023-09-30T06:36:59.000Z</time>
      </trkpt>
      <trkpt lat="46.0206" lon="6.8084">
        <ele>1334.4000244141</ele>
        <time>2023-09-30T06:37:00.000Z</time>
      </trkpt>
      <trkpt lat="46.02061" lon="6.80839">
        <ele>1334.5999755859</ele>
        <time>2023-09-30T06:37:01.000Z</time>
      </trkpt>
      <trkpt lat="46.02063" lon="6.80839">
        <ele>1334.8000488281</ele>
        <time>2023-09-30T06:37:02.000Z</time>
      </trkpt>
      <trkpt lat="46.02064" lon="6.8084">
        <ele>1335</ele>
        <time>2023-09-30T06:37:03.000Z</time>
      </trkpt>
      <trkpt lat="46.02065" lon="6.80841">
        <ele>1335</ele>
        <time>2023-09-30T06:37:04.000Z</time>
      </trkpt>
      <trkpt lat="46.02067" lon="6.80841">
        <ele>1335.1999511719</ele>
        <time>2023-09-30T06:37:05.000Z</time>
      </trkpt>
      <trkpt lat="46.02068" lon="6.80841">
        <ele>1335.1999511719</ele>
        <time>2023-09-30T06:37:06.000Z</time>
      </trkpt>
      <trkpt lat="46.02069" lon="6.80841">
        <ele>1335.4000244141</ele>
        <time>2023-09-30T06:37:07.000Z</time>
      </trkpt>
      <trkpt lat="46.0207" lon="6.80842">
        <ele>1335.4000244141</ele>
        <time>2023-09-30T06:37:08.000Z</time>
      </trkpt>
      <trkpt lat="46.02071" lon="6.80842">
        <ele>1335.5999755859</ele>
        <time>2023-09-30T06:37:09.000Z</time>
      </trkpt>
      <trkpt lat="46.02072" lon="6.80842">
        <ele>1335.5999755859</ele>
        <time>2023-09-30T06:37:10.000Z</time>
      </trkpt>
      <trkpt lat="46.02074" lon="6.80842">
        <ele>1335.8000488281</ele>
        <time>2023-09-30T06:37:11.000Z</time>
      </trkpt>
      <trkpt lat="46.02075" lon="6.80843">
        <ele>1335.8000488281</ele>
        <time>2023-09-30T06:37:12.000Z</time>
      </trkpt>
      <trkpt lat="46.02076" lon="6.80843">
        <ele>1336</ele>
        <time>2023-09-30T06:37:13.000Z</time>
      </trkpt>
      <trkpt lat="46.02077" lon="6.80843">
        <ele>1336</ele>
        <time>2023-09-30T06:37:14.000Z</time>
      </trkpt>
      <trkpt lat="46.02079" lon="6.80842">
        <ele>1336.1999511719</ele>
        <time>2023-09-30T06:37:15.000Z</time>
      </trkpt>
      <trkpt lat="46.0208" lon="6.80842">
        <ele>1336.1999511719</ele>
        <time>2023-09-30T06:37:16.000Z</time>
      </trkpt>
      <trkpt lat="46.02081" lon="6.80843">
        <ele>1336.4000244141</ele>
        <time>2023-09-30T06:37:17.000Z</time>
      </trkpt>
      <trkpt lat="46.02083" lon="6.80842">
        <ele>1336.5999755859</ele>
        <time>2023-09-30T06:37:18.000Z</time>
      </trkpt>
      <trkpt lat="46.02084" lon="6.80842">
        <ele>1336.5999755859</ele>
        <time>2023-09-30T06:37:19.000Z</time>
      </trkpt>
      <trkpt lat="46.02086" lon="6.80842">
        <ele>1336.8000488281</ele>
        <time>2023-09-30T06:37:20.000Z</time>
      </trkpt>
      <trkpt lat="46.02087" lon="6.80843">
        <ele>1336.8000488281</ele>
        <time>2023-09-30T06:37:21.000Z</time>
      </trkpt>
      <trkpt lat="46.02088" lon="6.80842">
        <ele>1337.1999511719</ele>
        <time>2023-09-30T06:37:22.000Z</time>
      </trkpt>
      <trkpt lat="46.0209" lon="6.80842">
        <ele>1337.4000244141</ele>
        <time>2023-09-30T06:37:23.000Z</time>
      </trkpt>
      <trkpt lat="46.02092" lon="6.80844">
        <ele>1337.5999755859</ele>
        <time>2023-09-30T06:37:24.000Z</time>
      </trkpt>
      <trkpt lat="46.02094" lon="6.80844">
        <ele>1337.5999755859</ele>
        <time>2023-09-30T06:37:25.000Z</time>
      </trkpt>
      <trkpt lat="46.02095" lon="6.80845">
        <ele>1337.8000488281</ele>
        <time>2023-09-30T06:37:26.000Z</time>
      </trkpt>
      <trkpt lat="46.02097" lon="6.80845">
        <ele>1337.8000488281</ele>
        <time>2023-09-30T06:37:27.000Z</time>
      </trkpt>
      <trkpt lat="46.02098" lon="6.80844">
        <ele>1337.8000488281</ele>
        <time>2023-09-30T06:37:28.000Z</time>
      </trkpt>
      <trkpt lat="46.021" lon="6.80844">
        <ele>1338</ele>
        <time>2023-09-30T06:37:29.000Z</time>
      </trkpt>
      <trkpt lat="46.02101" lon="6.80846">
        <ele>1338.1999511719</ele>
        <time>2023-09-30T06:37:30.000Z</time>
      </trkpt>
      <trkpt lat="46.02102" lon="6.80847">
        <ele>1338.4000244141</ele>
        <time>2023-09-30T06:37:31.000Z</time>
      </trkpt>
      <trkpt lat="46.02103" lon="6.80847">
        <ele>1338.4000244141</ele>
        <time>2023-09-30T06:37:32.000Z</time>
      </trkpt>
      <trkpt lat="46.02104" lon="6.80848">
        <ele>1338.5999755859</ele>
        <time>2023-09-30T06:37:33.000Z</time>
      </trkpt>
      <trkpt lat="46.02105" lon="6.80849">
        <ele>1338.8000488281</ele>
        <time>2023-09-30T06:37:34.000Z</time>
      </trkpt>
      <trkpt lat="46.02106" lon="6.8085">
        <ele>1338.8000488281</ele>
        <time>2023-09-30T06:37:35.000Z</time>
      </trkpt>
      <trkpt lat="46.02107" lon="6.80851">
        <ele>1339</ele>
        <time>2023-09-30T06:37:36.000Z</time>
      </trkpt>
      <trkpt lat="46.02108" lon="6.80851">
        <ele>1339.1999511719</ele>
        <time>2023-09-30T06:37:37.000Z</time>
      </trkpt>
      <trkpt lat="46.02109" lon="6.80852">
        <ele>1339.1999511719</ele>
        <time>2023-09-30T06:37:38.000Z</time>
      </trkpt>
      <trkpt lat="46.0211" lon="6.80853">
        <ele>1339.4000244141</ele>
        <time>2023-09-30T06:37:39.000Z</time>
      </trkpt>
      <trkpt lat="46.0211" lon="6.80854">
        <ele>1339.4000244141</ele>
        <time>2023-09-30T06:37:40.000Z</time>
      </trkpt>
      <trkpt lat="46.02111" lon="6.80855">
        <ele>1339.5999755859</ele>
        <time>2023-09-30T06:37:41.000Z</time>
      </trkpt>
      <trkpt lat="46.02112" lon="6.80856">
        <ele>1339.5999755859</ele>
        <time>2023-09-30T06:37:42.000Z</time>
      </trkpt>
      <trkpt lat="46.02113" lon="6.80858">
        <ele>1339.8000488281</ele>
        <time>2023-09-30T06:37:43.000Z</time>
      </trkpt>
      <trkpt lat="46.02113" lon="6.8086">
        <ele>1340</ele>
        <time>2023-09-30T06:37:44.000Z</time>
      </trkpt>
      <trkpt lat="46.02114" lon="6.80863">
        <ele>1340.1999511719</ele>
        <time>2023-09-30T06:37:45.000Z</time>
      </trkpt>
      <trkpt lat="46.02114" lon="6.80865">
        <ele>1340.1999511719</ele>
        <time>2023-09-30T06:37:46.000Z</time>
      </trkpt>
      <trkpt lat="46.02115" lon="6.80868">
        <ele>1340.4000244141</ele>
        <time>2023-09-30T06:37:47.000Z</time>
      </trkpt>
      <trkpt lat="46.02116" lon="6.8087">
        <ele>1340.4000244141</ele>
        <time>2023-09-30T06:37:48.000Z</time>
      </trkpt>
      <trkpt lat="46.02117" lon="6.80873">
        <ele>1340.5999755859</ele>
        <time>2023-09-30T06:37:49.000Z</time>
      </trkpt>
      <trkpt lat="46.02117" lon="6.80875">
        <ele>1340.5999755859</ele>
        <time>2023-09-30T06:37:50.000Z</time>
      </trkpt>
      <trkpt lat="46.02117" lon="6.80876">
        <ele>1340.8000488281</ele>
        <time>2023-09-30T06:37:51.000Z</time>
      </trkpt>
      <trkpt lat="46.02117" lon="6.80879">
        <ele>1341</ele>
        <time>2023-09-30T06:37:52.000Z</time>
      </trkpt>
      <trkpt lat="46.02117" lon="6.80881">
        <ele>1341.1999511719</ele>
        <time>2023-09-30T06:37:53.000Z</time>
      </trkpt>
      <trkpt lat="46.02118" lon="6.80882">
        <ele>1341.1999511719</ele>
        <time>2023-09-30T06:37:54.000Z</time>
      </trkpt>
      <trkpt lat="46.02118" lon="6.80884">
        <ele>1341.1999511719</ele>
        <time>2023-09-30T06:37:55.000Z</time>
      </trkpt>
      <trkpt lat="46.02118" lon="6.80885">
        <ele>1341.1999511719</ele>
        <time>2023-09-30T06:37:56.000Z</time>
      </trkpt>
      <trkpt lat="46.02118" lon="6.80888">
        <ele>1341.4000244141</ele>
        <time>2023-09-30T06:37:57.000Z</time>
      </trkpt>
      <trkpt lat="46.02118" lon="6.8089">
        <ele>1341.5999755859</ele>
        <time>2023-09-30T06:37:58.000Z</time>
      </trkpt>
      <trkpt lat="46.02118" lon="6.80892">
        <ele>1341.8000488281</ele>
        <time>2023-09-30T06:37:59.000Z</time>
      </trkpt>
      <trkpt lat="46.02118" lon="6.80894">
        <ele>1342</ele>
        <time>2023-09-30T06:38:00.000Z</time>
      </trkpt>
      <trkpt lat="46.02118" lon="6.80896">
        <ele>1342.1999511719</ele>
        <time>2023-09-30T06:38:01.000Z</time>
      </trkpt>
      <trkpt lat="46.02118" lon="6.80898">
        <ele>1342.4000244141</ele>
        <time>2023-09-30T06:38:02.000Z</time>
      </trkpt>
      <trkpt lat="46.02117" lon="6.80901">
        <ele>1342.4000244141</ele>
        <time>2023-09-30T06:38:03.000Z</time>
      </trkpt>
      <trkpt lat="46.02117" lon="6.80902">
        <ele>1342.8000488281</ele>
        <time>2023-09-30T06:38:04.000Z</time>
      </trkpt>
      <trkpt lat="46.02117" lon="6.80904">
        <ele>1343</ele>
        <time>2023-09-30T06:38:05.000Z</time>
      </trkpt>
      <trkpt lat="46.02117" lon="6.80907">
        <ele>1343.1999511719</ele>
        <time>2023-09-30T06:38:06.000Z</time>
      </trkpt>
      <trkpt lat="46.02118" lon="6.80907">
        <ele>1343.5999755859</ele>
        <time>2023-09-30T06:38:07.000Z</time>
      </trkpt>
      <trkpt lat="46.02118" lon="6.80909">
        <ele>1343.5999755859</ele>
        <time>2023-09-30T06:38:08.000Z</time>
      </trkpt>
      <trkpt lat="46.02118" lon="6.80911">
        <ele>1343.5999755859</ele>
        <time>2023-09-30T06:38:09.000Z</time>
      </trkpt>
      <trkpt lat="46.02117" lon="6.80912">
        <ele>1343.8000488281</ele>
        <time>2023-09-30T06:38:10.000Z</time>
      </trkpt>
      <trkpt lat="46.02116" lon="6.80915">
        <ele>1344</ele>
        <time>2023-09-30T06:38:11.000Z</time>
      </trkpt>
      <trkpt lat="46.02116" lon="6.80917">
        <ele>1344.4000244141</ele>
        <time>2023-09-30T06:38:12.000Z</time>
      </trkpt>
      <trkpt lat="46.02116" lon="6.80919">
        <ele>1344.1999511719</ele>
        <time>2023-09-30T06:38:13.000Z</time>
      </trkpt>
      <trkpt lat="46.02115" lon="6.8092">
        <ele>1344.5999755859</ele>
        <time>2023-09-30T06:38:14.000Z</time>
      </trkpt>
      <trkpt lat="46.02115" lon="6.80922">
        <ele>1344.5999755859</ele>
        <time>2023-09-30T06:38:15.000Z</time>
      </trkpt>
      <trkpt lat="46.02114" lon="6.80924">
        <ele>1344.8000488281</ele>
        <time>2023-09-30T06:38:16.000Z</time>
      </trkpt>
      <trkpt lat="46.02114" lon="6.80926">
        <ele>1344.8000488281</ele>
        <time>2023-09-30T06:38:17.000Z</time>
      </trkpt>
      <trkpt lat="46.02113" lon="6.80928">
        <ele>1345</ele>
        <time>2023-09-30T06:38:18.000Z</time>
      </trkpt>
      <trkpt lat="46.02113" lon="6.80929">
        <ele>1345.1999511719</ele>
        <time>2023-09-30T06:38:19.000Z</time>
      </trkpt>
      <trkpt lat="46.02113" lon="6.8093">
        <ele>1345.4000244141</ele>
        <time>2023-09-30T06:38:20.000Z</time>
      </trkpt>
      <trkpt lat="46.02113" lon="6.80932">
        <ele>1345.4000244141</ele>
        <time>2023-09-30T06:38:21.000Z</time>
      </trkpt>
      <trkpt lat="46.02112" lon="6.80933">
        <ele>1345.4000244141</ele>
        <time>2023-09-30T06:38:22.000Z</time>
      </trkpt>
      <trkpt lat="46.02113" lon="6.80935">
        <ele>1345.5999755859</ele>
        <time>2023-09-30T06:38:23.000Z</time>
      </trkpt>
      <trkpt lat="46.02113" lon="6.80937">
        <ele>1345.5999755859</ele>
        <time>2023-09-30T06:38:24.000Z</time>
      </trkpt>
      <trkpt lat="46.02112" lon="6.80939">
        <ele>1345.8000488281</ele>
        <time>2023-09-30T06:38:25.000Z</time>
      </trkpt>
      <trkpt lat="46.02112" lon="6.80941">
        <ele>1346</ele>
        <time>2023-09-30T06:38:26.000Z</time>
      </trkpt>
      <trkpt lat="46.02112" lon="6.80943">
        <ele>1346.1999511719</ele>
        <time>2023-09-30T06:38:27.000Z</time>
      </trkpt>
      <trkpt lat="46.02112" lon="6.80945">
        <ele>1346.1999511719</ele>
        <time>2023-09-30T06:38:28.000Z</time>
      </trkpt>
      <trkpt lat="46.02112" lon="6.80947">
        <ele>1346.1999511719</ele>
        <time>2023-09-30T06:38:29.000Z</time>
      </trkpt>
      <trkpt lat="46.02112" lon="6.80948">
        <ele>1346.1999511719</ele>
        <time>2023-09-30T06:38:30.000Z</time>
      </trkpt>
      <trkpt lat="46.02112" lon="6.8095">
        <ele>1346.4000244141</ele>
        <time>2023-09-30T06:38:31.000Z</time>
      </trkpt>
      <trkpt lat="46.02112" lon="6.80952">
        <ele>1346.4000244141</ele>
        <time>2023-09-30T06:38:32.000Z</time>
      </trkpt>
      <trkpt lat="46.02112" lon="6.80954">
        <ele>1346.5999755859</ele>
        <time>2023-09-30T06:38:33.000Z</time>
      </trkpt>
      <trkpt lat="46.02112" lon="6.80956">
        <ele>1346.5999755859</ele>
        <time>2023-09-30T06:38:34.000Z</time>
      </trkpt>
      <trkpt lat="46.02112" lon="6.80958">
        <ele>1346.8000488281</ele>
        <time>2023-09-30T06:38:35.000Z</time>
      </trkpt>
      <trkpt lat="46.02112" lon="6.8096">
        <ele>1347</ele>
        <time>2023-09-30T06:38:36.000Z</time>
      </trkpt>
      <trkpt lat="46.02113" lon="6.80962">
        <ele>1347.1999511719</ele>
        <time>2023-09-30T06:38:37.000Z</time>
      </trkpt>
      <trkpt lat="46.02113" lon="6.80964">
        <ele>1347.1999511719</ele>
        <time>2023-09-30T06:38:38.000Z</time>
      </trkpt>
      <trkpt lat="46.02113" lon="6.80966">
        <ele>1347.4000244141</ele>
        <time>2023-09-30T06:38:39.000Z</time>
      </trkpt>
      <trkpt lat="46.02114" lon="6.80968">
        <ele>1347.4000244141</ele>
        <time>2023-09-30T06:38:40.000Z</time>
      </trkpt>
      <trkpt lat="46.02115" lon="6.8097">
        <ele>1347.5999755859</ele>
        <time>2023-09-30T06:38:41.000Z</time>
      </trkpt>
      <trkpt lat="46.02115" lon="6.80971">
        <ele>1347.5999755859</ele>
        <time>2023-09-30T06:38:42.000Z</time>
      </trkpt>
      <trkpt lat="46.02115" lon="6.80973">
        <ele>1347.5999755859</ele>
        <time>2023-09-30T06:38:43.000Z</time>
      </trkpt>
      <trkpt lat="46.02116" lon="6.80975">
        <ele>1347.8000488281</ele>
        <time>2023-09-30T06:38:44.000Z</time>
      </trkpt>
      <trkpt lat="46.02116" lon="6.80976">
        <ele>1347.8000488281</ele>
        <time>2023-09-30T06:38:45.000Z</time>
      </trkpt>
      <trkpt lat="46.02117" lon="6.80978">
        <ele>1347.8000488281</ele>
        <time>2023-09-30T06:38:46.000Z</time>
      </trkpt>
      <trkpt lat="46.02118" lon="6.8098">
        <ele>1348</ele>
        <time>2023-09-30T06:38:47.000Z</time>
      </trkpt>
      <trkpt lat="46.02116" lon="6.80982">
        <ele>1348</ele>
        <time>2023-09-30T06:38:48.000Z</time>
      </trkpt>
      <trkpt lat="46.02116" lon="6.80984">
        <ele>1348</ele>
        <time>2023-09-30T06:38:49.000Z</time>
      </trkpt>
      <trkpt lat="46.02115" lon="6.80986">
        <ele>1348.1999511719</ele>
        <time>2023-09-30T06:38:50.000Z</time>
      </trkpt>
      <trkpt lat="46.02115" lon="6.80988">
        <ele>1348</ele>
        <time>2023-09-30T06:38:51.000Z</time>
      </trkpt>
      <trkpt lat="46.02115" lon="6.80991">
        <ele>1348.1999511719</ele>
        <time>2023-09-30T06:38:52.000Z</time>
      </trkpt>
      <trkpt lat="46.02115" lon="6.80993">
        <ele>1348.4000244141</ele>
        <time>2023-09-30T06:38:53.000Z</time>
      </trkpt>
      <trkpt lat="46.02115" lon="6.80995">
        <ele>1348.8000488281</ele>
        <time>2023-09-30T06:38:54.000Z</time>
      </trkpt>
      <trkpt lat="46.02115" lon="6.80998">
        <ele>1349</ele>
        <time>2023-09-30T06:38:55.000Z</time>
      </trkpt>
      <trkpt lat="46.02115" lon="6.80999">
        <ele>1349.4000244141</ele>
        <time>2023-09-30T06:38:56.000Z</time>
      </trkpt>
      <trkpt lat="46.02115" lon="6.81">
        <ele>1349.5999755859</ele>
        <time>2023-09-30T06:38:57.000Z</time>
      </trkpt>
      <trkpt lat="46.02116" lon="6.81001">
        <ele>1349.8000488281</ele>
        <time>2023-09-30T06:38:58.000Z</time>
      </trkpt>
      <trkpt lat="46.02117" lon="6.81002">
        <ele>1350</ele>
        <time>2023-09-30T06:38:59.000Z</time>
      </trkpt>
      <trkpt lat="46.02117" lon="6.81006">
        <ele>1350.4000244141</ele>
        <time>2023-09-30T06:39:00.000Z</time>
      </trkpt>
      <trkpt lat="46.02118" lon="6.81009">
        <ele>1350.5999755859</ele>
        <time>2023-09-30T06:39:01.000Z</time>
      </trkpt>
      <trkpt lat="46.02119" lon="6.81011">
        <ele>1350.8000488281</ele>
        <time>2023-09-30T06:39:02.000Z</time>
      </trkpt>
      <trkpt lat="46.0212" lon="6.81012">
        <ele>1351</ele>
        <time>2023-09-30T06:39:03.000Z</time>
      </trkpt>
      <trkpt lat="46.02121" lon="6.81012">
        <ele>1351</ele>
        <time>2023-09-30T06:39:04.000Z</time>
      </trkpt>
      <trkpt lat="46.02122" lon="6.81011">
        <ele>1351.1999511719</ele>
        <time>2023-09-30T06:39:05.000Z</time>
      </trkpt>
      <trkpt lat="46.02123" lon="6.81009">
        <ele>1351.1999511719</ele>
        <time>2023-09-30T06:39:06.000Z</time>
      </trkpt>
      <trkpt lat="46.02125" lon="6.81007">
        <ele>1351.4000244141</ele>
        <time>2023-09-30T06:39:07.000Z</time>
      </trkpt>
      <trkpt lat="46.02126" lon="6.81005">
        <ele>1351.5999755859</ele>
        <time>2023-09-30T06:39:08.000Z</time>
      </trkpt>
      <trkpt lat="46.02128" lon="6.81003">
        <ele>1351.5999755859</ele>
        <time>2023-09-30T06:39:09.000Z</time>
      </trkpt>
      <trkpt lat="46.02129" lon="6.81001">
        <ele>1351.5999755859</ele>
        <time>2023-09-30T06:39:10.000Z</time>
      </trkpt>
      <trkpt lat="46.0213" lon="6.80999">
        <ele>1351.8000488281</ele>
        <time>2023-09-30T06:39:11.000Z</time>
      </trkpt>
      <trkpt lat="46.02131" lon="6.80998">
        <ele>1351.8000488281</ele>
        <time>2023-09-30T06:39:12.000Z</time>
      </trkpt>
      <trkpt lat="46.02132" lon="6.80996">
        <ele>1351.8000488281</ele>
        <time>2023-09-30T06:39:13.000Z</time>
      </trkpt>
      <trkpt lat="46.02133" lon="6.80994">
        <ele>1351.8000488281</ele>
        <time>2023-09-30T06:39:14.000Z</time>
      </trkpt>
      <trkpt lat="46.02134" lon="6.80992">
        <ele>1351.8000488281</ele>
        <time>2023-09-30T06:39:15.000Z</time>
      </trkpt>
      <trkpt lat="46.02135" lon="6.80991">
        <ele>1352</ele>
        <time>2023-09-30T06:39:16.000Z</time>
      </trkpt>
      <trkpt lat="46.02136" lon="6.80989">
        <ele>1352</ele>
        <time>2023-09-30T06:39:17.000Z</time>
      </trkpt>
      <trkpt lat="46.02137" lon="6.80988">
        <ele>1352</ele>
        <time>2023-09-30T06:39:18.000Z</time>
      </trkpt>
      <trkpt lat="46.02138" lon="6.80986">
        <ele>1352.1999511719</ele>
        <time>2023-09-30T06:39:19.000Z</time>
      </trkpt>
      <trkpt lat="46.02138" lon="6.80984">
        <ele>1352.1999511719</ele>
        <time>2023-09-30T06:39:20.000Z</time>
      </trkpt>
      <trkpt lat="46.02139" lon="6.80983">
        <ele>1352.1999511719</ele>
        <time>2023-09-30T06:39:21.000Z</time>
      </trkpt>
      <trkpt lat="46.0214" lon="6.80981">
        <ele>1352.4000244141</ele>
        <time>2023-09-30T06:39:22.000Z</time>
      </trkpt>
      <trkpt lat="46.02141" lon="6.8098">
        <ele>1352.4000244141</ele>
        <time>2023-09-30T06:39:23.000Z</time>
      </trkpt>
      <trkpt lat="46.02142" lon="6.80979">
        <ele>1352.8000488281</ele>
        <time>2023-09-30T06:39:24.000Z</time>
      </trkpt>
      <trkpt lat="46.02143" lon="6.80977">
        <ele>1352.8000488281</ele>
        <time>2023-09-30T06:39:25.000Z</time>
      </trkpt>
      <trkpt lat="46.02144" lon="6.80976">
        <ele>1353.1999511719</ele>
        <time>2023-09-30T06:39:26.000Z</time>
      </trkpt>
      <trkpt lat="46.02145" lon="6.80975">
        <ele>1353.1999511719</ele>
        <time>2023-09-30T06:39:27.000Z</time>
      </trkpt>
      <trkpt lat="46.02146" lon="6.80974">
        <ele>1353.4000244141</ele>
        <time>2023-09-30T06:39:28.000Z</time>
      </trkpt>
      <trkpt lat="46.02147" lon="6.80972">
        <ele>1353.5999755859</ele>
        <time>2023-09-30T06:39:29.000Z</time>
      </trkpt>
      <trkpt lat="46.02148" lon="6.80972">
        <ele>1353.5999755859</ele>
        <time>2023-09-30T06:39:30.000Z</time>
      </trkpt>
      <trkpt lat="46.02149" lon="6.80971">
        <ele>1353.8000488281</ele>
        <time>2023-09-30T06:39:31.000Z</time>
      </trkpt>
      <trkpt lat="46.0215" lon="6.8097">
        <ele>1354</ele>
        <time>2023-09-30T06:39:32.000Z</time>
      </trkpt>
      <trkpt lat="46.02152" lon="6.80969">
        <ele>1354.4000244141</ele>
        <time>2023-09-30T06:39:33.000Z</time>
      </trkpt>
      <trkpt lat="46.02153" lon="6.80969">
        <ele>1354.4000244141</ele>
        <time>2023-09-30T06:39:34.000Z</time>
      </trkpt>
      <trkpt lat="46.02155" lon="6.80967">
        <ele>1354.5999755859</ele>
        <time>2023-09-30T06:39:35.000Z</time>
      </trkpt>
      <trkpt lat="46.02156" lon="6.80968">
        <ele>1354.8000488281</ele>
        <time>2023-09-30T06:39:36.000Z</time>
      </trkpt>
      <trkpt lat="46.02157" lon="6.80968">
        <ele>1354.8000488281</ele>
        <time>2023-09-30T06:39:37.000Z</time>
      </trkpt>
      <trkpt lat="46.02158" lon="6.80969">
        <ele>1355</ele>
        <time>2023-09-30T06:39:38.000Z</time>
      </trkpt>
      <trkpt lat="46.02159" lon="6.8097">
        <ele>1355.1999511719</ele>
        <time>2023-09-30T06:39:39.000Z</time>
      </trkpt>
      <trkpt lat="46.0216" lon="6.80969">
        <ele>1355</ele>
        <time>2023-09-30T06:39:40.000Z</time>
      </trkpt>
      <trkpt lat="46.02161" lon="6.8097">
        <ele>1355.1999511719</ele>
        <time>2023-09-30T06:39:41.000Z</time>
      </trkpt>
      <trkpt lat="46.02162" lon="6.8097">
        <ele>1355.1999511719</ele>
        <time>2023-09-30T06:39:42.000Z</time>
      </trkpt>
      <trkpt lat="46.02162" lon="6.80971">
        <ele>1355.4000244141</ele>
        <time>2023-09-30T06:39:43.000Z</time>
      </trkpt>
      <trkpt lat="46.02163" lon="6.80973">
        <ele>1355.4000244141</ele>
        <time>2023-09-30T06:39:44.000Z</time>
      </trkpt>
      <trkpt lat="46.02163" lon="6.80974">
        <ele>1355.5999755859</ele>
        <time>2023-09-30T06:39:45.000Z</time>
      </trkpt>
      <trkpt lat="46.02164" lon="6.80974">
        <ele>1355.8000488281</ele>
        <time>2023-09-30T06:39:46.000Z</time>
      </trkpt>
      <trkpt lat="46.02165" lon="6.80975">
        <ele>1355.5999755859</ele>
        <time>2023-09-30T06:39:47.000Z</time>
      </trkpt>
      <trkpt lat="46.02166" lon="6.80975">
        <ele>1355.8000488281</ele>
        <time>2023-09-30T06:39:48.000Z</time>
      </trkpt>
      <trkpt lat="46.02167" lon="6.80975">
        <ele>1355.8000488281</ele>
        <time>2023-09-30T06:39:49.000Z</time>
      </trkpt>
      <trkpt lat="46.02169" lon="6.80975">
        <ele>1356</ele>
        <time>2023-09-30T06:39:50.000Z</time>
      </trkpt>
      <trkpt lat="46.02169" lon="6.80975">
        <ele>1356</ele>
        <time>2023-09-30T06:39:51.000Z</time>
      </trkpt>
      <trkpt lat="46.0217" lon="6.80975">
        <ele>1356.1999511719</ele>
        <time>2023-09-30T06:39:52.000Z</time>
      </trkpt>
      <trkpt lat="46.02171" lon="6.80976">
        <ele>1356</ele>
        <time>2023-09-30T06:39:53.000Z</time>
      </trkpt>
      <trkpt lat="46.02172" lon="6.80977">
        <ele>1356.1999511719</ele>
        <time>2023-09-30T06:39:54.000Z</time>
      </trkpt>
      <trkpt lat="46.02174" lon="6.80977">
        <ele>1356.4000244141</ele>
        <time>2023-09-30T06:39:55.000Z</time>
      </trkpt>
      <trkpt lat="46.02175" lon="6.80978">
        <ele>1356.4000244141</ele>
        <time>2023-09-30T06:39:56.000Z</time>
      </trkpt>
      <trkpt lat="46.02176" lon="6.80979">
        <ele>1356.5999755859</ele>
        <time>2023-09-30T06:39:57.000Z</time>
      </trkpt>
      <trkpt lat="46.02177" lon="6.8098">
        <ele>1356.5999755859</ele>
        <time>2023-09-30T06:39:58.000Z</time>
      </trkpt>
      <trkpt lat="46.02178" lon="6.80981">
        <ele>1356.8000488281</ele>
        <time>2023-09-30T06:39:59.000Z</time>
      </trkpt>
      <trkpt lat="46.02179" lon="6.80983">
        <ele>1356.8000488281</ele>
        <time>2023-09-30T06:40:00.000Z</time>
      </trkpt>
      <trkpt lat="46.0218" lon="6.80984">
        <ele>1357</ele>
        <time>2023-09-30T06:40:01.000Z</time>
      </trkpt>
      <trkpt lat="46.02181" lon="6.80986">
        <ele>1357.1999511719</ele>
        <time>2023-09-30T06:40:02.000Z</time>
      </trkpt>
      <trkpt lat="46.02181" lon="6.80988">
        <ele>1357.4000244141</ele>
        <time>2023-09-30T06:40:03.000Z</time>
      </trkpt>
      <trkpt lat="46.02181" lon="6.80991">
        <ele>1357.4000244141</ele>
        <time>2023-09-30T06:40:05.000Z</time>
      </trkpt>
      <trkpt lat="46.02181" lon="6.80992">
        <ele>1357.5999755859</ele>
        <time>2023-09-30T06:40:06.000Z</time>
      </trkpt>
      <trkpt lat="46.02182" lon="6.80992">
        <ele>1357.5999755859</ele>
        <time>2023-09-30T06:40:07.000Z</time>
      </trkpt>
      <trkpt lat="46.02182" lon="6.80992">
        <ele>1358</ele>
        <time>2023-09-30T06:40:13.000Z</time>
      </trkpt>
      <trkpt lat="46.02181" lon="6.80992">
        <ele>1358</ele>
        <time>2023-09-30T06:40:30.000Z</time>
      </trkpt>
      <trkpt lat="46.0218" lon="6.80997">
        <ele>1358.1999511719</ele>
        <time>2023-09-30T06:40:32.000Z</time>
      </trkpt>
      <trkpt lat="46.02179" lon="6.80998">
        <ele>1358.1999511719</ele>
        <time>2023-09-30T06:40:33.000Z</time>
      </trkpt>
      <trkpt lat="46.02179" lon="6.81">
        <ele>1358.1999511719</ele>
        <time>2023-09-30T06:40:34.000Z</time>
      </trkpt>
      <trkpt lat="46.02178" lon="6.81001">
        <ele>1358.4000244141</ele>
        <time>2023-09-30T06:40:35.000Z</time>
      </trkpt>
      <trkpt lat="46.02177" lon="6.81003">
        <ele>1358.5999755859</ele>
        <time>2023-09-30T06:40:36.000Z</time>
      </trkpt>
      <trkpt lat="46.02175" lon="6.81005">
        <ele>1358.8000488281</ele>
        <time>2023-09-30T06:40:38.000Z</time>
      </trkpt>
      <trkpt lat="46.02174" lon="6.81007">
        <ele>1359</ele>
        <time>2023-09-30T06:40:40.000Z</time>
      </trkpt>
      <trkpt lat="46.02173" lon="6.81009">
        <ele>1359.1999511719</ele>
        <time>2023-09-30T06:40:41.000Z</time>
      </trkpt>
      <trkpt lat="46.0217" lon="6.81012">
        <ele>1359.4000244141</ele>
        <time>2023-09-30T06:40:44.000Z</time>
      </trkpt>
      <trkpt lat="46.02168" lon="6.81013">
        <ele>1359.5999755859</ele>
        <time>2023-09-30T06:40:45.000Z</time>
      </trkpt>
      <trkpt lat="46.02167" lon="6.81013">
        <ele>1359.5999755859</ele>
        <time>2023-09-30T06:40:46.000Z</time>
      </trkpt>
      <trkpt lat="46.02161" lon="6.81015">
        <ele>1360.1999511719</ele>
        <time>2023-09-30T06:40:50.000Z</time>
      </trkpt>
      <trkpt lat="46.02156" lon="6.81013">
        <ele>1361</ele>
        <time>2023-09-30T06:40:53.000Z</time>
      </trkpt>
      <trkpt lat="46.02152" lon="6.81011">
        <ele>1361.1999511719</ele>
        <time>2023-09-30T06:40:56.000Z</time>
      </trkpt>
      <trkpt lat="46.02151" lon="6.81011">
        <ele>1361.4000244141</ele>
        <time>2023-09-30T06:40:57.000Z</time>
      </trkpt>
      <trkpt lat="46.02149" lon="6.81011">
        <ele>1361.5999755859</ele>
        <time>2023-09-30T06:40:58.000Z</time>
      </trkpt>
      <trkpt lat="46.02148" lon="6.81011">
        <ele>1361.5999755859</ele>
        <time>2023-09-30T06:40:59.000Z</time>
      </trkpt>
      <trkpt lat="46.02146" lon="6.81012">
        <ele>1361.8000488281</ele>
        <time>2023-09-30T06:41:00.000Z</time>
      </trkpt>
      <trkpt lat="46.02145" lon="6.81012">
        <ele>1361.8000488281</ele>
        <time>2023-09-30T06:41:01.000Z</time>
      </trkpt>
      <trkpt lat="46.02143" lon="6.81013">
        <ele>1361.8000488281</ele>
        <time>2023-09-30T06:41:02.000Z</time>
      </trkpt>
      <trkpt lat="46.02142" lon="6.81014">
        <ele>1362</ele>
        <time>2023-09-30T06:41:03.000Z</time>
      </trkpt>
      <trkpt lat="46.02141" lon="6.81016">
        <ele>1362</ele>
        <time>2023-09-30T06:41:04.000Z</time>
      </trkpt>
      <trkpt lat="46.02141" lon="6.81019">
        <ele>1362.4000244141</ele>
        <time>2023-09-30T06:41:05.000Z</time>
      </trkpt>
      <trkpt lat="46.02141" lon="6.8102">
        <ele>1362.4000244141</ele>
        <time>2023-09-30T06:41:06.000Z</time>
      </trkpt>
      <trkpt lat="46.02142" lon="6.81022">
        <ele>1362.5999755859</ele>
        <time>2023-09-30T06:41:07.000Z</time>
      </trkpt>
      <trkpt lat="46.02143" lon="6.81024">
        <ele>1362.8000488281</ele>
        <time>2023-09-30T06:41:08.000Z</time>
      </trkpt>
      <trkpt lat="46.02144" lon="6.81026">
        <ele>1363</ele>
        <time>2023-09-30T06:41:09.000Z</time>
      </trkpt>
      <trkpt lat="46.02145" lon="6.81028">
        <ele>1363</ele>
        <time>2023-09-30T06:41:10.000Z</time>
      </trkpt>
      <trkpt lat="46.02147" lon="6.81029">
        <ele>1363.1999511719</ele>
        <time>2023-09-30T06:41:11.000Z</time>
      </trkpt>
      <trkpt lat="46.02148" lon="6.81029">
        <ele>1363.4000244141</ele>
        <time>2023-09-30T06:41:12.000Z</time>
      </trkpt>
      <trkpt lat="46.0215" lon="6.8103">
        <ele>1363.4000244141</ele>
        <time>2023-09-30T06:41:13.000Z</time>
      </trkpt>
      <trkpt lat="46.02151" lon="6.8103">
        <ele>1363.5999755859</ele>
        <time>2023-09-30T06:41:14.000Z</time>
      </trkpt>
      <trkpt lat="46.02153" lon="6.81031">
        <ele>1363.8000488281</ele>
        <time>2023-09-30T06:41:15.000Z</time>
      </trkpt>
      <trkpt lat="46.02153" lon="6.81032">
        <ele>1364</ele>
        <time>2023-09-30T06:41:16.000Z</time>
      </trkpt>
      <trkpt lat="46.02154" lon="6.81033">
        <ele>1364.1999511719</ele>
        <time>2023-09-30T06:41:17.000Z</time>
      </trkpt>
      <trkpt lat="46.02156" lon="6.81034">
        <ele>1364.5999755859</ele>
        <time>2023-09-30T06:41:18.000Z</time>
      </trkpt>
      <trkpt lat="46.02157" lon="6.81035">
        <ele>1364.8000488281</ele>
        <time>2023-09-30T06:41:19.000Z</time>
      </trkpt>
      <trkpt lat="46.02158" lon="6.81036">
        <ele>1365</ele>
        <time>2023-09-30T06:41:20.000Z</time>
      </trkpt>
      <trkpt lat="46.02158" lon="6.81037">
        <ele>1365.1999511719</ele>
        <time>2023-09-30T06:41:21.000Z</time>
      </trkpt>
      <trkpt lat="46.02159" lon="6.81039">
        <ele>1365.1999511719</ele>
        <time>2023-09-30T06:41:22.000Z</time>
      </trkpt>
      <trkpt lat="46.0216" lon="6.81041">
        <ele>1365.4000244141</ele>
        <time>2023-09-30T06:41:23.000Z</time>
      </trkpt>
      <trkpt lat="46.0216" lon="6.81042">
        <ele>1365.5999755859</ele>
        <time>2023-09-30T06:41:24.000Z</time>
      </trkpt>
      <trkpt lat="46.0216" lon="6.81044">
        <ele>1365.5999755859</ele>
        <time>2023-09-30T06:41:25.000Z</time>
      </trkpt>
      <trkpt lat="46.0216" lon="6.81046">
        <ele>1366</ele>
        <time>2023-09-30T06:41:26.000Z</time>
      </trkpt>
      <trkpt lat="46.0216" lon="6.81048">
        <ele>1366</ele>
        <time>2023-09-30T06:41:27.000Z</time>
      </trkpt>
      <trkpt lat="46.0216" lon="6.8105">
        <ele>1366.1999511719</ele>
        <time>2023-09-30T06:41:28.000Z</time>
      </trkpt>
      <trkpt lat="46.02161" lon="6.81051">
        <ele>1366.4000244141</ele>
        <time>2023-09-30T06:41:29.000Z</time>
      </trkpt>
      <trkpt lat="46.0216" lon="6.81052">
        <ele>1366.5999755859</ele>
        <time>2023-09-30T06:41:30.000Z</time>
      </trkpt>
      <trkpt lat="46.0216" lon="6.81053">
        <ele>1366.5999755859</ele>
        <time>2023-09-30T06:41:31.000Z</time>
      </trkpt>
      <trkpt lat="46.0216" lon="6.81053">
        <ele>1367</ele>
        <time>2023-09-30T06:41:34.000Z</time>
      </trkpt>
      <trkpt lat="46.02159" lon="6.81056">
        <ele>1367.8000488281</ele>
        <time>2023-09-30T06:46:55.000Z</time>
      </trkpt>
      <trkpt lat="46.02158" lon="6.81058">
        <ele>1367.5999755859</ele>
        <time>2023-09-30T06:46:56.000Z</time>
      </trkpt>
      <trkpt lat="46.02157" lon="6.81059">
        <ele>1367.5999755859</ele>
        <time>2023-09-30T06:46:57.000Z</time>
      </trkpt>
      <trkpt lat="46.02155" lon="6.81062">
        <ele>1368</ele>
        <time>2023-09-30T06:46:59.000Z</time>
      </trkpt>
      <trkpt lat="46.02155" lon="6.81064">
        <ele>1368.1999511719</ele>
        <time>2023-09-30T06:47:00.000Z</time>
      </trkpt>
      <trkpt lat="46.02154" lon="6.81065">
        <ele>1368.4000244141</ele>
        <time>2023-09-30T06:47:01.000Z</time>
      </trkpt>
      <trkpt lat="46.02154" lon="6.81067">
        <ele>1368.4000244141</ele>
        <time>2023-09-30T06:47:02.000Z</time>
      </trkpt>
      <trkpt lat="46.02153" lon="6.81068">
        <ele>1368.5999755859</ele>
        <time>2023-09-30T06:47:03.000Z</time>
      </trkpt>
      <trkpt lat="46.02153" lon="6.81069">
        <ele>1368.5999755859</ele>
        <time>2023-09-30T06:47:04.000Z</time>
      </trkpt>
      <trkpt lat="46.02152" lon="6.81071">
        <ele>1368.8000488281</ele>
        <time>2023-09-30T06:47:05.000Z</time>
      </trkpt>
      <trkpt lat="46.02148" lon="6.81076">
        <ele>1369.1999511719</ele>
        <time>2023-09-30T06:47:09.000Z</time>
      </trkpt>
      <trkpt lat="46.02144" lon="6.81079">
        <ele>1369.8000488281</ele>
        <time>2023-09-30T06:47:12.000Z</time>
      </trkpt>
      <trkpt lat="46.02143" lon="6.81079">
        <ele>1369.8000488281</ele>
        <time>2023-09-30T06:47:13.000Z</time>
      </trkpt>
      <trkpt lat="46.02142" lon="6.81079">
        <ele>1370</ele>
        <time>2023-09-30T06:47:14.000Z</time>
      </trkpt>
      <trkpt lat="46.02138" lon="6.81076">
        <ele>1370.5999755859</ele>
        <time>2023-09-30T06:47:17.000Z</time>
      </trkpt>
      <trkpt lat="46.02137" lon="6.81075">
        <ele>1370.8000488281</ele>
        <time>2023-09-30T06:47:18.000Z</time>
      </trkpt>
      <trkpt lat="46.02136" lon="6.81073">
        <ele>1371</ele>
        <time>2023-09-30T06:47:19.000Z</time>
      </trkpt>
      <trkpt lat="46.02135" lon="6.81072">
        <ele>1371.1999511719</ele>
        <time>2023-09-30T06:47:20.000Z</time>
      </trkpt>
      <trkpt lat="46.02134" lon="6.8107">
        <ele>1371.4000244141</ele>
        <time>2023-09-30T06:47:21.000Z</time>
      </trkpt>
      <trkpt lat="46.02133" lon="6.81068">
        <ele>1371.4000244141</ele>
        <time>2023-09-30T06:47:22.000Z</time>
      </trkpt>
      <trkpt lat="46.02132" lon="6.81067">
        <ele>1371.5999755859</ele>
        <time>2023-09-30T06:47:23.000Z</time>
      </trkpt>
      <trkpt lat="46.02132" lon="6.81066">
        <ele>1371.5999755859</ele>
        <time>2023-09-30T06:47:24.000Z</time>
      </trkpt>
      <trkpt lat="46.02131" lon="6.81064">
        <ele>1372</ele>
        <time>2023-09-30T06:47:25.000Z</time>
      </trkpt>
      <trkpt lat="46.02131" lon="6.81062">
        <ele>1372.1999511719</ele>
        <time>2023-09-30T06:47:26.000Z</time>
      </trkpt>
      <trkpt lat="46.0213" lon="6.81061">
        <ele>1372.1999511719</ele>
        <time>2023-09-30T06:47:27.000Z</time>
      </trkpt>
      <trkpt lat="46.02129" lon="6.81059">
        <ele>1372.4000244141</ele>
        <time>2023-09-30T06:47:28.000Z</time>
      </trkpt>
      <trkpt lat="46.02128" lon="6.81059">
        <ele>1372.5999755859</ele>
        <time>2023-09-30T06:47:29.000Z</time>
      </trkpt>
      <trkpt lat="46.02127" lon="6.81058">
        <ele>1372.8000488281</ele>
        <time>2023-09-30T06:47:30.000Z</time>
      </trkpt>
      <trkpt lat="46.02126" lon="6.81057">
        <ele>1372.8000488281</ele>
        <time>2023-09-30T06:47:31.000Z</time>
      </trkpt>
      <trkpt lat="46.02125" lon="6.81057">
        <ele>1373</ele>
        <time>2023-09-30T06:47:32.000Z</time>
      </trkpt>
      <trkpt lat="46.02124" lon="6.81056">
        <ele>1373.4000244141</ele>
        <time>2023-09-30T06:47:33.000Z</time>
      </trkpt>
      <trkpt lat="46.02122" lon="6.81057">
        <ele>1373.4000244141</ele>
        <time>2023-09-30T06:47:34.000Z</time>
      </trkpt>
      <trkpt lat="46.02121" lon="6.81057">
        <ele>1373.5999755859</ele>
        <time>2023-09-30T06:47:35.000Z</time>
      </trkpt>
      <trkpt lat="46.0212" lon="6.81058">
        <ele>1373.5999755859</ele>
        <time>2023-09-30T06:47:36.000Z</time>
      </trkpt>
      <trkpt lat="46.02119" lon="6.81059">
        <ele>1373.8000488281</ele>
        <time>2023-09-30T06:47:37.000Z</time>
      </trkpt>
      <trkpt lat="46.02118" lon="6.8106">
        <ele>1374</ele>
        <time>2023-09-30T06:47:38.000Z</time>
      </trkpt>
      <trkpt lat="46.02116" lon="6.81061">
        <ele>1374.1999511719</ele>
        <time>2023-09-30T06:47:39.000Z</time>
      </trkpt>
      <trkpt lat="46.02115" lon="6.81062">
        <ele>1374.4000244141</ele>
        <time>2023-09-30T06:47:40.000Z</time>
      </trkpt>
      <trkpt lat="46.02114" lon="6.81063">
        <ele>1374.5999755859</ele>
        <time>2023-09-30T06:47:41.000Z</time>
      </trkpt>
      <trkpt lat="46.02113" lon="6.81064">
        <ele>1374.5999755859</ele>
        <time>2023-09-30T06:47:42.000Z</time>
      </trkpt>
      <trkpt lat="46.02112" lon="6.81065">
        <ele>1374.8000488281</ele>
        <time>2023-09-30T06:47:43.000Z</time>
      </trkpt>
      <trkpt lat="46.02111" lon="6.81066">
        <ele>1374.8000488281</ele>
        <time>2023-09-30T06:47:44.000Z</time>
      </trkpt>
      <trkpt lat="46.0211" lon="6.81068">
        <ele>1375</ele>
        <time>2023-09-30T06:47:45.000Z</time>
      </trkpt>
      <trkpt lat="46.02109" lon="6.81069">
        <ele>1375</ele>
        <time>2023-09-30T06:47:46.000Z</time>
      </trkpt>
      <trkpt lat="46.02107" lon="6.81071">
        <ele>1375</ele>
        <time>2023-09-30T06:47:47.000Z</time>
      </trkpt>
      <trkpt lat="46.02106" lon="6.81073">
        <ele>1375</ele>
        <time>2023-09-30T06:47:48.000Z</time>
      </trkpt>
      <trkpt lat="46.02105" lon="6.81074">
        <ele>1375.1999511719</ele>
        <time>2023-09-30T06:47:49.000Z</time>
      </trkpt>
      <trkpt lat="46.02104" lon="6.81076">
        <ele>1375.1999511719</ele>
        <time>2023-09-30T06:47:50.000Z</time>
      </trkpt>
      <trkpt lat="46.02102" lon="6.81078">
        <ele>1375.1999511719</ele>
        <time>2023-09-30T06:47:51.000Z</time>
      </trkpt>
      <trkpt lat="46.02102" lon="6.8108">
        <ele>1375.4000244141</ele>
        <time>2023-09-30T06:47:52.000Z</time>
      </trkpt>
      <trkpt lat="46.021" lon="6.81082">
        <ele>1375.4000244141</ele>
        <time>2023-09-30T06:47:53.000Z</time>
      </trkpt>
      <trkpt lat="46.02099" lon="6.81084">
        <ele>1375.4000244141</ele>
        <time>2023-09-30T06:47:54.000Z</time>
      </trkpt>
      <trkpt lat="46.02098" lon="6.81086">
        <ele>1375.4000244141</ele>
        <time>2023-09-30T06:47:55.000Z</time>
      </trkpt>
      <trkpt lat="46.02096" lon="6.81088">
        <ele>1375.4000244141</ele>
        <time>2023-09-30T06:47:56.000Z</time>
      </trkpt>
      <trkpt lat="46.02095" lon="6.81089">
        <ele>1375.4000244141</ele>
        <time>2023-09-30T06:47:57.000Z</time>
      </trkpt>
      <trkpt lat="46.02093" lon="6.8109">
        <ele>1375.5999755859</ele>
        <time>2023-09-30T06:47:58.000Z</time>
      </trkpt>
      <trkpt lat="46.02092" lon="6.81092">
        <ele>1375.5999755859</ele>
        <time>2023-09-30T06:47:59.000Z</time>
      </trkpt>
      <trkpt lat="46.0209" lon="6.81094">
        <ele>1375.5999755859</ele>
        <time>2023-09-30T06:48:00.000Z</time>
      </trkpt>
      <trkpt lat="46.0208" lon="6.81101">
        <ele>1376</ele>
        <time>2023-09-30T06:48:06.000Z</time>
      </trkpt>
      <trkpt lat="46.02078" lon="6.81104">
        <ele>1376.1999511719</ele>
        <time>2023-09-30T06:48:08.000Z</time>
      </trkpt>
      <trkpt lat="46.02077" lon="6.81105">
        <ele>1376.1999511719</ele>
        <time>2023-09-30T06:48:09.000Z</time>
      </trkpt>
      <trkpt lat="46.02076" lon="6.81106">
        <ele>1376.4000244141</ele>
        <time>2023-09-30T06:48:10.000Z</time>
      </trkpt>
      <trkpt lat="46.02075" lon="6.81107">
        <ele>1376.4000244141</ele>
        <time>2023-09-30T06:48:11.000Z</time>
      </trkpt>
      <trkpt lat="46.02075" lon="6.81108">
        <ele>1376.5999755859</ele>
        <time>2023-09-30T06:48:12.000Z</time>
      </trkpt>
      <trkpt lat="46.02074" lon="6.81109">
        <ele>1377</ele>
        <time>2023-09-30T06:48:13.000Z</time>
      </trkpt>
      <trkpt lat="46.02071" lon="6.81114">
        <ele>1377.5999755859</ele>
        <time>2023-09-30T06:48:16.000Z</time>
      </trkpt>
      <trkpt lat="46.02071" lon="6.81116">
        <ele>1377.8000488281</ele>
        <time>2023-09-30T06:48:17.000Z</time>
      </trkpt>
      <trkpt lat="46.0207" lon="6.81117">
        <ele>1378</ele>
        <time>2023-09-30T06:48:18.000Z</time>
      </trkpt>
      <trkpt lat="46.02069" lon="6.81119">
        <ele>1378.1999511719</ele>
        <time>2023-09-30T06:48:19.000Z</time>
      </trkpt>
      <trkpt lat="46.02068" lon="6.8112">
        <ele>1378.5999755859</ele>
        <time>2023-09-30T06:48:20.000Z</time>
      </trkpt>
      <trkpt lat="46.02067" lon="6.8112">
        <ele>1378.5999755859</ele>
        <time>2023-09-30T06:48:21.000Z</time>
      </trkpt>
      <trkpt lat="46.02065" lon="6.81121">
        <ele>1378.8000488281</ele>
        <time>2023-09-30T06:48:22.000Z</time>
      </trkpt>
      <trkpt lat="46.02064" lon="6.81122">
        <ele>1378.8000488281</ele>
        <time>2023-09-30T06:48:23.000Z</time>
      </trkpt>
      <trkpt lat="46.02062" lon="6.81122">
        <ele>1379</ele>
        <time>2023-09-30T06:48:24.000Z</time>
      </trkpt>
      <trkpt lat="46.02061" lon="6.81122">
        <ele>1379.4000244141</ele>
        <time>2023-09-30T06:48:25.000Z</time>
      </trkpt>
      <trkpt lat="46.0206" lon="6.81123">
        <ele>1379.5999755859</ele>
        <time>2023-09-30T06:48:26.000Z</time>
      </trkpt>
      <trkpt lat="46.02058" lon="6.81123">
        <ele>1379.8000488281</ele>
        <time>2023-09-30T06:48:27.000Z</time>
      </trkpt>
      <trkpt lat="46.02057" lon="6.81124">
        <ele>1380</ele>
        <time>2023-09-30T06:48:28.000Z</time>
      </trkpt>
      <trkpt lat="46.02056" lon="6.81123">
        <ele>1380.1999511719</ele>
        <time>2023-09-30T06:48:29.000Z</time>
      </trkpt>
      <trkpt lat="46.02055" lon="6.81121">
        <ele>1380.4000244141</ele>
        <time>2023-09-30T06:48:30.000Z</time>
      </trkpt>
      <trkpt lat="46.02055" lon="6.81119">
        <ele>1380.5999755859</ele>
        <time>2023-09-30T06:48:31.000Z</time>
      </trkpt>
      <trkpt lat="46.02056" lon="6.81116">
        <ele>1380.5999755859</ele>
        <time>2023-09-30T06:48:32.000Z</time>
      </trkpt>
      <trkpt lat="46.02057" lon="6.81112">
        <ele>1380.5999755859</ele>
        <time>2023-09-30T06:48:33.000Z</time>
      </trkpt>
      <trkpt lat="46.02059" lon="6.81108">
        <ele>1380.8000488281</ele>
        <time>2023-09-30T06:48:34.000Z</time>
      </trkpt>
      <trkpt lat="46.02061" lon="6.81102">
        <ele>1380.8000488281</ele>
        <time>2023-09-30T06:48:35.000Z</time>
      </trkpt>
      <trkpt lat="46.02063" lon="6.81096">
        <ele>1380.8000488281</ele>
        <time>2023-09-30T06:48:36.000Z</time>
      </trkpt>
      <trkpt lat="46.02065" lon="6.8109">
        <ele>1380.5999755859</ele>
        <time>2023-09-30T06:48:37.000Z</time>
      </trkpt>
      <trkpt lat="46.02066" lon="6.81085">
        <ele>1380.4000244141</ele>
        <time>2023-09-30T06:48:38.000Z</time>
      </trkpt>
      <trkpt lat="46.02067" lon="6.8108">
        <ele>1380.1999511719</ele>
        <time>2023-09-30T06:48:39.000Z</time>
      </trkpt>
      <trkpt lat="46.02068" lon="6.81075">
        <ele>1380</ele>
        <time>2023-09-30T06:48:40.000Z</time>
      </trkpt>
      <trkpt lat="46.02068" lon="6.81072">
        <ele>1380</ele>
        <time>2023-09-30T06:48:41.000Z</time>
      </trkpt>
      <trkpt lat="46.02068" lon="6.81068">
        <ele>1380</ele>
        <time>2023-09-30T06:48:42.000Z</time>
      </trkpt>
      <trkpt lat="46.02067" lon="6.81065">
        <ele>1380</ele>
        <time>2023-09-30T06:48:43.000Z</time>
      </trkpt>
      <trkpt lat="46.02067" lon="6.81062">
        <ele>1380</ele>
        <time>2023-09-30T06:48:44.000Z</time>
      </trkpt>
      <trkpt lat="46.02066" lon="6.81059">
        <ele>1380</ele>
        <time>2023-09-30T06:48:45.000Z</time>
      </trkpt>
      <trkpt lat="46.02065" lon="6.81057">
        <ele>1380.1999511719</ele>
        <time>2023-09-30T06:48:46.000Z</time>
      </trkpt>
      <trkpt lat="46.02063" lon="6.81055">
        <ele>1380.1999511719</ele>
        <time>2023-09-30T06:48:47.000Z</time>
      </trkpt>
      <trkpt lat="46.02062" lon="6.81054">
        <ele>1380.4000244141</ele>
        <time>2023-09-30T06:48:48.000Z</time>
      </trkpt>
      <trkpt lat="46.0206" lon="6.81053">
        <ele>1380.5999755859</ele>
        <time>2023-09-30T06:48:49.000Z</time>
      </trkpt>
      <trkpt lat="46.02058" lon="6.81052">
        <ele>1380.5999755859</ele>
        <time>2023-09-30T06:48:50.000Z</time>
      </trkpt>
      <trkpt lat="46.02056" lon="6.81051">
        <ele>1380.8000488281</ele>
        <time>2023-09-30T06:48:51.000Z</time>
      </trkpt>
      <trkpt lat="46.02054" lon="6.81051">
        <ele>1381</ele>
        <time>2023-09-30T06:48:52.000Z</time>
      </trkpt>
      <trkpt lat="46.02052" lon="6.81051">
        <ele>1381.1999511719</ele>
        <time>2023-09-30T06:48:53.000Z</time>
      </trkpt>
      <trkpt lat="46.0205" lon="6.81051">
        <ele>1381.1999511719</ele>
        <time>2023-09-30T06:48:54.000Z</time>
      </trkpt>
      <trkpt lat="46.02048" lon="6.81051">
        <ele>1381.4000244141</ele>
        <time>2023-09-30T06:48:55.000Z</time>
      </trkpt>
      <trkpt lat="46.02044" lon="6.81052">
        <ele>1381.5999755859</ele>
        <time>2023-09-30T06:48:57.000Z</time>
      </trkpt>
      <trkpt lat="46.02038" lon="6.81052">
        <ele>1382</ele>
        <time>2023-09-30T06:49:00.000Z</time>
      </trkpt>
      <trkpt lat="46.02036" lon="6.81052">
        <ele>1382</ele>
        <time>2023-09-30T06:49:01.000Z</time>
      </trkpt>
      <trkpt lat="46.02034" lon="6.81051">
        <ele>1382.1999511719</ele>
        <time>2023-09-30T06:49:02.000Z</time>
      </trkpt>
      <trkpt lat="46.0203" lon="6.8105">
        <ele>1382.5999755859</ele>
        <time>2023-09-30T06:49:04.000Z</time>
      </trkpt>
      <trkpt lat="46.02029" lon="6.8105">
        <ele>1382.8000488281</ele>
        <time>2023-09-30T06:49:05.000Z</time>
      </trkpt>
      <trkpt lat="46.02025" lon="6.81047">
        <ele>1383.4000244141</ele>
        <time>2023-09-30T06:49:08.000Z</time>
      </trkpt>
      <trkpt lat="46.02023" lon="6.81046">
        <ele>1383.8000488281</ele>
        <time>2023-09-30T06:49:09.000Z</time>
      </trkpt>
      <trkpt lat="46.02022" lon="6.81045">
        <ele>1383.8000488281</ele>
        <time>2023-09-30T06:49:10.000Z</time>
      </trkpt>
      <trkpt lat="46.0202" lon="6.81044">
        <ele>1384</ele>
        <time>2023-09-30T06:49:11.000Z</time>
      </trkpt>
      <trkpt lat="46.02019" lon="6.81043">
        <ele>1384.4000244141</ele>
        <time>2023-09-30T06:49:12.000Z</time>
      </trkpt>
      <trkpt lat="46.02017" lon="6.81042">
        <ele>1384.4000244141</ele>
        <time>2023-09-30T06:49:13.000Z</time>
      </trkpt>
      <trkpt lat="46.02016" lon="6.81042">
        <ele>1384.5999755859</ele>
        <time>2023-09-30T06:49:14.000Z</time>
      </trkpt>
      <trkpt lat="46.02014" lon="6.81041">
        <ele>1384.8000488281</ele>
        <time>2023-09-30T06:49:15.000Z</time>
      </trkpt>
      <trkpt lat="46.02012" lon="6.81041">
        <ele>1385</ele>
        <time>2023-09-30T06:49:16.000Z</time>
      </trkpt>
      <trkpt lat="46.0201" lon="6.81042">
        <ele>1385.1999511719</ele>
        <time>2023-09-30T06:49:17.000Z</time>
      </trkpt>
      <trkpt lat="46.02008" lon="6.81042">
        <ele>1385.4000244141</ele>
        <time>2023-09-30T06:49:18.000Z</time>
      </trkpt>
      <trkpt lat="46.02007" lon="6.81043">
        <ele>1385.4000244141</ele>
        <time>2023-09-30T06:49:19.000Z</time>
      </trkpt>
      <trkpt lat="46.02005" lon="6.81043">
        <ele>1385.5999755859</ele>
        <time>2023-09-30T06:49:20.000Z</time>
      </trkpt>
      <trkpt lat="46.02003" lon="6.81044">
        <ele>1385.8000488281</ele>
        <time>2023-09-30T06:49:21.000Z</time>
      </trkpt>
      <trkpt lat="46.02001" lon="6.81044">
        <ele>1385.8000488281</ele>
        <time>2023-09-30T06:49:22.000Z</time>
      </trkpt>
      <trkpt lat="46.02" lon="6.81044">
        <ele>1386</ele>
        <time>2023-09-30T06:49:23.000Z</time>
      </trkpt>
      <trkpt lat="46.01999" lon="6.81044">
        <ele>1386.1999511719</ele>
        <time>2023-09-30T06:49:24.000Z</time>
      </trkpt>
      <trkpt lat="46.01997" lon="6.81044">
        <ele>1386.4000244141</ele>
        <time>2023-09-30T06:49:25.000Z</time>
      </trkpt>
      <trkpt lat="46.01997" lon="6.81044">
        <ele>1386.4000244141</ele>
        <time>2023-09-30T06:49:26.000Z</time>
      </trkpt>
      <trkpt lat="46.01996" lon="6.81044">
        <ele>1386.5999755859</ele>
        <time>2023-09-30T06:49:27.000Z</time>
      </trkpt>
      <trkpt lat="46.01995" lon="6.81044">
        <ele>1386.5999755859</ele>
        <time>2023-09-30T06:49:28.000Z</time>
      </trkpt>
      <trkpt lat="46.01994" lon="6.81044">
        <ele>1386.8000488281</ele>
        <time>2023-09-30T06:49:29.000Z</time>
      </trkpt>
      <trkpt lat="46.01993" lon="6.81044">
        <ele>1387</ele>
        <time>2023-09-30T06:49:30.000Z</time>
      </trkpt>
      <trkpt lat="46.01992" lon="6.81044">
        <ele>1387.1999511719</ele>
        <time>2023-09-30T06:49:31.000Z</time>
      </trkpt>
      <trkpt lat="46.01991" lon="6.81044">
        <ele>1387.4000244141</ele>
        <time>2023-09-30T06:49:32.000Z</time>
      </trkpt>
      <trkpt lat="46.0199" lon="6.81043">
        <ele>1387.5999755859</ele>
        <time>2023-09-30T06:49:33.000Z</time>
      </trkpt>
      <trkpt lat="46.01988" lon="6.81042">
        <ele>1387.5999755859</ele>
        <time>2023-09-30T06:49:34.000Z</time>
      </trkpt>
      <trkpt lat="46.01986" lon="6.81041">
        <ele>1387.8000488281</ele>
        <time>2023-09-30T06:49:35.000Z</time>
      </trkpt>
      <trkpt lat="46.01984" lon="6.81041">
        <ele>1387.8000488281</ele>
        <time>2023-09-30T06:49:36.000Z</time>
      </trkpt>
      <trkpt lat="46.01984" lon="6.81041">
        <ele>1387.8000488281</ele>
        <time>2023-09-30T06:49:37.000Z</time>
      </trkpt>
      <trkpt lat="46.01983" lon="6.81041">
        <ele>1387.8000488281</ele>
        <time>2023-09-30T06:49:38.000Z</time>
      </trkpt>
      <trkpt lat="46.01981" lon="6.8104">
        <ele>1388.1999511719</ele>
        <time>2023-09-30T06:49:39.000Z</time>
      </trkpt>
      <trkpt lat="46.0198" lon="6.8104">
        <ele>1388.5999755859</ele>
        <time>2023-09-30T06:49:40.000Z</time>
      </trkpt>
      <trkpt lat="46.01979" lon="6.8104">
        <ele>1388.5999755859</ele>
        <time>2023-09-30T06:49:41.000Z</time>
      </trkpt>
      <trkpt lat="46.01977" lon="6.81039">
        <ele>1388.8000488281</ele>
        <time>2023-09-30T06:49:42.000Z</time>
      </trkpt>
      <trkpt lat="46.01975" lon="6.81038">
        <ele>1389</ele>
        <time>2023-09-30T06:49:43.000Z</time>
      </trkpt>
      <trkpt lat="46.01973" lon="6.81037">
        <ele>1389.1999511719</ele>
        <time>2023-09-30T06:49:44.000Z</time>
      </trkpt>
      <trkpt lat="46.01971" lon="6.81037">
        <ele>1389.1999511719</ele>
        <time>2023-09-30T06:49:45.000Z</time>
      </trkpt>
      <trkpt lat="46.01969" lon="6.81037">
        <ele>1389.1999511719</ele>
        <time>2023-09-30T06:49:46.000Z</time>
      </trkpt>
      <trkpt lat="46.01967" lon="6.81036">
        <ele>1389.4000244141</ele>
        <time>2023-09-30T06:49:47.000Z</time>
      </trkpt>
      <trkpt lat="46.01965" lon="6.81036">
        <ele>1389.5999755859</ele>
        <time>2023-09-30T06:49:48.000Z</time>
      </trkpt>
      <trkpt lat="46.01964" lon="6.81035">
        <ele>1390</ele>
        <time>2023-09-30T06:49:49.000Z</time>
      </trkpt>
      <trkpt lat="46.01963" lon="6.81035">
        <ele>1390</ele>
        <time>2023-09-30T06:49:50.000Z</time>
      </trkpt>
      <trkpt lat="46.01961" lon="6.81035">
        <ele>1390.1999511719</ele>
        <time>2023-09-30T06:49:51.000Z</time>
      </trkpt>
      <trkpt lat="46.0196" lon="6.81035">
        <ele>1390.1999511719</ele>
        <time>2023-09-30T06:49:52.000Z</time>
      </trkpt>
      <trkpt lat="46.01958" lon="6.81035">
        <ele>1390.1999511719</ele>
        <time>2023-09-30T06:49:53.000Z</time>
      </trkpt>
      <trkpt lat="46.01957" lon="6.81034">
        <ele>1390.4000244141</ele>
        <time>2023-09-30T06:49:54.000Z</time>
      </trkpt>
      <trkpt lat="46.01956" lon="6.81034">
        <ele>1390.5999755859</ele>
        <time>2023-09-30T06:49:55.000Z</time>
      </trkpt>
      <trkpt lat="46.01955" lon="6.81033">
        <ele>1390.8000488281</ele>
        <time>2023-09-30T06:49:56.000Z</time>
      </trkpt>
      <trkpt lat="46.01954" lon="6.81033">
        <ele>1390.8000488281</ele>
        <time>2023-09-30T06:49:57.000Z</time>
      </trkpt>
      <trkpt lat="46.01952" lon="6.81033">
        <ele>1391</ele>
        <time>2023-09-30T06:49:58.000Z</time>
      </trkpt>
      <trkpt lat="46.01951" lon="6.81033">
        <ele>1391.1999511719</ele>
        <time>2023-09-30T06:49:59.000Z</time>
      </trkpt>
      <trkpt lat="46.0195" lon="6.81033">
        <ele>1391.4000244141</ele>
        <time>2023-09-30T06:50:00.000Z</time>
      </trkpt>
      <trkpt lat="46.01948" lon="6.81033">
        <ele>1391.5999755859</ele>
        <time>2023-09-30T06:50:01.000Z</time>
      </trkpt>
      <trkpt lat="46.01947" lon="6.81033">
        <ele>1391.8000488281</ele>
        <time>2023-09-30T06:50:02.000Z</time>
      </trkpt>
      <trkpt lat="46.01946" lon="6.81034">
        <ele>1392</ele>
        <time>2023-09-30T06:50:03.000Z</time>
      </trkpt>
      <trkpt lat="46.01945" lon="6.81034">
        <ele>1392</ele>
        <time>2023-09-30T06:50:04.000Z</time>
      </trkpt>
      <trkpt lat="46.01944" lon="6.81034">
        <ele>1392.4000244141</ele>
        <time>2023-09-30T06:50:05.000Z</time>
      </trkpt>
      <trkpt lat="46.01943" lon="6.81034">
        <ele>1392.5999755859</ele>
        <time>2023-09-30T06:50:06.000Z</time>
      </trkpt>
      <trkpt lat="46.01942" lon="6.81034">
        <ele>1392.5999755859</ele>
        <time>2023-09-30T06:50:07.000Z</time>
      </trkpt>
      <trkpt lat="46.01941" lon="6.81034">
        <ele>1392.8000488281</ele>
        <time>2023-09-30T06:50:08.000Z</time>
      </trkpt>
      <trkpt lat="46.0194" lon="6.81033">
        <ele>1393</ele>
        <time>2023-09-30T06:50:09.000Z</time>
      </trkpt>
      <trkpt lat="46.01939" lon="6.81033">
        <ele>1393.4000244141</ele>
        <time>2023-09-30T06:50:10.000Z</time>
      </trkpt>
      <trkpt lat="46.01939" lon="6.81033">
        <ele>1393.4000244141</ele>
        <time>2023-09-30T06:50:11.000Z</time>
      </trkpt>
      <trkpt lat="46.01938" lon="6.81033">
        <ele>1393.5999755859</ele>
        <time>2023-09-30T06:50:12.000Z</time>
      </trkpt>
      <trkpt lat="46.01936" lon="6.81032">
        <ele>1393.8000488281</ele>
        <time>2023-09-30T06:50:13.000Z</time>
      </trkpt>
      <trkpt lat="46.01935" lon="6.81031">
        <ele>1394</ele>
        <time>2023-09-30T06:50:14.000Z</time>
      </trkpt>
      <trkpt lat="46.01934" lon="6.81031">
        <ele>1394.1999511719</ele>
        <time>2023-09-30T06:50:15.000Z</time>
      </trkpt>
      <trkpt lat="46.01931" lon="6.81031">
        <ele>1394.1999511719</ele>
        <time>2023-09-30T06:50:16.000Z</time>
      </trkpt>
      <trkpt lat="46.0193" lon="6.81031">
        <ele>1394.1999511719</ele>
        <time>2023-09-30T06:50:17.000Z</time>
      </trkpt>
      <trkpt lat="46.01927" lon="6.81032">
        <ele>1394.1999511719</ele>
        <time>2023-09-30T06:50:18.000Z</time>
      </trkpt>
      <trkpt lat="46.01925" lon="6.81032">
        <ele>1394.4000244141</ele>
        <time>2023-09-30T06:50:19.000Z</time>
      </trkpt>
      <trkpt lat="46.01923" lon="6.81032">
        <ele>1394.4000244141</ele>
        <time>2023-09-30T06:50:20.000Z</time>
      </trkpt>
      <trkpt lat="46.01921" lon="6.81034">
        <ele>1394.5999755859</ele>
        <time>2023-09-30T06:50:21.000Z</time>
      </trkpt>
      <trkpt lat="46.01919" lon="6.81035">
        <ele>1394.5999755859</ele>
        <time>2023-09-30T06:50:22.000Z</time>
      </trkpt>
      <trkpt lat="46.01917" lon="6.81035">
        <ele>1394.5999755859</ele>
        <time>2023-09-30T06:50:23.000Z</time>
      </trkpt>
      <trkpt lat="46.01915" lon="6.81035">
        <ele>1394.8000488281</ele>
        <time>2023-09-30T06:50:24.000Z</time>
      </trkpt>
      <trkpt lat="46.01914" lon="6.81035">
        <ele>1394.8000488281</ele>
        <time>2023-09-30T06:50:25.000Z</time>
      </trkpt>
      <trkpt lat="46.01912" lon="6.81036">
        <ele>1394.8000488281</ele>
        <time>2023-09-30T06:50:26.000Z</time>
      </trkpt>
      <trkpt lat="46.0191" lon="6.81037">
        <ele>1394.8000488281</ele>
        <time>2023-09-30T06:50:27.000Z</time>
      </trkpt>
      <trkpt lat="46.01908" lon="6.81038">
        <ele>1394.8000488281</ele>
        <time>2023-09-30T06:50:28.000Z</time>
      </trkpt>
      <trkpt lat="46.01907" lon="6.81038">
        <ele>1395</ele>
        <time>2023-09-30T06:50:29.000Z</time>
      </trkpt>
      <trkpt lat="46.01905" lon="6.81038">
        <ele>1395</ele>
        <time>2023-09-30T06:50:30.000Z</time>
      </trkpt>
      <trkpt lat="46.01903" lon="6.81038">
        <ele>1395</ele>
        <time>2023-09-30T06:50:31.000Z</time>
      </trkpt>
      <trkpt lat="46.01902" lon="6.81038">
        <ele>1395.1999511719</ele>
        <time>2023-09-30T06:50:32.000Z</time>
      </trkpt>
      <trkpt lat="46.019" lon="6.81039">
        <ele>1395.1999511719</ele>
        <time>2023-09-30T06:50:33.000Z</time>
      </trkpt>
      <trkpt lat="46.01898" lon="6.81038">
        <ele>1395.4000244141</ele>
        <time>2023-09-30T06:50:34.000Z</time>
      </trkpt>
      <trkpt lat="46.01897" lon="6.81038">
        <ele>1395.4000244141</ele>
        <time>2023-09-30T06:50:35.000Z</time>
      </trkpt>
      <trkpt lat="46.01895" lon="6.81039">
        <ele>1395.5999755859</ele>
        <time>2023-09-30T06:50:36.000Z</time>
      </trkpt>
      <trkpt lat="46.01894" lon="6.81039">
        <ele>1395.5999755859</ele>
        <time>2023-09-30T06:50:37.000Z</time>
      </trkpt>
      <trkpt lat="46.01893" lon="6.81039">
        <ele>1395.5999755859</ele>
        <time>2023-09-30T06:50:38.000Z</time>
      </trkpt>
      <trkpt lat="46.01892" lon="6.81039">
        <ele>1395.8000488281</ele>
        <time>2023-09-30T06:50:39.000Z</time>
      </trkpt>
      <trkpt lat="46.01889" lon="6.81039">
        <ele>1396</ele>
        <time>2023-09-30T06:50:41.000Z</time>
      </trkpt>
      <trkpt lat="46.01888" lon="6.81039">
        <ele>1396.1999511719</ele>
        <time>2023-09-30T06:50:42.000Z</time>
      </trkpt>
      <trkpt lat="46.01887" lon="6.81039">
        <ele>1396.1999511719</ele>
        <time>2023-09-30T06:50:43.000Z</time>
      </trkpt>
      <trkpt lat="46.01887" lon="6.81039">
        <ele>1396.1999511719</ele>
        <time>2023-09-30T06:50:44.000Z</time>
      </trkpt>
      <trkpt lat="46.01886" lon="6.81039">
        <ele>1396.4000244141</ele>
        <time>2023-09-30T06:50:45.000Z</time>
      </trkpt>
      <trkpt lat="46.01885" lon="6.8104">
        <ele>1396.5999755859</ele>
        <time>2023-09-30T06:50:46.000Z</time>
      </trkpt>
      <trkpt lat="46.01884" lon="6.81042">
        <ele>1396.8000488281</ele>
        <time>2023-09-30T06:50:48.000Z</time>
      </trkpt>
      <trkpt lat="46.01883" lon="6.81042">
        <ele>1396.8000488281</ele>
        <time>2023-09-30T06:50:49.000Z</time>
      </trkpt>
      <trkpt lat="46.01882" lon="6.81044">
        <ele>1397</ele>
        <time>2023-09-30T06:50:50.000Z</time>
      </trkpt>
      <trkpt lat="46.01881" lon="6.81046">
        <ele>1397.1999511719</ele>
        <time>2023-09-30T06:50:51.000Z</time>
      </trkpt>
      <trkpt lat="46.01881" lon="6.81047">
        <ele>1397.1999511719</ele>
        <time>2023-09-30T06:50:52.000Z</time>
      </trkpt>
      <trkpt lat="46.01879" lon="6.81048">
        <ele>1397.4000244141</ele>
        <time>2023-09-30T06:50:54.000Z</time>
      </trkpt>
      <trkpt lat="46.01877" lon="6.81048">
        <ele>1397.8000488281</ele>
        <time>2023-09-30T06:50:55.000Z</time>
      </trkpt>
      <trkpt lat="46.01877" lon="6.81048">
        <ele>1397.8000488281</ele>
        <time>2023-09-30T06:50:56.000Z</time>
      </trkpt>
      <trkpt lat="46.01877" lon="6.81047">
        <ele>1398</ele>
        <time>2023-09-30T06:50:57.000Z</time>
      </trkpt>
      <trkpt lat="46.01876" lon="6.81047">
        <ele>1398.1999511719</ele>
        <time>2023-09-30T06:50:58.000Z</time>
      </trkpt>
      <trkpt lat="46.01874" lon="6.81045">
        <ele>1398.4000244141</ele>
        <time>2023-09-30T06:50:59.000Z</time>
      </trkpt>
      <trkpt lat="46.01873" lon="6.81042">
        <ele>1398.4000244141</ele>
        <time>2023-09-30T06:51:00.000Z</time>
      </trkpt>
      <trkpt lat="46.01873" lon="6.81037">
        <ele>1398.4000244141</ele>
        <time>2023-09-30T06:51:01.000Z</time>
      </trkpt>
      <trkpt lat="46.01872" lon="6.81032">
        <ele>1398.5999755859</ele>
        <time>2023-09-30T06:51:02.000Z</time>
      </trkpt>
      <trkpt lat="46.01873" lon="6.81027">
        <ele>1398.5999755859</ele>
        <time>2023-09-30T06:51:03.000Z</time>
      </trkpt>
      <trkpt lat="46.01873" lon="6.81022">
        <ele>1398.5999755859</ele>
        <time>2023-09-30T06:51:04.000Z</time>
      </trkpt>
      <trkpt lat="46.01874" lon="6.81018">
        <ele>1398.5999755859</ele>
        <time>2023-09-30T06:51:05.000Z</time>
      </trkpt>
      <trkpt lat="46.01876" lon="6.81014">
        <ele>1398.5999755859</ele>
        <time>2023-09-30T06:51:06.000Z</time>
      </trkpt>
      <trkpt lat="46.01877" lon="6.81011">
        <ele>1398.5999755859</ele>
        <time>2023-09-30T06:51:07.000Z</time>
      </trkpt>
      <trkpt lat="46.01879" lon="6.81008">
        <ele>1398.4000244141</ele>
        <time>2023-09-30T06:51:08.000Z</time>
      </trkpt>
      <trkpt lat="46.01881" lon="6.81005">
        <ele>1398.4000244141</ele>
        <time>2023-09-30T06:51:09.000Z</time>
      </trkpt>
      <trkpt lat="46.0188" lon="6.81004">
        <ele>1398.1999511719</ele>
        <time>2023-09-30T06:51:10.000Z</time>
      </trkpt>
      <trkpt lat="46.01881" lon="6.81002">
        <ele>1398.1999511719</ele>
        <time>2023-09-30T06:51:11.000Z</time>
      </trkpt>
      <trkpt lat="46.01882" lon="6.81">
        <ele>1398.1999511719</ele>
        <time>2023-09-30T06:51:12.000Z</time>
      </trkpt>
      <trkpt lat="46.01882" lon="6.80997">
        <ele>1398.1999511719</ele>
        <time>2023-09-30T06:51:13.000Z</time>
      </trkpt>
      <trkpt lat="46.01882" lon="6.80995">
        <ele>1398.1999511719</ele>
        <time>2023-09-30T06:51:14.000Z</time>
      </trkpt>
      <trkpt lat="46.01882" lon="6.80993">
        <ele>1398.1999511719</ele>
        <time>2023-09-30T06:51:15.000Z</time>
      </trkpt>
      <trkpt lat="46.01881" lon="6.80991">
        <ele>1398.1999511719</ele>
        <time>2023-09-30T06:51:16.000Z</time>
      </trkpt>
      <trkpt lat="46.01882" lon="6.80989">
        <ele>1398.1999511719</ele>
        <time>2023-09-30T06:51:17.000Z</time>
      </trkpt>
      <trkpt lat="46.01882" lon="6.80988">
        <ele>1398.1999511719</ele>
        <time>2023-09-30T06:51:18.000Z</time>
      </trkpt>
      <trkpt lat="46.01882" lon="6.80986">
        <ele>1398.5999755859</ele>
        <time>2023-09-30T06:51:19.000Z</time>
      </trkpt>
      <trkpt lat="46.01882" lon="6.80985">
        <ele>1398.5999755859</ele>
        <time>2023-09-30T06:51:20.000Z</time>
      </trkpt>
      <trkpt lat="46.01882" lon="6.80983">
        <ele>1398.8000488281</ele>
        <time>2023-09-30T06:51:21.000Z</time>
      </trkpt>
      <trkpt lat="46.01881" lon="6.80982">
        <ele>1399</ele>
        <time>2023-09-30T06:51:22.000Z</time>
      </trkpt>
      <trkpt lat="46.0188" lon="6.8098">
        <ele>1399</ele>
        <time>2023-09-30T06:51:23.000Z</time>
      </trkpt>
      <trkpt lat="46.01879" lon="6.80978">
        <ele>1399</ele>
        <time>2023-09-30T06:51:24.000Z</time>
      </trkpt>
      <trkpt lat="46.01879" lon="6.80977">
        <ele>1399.1999511719</ele>
        <time>2023-09-30T06:51:25.000Z</time>
      </trkpt>
      <trkpt lat="46.01876" lon="6.80975">
        <ele>1399.4000244141</ele>
        <time>2023-09-30T06:51:26.000Z</time>
      </trkpt>
      <trkpt lat="46.01872" lon="6.80974">
        <ele>1399.5999755859</ele>
        <time>2023-09-30T06:51:27.000Z</time>
      </trkpt>
      <trkpt lat="46.0187" lon="6.80973">
        <ele>1399.8000488281</ele>
        <time>2023-09-30T06:51:28.000Z</time>
      </trkpt>
      <trkpt lat="46.01868" lon="6.80972">
        <ele>1400</ele>
        <time>2023-09-30T06:51:29.000Z</time>
      </trkpt>
      <trkpt lat="46.01866" lon="6.80972">
        <ele>1400.1999511719</ele>
        <time>2023-09-30T06:51:30.000Z</time>
      </trkpt>
      <trkpt lat="46.01865" lon="6.80971">
        <ele>1400.5999755859</ele>
        <time>2023-09-30T06:51:31.000Z</time>
      </trkpt>
      <trkpt lat="46.01863" lon="6.80971">
        <ele>1400.8000488281</ele>
        <time>2023-09-30T06:51:33.000Z</time>
      </trkpt>
      <trkpt lat="46.0186" lon="6.80972">
        <ele>1401</ele>
        <time>2023-09-30T06:51:35.000Z</time>
      </trkpt>
      <trkpt lat="46.01859" lon="6.80973">
        <ele>1401.1999511719</ele>
        <time>2023-09-30T06:51:36.000Z</time>
      </trkpt>
      <trkpt lat="46.01857" lon="6.80974">
        <ele>1401.1999511719</ele>
        <time>2023-09-30T06:51:37.000Z</time>
      </trkpt>
      <trkpt lat="46.01854" lon="6.80974">
        <ele>1401.4000244141</ele>
        <time>2023-09-30T06:51:38.000Z</time>
      </trkpt>
      <trkpt lat="46.01852" lon="6.80974">
        <ele>1401.4000244141</ele>
        <time>2023-09-30T06:51:39.000Z</time>
      </trkpt>
      <trkpt lat="46.01848" lon="6.80973">
        <ele>1401.5999755859</ele>
        <time>2023-09-30T06:51:40.000Z</time>
      </trkpt>
      <trkpt lat="46.01844" lon="6.80973">
        <ele>1401.5999755859</ele>
        <time>2023-09-30T06:51:41.000Z</time>
      </trkpt>
      <trkpt lat="46.0184" lon="6.80973">
        <ele>1401.5999755859</ele>
        <time>2023-09-30T06:51:42.000Z</time>
      </trkpt>
      <trkpt lat="46.01836" lon="6.80973">
        <ele>1401.5999755859</ele>
        <time>2023-09-30T06:51:43.000Z</time>
      </trkpt>
      <trkpt lat="46.01832" lon="6.80973">
        <ele>1401.5999755859</ele>
        <time>2023-09-30T06:51:44.000Z</time>
      </trkpt>
      <trkpt lat="46.01828" lon="6.80973">
        <ele>1401.5999755859</ele>
        <time>2023-09-30T06:51:45.000Z</time>
      </trkpt>
      <trkpt lat="46.01824" lon="6.80974">
        <ele>1401.4000244141</ele>
        <time>2023-09-30T06:51:46.000Z</time>
      </trkpt>
      <trkpt lat="46.01819" lon="6.80973">
        <ele>1401.4000244141</ele>
        <time>2023-09-30T06:51:47.000Z</time>
      </trkpt>
      <trkpt lat="46.01815" lon="6.80971">
        <ele>1401.1999511719</ele>
        <time>2023-09-30T06:51:48.000Z</time>
      </trkpt>
      <trkpt lat="46.01808" lon="6.8097">
        <ele>1401</ele>
        <time>2023-09-30T06:51:49.000Z</time>
      </trkpt>
      <trkpt lat="46.01795" lon="6.80971">
        <ele>1400.8000488281</ele>
        <time>2023-09-30T06:51:51.000Z</time>
      </trkpt>
      <trkpt lat="46.01776" lon="6.80975">
        <ele>1399.8000488281</ele>
        <time>2023-09-30T06:51:54.000Z</time>
      </trkpt>
      <trkpt lat="46.01769" lon="6.80978">
        <ele>1399.5999755859</ele>
        <time>2023-09-30T06:51:55.000Z</time>
      </trkpt>
      <trkpt lat="46.01763" lon="6.8098">
        <ele>1399</ele>
        <time>2023-09-30T06:51:56.000Z</time>
      </trkpt>
      <trkpt lat="46.01757" lon="6.80981">
        <ele>1398.5999755859</ele>
        <time>2023-09-30T06:51:57.000Z</time>
      </trkpt>
      <trkpt lat="46.01751" lon="6.80983">
        <ele>1397.4000244141</ele>
        <time>2023-09-30T06:51:58.000Z</time>
      </trkpt>
      <trkpt lat="46.01746" lon="6.80983">
        <ele>1396.5999755859</ele>
        <time>2023-09-30T06:51:59.000Z</time>
      </trkpt>
      <trkpt lat="46.0174" lon="6.80983">
        <ele>1396.1999511719</ele>
        <time>2023-09-30T06:52:00.000Z</time>
      </trkpt>
      <trkpt lat="46.01734" lon="6.80982">
        <ele>1395.1999511719</ele>
        <time>2023-09-30T06:52:01.000Z</time>
      </trkpt>
      <trkpt lat="46.0173" lon="6.80981">
        <ele>1394.8000488281</ele>
        <time>2023-09-30T06:52:02.000Z</time>
      </trkpt>
      <trkpt lat="46.01726" lon="6.80978">
        <ele>1394.1999511719</ele>
        <time>2023-09-30T06:52:03.000Z</time>
      </trkpt>
      <trkpt lat="46.01724" lon="6.80974">
        <ele>1393.4000244141</ele>
        <time>2023-09-30T06:52:04.000Z</time>
      </trkpt>
      <trkpt lat="46.01722" lon="6.80972">
        <ele>1393</ele>
        <time>2023-09-30T06:52:05.000Z</time>
      </trkpt>
      <trkpt lat="46.0172" lon="6.8097">
        <ele>1392.4000244141</ele>
        <time>2023-09-30T06:52:06.000Z</time>
      </trkpt>
      <trkpt lat="46.01719" lon="6.80968">
        <ele>1392</ele>
        <time>2023-09-30T06:52:07.000Z</time>
      </trkpt>
      <trkpt lat="46.01717" lon="6.80966">
        <ele>1391.4000244141</ele>
        <time>2023-09-30T06:52:08.000Z</time>
      </trkpt>
      <trkpt lat="46.01717" lon="6.80965">
        <ele>1391</ele>
        <time>2023-09-30T06:52:09.000Z</time>
      </trkpt>
      <trkpt lat="46.01717" lon="6.80965">
        <ele>1390.1999511719</ele>
        <time>2023-09-30T06:52:10.000Z</time>
      </trkpt>
      <trkpt lat="46.01717" lon="6.80965">
        <ele>1389.5999755859</ele>
        <time>2023-09-30T06:52:12.000Z</time>
      </trkpt>
      <trkpt lat="46.01717" lon="6.80965">
        <ele>1389.1999511719</ele>
        <time>2023-09-30T06:52:13.000Z</time>
      </trkpt>
      <trkpt lat="46.01717" lon="6.80965">
        <ele>1388</ele>
        <time>2023-09-30T06:52:37.000Z</time>
      </trkpt>
      <trkpt lat="46.01717" lon="6.80964">
        <ele>1388.1999511719</ele>
        <time>2023-09-30T06:52:45.000Z</time>
      </trkpt>
      <trkpt lat="46.01718" lon="6.80961">
        <ele>1388.1999511719</ele>
        <time>2023-09-30T06:52:47.000Z</time>
      </trkpt>
      <trkpt lat="46.01718" lon="6.8096">
        <ele>1388.1999511719</ele>
        <time>2023-09-30T06:52:48.000Z</time>
      </trkpt>
      <trkpt lat="46.01719" lon="6.80959">
        <ele>1388.1999511719</ele>
        <time>2023-09-30T06:52:49.000Z</time>
      </trkpt>
      <trkpt lat="46.0172" lon="6.80958">
        <ele>1388.1999511719</ele>
        <time>2023-09-30T06:52:50.000Z</time>
      </trkpt>
      <trkpt lat="46.01722" lon="6.80958">
        <ele>1388.4000244141</ele>
        <time>2023-09-30T06:52:51.000Z</time>
      </trkpt>
      <trkpt lat="46.01723" lon="6.80958">
        <ele>1388.4000244141</ele>
        <time>2023-09-30T06:52:52.000Z</time>
      </trkpt>
      <trkpt lat="46.01725" lon="6.80958">
        <ele>1388.4000244141</ele>
        <time>2023-09-30T06:52:53.000Z</time>
      </trkpt>
      <trkpt lat="46.01732" lon="6.80955">
        <ele>1388.5999755859</ele>
        <time>2023-09-30T06:52:59.000Z</time>
      </trkpt>
      <trkpt lat="46.01734" lon="6.80953">
        <ele>1388.5999755859</ele>
        <time>2023-09-30T06:53:01.000Z</time>
      </trkpt>
      <trkpt lat="46.01735" lon="6.80951">
        <ele>1388.8000488281</ele>
        <time>2023-09-30T06:53:02.000Z</time>
      </trkpt>
      <trkpt lat="46.01736" lon="6.8095">
        <ele>1388.8000488281</ele>
        <time>2023-09-30T06:53:03.000Z</time>
      </trkpt>
      <trkpt lat="46.01739" lon="6.80947">
        <ele>1389.1999511719</ele>
        <time>2023-09-30T06:53:05.000Z</time>
      </trkpt>
      <trkpt lat="46.0174" lon="6.80946">
        <ele>1389.1999511719</ele>
        <time>2023-09-30T06:53:06.000Z</time>
      </trkpt>
      <trkpt lat="46.01741" lon="6.80945">
        <ele>1389.4000244141</ele>
        <time>2023-09-30T06:53:07.000Z</time>
      </trkpt>
      <trkpt lat="46.01743" lon="6.80943">
        <ele>1389.4000244141</ele>
        <time>2023-09-30T06:53:08.000Z</time>
      </trkpt>
      <trkpt lat="46.01744" lon="6.80942">
        <ele>1389.8000488281</ele>
        <time>2023-09-30T06:53:09.000Z</time>
      </trkpt>
      <trkpt lat="46.01745" lon="6.80942">
        <ele>1390.1999511719</ele>
        <time>2023-09-30T06:53:10.000Z</time>
      </trkpt>
      <trkpt lat="46.01747" lon="6.8094">
        <ele>1390.5999755859</ele>
        <time>2023-09-30T06:53:12.000Z</time>
      </trkpt>
      <trkpt lat="46.01747" lon="6.8094">
        <ele>1390.8000488281</ele>
        <time>2023-09-30T06:53:13.000Z</time>
      </trkpt>
      <trkpt lat="46.01747" lon="6.8094">
        <ele>1391</ele>
        <time>2023-09-30T06:53:14.000Z</time>
      </trkpt>
      <trkpt lat="46.01747" lon="6.8094">
        <ele>1391.4000244141</ele>
        <time>2023-09-30T06:53:16.000Z</time>
      </trkpt>
      <trkpt lat="46.01747" lon="6.80939">
        <ele>1391.4000244141</ele>
        <time>2023-09-30T06:53:17.000Z</time>
      </trkpt>
      <trkpt lat="46.01748" lon="6.80939">
        <ele>1391.4000244141</ele>
        <time>2023-09-30T06:53:18.000Z</time>
      </trkpt>
      <trkpt lat="46.01748" lon="6.80939">
        <ele>1391.5999755859</ele>
        <time>2023-09-30T06:53:20.000Z</time>
      </trkpt>
      <trkpt lat="46.01748" lon="6.80939">
        <ele>1391.8000488281</ele>
        <time>2023-09-30T06:53:21.000Z</time>
      </trkpt>
      <trkpt lat="46.01748" lon="6.80939">
        <ele>1392.8000488281</ele>
        <time>2023-09-30T06:53:28.000Z</time>
      </trkpt>
      <trkpt lat="46.01748" lon="6.80938">
        <ele>1392.8000488281</ele>
        <time>2023-09-30T06:53:30.000Z</time>
      </trkpt>
      <trkpt lat="46.01749" lon="6.80936">
        <ele>1392.8000488281</ele>
        <time>2023-09-30T06:53:31.000Z</time>
      </trkpt>
      <trkpt lat="46.0175" lon="6.80934">
        <ele>1393</ele>
        <time>2023-09-30T06:53:32.000Z</time>
      </trkpt>
      <trkpt lat="46.01751" lon="6.80933">
        <ele>1393</ele>
        <time>2023-09-30T06:53:33.000Z</time>
      </trkpt>
      <trkpt lat="46.01751" lon="6.80932">
        <ele>1393</ele>
        <time>2023-09-30T06:53:34.000Z</time>
      </trkpt>
      <trkpt lat="46.01751" lon="6.80931">
        <ele>1393</ele>
        <time>2023-09-30T06:53:36.000Z</time>
      </trkpt>
      <trkpt lat="46.01751" lon="6.80929">
        <ele>1393.4000244141</ele>
        <time>2023-09-30T06:53:37.000Z</time>
      </trkpt>
      <trkpt lat="46.01752" lon="6.80928">
        <ele>1393.4000244141</ele>
        <time>2023-09-30T06:53:38.000Z</time>
      </trkpt>
      <trkpt lat="46.01752" lon="6.80928">
        <ele>1393.5999755859</ele>
        <time>2023-09-30T06:53:39.000Z</time>
      </trkpt>
      <trkpt lat="46.01752" lon="6.80928">
        <ele>1393.8000488281</ele>
        <time>2023-09-30T06:53:40.000Z</time>
      </trkpt>
      <trkpt lat="46.01751" lon="6.80927">
        <ele>1393.8000488281</ele>
        <time>2023-09-30T06:53:41.000Z</time>
      </trkpt>
      <trkpt lat="46.01751" lon="6.80926">
        <ele>1394</ele>
        <time>2023-09-30T06:53:42.000Z</time>
      </trkpt>
      <trkpt lat="46.0175" lon="6.80927">
        <ele>1394.1999511719</ele>
        <time>2023-09-30T06:53:43.000Z</time>
      </trkpt>
      <trkpt lat="46.0175" lon="6.80926">
        <ele>1394.4000244141</ele>
        <time>2023-09-30T06:53:44.000Z</time>
      </trkpt>
      <trkpt lat="46.01749" lon="6.80926">
        <ele>1394.5999755859</ele>
        <time>2023-09-30T06:53:45.000Z</time>
      </trkpt>
      <trkpt lat="46.01748" lon="6.80926">
        <ele>1394.8000488281</ele>
        <time>2023-09-30T06:53:46.000Z</time>
      </trkpt>
      <trkpt lat="46.01748" lon="6.80925">
        <ele>1395</ele>
        <time>2023-09-30T06:53:47.000Z</time>
      </trkpt>
      <trkpt lat="46.01748" lon="6.80925">
        <ele>1395.1999511719</ele>
        <time>2023-09-30T06:53:48.000Z</time>
      </trkpt>
      <trkpt lat="46.01748" lon="6.80925">
        <ele>1395.4000244141</ele>
        <time>2023-09-30T06:53:50.000Z</time>
      </trkpt>
      <trkpt lat="46.01748" lon="6.80925">
        <ele>1396</ele>
        <time>2023-09-30T06:53:51.000Z</time>
      </trkpt>
      <trkpt lat="46.01747" lon="6.80925">
        <ele>1396.8000488281</ele>
        <time>2023-09-30T06:53:53.000Z</time>
      </trkpt>
      <trkpt lat="46.01747" lon="6.80925">
        <ele>1397.1999511719</ele>
        <time>2023-09-30T06:53:56.000Z</time>
      </trkpt>
      <trkpt lat="46.01747" lon="6.80925">
        <ele>1397.4000244141</ele>
        <time>2023-09-30T06:53:57.000Z</time>
      </trkpt>
      <trkpt lat="46.01747" lon="6.80924">
        <ele>1398.4000244141</ele>
        <time>2023-09-30T06:54:02.000Z</time>
      </trkpt>
      <trkpt lat="46.01747" lon="6.80924">
        <ele>1398.8000488281</ele>
        <time>2023-09-30T06:54:04.000Z</time>
      </trkpt>
      <trkpt lat="46.01747" lon="6.80924">
        <ele>1399.4000244141</ele>
        <time>2023-09-30T06:54:07.000Z</time>
      </trkpt>
      <trkpt lat="46.01747" lon="6.80924">
        <ele>1399.8000488281</ele>
        <time>2023-09-30T06:54:08.000Z</time>
      </trkpt>
      <trkpt lat="46.01745" lon="6.80924">
        <ele>1400</ele>
        <time>2023-09-30T06:54:09.000Z</time>
      </trkpt>
      <trkpt lat="46.01744" lon="6.80924">
        <ele>1400.1999511719</ele>
        <time>2023-09-30T06:54:10.000Z</time>
      </trkpt>
      <trkpt lat="46.01744" lon="6.80924">
        <ele>1400.5999755859</ele>
        <time>2023-09-30T06:54:12.000Z</time>
      </trkpt>
      <trkpt lat="46.01744" lon="6.80924">
        <ele>1401.1999511719</ele>
        <time>2023-09-30T06:54:14.000Z</time>
      </trkpt>
      <trkpt lat="46.01742" lon="6.80924">
        <ele>1401.1999511719</ele>
        <time>2023-09-30T06:54:15.000Z</time>
      </trkpt>
      <trkpt lat="46.01741" lon="6.80925">
        <ele>1401.4000244141</ele>
        <time>2023-09-30T06:54:16.000Z</time>
      </trkpt>
      <trkpt lat="46.0174" lon="6.80925">
        <ele>1401.5999755859</ele>
        <time>2023-09-30T06:54:17.000Z</time>
      </trkpt>
      <trkpt lat="46.01738" lon="6.80925">
        <ele>1401.8000488281</ele>
        <time>2023-09-30T06:54:18.000Z</time>
      </trkpt>
      <trkpt lat="46.01737" lon="6.80926">
        <ele>1402</ele>
        <time>2023-09-30T06:54:19.000Z</time>
      </trkpt>
      <trkpt lat="46.01737" lon="6.80925">
        <ele>1402.1999511719</ele>
        <time>2023-09-30T06:54:20.000Z</time>
      </trkpt>
      <trkpt lat="46.01735" lon="6.80925">
        <ele>1402.4000244141</ele>
        <time>2023-09-30T06:54:21.000Z</time>
      </trkpt>
      <trkpt lat="46.01734" lon="6.80925">
        <ele>1402.8000488281</ele>
        <time>2023-09-30T06:54:22.000Z</time>
      </trkpt>
      <trkpt lat="46.01732" lon="6.80924">
        <ele>1403</ele>
        <time>2023-09-30T06:54:23.000Z</time>
      </trkpt>
      <trkpt lat="46.01731" lon="6.80923">
        <ele>1403.1999511719</ele>
        <time>2023-09-30T06:54:24.000Z</time>
      </trkpt>
      <trkpt lat="46.0173" lon="6.80923">
        <ele>1403.4000244141</ele>
        <time>2023-09-30T06:54:25.000Z</time>
      </trkpt>
      <trkpt lat="46.0173" lon="6.80923">
        <ele>1403.5999755859</ele>
        <time>2023-09-30T06:54:26.000Z</time>
      </trkpt>
      <trkpt lat="46.0173" lon="6.80923">
        <ele>1404</ele>
        <time>2023-09-30T06:54:27.000Z</time>
      </trkpt>
      <trkpt lat="46.01729" lon="6.80923">
        <ele>1404</ele>
        <time>2023-09-30T06:54:28.000Z</time>
      </trkpt>
      <trkpt lat="46.01728" lon="6.80922">
        <ele>1404.1999511719</ele>
        <time>2023-09-30T06:54:29.000Z</time>
      </trkpt>
      <trkpt lat="46.01727" lon="6.80922">
        <ele>1404.1999511719</ele>
        <time>2023-09-30T06:54:30.000Z</time>
      </trkpt>
      <trkpt lat="46.01726" lon="6.80922">
        <ele>1404.4000244141</ele>
        <time>2023-09-30T06:54:31.000Z</time>
      </trkpt>
      <trkpt lat="46.01725" lon="6.80922">
        <ele>1404.5999755859</ele>
        <time>2023-09-30T06:54:32.000Z</time>
      </trkpt>
      <trkpt lat="46.01724" lon="6.80922">
        <ele>1404.8000488281</ele>
        <time>2023-09-30T06:54:33.000Z</time>
      </trkpt>
      <trkpt lat="46.01723" lon="6.80922">
        <ele>1404.8000488281</ele>
        <time>2023-09-30T06:54:34.000Z</time>
      </trkpt>
      <trkpt lat="46.01723" lon="6.80922">
        <ele>1404.8000488281</ele>
        <time>2023-09-30T06:54:35.000Z</time>
      </trkpt>
      <trkpt lat="46.01722" lon="6.80923">
        <ele>1405</ele>
        <time>2023-09-30T06:54:36.000Z</time>
      </trkpt>
      <trkpt lat="46.01721" lon="6.80923">
        <ele>1405.1999511719</ele>
        <time>2023-09-30T06:54:37.000Z</time>
      </trkpt>
      <trkpt lat="46.01721" lon="6.80922">
        <ele>1405.4000244141</ele>
        <time>2023-09-30T06:54:38.000Z</time>
      </trkpt>
      <trkpt lat="46.01721" lon="6.80922">
        <ele>1405.5999755859</ele>
        <time>2023-09-30T06:54:39.000Z</time>
      </trkpt>
      <trkpt lat="46.0172" lon="6.80922">
        <ele>1405.8000488281</ele>
        <time>2023-09-30T06:54:40.000Z</time>
      </trkpt>
      <trkpt lat="46.0172" lon="6.80922">
        <ele>1405.8000488281</ele>
        <time>2023-09-30T06:54:41.000Z</time>
      </trkpt>
      <trkpt lat="46.01719" lon="6.80921">
        <ele>1406</ele>
        <time>2023-09-30T06:54:42.000Z</time>
      </trkpt>
      <trkpt lat="46.01719" lon="6.80921">
        <ele>1406</ele>
        <time>2023-09-30T06:54:43.000Z</time>
      </trkpt>
      <trkpt lat="46.01719" lon="6.80921">
        <ele>1406.1999511719</ele>
        <time>2023-09-30T06:54:44.000Z</time>
      </trkpt>
      <trkpt lat="46.01719" lon="6.80921">
        <ele>1406.5999755859</ele>
        <time>2023-09-30T06:54:45.000Z</time>
      </trkpt>
      <trkpt lat="46.01718" lon="6.8092">
        <ele>1406.8000488281</ele>
        <time>2023-09-30T06:54:46.000Z</time>
      </trkpt>
      <trkpt lat="46.01717" lon="6.8092">
        <ele>1407</ele>
        <time>2023-09-30T06:54:47.000Z</time>
      </trkpt>
      <trkpt lat="46.01716" lon="6.80919">
        <ele>1407</ele>
        <time>2023-09-30T06:54:48.000Z</time>
      </trkpt>
      <trkpt lat="46.01716" lon="6.80918">
        <ele>1407.1999511719</ele>
        <time>2023-09-30T06:54:49.000Z</time>
      </trkpt>
      <trkpt lat="46.01716" lon="6.80918">
        <ele>1407.4000244141</ele>
        <time>2023-09-30T06:54:50.000Z</time>
      </trkpt>
      <trkpt lat="46.01715" lon="6.80918">
        <ele>1407.5999755859</ele>
        <time>2023-09-30T06:54:51.000Z</time>
      </trkpt>
      <trkpt lat="46.01714" lon="6.80917">
        <ele>1407.8000488281</ele>
        <time>2023-09-30T06:54:52.000Z</time>
      </trkpt>
      <trkpt lat="46.01714" lon="6.80917">
        <ele>1408</ele>
        <time>2023-09-30T06:54:53.000Z</time>
      </trkpt>
      <trkpt lat="46.01712" lon="6.80918">
        <ele>1408.1999511719</ele>
        <time>2023-09-30T06:54:54.000Z</time>
      </trkpt>
      <trkpt lat="46.01712" lon="6.80918">
        <ele>1408.4000244141</ele>
        <time>2023-09-30T06:54:55.000Z</time>
      </trkpt>
      <trkpt lat="46.01711" lon="6.80918">
        <ele>1408.4000244141</ele>
        <time>2023-09-30T06:54:56.000Z</time>
      </trkpt>
      <trkpt lat="46.0171" lon="6.80918">
        <ele>1408.8000488281</ele>
        <time>2023-09-30T06:54:57.000Z</time>
      </trkpt>
      <trkpt lat="46.0171" lon="6.80919">
        <ele>1408.8000488281</ele>
        <time>2023-09-30T06:54:58.000Z</time>
      </trkpt>
      <trkpt lat="46.0171" lon="6.80919">
        <ele>1409</ele>
        <time>2023-09-30T06:54:59.000Z</time>
      </trkpt>
      <trkpt lat="46.0171" lon="6.80919">
        <ele>1409.1999511719</ele>
        <time>2023-09-30T06:55:00.000Z</time>
      </trkpt>
      <trkpt lat="46.0171" lon="6.80919">
        <ele>1409.4000244141</ele>
        <time>2023-09-30T06:55:01.000Z</time>
      </trkpt>
      <trkpt lat="46.01709" lon="6.80919">
        <ele>1409.8000488281</ele>
        <time>2023-09-30T06:55:02.000Z</time>
      </trkpt>
      <trkpt lat="46.01708" lon="6.80918">
        <ele>1409.8000488281</ele>
        <time>2023-09-30T06:55:03.000Z</time>
      </trkpt>
      <trkpt lat="46.01707" lon="6.80918">
        <ele>1410</ele>
        <time>2023-09-30T06:55:04.000Z</time>
      </trkpt>
      <trkpt lat="46.01707" lon="6.80919">
        <ele>1410</ele>
        <time>2023-09-30T06:55:05.000Z</time>
      </trkpt>
      <trkpt lat="46.01707" lon="6.80918">
        <ele>1410.1999511719</ele>
        <time>2023-09-30T06:55:06.000Z</time>
      </trkpt>
      <trkpt lat="46.01706" lon="6.80918">
        <ele>1410.5999755859</ele>
        <time>2023-09-30T06:55:07.000Z</time>
      </trkpt>
      <trkpt lat="46.01705" lon="6.80917">
        <ele>1410.8000488281</ele>
        <time>2023-09-30T06:55:08.000Z</time>
      </trkpt>
      <trkpt lat="46.01705" lon="6.80917">
        <ele>1411</ele>
        <time>2023-09-30T06:55:09.000Z</time>
      </trkpt>
      <trkpt lat="46.01705" lon="6.80917">
        <ele>1411</ele>
        <time>2023-09-30T06:55:10.000Z</time>
      </trkpt>
      <trkpt lat="46.01704" lon="6.80917">
        <ele>1411.4000244141</ele>
        <time>2023-09-30T06:55:11.000Z</time>
      </trkpt>
      <trkpt lat="46.01704" lon="6.80917">
        <ele>1411.8000488281</ele>
        <time>2023-09-30T06:55:13.000Z</time>
      </trkpt>
      <trkpt lat="46.01704" lon="6.80917">
        <ele>1411.8000488281</ele>
        <time>2023-09-30T06:55:14.000Z</time>
      </trkpt>
      <trkpt lat="46.01704" lon="6.80917">
        <ele>1412</ele>
        <time>2023-09-30T06:55:15.000Z</time>
      </trkpt>
      <trkpt lat="46.01704" lon="6.80916">
        <ele>1412.1999511719</ele>
        <time>2023-09-30T06:55:16.000Z</time>
      </trkpt>
      <trkpt lat="46.01704" lon="6.80916">
        <ele>1412.8000488281</ele>
        <time>2023-09-30T06:55:20.000Z</time>
      </trkpt>
      <trkpt lat="46.01704" lon="6.80916">
        <ele>1413</ele>
        <time>2023-09-30T06:55:21.000Z</time>
      </trkpt>
      <trkpt lat="46.01704" lon="6.80916">
        <ele>1413.8000488281</ele>
        <time>2023-09-30T06:55:26.000Z</time>
      </trkpt>
      <trkpt lat="46.01704" lon="6.80916">
        <ele>1415.1999511719</ele>
        <time>2023-09-30T06:55:33.000Z</time>
      </trkpt>
      <trkpt lat="46.01702" lon="6.80916">
        <ele>1416.4000244141</ele>
        <time>2023-09-30T06:55:40.000Z</time>
      </trkpt>
      <trkpt lat="46.01696" lon="6.80916">
        <ele>1417.4000244141</ele>
        <time>2023-09-30T06:55:52.000Z</time>
      </trkpt>
      <trkpt lat="46.01692" lon="6.80916">
        <ele>1417.1999511719</ele>
        <time>2023-09-30T06:55:58.000Z</time>
      </trkpt>
      <trkpt lat="46.01691" lon="6.80917">
        <ele>1417.1999511719</ele>
        <time>2023-09-30T06:55:59.000Z</time>
      </trkpt>
      <trkpt lat="46.0169" lon="6.80917">
        <ele>1417.1999511719</ele>
        <time>2023-09-30T06:56:01.000Z</time>
      </trkpt>
      <trkpt lat="46.0169" lon="6.80917">
        <ele>1417.1999511719</ele>
        <time>2023-09-30T06:56:02.000Z</time>
      </trkpt>
      <trkpt lat="46.01689" lon="6.80916">
        <ele>1417.4000244141</ele>
        <time>2023-09-30T06:56:03.000Z</time>
      </trkpt>
      <trkpt lat="46.01685" lon="6.80915">
        <ele>1417.4000244141</ele>
        <time>2023-09-30T06:56:06.000Z</time>
      </trkpt>
      <trkpt lat="46.01684" lon="6.80915">
        <ele>1417.5999755859</ele>
        <time>2023-09-30T06:56:07.000Z</time>
      </trkpt>
      <trkpt lat="46.0168" lon="6.80914">
        <ele>1418</ele>
        <time>2023-09-30T06:56:10.000Z</time>
      </trkpt>
      <trkpt lat="46.01679" lon="6.80914">
        <ele>1418.1999511719</ele>
        <time>2023-09-30T06:56:11.000Z</time>
      </trkpt>
      <trkpt lat="46.01678" lon="6.80915">
        <ele>1418.4000244141</ele>
        <time>2023-09-30T06:56:12.000Z</time>
      </trkpt>
      <trkpt lat="46.01676" lon="6.80915">
        <ele>1418.8000488281</ele>
        <time>2023-09-30T06:56:14.000Z</time>
      </trkpt>
      <trkpt lat="46.01673" lon="6.80916">
        <ele>1419.4000244141</ele>
        <time>2023-09-30T06:56:16.000Z</time>
      </trkpt>
      <trkpt lat="46.01672" lon="6.80917">
        <ele>1420</ele>
        <time>2023-09-30T06:56:17.000Z</time>
      </trkpt>
      <trkpt lat="46.01672" lon="6.80917">
        <ele>1420.4000244141</ele>
        <time>2023-09-30T06:56:18.000Z</time>
      </trkpt>
      <trkpt lat="46.01671" lon="6.80917">
        <ele>1420.8000488281</ele>
        <time>2023-09-30T06:56:19.000Z</time>
      </trkpt>
      <trkpt lat="46.0167" lon="6.80917">
        <ele>1420.8000488281</ele>
        <time>2023-09-30T06:56:20.000Z</time>
      </trkpt>
      <trkpt lat="46.0167" lon="6.80917">
        <ele>1421.1999511719</ele>
        <time>2023-09-30T06:56:21.000Z</time>
      </trkpt>
      <trkpt lat="46.0167" lon="6.80917">
        <ele>1421.1999511719</ele>
        <time>2023-09-30T06:56:22.000Z</time>
      </trkpt>
      <trkpt lat="46.01669" lon="6.80917">
        <ele>1421.4000244141</ele>
        <time>2023-09-30T06:56:23.000Z</time>
      </trkpt>
      <trkpt lat="46.01669" lon="6.80916">
        <ele>1421.8000488281</ele>
        <time>2023-09-30T06:56:24.000Z</time>
      </trkpt>
      <trkpt lat="46.01669" lon="6.80915">
        <ele>1421.8000488281</ele>
        <time>2023-09-30T06:56:25.000Z</time>
      </trkpt>
      <trkpt lat="46.01668" lon="6.80915">
        <ele>1422.1999511719</ele>
        <time>2023-09-30T06:56:26.000Z</time>
      </trkpt>
      <trkpt lat="46.01667" lon="6.80914">
        <ele>1422.4000244141</ele>
        <time>2023-09-30T06:56:27.000Z</time>
      </trkpt>
      <trkpt lat="46.01666" lon="6.80915">
        <ele>1422.5999755859</ele>
        <time>2023-09-30T06:56:28.000Z</time>
      </trkpt>
      <trkpt lat="46.01665" lon="6.80915">
        <ele>1422.8000488281</ele>
        <time>2023-09-30T06:56:29.000Z</time>
      </trkpt>
      <trkpt lat="46.01664" lon="6.80914">
        <ele>1423</ele>
        <time>2023-09-30T06:56:30.000Z</time>
      </trkpt>
      <trkpt lat="46.01664" lon="6.80913">
        <ele>1423.1999511719</ele>
        <time>2023-09-30T06:56:31.000Z</time>
      </trkpt>
      <trkpt lat="46.01663" lon="6.80911">
        <ele>1423.1999511719</ele>
        <time>2023-09-30T06:56:32.000Z</time>
      </trkpt>
      <trkpt lat="46.01662" lon="6.8091">
        <ele>1423.4000244141</ele>
        <time>2023-09-30T06:56:33.000Z</time>
      </trkpt>
      <trkpt lat="46.01661" lon="6.80909">
        <ele>1423.5999755859</ele>
        <time>2023-09-30T06:56:34.000Z</time>
      </trkpt>
      <trkpt lat="46.0166" lon="6.80909">
        <ele>1423.5999755859</ele>
        <time>2023-09-30T06:56:35.000Z</time>
      </trkpt>
      <trkpt lat="46.0166" lon="6.80909">
        <ele>1423.8000488281</ele>
        <time>2023-09-30T06:56:36.000Z</time>
      </trkpt>
      <trkpt lat="46.01659" lon="6.80908">
        <ele>1423.8000488281</ele>
        <time>2023-09-30T06:56:37.000Z</time>
      </trkpt>
      <trkpt lat="46.01659" lon="6.80907">
        <ele>1424</ele>
        <time>2023-09-30T06:56:38.000Z</time>
      </trkpt>
      <trkpt lat="46.01658" lon="6.80907">
        <ele>1424.1999511719</ele>
        <time>2023-09-30T06:56:39.000Z</time>
      </trkpt>
      <trkpt lat="46.01658" lon="6.80907">
        <ele>1424.5999755859</ele>
        <time>2023-09-30T06:56:40.000Z</time>
      </trkpt>
      <trkpt lat="46.01658" lon="6.80907">
        <ele>1424.8000488281</ele>
        <time>2023-09-30T06:56:41.000Z</time>
      </trkpt>
      <trkpt lat="46.01658" lon="6.80907">
        <ele>1425</ele>
        <time>2023-09-30T06:56:42.000Z</time>
      </trkpt>
      <trkpt lat="46.01657" lon="6.80907">
        <ele>1425.1999511719</ele>
        <time>2023-09-30T06:56:43.000Z</time>
      </trkpt>
      <trkpt lat="46.01656" lon="6.80906">
        <ele>1425.4000244141</ele>
        <time>2023-09-30T06:56:44.000Z</time>
      </trkpt>
      <trkpt lat="46.01656" lon="6.80906">
        <ele>1425.5999755859</ele>
        <time>2023-09-30T06:56:45.000Z</time>
      </trkpt>
      <trkpt lat="46.01655" lon="6.80906">
        <ele>1425.5999755859</ele>
        <time>2023-09-30T06:56:46.000Z</time>
      </trkpt>
      <trkpt lat="46.01654" lon="6.80906">
        <ele>1425.8000488281</ele>
        <time>2023-09-30T06:56:47.000Z</time>
      </trkpt>
      <trkpt lat="46.01654" lon="6.80906">
        <ele>1426</ele>
        <time>2023-09-30T06:56:48.000Z</time>
      </trkpt>
      <trkpt lat="46.01654" lon="6.80906">
        <ele>1426.1999511719</ele>
        <time>2023-09-30T06:56:49.000Z</time>
      </trkpt>
      <trkpt lat="46.01653" lon="6.80906">
        <ele>1426.4000244141</ele>
        <time>2023-09-30T06:56:50.000Z</time>
      </trkpt>
      <trkpt lat="46.01653" lon="6.80906">
        <ele>1426.4000244141</ele>
        <time>2023-09-30T06:56:51.000Z</time>
      </trkpt>
      <trkpt lat="46.01653" lon="6.80906">
        <ele>1426.5999755859</ele>
        <time>2023-09-30T06:56:52.000Z</time>
      </trkpt>
      <trkpt lat="46.01652" lon="6.80906">
        <ele>1426.8000488281</ele>
        <time>2023-09-30T06:56:53.000Z</time>
      </trkpt>
      <trkpt lat="46.01651" lon="6.80906">
        <ele>1427</ele>
        <time>2023-09-30T06:56:54.000Z</time>
      </trkpt>
      <trkpt lat="46.0165" lon="6.80907">
        <ele>1427.4000244141</ele>
        <time>2023-09-30T06:56:55.000Z</time>
      </trkpt>
      <trkpt lat="46.01649" lon="6.80906">
        <ele>1427.4000244141</ele>
        <time>2023-09-30T06:56:56.000Z</time>
      </trkpt>
      <trkpt lat="46.01648" lon="6.80906">
        <ele>1427.5999755859</ele>
        <time>2023-09-30T06:56:57.000Z</time>
      </trkpt>
      <trkpt lat="46.01647" lon="6.80906">
        <ele>1427.5999755859</ele>
        <time>2023-09-30T06:56:58.000Z</time>
      </trkpt>
      <trkpt lat="46.01646" lon="6.80905">
        <ele>1427.8000488281</ele>
        <time>2023-09-30T06:56:59.000Z</time>
      </trkpt>
      <trkpt lat="46.01646" lon="6.80905">
        <ele>1428</ele>
        <time>2023-09-30T06:57:00.000Z</time>
      </trkpt>
      <trkpt lat="46.01645" lon="6.80905">
        <ele>1428</ele>
        <time>2023-09-30T06:57:01.000Z</time>
      </trkpt>
      <trkpt lat="46.01644" lon="6.80905">
        <ele>1428.1999511719</ele>
        <time>2023-09-30T06:57:02.000Z</time>
      </trkpt>
      <trkpt lat="46.01644" lon="6.80905">
        <ele>1428.1999511719</ele>
        <time>2023-09-30T06:57:03.000Z</time>
      </trkpt>
      <trkpt lat="46.01643" lon="6.80905">
        <ele>1428.5999755859</ele>
        <time>2023-09-30T06:57:04.000Z</time>
      </trkpt>
      <trkpt lat="46.01643" lon="6.80905">
        <ele>1428.5999755859</ele>
        <time>2023-09-30T06:57:05.000Z</time>
      </trkpt>
      <trkpt lat="46.01642" lon="6.80905">
        <ele>1428.8000488281</ele>
        <time>2023-09-30T06:57:06.000Z</time>
      </trkpt>
      <trkpt lat="46.01641" lon="6.80906">
        <ele>1428.8000488281</ele>
        <time>2023-09-30T06:57:07.000Z</time>
      </trkpt>
      <trkpt lat="46.01641" lon="6.80905">
        <ele>1429.1999511719</ele>
        <time>2023-09-30T06:57:08.000Z</time>
      </trkpt>
      <trkpt lat="46.0164" lon="6.80903">
        <ele>1429.4000244141</ele>
        <time>2023-09-30T06:57:09.000Z</time>
      </trkpt>
      <trkpt lat="46.01639" lon="6.80903">
        <ele>1429.8000488281</ele>
        <time>2023-09-30T06:57:10.000Z</time>
      </trkpt>
      <trkpt lat="46.01638" lon="6.80902">
        <ele>1430</ele>
        <time>2023-09-30T06:57:11.000Z</time>
      </trkpt>
      <trkpt lat="46.01637" lon="6.80902">
        <ele>1430.1999511719</ele>
        <time>2023-09-30T06:57:12.000Z</time>
      </trkpt>
      <trkpt lat="46.01636" lon="6.80902">
        <ele>1430.4000244141</ele>
        <time>2023-09-30T06:57:13.000Z</time>
      </trkpt>
      <trkpt lat="46.01635" lon="6.80901">
        <ele>1430.4000244141</ele>
        <time>2023-09-30T06:57:14.000Z</time>
      </trkpt>
      <trkpt lat="46.01634" lon="6.80901">
        <ele>1430.5999755859</ele>
        <time>2023-09-30T06:57:15.000Z</time>
      </trkpt>
      <trkpt lat="46.01633" lon="6.80901">
        <ele>1431</ele>
        <time>2023-09-30T06:57:16.000Z</time>
      </trkpt>
      <trkpt lat="46.01632" lon="6.80901">
        <ele>1431.1999511719</ele>
        <time>2023-09-30T06:57:17.000Z</time>
      </trkpt>
      <trkpt lat="46.01632" lon="6.80901">
        <ele>1431.4000244141</ele>
        <time>2023-09-30T06:57:18.000Z</time>
      </trkpt>
      <trkpt lat="46.01631" lon="6.80901">
        <ele>1431.4000244141</ele>
        <time>2023-09-30T06:57:19.000Z</time>
      </trkpt>
      <trkpt lat="46.0163" lon="6.80901">
        <ele>1431.5999755859</ele>
        <time>2023-09-30T06:57:20.000Z</time>
      </trkpt>
      <trkpt lat="46.01628" lon="6.80901">
        <ele>1431.8000488281</ele>
        <time>2023-09-30T06:57:21.000Z</time>
      </trkpt>
      <trkpt lat="46.01627" lon="6.80902">
        <ele>1431.8000488281</ele>
        <time>2023-09-30T06:57:22.000Z</time>
      </trkpt>
      <trkpt lat="46.01627" lon="6.80901">
        <ele>1432</ele>
        <time>2023-09-30T06:57:23.000Z</time>
      </trkpt>
      <trkpt lat="46.01627" lon="6.80901">
        <ele>1432.1999511719</ele>
        <time>2023-09-30T06:57:24.000Z</time>
      </trkpt>
      <trkpt lat="46.01627" lon="6.80899">
        <ele>1432.1999511719</ele>
        <time>2023-09-30T06:57:25.000Z</time>
      </trkpt>
      <trkpt lat="46.01626" lon="6.80899">
        <ele>1432.4000244141</ele>
        <time>2023-09-30T06:57:26.000Z</time>
      </trkpt>
      <trkpt lat="46.01626" lon="6.80899">
        <ele>1433</ele>
        <time>2023-09-30T06:57:28.000Z</time>
      </trkpt>
      <trkpt lat="46.01626" lon="6.80899">
        <ele>1433</ele>
        <time>2023-09-30T06:57:29.000Z</time>
      </trkpt>
      <trkpt lat="46.01625" lon="6.80899">
        <ele>1433.1999511719</ele>
        <time>2023-09-30T06:57:30.000Z</time>
      </trkpt>
      <trkpt lat="46.01624" lon="6.80899">
        <ele>1433.1999511719</ele>
        <time>2023-09-30T06:57:31.000Z</time>
      </trkpt>
      <trkpt lat="46.01624" lon="6.80899">
        <ele>1433.4000244141</ele>
        <time>2023-09-30T06:57:32.000Z</time>
      </trkpt>
      <trkpt lat="46.01623" lon="6.80899">
        <ele>1433.4000244141</ele>
        <time>2023-09-30T06:57:33.000Z</time>
      </trkpt>
      <trkpt lat="46.01622" lon="6.80898">
        <ele>1433.5999755859</ele>
        <time>2023-09-30T06:57:34.000Z</time>
      </trkpt>
      <trkpt lat="46.01622" lon="6.80898">
        <ele>1433.8000488281</ele>
        <time>2023-09-30T06:57:35.000Z</time>
      </trkpt>
      <trkpt lat="46.01622" lon="6.80897">
        <ele>1433.8000488281</ele>
        <time>2023-09-30T06:57:36.000Z</time>
      </trkpt>
      <trkpt lat="46.01621" lon="6.80896">
        <ele>1434.4000244141</ele>
        <time>2023-09-30T06:57:37.000Z</time>
      </trkpt>
      <trkpt lat="46.0162" lon="6.80895">
        <ele>1434.4000244141</ele>
        <time>2023-09-30T06:57:38.000Z</time>
      </trkpt>
      <trkpt lat="46.01619" lon="6.80894">
        <ele>1434.5999755859</ele>
        <time>2023-09-30T06:57:39.000Z</time>
      </trkpt>
      <trkpt lat="46.01618" lon="6.80894">
        <ele>1434.8000488281</ele>
        <time>2023-09-30T06:57:40.000Z</time>
      </trkpt>
      <trkpt lat="46.01616" lon="6.80894">
        <ele>1435</ele>
        <time>2023-09-30T06:57:41.000Z</time>
      </trkpt>
      <trkpt lat="46.01616" lon="6.80893">
        <ele>1435.4000244141</ele>
        <time>2023-09-30T06:57:42.000Z</time>
      </trkpt>
      <trkpt lat="46.01615" lon="6.80892">
        <ele>1435.4000244141</ele>
        <time>2023-09-30T06:57:43.000Z</time>
      </trkpt>
      <trkpt lat="46.01614" lon="6.80893">
        <ele>1435.8000488281</ele>
        <time>2023-09-30T06:57:44.000Z</time>
      </trkpt>
      <trkpt lat="46.01613" lon="6.80893">
        <ele>1435.8000488281</ele>
        <time>2023-09-30T06:57:45.000Z</time>
      </trkpt>
      <trkpt lat="46.01612" lon="6.80893">
        <ele>1436.1999511719</ele>
        <time>2023-09-30T06:57:46.000Z</time>
      </trkpt>
      <trkpt lat="46.01612" lon="6.80893">
        <ele>1436.4000244141</ele>
        <time>2023-09-30T06:57:47.000Z</time>
      </trkpt>
      <trkpt lat="46.01611" lon="6.80892">
        <ele>1436.5999755859</ele>
        <time>2023-09-30T06:57:48.000Z</time>
      </trkpt>
      <trkpt lat="46.0161" lon="6.80891">
        <ele>1436.8000488281</ele>
        <time>2023-09-30T06:57:49.000Z</time>
      </trkpt>
      <trkpt lat="46.0161" lon="6.8089">
        <ele>1437</ele>
        <time>2023-09-30T06:57:50.000Z</time>
      </trkpt>
      <trkpt lat="46.01609" lon="6.80889">
        <ele>1437</ele>
        <time>2023-09-30T06:57:51.000Z</time>
      </trkpt>
      <trkpt lat="46.01608" lon="6.80889">
        <ele>1437.1999511719</ele>
        <time>2023-09-30T06:57:52.000Z</time>
      </trkpt>
      <trkpt lat="46.01608" lon="6.80888">
        <ele>1437.1999511719</ele>
        <time>2023-09-30T06:57:53.000Z</time>
      </trkpt>
      <trkpt lat="46.01608" lon="6.80887">
        <ele>1437.4000244141</ele>
        <time>2023-09-30T06:57:54.000Z</time>
      </trkpt>
      <trkpt lat="46.01607" lon="6.80886">
        <ele>1437.5999755859</ele>
        <time>2023-09-30T06:57:55.000Z</time>
      </trkpt>
      <trkpt lat="46.01607" lon="6.80886">
        <ele>1437.5999755859</ele>
        <time>2023-09-30T06:57:56.000Z</time>
      </trkpt>
      <trkpt lat="46.01606" lon="6.80885">
        <ele>1437.8000488281</ele>
        <time>2023-09-30T06:57:57.000Z</time>
      </trkpt>
      <trkpt lat="46.01605" lon="6.80885">
        <ele>1438</ele>
        <time>2023-09-30T06:57:58.000Z</time>
      </trkpt>
      <trkpt lat="46.01604" lon="6.80884">
        <ele>1438.1999511719</ele>
        <time>2023-09-30T06:57:59.000Z</time>
      </trkpt>
      <trkpt lat="46.01603" lon="6.80884">
        <ele>1438.8000488281</ele>
        <time>2023-09-30T06:58:00.000Z</time>
      </trkpt>
      <trkpt lat="46.01602" lon="6.80883">
        <ele>1439</ele>
        <time>2023-09-30T06:58:01.000Z</time>
      </trkpt>
      <trkpt lat="46.01601" lon="6.80882">
        <ele>1439.1999511719</ele>
        <time>2023-09-30T06:58:02.000Z</time>
      </trkpt>
      <trkpt lat="46.016" lon="6.80882">
        <ele>1439.1999511719</ele>
        <time>2023-09-30T06:58:03.000Z</time>
      </trkpt>
      <trkpt lat="46.016" lon="6.80882">
        <ele>1439.1999511719</ele>
        <time>2023-09-30T06:58:04.000Z</time>
      </trkpt>
      <trkpt lat="46.01599" lon="6.80881">
        <ele>1439.4000244141</ele>
        <time>2023-09-30T06:58:05.000Z</time>
      </trkpt>
      <trkpt lat="46.01598" lon="6.80881">
        <ele>1439.4000244141</ele>
        <time>2023-09-30T06:58:06.000Z</time>
      </trkpt>
      <trkpt lat="46.01598" lon="6.8088">
        <ele>1439.4000244141</ele>
        <time>2023-09-30T06:58:07.000Z</time>
      </trkpt>
      <trkpt lat="46.01597" lon="6.80879">
        <ele>1439.5999755859</ele>
        <time>2023-09-30T06:58:08.000Z</time>
      </trkpt>
      <trkpt lat="46.01596" lon="6.80879">
        <ele>1439.5999755859</ele>
        <time>2023-09-30T06:58:09.000Z</time>
      </trkpt>
      <trkpt lat="46.01595" lon="6.80878">
        <ele>1439.8000488281</ele>
        <time>2023-09-30T06:58:10.000Z</time>
      </trkpt>
      <trkpt lat="46.01594" lon="6.80877">
        <ele>1440</ele>
        <time>2023-09-30T06:58:11.000Z</time>
      </trkpt>
      <trkpt lat="46.01594" lon="6.80876">
        <ele>1440.1999511719</ele>
        <time>2023-09-30T06:58:12.000Z</time>
      </trkpt>
      <trkpt lat="46.01593" lon="6.80875">
        <ele>1440.4000244141</ele>
        <time>2023-09-30T06:58:13.000Z</time>
      </trkpt>
      <trkpt lat="46.01593" lon="6.80874">
        <ele>1440.5999755859</ele>
        <time>2023-09-30T06:58:14.000Z</time>
      </trkpt>
      <trkpt lat="46.01593" lon="6.80873">
        <ele>1440.5999755859</ele>
        <time>2023-09-30T06:58:15.000Z</time>
      </trkpt>
      <trkpt lat="46.01592" lon="6.80872">
        <ele>1440.8000488281</ele>
        <time>2023-09-30T06:58:16.000Z</time>
      </trkpt>
      <trkpt lat="46.01592" lon="6.80872">
        <ele>1441.1999511719</ele>
        <time>2023-09-30T06:58:17.000Z</time>
      </trkpt>
      <trkpt lat="46.01592" lon="6.80872">
        <ele>1441.1999511719</ele>
        <time>2023-09-30T06:58:18.000Z</time>
      </trkpt>
      <trkpt lat="46.01592" lon="6.80871">
        <ele>1441.4000244141</ele>
        <time>2023-09-30T06:58:19.000Z</time>
      </trkpt>
      <trkpt lat="46.01592" lon="6.80871">
        <ele>1441.5999755859</ele>
        <time>2023-09-30T06:58:21.000Z</time>
      </trkpt>
      <trkpt lat="46.01592" lon="6.80871">
        <ele>1441.8000488281</ele>
        <time>2023-09-30T06:58:22.000Z</time>
      </trkpt>
      <trkpt lat="46.01592" lon="6.80871">
        <ele>1441.8000488281</ele>
        <time>2023-09-30T06:58:23.000Z</time>
      </trkpt>
      <trkpt lat="46.01592" lon="6.80871">
        <ele>1442.5999755859</ele>
        <time>2023-09-30T06:58:32.000Z</time>
      </trkpt>
      <trkpt lat="46.01592" lon="6.80871">
        <ele>1442.5999755859</ele>
        <time>2023-09-30T06:58:45.000Z</time>
      </trkpt>
      <trkpt lat="46.01592" lon="6.80871">
        <ele>1442.5999755859</ele>
        <time>2023-09-30T06:58:46.000Z</time>
      </trkpt>
      <trkpt lat="46.01594" lon="6.8087">
        <ele>1442.8000488281</ele>
        <time>2023-09-30T06:58:48.000Z</time>
      </trkpt>
      <trkpt lat="46.01595" lon="6.8087">
        <ele>1443</ele>
        <time>2023-09-30T06:58:49.000Z</time>
      </trkpt>
      <trkpt lat="46.01597" lon="6.80869">
        <ele>1443.1999511719</ele>
        <time>2023-09-30T06:58:51.000Z</time>
      </trkpt>
      <trkpt lat="46.01598" lon="6.80869">
        <ele>1443.1999511719</ele>
        <time>2023-09-30T06:58:52.000Z</time>
      </trkpt>
      <trkpt lat="46.01599" lon="6.80869">
        <ele>1443.4000244141</ele>
        <time>2023-09-30T06:58:53.000Z</time>
      </trkpt>
      <trkpt lat="46.016" lon="6.80869">
        <ele>1443.8000488281</ele>
        <time>2023-09-30T06:58:54.000Z</time>
      </trkpt>
      <trkpt lat="46.016" lon="6.80869">
        <ele>1444</ele>
        <time>2023-09-30T06:58:55.000Z</time>
      </trkpt>
      <trkpt lat="46.01601" lon="6.80869">
        <ele>1444</ele>
        <time>2023-09-30T06:58:56.000Z</time>
      </trkpt>
      <trkpt lat="46.01601" lon="6.80869">
        <ele>1444.4000244141</ele>
        <time>2023-09-30T06:58:57.000Z</time>
      </trkpt>
      <trkpt lat="46.01601" lon="6.80869">
        <ele>1444.4000244141</ele>
        <time>2023-09-30T06:58:58.000Z</time>
      </trkpt>
      <trkpt lat="46.01602" lon="6.80869">
        <ele>1444.5999755859</ele>
        <time>2023-09-30T06:58:59.000Z</time>
      </trkpt>
      <trkpt lat="46.01603" lon="6.8087">
        <ele>1444.8000488281</ele>
        <time>2023-09-30T06:59:00.000Z</time>
      </trkpt>
      <trkpt lat="46.01604" lon="6.80869">
        <ele>1445</ele>
        <time>2023-09-30T06:59:01.000Z</time>
      </trkpt>
      <trkpt lat="46.01605" lon="6.80869">
        <ele>1445.1999511719</ele>
        <time>2023-09-30T06:59:02.000Z</time>
      </trkpt>
      <trkpt lat="46.01606" lon="6.80868">
        <ele>1445.1999511719</ele>
        <time>2023-09-30T06:59:03.000Z</time>
      </trkpt>
      <trkpt lat="46.01607" lon="6.80867">
        <ele>1445.4000244141</ele>
        <time>2023-09-30T06:59:04.000Z</time>
      </trkpt>
      <trkpt lat="46.01608" lon="6.80866">
        <ele>1445.5999755859</ele>
        <time>2023-09-30T06:59:05.000Z</time>
      </trkpt>
      <trkpt lat="46.01608" lon="6.80865">
        <ele>1445.8000488281</ele>
        <time>2023-09-30T06:59:06.000Z</time>
      </trkpt>
      <trkpt lat="46.01609" lon="6.80865">
        <ele>1445.8000488281</ele>
        <time>2023-09-30T06:59:07.000Z</time>
      </trkpt>
      <trkpt lat="46.0161" lon="6.80864">
        <ele>1446</ele>
        <time>2023-09-30T06:59:08.000Z</time>
      </trkpt>
      <trkpt lat="46.01611" lon="6.80863">
        <ele>1446.1999511719</ele>
        <time>2023-09-30T06:59:09.000Z</time>
      </trkpt>
      <trkpt lat="46.01611" lon="6.80863">
        <ele>1446.1999511719</ele>
        <time>2023-09-30T06:59:10.000Z</time>
      </trkpt>
      <trkpt lat="46.01612" lon="6.80862">
        <ele>1446.4000244141</ele>
        <time>2023-09-30T06:59:11.000Z</time>
      </trkpt>
      <trkpt lat="46.01612" lon="6.80862">
        <ele>1446.8000488281</ele>
        <time>2023-09-30T06:59:14.000Z</time>
      </trkpt>
      <trkpt lat="46.01612" lon="6.80862">
        <ele>1447.1999511719</ele>
        <time>2023-09-30T06:59:20.000Z</time>
      </trkpt>
      <trkpt lat="46.01612" lon="6.80862">
        <ele>1447.1999511719</ele>
        <time>2023-09-30T06:59:23.000Z</time>
      </trkpt>
      <trkpt lat="46.01612" lon="6.80862">
        <ele>1447.1999511719</ele>
        <time>2023-09-30T06:59:24.000Z</time>
      </trkpt>
      <trkpt lat="46.01612" lon="6.80861">
        <ele>1447.1999511719</ele>
        <time>2023-09-30T06:59:25.000Z</time>
      </trkpt>
      <trkpt lat="46.01614" lon="6.8086">
        <ele>1447.1999511719</ele>
        <time>2023-09-30T06:59:26.000Z</time>
      </trkpt>
      <trkpt lat="46.01614" lon="6.80858">
        <ele>1447.1999511719</ele>
        <time>2023-09-30T06:59:27.000Z</time>
      </trkpt>
      <trkpt lat="46.01615" lon="6.80858">
        <ele>1447.4000244141</ele>
        <time>2023-09-30T06:59:28.000Z</time>
      </trkpt>
      <trkpt lat="46.01615" lon="6.80856">
        <ele>1447.5999755859</ele>
        <time>2023-09-30T06:59:29.000Z</time>
      </trkpt>
      <trkpt lat="46.0162" lon="6.8085">
        <ele>1448.4000244141</ele>
        <time>2023-09-30T06:59:34.000Z</time>
      </trkpt>
      <trkpt lat="46.01621" lon="6.80848">
        <ele>1448.5999755859</ele>
        <time>2023-09-30T06:59:35.000Z</time>
      </trkpt>
      <trkpt lat="46.01623" lon="6.80847">
        <ele>1449</ele>
        <time>2023-09-30T06:59:37.000Z</time>
      </trkpt>
      <trkpt lat="46.01625" lon="6.80845">
        <ele>1449.4000244141</ele>
        <time>2023-09-30T06:59:39.000Z</time>
      </trkpt>
      <trkpt lat="46.01625" lon="6.80844">
        <ele>1449.4000244141</ele>
        <time>2023-09-30T06:59:40.000Z</time>
      </trkpt>
      <trkpt lat="46.01625" lon="6.80843">
        <ele>1449.5999755859</ele>
        <time>2023-09-30T06:59:41.000Z</time>
      </trkpt>
      <trkpt lat="46.01626" lon="6.80841">
        <ele>1449.8000488281</ele>
        <time>2023-09-30T06:59:42.000Z</time>
      </trkpt>
      <trkpt lat="46.01626" lon="6.80841">
        <ele>1449.8000488281</ele>
        <time>2023-09-30T06:59:43.000Z</time>
      </trkpt>
      <trkpt lat="46.01627" lon="6.8084">
        <ele>1450.1999511719</ele>
        <time>2023-09-30T06:59:44.000Z</time>
      </trkpt>
      <trkpt lat="46.01627" lon="6.80839">
        <ele>1450.4000244141</ele>
        <time>2023-09-30T06:59:45.000Z</time>
      </trkpt>
      <trkpt lat="46.01628" lon="6.80837">
        <ele>1450.5999755859</ele>
        <time>2023-09-30T06:59:46.000Z</time>
      </trkpt>
      <trkpt lat="46.01629" lon="6.80836">
        <ele>1450.8000488281</ele>
        <time>2023-09-30T06:59:47.000Z</time>
      </trkpt>
      <trkpt lat="46.0163" lon="6.80835">
        <ele>1451</ele>
        <time>2023-09-30T06:59:48.000Z</time>
      </trkpt>
      <trkpt lat="46.01631" lon="6.80834">
        <ele>1451.1999511719</ele>
        <time>2023-09-30T06:59:49.000Z</time>
      </trkpt>
      <trkpt lat="46.01632" lon="6.80833">
        <ele>1451.1999511719</ele>
        <time>2023-09-30T06:59:50.000Z</time>
      </trkpt>
      <trkpt lat="46.01633" lon="6.80832">
        <ele>1451.4000244141</ele>
        <time>2023-09-30T06:59:51.000Z</time>
      </trkpt>
      <trkpt lat="46.01633" lon="6.80831">
        <ele>1451.5999755859</ele>
        <time>2023-09-30T06:59:52.000Z</time>
      </trkpt>
      <trkpt lat="46.01634" lon="6.8083">
        <ele>1451.5999755859</ele>
        <time>2023-09-30T06:59:53.000Z</time>
      </trkpt>
      <trkpt lat="46.01635" lon="6.80828">
        <ele>1452</ele>
        <time>2023-09-30T06:59:54.000Z</time>
      </trkpt>
      <trkpt lat="46.01635" lon="6.80827">
        <ele>1452.4000244141</ele>
        <time>2023-09-30T06:59:55.000Z</time>
      </trkpt>
      <trkpt lat="46.01636" lon="6.80825">
        <ele>1452.8000488281</ele>
        <time>2023-09-30T06:59:56.000Z</time>
      </trkpt>
      <trkpt lat="46.01636" lon="6.80824">
        <ele>1452.8000488281</ele>
        <time>2023-09-30T06:59:57.000Z</time>
      </trkpt>
      <trkpt lat="46.01637" lon="6.80823">
        <ele>1453.1999511719</ele>
        <time>2023-09-30T06:59:58.000Z</time>
      </trkpt>
      <trkpt lat="46.01637" lon="6.80822">
        <ele>1453.1999511719</ele>
        <time>2023-09-30T06:59:59.000Z</time>
      </trkpt>
      <trkpt lat="46.01638" lon="6.80821">
        <ele>1453.5999755859</ele>
        <time>2023-09-30T07:00:00.000Z</time>
      </trkpt>
      <trkpt lat="46.01639" lon="6.8082">
        <ele>1453.5999755859</ele>
        <time>2023-09-30T07:00:01.000Z</time>
      </trkpt>
      <trkpt lat="46.01639" lon="6.80819">
        <ele>1453.8000488281</ele>
        <time>2023-09-30T07:00:02.000Z</time>
      </trkpt>
      <trkpt lat="46.0164" lon="6.80818">
        <ele>1454.1999511719</ele>
        <time>2023-09-30T07:00:03.000Z</time>
      </trkpt>
      <trkpt lat="46.0164" lon="6.80817">
        <ele>1454.4000244141</ele>
        <time>2023-09-30T07:00:04.000Z</time>
      </trkpt>
      <trkpt lat="46.01641" lon="6.80815">
        <ele>1454.8000488281</ele>
        <time>2023-09-30T07:00:05.000Z</time>
      </trkpt>
      <trkpt lat="46.01642" lon="6.80814">
        <ele>1454.8000488281</ele>
        <time>2023-09-30T07:00:06.000Z</time>
      </trkpt>
      <trkpt lat="46.01643" lon="6.80814">
        <ele>1454.8000488281</ele>
        <time>2023-09-30T07:00:07.000Z</time>
      </trkpt>
      <trkpt lat="46.01644" lon="6.80813">
        <ele>1455</ele>
        <time>2023-09-30T07:00:08.000Z</time>
      </trkpt>
      <trkpt lat="46.01644" lon="6.80812">
        <ele>1455</ele>
        <time>2023-09-30T07:00:09.000Z</time>
      </trkpt>
      <trkpt lat="46.01645" lon="6.80811">
        <ele>1455.1999511719</ele>
        <time>2023-09-30T07:00:10.000Z</time>
      </trkpt>
      <trkpt lat="46.01645" lon="6.8081">
        <ele>1455.4000244141</ele>
        <time>2023-09-30T07:00:11.000Z</time>
      </trkpt>
      <trkpt lat="46.01646" lon="6.80809">
        <ele>1455.5999755859</ele>
        <time>2023-09-30T07:00:12.000Z</time>
      </trkpt>
      <trkpt lat="46.01648" lon="6.80808">
        <ele>1455.8000488281</ele>
        <time>2023-09-30T07:00:13.000Z</time>
      </trkpt>
      <trkpt lat="46.01648" lon="6.80808">
        <ele>1456</ele>
        <time>2023-09-30T07:00:14.000Z</time>
      </trkpt>
      <trkpt lat="46.01649" lon="6.80807">
        <ele>1456.1999511719</ele>
        <time>2023-09-30T07:00:15.000Z</time>
      </trkpt>
      <trkpt lat="46.01649" lon="6.80806">
        <ele>1456.1999511719</ele>
        <time>2023-09-30T07:00:16.000Z</time>
      </trkpt>
      <trkpt lat="46.0165" lon="6.80806">
        <ele>1456.5999755859</ele>
        <time>2023-09-30T07:00:17.000Z</time>
      </trkpt>
      <trkpt lat="46.01651" lon="6.80804">
        <ele>1456.5999755859</ele>
        <time>2023-09-30T07:00:18.000Z</time>
      </trkpt>
      <trkpt lat="46.01652" lon="6.80803">
        <ele>1457</ele>
        <time>2023-09-30T07:00:19.000Z</time>
      </trkpt>
      <trkpt lat="46.01653" lon="6.80802">
        <ele>1457.1999511719</ele>
        <time>2023-09-30T07:00:20.000Z</time>
      </trkpt>
      <trkpt lat="46.01653" lon="6.80801">
        <ele>1457.4000244141</ele>
        <time>2023-09-30T07:00:21.000Z</time>
      </trkpt>
      <trkpt lat="46.01654" lon="6.808">
        <ele>1457.5999755859</ele>
        <time>2023-09-30T07:00:22.000Z</time>
      </trkpt>
      <trkpt lat="46.01655" lon="6.80799">
        <ele>1457.8000488281</ele>
        <time>2023-09-30T07:00:23.000Z</time>
      </trkpt>
      <trkpt lat="46.01656" lon="6.80798">
        <ele>1458</ele>
        <time>2023-09-30T07:00:24.000Z</time>
      </trkpt>
      <trkpt lat="46.01656" lon="6.80797">
        <ele>1458</ele>
        <time>2023-09-30T07:00:25.000Z</time>
      </trkpt>
      <trkpt lat="46.01656" lon="6.80796">
        <ele>1458.1999511719</ele>
        <time>2023-09-30T07:00:26.000Z</time>
      </trkpt>
      <trkpt lat="46.01657" lon="6.80796">
        <ele>1458.4000244141</ele>
        <time>2023-09-30T07:00:27.000Z</time>
      </trkpt>
      <trkpt lat="46.01658" lon="6.80795">
        <ele>1458.5999755859</ele>
        <time>2023-09-30T07:00:28.000Z</time>
      </trkpt>
      <trkpt lat="46.01658" lon="6.80795">
        <ele>1458.8000488281</ele>
        <time>2023-09-30T07:00:29.000Z</time>
      </trkpt>
      <trkpt lat="46.01659" lon="6.80794">
        <ele>1458.8000488281</ele>
        <time>2023-09-30T07:00:30.000Z</time>
      </trkpt>
      <trkpt lat="46.0166" lon="6.80793">
        <ele>1459.1999511719</ele>
        <time>2023-09-30T07:00:31.000Z</time>
      </trkpt>
      <trkpt lat="46.01661" lon="6.80792">
        <ele>1459.4000244141</ele>
        <time>2023-09-30T07:00:32.000Z</time>
      </trkpt>
      <trkpt lat="46.01662" lon="6.80791">
        <ele>1459.5999755859</ele>
        <time>2023-09-30T07:00:33.000Z</time>
      </trkpt>
      <trkpt lat="46.01662" lon="6.8079">
        <ele>1459.8000488281</ele>
        <time>2023-09-30T07:00:34.000Z</time>
      </trkpt>
      <trkpt lat="46.01663" lon="6.80789">
        <ele>1460</ele>
        <time>2023-09-30T07:00:35.000Z</time>
      </trkpt>
      <trkpt lat="46.01663" lon="6.80788">
        <ele>1460.1999511719</ele>
        <time>2023-09-30T07:00:36.000Z</time>
      </trkpt>
      <trkpt lat="46.01664" lon="6.80787">
        <ele>1460.1999511719</ele>
        <time>2023-09-30T07:00:37.000Z</time>
      </trkpt>
      <trkpt lat="46.01664" lon="6.80786">
        <ele>1460.5999755859</ele>
        <time>2023-09-30T07:00:38.000Z</time>
      </trkpt>
      <trkpt lat="46.01664" lon="6.80785">
        <ele>1460.5999755859</ele>
        <time>2023-09-30T07:00:39.000Z</time>
      </trkpt>
      <trkpt lat="46.01665" lon="6.80784">
        <ele>1461</ele>
        <time>2023-09-30T07:00:40.000Z</time>
      </trkpt>
      <trkpt lat="46.01664" lon="6.80782">
        <ele>1461.1999511719</ele>
        <time>2023-09-30T07:00:41.000Z</time>
      </trkpt>
      <trkpt lat="46.01664" lon="6.8078">
        <ele>1461.4000244141</ele>
        <time>2023-09-30T07:00:42.000Z</time>
      </trkpt>
      <trkpt lat="46.01664" lon="6.80779">
        <ele>1461.5999755859</ele>
        <time>2023-09-30T07:00:43.000Z</time>
      </trkpt>
      <trkpt lat="46.01665" lon="6.80777">
        <ele>1461.8000488281</ele>
        <time>2023-09-30T07:00:44.000Z</time>
      </trkpt>
      <trkpt lat="46.01665" lon="6.80776">
        <ele>1462</ele>
        <time>2023-09-30T07:00:45.000Z</time>
      </trkpt>
      <trkpt lat="46.01666" lon="6.80773">
        <ele>1462</ele>
        <time>2023-09-30T07:00:46.000Z</time>
      </trkpt>
      <trkpt lat="46.01666" lon="6.80773">
        <ele>1462.1999511719</ele>
        <time>2023-09-30T07:00:47.000Z</time>
      </trkpt>
      <trkpt lat="46.01666" lon="6.80773">
        <ele>1462.5999755859</ele>
        <time>2023-09-30T07:00:48.000Z</time>
      </trkpt>
      <trkpt lat="46.01666" lon="6.80773">
        <ele>1462.8000488281</ele>
        <time>2023-09-30T07:00:49.000Z</time>
      </trkpt>
      <trkpt lat="46.01666" lon="6.80773">
        <ele>1463</ele>
        <time>2023-09-30T07:00:50.000Z</time>
      </trkpt>
      <trkpt lat="46.01666" lon="6.80773">
        <ele>1463.1999511719</ele>
        <time>2023-09-30T07:00:51.000Z</time>
      </trkpt>
      <trkpt lat="46.01666" lon="6.80774">
        <ele>1463.5999755859</ele>
        <time>2023-09-30T07:00:52.000Z</time>
      </trkpt>
      <trkpt lat="46.01666" lon="6.80773">
        <ele>1463.5999755859</ele>
        <time>2023-09-30T07:00:53.000Z</time>
      </trkpt>
      <trkpt lat="46.01667" lon="6.80772">
        <ele>1463.8000488281</ele>
        <time>2023-09-30T07:00:54.000Z</time>
      </trkpt>
      <trkpt lat="46.01667" lon="6.80771">
        <ele>1464</ele>
        <time>2023-09-30T07:00:55.000Z</time>
      </trkpt>
      <trkpt lat="46.01667" lon="6.8077">
        <ele>1464</ele>
        <time>2023-09-30T07:00:56.000Z</time>
      </trkpt>
      <trkpt lat="46.01668" lon="6.80769">
        <ele>1464.1999511719</ele>
        <time>2023-09-30T07:00:57.000Z</time>
      </trkpt>
      <trkpt lat="46.01668" lon="6.80769">
        <ele>1464.1999511719</ele>
        <time>2023-09-30T07:00:58.000Z</time>
      </trkpt>
      <trkpt lat="46.01668" lon="6.80769">
        <ele>1464.4000244141</ele>
        <time>2023-09-30T07:00:59.000Z</time>
      </trkpt>
      <trkpt lat="46.01668" lon="6.80769">
        <ele>1464.5999755859</ele>
        <time>2023-09-30T07:01:00.000Z</time>
      </trkpt>
      <trkpt lat="46.01668" lon="6.80769">
        <ele>1464.8000488281</ele>
        <time>2023-09-30T07:01:01.000Z</time>
      </trkpt>
      <trkpt lat="46.01668" lon="6.80769">
        <ele>1465</ele>
        <time>2023-09-30T07:01:05.000Z</time>
      </trkpt>
      <trkpt lat="46.0167" lon="6.80769">
        <ele>1465.1999511719</ele>
        <time>2023-09-30T07:01:06.000Z</time>
      </trkpt>
      <trkpt lat="46.01671" lon="6.80769">
        <ele>1465.1999511719</ele>
        <time>2023-09-30T07:01:07.000Z</time>
      </trkpt>
      <trkpt lat="46.01672" lon="6.80769">
        <ele>1465.4000244141</ele>
        <time>2023-09-30T07:01:08.000Z</time>
      </trkpt>
      <trkpt lat="46.01673" lon="6.80769">
        <ele>1465.4000244141</ele>
        <time>2023-09-30T07:01:09.000Z</time>
      </trkpt>
      <trkpt lat="46.01674" lon="6.80769">
        <ele>1465.4000244141</ele>
        <time>2023-09-30T07:01:10.000Z</time>
      </trkpt>
      <trkpt lat="46.01675" lon="6.80769">
        <ele>1465.5999755859</ele>
        <time>2023-09-30T07:01:11.000Z</time>
      </trkpt>
      <trkpt lat="46.01676" lon="6.80769">
        <ele>1465.5999755859</ele>
        <time>2023-09-30T07:01:12.000Z</time>
      </trkpt>
      <trkpt lat="46.01678" lon="6.80769">
        <ele>1465.8000488281</ele>
        <time>2023-09-30T07:01:13.000Z</time>
      </trkpt>
      <trkpt lat="46.01679" lon="6.80768">
        <ele>1466</ele>
        <time>2023-09-30T07:01:14.000Z</time>
      </trkpt>
      <trkpt lat="46.01681" lon="6.80768">
        <ele>1466</ele>
        <time>2023-09-30T07:01:15.000Z</time>
      </trkpt>
      <trkpt lat="46.01682" lon="6.80766">
        <ele>1466</ele>
        <time>2023-09-30T07:01:16.000Z</time>
      </trkpt>
      <trkpt lat="46.01683" lon="6.80765">
        <ele>1466.1999511719</ele>
        <time>2023-09-30T07:01:17.000Z</time>
      </trkpt>
      <trkpt lat="46.01684" lon="6.80763">
        <ele>1466.1999511719</ele>
        <time>2023-09-30T07:01:18.000Z</time>
      </trkpt>
      <trkpt lat="46.01686" lon="6.80762">
        <ele>1466.1999511719</ele>
        <time>2023-09-30T07:01:19.000Z</time>
      </trkpt>
      <trkpt lat="46.01687" lon="6.8076">
        <ele>1466.1999511719</ele>
        <time>2023-09-30T07:01:20.000Z</time>
      </trkpt>
      <trkpt lat="46.01688" lon="6.80758">
        <ele>1466.5999755859</ele>
        <time>2023-09-30T07:01:21.000Z</time>
      </trkpt>
      <trkpt lat="46.0169" lon="6.80758">
        <ele>1466.4000244141</ele>
        <time>2023-09-30T07:01:22.000Z</time>
      </trkpt>
      <trkpt lat="46.01691" lon="6.80757">
        <ele>1466.5999755859</ele>
        <time>2023-09-30T07:01:23.000Z</time>
      </trkpt>
      <trkpt lat="46.01692" lon="6.80755">
        <ele>1466.5999755859</ele>
        <time>2023-09-30T07:01:24.000Z</time>
      </trkpt>
      <trkpt lat="46.01693" lon="6.80754">
        <ele>1466.5999755859</ele>
        <time>2023-09-30T07:01:25.000Z</time>
      </trkpt>
      <trkpt lat="46.01694" lon="6.80753">
        <ele>1466.8000488281</ele>
        <time>2023-09-30T07:01:26.000Z</time>
      </trkpt>
      <trkpt lat="46.01695" lon="6.80752">
        <ele>1466.8000488281</ele>
        <time>2023-09-30T07:01:27.000Z</time>
      </trkpt>
      <trkpt lat="46.01696" lon="6.8075">
        <ele>1467</ele>
        <time>2023-09-30T07:01:28.000Z</time>
      </trkpt>
      <trkpt lat="46.01697" lon="6.80749">
        <ele>1467</ele>
        <time>2023-09-30T07:01:29.000Z</time>
      </trkpt>
      <trkpt lat="46.01698" lon="6.80748">
        <ele>1467</ele>
        <time>2023-09-30T07:01:30.000Z</time>
      </trkpt>
      <trkpt lat="46.017" lon="6.80745">
        <ele>1467.5999755859</ele>
        <time>2023-09-30T07:01:33.000Z</time>
      </trkpt>
      <trkpt lat="46.01701" lon="6.80745">
        <ele>1468</ele>
        <time>2023-09-30T07:01:34.000Z</time>
      </trkpt>
      <trkpt lat="46.01701" lon="6.80745">
        <ele>1468.1999511719</ele>
        <time>2023-09-30T07:01:35.000Z</time>
      </trkpt>
      <trkpt lat="46.01701" lon="6.80745">
        <ele>1468.1999511719</ele>
        <time>2023-09-30T07:01:36.000Z</time>
      </trkpt>
      <trkpt lat="46.01701" lon="6.80745">
        <ele>1468.4000244141</ele>
        <time>2023-09-30T07:01:37.000Z</time>
      </trkpt>
      <trkpt lat="46.01702" lon="6.80744">
        <ele>1468.5999755859</ele>
        <time>2023-09-30T07:01:38.000Z</time>
      </trkpt>
      <trkpt lat="46.01702" lon="6.80743">
        <ele>1469</ele>
        <time>2023-09-30T07:01:39.000Z</time>
      </trkpt>
      <trkpt lat="46.01703" lon="6.80743">
        <ele>1469</ele>
        <time>2023-09-30T07:01:40.000Z</time>
      </trkpt>
      <trkpt lat="46.01704" lon="6.80742">
        <ele>1469.4000244141</ele>
        <time>2023-09-30T07:01:41.000Z</time>
      </trkpt>
      <trkpt lat="46.01705" lon="6.80741">
        <ele>1469.4000244141</ele>
        <time>2023-09-30T07:01:42.000Z</time>
      </trkpt>
      <trkpt lat="46.01706" lon="6.8074">
        <ele>1469.5999755859</ele>
        <time>2023-09-30T07:01:43.000Z</time>
      </trkpt>
      <trkpt lat="46.01707" lon="6.80741">
        <ele>1469.8000488281</ele>
        <time>2023-09-30T07:01:44.000Z</time>
      </trkpt>
      <trkpt lat="46.01707" lon="6.8074">
        <ele>1470</ele>
        <time>2023-09-30T07:01:45.000Z</time>
      </trkpt>
      <trkpt lat="46.01707" lon="6.8074">
        <ele>1470.1999511719</ele>
        <time>2023-09-30T07:01:46.000Z</time>
      </trkpt>
      <trkpt lat="46.01707" lon="6.80739">
        <ele>1470.4000244141</ele>
        <time>2023-09-30T07:01:47.000Z</time>
      </trkpt>
      <trkpt lat="46.01709" lon="6.80738">
        <ele>1470.5999755859</ele>
        <time>2023-09-30T07:01:48.000Z</time>
      </trkpt>
      <trkpt lat="46.0171" lon="6.80736">
        <ele>1471</ele>
        <time>2023-09-30T07:01:49.000Z</time>
      </trkpt>
      <trkpt lat="46.0171" lon="6.80735">
        <ele>1471.1999511719</ele>
        <time>2023-09-30T07:01:50.000Z</time>
      </trkpt>
      <trkpt lat="46.01711" lon="6.80734">
        <ele>1471.4000244141</ele>
        <time>2023-09-30T07:01:51.000Z</time>
      </trkpt>
      <trkpt lat="46.01712" lon="6.80733">
        <ele>1471.5999755859</ele>
        <time>2023-09-30T07:01:52.000Z</time>
      </trkpt>
      <trkpt lat="46.01712" lon="6.80732">
        <ele>1471.8000488281</ele>
        <time>2023-09-30T07:01:53.000Z</time>
      </trkpt>
      <trkpt lat="46.01713" lon="6.80731">
        <ele>1472</ele>
        <time>2023-09-30T07:01:54.000Z</time>
      </trkpt>
      <trkpt lat="46.01713" lon="6.80729">
        <ele>1472.1999511719</ele>
        <time>2023-09-30T07:01:55.000Z</time>
      </trkpt>
      <trkpt lat="46.01713" lon="6.80728">
        <ele>1472.5999755859</ele>
        <time>2023-09-30T07:01:56.000Z</time>
      </trkpt>
      <trkpt lat="46.01714" lon="6.80727">
        <ele>1472.5999755859</ele>
        <time>2023-09-30T07:01:57.000Z</time>
      </trkpt>
      <trkpt lat="46.01714" lon="6.80727">
        <ele>1473</ele>
        <time>2023-09-30T07:01:58.000Z</time>
      </trkpt>
      <trkpt lat="46.01714" lon="6.80727">
        <ele>1473</ele>
        <time>2023-09-30T07:01:59.000Z</time>
      </trkpt>
      <trkpt lat="46.01714" lon="6.80726">
        <ele>1473.4000244141</ele>
        <time>2023-09-30T07:02:00.000Z</time>
      </trkpt>
      <trkpt lat="46.01715" lon="6.80725">
        <ele>1473.5999755859</ele>
        <time>2023-09-30T07:02:01.000Z</time>
      </trkpt>
      <trkpt lat="46.01715" lon="6.80724">
        <ele>1473.5999755859</ele>
        <time>2023-09-30T07:02:02.000Z</time>
      </trkpt>
      <trkpt lat="46.01716" lon="6.80723">
        <ele>1474</ele>
        <time>2023-09-30T07:02:03.000Z</time>
      </trkpt>
      <trkpt lat="46.01716" lon="6.80722">
        <ele>1474</ele>
        <time>2023-09-30T07:02:04.000Z</time>
      </trkpt>
      <trkpt lat="46.01716" lon="6.80721">
        <ele>1474.1999511719</ele>
        <time>2023-09-30T07:02:05.000Z</time>
      </trkpt>
      <trkpt lat="46.01717" lon="6.80721">
        <ele>1474.5999755859</ele>
        <time>2023-09-30T07:02:07.000Z</time>
      </trkpt>
      <trkpt lat="46.01718" lon="6.80719">
        <ele>1474.8000488281</ele>
        <time>2023-09-30T07:02:08.000Z</time>
      </trkpt>
      <trkpt lat="46.01718" lon="6.80717">
        <ele>1475</ele>
        <time>2023-09-30T07:02:09.000Z</time>
      </trkpt>
      <trkpt lat="46.01719" lon="6.80716">
        <ele>1475.1999511719</ele>
        <time>2023-09-30T07:02:10.000Z</time>
      </trkpt>
      <trkpt lat="46.0172" lon="6.80715">
        <ele>1475.4000244141</ele>
        <time>2023-09-30T07:02:11.000Z</time>
      </trkpt>
      <trkpt lat="46.0172" lon="6.80713">
        <ele>1475.5999755859</ele>
        <time>2023-09-30T07:02:12.000Z</time>
      </trkpt>
      <trkpt lat="46.0172" lon="6.80712">
        <ele>1475.5999755859</ele>
        <time>2023-09-30T07:02:13.000Z</time>
      </trkpt>
      <trkpt lat="46.0172" lon="6.80711">
        <ele>1475.8000488281</ele>
        <time>2023-09-30T07:02:14.000Z</time>
      </trkpt>
      <trkpt lat="46.01721" lon="6.8071">
        <ele>1476</ele>
        <time>2023-09-30T07:02:15.000Z</time>
      </trkpt>
      <trkpt lat="46.01722" lon="6.8071">
        <ele>1476.1999511719</ele>
        <time>2023-09-30T07:02:16.000Z</time>
      </trkpt>
      <trkpt lat="46.01723" lon="6.80709">
        <ele>1476.4000244141</ele>
        <time>2023-09-30T07:02:17.000Z</time>
      </trkpt>
      <trkpt lat="46.01724" lon="6.80708">
        <ele>1476.4000244141</ele>
        <time>2023-09-30T07:02:18.000Z</time>
      </trkpt>
      <trkpt lat="46.01724" lon="6.80707">
        <ele>1476.5999755859</ele>
        <time>2023-09-30T07:02:19.000Z</time>
      </trkpt>
      <trkpt lat="46.01725" lon="6.80707">
        <ele>1476.8000488281</ele>
        <time>2023-09-30T07:02:20.000Z</time>
      </trkpt>
      <trkpt lat="46.01726" lon="6.80707">
        <ele>1477</ele>
        <time>2023-09-30T07:02:21.000Z</time>
      </trkpt>
      <trkpt lat="46.01726" lon="6.80706">
        <ele>1477.1999511719</ele>
        <time>2023-09-30T07:02:22.000Z</time>
      </trkpt>
      <trkpt lat="46.01727" lon="6.80705">
        <ele>1477.1999511719</ele>
        <time>2023-09-30T07:02:23.000Z</time>
      </trkpt>
      <trkpt lat="46.01727" lon="6.80704">
        <ele>1477.1999511719</ele>
        <time>2023-09-30T07:02:24.000Z</time>
      </trkpt>
      <trkpt lat="46.01727" lon="6.80703">
        <ele>1477.4000244141</ele>
        <time>2023-09-30T07:02:25.000Z</time>
      </trkpt>
      <trkpt lat="46.01728" lon="6.80701">
        <ele>1477.8000488281</ele>
        <time>2023-09-30T07:02:26.000Z</time>
      </trkpt>
      <trkpt lat="46.01728" lon="6.80701">
        <ele>1477.8000488281</ele>
        <time>2023-09-30T07:02:27.000Z</time>
      </trkpt>
      <trkpt lat="46.01728" lon="6.80701">
        <ele>1478</ele>
        <time>2023-09-30T07:02:28.000Z</time>
      </trkpt>
      <trkpt lat="46.01729" lon="6.807">
        <ele>1478.1999511719</ele>
        <time>2023-09-30T07:02:29.000Z</time>
      </trkpt>
      <trkpt lat="46.0173" lon="6.80698">
        <ele>1478.1999511719</ele>
        <time>2023-09-30T07:02:30.000Z</time>
      </trkpt>
      <trkpt lat="46.0173" lon="6.80697">
        <ele>1478.4000244141</ele>
        <time>2023-09-30T07:02:31.000Z</time>
      </trkpt>
      <trkpt lat="46.01731" lon="6.80696">
        <ele>1478.5999755859</ele>
        <time>2023-09-30T07:02:32.000Z</time>
      </trkpt>
      <trkpt lat="46.01731" lon="6.80695">
        <ele>1478.5999755859</ele>
        <time>2023-09-30T07:02:33.000Z</time>
      </trkpt>
      <trkpt lat="46.01731" lon="6.80694">
        <ele>1479</ele>
        <time>2023-09-30T07:02:34.000Z</time>
      </trkpt>
      <trkpt lat="46.01732" lon="6.80693">
        <ele>1479</ele>
        <time>2023-09-30T07:02:35.000Z</time>
      </trkpt>
      <trkpt lat="46.01732" lon="6.80693">
        <ele>1479.1999511719</ele>
        <time>2023-09-30T07:02:36.000Z</time>
      </trkpt>
      <trkpt lat="46.01733" lon="6.80692">
        <ele>1479.4000244141</ele>
        <time>2023-09-30T07:02:37.000Z</time>
      </trkpt>
      <trkpt lat="46.01733" lon="6.80692">
        <ele>1479.5999755859</ele>
        <time>2023-09-30T07:02:38.000Z</time>
      </trkpt>
      <trkpt lat="46.01734" lon="6.80691">
        <ele>1479.8000488281</ele>
        <time>2023-09-30T07:02:39.000Z</time>
      </trkpt>
      <trkpt lat="46.01734" lon="6.80691">
        <ele>1480</ele>
        <time>2023-09-30T07:02:40.000Z</time>
      </trkpt>
      <trkpt lat="46.01734" lon="6.80691">
        <ele>1480.1999511719</ele>
        <time>2023-09-30T07:02:41.000Z</time>
      </trkpt>
      <trkpt lat="46.01735" lon="6.80691">
        <ele>1480.1999511719</ele>
        <time>2023-09-30T07:02:42.000Z</time>
      </trkpt>
      <trkpt lat="46.01735" lon="6.80691">
        <ele>1480.4000244141</ele>
        <time>2023-09-30T07:02:43.000Z</time>
      </trkpt>
      <trkpt lat="46.01736" lon="6.80691">
        <ele>1480.5999755859</ele>
        <time>2023-09-30T07:02:44.000Z</time>
      </trkpt>
      <trkpt lat="46.01736" lon="6.8069">
        <ele>1480.8000488281</ele>
        <time>2023-09-30T07:02:45.000Z</time>
      </trkpt>
      <trkpt lat="46.01736" lon="6.8069">
        <ele>1481</ele>
        <time>2023-09-30T07:02:46.000Z</time>
      </trkpt>
      <trkpt lat="46.01737" lon="6.8069">
        <ele>1481</ele>
        <time>2023-09-30T07:02:47.000Z</time>
      </trkpt>
      <trkpt lat="46.01737" lon="6.80689">
        <ele>1481.1999511719</ele>
        <time>2023-09-30T07:02:48.000Z</time>
      </trkpt>
      <trkpt lat="46.01738" lon="6.80688">
        <ele>1481.4000244141</ele>
        <time>2023-09-30T07:02:49.000Z</time>
      </trkpt>
      <trkpt lat="46.01738" lon="6.80687">
        <ele>1481.4000244141</ele>
        <time>2023-09-30T07:02:50.000Z</time>
      </trkpt>
      <trkpt lat="46.01739" lon="6.80687">
        <ele>1481.8000488281</ele>
        <time>2023-09-30T07:02:51.000Z</time>
      </trkpt>
      <trkpt lat="46.01739" lon="6.80687">
        <ele>1482</ele>
        <time>2023-09-30T07:02:52.000Z</time>
      </trkpt>
      <trkpt lat="46.01739" lon="6.80686">
        <ele>1482</ele>
        <time>2023-09-30T07:02:53.000Z</time>
      </trkpt>
      <trkpt lat="46.0174" lon="6.80685">
        <ele>1482.1999511719</ele>
        <time>2023-09-30T07:02:54.000Z</time>
      </trkpt>
      <trkpt lat="46.0174" lon="6.80685">
        <ele>1482.4000244141</ele>
        <time>2023-09-30T07:02:55.000Z</time>
      </trkpt>
      <trkpt lat="46.01741" lon="6.80685">
        <ele>1482.4000244141</ele>
        <time>2023-09-30T07:02:56.000Z</time>
      </trkpt>
      <trkpt lat="46.01741" lon="6.80684">
        <ele>1482.5999755859</ele>
        <time>2023-09-30T07:02:57.000Z</time>
      </trkpt>
      <trkpt lat="46.01742" lon="6.80684">
        <ele>1482.8000488281</ele>
        <time>2023-09-30T07:02:58.000Z</time>
      </trkpt>
      <trkpt lat="46.01742" lon="6.80683">
        <ele>1483</ele>
        <time>2023-09-30T07:02:59.000Z</time>
      </trkpt>
      <trkpt lat="46.01742" lon="6.80683">
        <ele>1483</ele>
        <time>2023-09-30T07:03:00.000Z</time>
      </trkpt>
      <trkpt lat="46.01742" lon="6.80683">
        <ele>1483.1999511719</ele>
        <time>2023-09-30T07:03:01.000Z</time>
      </trkpt>
      <trkpt lat="46.01743" lon="6.80682">
        <ele>1483.5999755859</ele>
        <time>2023-09-30T07:03:02.000Z</time>
      </trkpt>
      <trkpt lat="46.01743" lon="6.80681">
        <ele>1483.8000488281</ele>
        <time>2023-09-30T07:03:03.000Z</time>
      </trkpt>
      <trkpt lat="46.01743" lon="6.8068">
        <ele>1484</ele>
        <time>2023-09-30T07:03:04.000Z</time>
      </trkpt>
      <trkpt lat="46.01744" lon="6.8068">
        <ele>1484</ele>
        <time>2023-09-30T07:03:05.000Z</time>
      </trkpt>
      <trkpt lat="46.01744" lon="6.8068">
        <ele>1484.1999511719</ele>
        <time>2023-09-30T07:03:06.000Z</time>
      </trkpt>
      <trkpt lat="46.01745" lon="6.80678">
        <ele>1484.4000244141</ele>
        <time>2023-09-30T07:03:07.000Z</time>
      </trkpt>
      <trkpt lat="46.01745" lon="6.80678">
        <ele>1484.4000244141</ele>
        <time>2023-09-30T07:03:08.000Z</time>
      </trkpt>
      <trkpt lat="46.01746" lon="6.80677">
        <ele>1484.5999755859</ele>
        <time>2023-09-30T07:03:09.000Z</time>
      </trkpt>
      <trkpt lat="46.01746" lon="6.80676">
        <ele>1484.8000488281</ele>
        <time>2023-09-30T07:03:10.000Z</time>
      </trkpt>
      <trkpt lat="46.01746" lon="6.80676">
        <ele>1485</ele>
        <time>2023-09-30T07:03:11.000Z</time>
      </trkpt>
      <trkpt lat="46.01746" lon="6.80676">
        <ele>1485.1999511719</ele>
        <time>2023-09-30T07:03:12.000Z</time>
      </trkpt>
      <trkpt lat="46.01746" lon="6.80676">
        <ele>1485.5999755859</ele>
        <time>2023-09-30T07:03:13.000Z</time>
      </trkpt>
      <trkpt lat="46.01746" lon="6.80676">
        <ele>1485.5999755859</ele>
        <time>2023-09-30T07:03:17.000Z</time>
      </trkpt>
      <trkpt lat="46.01746" lon="6.80676">
        <ele>1486.1999511719</ele>
        <time>2023-09-30T07:03:33.000Z</time>
      </trkpt>
      <trkpt lat="46.01746" lon="6.80676">
        <ele>1486.4000244141</ele>
        <time>2023-09-30T07:03:44.000Z</time>
      </trkpt>
      <trkpt lat="46.01746" lon="6.80674">
        <ele>1486.4000244141</ele>
        <time>2023-09-30T07:03:46.000Z</time>
      </trkpt>
      <trkpt lat="46.01746" lon="6.80674">
        <ele>1486.5999755859</ele>
        <time>2023-09-30T07:03:48.000Z</time>
      </trkpt>
      <trkpt lat="46.01746" lon="6.80674">
        <ele>1487</ele>
        <time>2023-09-30T07:03:50.000Z</time>
      </trkpt>
      <trkpt lat="46.01747" lon="6.80672">
        <ele>1487.1999511719</ele>
        <time>2023-09-30T07:03:51.000Z</time>
      </trkpt>
      <trkpt lat="46.01748" lon="6.8067">
        <ele>1487.1999511719</ele>
        <time>2023-09-30T07:03:52.000Z</time>
      </trkpt>
      <trkpt lat="46.01749" lon="6.80667">
        <ele>1487.8000488281</ele>
        <time>2023-09-30T07:03:54.000Z</time>
      </trkpt>
      <trkpt lat="46.0175" lon="6.80665">
        <ele>1487.8000488281</ele>
        <time>2023-09-30T07:03:55.000Z</time>
      </trkpt>
      <trkpt lat="46.0175" lon="6.80663">
        <ele>1488.1999511719</ele>
        <time>2023-09-30T07:03:56.000Z</time>
      </trkpt>
      <trkpt lat="46.01751" lon="6.80661">
        <ele>1488.4000244141</ele>
        <time>2023-09-30T07:03:57.000Z</time>
      </trkpt>
      <trkpt lat="46.01752" lon="6.80659">
        <ele>1488.8000488281</ele>
        <time>2023-09-30T07:03:58.000Z</time>
      </trkpt>
      <trkpt lat="46.01752" lon="6.80657">
        <ele>1488.8000488281</ele>
        <time>2023-09-30T07:03:59.000Z</time>
      </trkpt>
      <trkpt lat="46.01752" lon="6.80656">
        <ele>1489</ele>
        <time>2023-09-30T07:04:00.000Z</time>
      </trkpt>
      <trkpt lat="46.01752" lon="6.80655">
        <ele>1489.4000244141</ele>
        <time>2023-09-30T07:04:01.000Z</time>
      </trkpt>
      <trkpt lat="46.01751" lon="6.80652">
        <ele>1489.4000244141</ele>
        <time>2023-09-30T07:04:02.000Z</time>
      </trkpt>
      <trkpt lat="46.0175" lon="6.8065">
        <ele>1489.8000488281</ele>
        <time>2023-09-30T07:04:03.000Z</time>
      </trkpt>
      <trkpt lat="46.0175" lon="6.80646">
        <ele>1490</ele>
        <time>2023-09-30T07:04:04.000Z</time>
      </trkpt>
      <trkpt lat="46.0175" lon="6.80643">
        <ele>1490.1999511719</ele>
        <time>2023-09-30T07:04:05.000Z</time>
      </trkpt>
      <trkpt lat="46.0175" lon="6.80641">
        <ele>1490.4000244141</ele>
        <time>2023-09-30T07:04:06.000Z</time>
      </trkpt>
      <trkpt lat="46.0175" lon="6.80637">
        <ele>1490.8000488281</ele>
        <time>2023-09-30T07:04:07.000Z</time>
      </trkpt>
      <trkpt lat="46.0175" lon="6.80635">
        <ele>1491</ele>
        <time>2023-09-30T07:04:08.000Z</time>
      </trkpt>
      <trkpt lat="46.01749" lon="6.80633">
        <ele>1491.1999511719</ele>
        <time>2023-09-30T07:04:09.000Z</time>
      </trkpt>
      <trkpt lat="46.01749" lon="6.80631">
        <ele>1491.5999755859</ele>
        <time>2023-09-30T07:04:10.000Z</time>
      </trkpt>
      <trkpt lat="46.01749" lon="6.80629">
        <ele>1491.5999755859</ele>
        <time>2023-09-30T07:04:11.000Z</time>
      </trkpt>
      <trkpt lat="46.01749" lon="6.80627">
        <ele>1491.8000488281</ele>
        <time>2023-09-30T07:04:12.000Z</time>
      </trkpt>
      <trkpt lat="46.0175" lon="6.80626">
        <ele>1492.1999511719</ele>
        <time>2023-09-30T07:04:13.000Z</time>
      </trkpt>
      <trkpt lat="46.0175" lon="6.80625">
        <ele>1492.4000244141</ele>
        <time>2023-09-30T07:04:14.000Z</time>
      </trkpt>
      <trkpt lat="46.01751" lon="6.80623">
        <ele>1492.5999755859</ele>
        <time>2023-09-30T07:04:15.000Z</time>
      </trkpt>
      <trkpt lat="46.01751" lon="6.80622">
        <ele>1492.5999755859</ele>
        <time>2023-09-30T07:04:16.000Z</time>
      </trkpt>
      <trkpt lat="46.01752" lon="6.80622">
        <ele>1492.8000488281</ele>
        <time>2023-09-30T07:04:17.000Z</time>
      </trkpt>
      <trkpt lat="46.01752" lon="6.80622">
        <ele>1492.8000488281</ele>
        <time>2023-09-30T07:04:18.000Z</time>
      </trkpt>
      <trkpt lat="46.01752" lon="6.80623">
        <ele>1493.1999511719</ele>
        <time>2023-09-30T07:04:19.000Z</time>
      </trkpt>
      <trkpt lat="46.01753" lon="6.80623">
        <ele>1493.4000244141</ele>
        <time>2023-09-30T07:04:20.000Z</time>
      </trkpt>
      <trkpt lat="46.01753" lon="6.80622">
        <ele>1493.5999755859</ele>
        <time>2023-09-30T07:04:21.000Z</time>
      </trkpt>
      <trkpt lat="46.01754" lon="6.80622">
        <ele>1493.8000488281</ele>
        <time>2023-09-30T07:04:22.000Z</time>
      </trkpt>
      <trkpt lat="46.01756" lon="6.80622">
        <ele>1493.8000488281</ele>
        <time>2023-09-30T07:04:23.000Z</time>
      </trkpt>
      <trkpt lat="46.01757" lon="6.80623">
        <ele>1494.1999511719</ele>
        <time>2023-09-30T07:04:24.000Z</time>
      </trkpt>
      <trkpt lat="46.01759" lon="6.80621">
        <ele>1494</ele>
        <time>2023-09-30T07:04:25.000Z</time>
      </trkpt>
      <trkpt lat="46.01761" lon="6.80621">
        <ele>1494.1999511719</ele>
        <time>2023-09-30T07:04:26.000Z</time>
      </trkpt>
      <trkpt lat="46.01761" lon="6.80621">
        <ele>1494.4000244141</ele>
        <time>2023-09-30T07:04:27.000Z</time>
      </trkpt>
      <trkpt lat="46.01763" lon="6.8062">
        <ele>1494.4000244141</ele>
        <time>2023-09-30T07:04:28.000Z</time>
      </trkpt>
      <trkpt lat="46.01765" lon="6.80617">
        <ele>1494.4000244141</ele>
        <time>2023-09-30T07:04:29.000Z</time>
      </trkpt>
      <trkpt lat="46.01767" lon="6.80615">
        <ele>1494.5999755859</ele>
        <time>2023-09-30T07:04:30.000Z</time>
      </trkpt>
      <trkpt lat="46.01768" lon="6.80614">
        <ele>1494.8000488281</ele>
        <time>2023-09-30T07:04:31.000Z</time>
      </trkpt>
      <trkpt lat="46.01769" lon="6.80611">
        <ele>1495</ele>
        <time>2023-09-30T07:04:32.000Z</time>
      </trkpt>
      <trkpt lat="46.01769" lon="6.80611">
        <ele>1495.1999511719</ele>
        <time>2023-09-30T07:04:33.000Z</time>
      </trkpt>
      <trkpt lat="46.0177" lon="6.8061">
        <ele>1495.5999755859</ele>
        <time>2023-09-30T07:04:34.000Z</time>
      </trkpt>
      <trkpt lat="46.01774" lon="6.80607">
        <ele>1495.8000488281</ele>
        <time>2023-09-30T07:04:35.000Z</time>
      </trkpt>
      <trkpt lat="46.01775" lon="6.80607">
        <ele>1496</ele>
        <time>2023-09-30T07:04:36.000Z</time>
      </trkpt>
      <trkpt lat="46.01776" lon="6.80605">
        <ele>1496</ele>
        <time>2023-09-30T07:04:37.000Z</time>
      </trkpt>
      <trkpt lat="46.01776" lon="6.80604">
        <ele>1496.4000244141</ele>
        <time>2023-09-30T07:04:38.000Z</time>
      </trkpt>
      <trkpt lat="46.01777" lon="6.80604">
        <ele>1496.8000488281</ele>
        <time>2023-09-30T07:04:39.000Z</time>
      </trkpt>
      <trkpt lat="46.01778" lon="6.80603">
        <ele>1497</ele>
        <time>2023-09-30T07:04:40.000Z</time>
      </trkpt>
      <trkpt lat="46.01779" lon="6.80603">
        <ele>1497</ele>
        <time>2023-09-30T07:04:41.000Z</time>
      </trkpt>
      <trkpt lat="46.01779" lon="6.80603">
        <ele>1497.1999511719</ele>
        <time>2023-09-30T07:04:42.000Z</time>
      </trkpt>
      <trkpt lat="46.0178" lon="6.80603">
        <ele>1497.5999755859</ele>
        <time>2023-09-30T07:04:43.000Z</time>
      </trkpt>
      <trkpt lat="46.0178" lon="6.80603">
        <ele>1498.1999511719</ele>
        <time>2023-09-30T07:04:47.000Z</time>
      </trkpt>
      <trkpt lat="46.0178" lon="6.80603">
        <ele>1498.4000244141</ele>
        <time>2023-09-30T07:04:48.000Z</time>
      </trkpt>
      <trkpt lat="46.0178" lon="6.806">
        <ele>1498.5999755859</ele>
        <time>2023-09-30T07:04:51.000Z</time>
      </trkpt>
      <trkpt lat="46.0178" lon="6.806">
        <ele>1498.8000488281</ele>
        <time>2023-09-30T07:04:52.000Z</time>
      </trkpt>
      <trkpt lat="46.01781" lon="6.80599">
        <ele>1498.8000488281</ele>
        <time>2023-09-30T07:04:53.000Z</time>
      </trkpt>
      <trkpt lat="46.01781" lon="6.80599">
        <ele>1499.4000244141</ele>
        <time>2023-09-30T07:05:00.000Z</time>
      </trkpt>
      <trkpt lat="46.01781" lon="6.80599">
        <ele>1500.4000244141</ele>
        <time>2023-09-30T07:05:05.000Z</time>
      </trkpt>
      <trkpt lat="46.01781" lon="6.80599">
        <ele>1500.5999755859</ele>
        <time>2023-09-30T07:05:06.000Z</time>
      </trkpt>
      <trkpt lat="46.01781" lon="6.80599">
        <ele>1501</ele>
        <time>2023-09-30T07:05:10.000Z</time>
      </trkpt>
      <trkpt lat="46.01782" lon="6.80598">
        <ele>1501.1999511719</ele>
        <time>2023-09-30T07:05:11.000Z</time>
      </trkpt>
      <trkpt lat="46.01782" lon="6.80598">
        <ele>1501.5999755859</ele>
        <time>2023-09-30T07:05:14.000Z</time>
      </trkpt>
      <trkpt lat="46.01782" lon="6.80598">
        <ele>1502</ele>
        <time>2023-09-30T07:05:16.000Z</time>
      </trkpt>
      <trkpt lat="46.01783" lon="6.80596">
        <ele>1502.1999511719</ele>
        <time>2023-09-30T07:05:17.000Z</time>
      </trkpt>
      <trkpt lat="46.01784" lon="6.80594">
        <ele>1502.8000488281</ele>
        <time>2023-09-30T07:05:19.000Z</time>
      </trkpt>
      <trkpt lat="46.01785" lon="6.80594">
        <ele>1502.8000488281</ele>
        <time>2023-09-30T07:05:20.000Z</time>
      </trkpt>
      <trkpt lat="46.01785" lon="6.80593">
        <ele>1503</ele>
        <time>2023-09-30T07:05:21.000Z</time>
      </trkpt>
      <trkpt lat="46.01786" lon="6.80593">
        <ele>1503</ele>
        <time>2023-09-30T07:05:22.000Z</time>
      </trkpt>
      <trkpt lat="46.01787" lon="6.80591">
        <ele>1503.1999511719</ele>
        <time>2023-09-30T07:05:23.000Z</time>
      </trkpt>
      <trkpt lat="46.01788" lon="6.8059">
        <ele>1503.4000244141</ele>
        <time>2023-09-30T07:05:24.000Z</time>
      </trkpt>
      <trkpt lat="46.01789" lon="6.80589">
        <ele>1503.5999755859</ele>
        <time>2023-09-30T07:05:25.000Z</time>
      </trkpt>
      <trkpt lat="46.01789" lon="6.80588">
        <ele>1503.8000488281</ele>
        <time>2023-09-30T07:05:26.000Z</time>
      </trkpt>
      <trkpt lat="46.01789" lon="6.80588">
        <ele>1503.8000488281</ele>
        <time>2023-09-30T07:05:27.000Z</time>
      </trkpt>
      <trkpt lat="46.01789" lon="6.80588">
        <ele>1504.1999511719</ele>
        <time>2023-09-30T07:05:30.000Z</time>
      </trkpt>
      <trkpt lat="46.01789" lon="6.80588">
        <ele>1504.8000488281</ele>
        <time>2023-09-30T07:05:36.000Z</time>
      </trkpt>
      <trkpt lat="46.0179" lon="6.80588">
        <ele>1505.1999511719</ele>
        <time>2023-09-30T07:05:37.000Z</time>
      </trkpt>
      <trkpt lat="46.0179" lon="6.80587">
        <ele>1505.1999511719</ele>
        <time>2023-09-30T07:05:38.000Z</time>
      </trkpt>
      <trkpt lat="46.0179" lon="6.80587">
        <ele>1505.4000244141</ele>
        <time>2023-09-30T07:05:41.000Z</time>
      </trkpt>
      <trkpt lat="46.0179" lon="6.80587">
        <ele>1506</ele>
        <time>2023-09-30T07:05:43.000Z</time>
      </trkpt>
      <trkpt lat="46.01791" lon="6.80586">
        <ele>1506.4000244141</ele>
        <time>2023-09-30T07:05:47.000Z</time>
      </trkpt>
      <trkpt lat="46.01792" lon="6.80582">
        <ele>1506.5999755859</ele>
        <time>2023-09-30T07:05:48.000Z</time>
      </trkpt>
      <trkpt lat="46.01794" lon="6.80578">
        <ele>1506.8000488281</ele>
        <time>2023-09-30T07:05:49.000Z</time>
      </trkpt>
      <trkpt lat="46.01796" lon="6.80574">
        <ele>1507</ele>
        <time>2023-09-30T07:05:50.000Z</time>
      </trkpt>
      <trkpt lat="46.01797" lon="6.8057">
        <ele>1507.4000244141</ele>
        <time>2023-09-30T07:05:51.000Z</time>
      </trkpt>
      <trkpt lat="46.01799" lon="6.80567">
        <ele>1507.5999755859</ele>
        <time>2023-09-30T07:05:52.000Z</time>
      </trkpt>
      <trkpt lat="46.018" lon="6.80563">
        <ele>1507.8000488281</ele>
        <time>2023-09-30T07:05:53.000Z</time>
      </trkpt>
      <trkpt lat="46.01802" lon="6.8056">
        <ele>1508</ele>
        <time>2023-09-30T07:05:54.000Z</time>
      </trkpt>
      <trkpt lat="46.01803" lon="6.80557">
        <ele>1508</ele>
        <time>2023-09-30T07:05:55.000Z</time>
      </trkpt>
      <trkpt lat="46.01805" lon="6.80553">
        <ele>1508.4000244141</ele>
        <time>2023-09-30T07:05:56.000Z</time>
      </trkpt>
      <trkpt lat="46.01805" lon="6.80552">
        <ele>1508.4000244141</ele>
        <time>2023-09-30T07:05:57.000Z</time>
      </trkpt>
      <trkpt lat="46.01805" lon="6.8055">
        <ele>1508.5999755859</ele>
        <time>2023-09-30T07:05:58.000Z</time>
      </trkpt>
      <trkpt lat="46.01805" lon="6.8055">
        <ele>1508.8000488281</ele>
        <time>2023-09-30T07:05:59.000Z</time>
      </trkpt>
      <trkpt lat="46.01805" lon="6.8055">
        <ele>1508.8000488281</ele>
        <time>2023-09-30T07:06:00.000Z</time>
      </trkpt>
      <trkpt lat="46.01805" lon="6.8055">
        <ele>1509</ele>
        <time>2023-09-30T07:06:01.000Z</time>
      </trkpt>
      <trkpt lat="46.01809" lon="6.80546">
        <ele>1509.4000244141</ele>
        <time>2023-09-30T07:06:04.000Z</time>
      </trkpt>
      <trkpt lat="46.0181" lon="6.80544">
        <ele>1509.5999755859</ele>
        <time>2023-09-30T07:06:05.000Z</time>
      </trkpt>
      <trkpt lat="46.0181" lon="6.80542">
        <ele>1509.8000488281</ele>
        <time>2023-09-30T07:06:06.000Z</time>
      </trkpt>
      <trkpt lat="46.0181" lon="6.80541">
        <ele>1510</ele>
        <time>2023-09-30T07:06:07.000Z</time>
      </trkpt>
      <trkpt lat="46.0181" lon="6.80538">
        <ele>1510.1999511719</ele>
        <time>2023-09-30T07:06:08.000Z</time>
      </trkpt>
      <trkpt lat="46.01811" lon="6.80534">
        <ele>1510.1999511719</ele>
        <time>2023-09-30T07:06:09.000Z</time>
      </trkpt>
      <trkpt lat="46.01811" lon="6.80534">
        <ele>1510.5999755859</ele>
        <time>2023-09-30T07:06:10.000Z</time>
      </trkpt>
      <trkpt lat="46.01811" lon="6.80534">
        <ele>1511.1999511719</ele>
        <time>2023-09-30T07:06:14.000Z</time>
      </trkpt>
      <trkpt lat="46.01811" lon="6.80534">
        <ele>1511.4000244141</ele>
        <time>2023-09-30T07:06:15.000Z</time>
      </trkpt>
      <trkpt lat="46.01811" lon="6.80534">
        <ele>1511.4000244141</ele>
        <time>2023-09-30T07:06:16.000Z</time>
      </trkpt>
      <trkpt lat="46.01811" lon="6.80534">
        <ele>1511.5999755859</ele>
        <time>2023-09-30T07:06:17.000Z</time>
      </trkpt>
      <trkpt lat="46.01811" lon="6.80534">
        <ele>1511.8000488281</ele>
        <time>2023-09-30T07:06:18.000Z</time>
      </trkpt>
      <trkpt lat="46.01811" lon="6.80534">
        <ele>1512</ele>
        <time>2023-09-30T07:06:19.000Z</time>
      </trkpt>
      <trkpt lat="46.01811" lon="6.80534">
        <ele>1512</ele>
        <time>2023-09-30T07:06:20.000Z</time>
      </trkpt>
      <trkpt lat="46.01811" lon="6.80534">
        <ele>1512.1999511719</ele>
        <time>2023-09-30T07:06:21.000Z</time>
      </trkpt>
      <trkpt lat="46.01811" lon="6.80534">
        <ele>1512.4000244141</ele>
        <time>2023-09-30T07:06:22.000Z</time>
      </trkpt>
      <trkpt lat="46.01811" lon="6.80534">
        <ele>1513.5999755859</ele>
        <time>2023-09-30T07:06:27.000Z</time>
      </trkpt>
      <trkpt lat="46.01811" lon="6.80534">
        <ele>1514.1999511719</ele>
        <time>2023-09-30T07:06:32.000Z</time>
      </trkpt>
      <trkpt lat="46.01811" lon="6.80534">
        <ele>1514.5999755859</ele>
        <time>2023-09-30T07:06:34.000Z</time>
      </trkpt>
      <trkpt lat="46.01811" lon="6.80534">
        <ele>1515.5999755859</ele>
        <time>2023-09-30T07:06:43.000Z</time>
      </trkpt>
      <trkpt lat="46.0181" lon="6.80534">
        <ele>1516.4000244141</ele>
        <time>2023-09-30T07:07:01.000Z</time>
      </trkpt>
      <trkpt lat="46.01809" lon="6.80534">
        <ele>1516.4000244141</ele>
        <time>2023-09-30T07:07:02.000Z</time>
      </trkpt>
      <trkpt lat="46.01808" lon="6.80534">
        <ele>1516.4000244141</ele>
        <time>2023-09-30T07:07:03.000Z</time>
      </trkpt>
      <trkpt lat="46.01807" lon="6.80534">
        <ele>1516.4000244141</ele>
        <time>2023-09-30T07:07:04.000Z</time>
      </trkpt>
      <trkpt lat="46.01806" lon="6.80534">
        <ele>1516.4000244141</ele>
        <time>2023-09-30T07:07:05.000Z</time>
      </trkpt>
      <trkpt lat="46.01806" lon="6.80534">
        <ele>1516.8000488281</ele>
        <time>2023-09-30T07:07:08.000Z</time>
      </trkpt>
      <trkpt lat="46.01806" lon="6.80534">
        <ele>1517.4000244141</ele>
        <time>2023-09-30T07:07:10.000Z</time>
      </trkpt>
      <trkpt lat="46.01805" lon="6.80534">
        <ele>1517.8000488281</ele>
        <time>2023-09-30T07:07:13.000Z</time>
      </trkpt>
      <trkpt lat="46.01805" lon="6.80534">
        <ele>1518.4000244141</ele>
        <time>2023-09-30T07:07:16.000Z</time>
      </trkpt>
      <trkpt lat="46.01805" lon="6.80534">
        <ele>1518.8000488281</ele>
        <time>2023-09-30T07:07:17.000Z</time>
      </trkpt>
      <trkpt lat="46.01804" lon="6.80534">
        <ele>1520</ele>
        <time>2023-09-30T07:07:22.000Z</time>
      </trkpt>
      <trkpt lat="46.01803" lon="6.80534">
        <ele>1520.4000244141</ele>
        <time>2023-09-30T07:07:24.000Z</time>
      </trkpt>
      <trkpt lat="46.01803" lon="6.80533">
        <ele>1520.4000244141</ele>
        <time>2023-09-30T07:07:25.000Z</time>
      </trkpt>
      <trkpt lat="46.01802" lon="6.80532">
        <ele>1520.5999755859</ele>
        <time>2023-09-30T07:07:26.000Z</time>
      </trkpt>
      <trkpt lat="46.01801" lon="6.80532">
        <ele>1520.8000488281</ele>
        <time>2023-09-30T07:07:27.000Z</time>
      </trkpt>
      <trkpt lat="46.01799" lon="6.8053">
        <ele>1521</ele>
        <time>2023-09-30T07:07:28.000Z</time>
      </trkpt>
      <trkpt lat="46.01799" lon="6.8053">
        <ele>1521.1999511719</ele>
        <time>2023-09-30T07:07:29.000Z</time>
      </trkpt>
      <trkpt lat="46.01798" lon="6.80528">
        <ele>1521.4000244141</ele>
        <time>2023-09-30T07:07:30.000Z</time>
      </trkpt>
      <trkpt lat="46.01797" lon="6.80527">
        <ele>1521.5999755859</ele>
        <time>2023-09-30T07:07:31.000Z</time>
      </trkpt>
      <trkpt lat="46.01796" lon="6.80526">
        <ele>1522.1999511719</ele>
        <time>2023-09-30T07:07:35.000Z</time>
      </trkpt>
      <trkpt lat="46.01796" lon="6.80526">
        <ele>1522.5999755859</ele>
        <time>2023-09-30T07:07:38.000Z</time>
      </trkpt>
      <trkpt lat="46.01796" lon="6.80526">
        <ele>1522.5999755859</ele>
        <time>2023-09-30T07:07:40.000Z</time>
      </trkpt>
      <trkpt lat="46.01796" lon="6.80526">
        <ele>1522.8000488281</ele>
        <time>2023-09-30T07:07:41.000Z</time>
      </trkpt>
      <trkpt lat="46.01796" lon="6.80526">
        <ele>1523</ele>
        <time>2023-09-30T07:07:43.000Z</time>
      </trkpt>
      <trkpt lat="46.01797" lon="6.80524">
        <ele>1523</ele>
        <time>2023-09-30T07:07:44.000Z</time>
      </trkpt>
      <trkpt lat="46.01798" lon="6.80523">
        <ele>1523</ele>
        <time>2023-09-30T07:07:45.000Z</time>
      </trkpt>
      <trkpt lat="46.01799" lon="6.80521">
        <ele>1523.1999511719</ele>
        <time>2023-09-30T07:07:46.000Z</time>
      </trkpt>
      <trkpt lat="46.01799" lon="6.8052">
        <ele>1523.1999511719</ele>
        <time>2023-09-30T07:07:47.000Z</time>
      </trkpt>
      <trkpt lat="46.01799" lon="6.80518">
        <ele>1523.1999511719</ele>
        <time>2023-09-30T07:07:48.000Z</time>
      </trkpt>
      <trkpt lat="46.018" lon="6.80517">
        <ele>1523.4000244141</ele>
        <time>2023-09-30T07:07:49.000Z</time>
      </trkpt>
      <trkpt lat="46.01801" lon="6.80517">
        <ele>1523.8000488281</ele>
        <time>2023-09-30T07:07:50.000Z</time>
      </trkpt>
      <trkpt lat="46.01802" lon="6.80516">
        <ele>1523.8000488281</ele>
        <time>2023-09-30T07:07:51.000Z</time>
      </trkpt>
      <trkpt lat="46.01802" lon="6.80516">
        <ele>1524.1999511719</ele>
        <time>2023-09-30T07:07:52.000Z</time>
      </trkpt>
      <trkpt lat="46.01802" lon="6.80516">
        <ele>1524.1999511719</ele>
        <time>2023-09-30T07:07:53.000Z</time>
      </trkpt>
      <trkpt lat="46.01802" lon="6.80515">
        <ele>1524.5999755859</ele>
        <time>2023-09-30T07:07:54.000Z</time>
      </trkpt>
      <trkpt lat="46.01802" lon="6.80514">
        <ele>1524.8000488281</ele>
        <time>2023-09-30T07:07:55.000Z</time>
      </trkpt>
      <trkpt lat="46.01802" lon="6.80513">
        <ele>1525</ele>
        <time>2023-09-30T07:07:56.000Z</time>
      </trkpt>
      <trkpt lat="46.01803" lon="6.8051">
        <ele>1525.4000244141</ele>
        <time>2023-09-30T07:07:57.000Z</time>
      </trkpt>
      <trkpt lat="46.01804" lon="6.80509">
        <ele>1525.4000244141</ele>
        <time>2023-09-30T07:07:58.000Z</time>
      </trkpt>
      <trkpt lat="46.01804" lon="6.80509">
        <ele>1525.5999755859</ele>
        <time>2023-09-30T07:07:59.000Z</time>
      </trkpt>
      <trkpt lat="46.01805" lon="6.80507">
        <ele>1525.5999755859</ele>
        <time>2023-09-30T07:08:00.000Z</time>
      </trkpt>
      <trkpt lat="46.01806" lon="6.80505">
        <ele>1525.8000488281</ele>
        <time>2023-09-30T07:08:01.000Z</time>
      </trkpt>
      <trkpt lat="46.01807" lon="6.80502">
        <ele>1526</ele>
        <time>2023-09-30T07:08:02.000Z</time>
      </trkpt>
      <trkpt lat="46.01808" lon="6.805">
        <ele>1526.1999511719</ele>
        <time>2023-09-30T07:08:03.000Z</time>
      </trkpt>
      <trkpt lat="46.01808" lon="6.80499">
        <ele>1526.1999511719</ele>
        <time>2023-09-30T07:08:04.000Z</time>
      </trkpt>
      <trkpt lat="46.01809" lon="6.80499">
        <ele>1526.1999511719</ele>
        <time>2023-09-30T07:08:05.000Z</time>
      </trkpt>
      <trkpt lat="46.01809" lon="6.80498">
        <ele>1526.4000244141</ele>
        <time>2023-09-30T07:08:06.000Z</time>
      </trkpt>
      <trkpt lat="46.01811" lon="6.80495">
        <ele>1526.4000244141</ele>
        <time>2023-09-30T07:08:07.000Z</time>
      </trkpt>
      <trkpt lat="46.01811" lon="6.80495">
        <ele>1526.8000488281</ele>
        <time>2023-09-30T07:08:08.000Z</time>
      </trkpt>
      <trkpt lat="46.01812" lon="6.80495">
        <ele>1527</ele>
        <time>2023-09-30T07:08:09.000Z</time>
      </trkpt>
      <trkpt lat="46.01813" lon="6.80493">
        <ele>1527.5999755859</ele>
        <time>2023-09-30T07:08:11.000Z</time>
      </trkpt>
      <trkpt lat="46.01812" lon="6.80493">
        <ele>1527.8000488281</ele>
        <time>2023-09-30T07:08:13.000Z</time>
      </trkpt>
      <trkpt lat="46.01811" lon="6.80492">
        <ele>1527.8000488281</ele>
        <time>2023-09-30T07:08:14.000Z</time>
      </trkpt>
      <trkpt lat="46.01811" lon="6.80491">
        <ele>1528</ele>
        <time>2023-09-30T07:08:15.000Z</time>
      </trkpt>
      <trkpt lat="46.0181" lon="6.80489">
        <ele>1528.4000244141</ele>
        <time>2023-09-30T07:08:18.000Z</time>
      </trkpt>
      <trkpt lat="46.0181" lon="6.80488">
        <ele>1528.5999755859</ele>
        <time>2023-09-30T07:08:19.000Z</time>
      </trkpt>
      <trkpt lat="46.0181" lon="6.80487">
        <ele>1528.8000488281</ele>
        <time>2023-09-30T07:08:20.000Z</time>
      </trkpt>
      <trkpt lat="46.01811" lon="6.80486">
        <ele>1529</ele>
        <time>2023-09-30T07:08:21.000Z</time>
      </trkpt>
      <trkpt lat="46.01811" lon="6.80485">
        <ele>1529.1999511719</ele>
        <time>2023-09-30T07:08:22.000Z</time>
      </trkpt>
      <trkpt lat="46.01811" lon="6.80485">
        <ele>1529.4000244141</ele>
        <time>2023-09-30T07:08:23.000Z</time>
      </trkpt>
      <trkpt lat="46.01812" lon="6.80483">
        <ele>1529.5999755859</ele>
        <time>2023-09-30T07:08:24.000Z</time>
      </trkpt>
      <trkpt lat="46.01812" lon="6.80481">
        <ele>1530</ele>
        <time>2023-09-30T07:08:25.000Z</time>
      </trkpt>
      <trkpt lat="46.01812" lon="6.80476">
        <ele>1530</ele>
        <time>2023-09-30T07:08:26.000Z</time>
      </trkpt>
      <trkpt lat="46.01812" lon="6.80474">
        <ele>1530.1999511719</ele>
        <time>2023-09-30T07:08:27.000Z</time>
      </trkpt>
      <trkpt lat="46.01813" lon="6.80473">
        <ele>1530.4000244141</ele>
        <time>2023-09-30T07:08:28.000Z</time>
      </trkpt>
      <trkpt lat="46.01813" lon="6.80473">
        <ele>1530.5999755859</ele>
        <time>2023-09-30T07:08:29.000Z</time>
      </trkpt>
      <trkpt lat="46.01811" lon="6.80467">
        <ele>1530.8000488281</ele>
        <time>2023-09-30T07:08:30.000Z</time>
      </trkpt>
      <trkpt lat="46.01811" lon="6.80464">
        <ele>1531</ele>
        <time>2023-09-30T07:08:31.000Z</time>
      </trkpt>
      <trkpt lat="46.01811" lon="6.80464">
        <ele>1531</ele>
        <time>2023-09-30T07:08:32.000Z</time>
      </trkpt>
      <trkpt lat="46.01811" lon="6.80464">
        <ele>1531.1999511719</ele>
        <time>2023-09-30T07:08:33.000Z</time>
      </trkpt>
      <trkpt lat="46.01811" lon="6.80464">
        <ele>1531.1999511719</ele>
        <time>2023-09-30T07:08:34.000Z</time>
      </trkpt>
      <trkpt lat="46.01811" lon="6.80464">
        <ele>1532.1999511719</ele>
        <time>2023-09-30T07:08:39.000Z</time>
      </trkpt>
      <trkpt lat="46.01811" lon="6.80464">
        <ele>1532.8000488281</ele>
        <time>2023-09-30T07:08:45.000Z</time>
      </trkpt>
      <trkpt lat="46.0181" lon="6.80464">
        <ele>1533</ele>
        <time>2023-09-30T07:08:49.000Z</time>
      </trkpt>
      <trkpt lat="46.0181" lon="6.80464">
        <ele>1533.1999511719</ele>
        <time>2023-09-30T07:08:53.000Z</time>
      </trkpt>
      <trkpt lat="46.0181" lon="6.80464">
        <ele>1534.4000244141</ele>
        <time>2023-09-30T07:08:58.000Z</time>
      </trkpt>
      <trkpt lat="46.0181" lon="6.80464">
        <ele>1534.5999755859</ele>
        <time>2023-09-30T07:08:59.000Z</time>
      </trkpt>
      <trkpt lat="46.01809" lon="6.80464">
        <ele>1534.8000488281</ele>
        <time>2023-09-30T07:09:00.000Z</time>
      </trkpt>
      <trkpt lat="46.01809" lon="6.80464">
        <ele>1535.4000244141</ele>
        <time>2023-09-30T07:09:03.000Z</time>
      </trkpt>
      <trkpt lat="46.01807" lon="6.80465">
        <ele>1536.4000244141</ele>
        <time>2023-09-30T07:09:08.000Z</time>
      </trkpt>
      <trkpt lat="46.01806" lon="6.80465">
        <ele>1536.4000244141</ele>
        <time>2023-09-30T07:09:09.000Z</time>
      </trkpt>
      <trkpt lat="46.01805" lon="6.80465">
        <ele>1536.5999755859</ele>
        <time>2023-09-30T07:09:10.000Z</time>
      </trkpt>
      <trkpt lat="46.01804" lon="6.80466">
        <ele>1536.5999755859</ele>
        <time>2023-09-30T07:09:11.000Z</time>
      </trkpt>
      <trkpt lat="46.01802" lon="6.80466">
        <ele>1536.8000488281</ele>
        <time>2023-09-30T07:09:12.000Z</time>
      </trkpt>
      <trkpt lat="46.01801" lon="6.80467">
        <ele>1537</ele>
        <time>2023-09-30T07:09:13.000Z</time>
      </trkpt>
      <trkpt lat="46.01799" lon="6.80467">
        <ele>1537.4000244141</ele>
        <time>2023-09-30T07:09:14.000Z</time>
      </trkpt>
      <trkpt lat="46.01798" lon="6.80468">
        <ele>1537.4000244141</ele>
        <time>2023-09-30T07:09:15.000Z</time>
      </trkpt>
      <trkpt lat="46.01796" lon="6.80469">
        <ele>1537.5999755859</ele>
        <time>2023-09-30T07:09:16.000Z</time>
      </trkpt>
      <trkpt lat="46.01794" lon="6.80471">
        <ele>1537.8000488281</ele>
        <time>2023-09-30T07:09:17.000Z</time>
      </trkpt>
      <trkpt lat="46.01794" lon="6.80471">
        <ele>1538</ele>
        <time>2023-09-30T07:09:18.000Z</time>
      </trkpt>
      <trkpt lat="46.01794" lon="6.80471">
        <ele>1538.4000244141</ele>
        <time>2023-09-30T07:09:20.000Z</time>
      </trkpt>
      <trkpt lat="46.01793" lon="6.80472">
        <ele>1538.5999755859</ele>
        <time>2023-09-30T07:09:21.000Z</time>
      </trkpt>
      <trkpt lat="46.01791" lon="6.80473">
        <ele>1538.8000488281</ele>
        <time>2023-09-30T07:09:22.000Z</time>
      </trkpt>
      <trkpt lat="46.0179" lon="6.80473">
        <ele>1538.8000488281</ele>
        <time>2023-09-30T07:09:23.000Z</time>
      </trkpt>
      <trkpt lat="46.01789" lon="6.80473">
        <ele>1539</ele>
        <time>2023-09-30T07:09:24.000Z</time>
      </trkpt>
      <trkpt lat="46.01788" lon="6.80473">
        <ele>1539.1999511719</ele>
        <time>2023-09-30T07:09:25.000Z</time>
      </trkpt>
      <trkpt lat="46.01788" lon="6.80474">
        <ele>1539.5999755859</ele>
        <time>2023-09-30T07:09:26.000Z</time>
      </trkpt>
      <trkpt lat="46.01787" lon="6.80474">
        <ele>1539.8000488281</ele>
        <time>2023-09-30T07:09:27.000Z</time>
      </trkpt>
      <trkpt lat="46.01787" lon="6.80475">
        <ele>1540.1999511719</ele>
        <time>2023-09-30T07:09:28.000Z</time>
      </trkpt>
      <trkpt lat="46.01787" lon="6.80475">
        <ele>1540.4000244141</ele>
        <time>2023-09-30T07:09:29.000Z</time>
      </trkpt>
      <trkpt lat="46.01783" lon="6.80475">
        <ele>1540.4000244141</ele>
        <time>2023-09-30T07:09:30.000Z</time>
      </trkpt>
      <trkpt lat="46.01782" lon="6.80476">
        <ele>1540.5999755859</ele>
        <time>2023-09-30T07:09:31.000Z</time>
      </trkpt>
      <trkpt lat="46.01781" lon="6.80477">
        <ele>1540.5999755859</ele>
        <time>2023-09-30T07:09:32.000Z</time>
      </trkpt>
      <trkpt lat="46.01778" lon="6.80479">
        <ele>1541</ele>
        <time>2023-09-30T07:09:33.000Z</time>
      </trkpt>
      <trkpt lat="46.01777" lon="6.8048">
        <ele>1541</ele>
        <time>2023-09-30T07:09:34.000Z</time>
      </trkpt>
      <trkpt lat="46.01776" lon="6.8048">
        <ele>1541.1999511719</ele>
        <time>2023-09-30T07:09:35.000Z</time>
      </trkpt>
      <trkpt lat="46.01777" lon="6.80482">
        <ele>1541.4000244141</ele>
        <time>2023-09-30T07:09:36.000Z</time>
      </trkpt>
      <trkpt lat="46.01775" lon="6.80482">
        <ele>1542</ele>
        <time>2023-09-30T07:09:39.000Z</time>
      </trkpt>
      <trkpt lat="46.01774" lon="6.80482">
        <ele>1542.4000244141</ele>
        <time>2023-09-30T07:09:42.000Z</time>
      </trkpt>
      <trkpt lat="46.01774" lon="6.80482">
        <ele>1542.8000488281</ele>
        <time>2023-09-30T07:09:46.000Z</time>
      </trkpt>
      <trkpt lat="46.01773" lon="6.80482">
        <ele>1543.1999511719</ele>
        <time>2023-09-30T07:09:48.000Z</time>
      </trkpt>
      <trkpt lat="46.01772" lon="6.80482">
        <ele>1543.4000244141</ele>
        <time>2023-09-30T07:09:49.000Z</time>
      </trkpt>
      <trkpt lat="46.01772" lon="6.80481">
        <ele>1543.5999755859</ele>
        <time>2023-09-30T07:09:50.000Z</time>
      </trkpt>
      <trkpt lat="46.01771" lon="6.80482">
        <ele>1543.8000488281</ele>
        <time>2023-09-30T07:09:52.000Z</time>
      </trkpt>
      <trkpt lat="46.01771" lon="6.80482">
        <ele>1544.1999511719</ele>
        <time>2023-09-30T07:09:54.000Z</time>
      </trkpt>
      <trkpt lat="46.01771" lon="6.80482">
        <ele>1545.1999511719</ele>
        <time>2023-09-30T07:10:00.000Z</time>
      </trkpt>
      <trkpt lat="46.01771" lon="6.80481">
        <ele>1545.4000244141</ele>
        <time>2023-09-30T07:10:01.000Z</time>
      </trkpt>
      <trkpt lat="46.01771" lon="6.80481">
        <ele>1546.4000244141</ele>
        <time>2023-09-30T07:10:07.000Z</time>
      </trkpt>
      <trkpt lat="46.0177" lon="6.80481">
        <ele>1546.4000244141</ele>
        <time>2023-09-30T07:10:08.000Z</time>
      </trkpt>
      <trkpt lat="46.0177" lon="6.80482">
        <ele>1546.5999755859</ele>
        <time>2023-09-30T07:10:10.000Z</time>
      </trkpt>
      <trkpt lat="46.0177" lon="6.80482">
        <ele>1547.5999755859</ele>
        <time>2023-09-30T07:10:16.000Z</time>
      </trkpt>
      <trkpt lat="46.01767" lon="6.80482">
        <ele>1548.8000488281</ele>
        <time>2023-09-30T07:10:22.000Z</time>
      </trkpt>
      <trkpt lat="46.01767" lon="6.80482">
        <ele>1548.8000488281</ele>
        <time>2023-09-30T07:10:23.000Z</time>
      </trkpt>
      <trkpt lat="46.01765" lon="6.80482">
        <ele>1549</ele>
        <time>2023-09-30T07:10:24.000Z</time>
      </trkpt>
      <trkpt lat="46.01764" lon="6.80483">
        <ele>1549.1999511719</ele>
        <time>2023-09-30T07:10:25.000Z</time>
      </trkpt>
      <trkpt lat="46.01763" lon="6.80483">
        <ele>1549.1999511719</ele>
        <time>2023-09-30T07:10:26.000Z</time>
      </trkpt>
      <trkpt lat="46.01763" lon="6.80483">
        <ele>1549.4000244141</ele>
        <time>2023-09-30T07:10:27.000Z</time>
      </trkpt>
      <trkpt lat="46.01762" lon="6.80483">
        <ele>1549.5999755859</ele>
        <time>2023-09-30T07:10:28.000Z</time>
      </trkpt>
      <trkpt lat="46.01762" lon="6.80482">
        <ele>1549.8000488281</ele>
        <time>2023-09-30T07:10:29.000Z</time>
      </trkpt>
      <trkpt lat="46.0176" lon="6.80482">
        <ele>1549.8000488281</ele>
        <time>2023-09-30T07:10:30.000Z</time>
      </trkpt>
      <trkpt lat="46.0176" lon="6.80482">
        <ele>1550</ele>
        <time>2023-09-30T07:10:31.000Z</time>
      </trkpt>
      <trkpt lat="46.01759" lon="6.80482">
        <ele>1550.1999511719</ele>
        <time>2023-09-30T07:10:32.000Z</time>
      </trkpt>
      <trkpt lat="46.01759" lon="6.80482">
        <ele>1550.4000244141</ele>
        <time>2023-09-30T07:10:33.000Z</time>
      </trkpt>
      <trkpt lat="46.01759" lon="6.80481">
        <ele>1550.4000244141</ele>
        <time>2023-09-30T07:10:34.000Z</time>
      </trkpt>
      <trkpt lat="46.01758" lon="6.80481">
        <ele>1550.8000488281</ele>
        <time>2023-09-30T07:10:35.000Z</time>
      </trkpt>
      <trkpt lat="46.01758" lon="6.8048">
        <ele>1551</ele>
        <time>2023-09-30T07:10:36.000Z</time>
      </trkpt>
      <trkpt lat="46.01758" lon="6.80479">
        <ele>1551.1999511719</ele>
        <time>2023-09-30T07:10:37.000Z</time>
      </trkpt>
      <trkpt lat="46.01756" lon="6.80479">
        <ele>1551.1999511719</ele>
        <time>2023-09-30T07:10:38.000Z</time>
      </trkpt>
      <trkpt lat="46.01756" lon="6.80479">
        <ele>1551.4000244141</ele>
        <time>2023-09-30T07:10:39.000Z</time>
      </trkpt>
      <trkpt lat="46.01756" lon="6.80479">
        <ele>1551.8000488281</ele>
        <time>2023-09-30T07:10:41.000Z</time>
      </trkpt>
      <trkpt lat="46.01756" lon="6.80479">
        <ele>1552</ele>
        <time>2023-09-30T07:10:42.000Z</time>
      </trkpt>
      <trkpt lat="46.01756" lon="6.80479">
        <ele>1552.4000244141</ele>
        <time>2023-09-30T07:10:45.000Z</time>
      </trkpt>
      <trkpt lat="46.01756" lon="6.80478">
        <ele>1553</ele>
        <time>2023-09-30T07:10:49.000Z</time>
      </trkpt>
      <trkpt lat="46.01756" lon="6.80477">
        <ele>1553.1999511719</ele>
        <time>2023-09-30T07:10:50.000Z</time>
      </trkpt>
      <trkpt lat="46.01756" lon="6.80475">
        <ele>1553</ele>
        <time>2023-09-30T07:10:51.000Z</time>
      </trkpt>
      <trkpt lat="46.01755" lon="6.80474">
        <ele>1553.1999511719</ele>
        <time>2023-09-30T07:10:52.000Z</time>
      </trkpt>
      <trkpt lat="46.01755" lon="6.80473">
        <ele>1553.4000244141</ele>
        <time>2023-09-30T07:10:53.000Z</time>
      </trkpt>
      <trkpt lat="46.01755" lon="6.80471">
        <ele>1553.5999755859</ele>
        <time>2023-09-30T07:10:54.000Z</time>
      </trkpt>
      <trkpt lat="46.01755" lon="6.80471">
        <ele>1553.5999755859</ele>
        <time>2023-09-30T07:10:55.000Z</time>
      </trkpt>
      <trkpt lat="46.01755" lon="6.80469">
        <ele>1553.8000488281</ele>
        <time>2023-09-30T07:10:56.000Z</time>
      </trkpt>
      <trkpt lat="46.01755" lon="6.80468">
        <ele>1553.8000488281</ele>
        <time>2023-09-30T07:10:57.000Z</time>
      </trkpt>
      <trkpt lat="46.01755" lon="6.80468">
        <ele>1554</ele>
        <time>2023-09-30T07:10:58.000Z</time>
      </trkpt>
      <trkpt lat="46.01755" lon="6.80468">
        <ele>1554.5999755859</ele>
        <time>2023-09-30T07:11:04.000Z</time>
      </trkpt>
      <trkpt lat="46.01755" lon="6.80467">
        <ele>1555</ele>
        <time>2023-09-30T07:11:17.000Z</time>
      </trkpt>
      <trkpt lat="46.01757" lon="6.80463">
        <ele>1555.4000244141</ele>
        <time>2023-09-30T07:11:20.000Z</time>
      </trkpt>
      <trkpt lat="46.01757" lon="6.80461">
        <ele>1555.4000244141</ele>
        <time>2023-09-30T07:11:21.000Z</time>
      </trkpt>
      <trkpt lat="46.01758" lon="6.80457">
        <ele>1555.8000488281</ele>
        <time>2023-09-30T07:11:24.000Z</time>
      </trkpt>
      <trkpt lat="46.01758" lon="6.80456">
        <ele>1556</ele>
        <time>2023-09-30T07:11:25.000Z</time>
      </trkpt>
      <trkpt lat="46.01758" lon="6.80454">
        <ele>1556.4000244141</ele>
        <time>2023-09-30T07:11:27.000Z</time>
      </trkpt>
      <trkpt lat="46.01758" lon="6.80454">
        <ele>1556.4000244141</ele>
        <time>2023-09-30T07:11:28.000Z</time>
      </trkpt>
      <trkpt lat="46.01759" lon="6.8045">
        <ele>1556.8000488281</ele>
        <time>2023-09-30T07:11:31.000Z</time>
      </trkpt>
      <trkpt lat="46.01758" lon="6.80449">
        <ele>1557.1999511719</ele>
        <time>2023-09-30T07:11:32.000Z</time>
      </trkpt>
      <trkpt lat="46.01758" lon="6.80447">
        <ele>1557.4000244141</ele>
        <time>2023-09-30T07:11:33.000Z</time>
      </trkpt>
      <trkpt lat="46.01758" lon="6.80445">
        <ele>1557.8000488281</ele>
        <time>2023-09-30T07:11:34.000Z</time>
      </trkpt>
      <trkpt lat="46.01758" lon="6.80444">
        <ele>1558</ele>
        <time>2023-09-30T07:11:35.000Z</time>
      </trkpt>
      <trkpt lat="46.01758" lon="6.80443">
        <ele>1558.1999511719</ele>
        <time>2023-09-30T07:11:36.000Z</time>
      </trkpt>
      <trkpt lat="46.01759" lon="6.80442">
        <ele>1558.1999511719</ele>
        <time>2023-09-30T07:11:37.000Z</time>
      </trkpt>
      <trkpt lat="46.01759" lon="6.80441">
        <ele>1558.4000244141</ele>
        <time>2023-09-30T07:11:38.000Z</time>
      </trkpt>
      <trkpt lat="46.0176" lon="6.8044">
        <ele>1558.5999755859</ele>
        <time>2023-09-30T07:11:39.000Z</time>
      </trkpt>
      <trkpt lat="46.0176" lon="6.80438">
        <ele>1558.5999755859</ele>
        <time>2023-09-30T07:11:40.000Z</time>
      </trkpt>
      <trkpt lat="46.01759" lon="6.80436">
        <ele>1558.8000488281</ele>
        <time>2023-09-30T07:11:41.000Z</time>
      </trkpt>
      <trkpt lat="46.01759" lon="6.80435">
        <ele>1558.8000488281</ele>
        <time>2023-09-30T07:11:42.000Z</time>
      </trkpt>
      <trkpt lat="46.01759" lon="6.80435">
        <ele>1559</ele>
        <time>2023-09-30T07:11:43.000Z</time>
      </trkpt>
      <trkpt lat="46.0176" lon="6.80434">
        <ele>1559.1999511719</ele>
        <time>2023-09-30T07:11:44.000Z</time>
      </trkpt>
      <trkpt lat="46.01761" lon="6.80432">
        <ele>1559.1999511719</ele>
        <time>2023-09-30T07:11:45.000Z</time>
      </trkpt>
      <trkpt lat="46.01762" lon="6.80431">
        <ele>1559.5999755859</ele>
        <time>2023-09-30T07:11:46.000Z</time>
      </trkpt>
      <trkpt lat="46.01762" lon="6.8043">
        <ele>1559.5999755859</ele>
        <time>2023-09-30T07:11:47.000Z</time>
      </trkpt>
      <trkpt lat="46.01762" lon="6.8043">
        <ele>1559.5999755859</ele>
        <time>2023-09-30T07:11:48.000Z</time>
      </trkpt>
      <trkpt lat="46.01763" lon="6.80428">
        <ele>1559.8000488281</ele>
        <time>2023-09-30T07:11:49.000Z</time>
      </trkpt>
      <trkpt lat="46.01763" lon="6.80427">
        <ele>1560</ele>
        <time>2023-09-30T07:11:50.000Z</time>
      </trkpt>
      <trkpt lat="46.01764" lon="6.80427">
        <ele>1560</ele>
        <time>2023-09-30T07:11:51.000Z</time>
      </trkpt>
      <trkpt lat="46.01764" lon="6.80426">
        <ele>1560</ele>
        <time>2023-09-30T07:11:52.000Z</time>
      </trkpt>
      <trkpt lat="46.01764" lon="6.80425">
        <ele>1560.4000244141</ele>
        <time>2023-09-30T07:11:53.000Z</time>
      </trkpt>
      <trkpt lat="46.01765" lon="6.80424">
        <ele>1560.4000244141</ele>
        <time>2023-09-30T07:11:54.000Z</time>
      </trkpt>
      <trkpt lat="46.01764" lon="6.80423">
        <ele>1560.5999755859</ele>
        <time>2023-09-30T07:11:55.000Z</time>
      </trkpt>
      <trkpt lat="46.01764" lon="6.80422">
        <ele>1560.8000488281</ele>
        <time>2023-09-30T07:11:56.000Z</time>
      </trkpt>
      <trkpt lat="46.01764" lon="6.80422">
        <ele>1561</ele>
        <time>2023-09-30T07:11:57.000Z</time>
      </trkpt>
      <trkpt lat="46.01764" lon="6.80422">
        <ele>1561</ele>
        <time>2023-09-30T07:11:58.000Z</time>
      </trkpt>
      <trkpt lat="46.01764" lon="6.80421">
        <ele>1561.1999511719</ele>
        <time>2023-09-30T07:11:59.000Z</time>
      </trkpt>
      <trkpt lat="46.01765" lon="6.8042">
        <ele>1561.1999511719</ele>
        <time>2023-09-30T07:12:00.000Z</time>
      </trkpt>
      <trkpt lat="46.01765" lon="6.80419">
        <ele>1561.4000244141</ele>
        <time>2023-09-30T07:12:01.000Z</time>
      </trkpt>
      <trkpt lat="46.01764" lon="6.80418">
        <ele>1561.5999755859</ele>
        <time>2023-09-30T07:12:02.000Z</time>
      </trkpt>
      <trkpt lat="46.01764" lon="6.80417">
        <ele>1561.5999755859</ele>
        <time>2023-09-30T07:12:03.000Z</time>
      </trkpt>
      <trkpt lat="46.01764" lon="6.80416">
        <ele>1562</ele>
        <time>2023-09-30T07:12:04.000Z</time>
      </trkpt>
      <trkpt lat="46.01763" lon="6.80414">
        <ele>1562</ele>
        <time>2023-09-30T07:12:05.000Z</time>
      </trkpt>
      <trkpt lat="46.01763" lon="6.80413">
        <ele>1562</ele>
        <time>2023-09-30T07:12:06.000Z</time>
      </trkpt>
      <trkpt lat="46.01763" lon="6.80412">
        <ele>1562.5999755859</ele>
        <time>2023-09-30T07:12:07.000Z</time>
      </trkpt>
      <trkpt lat="46.01764" lon="6.8041">
        <ele>1562.5999755859</ele>
        <time>2023-09-30T07:12:08.000Z</time>
      </trkpt>
      <trkpt lat="46.01764" lon="6.80409">
        <ele>1563</ele>
        <time>2023-09-30T07:12:09.000Z</time>
      </trkpt>
      <trkpt lat="46.01764" lon="6.80408">
        <ele>1563</ele>
        <time>2023-09-30T07:12:10.000Z</time>
      </trkpt>
      <trkpt lat="46.01764" lon="6.80405">
        <ele>1563.1999511719</ele>
        <time>2023-09-30T07:12:11.000Z</time>
      </trkpt>
      <trkpt lat="46.01765" lon="6.80404">
        <ele>1563.5999755859</ele>
        <time>2023-09-30T07:12:12.000Z</time>
      </trkpt>
      <trkpt lat="46.01765" lon="6.80402">
        <ele>1563.8000488281</ele>
        <time>2023-09-30T07:12:13.000Z</time>
      </trkpt>
      <trkpt lat="46.01765" lon="6.80402">
        <ele>1564</ele>
        <time>2023-09-30T07:12:14.000Z</time>
      </trkpt>
      <trkpt lat="46.01766" lon="6.80399">
        <ele>1564.1999511719</ele>
        <time>2023-09-30T07:12:15.000Z</time>
      </trkpt>
      <trkpt lat="46.01765" lon="6.80398">
        <ele>1564.4000244141</ele>
        <time>2023-09-30T07:12:16.000Z</time>
      </trkpt>
      <trkpt lat="46.01765" lon="6.80396">
        <ele>1564.5999755859</ele>
        <time>2023-09-30T07:12:17.000Z</time>
      </trkpt>
      <trkpt lat="46.01764" lon="6.80395">
        <ele>1564.5999755859</ele>
        <time>2023-09-30T07:12:18.000Z</time>
      </trkpt>
      <trkpt lat="46.01764" lon="6.80394">
        <ele>1564.8000488281</ele>
        <time>2023-09-30T07:12:19.000Z</time>
      </trkpt>
      <trkpt lat="46.01764" lon="6.80393">
        <ele>1565</ele>
        <time>2023-09-30T07:12:20.000Z</time>
      </trkpt>
      <trkpt lat="46.01764" lon="6.80393">
        <ele>1565.5999755859</ele>
        <time>2023-09-30T07:12:23.000Z</time>
      </trkpt>
      <trkpt lat="46.01764" lon="6.80393">
        <ele>1565.8000488281</ele>
        <time>2023-09-30T07:12:24.000Z</time>
      </trkpt>
      <trkpt lat="46.01764" lon="6.80393">
        <ele>1565.8000488281</ele>
        <time>2023-09-30T07:12:25.000Z</time>
      </trkpt>
      <trkpt lat="46.01764" lon="6.80392">
        <ele>1566</ele>
        <time>2023-09-30T07:12:26.000Z</time>
      </trkpt>
      <trkpt lat="46.01764" lon="6.80392">
        <ele>1566</ele>
        <time>2023-09-30T07:12:27.000Z</time>
      </trkpt>
      <trkpt lat="46.01764" lon="6.80392">
        <ele>1566</ele>
        <time>2023-09-30T07:12:28.000Z</time>
      </trkpt>
      <trkpt lat="46.01764" lon="6.80392">
        <ele>1566.1999511719</ele>
        <time>2023-09-30T07:12:29.000Z</time>
      </trkpt>
      <trkpt lat="46.01764" lon="6.8039">
        <ele>1566.1999511719</ele>
        <time>2023-09-30T07:12:30.000Z</time>
      </trkpt>
      <trkpt lat="46.01764" lon="6.8039">
        <ele>1566.4000244141</ele>
        <time>2023-09-30T07:12:31.000Z</time>
      </trkpt>
      <trkpt lat="46.01764" lon="6.8039">
        <ele>1566.5999755859</ele>
        <time>2023-09-30T07:12:35.000Z</time>
      </trkpt>
      <trkpt lat="46.01764" lon="6.8039">
        <ele>1566.8000488281</ele>
        <time>2023-09-30T07:12:36.000Z</time>
      </trkpt>
      <trkpt lat="46.01765" lon="6.80388">
        <ele>1567</ele>
        <time>2023-09-30T07:12:37.000Z</time>
      </trkpt>
      <trkpt lat="46.01765" lon="6.80387">
        <ele>1567</ele>
        <time>2023-09-30T07:12:38.000Z</time>
      </trkpt>
      <trkpt lat="46.01766" lon="6.80385">
        <ele>1567.1999511719</ele>
        <time>2023-09-30T07:12:39.000Z</time>
      </trkpt>
      <trkpt lat="46.01767" lon="6.80384">
        <ele>1567.1999511719</ele>
        <time>2023-09-30T07:12:40.000Z</time>
      </trkpt>
      <trkpt lat="46.01767" lon="6.80383">
        <ele>1567.4000244141</ele>
        <time>2023-09-30T07:12:41.000Z</time>
      </trkpt>
      <trkpt lat="46.01768" lon="6.80381">
        <ele>1567.5999755859</ele>
        <time>2023-09-30T07:12:42.000Z</time>
      </trkpt>
      <trkpt lat="46.01768" lon="6.8038">
        <ele>1567.8000488281</ele>
        <time>2023-09-30T07:12:43.000Z</time>
      </trkpt>
      <trkpt lat="46.01769" lon="6.80378">
        <ele>1568</ele>
        <time>2023-09-30T07:12:44.000Z</time>
      </trkpt>
      <trkpt lat="46.01769" lon="6.80378">
        <ele>1568.1999511719</ele>
        <time>2023-09-30T07:12:45.000Z</time>
      </trkpt>
      <trkpt lat="46.01769" lon="6.80378">
        <ele>1568.4000244141</ele>
        <time>2023-09-30T07:12:46.000Z</time>
      </trkpt>
      <trkpt lat="46.01769" lon="6.80377">
        <ele>1568.5999755859</ele>
        <time>2023-09-30T07:12:47.000Z</time>
      </trkpt>
      <trkpt lat="46.01769" lon="6.80377">
        <ele>1568.5999755859</ele>
        <time>2023-09-30T07:12:48.000Z</time>
      </trkpt>
      <trkpt lat="46.01769" lon="6.80376">
        <ele>1569</ele>
        <time>2023-09-30T07:12:49.000Z</time>
      </trkpt>
      <trkpt lat="46.01769" lon="6.80375">
        <ele>1569.1999511719</ele>
        <time>2023-09-30T07:12:50.000Z</time>
      </trkpt>
      <trkpt lat="46.01769" lon="6.80375">
        <ele>1569.4000244141</ele>
        <time>2023-09-30T07:12:51.000Z</time>
      </trkpt>
      <trkpt lat="46.0177" lon="6.80374">
        <ele>1569.8000488281</ele>
        <time>2023-09-30T07:12:52.000Z</time>
      </trkpt>
      <trkpt lat="46.0177" lon="6.80372">
        <ele>1569.8000488281</ele>
        <time>2023-09-30T07:12:53.000Z</time>
      </trkpt>
      <trkpt lat="46.01771" lon="6.80371">
        <ele>1570</ele>
        <time>2023-09-30T07:12:54.000Z</time>
      </trkpt>
      <trkpt lat="46.01772" lon="6.80369">
        <ele>1570.1999511719</ele>
        <time>2023-09-30T07:12:55.000Z</time>
      </trkpt>
      <trkpt lat="46.01772" lon="6.80368">
        <ele>1570.1999511719</ele>
        <time>2023-09-30T07:12:56.000Z</time>
      </trkpt>
      <trkpt lat="46.01773" lon="6.80367">
        <ele>1570.4000244141</ele>
        <time>2023-09-30T07:12:57.000Z</time>
      </trkpt>
      <trkpt lat="46.01773" lon="6.80365">
        <ele>1570.4000244141</ele>
        <time>2023-09-30T07:12:58.000Z</time>
      </trkpt>
      <trkpt lat="46.01774" lon="6.80364">
        <ele>1570.5999755859</ele>
        <time>2023-09-30T07:12:59.000Z</time>
      </trkpt>
      <trkpt lat="46.01775" lon="6.80363">
        <ele>1570.8000488281</ele>
        <time>2023-09-30T07:13:00.000Z</time>
      </trkpt>
      <trkpt lat="46.01775" lon="6.80362">
        <ele>1571</ele>
        <time>2023-09-30T07:13:01.000Z</time>
      </trkpt>
      <trkpt lat="46.01775" lon="6.80361">
        <ele>1571</ele>
        <time>2023-09-30T07:13:02.000Z</time>
      </trkpt>
      <trkpt lat="46.01776" lon="6.80359">
        <ele>1571.1999511719</ele>
        <time>2023-09-30T07:13:03.000Z</time>
      </trkpt>
      <trkpt lat="46.01776" lon="6.80358">
        <ele>1571.4000244141</ele>
        <time>2023-09-30T07:13:04.000Z</time>
      </trkpt>
      <trkpt lat="46.01777" lon="6.80357">
        <ele>1571.5999755859</ele>
        <time>2023-09-30T07:13:05.000Z</time>
      </trkpt>
      <trkpt lat="46.01777" lon="6.80355">
        <ele>1571.5999755859</ele>
        <time>2023-09-30T07:13:06.000Z</time>
      </trkpt>
      <trkpt lat="46.01778" lon="6.80354">
        <ele>1571.8000488281</ele>
        <time>2023-09-30T07:13:07.000Z</time>
      </trkpt>
      <trkpt lat="46.01778" lon="6.80353">
        <ele>1571.8000488281</ele>
        <time>2023-09-30T07:13:08.000Z</time>
      </trkpt>
      <trkpt lat="46.01779" lon="6.80352">
        <ele>1571.8000488281</ele>
        <time>2023-09-30T07:13:09.000Z</time>
      </trkpt>
      <trkpt lat="46.01779" lon="6.80351">
        <ele>1572</ele>
        <time>2023-09-30T07:13:10.000Z</time>
      </trkpt>
      <trkpt lat="46.0178" lon="6.8035">
        <ele>1572.1999511719</ele>
        <time>2023-09-30T07:13:11.000Z</time>
      </trkpt>
      <trkpt lat="46.0178" lon="6.80349">
        <ele>1572.1999511719</ele>
        <time>2023-09-30T07:13:12.000Z</time>
      </trkpt>
      <trkpt lat="46.01781" lon="6.80348">
        <ele>1572.4000244141</ele>
        <time>2023-09-30T07:13:13.000Z</time>
      </trkpt>
      <trkpt lat="46.01781" lon="6.80348">
        <ele>1572.4000244141</ele>
        <time>2023-09-30T07:13:14.000Z</time>
      </trkpt>
      <trkpt lat="46.01781" lon="6.80347">
        <ele>1572.5999755859</ele>
        <time>2023-09-30T07:13:15.000Z</time>
      </trkpt>
      <trkpt lat="46.01782" lon="6.80346">
        <ele>1572.5999755859</ele>
        <time>2023-09-30T07:13:16.000Z</time>
      </trkpt>
      <trkpt lat="46.01782" lon="6.80345">
        <ele>1572.5999755859</ele>
        <time>2023-09-30T07:13:17.000Z</time>
      </trkpt>
      <trkpt lat="46.01783" lon="6.80344">
        <ele>1572.8000488281</ele>
        <time>2023-09-30T07:13:18.000Z</time>
      </trkpt>
      <trkpt lat="46.01783" lon="6.80344">
        <ele>1572.8000488281</ele>
        <time>2023-09-30T07:13:19.000Z</time>
      </trkpt>
      <trkpt lat="46.01783" lon="6.80343">
        <ele>1573</ele>
        <time>2023-09-30T07:13:20.000Z</time>
      </trkpt>
      <trkpt lat="46.01783" lon="6.80343">
        <ele>1573.1999511719</ele>
        <time>2023-09-30T07:13:21.000Z</time>
      </trkpt>
      <trkpt lat="46.01784" lon="6.80343">
        <ele>1573.4000244141</ele>
        <time>2023-09-30T07:13:22.000Z</time>
      </trkpt>
      <trkpt lat="46.01783" lon="6.80341">
        <ele>1573.8000488281</ele>
        <time>2023-09-30T07:13:23.000Z</time>
      </trkpt>
      <trkpt lat="46.01783" lon="6.8034">
        <ele>1573.8000488281</ele>
        <time>2023-09-30T07:13:24.000Z</time>
      </trkpt>
      <trkpt lat="46.01783" lon="6.80339">
        <ele>1574.1999511719</ele>
        <time>2023-09-30T07:13:25.000Z</time>
      </trkpt>
      <trkpt lat="46.01783" lon="6.80338">
        <ele>1574.1999511719</ele>
        <time>2023-09-30T07:13:26.000Z</time>
      </trkpt>
      <trkpt lat="46.01782" lon="6.80337">
        <ele>1574.4000244141</ele>
        <time>2023-09-30T07:13:27.000Z</time>
      </trkpt>
      <trkpt lat="46.01782" lon="6.80336">
        <ele>1574.5999755859</ele>
        <time>2023-09-30T07:13:28.000Z</time>
      </trkpt>
      <trkpt lat="46.01782" lon="6.80336">
        <ele>1574.8000488281</ele>
        <time>2023-09-30T07:13:29.000Z</time>
      </trkpt>
      <trkpt lat="46.01782" lon="6.80336">
        <ele>1574.8000488281</ele>
        <time>2023-09-30T07:13:30.000Z</time>
      </trkpt>
      <trkpt lat="46.01782" lon="6.80334">
        <ele>1575</ele>
        <time>2023-09-30T07:13:31.000Z</time>
      </trkpt>
      <trkpt lat="46.01782" lon="6.80333">
        <ele>1575</ele>
        <time>2023-09-30T07:13:32.000Z</time>
      </trkpt>
      <trkpt lat="46.01782" lon="6.80332">
        <ele>1575.1999511719</ele>
        <time>2023-09-30T07:13:33.000Z</time>
      </trkpt>
      <trkpt lat="46.01782" lon="6.8033">
        <ele>1575.4000244141</ele>
        <time>2023-09-30T07:13:34.000Z</time>
      </trkpt>
      <trkpt lat="46.01782" lon="6.80329">
        <ele>1575.4000244141</ele>
        <time>2023-09-30T07:13:35.000Z</time>
      </trkpt>
      <trkpt lat="46.01782" lon="6.80329">
        <ele>1575.5999755859</ele>
        <time>2023-09-30T07:13:36.000Z</time>
      </trkpt>
      <trkpt lat="46.01782" lon="6.80329">
        <ele>1575.8000488281</ele>
        <time>2023-09-30T07:13:37.000Z</time>
      </trkpt>
      <trkpt lat="46.01782" lon="6.80328">
        <ele>1575.8000488281</ele>
        <time>2023-09-30T07:13:38.000Z</time>
      </trkpt>
      <trkpt lat="46.01783" lon="6.80327">
        <ele>1576.1999511719</ele>
        <time>2023-09-30T07:13:39.000Z</time>
      </trkpt>
      <trkpt lat="46.01783" lon="6.80326">
        <ele>1576.1999511719</ele>
        <time>2023-09-30T07:13:40.000Z</time>
      </trkpt>
      <trkpt lat="46.01783" lon="6.80326">
        <ele>1576.4000244141</ele>
        <time>2023-09-30T07:13:41.000Z</time>
      </trkpt>
      <trkpt lat="46.01783" lon="6.80324">
        <ele>1577.1999511719</ele>
        <time>2023-09-30T07:13:45.000Z</time>
      </trkpt>
      <trkpt lat="46.01783" lon="6.80324">
        <ele>1577.4000244141</ele>
        <time>2023-09-30T07:13:46.000Z</time>
      </trkpt>
      <trkpt lat="46.01783" lon="6.80323">
        <ele>1577.5999755859</ele>
        <time>2023-09-30T07:13:47.000Z</time>
      </trkpt>
      <trkpt lat="46.01784" lon="6.80323">
        <ele>1577.8000488281</ele>
        <time>2023-09-30T07:13:48.000Z</time>
      </trkpt>
      <trkpt lat="46.01784" lon="6.80323">
        <ele>1578.1999511719</ele>
        <time>2023-09-30T07:13:53.000Z</time>
      </trkpt>
      <trkpt lat="46.01784" lon="6.80323">
        <ele>1578.5999755859</ele>
        <time>2023-09-30T07:13:55.000Z</time>
      </trkpt>
      <trkpt lat="46.01784" lon="6.80322">
        <ele>1578.8000488281</ele>
        <time>2023-09-30T07:13:57.000Z</time>
      </trkpt>
      <trkpt lat="46.01784" lon="6.80321">
        <ele>1579.5999755859</ele>
        <time>2023-09-30T07:14:01.000Z</time>
      </trkpt>
      <trkpt lat="46.01784" lon="6.80318">
        <ele>1579.8000488281</ele>
        <time>2023-09-30T07:14:02.000Z</time>
      </trkpt>
      <trkpt lat="46.01784" lon="6.80316">
        <ele>1580</ele>
        <time>2023-09-30T07:14:03.000Z</time>
      </trkpt>
      <trkpt lat="46.01784" lon="6.80314">
        <ele>1580</ele>
        <time>2023-09-30T07:14:04.000Z</time>
      </trkpt>
      <trkpt lat="46.01784" lon="6.80313">
        <ele>1580.1999511719</ele>
        <time>2023-09-30T07:14:05.000Z</time>
      </trkpt>
      <trkpt lat="46.01784" lon="6.80311">
        <ele>1580.1999511719</ele>
        <time>2023-09-30T07:14:06.000Z</time>
      </trkpt>
      <trkpt lat="46.01783" lon="6.8031">
        <ele>1580.4000244141</ele>
        <time>2023-09-30T07:14:07.000Z</time>
      </trkpt>
      <trkpt lat="46.01783" lon="6.80307">
        <ele>1580.4000244141</ele>
        <time>2023-09-30T07:14:08.000Z</time>
      </trkpt>
      <trkpt lat="46.01782" lon="6.80306">
        <ele>1580.5999755859</ele>
        <time>2023-09-30T07:14:09.000Z</time>
      </trkpt>
      <trkpt lat="46.01783" lon="6.80304">
        <ele>1580.8000488281</ele>
        <time>2023-09-30T07:14:10.000Z</time>
      </trkpt>
      <trkpt lat="46.01783" lon="6.80304">
        <ele>1581</ele>
        <time>2023-09-30T07:14:11.000Z</time>
      </trkpt>
      <trkpt lat="46.01784" lon="6.80303">
        <ele>1581.1999511719</ele>
        <time>2023-09-30T07:14:12.000Z</time>
      </trkpt>
      <trkpt lat="46.01785" lon="6.80302">
        <ele>1581.4000244141</ele>
        <time>2023-09-30T07:14:13.000Z</time>
      </trkpt>
      <trkpt lat="46.01785" lon="6.80301">
        <ele>1581.5999755859</ele>
        <time>2023-09-30T07:14:15.000Z</time>
      </trkpt>
      <trkpt lat="46.01785" lon="6.80301">
        <ele>1581.8000488281</ele>
        <time>2023-09-30T07:14:16.000Z</time>
      </trkpt>
      <trkpt lat="46.01784" lon="6.803">
        <ele>1582</ele>
        <time>2023-09-30T07:14:17.000Z</time>
      </trkpt>
      <trkpt lat="46.01784" lon="6.803">
        <ele>1582</ele>
        <time>2023-09-30T07:14:18.000Z</time>
      </trkpt>
      <trkpt lat="46.01784" lon="6.803">
        <ele>1582.1999511719</ele>
        <time>2023-09-30T07:14:19.000Z</time>
      </trkpt>
      <trkpt lat="46.01784" lon="6.803">
        <ele>1582.4000244141</ele>
        <time>2023-09-30T07:14:20.000Z</time>
      </trkpt>
      <trkpt lat="46.01783" lon="6.80301">
        <ele>1582.5999755859</ele>
        <time>2023-09-30T07:14:21.000Z</time>
      </trkpt>
      <trkpt lat="46.01782" lon="6.80301">
        <ele>1582.5999755859</ele>
        <time>2023-09-30T07:14:22.000Z</time>
      </trkpt>
      <trkpt lat="46.01782" lon="6.80301">
        <ele>1583</ele>
        <time>2023-09-30T07:14:24.000Z</time>
      </trkpt>
      <trkpt lat="46.01782" lon="6.80301">
        <ele>1583</ele>
        <time>2023-09-30T07:14:25.000Z</time>
      </trkpt>
      <trkpt lat="46.01782" lon="6.80301">
        <ele>1583.5999755859</ele>
        <time>2023-09-30T07:14:28.000Z</time>
      </trkpt>
      <trkpt lat="46.01782" lon="6.80302">
        <ele>1583.8000488281</ele>
        <time>2023-09-30T07:14:29.000Z</time>
      </trkpt>
      <trkpt lat="46.01782" lon="6.80303">
        <ele>1584</ele>
        <time>2023-09-30T07:14:30.000Z</time>
      </trkpt>
      <trkpt lat="46.01781" lon="6.80303">
        <ele>1584.4000244141</ele>
        <time>2023-09-30T07:14:31.000Z</time>
      </trkpt>
      <trkpt lat="46.01781" lon="6.80303">
        <ele>1584.8000488281</ele>
        <time>2023-09-30T07:14:33.000Z</time>
      </trkpt>
      <trkpt lat="46.01781" lon="6.80303">
        <ele>1585</ele>
        <time>2023-09-30T07:14:36.000Z</time>
      </trkpt>
      <trkpt lat="46.01781" lon="6.80303">
        <ele>1585.1999511719</ele>
        <time>2023-09-30T07:14:37.000Z</time>
      </trkpt>
      <trkpt lat="46.01781" lon="6.80303">
        <ele>1585.1999511719</ele>
        <time>2023-09-30T07:14:39.000Z</time>
      </trkpt>
      <trkpt lat="46.0178" lon="6.80304">
        <ele>1585.4000244141</ele>
        <time>2023-09-30T07:14:40.000Z</time>
      </trkpt>
      <trkpt lat="46.0178" lon="6.80304">
        <ele>1586</ele>
        <time>2023-09-30T07:14:45.000Z</time>
      </trkpt>
      <trkpt lat="46.01779" lon="6.80304">
        <ele>1586</ele>
        <time>2023-09-30T07:14:46.000Z</time>
      </trkpt>
      <trkpt lat="46.01779" lon="6.80304">
        <ele>1586.4000244141</ele>
        <time>2023-09-30T07:14:47.000Z</time>
      </trkpt>
      <trkpt lat="46.01779" lon="6.80305">
        <ele>1586.5999755859</ele>
        <time>2023-09-30T07:14:48.000Z</time>
      </trkpt>
      <trkpt lat="46.01778" lon="6.80306">
        <ele>1586.5999755859</ele>
        <time>2023-09-30T07:14:49.000Z</time>
      </trkpt>
      <trkpt lat="46.01778" lon="6.80307">
        <ele>1586.8000488281</ele>
        <time>2023-09-30T07:14:50.000Z</time>
      </trkpt>
      <trkpt lat="46.01778" lon="6.80307">
        <ele>1586.8000488281</ele>
        <time>2023-09-30T07:14:51.000Z</time>
      </trkpt>
      <trkpt lat="46.01777" lon="6.80307">
        <ele>1587</ele>
        <time>2023-09-30T07:14:53.000Z</time>
      </trkpt>
      <trkpt lat="46.01776" lon="6.80309">
        <ele>1587.1999511719</ele>
        <time>2023-09-30T07:14:54.000Z</time>
      </trkpt>
      <trkpt lat="46.01775" lon="6.8031">
        <ele>1587.1999511719</ele>
        <time>2023-09-30T07:14:55.000Z</time>
      </trkpt>
      <trkpt lat="46.01774" lon="6.80311">
        <ele>1587.4000244141</ele>
        <time>2023-09-30T07:14:56.000Z</time>
      </trkpt>
      <trkpt lat="46.01773" lon="6.80312">
        <ele>1587.8000488281</ele>
        <time>2023-09-30T07:14:57.000Z</time>
      </trkpt>
      <trkpt lat="46.01772" lon="6.80313">
        <ele>1587.8000488281</ele>
        <time>2023-09-30T07:14:58.000Z</time>
      </trkpt>
      <trkpt lat="46.01771" lon="6.80314">
        <ele>1588</ele>
        <time>2023-09-30T07:14:59.000Z</time>
      </trkpt>
      <trkpt lat="46.0177" lon="6.80315">
        <ele>1588.1999511719</ele>
        <time>2023-09-30T07:15:00.000Z</time>
      </trkpt>
      <trkpt lat="46.01769" lon="6.80316">
        <ele>1588.4000244141</ele>
        <time>2023-09-30T07:15:01.000Z</time>
      </trkpt>
      <trkpt lat="46.01769" lon="6.80316">
        <ele>1588.4000244141</ele>
        <time>2023-09-30T07:15:02.000Z</time>
      </trkpt>
      <trkpt lat="46.01769" lon="6.80316">
        <ele>1588.5999755859</ele>
        <time>2023-09-30T07:15:03.000Z</time>
      </trkpt>
      <trkpt lat="46.01769" lon="6.80315">
        <ele>1589.4000244141</ele>
        <time>2023-09-30T07:15:08.000Z</time>
      </trkpt>
      <trkpt lat="46.01769" lon="6.80315">
        <ele>1589.5999755859</ele>
        <time>2023-09-30T07:15:09.000Z</time>
      </trkpt>
      <trkpt lat="46.01769" lon="6.80314">
        <ele>1589.8000488281</ele>
        <time>2023-09-30T07:15:10.000Z</time>
      </trkpt>
      <trkpt lat="46.01769" lon="6.80314">
        <ele>1590</ele>
        <time>2023-09-30T07:15:12.000Z</time>
      </trkpt>
      <trkpt lat="46.01769" lon="6.80314">
        <ele>1590.1999511719</ele>
        <time>2023-09-30T07:15:13.000Z</time>
      </trkpt>
      <trkpt lat="46.01769" lon="6.80313">
        <ele>1590.4000244141</ele>
        <time>2023-09-30T07:15:14.000Z</time>
      </trkpt>
      <trkpt lat="46.01769" lon="6.80313">
        <ele>1590.4000244141</ele>
        <time>2023-09-30T07:15:15.000Z</time>
      </trkpt>
      <trkpt lat="46.01769" lon="6.80313">
        <ele>1590.8000488281</ele>
        <time>2023-09-30T07:15:17.000Z</time>
      </trkpt>
      <trkpt lat="46.01769" lon="6.80313">
        <ele>1591.4000244141</ele>
        <time>2023-09-30T07:15:20.000Z</time>
      </trkpt>
      <trkpt lat="46.0177" lon="6.80312">
        <ele>1591.4000244141</ele>
        <time>2023-09-30T07:15:21.000Z</time>
      </trkpt>
      <trkpt lat="46.0177" lon="6.80312">
        <ele>1591.8000488281</ele>
        <time>2023-09-30T07:15:23.000Z</time>
      </trkpt>
      <trkpt lat="46.0177" lon="6.80312">
        <ele>1592</ele>
        <time>2023-09-30T07:15:24.000Z</time>
      </trkpt>
      <trkpt lat="46.01769" lon="6.80312">
        <ele>1592.1999511719</ele>
        <time>2023-09-30T07:15:25.000Z</time>
      </trkpt>
      <trkpt lat="46.01769" lon="6.8031">
        <ele>1592.1999511719</ele>
        <time>2023-09-30T07:15:26.000Z</time>
      </trkpt>
      <trkpt lat="46.01769" lon="6.80309">
        <ele>1592.4000244141</ele>
        <time>2023-09-30T07:15:27.000Z</time>
      </trkpt>
      <trkpt lat="46.01769" lon="6.80308">
        <ele>1592.5999755859</ele>
        <time>2023-09-30T07:15:28.000Z</time>
      </trkpt>
      <trkpt lat="46.01769" lon="6.80307">
        <ele>1592.5999755859</ele>
        <time>2023-09-30T07:15:29.000Z</time>
      </trkpt>
      <trkpt lat="46.0177" lon="6.80306">
        <ele>1592.5999755859</ele>
        <time>2023-09-30T07:15:30.000Z</time>
      </trkpt>
      <trkpt lat="46.0177" lon="6.80305">
        <ele>1592.8000488281</ele>
        <time>2023-09-30T07:15:31.000Z</time>
      </trkpt>
      <trkpt lat="46.0177" lon="6.80304">
        <ele>1592.8000488281</ele>
        <time>2023-09-30T07:15:32.000Z</time>
      </trkpt>
      <trkpt lat="46.01769" lon="6.80302">
        <ele>1593</ele>
        <time>2023-09-30T07:15:33.000Z</time>
      </trkpt>
      <trkpt lat="46.01769" lon="6.80301">
        <ele>1593.1999511719</ele>
        <time>2023-09-30T07:15:34.000Z</time>
      </trkpt>
      <trkpt lat="46.01769" lon="6.80301">
        <ele>1593.1999511719</ele>
        <time>2023-09-30T07:15:35.000Z</time>
      </trkpt>
      <trkpt lat="46.01769" lon="6.803">
        <ele>1593.4000244141</ele>
        <time>2023-09-30T07:15:36.000Z</time>
      </trkpt>
      <trkpt lat="46.01769" lon="6.80298">
        <ele>1593.4000244141</ele>
        <time>2023-09-30T07:15:37.000Z</time>
      </trkpt>
      <trkpt lat="46.01769" lon="6.80296">
        <ele>1593.5999755859</ele>
        <time>2023-09-30T07:15:38.000Z</time>
      </trkpt>
      <trkpt lat="46.01769" lon="6.80295">
        <ele>1593.8000488281</ele>
        <time>2023-09-30T07:15:39.000Z</time>
      </trkpt>
      <trkpt lat="46.01769" lon="6.80295">
        <ele>1593.8000488281</ele>
        <time>2023-09-30T07:15:40.000Z</time>
      </trkpt>
      <trkpt lat="46.01768" lon="6.80293">
        <ele>1594</ele>
        <time>2023-09-30T07:15:41.000Z</time>
      </trkpt>
      <trkpt lat="46.01768" lon="6.80293">
        <ele>1594.1999511719</ele>
        <time>2023-09-30T07:15:42.000Z</time>
      </trkpt>
      <trkpt lat="46.01768" lon="6.80292">
        <ele>1594.5999755859</ele>
        <time>2023-09-30T07:15:43.000Z</time>
      </trkpt>
      <trkpt lat="46.01767" lon="6.80291">
        <ele>1594.8000488281</ele>
        <time>2023-09-30T07:15:44.000Z</time>
      </trkpt>
      <trkpt lat="46.01767" lon="6.80291">
        <ele>1594.8000488281</ele>
        <time>2023-09-30T07:15:45.000Z</time>
      </trkpt>
      <trkpt lat="46.01766" lon="6.8029">
        <ele>1595</ele>
        <time>2023-09-30T07:15:46.000Z</time>
      </trkpt>
      <trkpt lat="46.01766" lon="6.8029">
        <ele>1595</ele>
        <time>2023-09-30T07:15:47.000Z</time>
      </trkpt>
      <trkpt lat="46.01766" lon="6.8029">
        <ele>1595.4000244141</ele>
        <time>2023-09-30T07:15:48.000Z</time>
      </trkpt>
      <trkpt lat="46.01766" lon="6.80288">
        <ele>1595.5999755859</ele>
        <time>2023-09-30T07:15:49.000Z</time>
      </trkpt>
      <trkpt lat="46.01765" lon="6.80287">
        <ele>1595.8000488281</ele>
        <time>2023-09-30T07:15:50.000Z</time>
      </trkpt>
      <trkpt lat="46.01765" lon="6.80287">
        <ele>1595.8000488281</ele>
        <time>2023-09-30T07:15:51.000Z</time>
      </trkpt>
      <trkpt lat="46.01764" lon="6.80286">
        <ele>1596</ele>
        <time>2023-09-30T07:15:52.000Z</time>
      </trkpt>
      <trkpt lat="46.01765" lon="6.80286">
        <ele>1596.1999511719</ele>
        <time>2023-09-30T07:15:53.000Z</time>
      </trkpt>
      <trkpt lat="46.01764" lon="6.80286">
        <ele>1596.1999511719</ele>
        <time>2023-09-30T07:15:54.000Z</time>
      </trkpt>
      <trkpt lat="46.01765" lon="6.80285">
        <ele>1596.4000244141</ele>
        <time>2023-09-30T07:15:55.000Z</time>
      </trkpt>
      <trkpt lat="46.01765" lon="6.80285">
        <ele>1596.5999755859</ele>
        <time>2023-09-30T07:15:56.000Z</time>
      </trkpt>
      <trkpt lat="46.01763" lon="6.80283">
        <ele>1596.8000488281</ele>
        <time>2023-09-30T07:15:57.000Z</time>
      </trkpt>
      <trkpt lat="46.01763" lon="6.80281">
        <ele>1597.1999511719</ele>
        <time>2023-09-30T07:15:58.000Z</time>
      </trkpt>
      <trkpt lat="46.01761" lon="6.80279">
        <ele>1597.4000244141</ele>
        <time>2023-09-30T07:15:59.000Z</time>
      </trkpt>
      <trkpt lat="46.01761" lon="6.80277">
        <ele>1597.5999755859</ele>
        <time>2023-09-30T07:16:00.000Z</time>
      </trkpt>
      <trkpt lat="46.01761" lon="6.80276">
        <ele>1597.5999755859</ele>
        <time>2023-09-30T07:16:01.000Z</time>
      </trkpt>
      <trkpt lat="46.01761" lon="6.80276">
        <ele>1597.8000488281</ele>
        <time>2023-09-30T07:16:02.000Z</time>
      </trkpt>
      <trkpt lat="46.01764" lon="6.80274">
        <ele>1598</ele>
        <time>2023-09-30T07:16:03.000Z</time>
      </trkpt>
      <trkpt lat="46.01764" lon="6.80273">
        <ele>1598.1999511719</ele>
        <time>2023-09-30T07:16:04.000Z</time>
      </trkpt>
      <trkpt lat="46.01765" lon="6.80273">
        <ele>1598.1999511719</ele>
        <time>2023-09-30T07:16:05.000Z</time>
      </trkpt>
      <trkpt lat="46.01765" lon="6.80273">
        <ele>1598.1999511719</ele>
        <time>2023-09-30T07:16:06.000Z</time>
      </trkpt>
      <trkpt lat="46.01764" lon="6.80272">
        <ele>1598.4000244141</ele>
        <time>2023-09-30T07:16:07.000Z</time>
      </trkpt>
      <trkpt lat="46.01763" lon="6.80271">
        <ele>1598.4000244141</ele>
        <time>2023-09-30T07:16:08.000Z</time>
      </trkpt>
      <trkpt lat="46.01763" lon="6.80271">
        <ele>1598.5999755859</ele>
        <time>2023-09-30T07:16:09.000Z</time>
      </trkpt>
      <trkpt lat="46.01763" lon="6.80269">
        <ele>1598.8000488281</ele>
        <time>2023-09-30T07:16:10.000Z</time>
      </trkpt>
      <trkpt lat="46.01763" lon="6.80268">
        <ele>1599</ele>
        <time>2023-09-30T07:16:11.000Z</time>
      </trkpt>
      <trkpt lat="46.01763" lon="6.80268">
        <ele>1599.1999511719</ele>
        <time>2023-09-30T07:16:12.000Z</time>
      </trkpt>
      <trkpt lat="46.01763" lon="6.80267">
        <ele>1599.1999511719</ele>
        <time>2023-09-30T07:16:13.000Z</time>
      </trkpt>
      <trkpt lat="46.01763" lon="6.80267">
        <ele>1599.5999755859</ele>
        <time>2023-09-30T07:16:14.000Z</time>
      </trkpt>
      <trkpt lat="46.01763" lon="6.80266">
        <ele>1599.8000488281</ele>
        <time>2023-09-30T07:16:15.000Z</time>
      </trkpt>
      <trkpt lat="46.01763" lon="6.80266">
        <ele>1600</ele>
        <time>2023-09-30T07:16:16.000Z</time>
      </trkpt>
      <trkpt lat="46.01763" lon="6.80266">
        <ele>1600.1999511719</ele>
        <time>2023-09-30T07:16:17.000Z</time>
      </trkpt>
      <trkpt lat="46.01763" lon="6.80266">
        <ele>1600.4000244141</ele>
        <time>2023-09-30T07:16:18.000Z</time>
      </trkpt>
      <trkpt lat="46.01763" lon="6.80266">
        <ele>1600.5999755859</ele>
        <time>2023-09-30T07:16:19.000Z</time>
      </trkpt>
      <trkpt lat="46.01763" lon="6.80266">
        <ele>1600.8000488281</ele>
        <time>2023-09-30T07:16:20.000Z</time>
      </trkpt>
      <trkpt lat="46.01764" lon="6.80266">
        <ele>1600.8000488281</ele>
        <time>2023-09-30T07:16:21.000Z</time>
      </trkpt>
      <trkpt lat="46.01765" lon="6.80264">
        <ele>1601</ele>
        <time>2023-09-30T07:16:22.000Z</time>
      </trkpt>
      <trkpt lat="46.01765" lon="6.80264">
        <ele>1601.1999511719</ele>
        <time>2023-09-30T07:16:23.000Z</time>
      </trkpt>
      <trkpt lat="46.01766" lon="6.80262">
        <ele>1601.1999511719</ele>
        <time>2023-09-30T07:16:24.000Z</time>
      </trkpt>
      <trkpt lat="46.01766" lon="6.80262">
        <ele>1601.4000244141</ele>
        <time>2023-09-30T07:16:25.000Z</time>
      </trkpt>
      <trkpt lat="46.01765" lon="6.80262">
        <ele>1602</ele>
        <time>2023-09-30T07:16:28.000Z</time>
      </trkpt>
      <trkpt lat="46.01765" lon="6.80262">
        <ele>1602</ele>
        <time>2023-09-30T07:16:29.000Z</time>
      </trkpt>
      <trkpt lat="46.01764" lon="6.8026">
        <ele>1602.1999511719</ele>
        <time>2023-09-30T07:16:30.000Z</time>
      </trkpt>
      <trkpt lat="46.01764" lon="6.8026">
        <ele>1602.1999511719</ele>
        <time>2023-09-30T07:16:31.000Z</time>
      </trkpt>
      <trkpt lat="46.01764" lon="6.8026">
        <ele>1602.4000244141</ele>
        <time>2023-09-30T07:16:34.000Z</time>
      </trkpt>
      <trkpt lat="46.01764" lon="6.8026">
        <ele>1603.1999511719</ele>
        <time>2023-09-30T07:16:37.000Z</time>
      </trkpt>
      <trkpt lat="46.01763" lon="6.80257">
        <ele>1603.8000488281</ele>
        <time>2023-09-30T07:16:55.000Z</time>
      </trkpt>
      <trkpt lat="46.01763" lon="6.80257">
        <ele>1603.8000488281</ele>
        <time>2023-09-30T07:16:56.000Z</time>
      </trkpt>
      <trkpt lat="46.01764" lon="6.80253">
        <ele>1604</ele>
        <time>2023-09-30T07:16:59.000Z</time>
      </trkpt>
      <trkpt lat="46.01764" lon="6.8025">
        <ele>1604</ele>
        <time>2023-09-30T07:17:00.000Z</time>
      </trkpt>
      <trkpt lat="46.01764" lon="6.80247">
        <ele>1604.1999511719</ele>
        <time>2023-09-30T07:17:01.000Z</time>
      </trkpt>
      <trkpt lat="46.01764" lon="6.80247">
        <ele>1604.1999511719</ele>
        <time>2023-09-30T07:17:02.000Z</time>
      </trkpt>
      <trkpt lat="46.01764" lon="6.80244">
        <ele>1604.4000244141</ele>
        <time>2023-09-30T07:17:03.000Z</time>
      </trkpt>
      <trkpt lat="46.01764" lon="6.80238">
        <ele>1604.5999755859</ele>
        <time>2023-09-30T07:17:05.000Z</time>
      </trkpt>
      <trkpt lat="46.01765" lon="6.80232">
        <ele>1605.1999511719</ele>
        <time>2023-09-30T07:17:06.000Z</time>
      </trkpt>
      <trkpt lat="46.01765" lon="6.80228">
        <ele>1605.4000244141</ele>
        <time>2023-09-30T07:17:07.000Z</time>
      </trkpt>
      <trkpt lat="46.01764" lon="6.80226">
        <ele>1606</ele>
        <time>2023-09-30T07:17:09.000Z</time>
      </trkpt>
      <trkpt lat="46.01764" lon="6.80226">
        <ele>1606.4000244141</ele>
        <time>2023-09-30T07:17:10.000Z</time>
      </trkpt>
      <trkpt lat="46.01764" lon="6.80226">
        <ele>1606.4000244141</ele>
        <time>2023-09-30T07:17:11.000Z</time>
      </trkpt>
      <trkpt lat="46.01762" lon="6.80222">
        <ele>1607</ele>
        <time>2023-09-30T07:17:14.000Z</time>
      </trkpt>
      <trkpt lat="46.01761" lon="6.8022">
        <ele>1607</ele>
        <time>2023-09-30T07:17:15.000Z</time>
      </trkpt>
      <trkpt lat="46.01761" lon="6.80218">
        <ele>1607.1999511719</ele>
        <time>2023-09-30T07:17:16.000Z</time>
      </trkpt>
      <trkpt lat="46.01761" lon="6.80218">
        <ele>1607.4000244141</ele>
        <time>2023-09-30T07:17:17.000Z</time>
      </trkpt>
      <trkpt lat="46.0176" lon="6.80216">
        <ele>1607.4000244141</ele>
        <time>2023-09-30T07:17:18.000Z</time>
      </trkpt>
      <trkpt lat="46.0176" lon="6.80215">
        <ele>1607.4000244141</ele>
        <time>2023-09-30T07:17:19.000Z</time>
      </trkpt>
      <trkpt lat="46.01759" lon="6.80214">
        <ele>1607.5999755859</ele>
        <time>2023-09-30T07:17:20.000Z</time>
      </trkpt>
      <trkpt lat="46.01757" lon="6.80212">
        <ele>1607.5999755859</ele>
        <time>2023-09-30T07:17:21.000Z</time>
      </trkpt>
      <trkpt lat="46.01756" lon="6.8021">
        <ele>1607.8000488281</ele>
        <time>2023-09-30T07:17:22.000Z</time>
      </trkpt>
      <trkpt lat="46.01756" lon="6.8021">
        <ele>1608</ele>
        <time>2023-09-30T07:17:23.000Z</time>
      </trkpt>
      <trkpt lat="46.01756" lon="6.80209">
        <ele>1608.1999511719</ele>
        <time>2023-09-30T07:17:24.000Z</time>
      </trkpt>
      <trkpt lat="46.01755" lon="6.80207">
        <ele>1608.1999511719</ele>
        <time>2023-09-30T07:17:25.000Z</time>
      </trkpt>
      <trkpt lat="46.01755" lon="6.80207">
        <ele>1608.5999755859</ele>
        <time>2023-09-30T07:17:26.000Z</time>
      </trkpt>
      <trkpt lat="46.01754" lon="6.80206">
        <ele>1608.8000488281</ele>
        <time>2023-09-30T07:17:27.000Z</time>
      </trkpt>
      <trkpt lat="46.01753" lon="6.80206">
        <ele>1608.8000488281</ele>
        <time>2023-09-30T07:17:28.000Z</time>
      </trkpt>
      <trkpt lat="46.01753" lon="6.80206">
        <ele>1609.1999511719</ele>
        <time>2023-09-30T07:17:29.000Z</time>
      </trkpt>
      <trkpt lat="46.0175" lon="6.80205">
        <ele>1609.4000244141</ele>
        <time>2023-09-30T07:17:30.000Z</time>
      </trkpt>
      <trkpt lat="46.01751" lon="6.80203">
        <ele>1609.5999755859</ele>
        <time>2023-09-30T07:17:31.000Z</time>
      </trkpt>
      <trkpt lat="46.01752" lon="6.80202">
        <ele>1609.8000488281</ele>
        <time>2023-09-30T07:17:32.000Z</time>
      </trkpt>
      <trkpt lat="46.01752" lon="6.80201">
        <ele>1610</ele>
        <time>2023-09-30T07:17:33.000Z</time>
      </trkpt>
      <trkpt lat="46.01752" lon="6.80201">
        <ele>1610</ele>
        <time>2023-09-30T07:17:34.000Z</time>
      </trkpt>
      <trkpt lat="46.01752" lon="6.80201">
        <ele>1610.1999511719</ele>
        <time>2023-09-30T07:17:35.000Z</time>
      </trkpt>
      <trkpt lat="46.01752" lon="6.802">
        <ele>1610.4000244141</ele>
        <time>2023-09-30T07:17:36.000Z</time>
      </trkpt>
      <trkpt lat="46.01752" lon="6.802">
        <ele>1610.5999755859</ele>
        <time>2023-09-30T07:17:37.000Z</time>
      </trkpt>
      <trkpt lat="46.01752" lon="6.802">
        <ele>1610.8000488281</ele>
        <time>2023-09-30T07:17:38.000Z</time>
      </trkpt>
      <trkpt lat="46.01752" lon="6.80199">
        <ele>1610.8000488281</ele>
        <time>2023-09-30T07:17:39.000Z</time>
      </trkpt>
      <trkpt lat="46.01752" lon="6.80199">
        <ele>1611</ele>
        <time>2023-09-30T07:17:40.000Z</time>
      </trkpt>
      <trkpt lat="46.01752" lon="6.80199">
        <ele>1611.1999511719</ele>
        <time>2023-09-30T07:17:41.000Z</time>
      </trkpt>
      <trkpt lat="46.01752" lon="6.80198">
        <ele>1611.4000244141</ele>
        <time>2023-09-30T07:17:42.000Z</time>
      </trkpt>
      <trkpt lat="46.01752" lon="6.80198">
        <ele>1611.4000244141</ele>
        <time>2023-09-30T07:17:43.000Z</time>
      </trkpt>
      <trkpt lat="46.0175" lon="6.80195">
        <ele>1611.5999755859</ele>
        <time>2023-09-30T07:17:44.000Z</time>
      </trkpt>
      <trkpt lat="46.0175" lon="6.80195">
        <ele>1611.5999755859</ele>
        <time>2023-09-30T07:17:45.000Z</time>
      </trkpt>
      <trkpt lat="46.0175" lon="6.80193">
        <ele>1611.8000488281</ele>
        <time>2023-09-30T07:17:46.000Z</time>
      </trkpt>
      <trkpt lat="46.0175" lon="6.80193">
        <ele>1612</ele>
        <time>2023-09-30T07:17:47.000Z</time>
      </trkpt>
      <trkpt lat="46.0175" lon="6.80193">
        <ele>1612.1999511719</ele>
        <time>2023-09-30T07:17:48.000Z</time>
      </trkpt>
      <trkpt lat="46.0175" lon="6.80193">
        <ele>1612.5999755859</ele>
        <time>2023-09-30T07:17:51.000Z</time>
      </trkpt>
      <trkpt lat="46.01749" lon="6.80192">
        <ele>1613</ele>
        <time>2023-09-30T07:17:54.000Z</time>
      </trkpt>
      <trkpt lat="46.01749" lon="6.80192">
        <ele>1613.1999511719</ele>
        <time>2023-09-30T07:17:55.000Z</time>
      </trkpt>
      <trkpt lat="46.01749" lon="6.80192">
        <ele>1613.5999755859</ele>
        <time>2023-09-30T07:17:58.000Z</time>
      </trkpt>
      <trkpt lat="46.01748" lon="6.80188">
        <ele>1613.5999755859</ele>
        <time>2023-09-30T07:17:59.000Z</time>
      </trkpt>
      <trkpt lat="46.01748" lon="6.80187">
        <ele>1613.8000488281</ele>
        <time>2023-09-30T07:18:00.000Z</time>
      </trkpt>
      <trkpt lat="46.01747" lon="6.80186">
        <ele>1614</ele>
        <time>2023-09-30T07:18:01.000Z</time>
      </trkpt>
      <trkpt lat="46.01747" lon="6.80185">
        <ele>1614.1999511719</ele>
        <time>2023-09-30T07:18:02.000Z</time>
      </trkpt>
      <trkpt lat="46.01747" lon="6.80184">
        <ele>1614.1999511719</ele>
        <time>2023-09-30T07:18:03.000Z</time>
      </trkpt>
      <trkpt lat="46.01746" lon="6.80182">
        <ele>1614.8000488281</ele>
        <time>2023-09-30T07:18:08.000Z</time>
      </trkpt>
      <trkpt lat="46.01746" lon="6.80181">
        <ele>1615.4000244141</ele>
        <time>2023-09-30T07:18:15.000Z</time>
      </trkpt>
      <trkpt lat="46.01747" lon="6.80179">
        <ele>1615.4000244141</ele>
        <time>2023-09-30T07:18:16.000Z</time>
      </trkpt>
      <trkpt lat="46.01747" lon="6.80177">
        <ele>1615.4000244141</ele>
        <time>2023-09-30T07:18:17.000Z</time>
      </trkpt>
      <trkpt lat="46.01747" lon="6.80177">
        <ele>1615.5999755859</ele>
        <time>2023-09-30T07:18:18.000Z</time>
      </trkpt>
      <trkpt lat="46.01746" lon="6.80175">
        <ele>1615.5999755859</ele>
        <time>2023-09-30T07:18:19.000Z</time>
      </trkpt>
      <trkpt lat="46.01747" lon="6.80171">
        <ele>1615.8000488281</ele>
        <time>2023-09-30T07:18:20.000Z</time>
      </trkpt>
      <trkpt lat="46.01746" lon="6.80169">
        <ele>1615.8000488281</ele>
        <time>2023-09-30T07:18:21.000Z</time>
      </trkpt>
      <trkpt lat="46.01746" lon="6.80168">
        <ele>1615.8000488281</ele>
        <time>2023-09-30T07:18:22.000Z</time>
      </trkpt>
      <trkpt lat="46.01745" lon="6.80166">
        <ele>1616</ele>
        <time>2023-09-30T07:18:23.000Z</time>
      </trkpt>
      <trkpt lat="46.01744" lon="6.80165">
        <ele>1616</ele>
        <time>2023-09-30T07:18:24.000Z</time>
      </trkpt>
      <trkpt lat="46.01744" lon="6.80165">
        <ele>1616.1999511719</ele>
        <time>2023-09-30T07:18:25.000Z</time>
      </trkpt>
      <trkpt lat="46.01743" lon="6.80164">
        <ele>1616.4000244141</ele>
        <time>2023-09-30T07:18:26.000Z</time>
      </trkpt>
      <trkpt lat="46.01743" lon="6.80163">
        <ele>1616.5999755859</ele>
        <time>2023-09-30T07:18:27.000Z</time>
      </trkpt>
      <trkpt lat="46.01743" lon="6.80161">
        <ele>1617</ele>
        <time>2023-09-30T07:18:28.000Z</time>
      </trkpt>
      <trkpt lat="46.01743" lon="6.80159">
        <ele>1617</ele>
        <time>2023-09-30T07:18:29.000Z</time>
      </trkpt>
      <trkpt lat="46.01743" lon="6.80159">
        <ele>1617.4000244141</ele>
        <time>2023-09-30T07:18:30.000Z</time>
      </trkpt>
      <trkpt lat="46.01743" lon="6.80156">
        <ele>1617.4000244141</ele>
        <time>2023-09-30T07:18:31.000Z</time>
      </trkpt>
      <trkpt lat="46.01744" lon="6.80155">
        <ele>1617.8000488281</ele>
        <time>2023-09-30T07:18:32.000Z</time>
      </trkpt>
      <trkpt lat="46.01744" lon="6.80154">
        <ele>1617.8000488281</ele>
        <time>2023-09-30T07:18:33.000Z</time>
      </trkpt>
      <trkpt lat="46.01744" lon="6.80154">
        <ele>1617.8000488281</ele>
        <time>2023-09-30T07:18:34.000Z</time>
      </trkpt>
      <trkpt lat="46.01744" lon="6.80154">
        <ele>1618</ele>
        <time>2023-09-30T07:18:35.000Z</time>
      </trkpt>
      <trkpt lat="46.01744" lon="6.80152">
        <ele>1618.1999511719</ele>
        <time>2023-09-30T07:18:36.000Z</time>
      </trkpt>
      <trkpt lat="46.01744" lon="6.80152">
        <ele>1618.1999511719</ele>
        <time>2023-09-30T07:18:37.000Z</time>
      </trkpt>
      <trkpt lat="46.01744" lon="6.80151">
        <ele>1618.4000244141</ele>
        <time>2023-09-30T07:18:38.000Z</time>
      </trkpt>
      <trkpt lat="46.01745" lon="6.8015">
        <ele>1618.8000488281</ele>
        <time>2023-09-30T07:18:39.000Z</time>
      </trkpt>
      <trkpt lat="46.01746" lon="6.80148">
        <ele>1619</ele>
        <time>2023-09-30T07:18:40.000Z</time>
      </trkpt>
      <trkpt lat="46.01746" lon="6.80148">
        <ele>1619.1999511719</ele>
        <time>2023-09-30T07:18:41.000Z</time>
      </trkpt>
      <trkpt lat="46.01746" lon="6.80148">
        <ele>1619.4000244141</ele>
        <time>2023-09-30T07:18:42.000Z</time>
      </trkpt>
      <trkpt lat="46.01746" lon="6.80146">
        <ele>1619.5999755859</ele>
        <time>2023-09-30T07:18:43.000Z</time>
      </trkpt>
      <trkpt lat="46.01746" lon="6.80146">
        <ele>1619.8000488281</ele>
        <time>2023-09-30T07:18:44.000Z</time>
      </trkpt>
      <trkpt lat="46.01746" lon="6.80145">
        <ele>1619.8000488281</ele>
        <time>2023-09-30T07:18:45.000Z</time>
      </trkpt>
      <trkpt lat="46.01746" lon="6.80144">
        <ele>1620</ele>
        <time>2023-09-30T07:18:46.000Z</time>
      </trkpt>
      <trkpt lat="46.01746" lon="6.80143">
        <ele>1620</ele>
        <time>2023-09-30T07:18:47.000Z</time>
      </trkpt>
      <trkpt lat="46.01746" lon="6.80142">
        <ele>1620.1999511719</ele>
        <time>2023-09-30T07:18:48.000Z</time>
      </trkpt>
      <trkpt lat="46.01746" lon="6.80142">
        <ele>1620.4000244141</ele>
        <time>2023-09-30T07:18:49.000Z</time>
      </trkpt>
      <trkpt lat="46.01746" lon="6.8014">
        <ele>1620.5999755859</ele>
        <time>2023-09-30T07:18:50.000Z</time>
      </trkpt>
      <trkpt lat="46.01746" lon="6.80139">
        <ele>1621</ele>
        <time>2023-09-30T07:18:51.000Z</time>
      </trkpt>
      <trkpt lat="46.01746" lon="6.80138">
        <ele>1621</ele>
        <time>2023-09-30T07:18:52.000Z</time>
      </trkpt>
      <trkpt lat="46.01745" lon="6.80136">
        <ele>1621</ele>
        <time>2023-09-30T07:18:53.000Z</time>
      </trkpt>
      <trkpt lat="46.01745" lon="6.80135">
        <ele>1621.1999511719</ele>
        <time>2023-09-30T07:18:54.000Z</time>
      </trkpt>
      <trkpt lat="46.01745" lon="6.80135">
        <ele>1621.4000244141</ele>
        <time>2023-09-30T07:18:55.000Z</time>
      </trkpt>
      <trkpt lat="46.01744" lon="6.80132">
        <ele>1621.8000488281</ele>
        <time>2023-09-30T07:18:56.000Z</time>
      </trkpt>
      <trkpt lat="46.01744" lon="6.8013">
        <ele>1621.8000488281</ele>
        <time>2023-09-30T07:18:57.000Z</time>
      </trkpt>
      <trkpt lat="46.01744" lon="6.8013">
        <ele>1622</ele>
        <time>2023-09-30T07:18:58.000Z</time>
      </trkpt>
      <trkpt lat="46.01743" lon="6.80127">
        <ele>1622.1999511719</ele>
        <time>2023-09-30T07:18:59.000Z</time>
      </trkpt>
      <trkpt lat="46.01743" lon="6.80126">
        <ele>1622.1999511719</ele>
        <time>2023-09-30T07:19:00.000Z</time>
      </trkpt>
      <trkpt lat="46.01742" lon="6.80125">
        <ele>1622.4000244141</ele>
        <time>2023-09-30T07:19:01.000Z</time>
      </trkpt>
      <trkpt lat="46.01742" lon="6.80124">
        <ele>1622.4000244141</ele>
        <time>2023-09-30T07:19:02.000Z</time>
      </trkpt>
      <trkpt lat="46.01742" lon="6.80123">
        <ele>1622.5999755859</ele>
        <time>2023-09-30T07:19:03.000Z</time>
      </trkpt>
      <trkpt lat="46.01742" lon="6.80121">
        <ele>1622.5999755859</ele>
        <time>2023-09-30T07:19:04.000Z</time>
      </trkpt>
      <trkpt lat="46.01742" lon="6.80121">
        <ele>1623</ele>
        <time>2023-09-30T07:19:05.000Z</time>
      </trkpt>
      <trkpt lat="46.01742" lon="6.8012">
        <ele>1623</ele>
        <time>2023-09-30T07:19:06.000Z</time>
      </trkpt>
      <trkpt lat="46.01742" lon="6.8012">
        <ele>1623.1999511719</ele>
        <time>2023-09-30T07:19:07.000Z</time>
      </trkpt>
      <trkpt lat="46.01741" lon="6.80119">
        <ele>1623.4000244141</ele>
        <time>2023-09-30T07:19:08.000Z</time>
      </trkpt>
      <trkpt lat="46.01742" lon="6.80118">
        <ele>1623.5999755859</ele>
        <time>2023-09-30T07:19:09.000Z</time>
      </trkpt>
      <trkpt lat="46.01742" lon="6.80117">
        <ele>1623.8000488281</ele>
        <time>2023-09-30T07:19:10.000Z</time>
      </trkpt>
      <trkpt lat="46.01742" lon="6.80117">
        <ele>1623.8000488281</ele>
        <time>2023-09-30T07:19:11.000Z</time>
      </trkpt>
      <trkpt lat="46.01741" lon="6.80116">
        <ele>1624</ele>
        <time>2023-09-30T07:19:12.000Z</time>
      </trkpt>
      <trkpt lat="46.01741" lon="6.80113">
        <ele>1624</ele>
        <time>2023-09-30T07:19:13.000Z</time>
      </trkpt>
      <trkpt lat="46.0174" lon="6.80113">
        <ele>1624.4000244141</ele>
        <time>2023-09-30T07:19:14.000Z</time>
      </trkpt>
      <trkpt lat="46.0174" lon="6.80113">
        <ele>1624.5999755859</ele>
        <time>2023-09-30T07:19:15.000Z</time>
      </trkpt>
      <trkpt lat="46.01739" lon="6.8011">
        <ele>1624.8000488281</ele>
        <time>2023-09-30T07:19:16.000Z</time>
      </trkpt>
      <trkpt lat="46.0174" lon="6.80109">
        <ele>1625</ele>
        <time>2023-09-30T07:19:17.000Z</time>
      </trkpt>
      <trkpt lat="46.0174" lon="6.80108">
        <ele>1625.1999511719</ele>
        <time>2023-09-30T07:19:18.000Z</time>
      </trkpt>
      <trkpt lat="46.0174" lon="6.80107">
        <ele>1625.4000244141</ele>
        <time>2023-09-30T07:19:19.000Z</time>
      </trkpt>
      <trkpt lat="46.0174" lon="6.80106">
        <ele>1625.4000244141</ele>
        <time>2023-09-30T07:19:20.000Z</time>
      </trkpt>
      <trkpt lat="46.0174" lon="6.80105">
        <ele>1625.5999755859</ele>
        <time>2023-09-30T07:19:21.000Z</time>
      </trkpt>
      <trkpt lat="46.01739" lon="6.80104">
        <ele>1625.8000488281</ele>
        <time>2023-09-30T07:19:22.000Z</time>
      </trkpt>
      <trkpt lat="46.01739" lon="6.80104">
        <ele>1626</ele>
        <time>2023-09-30T07:19:23.000Z</time>
      </trkpt>
      <trkpt lat="46.01739" lon="6.80103">
        <ele>1626</ele>
        <time>2023-09-30T07:19:24.000Z</time>
      </trkpt>
      <trkpt lat="46.01739" lon="6.80102">
        <ele>1626.1999511719</ele>
        <time>2023-09-30T07:19:25.000Z</time>
      </trkpt>
      <trkpt lat="46.01738" lon="6.80102">
        <ele>1626.1999511719</ele>
        <time>2023-09-30T07:19:26.000Z</time>
      </trkpt>
      <trkpt lat="46.01738" lon="6.80101">
        <ele>1626.4000244141</ele>
        <time>2023-09-30T07:19:27.000Z</time>
      </trkpt>
      <trkpt lat="46.01738" lon="6.801">
        <ele>1626.4000244141</ele>
        <time>2023-09-30T07:19:28.000Z</time>
      </trkpt>
      <trkpt lat="46.01737" lon="6.80099">
        <ele>1626.5999755859</ele>
        <time>2023-09-30T07:19:29.000Z</time>
      </trkpt>
      <trkpt lat="46.01737" lon="6.80098">
        <ele>1626.5999755859</ele>
        <time>2023-09-30T07:19:30.000Z</time>
      </trkpt>
      <trkpt lat="46.01737" lon="6.80097">
        <ele>1626.5999755859</ele>
        <time>2023-09-30T07:19:31.000Z</time>
      </trkpt>
      <trkpt lat="46.01737" lon="6.80096">
        <ele>1626.8000488281</ele>
        <time>2023-09-30T07:19:32.000Z</time>
      </trkpt>
      <trkpt lat="46.01737" lon="6.80095">
        <ele>1627</ele>
        <time>2023-09-30T07:19:33.000Z</time>
      </trkpt>
      <trkpt lat="46.01736" lon="6.80095">
        <ele>1627</ele>
        <time>2023-09-30T07:19:34.000Z</time>
      </trkpt>
      <trkpt lat="46.01736" lon="6.80094">
        <ele>1627.1999511719</ele>
        <time>2023-09-30T07:19:35.000Z</time>
      </trkpt>
      <trkpt lat="46.01736" lon="6.80094">
        <ele>1627.1999511719</ele>
        <time>2023-09-30T07:19:36.000Z</time>
      </trkpt>
      <trkpt lat="46.01734" lon="6.80093">
        <ele>1627.4000244141</ele>
        <time>2023-09-30T07:19:37.000Z</time>
      </trkpt>
      <trkpt lat="46.01734" lon="6.80092">
        <ele>1627.5999755859</ele>
        <time>2023-09-30T07:19:38.000Z</time>
      </trkpt>
      <trkpt lat="46.01733" lon="6.80091">
        <ele>1627.8000488281</ele>
        <time>2023-09-30T07:19:39.000Z</time>
      </trkpt>
      <trkpt lat="46.01733" lon="6.80091">
        <ele>1628</ele>
        <time>2023-09-30T07:19:40.000Z</time>
      </trkpt>
      <trkpt lat="46.01733" lon="6.80091">
        <ele>1628</ele>
        <time>2023-09-30T07:19:41.000Z</time>
      </trkpt>
      <trkpt lat="46.01731" lon="6.80092">
        <ele>1628.4000244141</ele>
        <time>2023-09-30T07:19:43.000Z</time>
      </trkpt>
      <trkpt lat="46.01731" lon="6.80092">
        <ele>1628.5999755859</ele>
        <time>2023-09-30T07:19:45.000Z</time>
      </trkpt>
      <trkpt lat="46.0173" lon="6.80092">
        <ele>1628.8000488281</ele>
        <time>2023-09-30T07:19:46.000Z</time>
      </trkpt>
      <trkpt lat="46.0173" lon="6.80091">
        <ele>1628.8000488281</ele>
        <time>2023-09-30T07:19:47.000Z</time>
      </trkpt>
      <trkpt lat="46.01729" lon="6.8009">
        <ele>1628.8000488281</ele>
        <time>2023-09-30T07:19:48.000Z</time>
      </trkpt>
      <trkpt lat="46.01728" lon="6.80089">
        <ele>1628.8000488281</ele>
        <time>2023-09-30T07:19:49.000Z</time>
      </trkpt>
      <trkpt lat="46.01728" lon="6.80089">
        <ele>1628.8000488281</ele>
        <time>2023-09-30T07:19:50.000Z</time>
      </trkpt>
      <trkpt lat="46.01727" lon="6.80088">
        <ele>1629</ele>
        <time>2023-09-30T07:19:51.000Z</time>
      </trkpt>
      <trkpt lat="46.01727" lon="6.80087">
        <ele>1629</ele>
        <time>2023-09-30T07:19:52.000Z</time>
      </trkpt>
      <trkpt lat="46.01727" lon="6.80087">
        <ele>1629</ele>
        <time>2023-09-30T07:19:53.000Z</time>
      </trkpt>
      <trkpt lat="46.01726" lon="6.80086">
        <ele>1629.1999511719</ele>
        <time>2023-09-30T07:19:54.000Z</time>
      </trkpt>
      <trkpt lat="46.01726" lon="6.80086">
        <ele>1629.1999511719</ele>
        <time>2023-09-30T07:19:55.000Z</time>
      </trkpt>
      <trkpt lat="46.01726" lon="6.80086">
        <ele>1629.4000244141</ele>
        <time>2023-09-30T07:19:56.000Z</time>
      </trkpt>
      <trkpt lat="46.01726" lon="6.80086">
        <ele>1629.8000488281</ele>
        <time>2023-09-30T07:19:57.000Z</time>
      </trkpt>
      <trkpt lat="46.01726" lon="6.80086">
        <ele>1630</ele>
        <time>2023-09-30T07:19:58.000Z</time>
      </trkpt>
      <trkpt lat="46.01726" lon="6.80086">
        <ele>1630.1999511719</ele>
        <time>2023-09-30T07:19:59.000Z</time>
      </trkpt>
      <trkpt lat="46.01726" lon="6.80085">
        <ele>1630.1999511719</ele>
        <time>2023-09-30T07:20:00.000Z</time>
      </trkpt>
      <trkpt lat="46.01725" lon="6.80083">
        <ele>1630.5999755859</ele>
        <time>2023-09-30T07:20:02.000Z</time>
      </trkpt>
      <trkpt lat="46.01725" lon="6.80082">
        <ele>1630.8000488281</ele>
        <time>2023-09-30T07:20:03.000Z</time>
      </trkpt>
      <trkpt lat="46.01724" lon="6.80081">
        <ele>1631</ele>
        <time>2023-09-30T07:20:04.000Z</time>
      </trkpt>
      <trkpt lat="46.01724" lon="6.80081">
        <ele>1631.1999511719</ele>
        <time>2023-09-30T07:20:05.000Z</time>
      </trkpt>
      <trkpt lat="46.01724" lon="6.80078">
        <ele>1631.1999511719</ele>
        <time>2023-09-30T07:20:06.000Z</time>
      </trkpt>
      <trkpt lat="46.01725" lon="6.80077">
        <ele>1631.4000244141</ele>
        <time>2023-09-30T07:20:07.000Z</time>
      </trkpt>
      <trkpt lat="46.01724" lon="6.80077">
        <ele>1631.5999755859</ele>
        <time>2023-09-30T07:20:08.000Z</time>
      </trkpt>
      <trkpt lat="46.01724" lon="6.80076">
        <ele>1631.5999755859</ele>
        <time>2023-09-30T07:20:09.000Z</time>
      </trkpt>
      <trkpt lat="46.01724" lon="6.80076">
        <ele>1631.8000488281</ele>
        <time>2023-09-30T07:20:10.000Z</time>
      </trkpt>
      <trkpt lat="46.01724" lon="6.80076">
        <ele>1632.1999511719</ele>
        <time>2023-09-30T07:20:11.000Z</time>
      </trkpt>
      <trkpt lat="46.01724" lon="6.80075">
        <ele>1632.1999511719</ele>
        <time>2023-09-30T07:20:12.000Z</time>
      </trkpt>
      <trkpt lat="46.01724" lon="6.80074">
        <ele>1632.4000244141</ele>
        <time>2023-09-30T07:20:13.000Z</time>
      </trkpt>
      <trkpt lat="46.01724" lon="6.80073">
        <ele>1632.4000244141</ele>
        <time>2023-09-30T07:20:14.000Z</time>
      </trkpt>
      <trkpt lat="46.01724" lon="6.80072">
        <ele>1632.5999755859</ele>
        <time>2023-09-30T07:20:15.000Z</time>
      </trkpt>
      <trkpt lat="46.01724" lon="6.8007">
        <ele>1633.1999511719</ele>
        <time>2023-09-30T07:20:19.000Z</time>
      </trkpt>
      <trkpt lat="46.01724" lon="6.80068">
        <ele>1633.4000244141</ele>
        <time>2023-09-30T07:20:20.000Z</time>
      </trkpt>
      <trkpt lat="46.01724" lon="6.80068">
        <ele>1633.5999755859</ele>
        <time>2023-09-30T07:20:21.000Z</time>
      </trkpt>
      <trkpt lat="46.01724" lon="6.80067">
        <ele>1633.8000488281</ele>
        <time>2023-09-30T07:20:22.000Z</time>
      </trkpt>
      <trkpt lat="46.01724" lon="6.80066">
        <ele>1633.8000488281</ele>
        <time>2023-09-30T07:20:23.000Z</time>
      </trkpt>
      <trkpt lat="46.01724" lon="6.80065">
        <ele>1634</ele>
        <time>2023-09-30T07:20:24.000Z</time>
      </trkpt>
      <trkpt lat="46.01724" lon="6.80065">
        <ele>1634.1999511719</ele>
        <time>2023-09-30T07:20:25.000Z</time>
      </trkpt>
      <trkpt lat="46.01724" lon="6.80064">
        <ele>1634.1999511719</ele>
        <time>2023-09-30T07:20:26.000Z</time>
      </trkpt>
      <trkpt lat="46.01724" lon="6.80064">
        <ele>1634.1999511719</ele>
        <time>2023-09-30T07:20:27.000Z</time>
      </trkpt>
      <trkpt lat="46.01724" lon="6.80063">
        <ele>1634.4000244141</ele>
        <time>2023-09-30T07:20:28.000Z</time>
      </trkpt>
      <trkpt lat="46.01725" lon="6.80062">
        <ele>1634.5999755859</ele>
        <time>2023-09-30T07:20:29.000Z</time>
      </trkpt>
      <trkpt lat="46.01725" lon="6.80062">
        <ele>1634.8000488281</ele>
        <time>2023-09-30T07:20:30.000Z</time>
      </trkpt>
      <trkpt lat="46.01725" lon="6.80062">
        <ele>1635</ele>
        <time>2023-09-30T07:20:31.000Z</time>
      </trkpt>
      <trkpt lat="46.01725" lon="6.80062">
        <ele>1635.1999511719</ele>
        <time>2023-09-30T07:20:32.000Z</time>
      </trkpt>
      <trkpt lat="46.01725" lon="6.80062">
        <ele>1635.1999511719</ele>
        <time>2023-09-30T07:20:33.000Z</time>
      </trkpt>
      <trkpt lat="46.01725" lon="6.80062">
        <ele>1635.4000244141</ele>
        <time>2023-09-30T07:20:34.000Z</time>
      </trkpt>
      <trkpt lat="46.01725" lon="6.80061">
        <ele>1635.4000244141</ele>
        <time>2023-09-30T07:20:35.000Z</time>
      </trkpt>
      <trkpt lat="46.01725" lon="6.80061">
        <ele>1635.5999755859</ele>
        <time>2023-09-30T07:20:36.000Z</time>
      </trkpt>
      <trkpt lat="46.01725" lon="6.80061">
        <ele>1635.8000488281</ele>
        <time>2023-09-30T07:20:37.000Z</time>
      </trkpt>
      <trkpt lat="46.01725" lon="6.80061">
        <ele>1635.8000488281</ele>
        <time>2023-09-30T07:20:38.000Z</time>
      </trkpt>
      <trkpt lat="46.01725" lon="6.80061">
        <ele>1636.1999511719</ele>
        <time>2023-09-30T07:20:40.000Z</time>
      </trkpt>
      <trkpt lat="46.01725" lon="6.80061">
        <ele>1636.4000244141</ele>
        <time>2023-09-30T07:20:43.000Z</time>
      </trkpt>
      <trkpt lat="46.01725" lon="6.80059">
        <ele>1636.5999755859</ele>
        <time>2023-09-30T07:20:47.000Z</time>
      </trkpt>
      <trkpt lat="46.01724" lon="6.80059">
        <ele>1636.8000488281</ele>
        <time>2023-09-30T07:20:48.000Z</time>
      </trkpt>
      <trkpt lat="46.01724" lon="6.80059">
        <ele>1636.8000488281</ele>
        <time>2023-09-30T07:20:49.000Z</time>
      </trkpt>
      <trkpt lat="46.01724" lon="6.80059">
        <ele>1637.5999755859</ele>
        <time>2023-09-30T07:20:53.000Z</time>
      </trkpt>
      <trkpt lat="46.01725" lon="6.80059">
        <ele>1638.5999755859</ele>
        <time>2023-09-30T07:20:58.000Z</time>
      </trkpt>
      <trkpt lat="46.01724" lon="6.80057">
        <ele>1639</ele>
        <time>2023-09-30T07:21:01.000Z</time>
      </trkpt>
      <trkpt lat="46.01724" lon="6.80057">
        <ele>1639.1999511719</ele>
        <time>2023-09-30T07:21:02.000Z</time>
      </trkpt>
      <trkpt lat="46.01723" lon="6.80054">
        <ele>1639.8000488281</ele>
        <time>2023-09-30T07:21:04.000Z</time>
      </trkpt>
      <trkpt lat="46.01723" lon="6.80053">
        <ele>1639.5999755859</ele>
        <time>2023-09-30T07:21:05.000Z</time>
      </trkpt>
      <trkpt lat="46.01723" lon="6.80053">
        <ele>1639.8000488281</ele>
        <time>2023-09-30T07:21:06.000Z</time>
      </trkpt>
      <trkpt lat="46.01722" lon="6.8005">
        <ele>1640.1999511719</ele>
        <time>2023-09-30T07:21:08.000Z</time>
      </trkpt>
      <trkpt lat="46.01721" lon="6.80049">
        <ele>1640.1999511719</ele>
        <time>2023-09-30T07:21:09.000Z</time>
      </trkpt>
      <trkpt lat="46.01721" lon="6.80049">
        <ele>1640.1999511719</ele>
        <time>2023-09-30T07:21:10.000Z</time>
      </trkpt>
      <trkpt lat="46.01721" lon="6.80047">
        <ele>1640.5999755859</ele>
        <time>2023-09-30T07:21:11.000Z</time>
      </trkpt>
      <trkpt lat="46.0172" lon="6.80046">
        <ele>1640.5999755859</ele>
        <time>2023-09-30T07:21:12.000Z</time>
      </trkpt>
      <trkpt lat="46.01719" lon="6.80045">
        <ele>1640.8000488281</ele>
        <time>2023-09-30T07:21:13.000Z</time>
      </trkpt>
      <trkpt lat="46.01718" lon="6.80044">
        <ele>1640.8000488281</ele>
        <time>2023-09-30T07:21:14.000Z</time>
      </trkpt>
      <trkpt lat="46.01718" lon="6.80044">
        <ele>1640.8000488281</ele>
        <time>2023-09-30T07:21:15.000Z</time>
      </trkpt>
      <trkpt lat="46.01717" lon="6.80043">
        <ele>1641</ele>
        <time>2023-09-30T07:21:16.000Z</time>
      </trkpt>
      <trkpt lat="46.01716" lon="6.80042">
        <ele>1641.1999511719</ele>
        <time>2023-09-30T07:21:17.000Z</time>
      </trkpt>
      <trkpt lat="46.01715" lon="6.80042">
        <ele>1641.1999511719</ele>
        <time>2023-09-30T07:21:18.000Z</time>
      </trkpt>
      <trkpt lat="46.01714" lon="6.8004">
        <ele>1641.4000244141</ele>
        <time>2023-09-30T07:21:19.000Z</time>
      </trkpt>
      <trkpt lat="46.01714" lon="6.8004">
        <ele>1641.4000244141</ele>
        <time>2023-09-30T07:21:20.000Z</time>
      </trkpt>
      <trkpt lat="46.01714" lon="6.8004">
        <ele>1641.5999755859</ele>
        <time>2023-09-30T07:21:22.000Z</time>
      </trkpt>
      <trkpt lat="46.01714" lon="6.8004">
        <ele>1642.5999755859</ele>
        <time>2023-09-30T07:21:32.000Z</time>
      </trkpt>
      <trkpt lat="46.01713" lon="6.80039">
        <ele>1642.5999755859</ele>
        <time>2023-09-30T07:21:37.000Z</time>
      </trkpt>
      <trkpt lat="46.01711" lon="6.80036">
        <ele>1642.5999755859</ele>
        <time>2023-09-30T07:21:39.000Z</time>
      </trkpt>
      <trkpt lat="46.01709" lon="6.80032">
        <ele>1642.8000488281</ele>
        <time>2023-09-30T07:21:41.000Z</time>
      </trkpt>
      <trkpt lat="46.01707" lon="6.8003">
        <ele>1643.1999511719</ele>
        <time>2023-09-30T07:21:44.000Z</time>
      </trkpt>
      <trkpt lat="46.01707" lon="6.8003">
        <ele>1643.4000244141</ele>
        <time>2023-09-30T07:21:45.000Z</time>
      </trkpt>
      <trkpt lat="46.01707" lon="6.8003">
        <ele>1643.5999755859</ele>
        <time>2023-09-30T07:21:46.000Z</time>
      </trkpt>
      <trkpt lat="46.01706" lon="6.80028">
        <ele>1643.5999755859</ele>
        <time>2023-09-30T07:21:50.000Z</time>
      </trkpt>
      <trkpt lat="46.01706" lon="6.80028">
        <ele>1643.8000488281</ele>
        <time>2023-09-30T07:21:52.000Z</time>
      </trkpt>
      <trkpt lat="46.01705" lon="6.80024">
        <ele>1644.1999511719</ele>
        <time>2023-09-30T07:21:54.000Z</time>
      </trkpt>
      <trkpt lat="46.01705" lon="6.80024">
        <ele>1644.1999511719</ele>
        <time>2023-09-30T07:21:55.000Z</time>
      </trkpt>
      <trkpt lat="46.01705" lon="6.80023">
        <ele>1644.4000244141</ele>
        <time>2023-09-30T07:21:56.000Z</time>
      </trkpt>
      <trkpt lat="46.01705" lon="6.80023">
        <ele>1644.5999755859</ele>
        <time>2023-09-30T07:21:57.000Z</time>
      </trkpt>
      <trkpt lat="46.01705" lon="6.80023">
        <ele>1644.8000488281</ele>
        <time>2023-09-30T07:21:59.000Z</time>
      </trkpt>
      <trkpt lat="46.01704" lon="6.80021">
        <ele>1645.5999755859</ele>
        <time>2023-09-30T07:22:03.000Z</time>
      </trkpt>
      <trkpt lat="46.01703" lon="6.8002">
        <ele>1645.5999755859</ele>
        <time>2023-09-30T07:22:04.000Z</time>
      </trkpt>
      <trkpt lat="46.01703" lon="6.8002">
        <ele>1645.8000488281</ele>
        <time>2023-09-30T07:22:05.000Z</time>
      </trkpt>
      <trkpt lat="46.01703" lon="6.8002">
        <ele>1646</ele>
        <time>2023-09-30T07:22:07.000Z</time>
      </trkpt>
      <trkpt lat="46.01703" lon="6.8002">
        <ele>1646.5999755859</ele>
        <time>2023-09-30T07:22:10.000Z</time>
      </trkpt>
      <trkpt lat="46.01701" lon="6.80017">
        <ele>1647</ele>
        <time>2023-09-30T07:22:13.000Z</time>
      </trkpt>
      <trkpt lat="46.017" lon="6.80016">
        <ele>1647.1999511719</ele>
        <time>2023-09-30T07:22:14.000Z</time>
      </trkpt>
      <trkpt lat="46.01699" lon="6.80014">
        <ele>1647.4000244141</ele>
        <time>2023-09-30T07:22:15.000Z</time>
      </trkpt>
      <trkpt lat="46.01697" lon="6.80013">
        <ele>1647.5999755859</ele>
        <time>2023-09-30T07:22:16.000Z</time>
      </trkpt>
      <trkpt lat="46.01696" lon="6.80011">
        <ele>1647.8000488281</ele>
        <time>2023-09-30T07:22:17.000Z</time>
      </trkpt>
      <trkpt lat="46.01695" lon="6.8001">
        <ele>1648</ele>
        <time>2023-09-30T07:22:18.000Z</time>
      </trkpt>
      <trkpt lat="46.01695" lon="6.8001">
        <ele>1648.1999511719</ele>
        <time>2023-09-30T07:22:19.000Z</time>
      </trkpt>
      <trkpt lat="46.01691" lon="6.80006">
        <ele>1648.1999511719</ele>
        <time>2023-09-30T07:22:20.000Z</time>
      </trkpt>
      <trkpt lat="46.0169" lon="6.80005">
        <ele>1648.4000244141</ele>
        <time>2023-09-30T07:22:21.000Z</time>
      </trkpt>
      <trkpt lat="46.01689" lon="6.80005">
        <ele>1648.5999755859</ele>
        <time>2023-09-30T07:22:22.000Z</time>
      </trkpt>
      <trkpt lat="46.01689" lon="6.80004">
        <ele>1648.5999755859</ele>
        <time>2023-09-30T07:22:23.000Z</time>
      </trkpt>
      <trkpt lat="46.01689" lon="6.80004">
        <ele>1648.5999755859</ele>
        <time>2023-09-30T07:22:24.000Z</time>
      </trkpt>
      <trkpt lat="46.01688" lon="6.80003">
        <ele>1648.8000488281</ele>
        <time>2023-09-30T07:22:25.000Z</time>
      </trkpt>
      <trkpt lat="46.01688" lon="6.80002">
        <ele>1649</ele>
        <time>2023-09-30T07:22:26.000Z</time>
      </trkpt>
      <trkpt lat="46.01688" lon="6.80002">
        <ele>1649.1999511719</ele>
        <time>2023-09-30T07:22:27.000Z</time>
      </trkpt>
      <trkpt lat="46.01687" lon="6.8">
        <ele>1649.5999755859</ele>
        <time>2023-09-30T07:22:29.000Z</time>
      </trkpt>
      <trkpt lat="46.01687" lon="6.79998">
        <ele>1649.5999755859</ele>
        <time>2023-09-30T07:22:30.000Z</time>
      </trkpt>
      <trkpt lat="46.01687" lon="6.79997">
        <ele>1649.8000488281</ele>
        <time>2023-09-30T07:22:31.000Z</time>
      </trkpt>
      <trkpt lat="46.01687" lon="6.79997">
        <ele>1650</ele>
        <time>2023-09-30T07:22:32.000Z</time>
      </trkpt>
      <trkpt lat="46.01687" lon="6.79996">
        <ele>1650.1999511719</ele>
        <time>2023-09-30T07:22:33.000Z</time>
      </trkpt>
      <trkpt lat="46.01686" lon="6.79995">
        <ele>1650.4000244141</ele>
        <time>2023-09-30T07:22:34.000Z</time>
      </trkpt>
      <trkpt lat="46.01685" lon="6.79995">
        <ele>1650.5999755859</ele>
        <time>2023-09-30T07:22:35.000Z</time>
      </trkpt>
      <trkpt lat="46.01684" lon="6.79994">
        <ele>1650.8000488281</ele>
        <time>2023-09-30T07:22:36.000Z</time>
      </trkpt>
      <trkpt lat="46.01684" lon="6.79993">
        <ele>1650.8000488281</ele>
        <time>2023-09-30T07:22:37.000Z</time>
      </trkpt>
      <trkpt lat="46.01684" lon="6.79993">
        <ele>1651.1999511719</ele>
        <time>2023-09-30T07:22:38.000Z</time>
      </trkpt>
      <trkpt lat="46.01684" lon="6.79993">
        <ele>1651.1999511719</ele>
        <time>2023-09-30T07:22:39.000Z</time>
      </trkpt>
      <trkpt lat="46.01681" lon="6.79991">
        <ele>1651.8000488281</ele>
        <time>2023-09-30T07:22:43.000Z</time>
      </trkpt>
      <trkpt lat="46.01681" lon="6.7999">
        <ele>1651.8000488281</ele>
        <time>2023-09-30T07:22:44.000Z</time>
      </trkpt>
      <trkpt lat="46.0168" lon="6.79989">
        <ele>1652</ele>
        <time>2023-09-30T07:22:45.000Z</time>
      </trkpt>
      <trkpt lat="46.0168" lon="6.79988">
        <ele>1652</ele>
        <time>2023-09-30T07:22:46.000Z</time>
      </trkpt>
      <trkpt lat="46.0168" lon="6.79988">
        <ele>1652.1999511719</ele>
        <time>2023-09-30T07:22:47.000Z</time>
      </trkpt>
      <trkpt lat="46.01679" lon="6.79987">
        <ele>1652.1999511719</ele>
        <time>2023-09-30T07:22:48.000Z</time>
      </trkpt>
      <trkpt lat="46.01678" lon="6.79986">
        <ele>1652.1999511719</ele>
        <time>2023-09-30T07:22:49.000Z</time>
      </trkpt>
      <trkpt lat="46.01678" lon="6.79986">
        <ele>1652.4000244141</ele>
        <time>2023-09-30T07:22:50.000Z</time>
      </trkpt>
      <trkpt lat="46.01678" lon="6.79986">
        <ele>1652.4000244141</ele>
        <time>2023-09-30T07:22:51.000Z</time>
      </trkpt>
      <trkpt lat="46.01678" lon="6.79986">
        <ele>1652.8000488281</ele>
        <time>2023-09-30T07:22:52.000Z</time>
      </trkpt>
      <trkpt lat="46.01678" lon="6.79986">
        <ele>1653</ele>
        <time>2023-09-30T07:22:55.000Z</time>
      </trkpt>
      <trkpt lat="46.01678" lon="6.79986">
        <ele>1653</ele>
        <time>2023-09-30T07:22:58.000Z</time>
      </trkpt>
      <trkpt lat="46.01678" lon="6.79986">
        <ele>1653.4000244141</ele>
        <time>2023-09-30T07:23:10.000Z</time>
      </trkpt>
      <trkpt lat="46.01677" lon="6.79985">
        <ele>1653.4000244141</ele>
        <time>2023-09-30T07:23:11.000Z</time>
      </trkpt>
      <trkpt lat="46.01676" lon="6.79983">
        <ele>1653.4000244141</ele>
        <time>2023-09-30T07:23:12.000Z</time>
      </trkpt>
      <trkpt lat="46.01675" lon="6.79981">
        <ele>1653.4000244141</ele>
        <time>2023-09-30T07:23:14.000Z</time>
      </trkpt>
      <trkpt lat="46.01674" lon="6.79978">
        <ele>1653.5999755859</ele>
        <time>2023-09-30T07:23:16.000Z</time>
      </trkpt>
      <trkpt lat="46.01675" lon="6.79977">
        <ele>1653.5999755859</ele>
        <time>2023-09-30T07:23:17.000Z</time>
      </trkpt>
      <trkpt lat="46.01675" lon="6.79977">
        <ele>1653.5999755859</ele>
        <time>2023-09-30T07:23:18.000Z</time>
      </trkpt>
      <trkpt lat="46.01674" lon="6.79974">
        <ele>1653.8000488281</ele>
        <time>2023-09-30T07:23:19.000Z</time>
      </trkpt>
      <trkpt lat="46.01673" lon="6.79973">
        <ele>1653.8000488281</ele>
        <time>2023-09-30T07:23:20.000Z</time>
      </trkpt>
      <trkpt lat="46.01673" lon="6.79972">
        <ele>1654</ele>
        <time>2023-09-30T07:23:21.000Z</time>
      </trkpt>
      <trkpt lat="46.01672" lon="6.79972">
        <ele>1654</ele>
        <time>2023-09-30T07:23:22.000Z</time>
      </trkpt>
      <trkpt lat="46.01672" lon="6.7997">
        <ele>1654.1999511719</ele>
        <time>2023-09-30T07:23:23.000Z</time>
      </trkpt>
      <trkpt lat="46.01672" lon="6.7997">
        <ele>1654.1999511719</ele>
        <time>2023-09-30T07:23:24.000Z</time>
      </trkpt>
      <trkpt lat="46.01672" lon="6.7997">
        <ele>1654.5999755859</ele>
        <time>2023-09-30T07:23:25.000Z</time>
      </trkpt>
      <trkpt lat="46.01672" lon="6.79969">
        <ele>1654.5999755859</ele>
        <time>2023-09-30T07:23:26.000Z</time>
      </trkpt>
      <trkpt lat="46.01666" lon="6.79964">
        <ele>1655.1999511719</ele>
        <time>2023-09-30T07:23:29.000Z</time>
      </trkpt>
      <trkpt lat="46.01663" lon="6.79956">
        <ele>1655.1999511719</ele>
        <time>2023-09-30T07:23:31.000Z</time>
      </trkpt>
      <trkpt lat="46.01662" lon="6.79954">
        <ele>1655.1999511719</ele>
        <time>2023-09-30T07:23:32.000Z</time>
      </trkpt>
      <trkpt lat="46.01661" lon="6.79952">
        <ele>1655.1999511719</ele>
        <time>2023-09-30T07:23:33.000Z</time>
      </trkpt>
      <trkpt lat="46.0166" lon="6.7995">
        <ele>1655.4000244141</ele>
        <time>2023-09-30T07:23:34.000Z</time>
      </trkpt>
      <trkpt lat="46.01658" lon="6.79948">
        <ele>1655.4000244141</ele>
        <time>2023-09-30T07:23:35.000Z</time>
      </trkpt>
      <trkpt lat="46.01657" lon="6.79946">
        <ele>1655.1999511719</ele>
        <time>2023-09-30T07:23:36.000Z</time>
      </trkpt>
      <trkpt lat="46.01656" lon="6.79944">
        <ele>1655.1999511719</ele>
        <time>2023-09-30T07:23:37.000Z</time>
      </trkpt>
      <trkpt lat="46.01653" lon="6.79936">
        <ele>1655.1999511719</ele>
        <time>2023-09-30T07:23:40.000Z</time>
      </trkpt>
      <trkpt lat="46.01652" lon="6.79933">
        <ele>1655.1999511719</ele>
        <time>2023-09-30T07:23:41.000Z</time>
      </trkpt>
      <trkpt lat="46.01652" lon="6.79931">
        <ele>1655.4000244141</ele>
        <time>2023-09-30T07:23:42.000Z</time>
      </trkpt>
      <trkpt lat="46.01651" lon="6.79929">
        <ele>1655.5999755859</ele>
        <time>2023-09-30T07:23:43.000Z</time>
      </trkpt>
      <trkpt lat="46.01651" lon="6.79929">
        <ele>1655.8000488281</ele>
        <time>2023-09-30T07:23:44.000Z</time>
      </trkpt>
      <trkpt lat="46.01651" lon="6.79926">
        <ele>1656</ele>
        <time>2023-09-30T07:23:45.000Z</time>
      </trkpt>
      <trkpt lat="46.01651" lon="6.79924">
        <ele>1656.1999511719</ele>
        <time>2023-09-30T07:23:46.000Z</time>
      </trkpt>
      <trkpt lat="46.01651" lon="6.79922">
        <ele>1656.4000244141</ele>
        <time>2023-09-30T07:23:47.000Z</time>
      </trkpt>
      <trkpt lat="46.01651" lon="6.79919">
        <ele>1656.4000244141</ele>
        <time>2023-09-30T07:23:48.000Z</time>
      </trkpt>
      <trkpt lat="46.01652" lon="6.79916">
        <ele>1656.5999755859</ele>
        <time>2023-09-30T07:23:49.000Z</time>
      </trkpt>
      <trkpt lat="46.01652" lon="6.79914">
        <ele>1656.5999755859</ele>
        <time>2023-09-30T07:23:50.000Z</time>
      </trkpt>
      <trkpt lat="46.01652" lon="6.79912">
        <ele>1656.8000488281</ele>
        <time>2023-09-30T07:23:51.000Z</time>
      </trkpt>
      <trkpt lat="46.01651" lon="6.7991">
        <ele>1656.8000488281</ele>
        <time>2023-09-30T07:23:52.000Z</time>
      </trkpt>
      <trkpt lat="46.0165" lon="6.79908">
        <ele>1656.8000488281</ele>
        <time>2023-09-30T07:23:53.000Z</time>
      </trkpt>
      <trkpt lat="46.01649" lon="6.79904">
        <ele>1656.8000488281</ele>
        <time>2023-09-30T07:23:54.000Z</time>
      </trkpt>
      <trkpt lat="46.01647" lon="6.79902">
        <ele>1657</ele>
        <time>2023-09-30T07:23:55.000Z</time>
      </trkpt>
      <trkpt lat="46.01646" lon="6.799">
        <ele>1657</ele>
        <time>2023-09-30T07:23:56.000Z</time>
      </trkpt>
      <trkpt lat="46.01644" lon="6.79898">
        <ele>1657</ele>
        <time>2023-09-30T07:23:57.000Z</time>
      </trkpt>
      <trkpt lat="46.01641" lon="6.79894">
        <ele>1657.1999511719</ele>
        <time>2023-09-30T07:23:59.000Z</time>
      </trkpt>
      <trkpt lat="46.01636" lon="6.79881">
        <ele>1657.8000488281</ele>
        <time>2023-09-30T07:24:04.000Z</time>
      </trkpt>
      <trkpt lat="46.01635" lon="6.79878">
        <ele>1658</ele>
        <time>2023-09-30T07:24:06.000Z</time>
      </trkpt>
      <trkpt lat="46.01634" lon="6.79874">
        <ele>1658</ele>
        <time>2023-09-30T07:24:08.000Z</time>
      </trkpt>
      <trkpt lat="46.01634" lon="6.79873">
        <ele>1658</ele>
        <time>2023-09-30T07:24:09.000Z</time>
      </trkpt>
      <trkpt lat="46.01633" lon="6.79872">
        <ele>1658.1999511719</ele>
        <time>2023-09-30T07:24:10.000Z</time>
      </trkpt>
      <trkpt lat="46.01633" lon="6.7987">
        <ele>1658.1999511719</ele>
        <time>2023-09-30T07:24:11.000Z</time>
      </trkpt>
      <trkpt lat="46.01633" lon="6.7987">
        <ele>1658.1999511719</ele>
        <time>2023-09-30T07:24:12.000Z</time>
      </trkpt>
      <trkpt lat="46.01633" lon="6.7987">
        <ele>1658.4000244141</ele>
        <time>2023-09-30T07:24:13.000Z</time>
      </trkpt>
      <trkpt lat="46.01633" lon="6.7987">
        <ele>1658.4000244141</ele>
        <time>2023-09-30T07:24:14.000Z</time>
      </trkpt>
      <trkpt lat="46.01633" lon="6.7987">
        <ele>1658.5999755859</ele>
        <time>2023-09-30T07:24:19.000Z</time>
      </trkpt>
      <trkpt lat="46.01632" lon="6.79863">
        <ele>1658.5999755859</ele>
        <time>2023-09-30T07:24:37.000Z</time>
      </trkpt>
      <trkpt lat="46.01631" lon="6.79859">
        <ele>1658.5999755859</ele>
        <time>2023-09-30T07:24:39.000Z</time>
      </trkpt>
      <trkpt lat="46.0163" lon="6.79849">
        <ele>1659</ele>
        <time>2023-09-30T07:24:44.000Z</time>
      </trkpt>
      <trkpt lat="46.01629" lon="6.79847">
        <ele>1659</ele>
        <time>2023-09-30T07:24:45.000Z</time>
      </trkpt>
      <trkpt lat="46.01627" lon="6.79842">
        <ele>1659.1999511719</ele>
        <time>2023-09-30T07:24:48.000Z</time>
      </trkpt>
      <trkpt lat="46.01627" lon="6.79842">
        <ele>1659</ele>
        <time>2023-09-30T07:24:49.000Z</time>
      </trkpt>
      <trkpt lat="46.01626" lon="6.79835">
        <ele>1659.1999511719</ele>
        <time>2023-09-30T07:24:51.000Z</time>
      </trkpt>
      <trkpt lat="46.01627" lon="6.79831">
        <ele>1659.4000244141</ele>
        <time>2023-09-30T07:24:53.000Z</time>
      </trkpt>
      <trkpt lat="46.01627" lon="6.79828">
        <ele>1659.4000244141</ele>
        <time>2023-09-30T07:24:55.000Z</time>
      </trkpt>
      <trkpt lat="46.01627" lon="6.79825">
        <ele>1659.5999755859</ele>
        <time>2023-09-30T07:24:56.000Z</time>
      </trkpt>
      <trkpt lat="46.01626" lon="6.79823">
        <ele>1659.5999755859</ele>
        <time>2023-09-30T07:24:57.000Z</time>
      </trkpt>
      <trkpt lat="46.01626" lon="6.7982">
        <ele>1659.8000488281</ele>
        <time>2023-09-30T07:24:58.000Z</time>
      </trkpt>
      <trkpt lat="46.01624" lon="6.79813">
        <ele>1660</ele>
        <time>2023-09-30T07:25:01.000Z</time>
      </trkpt>
      <trkpt lat="46.01623" lon="6.79812">
        <ele>1660</ele>
        <time>2023-09-30T07:25:02.000Z</time>
      </trkpt>
      <trkpt lat="46.01622" lon="6.79811">
        <ele>1660.1999511719</ele>
        <time>2023-09-30T07:25:03.000Z</time>
      </trkpt>
      <trkpt lat="46.01622" lon="6.79809">
        <ele>1660.1999511719</ele>
        <time>2023-09-30T07:25:04.000Z</time>
      </trkpt>
      <trkpt lat="46.0162" lon="6.79807">
        <ele>1660.1999511719</ele>
        <time>2023-09-30T07:25:05.000Z</time>
      </trkpt>
      <trkpt lat="46.01618" lon="6.79805">
        <ele>1660.4000244141</ele>
        <time>2023-09-30T07:25:07.000Z</time>
      </trkpt>
      <trkpt lat="46.01616" lon="6.79804">
        <ele>1660.4000244141</ele>
        <time>2023-09-30T07:25:08.000Z</time>
      </trkpt>
      <trkpt lat="46.01615" lon="6.79804">
        <ele>1660.5999755859</ele>
        <time>2023-09-30T07:25:09.000Z</time>
      </trkpt>
      <trkpt lat="46.01615" lon="6.79804">
        <ele>1660.5999755859</ele>
        <time>2023-09-30T07:25:10.000Z</time>
      </trkpt>
      <trkpt lat="46.01608" lon="6.79798">
        <ele>1661</ele>
        <time>2023-09-30T07:25:14.000Z</time>
      </trkpt>
      <trkpt lat="46.01608" lon="6.79796">
        <ele>1661.1999511719</ele>
        <time>2023-09-30T07:25:15.000Z</time>
      </trkpt>
      <trkpt lat="46.01607" lon="6.79794">
        <ele>1661.4000244141</ele>
        <time>2023-09-30T07:25:16.000Z</time>
      </trkpt>
      <trkpt lat="46.01607" lon="6.79792">
        <ele>1661.8000488281</ele>
        <time>2023-09-30T07:25:17.000Z</time>
      </trkpt>
      <trkpt lat="46.01606" lon="6.7979">
        <ele>1662</ele>
        <time>2023-09-30T07:25:18.000Z</time>
      </trkpt>
      <trkpt lat="46.01606" lon="6.79788">
        <ele>1662.1999511719</ele>
        <time>2023-09-30T07:25:19.000Z</time>
      </trkpt>
      <trkpt lat="46.01605" lon="6.79785">
        <ele>1662.4000244141</ele>
        <time>2023-09-30T07:25:20.000Z</time>
      </trkpt>
      <trkpt lat="46.01604" lon="6.79783">
        <ele>1662.4000244141</ele>
        <time>2023-09-30T07:25:21.000Z</time>
      </trkpt>
      <trkpt lat="46.01603" lon="6.79781">
        <ele>1662.4000244141</ele>
        <time>2023-09-30T07:25:22.000Z</time>
      </trkpt>
      <trkpt lat="46.01602" lon="6.79778">
        <ele>1662.4000244141</ele>
        <time>2023-09-30T07:25:23.000Z</time>
      </trkpt>
      <trkpt lat="46.01602" lon="6.79776">
        <ele>1662.4000244141</ele>
        <time>2023-09-30T07:25:24.000Z</time>
      </trkpt>
      <trkpt lat="46.01602" lon="6.79774">
        <ele>1662.4000244141</ele>
        <time>2023-09-30T07:25:25.000Z</time>
      </trkpt>
      <trkpt lat="46.01602" lon="6.79772">
        <ele>1662.4000244141</ele>
        <time>2023-09-30T07:25:26.000Z</time>
      </trkpt>
      <trkpt lat="46.01603" lon="6.7977">
        <ele>1662.4000244141</ele>
        <time>2023-09-30T07:25:27.000Z</time>
      </trkpt>
      <trkpt lat="46.01603" lon="6.79768">
        <ele>1662.4000244141</ele>
        <time>2023-09-30T07:25:28.000Z</time>
      </trkpt>
      <trkpt lat="46.01603" lon="6.79765">
        <ele>1662.1999511719</ele>
        <time>2023-09-30T07:25:29.000Z</time>
      </trkpt>
      <trkpt lat="46.01603" lon="6.79763">
        <ele>1662.1999511719</ele>
        <time>2023-09-30T07:25:30.000Z</time>
      </trkpt>
      <trkpt lat="46.01601" lon="6.79759">
        <ele>1662.1999511719</ele>
        <time>2023-09-30T07:25:32.000Z</time>
      </trkpt>
      <trkpt lat="46.016" lon="6.79757">
        <ele>1662.1999511719</ele>
        <time>2023-09-30T07:25:33.000Z</time>
      </trkpt>
      <trkpt lat="46.01599" lon="6.79755">
        <ele>1662.1999511719</ele>
        <time>2023-09-30T07:25:34.000Z</time>
      </trkpt>
      <trkpt lat="46.01599" lon="6.79753">
        <ele>1662.1999511719</ele>
        <time>2023-09-30T07:25:35.000Z</time>
      </trkpt>
      <trkpt lat="46.01597" lon="6.79752">
        <ele>1662.1999511719</ele>
        <time>2023-09-30T07:25:36.000Z</time>
      </trkpt>
      <trkpt lat="46.01594" lon="6.7975">
        <ele>1662.4000244141</ele>
        <time>2023-09-30T07:25:38.000Z</time>
      </trkpt>
      <trkpt lat="46.01594" lon="6.7975">
        <ele>1662.4000244141</ele>
        <time>2023-09-30T07:25:39.000Z</time>
      </trkpt>
      <trkpt lat="46.01592" lon="6.79748">
        <ele>1662.4000244141</ele>
        <time>2023-09-30T07:25:40.000Z</time>
      </trkpt>
      <trkpt lat="46.01591" lon="6.79746">
        <ele>1662.4000244141</ele>
        <time>2023-09-30T07:25:41.000Z</time>
      </trkpt>
      <trkpt lat="46.01591" lon="6.79744">
        <ele>1662.4000244141</ele>
        <time>2023-09-30T07:25:42.000Z</time>
      </trkpt>
      <trkpt lat="46.01591" lon="6.79742">
        <ele>1662.4000244141</ele>
        <time>2023-09-30T07:25:43.000Z</time>
      </trkpt>
      <trkpt lat="46.01593" lon="6.79737">
        <ele>1662.5999755859</ele>
        <time>2023-09-30T07:25:45.000Z</time>
      </trkpt>
      <trkpt lat="46.01594" lon="6.79731">
        <ele>1662.5999755859</ele>
        <time>2023-09-30T07:25:48.000Z</time>
      </trkpt>
      <trkpt lat="46.01594" lon="6.7973">
        <ele>1662.5999755859</ele>
        <time>2023-09-30T07:25:49.000Z</time>
      </trkpt>
      <trkpt lat="46.01594" lon="6.79728">
        <ele>1662.8000488281</ele>
        <time>2023-09-30T07:25:50.000Z</time>
      </trkpt>
      <trkpt lat="46.01594" lon="6.79725">
        <ele>1662.8000488281</ele>
        <time>2023-09-30T07:25:51.000Z</time>
      </trkpt>
      <trkpt lat="46.01595" lon="6.79723">
        <ele>1663</ele>
        <time>2023-09-30T07:25:52.000Z</time>
      </trkpt>
      <trkpt lat="46.01596" lon="6.79719">
        <ele>1663.1999511719</ele>
        <time>2023-09-30T07:25:54.000Z</time>
      </trkpt>
      <trkpt lat="46.01597" lon="6.79717">
        <ele>1663.1999511719</ele>
        <time>2023-09-30T07:25:55.000Z</time>
      </trkpt>
      <trkpt lat="46.01598" lon="6.79715">
        <ele>1663.1999511719</ele>
        <time>2023-09-30T07:25:56.000Z</time>
      </trkpt>
      <trkpt lat="46.01598" lon="6.79715">
        <ele>1663.4000244141</ele>
        <time>2023-09-30T07:25:57.000Z</time>
      </trkpt>
      <trkpt lat="46.016" lon="6.79713">
        <ele>1663.4000244141</ele>
        <time>2023-09-30T07:25:58.000Z</time>
      </trkpt>
      <trkpt lat="46.01601" lon="6.79711">
        <ele>1663.4000244141</ele>
        <time>2023-09-30T07:25:59.000Z</time>
      </trkpt>
      <trkpt lat="46.01601" lon="6.79709">
        <ele>1663.4000244141</ele>
        <time>2023-09-30T07:26:00.000Z</time>
      </trkpt>
      <trkpt lat="46.01601" lon="6.79707">
        <ele>1663.4000244141</ele>
        <time>2023-09-30T07:26:01.000Z</time>
      </trkpt>
      <trkpt lat="46.016" lon="6.79705">
        <ele>1663.4000244141</ele>
        <time>2023-09-30T07:26:02.000Z</time>
      </trkpt>
      <trkpt lat="46.016" lon="6.79704">
        <ele>1663.4000244141</ele>
        <time>2023-09-30T07:26:03.000Z</time>
      </trkpt>
      <trkpt lat="46.016" lon="6.79702">
        <ele>1663.5999755859</ele>
        <time>2023-09-30T07:26:05.000Z</time>
      </trkpt>
      <trkpt lat="46.01601" lon="6.79695">
        <ele>1664</ele>
        <time>2023-09-30T07:26:07.000Z</time>
      </trkpt>
      <trkpt lat="46.016" lon="6.7969">
        <ele>1664.4000244141</ele>
        <time>2023-09-30T07:26:10.000Z</time>
      </trkpt>
      <trkpt lat="46.016" lon="6.79688">
        <ele>1664.4000244141</ele>
        <time>2023-09-30T07:26:11.000Z</time>
      </trkpt>
      <trkpt lat="46.016" lon="6.79686">
        <ele>1664.5999755859</ele>
        <time>2023-09-30T07:26:12.000Z</time>
      </trkpt>
      <trkpt lat="46.01601" lon="6.79684">
        <ele>1664.5999755859</ele>
        <time>2023-09-30T07:26:13.000Z</time>
      </trkpt>
      <trkpt lat="46.01601" lon="6.79682">
        <ele>1664.5999755859</ele>
        <time>2023-09-30T07:26:14.000Z</time>
      </trkpt>
      <trkpt lat="46.016" lon="6.79681">
        <ele>1664.5999755859</ele>
        <time>2023-09-30T07:26:16.000Z</time>
      </trkpt>
      <trkpt lat="46.01599" lon="6.7968">
        <ele>1665.1999511719</ele>
        <time>2023-09-30T07:26:25.000Z</time>
      </trkpt>
      <trkpt lat="46.01599" lon="6.79679">
        <ele>1665.1999511719</ele>
        <time>2023-09-30T07:26:32.000Z</time>
      </trkpt>
      <trkpt lat="46.01599" lon="6.79669">
        <ele>1665.1999511719</ele>
        <time>2023-09-30T07:26:41.000Z</time>
      </trkpt>
      <trkpt lat="46.01598" lon="6.79662">
        <ele>1665.5999755859</ele>
        <time>2023-09-30T07:26:44.000Z</time>
      </trkpt>
      <trkpt lat="46.01597" lon="6.7965">
        <ele>1666</ele>
        <time>2023-09-30T07:26:50.000Z</time>
      </trkpt>
      <trkpt lat="46.01596" lon="6.79646">
        <ele>1666.1999511719</ele>
        <time>2023-09-30T07:26:52.000Z</time>
      </trkpt>
      <trkpt lat="46.01595" lon="6.79645">
        <ele>1666.4000244141</ele>
        <time>2023-09-30T07:26:53.000Z</time>
      </trkpt>
      <trkpt lat="46.01595" lon="6.79643">
        <ele>1666.4000244141</ele>
        <time>2023-09-30T07:26:54.000Z</time>
      </trkpt>
      <trkpt lat="46.01595" lon="6.79641">
        <ele>1666.5999755859</ele>
        <time>2023-09-30T07:26:55.000Z</time>
      </trkpt>
      <trkpt lat="46.01594" lon="6.7964">
        <ele>1666.5999755859</ele>
        <time>2023-09-30T07:26:56.000Z</time>
      </trkpt>
      <trkpt lat="46.01594" lon="6.79638">
        <ele>1666.5999755859</ele>
        <time>2023-09-30T07:26:57.000Z</time>
      </trkpt>
      <trkpt lat="46.01594" lon="6.79636">
        <ele>1666.8000488281</ele>
        <time>2023-09-30T07:26:58.000Z</time>
      </trkpt>
      <trkpt lat="46.01592" lon="6.79632">
        <ele>1667.5999755859</ele>
        <time>2023-09-30T07:27:01.000Z</time>
      </trkpt>
      <trkpt lat="46.01592" lon="6.7963">
        <ele>1667.5999755859</ele>
        <time>2023-09-30T07:27:02.000Z</time>
      </trkpt>
      <trkpt lat="46.01592" lon="6.79627">
        <ele>1667.8000488281</ele>
        <time>2023-09-30T07:27:04.000Z</time>
      </trkpt>
      <trkpt lat="46.01589" lon="6.79613">
        <ele>1668</ele>
        <time>2023-09-30T07:27:11.000Z</time>
      </trkpt>
      <trkpt lat="46.01584" lon="6.79595">
        <ele>1668.5999755859</ele>
        <time>2023-09-30T07:27:20.000Z</time>
      </trkpt>
      <trkpt lat="46.01584" lon="6.79593">
        <ele>1668.8000488281</ele>
        <time>2023-09-30T07:27:21.000Z</time>
      </trkpt>
      <trkpt lat="46.01584" lon="6.79592">
        <ele>1669.1999511719</ele>
        <time>2023-09-30T07:27:22.000Z</time>
      </trkpt>
      <trkpt lat="46.01584" lon="6.7959">
        <ele>1669.1999511719</ele>
        <time>2023-09-30T07:27:23.000Z</time>
      </trkpt>
      <trkpt lat="46.01583" lon="6.79589">
        <ele>1669.4000244141</ele>
        <time>2023-09-30T07:27:24.000Z</time>
      </trkpt>
      <trkpt lat="46.01582" lon="6.79588">
        <ele>1669.4000244141</ele>
        <time>2023-09-30T07:27:25.000Z</time>
      </trkpt>
      <trkpt lat="46.01581" lon="6.79587">
        <ele>1669.5999755859</ele>
        <time>2023-09-30T07:27:26.000Z</time>
      </trkpt>
      <trkpt lat="46.0158" lon="6.79586">
        <ele>1669.5999755859</ele>
        <time>2023-09-30T07:27:27.000Z</time>
      </trkpt>
      <trkpt lat="46.01579" lon="6.79586">
        <ele>1669.5999755859</ele>
        <time>2023-09-30T07:27:28.000Z</time>
      </trkpt>
      <trkpt lat="46.01577" lon="6.79585">
        <ele>1670</ele>
        <time>2023-09-30T07:27:29.000Z</time>
      </trkpt>
      <trkpt lat="46.01575" lon="6.79585">
        <ele>1670.1999511719</ele>
        <time>2023-09-30T07:27:31.000Z</time>
      </trkpt>
      <trkpt lat="46.01574" lon="6.79584">
        <ele>1670.4000244141</ele>
        <time>2023-09-30T07:27:32.000Z</time>
      </trkpt>
      <trkpt lat="46.01574" lon="6.79584">
        <ele>1670.5999755859</ele>
        <time>2023-09-30T07:27:33.000Z</time>
      </trkpt>
      <trkpt lat="46.01574" lon="6.79584">
        <ele>1670.5999755859</ele>
        <time>2023-09-30T07:27:34.000Z</time>
      </trkpt>
      <trkpt lat="46.01573" lon="6.79584">
        <ele>1670.8000488281</ele>
        <time>2023-09-30T07:27:35.000Z</time>
      </trkpt>
      <trkpt lat="46.01571" lon="6.79583">
        <ele>1671</ele>
        <time>2023-09-30T07:27:36.000Z</time>
      </trkpt>
      <trkpt lat="46.01569" lon="6.79583">
        <ele>1671</ele>
        <time>2023-09-30T07:27:37.000Z</time>
      </trkpt>
      <trkpt lat="46.01568" lon="6.79582">
        <ele>1671.1999511719</ele>
        <time>2023-09-30T07:27:38.000Z</time>
      </trkpt>
      <trkpt lat="46.01566" lon="6.79582">
        <ele>1671.1999511719</ele>
        <time>2023-09-30T07:27:39.000Z</time>
      </trkpt>
      <trkpt lat="46.01565" lon="6.79582">
        <ele>1671.4000244141</ele>
        <time>2023-09-30T07:27:40.000Z</time>
      </trkpt>
      <trkpt lat="46.01564" lon="6.79582">
        <ele>1671.5999755859</ele>
        <time>2023-09-30T07:27:41.000Z</time>
      </trkpt>
      <trkpt lat="46.01563" lon="6.79582">
        <ele>1671.8000488281</ele>
        <time>2023-09-30T07:27:42.000Z</time>
      </trkpt>
      <trkpt lat="46.01562" lon="6.79582">
        <ele>1671.8000488281</ele>
        <time>2023-09-30T07:27:43.000Z</time>
      </trkpt>
      <trkpt lat="46.01561" lon="6.79581">
        <ele>1672</ele>
        <time>2023-09-30T07:27:44.000Z</time>
      </trkpt>
      <trkpt lat="46.0156" lon="6.79581">
        <ele>1672.1999511719</ele>
        <time>2023-09-30T07:27:45.000Z</time>
      </trkpt>
      <trkpt lat="46.01559" lon="6.7958">
        <ele>1672.1999511719</ele>
        <time>2023-09-30T07:27:46.000Z</time>
      </trkpt>
      <trkpt lat="46.01558" lon="6.79579">
        <ele>1672.4000244141</ele>
        <time>2023-09-30T07:27:47.000Z</time>
      </trkpt>
      <trkpt lat="46.01557" lon="6.79578">
        <ele>1672.4000244141</ele>
        <time>2023-09-30T07:27:48.000Z</time>
      </trkpt>
      <trkpt lat="46.01556" lon="6.79577">
        <ele>1672.5999755859</ele>
        <time>2023-09-30T07:27:49.000Z</time>
      </trkpt>
      <trkpt lat="46.01555" lon="6.79577">
        <ele>1672.8000488281</ele>
        <time>2023-09-30T07:27:50.000Z</time>
      </trkpt>
      <trkpt lat="46.01555" lon="6.79577">
        <ele>1672.8000488281</ele>
        <time>2023-09-30T07:27:51.000Z</time>
      </trkpt>
      <trkpt lat="46.01554" lon="6.79576">
        <ele>1673</ele>
        <time>2023-09-30T07:27:52.000Z</time>
      </trkpt>
      <trkpt lat="46.01553" lon="6.79575">
        <ele>1673.1999511719</ele>
        <time>2023-09-30T07:27:53.000Z</time>
      </trkpt>
      <trkpt lat="46.01552" lon="6.79574">
        <ele>1673.4000244141</ele>
        <time>2023-09-30T07:27:54.000Z</time>
      </trkpt>
      <trkpt lat="46.01551" lon="6.79574">
        <ele>1673.4000244141</ele>
        <time>2023-09-30T07:27:55.000Z</time>
      </trkpt>
      <trkpt lat="46.0155" lon="6.79573">
        <ele>1673.5999755859</ele>
        <time>2023-09-30T07:27:56.000Z</time>
      </trkpt>
      <trkpt lat="46.01549" lon="6.79572">
        <ele>1673.8000488281</ele>
        <time>2023-09-30T07:27:57.000Z</time>
      </trkpt>
      <trkpt lat="46.01548" lon="6.79571">
        <ele>1673.8000488281</ele>
        <time>2023-09-30T07:27:58.000Z</time>
      </trkpt>
      <trkpt lat="46.01547" lon="6.79571">
        <ele>1673.8000488281</ele>
        <time>2023-09-30T07:27:59.000Z</time>
      </trkpt>
      <trkpt lat="46.01547" lon="6.7957">
        <ele>1674</ele>
        <time>2023-09-30T07:28:00.000Z</time>
      </trkpt>
      <trkpt lat="46.01545" lon="6.7957">
        <ele>1674</ele>
        <time>2023-09-30T07:28:01.000Z</time>
      </trkpt>
      <trkpt lat="46.01544" lon="6.79569">
        <ele>1674.1999511719</ele>
        <time>2023-09-30T07:28:02.000Z</time>
      </trkpt>
      <trkpt lat="46.01542" lon="6.79569">
        <ele>1674.1999511719</ele>
        <time>2023-09-30T07:28:03.000Z</time>
      </trkpt>
      <trkpt lat="46.01541" lon="6.79568">
        <ele>1674.4000244141</ele>
        <time>2023-09-30T07:28:04.000Z</time>
      </trkpt>
      <trkpt lat="46.0154" lon="6.79568">
        <ele>1674.4000244141</ele>
        <time>2023-09-30T07:28:05.000Z</time>
      </trkpt>
      <trkpt lat="46.01539" lon="6.79567">
        <ele>1674.5999755859</ele>
        <time>2023-09-30T07:28:06.000Z</time>
      </trkpt>
      <trkpt lat="46.01538" lon="6.79567">
        <ele>1674.5999755859</ele>
        <time>2023-09-30T07:28:07.000Z</time>
      </trkpt>
      <trkpt lat="46.01536" lon="6.79567">
        <ele>1674.5999755859</ele>
        <time>2023-09-30T07:28:08.000Z</time>
      </trkpt>
      <trkpt lat="46.01535" lon="6.79567">
        <ele>1674.8000488281</ele>
        <time>2023-09-30T07:28:09.000Z</time>
      </trkpt>
      <trkpt lat="46.01534" lon="6.79567">
        <ele>1674.8000488281</ele>
        <time>2023-09-30T07:28:10.000Z</time>
      </trkpt>
      <trkpt lat="46.01532" lon="6.79566">
        <ele>1674.8000488281</ele>
        <time>2023-09-30T07:28:11.000Z</time>
      </trkpt>
      <trkpt lat="46.01531" lon="6.79565">
        <ele>1675</ele>
        <time>2023-09-30T07:28:12.000Z</time>
      </trkpt>
      <trkpt lat="46.01529" lon="6.79564">
        <ele>1675</ele>
        <time>2023-09-30T07:28:13.000Z</time>
      </trkpt>
      <trkpt lat="46.01527" lon="6.79564">
        <ele>1675.1999511719</ele>
        <time>2023-09-30T07:28:14.000Z</time>
      </trkpt>
      <trkpt lat="46.01525" lon="6.79564">
        <ele>1675.4000244141</ele>
        <time>2023-09-30T07:28:15.000Z</time>
      </trkpt>
      <trkpt lat="46.01523" lon="6.79563">
        <ele>1675.5999755859</ele>
        <time>2023-09-30T07:28:16.000Z</time>
      </trkpt>
      <trkpt lat="46.01521" lon="6.79563">
        <ele>1675.8000488281</ele>
        <time>2023-09-30T07:28:17.000Z</time>
      </trkpt>
      <trkpt lat="46.0152" lon="6.79563">
        <ele>1676</ele>
        <time>2023-09-30T07:28:18.000Z</time>
      </trkpt>
      <trkpt lat="46.01518" lon="6.79564">
        <ele>1676</ele>
        <time>2023-09-30T07:28:19.000Z</time>
      </trkpt>
      <trkpt lat="46.01516" lon="6.79564">
        <ele>1676.1999511719</ele>
        <time>2023-09-30T07:28:20.000Z</time>
      </trkpt>
      <trkpt lat="46.01514" lon="6.79564">
        <ele>1676.4000244141</ele>
        <time>2023-09-30T07:28:21.000Z</time>
      </trkpt>
      <trkpt lat="46.01512" lon="6.79563">
        <ele>1676.5999755859</ele>
        <time>2023-09-30T07:28:22.000Z</time>
      </trkpt>
      <trkpt lat="46.0151" lon="6.79563">
        <ele>1676.8000488281</ele>
        <time>2023-09-30T07:28:23.000Z</time>
      </trkpt>
      <trkpt lat="46.01508" lon="6.79562">
        <ele>1676.8000488281</ele>
        <time>2023-09-30T07:28:24.000Z</time>
      </trkpt>
      <trkpt lat="46.01506" lon="6.79562">
        <ele>1677</ele>
        <time>2023-09-30T07:28:25.000Z</time>
      </trkpt>
      <trkpt lat="46.01505" lon="6.79563">
        <ele>1677.1999511719</ele>
        <time>2023-09-30T07:28:26.000Z</time>
      </trkpt>
      <trkpt lat="46.01503" lon="6.79562">
        <ele>1677.1999511719</ele>
        <time>2023-09-30T07:28:27.000Z</time>
      </trkpt>
      <trkpt lat="46.01502" lon="6.79562">
        <ele>1677.4000244141</ele>
        <time>2023-09-30T07:28:28.000Z</time>
      </trkpt>
      <trkpt lat="46.015" lon="6.79564">
        <ele>1677.5999755859</ele>
        <time>2023-09-30T07:28:29.000Z</time>
      </trkpt>
      <trkpt lat="46.015" lon="6.79564">
        <ele>1677.8000488281</ele>
        <time>2023-09-30T07:28:30.000Z</time>
      </trkpt>
      <trkpt lat="46.01497" lon="6.79563">
        <ele>1678</ele>
        <time>2023-09-30T07:28:31.000Z</time>
      </trkpt>
      <trkpt lat="46.01496" lon="6.79562">
        <ele>1678.1999511719</ele>
        <time>2023-09-30T07:28:32.000Z</time>
      </trkpt>
      <trkpt lat="46.01495" lon="6.79562">
        <ele>1678.1999511719</ele>
        <time>2023-09-30T07:28:33.000Z</time>
      </trkpt>
      <trkpt lat="46.01494" lon="6.79562">
        <ele>1678.5999755859</ele>
        <time>2023-09-30T07:28:34.000Z</time>
      </trkpt>
      <trkpt lat="46.01493" lon="6.79562">
        <ele>1678.5999755859</ele>
        <time>2023-09-30T07:28:35.000Z</time>
      </trkpt>
      <trkpt lat="46.01491" lon="6.79563">
        <ele>1678.5999755859</ele>
        <time>2023-09-30T07:28:36.000Z</time>
      </trkpt>
      <trkpt lat="46.0149" lon="6.79564">
        <ele>1678.8000488281</ele>
        <time>2023-09-30T07:28:37.000Z</time>
      </trkpt>
      <trkpt lat="46.01489" lon="6.79565">
        <ele>1678.8000488281</ele>
        <time>2023-09-30T07:28:38.000Z</time>
      </trkpt>
      <trkpt lat="46.01487" lon="6.79565">
        <ele>1679</ele>
        <time>2023-09-30T07:28:39.000Z</time>
      </trkpt>
      <trkpt lat="46.01486" lon="6.79566">
        <ele>1679</ele>
        <time>2023-09-30T07:28:40.000Z</time>
      </trkpt>
      <trkpt lat="46.01485" lon="6.79566">
        <ele>1679.1999511719</ele>
        <time>2023-09-30T07:28:41.000Z</time>
      </trkpt>
      <trkpt lat="46.01484" lon="6.79567">
        <ele>1679.1999511719</ele>
        <time>2023-09-30T07:28:42.000Z</time>
      </trkpt>
      <trkpt lat="46.01483" lon="6.79567">
        <ele>1679.4000244141</ele>
        <time>2023-09-30T07:28:43.000Z</time>
      </trkpt>
      <trkpt lat="46.01481" lon="6.79568">
        <ele>1679.4000244141</ele>
        <time>2023-09-30T07:28:44.000Z</time>
      </trkpt>
      <trkpt lat="46.0148" lon="6.79568">
        <ele>1679.4000244141</ele>
        <time>2023-09-30T07:28:45.000Z</time>
      </trkpt>
      <trkpt lat="46.01479" lon="6.79569">
        <ele>1679.5999755859</ele>
        <time>2023-09-30T07:28:46.000Z</time>
      </trkpt>
      <trkpt lat="46.01477" lon="6.79569">
        <ele>1679.5999755859</ele>
        <time>2023-09-30T07:28:47.000Z</time>
      </trkpt>
      <trkpt lat="46.01476" lon="6.7957">
        <ele>1679.8000488281</ele>
        <time>2023-09-30T07:28:48.000Z</time>
      </trkpt>
      <trkpt lat="46.01475" lon="6.79571">
        <ele>1679.8000488281</ele>
        <time>2023-09-30T07:28:49.000Z</time>
      </trkpt>
      <trkpt lat="46.01474" lon="6.79571">
        <ele>1680</ele>
        <time>2023-09-30T07:28:50.000Z</time>
      </trkpt>
      <trkpt lat="46.01473" lon="6.79571">
        <ele>1680</ele>
        <time>2023-09-30T07:28:51.000Z</time>
      </trkpt>
      <trkpt lat="46.01471" lon="6.79571">
        <ele>1680</ele>
        <time>2023-09-30T07:28:52.000Z</time>
      </trkpt>
      <trkpt lat="46.01469" lon="6.79571">
        <ele>1680.1999511719</ele>
        <time>2023-09-30T07:28:53.000Z</time>
      </trkpt>
      <trkpt lat="46.01468" lon="6.79572">
        <ele>1680.1999511719</ele>
        <time>2023-09-30T07:28:54.000Z</time>
      </trkpt>
      <trkpt lat="46.01467" lon="6.79573">
        <ele>1680.4000244141</ele>
        <time>2023-09-30T07:28:55.000Z</time>
      </trkpt>
      <trkpt lat="46.01466" lon="6.79574">
        <ele>1680.4000244141</ele>
        <time>2023-09-30T07:28:56.000Z</time>
      </trkpt>
      <trkpt lat="46.01466" lon="6.79574">
        <ele>1680.5999755859</ele>
        <time>2023-09-30T07:28:57.000Z</time>
      </trkpt>
      <trkpt lat="46.01463" lon="6.79575">
        <ele>1680.8000488281</ele>
        <time>2023-09-30T07:28:58.000Z</time>
      </trkpt>
      <trkpt lat="46.01462" lon="6.79575">
        <ele>1680.8000488281</ele>
        <time>2023-09-30T07:28:59.000Z</time>
      </trkpt>
      <trkpt lat="46.01462" lon="6.79575">
        <ele>1681.1999511719</ele>
        <time>2023-09-30T07:29:00.000Z</time>
      </trkpt>
      <trkpt lat="46.01459" lon="6.79575">
        <ele>1681.1999511719</ele>
        <time>2023-09-30T07:29:01.000Z</time>
      </trkpt>
      <trkpt lat="46.01458" lon="6.79576">
        <ele>1681.4000244141</ele>
        <time>2023-09-30T07:29:02.000Z</time>
      </trkpt>
      <trkpt lat="46.01457" lon="6.79576">
        <ele>1681.5999755859</ele>
        <time>2023-09-30T07:29:03.000Z</time>
      </trkpt>
      <trkpt lat="46.01456" lon="6.79577">
        <ele>1681.5999755859</ele>
        <time>2023-09-30T07:29:04.000Z</time>
      </trkpt>
      <trkpt lat="46.01455" lon="6.79577">
        <ele>1681.8000488281</ele>
        <time>2023-09-30T07:29:05.000Z</time>
      </trkpt>
      <trkpt lat="46.01453" lon="6.79578">
        <ele>1682</ele>
        <time>2023-09-30T07:29:06.000Z</time>
      </trkpt>
      <trkpt lat="46.01452" lon="6.79578">
        <ele>1682.1999511719</ele>
        <time>2023-09-30T07:29:07.000Z</time>
      </trkpt>
      <trkpt lat="46.01451" lon="6.79578">
        <ele>1682.1999511719</ele>
        <time>2023-09-30T07:29:08.000Z</time>
      </trkpt>
      <trkpt lat="46.0145" lon="6.79578">
        <ele>1682.4000244141</ele>
        <time>2023-09-30T07:29:09.000Z</time>
      </trkpt>
      <trkpt lat="46.01449" lon="6.79578">
        <ele>1682.4000244141</ele>
        <time>2023-09-30T07:29:10.000Z</time>
      </trkpt>
      <trkpt lat="46.01449" lon="6.79579">
        <ele>1682.8000488281</ele>
        <time>2023-09-30T07:29:11.000Z</time>
      </trkpt>
      <trkpt lat="46.01448" lon="6.79581">
        <ele>1683</ele>
        <time>2023-09-30T07:29:12.000Z</time>
      </trkpt>
      <trkpt lat="46.01448" lon="6.79582">
        <ele>1683.1999511719</ele>
        <time>2023-09-30T07:29:13.000Z</time>
      </trkpt>
      <trkpt lat="46.01448" lon="6.79583">
        <ele>1683</ele>
        <time>2023-09-30T07:29:14.000Z</time>
      </trkpt>
      <trkpt lat="46.0145" lon="6.79583">
        <ele>1683.1999511719</ele>
        <time>2023-09-30T07:29:15.000Z</time>
      </trkpt>
      <trkpt lat="46.01451" lon="6.79583">
        <ele>1683.1999511719</ele>
        <time>2023-09-30T07:29:16.000Z</time>
      </trkpt>
      <trkpt lat="46.01452" lon="6.79583">
        <ele>1683.5999755859</ele>
        <time>2023-09-30T07:29:17.000Z</time>
      </trkpt>
      <trkpt lat="46.01452" lon="6.79584">
        <ele>1683.5999755859</ele>
        <time>2023-09-30T07:29:18.000Z</time>
      </trkpt>
      <trkpt lat="46.01452" lon="6.79584">
        <ele>1683.5999755859</ele>
        <time>2023-09-30T07:29:19.000Z</time>
      </trkpt>
      <trkpt lat="46.01452" lon="6.79584">
        <ele>1683.5999755859</ele>
        <time>2023-09-30T07:29:20.000Z</time>
      </trkpt>
      <trkpt lat="46.01452" lon="6.79584">
        <ele>1684.8000488281</ele>
        <time>2023-09-30T07:29:23.000Z</time>
      </trkpt>
      <trkpt lat="46.01452" lon="6.79584">
        <ele>1685.5999755859</ele>
        <time>2023-09-30T07:29:41.000Z</time>
      </trkpt>
      <trkpt lat="46.01452" lon="6.79584">
        <ele>1683.5999755859</ele>
        <time>2023-09-30T07:29:55.000Z</time>
      </trkpt>
      <trkpt lat="46.01452" lon="6.79584">
        <ele>1684.8000488281</ele>
        <time>2023-09-30T07:30:01.000Z</time>
      </trkpt>
      <trkpt lat="46.01452" lon="6.79584">
        <ele>1686.1999511719</ele>
        <time>2023-09-30T07:30:03.000Z</time>
      </trkpt>
      <trkpt lat="46.01452" lon="6.79584">
        <ele>1687.4000244141</ele>
        <time>2023-09-30T07:30:10.000Z</time>
      </trkpt>
      <trkpt lat="46.01452" lon="6.79584">
        <ele>1686.1999511719</ele>
        <time>2023-09-30T07:30:20.000Z</time>
      </trkpt>
      <trkpt lat="46.01454" lon="6.79585">
        <ele>1685.4000244141</ele>
        <time>2023-09-30T07:30:30.000Z</time>
      </trkpt>
      <trkpt lat="46.01454" lon="6.79585">
        <ele>1685.4000244141</ele>
        <time>2023-09-30T07:30:31.000Z</time>
      </trkpt>
      <trkpt lat="46.01455" lon="6.79586">
        <ele>1685.5999755859</ele>
        <time>2023-09-30T07:30:32.000Z</time>
      </trkpt>
      <trkpt lat="46.01456" lon="6.79587">
        <ele>1685.5999755859</ele>
        <time>2023-09-30T07:30:33.000Z</time>
      </trkpt>
      <trkpt lat="46.01457" lon="6.79589">
        <ele>1686</ele>
        <time>2023-09-30T07:30:34.000Z</time>
      </trkpt>
      <trkpt lat="46.01458" lon="6.7959">
        <ele>1686.1999511719</ele>
        <time>2023-09-30T07:30:36.000Z</time>
      </trkpt>
      <trkpt lat="46.0146" lon="6.79592">
        <ele>1686.8000488281</ele>
        <time>2023-09-30T07:30:38.000Z</time>
      </trkpt>
      <trkpt lat="46.01463" lon="6.79593">
        <ele>1687</ele>
        <time>2023-09-30T07:30:40.000Z</time>
      </trkpt>
      <trkpt lat="46.01464" lon="6.79594">
        <ele>1687.4000244141</ele>
        <time>2023-09-30T07:30:41.000Z</time>
      </trkpt>
      <trkpt lat="46.01467" lon="6.79595">
        <ele>1688.1999511719</ele>
        <time>2023-09-30T07:30:45.000Z</time>
      </trkpt>
      <trkpt lat="46.01468" lon="6.79596">
        <ele>1688.5999755859</ele>
        <time>2023-09-30T07:30:46.000Z</time>
      </trkpt>
      <trkpt lat="46.01469" lon="6.79596">
        <ele>1688.5999755859</ele>
        <time>2023-09-30T07:30:47.000Z</time>
      </trkpt>
      <trkpt lat="46.01469" lon="6.79596">
        <ele>1689.5999755859</ele>
        <time>2023-09-30T07:30:52.000Z</time>
      </trkpt>
      <trkpt lat="46.01469" lon="6.79596">
        <ele>1690</ele>
        <time>2023-09-30T07:31:00.000Z</time>
      </trkpt>
      <trkpt lat="46.0147" lon="6.79597">
        <ele>1690</ele>
        <time>2023-09-30T07:32:53.000Z</time>
      </trkpt>
      <trkpt lat="46.01471" lon="6.79599">
        <ele>1690</ele>
        <time>2023-09-30T07:32:54.000Z</time>
      </trkpt>
      <trkpt lat="46.01472" lon="6.796">
        <ele>1690</ele>
        <time>2023-09-30T07:32:55.000Z</time>
      </trkpt>
      <trkpt lat="46.01474" lon="6.79601">
        <ele>1690.1999511719</ele>
        <time>2023-09-30T07:32:57.000Z</time>
      </trkpt>
      <trkpt lat="46.01476" lon="6.79601">
        <ele>1690.1999511719</ele>
        <time>2023-09-30T07:32:58.000Z</time>
      </trkpt>
      <trkpt lat="46.01477" lon="6.79601">
        <ele>1690.4000244141</ele>
        <time>2023-09-30T07:32:59.000Z</time>
      </trkpt>
      <trkpt lat="46.01478" lon="6.79601">
        <ele>1690.5999755859</ele>
        <time>2023-09-30T07:33:00.000Z</time>
      </trkpt>
      <trkpt lat="46.01482" lon="6.79603">
        <ele>1691</ele>
        <time>2023-09-30T07:33:02.000Z</time>
      </trkpt>
      <trkpt lat="46.01485" lon="6.79606">
        <ele>1691.4000244141</ele>
        <time>2023-09-30T07:33:05.000Z</time>
      </trkpt>
      <trkpt lat="46.01487" lon="6.79607">
        <ele>1692</ele>
        <time>2023-09-30T07:33:07.000Z</time>
      </trkpt>
      <trkpt lat="46.01488" lon="6.79608">
        <ele>1692</ele>
        <time>2023-09-30T07:33:08.000Z</time>
      </trkpt>
      <trkpt lat="46.01489" lon="6.7961">
        <ele>1692.1999511719</ele>
        <time>2023-09-30T07:33:09.000Z</time>
      </trkpt>
      <trkpt lat="46.01491" lon="6.79613">
        <ele>1692.8000488281</ele>
        <time>2023-09-30T07:33:12.000Z</time>
      </trkpt>
      <trkpt lat="46.01491" lon="6.79615">
        <ele>1693</ele>
        <time>2023-09-30T07:33:13.000Z</time>
      </trkpt>
      <trkpt lat="46.01491" lon="6.79616">
        <ele>1693.1999511719</ele>
        <time>2023-09-30T07:33:14.000Z</time>
      </trkpt>
      <trkpt lat="46.01492" lon="6.79617">
        <ele>1693.1999511719</ele>
        <time>2023-09-30T07:33:15.000Z</time>
      </trkpt>
      <trkpt lat="46.01493" lon="6.79619">
        <ele>1693.4000244141</ele>
        <time>2023-09-30T07:33:16.000Z</time>
      </trkpt>
      <trkpt lat="46.01493" lon="6.7962">
        <ele>1693.5999755859</ele>
        <time>2023-09-30T07:33:17.000Z</time>
      </trkpt>
      <trkpt lat="46.01493" lon="6.79621">
        <ele>1693.8000488281</ele>
        <time>2023-09-30T07:33:18.000Z</time>
      </trkpt>
      <trkpt lat="46.01493" lon="6.79623">
        <ele>1694</ele>
        <time>2023-09-30T07:33:19.000Z</time>
      </trkpt>
      <trkpt lat="46.01494" lon="6.79624">
        <ele>1694.1999511719</ele>
        <time>2023-09-30T07:33:20.000Z</time>
      </trkpt>
      <trkpt lat="46.01494" lon="6.79626">
        <ele>1694.5999755859</ele>
        <time>2023-09-30T07:33:21.000Z</time>
      </trkpt>
      <trkpt lat="46.01494" lon="6.79627">
        <ele>1694.8000488281</ele>
        <time>2023-09-30T07:33:22.000Z</time>
      </trkpt>
      <trkpt lat="46.01494" lon="6.79629">
        <ele>1695.1999511719</ele>
        <time>2023-09-30T07:33:23.000Z</time>
      </trkpt>
      <trkpt lat="46.01495" lon="6.7963">
        <ele>1695.4000244141</ele>
        <time>2023-09-30T07:33:24.000Z</time>
      </trkpt>
      <trkpt lat="46.01495" lon="6.79631">
        <ele>1695.5999755859</ele>
        <time>2023-09-30T07:33:25.000Z</time>
      </trkpt>
      <trkpt lat="46.01495" lon="6.79631">
        <ele>1695.5999755859</ele>
        <time>2023-09-30T07:33:26.000Z</time>
      </trkpt>
      <trkpt lat="46.01496" lon="6.79634">
        <ele>1696</ele>
        <time>2023-09-30T07:33:27.000Z</time>
      </trkpt>
      <trkpt lat="46.01497" lon="6.79636">
        <ele>1696.1999511719</ele>
        <time>2023-09-30T07:33:28.000Z</time>
      </trkpt>
      <trkpt lat="46.01498" lon="6.79637">
        <ele>1696.1999511719</ele>
        <time>2023-09-30T07:33:29.000Z</time>
      </trkpt>
      <trkpt lat="46.01499" lon="6.79639">
        <ele>1696.4000244141</ele>
        <time>2023-09-30T07:33:30.000Z</time>
      </trkpt>
      <trkpt lat="46.01499" lon="6.7964">
        <ele>1696.5999755859</ele>
        <time>2023-09-30T07:33:31.000Z</time>
      </trkpt>
      <trkpt lat="46.015" lon="6.79641">
        <ele>1696.8000488281</ele>
        <time>2023-09-30T07:33:32.000Z</time>
      </trkpt>
      <trkpt lat="46.01501" lon="6.79642">
        <ele>1697</ele>
        <time>2023-09-30T07:33:33.000Z</time>
      </trkpt>
      <trkpt lat="46.01502" lon="6.79644">
        <ele>1697.1999511719</ele>
        <time>2023-09-30T07:33:34.000Z</time>
      </trkpt>
      <trkpt lat="46.01503" lon="6.79646">
        <ele>1697.4000244141</ele>
        <time>2023-09-30T07:33:35.000Z</time>
      </trkpt>
      <trkpt lat="46.01503" lon="6.79648">
        <ele>1697.4000244141</ele>
        <time>2023-09-30T07:33:36.000Z</time>
      </trkpt>
      <trkpt lat="46.01504" lon="6.79649">
        <ele>1697.5999755859</ele>
        <time>2023-09-30T07:33:37.000Z</time>
      </trkpt>
      <trkpt lat="46.01505" lon="6.79651">
        <ele>1697.5999755859</ele>
        <time>2023-09-30T07:33:38.000Z</time>
      </trkpt>
      <trkpt lat="46.01505" lon="6.79652">
        <ele>1697.8000488281</ele>
        <time>2023-09-30T07:33:39.000Z</time>
      </trkpt>
      <trkpt lat="46.01506" lon="6.79654">
        <ele>1698</ele>
        <time>2023-09-30T07:33:40.000Z</time>
      </trkpt>
      <trkpt lat="46.01506" lon="6.79655">
        <ele>1698.1999511719</ele>
        <time>2023-09-30T07:33:41.000Z</time>
      </trkpt>
      <trkpt lat="46.01507" lon="6.79656">
        <ele>1698.4000244141</ele>
        <time>2023-09-30T07:33:42.000Z</time>
      </trkpt>
      <trkpt lat="46.01508" lon="6.79657">
        <ele>1698.4000244141</ele>
        <time>2023-09-30T07:33:43.000Z</time>
      </trkpt>
      <trkpt lat="46.01508" lon="6.79659">
        <ele>1698.5999755859</ele>
        <time>2023-09-30T07:33:44.000Z</time>
      </trkpt>
      <trkpt lat="46.01509" lon="6.7966">
        <ele>1698.8000488281</ele>
        <time>2023-09-30T07:33:45.000Z</time>
      </trkpt>
      <trkpt lat="46.01509" lon="6.79661">
        <ele>1699</ele>
        <time>2023-09-30T07:33:46.000Z</time>
      </trkpt>
      <trkpt lat="46.0151" lon="6.79663">
        <ele>1699.1999511719</ele>
        <time>2023-09-30T07:33:47.000Z</time>
      </trkpt>
      <trkpt lat="46.0151" lon="6.79664">
        <ele>1699.4000244141</ele>
        <time>2023-09-30T07:33:48.000Z</time>
      </trkpt>
      <trkpt lat="46.0151" lon="6.79666">
        <ele>1699.4000244141</ele>
        <time>2023-09-30T07:33:49.000Z</time>
      </trkpt>
      <trkpt lat="46.0151" lon="6.79668">
        <ele>1699.4000244141</ele>
        <time>2023-09-30T07:33:50.000Z</time>
      </trkpt>
      <trkpt lat="46.0151" lon="6.7967">
        <ele>1699.5999755859</ele>
        <time>2023-09-30T07:33:51.000Z</time>
      </trkpt>
      <trkpt lat="46.0151" lon="6.79671">
        <ele>1699.5999755859</ele>
        <time>2023-09-30T07:33:52.000Z</time>
      </trkpt>
      <trkpt lat="46.0151" lon="6.79671">
        <ele>1699.5999755859</ele>
        <time>2023-09-30T07:33:53.000Z</time>
      </trkpt>
      <trkpt lat="46.01511" lon="6.79675">
        <ele>1699.5999755859</ele>
        <time>2023-09-30T07:33:54.000Z</time>
      </trkpt>
      <trkpt lat="46.01511" lon="6.79677">
        <ele>1699.8000488281</ele>
        <time>2023-09-30T07:33:55.000Z</time>
      </trkpt>
      <trkpt lat="46.01511" lon="6.79678">
        <ele>1700</ele>
        <time>2023-09-30T07:33:56.000Z</time>
      </trkpt>
      <trkpt lat="46.01511" lon="6.7968">
        <ele>1700</ele>
        <time>2023-09-30T07:33:57.000Z</time>
      </trkpt>
      <trkpt lat="46.01511" lon="6.79681">
        <ele>1700</ele>
        <time>2023-09-30T07:33:58.000Z</time>
      </trkpt>
      <trkpt lat="46.01511" lon="6.79683">
        <ele>1700.1999511719</ele>
        <time>2023-09-30T07:33:59.000Z</time>
      </trkpt>
      <trkpt lat="46.01511" lon="6.79684">
        <ele>1700.4000244141</ele>
        <time>2023-09-30T07:34:00.000Z</time>
      </trkpt>
      <trkpt lat="46.01511" lon="6.79685">
        <ele>1700.4000244141</ele>
        <time>2023-09-30T07:34:01.000Z</time>
      </trkpt>
      <trkpt lat="46.01511" lon="6.79686">
        <ele>1700.5999755859</ele>
        <time>2023-09-30T07:34:02.000Z</time>
      </trkpt>
      <trkpt lat="46.01511" lon="6.79688">
        <ele>1700.5999755859</ele>
        <time>2023-09-30T07:34:03.000Z</time>
      </trkpt>
      <trkpt lat="46.01511" lon="6.79689">
        <ele>1700.5999755859</ele>
        <time>2023-09-30T07:34:04.000Z</time>
      </trkpt>
      <trkpt lat="46.01511" lon="6.79691">
        <ele>1701</ele>
        <time>2023-09-30T07:34:05.000Z</time>
      </trkpt>
      <trkpt lat="46.01511" lon="6.79692">
        <ele>1701</ele>
        <time>2023-09-30T07:34:06.000Z</time>
      </trkpt>
      <trkpt lat="46.01511" lon="6.79693">
        <ele>1701.1999511719</ele>
        <time>2023-09-30T07:34:07.000Z</time>
      </trkpt>
      <trkpt lat="46.01511" lon="6.79694">
        <ele>1701.1999511719</ele>
        <time>2023-09-30T07:34:08.000Z</time>
      </trkpt>
      <trkpt lat="46.01511" lon="6.79696">
        <ele>1701.5999755859</ele>
        <time>2023-09-30T07:34:09.000Z</time>
      </trkpt>
      <trkpt lat="46.01511" lon="6.79698">
        <ele>1702</ele>
        <time>2023-09-30T07:34:10.000Z</time>
      </trkpt>
      <trkpt lat="46.0151" lon="6.79699">
        <ele>1702</ele>
        <time>2023-09-30T07:34:11.000Z</time>
      </trkpt>
      <trkpt lat="46.0151" lon="6.79701">
        <ele>1702.1999511719</ele>
        <time>2023-09-30T07:34:12.000Z</time>
      </trkpt>
      <trkpt lat="46.01509" lon="6.79703">
        <ele>1702.1999511719</ele>
        <time>2023-09-30T07:34:13.000Z</time>
      </trkpt>
      <trkpt lat="46.01509" lon="6.79704">
        <ele>1702.4000244141</ele>
        <time>2023-09-30T07:34:14.000Z</time>
      </trkpt>
      <trkpt lat="46.01509" lon="6.79706">
        <ele>1702.4000244141</ele>
        <time>2023-09-30T07:34:15.000Z</time>
      </trkpt>
      <trkpt lat="46.01509" lon="6.79708">
        <ele>1702.5999755859</ele>
        <time>2023-09-30T07:34:16.000Z</time>
      </trkpt>
      <trkpt lat="46.01509" lon="6.7971">
        <ele>1702.8000488281</ele>
        <time>2023-09-30T07:34:17.000Z</time>
      </trkpt>
      <trkpt lat="46.01509" lon="6.79711">
        <ele>1703</ele>
        <time>2023-09-30T07:34:18.000Z</time>
      </trkpt>
      <trkpt lat="46.0151" lon="6.79713">
        <ele>1703.1999511719</ele>
        <time>2023-09-30T07:34:19.000Z</time>
      </trkpt>
      <trkpt lat="46.0151" lon="6.79715">
        <ele>1703.4000244141</ele>
        <time>2023-09-30T07:34:20.000Z</time>
      </trkpt>
      <trkpt lat="46.0151" lon="6.79716">
        <ele>1703.5999755859</ele>
        <time>2023-09-30T07:34:21.000Z</time>
      </trkpt>
      <trkpt lat="46.0151" lon="6.79717">
        <ele>1704</ele>
        <time>2023-09-30T07:34:22.000Z</time>
      </trkpt>
      <trkpt lat="46.0151" lon="6.79719">
        <ele>1704</ele>
        <time>2023-09-30T07:34:23.000Z</time>
      </trkpt>
      <trkpt lat="46.0151" lon="6.7972">
        <ele>1704.1999511719</ele>
        <time>2023-09-30T07:34:24.000Z</time>
      </trkpt>
      <trkpt lat="46.0151" lon="6.79722">
        <ele>1704.4000244141</ele>
        <time>2023-09-30T07:34:25.000Z</time>
      </trkpt>
      <trkpt lat="46.0151" lon="6.79723">
        <ele>1704.4000244141</ele>
        <time>2023-09-30T07:34:26.000Z</time>
      </trkpt>
      <trkpt lat="46.0151" lon="6.79724">
        <ele>1704.4000244141</ele>
        <time>2023-09-30T07:34:27.000Z</time>
      </trkpt>
      <trkpt lat="46.0151" lon="6.79726">
        <ele>1704.5999755859</ele>
        <time>2023-09-30T07:34:28.000Z</time>
      </trkpt>
      <trkpt lat="46.0151" lon="6.79727">
        <ele>1704.8000488281</ele>
        <time>2023-09-30T07:34:29.000Z</time>
      </trkpt>
      <trkpt lat="46.0151" lon="6.79728">
        <ele>1705</ele>
        <time>2023-09-30T07:34:30.000Z</time>
      </trkpt>
      <trkpt lat="46.0151" lon="6.7973">
        <ele>1705.4000244141</ele>
        <time>2023-09-30T07:34:31.000Z</time>
      </trkpt>
      <trkpt lat="46.0151" lon="6.79731">
        <ele>1705.5999755859</ele>
        <time>2023-09-30T07:34:32.000Z</time>
      </trkpt>
      <trkpt lat="46.0151" lon="6.79732">
        <ele>1705.8000488281</ele>
        <time>2023-09-30T07:34:33.000Z</time>
      </trkpt>
      <trkpt lat="46.01511" lon="6.79733">
        <ele>1705.8000488281</ele>
        <time>2023-09-30T07:34:34.000Z</time>
      </trkpt>
      <trkpt lat="46.01511" lon="6.79734">
        <ele>1706</ele>
        <time>2023-09-30T07:34:35.000Z</time>
      </trkpt>
      <trkpt lat="46.01511" lon="6.79735">
        <ele>1706.1999511719</ele>
        <time>2023-09-30T07:34:36.000Z</time>
      </trkpt>
      <trkpt lat="46.01511" lon="6.79736">
        <ele>1706.1999511719</ele>
        <time>2023-09-30T07:34:37.000Z</time>
      </trkpt>
      <trkpt lat="46.01511" lon="6.79737">
        <ele>1706.5999755859</ele>
        <time>2023-09-30T07:34:38.000Z</time>
      </trkpt>
      <trkpt lat="46.0151" lon="6.79739">
        <ele>1706.8000488281</ele>
        <time>2023-09-30T07:34:39.000Z</time>
      </trkpt>
      <trkpt lat="46.0151" lon="6.79739">
        <ele>1707</ele>
        <time>2023-09-30T07:34:40.000Z</time>
      </trkpt>
      <trkpt lat="46.01509" lon="6.7974">
        <ele>1707.1999511719</ele>
        <time>2023-09-30T07:34:41.000Z</time>
      </trkpt>
      <trkpt lat="46.01509" lon="6.7974">
        <ele>1707.4000244141</ele>
        <time>2023-09-30T07:34:42.000Z</time>
      </trkpt>
      <trkpt lat="46.01508" lon="6.7974">
        <ele>1707.4000244141</ele>
        <time>2023-09-30T07:34:43.000Z</time>
      </trkpt>
      <trkpt lat="46.01508" lon="6.7974">
        <ele>1707.5999755859</ele>
        <time>2023-09-30T07:34:44.000Z</time>
      </trkpt>
      <trkpt lat="46.01507" lon="6.79739">
        <ele>1708</ele>
        <time>2023-09-30T07:34:45.000Z</time>
      </trkpt>
      <trkpt lat="46.01506" lon="6.79738">
        <ele>1708.1999511719</ele>
        <time>2023-09-30T07:34:46.000Z</time>
      </trkpt>
      <trkpt lat="46.01506" lon="6.79738">
        <ele>1708.4000244141</ele>
        <time>2023-09-30T07:34:47.000Z</time>
      </trkpt>
      <trkpt lat="46.01505" lon="6.79737">
        <ele>1708.4000244141</ele>
        <time>2023-09-30T07:34:48.000Z</time>
      </trkpt>
      <trkpt lat="46.01505" lon="6.79736">
        <ele>1708.8000488281</ele>
        <time>2023-09-30T07:34:49.000Z</time>
      </trkpt>
      <trkpt lat="46.01505" lon="6.79736">
        <ele>1709</ele>
        <time>2023-09-30T07:34:50.000Z</time>
      </trkpt>
      <trkpt lat="46.01504" lon="6.79735">
        <ele>1709</ele>
        <time>2023-09-30T07:34:51.000Z</time>
      </trkpt>
      <trkpt lat="46.01504" lon="6.79734">
        <ele>1709.1999511719</ele>
        <time>2023-09-30T07:34:52.000Z</time>
      </trkpt>
      <trkpt lat="46.01504" lon="6.79733">
        <ele>1709.4000244141</ele>
        <time>2023-09-30T07:34:53.000Z</time>
      </trkpt>
      <trkpt lat="46.01503" lon="6.79732">
        <ele>1709.4000244141</ele>
        <time>2023-09-30T07:34:54.000Z</time>
      </trkpt>
      <trkpt lat="46.01503" lon="6.79731">
        <ele>1709.5999755859</ele>
        <time>2023-09-30T07:34:55.000Z</time>
      </trkpt>
      <trkpt lat="46.01502" lon="6.7973">
        <ele>1710</ele>
        <time>2023-09-30T07:34:56.000Z</time>
      </trkpt>
      <trkpt lat="46.01502" lon="6.79728">
        <ele>1710.1999511719</ele>
        <time>2023-09-30T07:34:57.000Z</time>
      </trkpt>
      <trkpt lat="46.01501" lon="6.79727">
        <ele>1710.4000244141</ele>
        <time>2023-09-30T07:34:58.000Z</time>
      </trkpt>
      <trkpt lat="46.015" lon="6.79726">
        <ele>1710.5999755859</ele>
        <time>2023-09-30T07:34:59.000Z</time>
      </trkpt>
      <trkpt lat="46.01499" lon="6.79725">
        <ele>1710.5999755859</ele>
        <time>2023-09-30T07:35:00.000Z</time>
      </trkpt>
      <trkpt lat="46.01499" lon="6.79724">
        <ele>1710.8000488281</ele>
        <time>2023-09-30T07:35:01.000Z</time>
      </trkpt>
      <trkpt lat="46.01498" lon="6.79723">
        <ele>1711</ele>
        <time>2023-09-30T07:35:02.000Z</time>
      </trkpt>
      <trkpt lat="46.01497" lon="6.79721">
        <ele>1711</ele>
        <time>2023-09-30T07:35:03.000Z</time>
      </trkpt>
      <trkpt lat="46.01496" lon="6.7972">
        <ele>1711.1999511719</ele>
        <time>2023-09-30T07:35:04.000Z</time>
      </trkpt>
      <trkpt lat="46.01496" lon="6.79719">
        <ele>1711.4000244141</ele>
        <time>2023-09-30T07:35:05.000Z</time>
      </trkpt>
      <trkpt lat="46.01495" lon="6.79718">
        <ele>1711.5999755859</ele>
        <time>2023-09-30T07:35:06.000Z</time>
      </trkpt>
      <trkpt lat="46.01495" lon="6.79718">
        <ele>1711.5999755859</ele>
        <time>2023-09-30T07:35:07.000Z</time>
      </trkpt>
      <trkpt lat="46.01494" lon="6.79717">
        <ele>1712</ele>
        <time>2023-09-30T07:35:08.000Z</time>
      </trkpt>
      <trkpt lat="46.01493" lon="6.79716">
        <ele>1711.8000488281</ele>
        <time>2023-09-30T07:35:09.000Z</time>
      </trkpt>
      <trkpt lat="46.01493" lon="6.79715">
        <ele>1712</ele>
        <time>2023-09-30T07:35:10.000Z</time>
      </trkpt>
      <trkpt lat="46.01492" lon="6.79714">
        <ele>1712.1999511719</ele>
        <time>2023-09-30T07:35:11.000Z</time>
      </trkpt>
      <trkpt lat="46.01491" lon="6.79714">
        <ele>1712.4000244141</ele>
        <time>2023-09-30T07:35:12.000Z</time>
      </trkpt>
      <trkpt lat="46.01491" lon="6.79714">
        <ele>1712.5999755859</ele>
        <time>2023-09-30T07:35:14.000Z</time>
      </trkpt>
      <trkpt lat="46.0149" lon="6.79712">
        <ele>1712.8000488281</ele>
        <time>2023-09-30T07:35:15.000Z</time>
      </trkpt>
      <trkpt lat="46.0149" lon="6.79711">
        <ele>1712.8000488281</ele>
        <time>2023-09-30T07:35:16.000Z</time>
      </trkpt>
      <trkpt lat="46.01489" lon="6.7971">
        <ele>1713.1999511719</ele>
        <time>2023-09-30T07:35:17.000Z</time>
      </trkpt>
      <trkpt lat="46.01489" lon="6.79709">
        <ele>1713.4000244141</ele>
        <time>2023-09-30T07:35:18.000Z</time>
      </trkpt>
      <trkpt lat="46.01488" lon="6.79708">
        <ele>1713.4000244141</ele>
        <time>2023-09-30T07:35:19.000Z</time>
      </trkpt>
      <trkpt lat="46.01487" lon="6.79707">
        <ele>1713.5999755859</ele>
        <time>2023-09-30T07:35:20.000Z</time>
      </trkpt>
      <trkpt lat="46.01487" lon="6.79706">
        <ele>1713.5999755859</ele>
        <time>2023-09-30T07:35:21.000Z</time>
      </trkpt>
      <trkpt lat="46.01486" lon="6.79705">
        <ele>1713.8000488281</ele>
        <time>2023-09-30T07:35:22.000Z</time>
      </trkpt>
      <trkpt lat="46.01485" lon="6.79704">
        <ele>1714</ele>
        <time>2023-09-30T07:35:23.000Z</time>
      </trkpt>
      <trkpt lat="46.01484" lon="6.79703">
        <ele>1714.1999511719</ele>
        <time>2023-09-30T07:35:24.000Z</time>
      </trkpt>
      <trkpt lat="46.01483" lon="6.79702">
        <ele>1714.4000244141</ele>
        <time>2023-09-30T07:35:25.000Z</time>
      </trkpt>
      <trkpt lat="46.01482" lon="6.79701">
        <ele>1714.5999755859</ele>
        <time>2023-09-30T07:35:26.000Z</time>
      </trkpt>
      <trkpt lat="46.01481" lon="6.797">
        <ele>1714.5999755859</ele>
        <time>2023-09-30T07:35:27.000Z</time>
      </trkpt>
      <trkpt lat="46.0148" lon="6.79699">
        <ele>1714.8000488281</ele>
        <time>2023-09-30T07:35:28.000Z</time>
      </trkpt>
      <trkpt lat="46.0148" lon="6.79699">
        <ele>1715</ele>
        <time>2023-09-30T07:35:29.000Z</time>
      </trkpt>
      <trkpt lat="46.01479" lon="6.79698">
        <ele>1715</ele>
        <time>2023-09-30T07:35:30.000Z</time>
      </trkpt>
      <trkpt lat="46.01478" lon="6.79697">
        <ele>1715.1999511719</ele>
        <time>2023-09-30T07:35:31.000Z</time>
      </trkpt>
      <trkpt lat="46.01477" lon="6.79696">
        <ele>1715.4000244141</ele>
        <time>2023-09-30T07:35:32.000Z</time>
      </trkpt>
      <trkpt lat="46.01476" lon="6.79695">
        <ele>1715.4000244141</ele>
        <time>2023-09-30T07:35:33.000Z</time>
      </trkpt>
      <trkpt lat="46.01474" lon="6.79694">
        <ele>1715.5999755859</ele>
        <time>2023-09-30T07:35:34.000Z</time>
      </trkpt>
      <trkpt lat="46.01473" lon="6.79693">
        <ele>1715.5999755859</ele>
        <time>2023-09-30T07:35:35.000Z</time>
      </trkpt>
      <trkpt lat="46.01472" lon="6.79692">
        <ele>1715.8000488281</ele>
        <time>2023-09-30T07:35:36.000Z</time>
      </trkpt>
      <trkpt lat="46.01471" lon="6.79691">
        <ele>1715.8000488281</ele>
        <time>2023-09-30T07:35:37.000Z</time>
      </trkpt>
      <trkpt lat="46.01469" lon="6.7969">
        <ele>1716</ele>
        <time>2023-09-30T07:35:38.000Z</time>
      </trkpt>
      <trkpt lat="46.01468" lon="6.7969">
        <ele>1716</ele>
        <time>2023-09-30T07:35:39.000Z</time>
      </trkpt>
      <trkpt lat="46.01467" lon="6.79689">
        <ele>1716</ele>
        <time>2023-09-30T07:35:40.000Z</time>
      </trkpt>
      <trkpt lat="46.01466" lon="6.79689">
        <ele>1716.4000244141</ele>
        <time>2023-09-30T07:35:41.000Z</time>
      </trkpt>
      <trkpt lat="46.01465" lon="6.79689">
        <ele>1716.4000244141</ele>
        <time>2023-09-30T07:35:42.000Z</time>
      </trkpt>
      <trkpt lat="46.01463" lon="6.79688">
        <ele>1716.5999755859</ele>
        <time>2023-09-30T07:35:43.000Z</time>
      </trkpt>
      <trkpt lat="46.01462" lon="6.79688">
        <ele>1716.5999755859</ele>
        <time>2023-09-30T07:35:44.000Z</time>
      </trkpt>
      <trkpt lat="46.01461" lon="6.79687">
        <ele>1716.8000488281</ele>
        <time>2023-09-30T07:35:45.000Z</time>
      </trkpt>
      <trkpt lat="46.0146" lon="6.79687">
        <ele>1717</ele>
        <time>2023-09-30T07:35:46.000Z</time>
      </trkpt>
      <trkpt lat="46.01459" lon="6.79686">
        <ele>1717</ele>
        <time>2023-09-30T07:35:47.000Z</time>
      </trkpt>
      <trkpt lat="46.01458" lon="6.79686">
        <ele>1717.1999511719</ele>
        <time>2023-09-30T07:35:48.000Z</time>
      </trkpt>
      <trkpt lat="46.01457" lon="6.79685">
        <ele>1717.4000244141</ele>
        <time>2023-09-30T07:35:49.000Z</time>
      </trkpt>
      <trkpt lat="46.01456" lon="6.79685">
        <ele>1717.4000244141</ele>
        <time>2023-09-30T07:35:50.000Z</time>
      </trkpt>
      <trkpt lat="46.01455" lon="6.79685">
        <ele>1717.5999755859</ele>
        <time>2023-09-30T07:35:51.000Z</time>
      </trkpt>
      <trkpt lat="46.01454" lon="6.79685">
        <ele>1717.5999755859</ele>
        <time>2023-09-30T07:35:52.000Z</time>
      </trkpt>
      <trkpt lat="46.01452" lon="6.79685">
        <ele>1718</ele>
        <time>2023-09-30T07:35:53.000Z</time>
      </trkpt>
      <trkpt lat="46.01451" lon="6.79686">
        <ele>1718</ele>
        <time>2023-09-30T07:35:54.000Z</time>
      </trkpt>
      <trkpt lat="46.0145" lon="6.79687">
        <ele>1718.4000244141</ele>
        <time>2023-09-30T07:35:55.000Z</time>
      </trkpt>
      <trkpt lat="46.01449" lon="6.79688">
        <ele>1718.5999755859</ele>
        <time>2023-09-30T07:35:56.000Z</time>
      </trkpt>
      <trkpt lat="46.01448" lon="6.79688">
        <ele>1718.8000488281</ele>
        <time>2023-09-30T07:35:57.000Z</time>
      </trkpt>
      <trkpt lat="46.01447" lon="6.79689">
        <ele>1718.8000488281</ele>
        <time>2023-09-30T07:35:58.000Z</time>
      </trkpt>
      <trkpt lat="46.01446" lon="6.7969">
        <ele>1719</ele>
        <time>2023-09-30T07:35:59.000Z</time>
      </trkpt>
      <trkpt lat="46.01446" lon="6.79691">
        <ele>1719.1999511719</ele>
        <time>2023-09-30T07:36:00.000Z</time>
      </trkpt>
      <trkpt lat="46.01445" lon="6.79692">
        <ele>1719.1999511719</ele>
        <time>2023-09-30T07:36:01.000Z</time>
      </trkpt>
      <trkpt lat="46.01445" lon="6.79693">
        <ele>1719.4000244141</ele>
        <time>2023-09-30T07:36:02.000Z</time>
      </trkpt>
      <trkpt lat="46.01445" lon="6.79693">
        <ele>1719.4000244141</ele>
        <time>2023-09-30T07:36:03.000Z</time>
      </trkpt>
      <trkpt lat="46.01444" lon="6.79695">
        <ele>1719.5999755859</ele>
        <time>2023-09-30T07:36:04.000Z</time>
      </trkpt>
      <trkpt lat="46.01443" lon="6.79695">
        <ele>1719.8000488281</ele>
        <time>2023-09-30T07:36:05.000Z</time>
      </trkpt>
      <trkpt lat="46.01442" lon="6.79696">
        <ele>1720</ele>
        <time>2023-09-30T07:36:06.000Z</time>
      </trkpt>
      <trkpt lat="46.01442" lon="6.79696">
        <ele>1720.1999511719</ele>
        <time>2023-09-30T07:36:07.000Z</time>
      </trkpt>
      <trkpt lat="46.01441" lon="6.79696">
        <ele>1720.4000244141</ele>
        <time>2023-09-30T07:36:08.000Z</time>
      </trkpt>
      <trkpt lat="46.0144" lon="6.79695">
        <ele>1720.5999755859</ele>
        <time>2023-09-30T07:36:09.000Z</time>
      </trkpt>
      <trkpt lat="46.01439" lon="6.79695">
        <ele>1720.8000488281</ele>
        <time>2023-09-30T07:36:10.000Z</time>
      </trkpt>
      <trkpt lat="46.01438" lon="6.79694">
        <ele>1721</ele>
        <time>2023-09-30T07:36:11.000Z</time>
      </trkpt>
      <trkpt lat="46.01438" lon="6.79694">
        <ele>1721.4000244141</ele>
        <time>2023-09-30T07:36:12.000Z</time>
      </trkpt>
      <trkpt lat="46.01437" lon="6.79693">
        <ele>1721.4000244141</ele>
        <time>2023-09-30T07:36:13.000Z</time>
      </trkpt>
      <trkpt lat="46.01436" lon="6.79692">
        <ele>1721.5999755859</ele>
        <time>2023-09-30T07:36:14.000Z</time>
      </trkpt>
      <trkpt lat="46.01436" lon="6.79692">
        <ele>1721.8000488281</ele>
        <time>2023-09-30T07:36:15.000Z</time>
      </trkpt>
      <trkpt lat="46.01435" lon="6.79691">
        <ele>1722</ele>
        <time>2023-09-30T07:36:16.000Z</time>
      </trkpt>
      <trkpt lat="46.01434" lon="6.79691">
        <ele>1722.1999511719</ele>
        <time>2023-09-30T07:36:17.000Z</time>
      </trkpt>
      <trkpt lat="46.01433" lon="6.7969">
        <ele>1722.4000244141</ele>
        <time>2023-09-30T07:36:18.000Z</time>
      </trkpt>
      <trkpt lat="46.01432" lon="6.7969">
        <ele>1722.5999755859</ele>
        <time>2023-09-30T07:36:19.000Z</time>
      </trkpt>
      <trkpt lat="46.01431" lon="6.79689">
        <ele>1722.8000488281</ele>
        <time>2023-09-30T07:36:20.000Z</time>
      </trkpt>
      <trkpt lat="46.0143" lon="6.79689">
        <ele>1723</ele>
        <time>2023-09-30T07:36:21.000Z</time>
      </trkpt>
      <trkpt lat="46.01429" lon="6.79689">
        <ele>1723</ele>
        <time>2023-09-30T07:36:22.000Z</time>
      </trkpt>
      <trkpt lat="46.01428" lon="6.79689">
        <ele>1723.1999511719</ele>
        <time>2023-09-30T07:36:23.000Z</time>
      </trkpt>
      <trkpt lat="46.01428" lon="6.7969">
        <ele>1723.1999511719</ele>
        <time>2023-09-30T07:36:24.000Z</time>
      </trkpt>
      <trkpt lat="46.01428" lon="6.7969">
        <ele>1723.5999755859</ele>
        <time>2023-09-30T07:36:25.000Z</time>
      </trkpt>
      <trkpt lat="46.01428" lon="6.7969">
        <ele>1723.5999755859</ele>
        <time>2023-09-30T07:36:26.000Z</time>
      </trkpt>
      <trkpt lat="46.01428" lon="6.7969">
        <ele>1723.8000488281</ele>
        <time>2023-09-30T07:36:27.000Z</time>
      </trkpt>
      <trkpt lat="46.01428" lon="6.7969">
        <ele>1723.8000488281</ele>
        <time>2023-09-30T07:36:28.000Z</time>
      </trkpt>
      <trkpt lat="46.01427" lon="6.79691">
        <ele>1724</ele>
        <time>2023-09-30T07:36:41.000Z</time>
      </trkpt>
      <trkpt lat="46.01426" lon="6.79692">
        <ele>1724</ele>
        <time>2023-09-30T07:36:42.000Z</time>
      </trkpt>
      <trkpt lat="46.01425" lon="6.79693">
        <ele>1724</ele>
        <time>2023-09-30T07:36:43.000Z</time>
      </trkpt>
      <trkpt lat="46.01423" lon="6.79694">
        <ele>1724</ele>
        <time>2023-09-30T07:36:45.000Z</time>
      </trkpt>
      <trkpt lat="46.01419" lon="6.79696">
        <ele>1724.4000244141</ele>
        <time>2023-09-30T07:36:49.000Z</time>
      </trkpt>
      <trkpt lat="46.01417" lon="6.79698">
        <ele>1724.8000488281</ele>
        <time>2023-09-30T07:36:51.000Z</time>
      </trkpt>
      <trkpt lat="46.01416" lon="6.79699">
        <ele>1725</ele>
        <time>2023-09-30T07:36:52.000Z</time>
      </trkpt>
      <trkpt lat="46.01415" lon="6.797">
        <ele>1725.1999511719</ele>
        <time>2023-09-30T07:36:53.000Z</time>
      </trkpt>
      <trkpt lat="46.01412" lon="6.79703">
        <ele>1726</ele>
        <time>2023-09-30T07:36:56.000Z</time>
      </trkpt>
      <trkpt lat="46.0141" lon="6.79703">
        <ele>1726.1999511719</ele>
        <time>2023-09-30T07:36:57.000Z</time>
      </trkpt>
      <trkpt lat="46.0141" lon="6.79704">
        <ele>1726.4000244141</ele>
        <time>2023-09-30T07:36:58.000Z</time>
      </trkpt>
      <trkpt lat="46.0141" lon="6.79704">
        <ele>1726.4000244141</ele>
        <time>2023-09-30T07:36:59.000Z</time>
      </trkpt>
      <trkpt lat="46.01409" lon="6.79703">
        <ele>1726.5999755859</ele>
        <time>2023-09-30T07:37:00.000Z</time>
      </trkpt>
      <trkpt lat="46.01409" lon="6.79704">
        <ele>1726.8000488281</ele>
        <time>2023-09-30T07:37:01.000Z</time>
      </trkpt>
      <trkpt lat="46.01408" lon="6.79705">
        <ele>1727.1999511719</ele>
        <time>2023-09-30T07:37:02.000Z</time>
      </trkpt>
      <trkpt lat="46.01407" lon="6.79705">
        <ele>1727.4000244141</ele>
        <time>2023-09-30T07:37:03.000Z</time>
      </trkpt>
      <trkpt lat="46.01406" lon="6.79706">
        <ele>1727.4000244141</ele>
        <time>2023-09-30T07:37:04.000Z</time>
      </trkpt>
      <trkpt lat="46.01406" lon="6.79707">
        <ele>1727.5999755859</ele>
        <time>2023-09-30T07:37:05.000Z</time>
      </trkpt>
      <trkpt lat="46.01405" lon="6.79707">
        <ele>1727.8000488281</ele>
        <time>2023-09-30T07:37:06.000Z</time>
      </trkpt>
      <trkpt lat="46.01404" lon="6.79708">
        <ele>1728</ele>
        <time>2023-09-30T07:37:07.000Z</time>
      </trkpt>
      <trkpt lat="46.01404" lon="6.79708">
        <ele>1728.1999511719</ele>
        <time>2023-09-30T07:37:08.000Z</time>
      </trkpt>
      <trkpt lat="46.01402" lon="6.79708">
        <ele>1728.1999511719</ele>
        <time>2023-09-30T07:37:09.000Z</time>
      </trkpt>
      <trkpt lat="46.01401" lon="6.79709">
        <ele>1728.4000244141</ele>
        <time>2023-09-30T07:37:10.000Z</time>
      </trkpt>
      <trkpt lat="46.01401" lon="6.79709">
        <ele>1728.4000244141</ele>
        <time>2023-09-30T07:37:11.000Z</time>
      </trkpt>
      <trkpt lat="46.014" lon="6.7971">
        <ele>1728.5999755859</ele>
        <time>2023-09-30T07:37:12.000Z</time>
      </trkpt>
      <trkpt lat="46.01399" lon="6.7971">
        <ele>1728.5999755859</ele>
        <time>2023-09-30T07:37:13.000Z</time>
      </trkpt>
      <trkpt lat="46.01398" lon="6.79711">
        <ele>1728.8000488281</ele>
        <time>2023-09-30T07:37:14.000Z</time>
      </trkpt>
      <trkpt lat="46.01398" lon="6.79711">
        <ele>1729</ele>
        <time>2023-09-30T07:37:15.000Z</time>
      </trkpt>
      <trkpt lat="46.01398" lon="6.79712">
        <ele>1729</ele>
        <time>2023-09-30T07:37:16.000Z</time>
      </trkpt>
      <trkpt lat="46.01397" lon="6.79713">
        <ele>1729.1999511719</ele>
        <time>2023-09-30T07:37:17.000Z</time>
      </trkpt>
      <trkpt lat="46.01396" lon="6.79713">
        <ele>1729.1999511719</ele>
        <time>2023-09-30T07:37:18.000Z</time>
      </trkpt>
      <trkpt lat="46.01395" lon="6.79714">
        <ele>1729.4000244141</ele>
        <time>2023-09-30T07:37:19.000Z</time>
      </trkpt>
      <trkpt lat="46.01394" lon="6.79714">
        <ele>1729.5999755859</ele>
        <time>2023-09-30T07:37:20.000Z</time>
      </trkpt>
      <trkpt lat="46.01394" lon="6.79714">
        <ele>1729.8000488281</ele>
        <time>2023-09-30T07:37:21.000Z</time>
      </trkpt>
      <trkpt lat="46.01393" lon="6.79715">
        <ele>1730</ele>
        <time>2023-09-30T07:37:22.000Z</time>
      </trkpt>
      <trkpt lat="46.01393" lon="6.79715">
        <ele>1730.1999511719</ele>
        <time>2023-09-30T07:37:23.000Z</time>
      </trkpt>
      <trkpt lat="46.01391" lon="6.79715">
        <ele>1730.1999511719</ele>
        <time>2023-09-30T07:37:24.000Z</time>
      </trkpt>
      <trkpt lat="46.0139" lon="6.79715">
        <ele>1730.4000244141</ele>
        <time>2023-09-30T07:37:25.000Z</time>
      </trkpt>
      <trkpt lat="46.01389" lon="6.79716">
        <ele>1730.5999755859</ele>
        <time>2023-09-30T07:37:26.000Z</time>
      </trkpt>
      <trkpt lat="46.01388" lon="6.79716">
        <ele>1731</ele>
        <time>2023-09-30T07:37:27.000Z</time>
      </trkpt>
      <trkpt lat="46.01388" lon="6.79716">
        <ele>1731</ele>
        <time>2023-09-30T07:37:28.000Z</time>
      </trkpt>
      <trkpt lat="46.01388" lon="6.79716">
        <ele>1731.4000244141</ele>
        <time>2023-09-30T07:37:30.000Z</time>
      </trkpt>
      <trkpt lat="46.01388" lon="6.79716">
        <ele>1732.4000244141</ele>
        <time>2023-09-30T07:37:36.000Z</time>
      </trkpt>
      <trkpt lat="46.01386" lon="6.79717">
        <ele>1733</ele>
        <time>2023-09-30T07:37:53.000Z</time>
      </trkpt>
      <trkpt lat="46.01378" lon="6.79721">
        <ele>1733.4000244141</ele>
        <time>2023-09-30T07:38:02.000Z</time>
      </trkpt>
      <trkpt lat="46.01375" lon="6.79721">
        <ele>1734</ele>
        <time>2023-09-30T07:38:05.000Z</time>
      </trkpt>
      <trkpt lat="46.01374" lon="6.79722">
        <ele>1734.4000244141</ele>
        <time>2023-09-30T07:38:07.000Z</time>
      </trkpt>
      <trkpt lat="46.01373" lon="6.79723">
        <ele>1734.5999755859</ele>
        <time>2023-09-30T07:38:08.000Z</time>
      </trkpt>
      <trkpt lat="46.01373" lon="6.79723">
        <ele>1734.8000488281</ele>
        <time>2023-09-30T07:38:09.000Z</time>
      </trkpt>
      <trkpt lat="46.01372" lon="6.79723">
        <ele>1734.8000488281</ele>
        <time>2023-09-30T07:38:10.000Z</time>
      </trkpt>
      <trkpt lat="46.01371" lon="6.79723">
        <ele>1735.1999511719</ele>
        <time>2023-09-30T07:38:11.000Z</time>
      </trkpt>
      <trkpt lat="46.01371" lon="6.79724">
        <ele>1735.4000244141</ele>
        <time>2023-09-30T07:38:12.000Z</time>
      </trkpt>
      <trkpt lat="46.0137" lon="6.79724">
        <ele>1735.5999755859</ele>
        <time>2023-09-30T07:38:13.000Z</time>
      </trkpt>
      <trkpt lat="46.0137" lon="6.79725">
        <ele>1735.8000488281</ele>
        <time>2023-09-30T07:38:14.000Z</time>
      </trkpt>
      <trkpt lat="46.01369" lon="6.79726">
        <ele>1736</ele>
        <time>2023-09-30T07:38:15.000Z</time>
      </trkpt>
      <trkpt lat="46.01368" lon="6.79726">
        <ele>1736.1999511719</ele>
        <time>2023-09-30T07:38:16.000Z</time>
      </trkpt>
      <trkpt lat="46.01367" lon="6.79728">
        <ele>1736.1999511719</ele>
        <time>2023-09-30T07:38:17.000Z</time>
      </trkpt>
      <trkpt lat="46.01367" lon="6.79728">
        <ele>1736.4000244141</ele>
        <time>2023-09-30T07:38:18.000Z</time>
      </trkpt>
      <trkpt lat="46.01367" lon="6.7973">
        <ele>1736.5999755859</ele>
        <time>2023-09-30T07:38:19.000Z</time>
      </trkpt>
      <trkpt lat="46.01367" lon="6.79731">
        <ele>1737</ele>
        <time>2023-09-30T07:38:20.000Z</time>
      </trkpt>
      <trkpt lat="46.01367" lon="6.79733">
        <ele>1737.1999511719</ele>
        <time>2023-09-30T07:38:21.000Z</time>
      </trkpt>
      <trkpt lat="46.01368" lon="6.79734">
        <ele>1737.4000244141</ele>
        <time>2023-09-30T07:38:22.000Z</time>
      </trkpt>
      <trkpt lat="46.01368" lon="6.79735">
        <ele>1737.4000244141</ele>
        <time>2023-09-30T07:38:23.000Z</time>
      </trkpt>
      <trkpt lat="46.01368" lon="6.79735">
        <ele>1737.5999755859</ele>
        <time>2023-09-30T07:38:24.000Z</time>
      </trkpt>
      <trkpt lat="46.01369" lon="6.79736">
        <ele>1737.8000488281</ele>
        <time>2023-09-30T07:38:25.000Z</time>
      </trkpt>
      <trkpt lat="46.01369" lon="6.79737">
        <ele>1738</ele>
        <time>2023-09-30T07:38:26.000Z</time>
      </trkpt>
      <trkpt lat="46.0137" lon="6.79738">
        <ele>1738.1999511719</ele>
        <time>2023-09-30T07:38:27.000Z</time>
      </trkpt>
      <trkpt lat="46.0137" lon="6.79738">
        <ele>1738.1999511719</ele>
        <time>2023-09-30T07:38:28.000Z</time>
      </trkpt>
      <trkpt lat="46.01371" lon="6.79738">
        <ele>1738.4000244141</ele>
        <time>2023-09-30T07:38:29.000Z</time>
      </trkpt>
      <trkpt lat="46.01372" lon="6.79739">
        <ele>1738.5999755859</ele>
        <time>2023-09-30T07:38:30.000Z</time>
      </trkpt>
      <trkpt lat="46.01372" lon="6.79739">
        <ele>1738.5999755859</ele>
        <time>2023-09-30T07:38:31.000Z</time>
      </trkpt>
      <trkpt lat="46.01373" lon="6.7974">
        <ele>1739</ele>
        <time>2023-09-30T07:38:32.000Z</time>
      </trkpt>
      <trkpt lat="46.01374" lon="6.7974">
        <ele>1739.1999511719</ele>
        <time>2023-09-30T07:38:33.000Z</time>
      </trkpt>
      <trkpt lat="46.01375" lon="6.79741">
        <ele>1739.4000244141</ele>
        <time>2023-09-30T07:38:34.000Z</time>
      </trkpt>
      <trkpt lat="46.01375" lon="6.79741">
        <ele>1739.4000244141</ele>
        <time>2023-09-30T07:38:35.000Z</time>
      </trkpt>
      <trkpt lat="46.01376" lon="6.79742">
        <ele>1739.5999755859</ele>
        <time>2023-09-30T07:38:36.000Z</time>
      </trkpt>
      <trkpt lat="46.01376" lon="6.79743">
        <ele>1739.8000488281</ele>
        <time>2023-09-30T07:38:37.000Z</time>
      </trkpt>
      <trkpt lat="46.01377" lon="6.79743">
        <ele>1740</ele>
        <time>2023-09-30T07:38:38.000Z</time>
      </trkpt>
      <trkpt lat="46.01378" lon="6.79744">
        <ele>1740.1999511719</ele>
        <time>2023-09-30T07:38:39.000Z</time>
      </trkpt>
      <trkpt lat="46.01378" lon="6.79744">
        <ele>1740.4000244141</ele>
        <time>2023-09-30T07:38:40.000Z</time>
      </trkpt>
      <trkpt lat="46.01378" lon="6.79745">
        <ele>1740.8000488281</ele>
        <time>2023-09-30T07:38:41.000Z</time>
      </trkpt>
      <trkpt lat="46.01379" lon="6.79745">
        <ele>1741</ele>
        <time>2023-09-30T07:38:42.000Z</time>
      </trkpt>
      <trkpt lat="46.0138" lon="6.79746">
        <ele>1741</ele>
        <time>2023-09-30T07:38:43.000Z</time>
      </trkpt>
      <trkpt lat="46.0138" lon="6.79747">
        <ele>1741.4000244141</ele>
        <time>2023-09-30T07:38:44.000Z</time>
      </trkpt>
      <trkpt lat="46.01381" lon="6.79747">
        <ele>1741.4000244141</ele>
        <time>2023-09-30T07:38:45.000Z</time>
      </trkpt>
      <trkpt lat="46.01381" lon="6.79748">
        <ele>1741.5999755859</ele>
        <time>2023-09-30T07:38:46.000Z</time>
      </trkpt>
      <trkpt lat="46.01382" lon="6.79748">
        <ele>1741.8000488281</ele>
        <time>2023-09-30T07:38:47.000Z</time>
      </trkpt>
      <trkpt lat="46.01382" lon="6.79749">
        <ele>1741.5999755859</ele>
        <time>2023-09-30T07:38:48.000Z</time>
      </trkpt>
      <trkpt lat="46.01382" lon="6.79749">
        <ele>1742</ele>
        <time>2023-09-30T07:38:49.000Z</time>
      </trkpt>
      <trkpt lat="46.01383" lon="6.7975">
        <ele>1742</ele>
        <time>2023-09-30T07:38:50.000Z</time>
      </trkpt>
      <trkpt lat="46.01384" lon="6.79751">
        <ele>1742.1999511719</ele>
        <time>2023-09-30T07:38:51.000Z</time>
      </trkpt>
      <trkpt lat="46.01384" lon="6.79751">
        <ele>1742.5999755859</ele>
        <time>2023-09-30T07:38:52.000Z</time>
      </trkpt>
      <trkpt lat="46.01385" lon="6.79752">
        <ele>1742.5999755859</ele>
        <time>2023-09-30T07:38:53.000Z</time>
      </trkpt>
      <trkpt lat="46.01385" lon="6.79753">
        <ele>1742.8000488281</ele>
        <time>2023-09-30T07:38:54.000Z</time>
      </trkpt>
      <trkpt lat="46.01386" lon="6.79753">
        <ele>1742.8000488281</ele>
        <time>2023-09-30T07:38:55.000Z</time>
      </trkpt>
      <trkpt lat="46.01387" lon="6.79754">
        <ele>1743</ele>
        <time>2023-09-30T07:38:56.000Z</time>
      </trkpt>
      <trkpt lat="46.01387" lon="6.79755">
        <ele>1743.1999511719</ele>
        <time>2023-09-30T07:38:57.000Z</time>
      </trkpt>
      <trkpt lat="46.01388" lon="6.79755">
        <ele>1743.4000244141</ele>
        <time>2023-09-30T07:38:58.000Z</time>
      </trkpt>
      <trkpt lat="46.01388" lon="6.79756">
        <ele>1743.4000244141</ele>
        <time>2023-09-30T07:38:59.000Z</time>
      </trkpt>
      <trkpt lat="46.01389" lon="6.79757">
        <ele>1743.5999755859</ele>
        <time>2023-09-30T07:39:00.000Z</time>
      </trkpt>
      <trkpt lat="46.0139" lon="6.79757">
        <ele>1743.8000488281</ele>
        <time>2023-09-30T07:39:01.000Z</time>
      </trkpt>
      <trkpt lat="46.0139" lon="6.79758">
        <ele>1744</ele>
        <time>2023-09-30T07:39:02.000Z</time>
      </trkpt>
      <trkpt lat="46.01391" lon="6.79759">
        <ele>1744.1999511719</ele>
        <time>2023-09-30T07:39:03.000Z</time>
      </trkpt>
      <trkpt lat="46.01392" lon="6.79759">
        <ele>1744.1999511719</ele>
        <time>2023-09-30T07:39:04.000Z</time>
      </trkpt>
      <trkpt lat="46.01393" lon="6.7976">
        <ele>1744.4000244141</ele>
        <time>2023-09-30T07:39:05.000Z</time>
      </trkpt>
      <trkpt lat="46.01393" lon="6.7976">
        <ele>1744.4000244141</ele>
        <time>2023-09-30T07:39:06.000Z</time>
      </trkpt>
      <trkpt lat="46.01394" lon="6.79761">
        <ele>1744.8000488281</ele>
        <time>2023-09-30T07:39:07.000Z</time>
      </trkpt>
      <trkpt lat="46.01395" lon="6.79761">
        <ele>1744.8000488281</ele>
        <time>2023-09-30T07:39:08.000Z</time>
      </trkpt>
      <trkpt lat="46.01395" lon="6.79762">
        <ele>1745.1999511719</ele>
        <time>2023-09-30T07:39:09.000Z</time>
      </trkpt>
      <trkpt lat="46.01395" lon="6.79763">
        <ele>1745.4000244141</ele>
        <time>2023-09-30T07:39:10.000Z</time>
      </trkpt>
      <trkpt lat="46.01396" lon="6.79764">
        <ele>1745.4000244141</ele>
        <time>2023-09-30T07:39:11.000Z</time>
      </trkpt>
      <trkpt lat="46.01396" lon="6.79765">
        <ele>1745.5999755859</ele>
        <time>2023-09-30T07:39:12.000Z</time>
      </trkpt>
      <trkpt lat="46.01396" lon="6.79766">
        <ele>1745.8000488281</ele>
        <time>2023-09-30T07:39:13.000Z</time>
      </trkpt>
      <trkpt lat="46.01397" lon="6.79767">
        <ele>1745.8000488281</ele>
        <time>2023-09-30T07:39:14.000Z</time>
      </trkpt>
      <trkpt lat="46.01397" lon="6.79769">
        <ele>1746</ele>
        <time>2023-09-30T07:39:15.000Z</time>
      </trkpt>
      <trkpt lat="46.01397" lon="6.7977">
        <ele>1746.1999511719</ele>
        <time>2023-09-30T07:39:16.000Z</time>
      </trkpt>
      <trkpt lat="46.01397" lon="6.79771">
        <ele>1746.5999755859</ele>
        <time>2023-09-30T07:39:17.000Z</time>
      </trkpt>
      <trkpt lat="46.01398" lon="6.79772">
        <ele>1746.5999755859</ele>
        <time>2023-09-30T07:39:18.000Z</time>
      </trkpt>
      <trkpt lat="46.01398" lon="6.79773">
        <ele>1746.8000488281</ele>
        <time>2023-09-30T07:39:19.000Z</time>
      </trkpt>
      <trkpt lat="46.01398" lon="6.79774">
        <ele>1747</ele>
        <time>2023-09-30T07:39:20.000Z</time>
      </trkpt>
      <trkpt lat="46.01398" lon="6.79776">
        <ele>1747</ele>
        <time>2023-09-30T07:39:21.000Z</time>
      </trkpt>
      <trkpt lat="46.01398" lon="6.79777">
        <ele>1747.1999511719</ele>
        <time>2023-09-30T07:39:22.000Z</time>
      </trkpt>
      <trkpt lat="46.01398" lon="6.79778">
        <ele>1747.1999511719</ele>
        <time>2023-09-30T07:39:23.000Z</time>
      </trkpt>
      <trkpt lat="46.01398" lon="6.79779">
        <ele>1747.4000244141</ele>
        <time>2023-09-30T07:39:24.000Z</time>
      </trkpt>
      <trkpt lat="46.01398" lon="6.7978">
        <ele>1747.4000244141</ele>
        <time>2023-09-30T07:39:25.000Z</time>
      </trkpt>
      <trkpt lat="46.01398" lon="6.79782">
        <ele>1747.5999755859</ele>
        <time>2023-09-30T07:39:26.000Z</time>
      </trkpt>
      <trkpt lat="46.01398" lon="6.79783">
        <ele>1747.8000488281</ele>
        <time>2023-09-30T07:39:27.000Z</time>
      </trkpt>
      <trkpt lat="46.01398" lon="6.79784">
        <ele>1747.8000488281</ele>
        <time>2023-09-30T07:39:28.000Z</time>
      </trkpt>
      <trkpt lat="46.01398" lon="6.79785">
        <ele>1748</ele>
        <time>2023-09-30T07:39:29.000Z</time>
      </trkpt>
      <trkpt lat="46.01398" lon="6.79786">
        <ele>1748.1999511719</ele>
        <time>2023-09-30T07:39:30.000Z</time>
      </trkpt>
      <trkpt lat="46.01398" lon="6.79788">
        <ele>1748.5999755859</ele>
        <time>2023-09-30T07:39:31.000Z</time>
      </trkpt>
      <trkpt lat="46.01398" lon="6.79789">
        <ele>1748.8000488281</ele>
        <time>2023-09-30T07:39:32.000Z</time>
      </trkpt>
      <trkpt lat="46.01398" lon="6.7979">
        <ele>1749</ele>
        <time>2023-09-30T07:39:33.000Z</time>
      </trkpt>
      <trkpt lat="46.01398" lon="6.79791">
        <ele>1749.1999511719</ele>
        <time>2023-09-30T07:39:34.000Z</time>
      </trkpt>
      <trkpt lat="46.01397" lon="6.79792">
        <ele>1749.1999511719</ele>
        <time>2023-09-30T07:39:35.000Z</time>
      </trkpt>
      <trkpt lat="46.01397" lon="6.79793">
        <ele>1749.4000244141</ele>
        <time>2023-09-30T07:39:36.000Z</time>
      </trkpt>
      <trkpt lat="46.01397" lon="6.79794">
        <ele>1749.4000244141</ele>
        <time>2023-09-30T07:39:37.000Z</time>
      </trkpt>
      <trkpt lat="46.01397" lon="6.79795">
        <ele>1749.5999755859</ele>
        <time>2023-09-30T07:39:38.000Z</time>
      </trkpt>
      <trkpt lat="46.01397" lon="6.79795">
        <ele>1749.5999755859</ele>
        <time>2023-09-30T07:39:39.000Z</time>
      </trkpt>
      <trkpt lat="46.01397" lon="6.79795">
        <ele>1749.8000488281</ele>
        <time>2023-09-30T07:39:40.000Z</time>
      </trkpt>
      <trkpt lat="46.01397" lon="6.79795">
        <ele>1750.1999511719</ele>
        <time>2023-09-30T07:39:42.000Z</time>
      </trkpt>
      <trkpt lat="46.01396" lon="6.79796">
        <ele>1750.8000488281</ele>
        <time>2023-09-30T07:39:47.000Z</time>
      </trkpt>
      <trkpt lat="46.01396" lon="6.79798">
        <ele>1750.8000488281</ele>
        <time>2023-09-30T07:39:48.000Z</time>
      </trkpt>
      <trkpt lat="46.01396" lon="6.79799">
        <ele>1750.8000488281</ele>
        <time>2023-09-30T07:39:49.000Z</time>
      </trkpt>
      <trkpt lat="46.01396" lon="6.798">
        <ele>1750.8000488281</ele>
        <time>2023-09-30T07:39:50.000Z</time>
      </trkpt>
      <trkpt lat="46.01396" lon="6.79801">
        <ele>1750.8000488281</ele>
        <time>2023-09-30T07:39:51.000Z</time>
      </trkpt>
      <trkpt lat="46.01396" lon="6.79803">
        <ele>1751</ele>
        <time>2023-09-30T07:39:52.000Z</time>
      </trkpt>
      <trkpt lat="46.01396" lon="6.79804">
        <ele>1751</ele>
        <time>2023-09-30T07:39:53.000Z</time>
      </trkpt>
      <trkpt lat="46.01396" lon="6.79804">
        <ele>1751</ele>
        <time>2023-09-30T07:39:54.000Z</time>
      </trkpt>
      <trkpt lat="46.01396" lon="6.79804">
        <ele>1751</ele>
        <time>2023-09-30T07:39:55.000Z</time>
      </trkpt>
      <trkpt lat="46.01396" lon="6.79805">
        <ele>1751.4000244141</ele>
        <time>2023-09-30T07:39:57.000Z</time>
      </trkpt>
      <trkpt lat="46.01395" lon="6.79806">
        <ele>1751.5999755859</ele>
        <time>2023-09-30T07:39:58.000Z</time>
      </trkpt>
      <trkpt lat="46.01395" lon="6.79807">
        <ele>1752</ele>
        <time>2023-09-30T07:39:59.000Z</time>
      </trkpt>
      <trkpt lat="46.01394" lon="6.79808">
        <ele>1752</ele>
        <time>2023-09-30T07:40:00.000Z</time>
      </trkpt>
      <trkpt lat="46.01394" lon="6.79808">
        <ele>1752.1999511719</ele>
        <time>2023-09-30T07:40:01.000Z</time>
      </trkpt>
      <trkpt lat="46.01394" lon="6.79809">
        <ele>1752.1999511719</ele>
        <time>2023-09-30T07:40:02.000Z</time>
      </trkpt>
      <trkpt lat="46.01393" lon="6.7981">
        <ele>1752.8000488281</ele>
        <time>2023-09-30T07:40:05.000Z</time>
      </trkpt>
      <trkpt lat="46.01393" lon="6.79812">
        <ele>1752.8000488281</ele>
        <time>2023-09-30T07:40:06.000Z</time>
      </trkpt>
      <trkpt lat="46.01393" lon="6.79813">
        <ele>1753</ele>
        <time>2023-09-30T07:40:07.000Z</time>
      </trkpt>
      <trkpt lat="46.01393" lon="6.79813">
        <ele>1753.1999511719</ele>
        <time>2023-09-30T07:40:08.000Z</time>
      </trkpt>
      <trkpt lat="46.01392" lon="6.79814">
        <ele>1753.1999511719</ele>
        <time>2023-09-30T07:40:09.000Z</time>
      </trkpt>
      <trkpt lat="46.01392" lon="6.79815">
        <ele>1753.5999755859</ele>
        <time>2023-09-30T07:40:10.000Z</time>
      </trkpt>
      <trkpt lat="46.01392" lon="6.79815">
        <ele>1753.5999755859</ele>
        <time>2023-09-30T07:40:11.000Z</time>
      </trkpt>
      <trkpt lat="46.01391" lon="6.79816">
        <ele>1753.8000488281</ele>
        <time>2023-09-30T07:40:12.000Z</time>
      </trkpt>
      <trkpt lat="46.01391" lon="6.79817">
        <ele>1754</ele>
        <time>2023-09-30T07:40:13.000Z</time>
      </trkpt>
      <trkpt lat="46.01391" lon="6.79818">
        <ele>1754</ele>
        <time>2023-09-30T07:40:14.000Z</time>
      </trkpt>
      <trkpt lat="46.01391" lon="6.79819">
        <ele>1754.4000244141</ele>
        <time>2023-09-30T07:40:15.000Z</time>
      </trkpt>
      <trkpt lat="46.01391" lon="6.7982">
        <ele>1754.4000244141</ele>
        <time>2023-09-30T07:40:16.000Z</time>
      </trkpt>
      <trkpt lat="46.0139" lon="6.79821">
        <ele>1754.5999755859</ele>
        <time>2023-09-30T07:40:17.000Z</time>
      </trkpt>
      <trkpt lat="46.0139" lon="6.79822">
        <ele>1754.8000488281</ele>
        <time>2023-09-30T07:40:18.000Z</time>
      </trkpt>
      <trkpt lat="46.0139" lon="6.79823">
        <ele>1755</ele>
        <time>2023-09-30T07:40:19.000Z</time>
      </trkpt>
      <trkpt lat="46.0139" lon="6.79824">
        <ele>1755.1999511719</ele>
        <time>2023-09-30T07:40:20.000Z</time>
      </trkpt>
      <trkpt lat="46.0139" lon="6.79825">
        <ele>1755.4000244141</ele>
        <time>2023-09-30T07:40:21.000Z</time>
      </trkpt>
      <trkpt lat="46.0139" lon="6.79826">
        <ele>1755.5999755859</ele>
        <time>2023-09-30T07:40:22.000Z</time>
      </trkpt>
      <trkpt lat="46.0139" lon="6.79827">
        <ele>1755.5999755859</ele>
        <time>2023-09-30T07:40:23.000Z</time>
      </trkpt>
      <trkpt lat="46.0139" lon="6.79828">
        <ele>1755.8000488281</ele>
        <time>2023-09-30T07:40:24.000Z</time>
      </trkpt>
      <trkpt lat="46.0139" lon="6.79829">
        <ele>1756.1999511719</ele>
        <time>2023-09-30T07:40:25.000Z</time>
      </trkpt>
      <trkpt lat="46.01389" lon="6.79829">
        <ele>1756.1999511719</ele>
        <time>2023-09-30T07:40:26.000Z</time>
      </trkpt>
      <trkpt lat="46.01389" lon="6.7983">
        <ele>1756.4000244141</ele>
        <time>2023-09-30T07:40:27.000Z</time>
      </trkpt>
      <trkpt lat="46.01389" lon="6.79831">
        <ele>1756.5999755859</ele>
        <time>2023-09-30T07:40:28.000Z</time>
      </trkpt>
      <trkpt lat="46.01389" lon="6.79832">
        <ele>1756.5999755859</ele>
        <time>2023-09-30T07:40:29.000Z</time>
      </trkpt>
      <trkpt lat="46.01388" lon="6.79832">
        <ele>1757</ele>
        <time>2023-09-30T07:40:30.000Z</time>
      </trkpt>
      <trkpt lat="46.01388" lon="6.79833">
        <ele>1757.1999511719</ele>
        <time>2023-09-30T07:40:31.000Z</time>
      </trkpt>
      <trkpt lat="46.01387" lon="6.79834">
        <ele>1757.4000244141</ele>
        <time>2023-09-30T07:40:32.000Z</time>
      </trkpt>
      <trkpt lat="46.01387" lon="6.79834">
        <ele>1757.4000244141</ele>
        <time>2023-09-30T07:40:33.000Z</time>
      </trkpt>
      <trkpt lat="46.01386" lon="6.79835">
        <ele>1757.5999755859</ele>
        <time>2023-09-30T07:40:34.000Z</time>
      </trkpt>
      <trkpt lat="46.01385" lon="6.79836">
        <ele>1757.8000488281</ele>
        <time>2023-09-30T07:40:35.000Z</time>
      </trkpt>
      <trkpt lat="46.01385" lon="6.79836">
        <ele>1757.8000488281</ele>
        <time>2023-09-30T07:40:36.000Z</time>
      </trkpt>
      <trkpt lat="46.01384" lon="6.79837">
        <ele>1757.8000488281</ele>
        <time>2023-09-30T07:40:37.000Z</time>
      </trkpt>
      <trkpt lat="46.01383" lon="6.79837">
        <ele>1758</ele>
        <time>2023-09-30T07:40:38.000Z</time>
      </trkpt>
      <trkpt lat="46.01383" lon="6.79838">
        <ele>1758.5999755859</ele>
        <time>2023-09-30T07:40:39.000Z</time>
      </trkpt>
      <trkpt lat="46.01382" lon="6.79839">
        <ele>1758.5999755859</ele>
        <time>2023-09-30T07:40:40.000Z</time>
      </trkpt>
      <trkpt lat="46.01382" lon="6.7984">
        <ele>1758.8000488281</ele>
        <time>2023-09-30T07:40:41.000Z</time>
      </trkpt>
      <trkpt lat="46.01381" lon="6.7984">
        <ele>1759</ele>
        <time>2023-09-30T07:40:42.000Z</time>
      </trkpt>
      <trkpt lat="46.01381" lon="6.79841">
        <ele>1759.1999511719</ele>
        <time>2023-09-30T07:40:43.000Z</time>
      </trkpt>
      <trkpt lat="46.0138" lon="6.79842">
        <ele>1759.1999511719</ele>
        <time>2023-09-30T07:40:44.000Z</time>
      </trkpt>
      <trkpt lat="46.0138" lon="6.79843">
        <ele>1759.4000244141</ele>
        <time>2023-09-30T07:40:45.000Z</time>
      </trkpt>
      <trkpt lat="46.01381" lon="6.79844">
        <ele>1759.8000488281</ele>
        <time>2023-09-30T07:40:46.000Z</time>
      </trkpt>
      <trkpt lat="46.01381" lon="6.79845">
        <ele>1760</ele>
        <time>2023-09-30T07:40:47.000Z</time>
      </trkpt>
      <trkpt lat="46.01381" lon="6.79846">
        <ele>1760</ele>
        <time>2023-09-30T07:40:48.000Z</time>
      </trkpt>
      <trkpt lat="46.01382" lon="6.79847">
        <ele>1760.1999511719</ele>
        <time>2023-09-30T07:40:49.000Z</time>
      </trkpt>
      <trkpt lat="46.01382" lon="6.79848">
        <ele>1760.4000244141</ele>
        <time>2023-09-30T07:40:50.000Z</time>
      </trkpt>
      <trkpt lat="46.01382" lon="6.79849">
        <ele>1760.4000244141</ele>
        <time>2023-09-30T07:40:51.000Z</time>
      </trkpt>
      <trkpt lat="46.01382" lon="6.7985">
        <ele>1760.5999755859</ele>
        <time>2023-09-30T07:40:52.000Z</time>
      </trkpt>
      <trkpt lat="46.01382" lon="6.79851">
        <ele>1760.5999755859</ele>
        <time>2023-09-30T07:40:53.000Z</time>
      </trkpt>
      <trkpt lat="46.01381" lon="6.79852">
        <ele>1760.5999755859</ele>
        <time>2023-09-30T07:40:54.000Z</time>
      </trkpt>
      <trkpt lat="46.01381" lon="6.79853">
        <ele>1760.5999755859</ele>
        <time>2023-09-30T07:40:55.000Z</time>
      </trkpt>
      <trkpt lat="46.01381" lon="6.79854">
        <ele>1760.8000488281</ele>
        <time>2023-09-30T07:40:56.000Z</time>
      </trkpt>
      <trkpt lat="46.0138" lon="6.79855">
        <ele>1761</ele>
        <time>2023-09-30T07:40:57.000Z</time>
      </trkpt>
      <trkpt lat="46.0138" lon="6.79856">
        <ele>1761.1999511719</ele>
        <time>2023-09-30T07:40:58.000Z</time>
      </trkpt>
      <trkpt lat="46.0138" lon="6.79857">
        <ele>1761.4000244141</ele>
        <time>2023-09-30T07:40:59.000Z</time>
      </trkpt>
      <trkpt lat="46.01381" lon="6.79859">
        <ele>1761.5999755859</ele>
        <time>2023-09-30T07:41:00.000Z</time>
      </trkpt>
      <trkpt lat="46.01381" lon="6.7986">
        <ele>1761.5999755859</ele>
        <time>2023-09-30T07:41:01.000Z</time>
      </trkpt>
      <trkpt lat="46.01382" lon="6.7986">
        <ele>1761.8000488281</ele>
        <time>2023-09-30T07:41:02.000Z</time>
      </trkpt>
      <trkpt lat="46.01382" lon="6.79861">
        <ele>1762</ele>
        <time>2023-09-30T07:41:03.000Z</time>
      </trkpt>
      <trkpt lat="46.01382" lon="6.79861">
        <ele>1762.1999511719</ele>
        <time>2023-09-30T07:41:04.000Z</time>
      </trkpt>
      <trkpt lat="46.01383" lon="6.79862">
        <ele>1762.4000244141</ele>
        <time>2023-09-30T07:41:05.000Z</time>
      </trkpt>
      <trkpt lat="46.01383" lon="6.79862">
        <ele>1762.4000244141</ele>
        <time>2023-09-30T07:41:06.000Z</time>
      </trkpt>
      <trkpt lat="46.01384" lon="6.79862">
        <ele>1762.5999755859</ele>
        <time>2023-09-30T07:41:07.000Z</time>
      </trkpt>
      <trkpt lat="46.01384" lon="6.79862">
        <ele>1762.8000488281</ele>
        <time>2023-09-30T07:41:08.000Z</time>
      </trkpt>
      <trkpt lat="46.01384" lon="6.79863">
        <ele>1762.8000488281</ele>
        <time>2023-09-30T07:41:09.000Z</time>
      </trkpt>
      <trkpt lat="46.01384" lon="6.79863">
        <ele>1763</ele>
        <time>2023-09-30T07:41:10.000Z</time>
      </trkpt>
      <trkpt lat="46.01385" lon="6.79864">
        <ele>1763.1999511719</ele>
        <time>2023-09-30T07:41:11.000Z</time>
      </trkpt>
      <trkpt lat="46.01385" lon="6.79864">
        <ele>1763.4000244141</ele>
        <time>2023-09-30T07:41:12.000Z</time>
      </trkpt>
      <trkpt lat="46.01385" lon="6.79865">
        <ele>1763.5999755859</ele>
        <time>2023-09-30T07:41:13.000Z</time>
      </trkpt>
      <trkpt lat="46.01385" lon="6.79866">
        <ele>1763.8000488281</ele>
        <time>2023-09-30T07:41:14.000Z</time>
      </trkpt>
      <trkpt lat="46.01386" lon="6.79867">
        <ele>1763.8000488281</ele>
        <time>2023-09-30T07:41:15.000Z</time>
      </trkpt>
      <trkpt lat="46.01385" lon="6.79869">
        <ele>1764</ele>
        <time>2023-09-30T07:41:16.000Z</time>
      </trkpt>
      <trkpt lat="46.01385" lon="6.7987">
        <ele>1764.1999511719</ele>
        <time>2023-09-30T07:41:17.000Z</time>
      </trkpt>
      <trkpt lat="46.01385" lon="6.79872">
        <ele>1764.1999511719</ele>
        <time>2023-09-30T07:41:18.000Z</time>
      </trkpt>
      <trkpt lat="46.01385" lon="6.79873">
        <ele>1764.4000244141</ele>
        <time>2023-09-30T07:41:19.000Z</time>
      </trkpt>
      <trkpt lat="46.01385" lon="6.79874">
        <ele>1764.4000244141</ele>
        <time>2023-09-30T07:41:20.000Z</time>
      </trkpt>
      <trkpt lat="46.01385" lon="6.79874">
        <ele>1764.5999755859</ele>
        <time>2023-09-30T07:41:21.000Z</time>
      </trkpt>
      <trkpt lat="46.01385" lon="6.79874">
        <ele>1765</ele>
        <time>2023-09-30T07:41:24.000Z</time>
      </trkpt>
      <trkpt lat="46.01385" lon="6.79875">
        <ele>1765.1999511719</ele>
        <time>2023-09-30T07:41:25.000Z</time>
      </trkpt>
      <trkpt lat="46.01385" lon="6.79876">
        <ele>1765.1999511719</ele>
        <time>2023-09-30T07:41:26.000Z</time>
      </trkpt>
      <trkpt lat="46.01385" lon="6.79877">
        <ele>1765.4000244141</ele>
        <time>2023-09-30T07:41:27.000Z</time>
      </trkpt>
      <trkpt lat="46.01384" lon="6.79878">
        <ele>1765.5999755859</ele>
        <time>2023-09-30T07:41:28.000Z</time>
      </trkpt>
      <trkpt lat="46.01384" lon="6.79879">
        <ele>1765.5999755859</ele>
        <time>2023-09-30T07:41:29.000Z</time>
      </trkpt>
      <trkpt lat="46.01384" lon="6.79879">
        <ele>1765.8000488281</ele>
        <time>2023-09-30T07:41:30.000Z</time>
      </trkpt>
      <trkpt lat="46.01384" lon="6.79881">
        <ele>1766</ele>
        <time>2023-09-30T07:41:31.000Z</time>
      </trkpt>
      <trkpt lat="46.01384" lon="6.79882">
        <ele>1766</ele>
        <time>2023-09-30T07:41:32.000Z</time>
      </trkpt>
      <trkpt lat="46.01383" lon="6.79883">
        <ele>1766</ele>
        <time>2023-09-30T07:41:33.000Z</time>
      </trkpt>
      <trkpt lat="46.01383" lon="6.79884">
        <ele>1766.1999511719</ele>
        <time>2023-09-30T07:41:34.000Z</time>
      </trkpt>
      <trkpt lat="46.01383" lon="6.79885">
        <ele>1766.1999511719</ele>
        <time>2023-09-30T07:41:35.000Z</time>
      </trkpt>
      <trkpt lat="46.01383" lon="6.79886">
        <ele>1766.4000244141</ele>
        <time>2023-09-30T07:41:36.000Z</time>
      </trkpt>
      <trkpt lat="46.01384" lon="6.79886">
        <ele>1766.5999755859</ele>
        <time>2023-09-30T07:41:37.000Z</time>
      </trkpt>
      <trkpt lat="46.01385" lon="6.79887">
        <ele>1766.5999755859</ele>
        <time>2023-09-30T07:41:38.000Z</time>
      </trkpt>
      <trkpt lat="46.01385" lon="6.79888">
        <ele>1767</ele>
        <time>2023-09-30T07:41:39.000Z</time>
      </trkpt>
      <trkpt lat="46.01386" lon="6.79889">
        <ele>1767</ele>
        <time>2023-09-30T07:41:40.000Z</time>
      </trkpt>
      <trkpt lat="46.01386" lon="6.7989">
        <ele>1767.1999511719</ele>
        <time>2023-09-30T07:41:41.000Z</time>
      </trkpt>
      <trkpt lat="46.01387" lon="6.79892">
        <ele>1767.4000244141</ele>
        <time>2023-09-30T07:41:42.000Z</time>
      </trkpt>
      <trkpt lat="46.01388" lon="6.79892">
        <ele>1767.4000244141</ele>
        <time>2023-09-30T07:41:43.000Z</time>
      </trkpt>
      <trkpt lat="46.01388" lon="6.79893">
        <ele>1767.5999755859</ele>
        <time>2023-09-30T07:41:44.000Z</time>
      </trkpt>
      <trkpt lat="46.01388" lon="6.79894">
        <ele>1767.8000488281</ele>
        <time>2023-09-30T07:41:45.000Z</time>
      </trkpt>
      <trkpt lat="46.01389" lon="6.79895">
        <ele>1768</ele>
        <time>2023-09-30T07:41:46.000Z</time>
      </trkpt>
      <trkpt lat="46.01389" lon="6.79896">
        <ele>1768.1999511719</ele>
        <time>2023-09-30T07:41:47.000Z</time>
      </trkpt>
      <trkpt lat="46.01389" lon="6.79897">
        <ele>1768.4000244141</ele>
        <time>2023-09-30T07:41:48.000Z</time>
      </trkpt>
      <trkpt lat="46.0139" lon="6.79898">
        <ele>1768.5999755859</ele>
        <time>2023-09-30T07:41:49.000Z</time>
      </trkpt>
      <trkpt lat="46.0139" lon="6.79899">
        <ele>1768.5999755859</ele>
        <time>2023-09-30T07:41:50.000Z</time>
      </trkpt>
      <trkpt lat="46.0139" lon="6.799">
        <ele>1768.8000488281</ele>
        <time>2023-09-30T07:41:51.000Z</time>
      </trkpt>
      <trkpt lat="46.01391" lon="6.79901">
        <ele>1769</ele>
        <time>2023-09-30T07:41:52.000Z</time>
      </trkpt>
      <trkpt lat="46.01391" lon="6.79901">
        <ele>1769.1999511719</ele>
        <time>2023-09-30T07:41:53.000Z</time>
      </trkpt>
      <trkpt lat="46.01391" lon="6.79902">
        <ele>1769.1999511719</ele>
        <time>2023-09-30T07:41:54.000Z</time>
      </trkpt>
      <trkpt lat="46.01392" lon="6.79903">
        <ele>1769.4000244141</ele>
        <time>2023-09-30T07:41:55.000Z</time>
      </trkpt>
      <trkpt lat="46.01392" lon="6.79904">
        <ele>1769.5999755859</ele>
        <time>2023-09-30T07:41:56.000Z</time>
      </trkpt>
      <trkpt lat="46.01393" lon="6.79906">
        <ele>1769.8000488281</ele>
        <time>2023-09-30T07:41:57.000Z</time>
      </trkpt>
      <trkpt lat="46.01393" lon="6.79907">
        <ele>1770</ele>
        <time>2023-09-30T07:41:58.000Z</time>
      </trkpt>
      <trkpt lat="46.01394" lon="6.79908">
        <ele>1770.1999511719</ele>
        <time>2023-09-30T07:41:59.000Z</time>
      </trkpt>
      <trkpt lat="46.01394" lon="6.79909">
        <ele>1770.4000244141</ele>
        <time>2023-09-30T07:42:00.000Z</time>
      </trkpt>
      <trkpt lat="46.01395" lon="6.7991">
        <ele>1770.5999755859</ele>
        <time>2023-09-30T07:42:01.000Z</time>
      </trkpt>
      <trkpt lat="46.01395" lon="6.79912">
        <ele>1770.5999755859</ele>
        <time>2023-09-30T07:42:02.000Z</time>
      </trkpt>
      <trkpt lat="46.01396" lon="6.79913">
        <ele>1770.8000488281</ele>
        <time>2023-09-30T07:42:03.000Z</time>
      </trkpt>
      <trkpt lat="46.01396" lon="6.79914">
        <ele>1771</ele>
        <time>2023-09-30T07:42:04.000Z</time>
      </trkpt>
      <trkpt lat="46.01396" lon="6.79914">
        <ele>1771.1999511719</ele>
        <time>2023-09-30T07:42:05.000Z</time>
      </trkpt>
      <trkpt lat="46.01397" lon="6.79914">
        <ele>1771.1999511719</ele>
        <time>2023-09-30T07:42:06.000Z</time>
      </trkpt>
      <trkpt lat="46.01398" lon="6.79914">
        <ele>1771.4000244141</ele>
        <time>2023-09-30T07:42:07.000Z</time>
      </trkpt>
      <trkpt lat="46.014" lon="6.79914">
        <ele>1771.4000244141</ele>
        <time>2023-09-30T07:42:08.000Z</time>
      </trkpt>
      <trkpt lat="46.01401" lon="6.79914">
        <ele>1771.5999755859</ele>
        <time>2023-09-30T07:42:09.000Z</time>
      </trkpt>
      <trkpt lat="46.01402" lon="6.79914">
        <ele>1771.5999755859</ele>
        <time>2023-09-30T07:42:10.000Z</time>
      </trkpt>
      <trkpt lat="46.01403" lon="6.79913">
        <ele>1771.8000488281</ele>
        <time>2023-09-30T07:42:11.000Z</time>
      </trkpt>
      <trkpt lat="46.01404" lon="6.79913">
        <ele>1772</ele>
        <time>2023-09-30T07:42:12.000Z</time>
      </trkpt>
      <trkpt lat="46.01404" lon="6.79914">
        <ele>1772</ele>
        <time>2023-09-30T07:42:13.000Z</time>
      </trkpt>
      <trkpt lat="46.01406" lon="6.79914">
        <ele>1772.1999511719</ele>
        <time>2023-09-30T07:42:14.000Z</time>
      </trkpt>
      <trkpt lat="46.01407" lon="6.79915">
        <ele>1772.1999511719</ele>
        <time>2023-09-30T07:42:15.000Z</time>
      </trkpt>
      <trkpt lat="46.01408" lon="6.79916">
        <ele>1772.4000244141</ele>
        <time>2023-09-30T07:42:16.000Z</time>
      </trkpt>
      <trkpt lat="46.01409" lon="6.79916">
        <ele>1772.5999755859</ele>
        <time>2023-09-30T07:42:17.000Z</time>
      </trkpt>
      <trkpt lat="46.0141" lon="6.79917">
        <ele>1772.5999755859</ele>
        <time>2023-09-30T07:42:18.000Z</time>
      </trkpt>
      <trkpt lat="46.01411" lon="6.79917">
        <ele>1772.8000488281</ele>
        <time>2023-09-30T07:42:19.000Z</time>
      </trkpt>
      <trkpt lat="46.01411" lon="6.79917">
        <ele>1772.8000488281</ele>
        <time>2023-09-30T07:42:20.000Z</time>
      </trkpt>
      <trkpt lat="46.01411" lon="6.79917">
        <ele>1773.1999511719</ele>
        <time>2023-09-30T07:42:23.000Z</time>
      </trkpt>
      <trkpt lat="46.01411" lon="6.79917">
        <ele>1773.4000244141</ele>
        <time>2023-09-30T07:42:28.000Z</time>
      </trkpt>
      <trkpt lat="46.01412" lon="6.79918">
        <ele>1773.8000488281</ele>
        <time>2023-09-30T07:42:36.000Z</time>
      </trkpt>
      <trkpt lat="46.01413" lon="6.79919">
        <ele>1773.8000488281</ele>
        <time>2023-09-30T07:42:37.000Z</time>
      </trkpt>
      <trkpt lat="46.01414" lon="6.7992">
        <ele>1773.8000488281</ele>
        <time>2023-09-30T07:42:38.000Z</time>
      </trkpt>
      <trkpt lat="46.01414" lon="6.79921">
        <ele>1773.8000488281</ele>
        <time>2023-09-30T07:42:39.000Z</time>
      </trkpt>
      <trkpt lat="46.01415" lon="6.79923">
        <ele>1773.8000488281</ele>
        <time>2023-09-30T07:42:40.000Z</time>
      </trkpt>
      <trkpt lat="46.01415" lon="6.79924">
        <ele>1773.8000488281</ele>
        <time>2023-09-30T07:42:41.000Z</time>
      </trkpt>
      <trkpt lat="46.01416" lon="6.79926">
        <ele>1774</ele>
        <time>2023-09-30T07:42:42.000Z</time>
      </trkpt>
      <trkpt lat="46.01416" lon="6.79927">
        <ele>1774.1999511719</ele>
        <time>2023-09-30T07:42:43.000Z</time>
      </trkpt>
      <trkpt lat="46.01417" lon="6.79931">
        <ele>1774.4000244141</ele>
        <time>2023-09-30T07:42:46.000Z</time>
      </trkpt>
      <trkpt lat="46.01418" lon="6.79932">
        <ele>1774.5999755859</ele>
        <time>2023-09-30T07:42:47.000Z</time>
      </trkpt>
      <trkpt lat="46.01418" lon="6.79933">
        <ele>1774.5999755859</ele>
        <time>2023-09-30T07:42:48.000Z</time>
      </trkpt>
      <trkpt lat="46.01418" lon="6.79935">
        <ele>1775</ele>
        <time>2023-09-30T07:42:50.000Z</time>
      </trkpt>
      <trkpt lat="46.01418" lon="6.79937">
        <ele>1775</ele>
        <time>2023-09-30T07:42:51.000Z</time>
      </trkpt>
      <trkpt lat="46.01419" lon="6.79938">
        <ele>1775.1999511719</ele>
        <time>2023-09-30T07:42:52.000Z</time>
      </trkpt>
      <trkpt lat="46.01419" lon="6.79939">
        <ele>1775.4000244141</ele>
        <time>2023-09-30T07:42:53.000Z</time>
      </trkpt>
      <trkpt lat="46.0142" lon="6.79942">
        <ele>1775.8000488281</ele>
        <time>2023-09-30T07:42:55.000Z</time>
      </trkpt>
      <trkpt lat="46.01421" lon="6.79942">
        <ele>1776.1999511719</ele>
        <time>2023-09-30T07:42:56.000Z</time>
      </trkpt>
      <trkpt lat="46.01421" lon="6.79943">
        <ele>1776.4000244141</ele>
        <time>2023-09-30T07:42:57.000Z</time>
      </trkpt>
      <trkpt lat="46.01422" lon="6.79943">
        <ele>1776.4000244141</ele>
        <time>2023-09-30T07:42:58.000Z</time>
      </trkpt>
      <trkpt lat="46.01422" lon="6.79944">
        <ele>1776.5999755859</ele>
        <time>2023-09-30T07:42:59.000Z</time>
      </trkpt>
      <trkpt lat="46.01423" lon="6.79944">
        <ele>1776.5999755859</ele>
        <time>2023-09-30T07:43:00.000Z</time>
      </trkpt>
      <trkpt lat="46.01423" lon="6.79945">
        <ele>1777</ele>
        <time>2023-09-30T07:43:01.000Z</time>
      </trkpt>
      <trkpt lat="46.01424" lon="6.79945">
        <ele>1777.1999511719</ele>
        <time>2023-09-30T07:43:02.000Z</time>
      </trkpt>
      <trkpt lat="46.01425" lon="6.79946">
        <ele>1777.4000244141</ele>
        <time>2023-09-30T07:43:03.000Z</time>
      </trkpt>
      <trkpt lat="46.01425" lon="6.79946">
        <ele>1777.8000488281</ele>
        <time>2023-09-30T07:43:04.000Z</time>
      </trkpt>
      <trkpt lat="46.01426" lon="6.79946">
        <ele>1777.8000488281</ele>
        <time>2023-09-30T07:43:05.000Z</time>
      </trkpt>
      <trkpt lat="46.01427" lon="6.79946">
        <ele>1778</ele>
        <time>2023-09-30T07:43:06.000Z</time>
      </trkpt>
      <trkpt lat="46.01428" lon="6.79947">
        <ele>1778.1999511719</ele>
        <time>2023-09-30T07:43:07.000Z</time>
      </trkpt>
      <trkpt lat="46.01429" lon="6.79947">
        <ele>1778.4000244141</ele>
        <time>2023-09-30T07:43:08.000Z</time>
      </trkpt>
      <trkpt lat="46.01429" lon="6.79946">
        <ele>1778.4000244141</ele>
        <time>2023-09-30T07:43:09.000Z</time>
      </trkpt>
      <trkpt lat="46.0143" lon="6.79946">
        <ele>1778.5999755859</ele>
        <time>2023-09-30T07:43:10.000Z</time>
      </trkpt>
      <trkpt lat="46.01431" lon="6.79946">
        <ele>1778.8000488281</ele>
        <time>2023-09-30T07:43:11.000Z</time>
      </trkpt>
      <trkpt lat="46.01432" lon="6.79946">
        <ele>1779</ele>
        <time>2023-09-30T07:43:12.000Z</time>
      </trkpt>
      <trkpt lat="46.01433" lon="6.79947">
        <ele>1779.1999511719</ele>
        <time>2023-09-30T07:43:13.000Z</time>
      </trkpt>
      <trkpt lat="46.01434" lon="6.79947">
        <ele>1779.1999511719</ele>
        <time>2023-09-30T07:43:14.000Z</time>
      </trkpt>
      <trkpt lat="46.01435" lon="6.79948">
        <ele>1779.1999511719</ele>
        <time>2023-09-30T07:43:15.000Z</time>
      </trkpt>
      <trkpt lat="46.01436" lon="6.79948">
        <ele>1779.4000244141</ele>
        <time>2023-09-30T07:43:16.000Z</time>
      </trkpt>
      <trkpt lat="46.01437" lon="6.79948">
        <ele>1779.4000244141</ele>
        <time>2023-09-30T07:43:17.000Z</time>
      </trkpt>
      <trkpt lat="46.01438" lon="6.79949">
        <ele>1779.5999755859</ele>
        <time>2023-09-30T07:43:18.000Z</time>
      </trkpt>
      <trkpt lat="46.01439" lon="6.79949">
        <ele>1779.8000488281</ele>
        <time>2023-09-30T07:43:19.000Z</time>
      </trkpt>
      <trkpt lat="46.0144" lon="6.79949">
        <ele>1780</ele>
        <time>2023-09-30T07:43:20.000Z</time>
      </trkpt>
      <trkpt lat="46.0144" lon="6.79949">
        <ele>1780</ele>
        <time>2023-09-30T07:43:21.000Z</time>
      </trkpt>
      <trkpt lat="46.01441" lon="6.79949">
        <ele>1780.1999511719</ele>
        <time>2023-09-30T07:43:22.000Z</time>
      </trkpt>
      <trkpt lat="46.01442" lon="6.7995">
        <ele>1780.4000244141</ele>
        <time>2023-09-30T07:43:23.000Z</time>
      </trkpt>
      <trkpt lat="46.01443" lon="6.7995">
        <ele>1780.5999755859</ele>
        <time>2023-09-30T07:43:24.000Z</time>
      </trkpt>
      <trkpt lat="46.01443" lon="6.79951">
        <ele>1780.8000488281</ele>
        <time>2023-09-30T07:43:25.000Z</time>
      </trkpt>
      <trkpt lat="46.01444" lon="6.79952">
        <ele>1781</ele>
        <time>2023-09-30T07:43:26.000Z</time>
      </trkpt>
      <trkpt lat="46.01445" lon="6.79953">
        <ele>1781.1999511719</ele>
        <time>2023-09-30T07:43:27.000Z</time>
      </trkpt>
      <trkpt lat="46.01446" lon="6.79954">
        <ele>1781.4000244141</ele>
        <time>2023-09-30T07:43:28.000Z</time>
      </trkpt>
      <trkpt lat="46.01446" lon="6.79954">
        <ele>1781.5999755859</ele>
        <time>2023-09-30T07:43:29.000Z</time>
      </trkpt>
      <trkpt lat="46.01447" lon="6.79955">
        <ele>1781.8000488281</ele>
        <time>2023-09-30T07:43:30.000Z</time>
      </trkpt>
      <trkpt lat="46.01447" lon="6.79955">
        <ele>1781.8000488281</ele>
        <time>2023-09-30T07:43:31.000Z</time>
      </trkpt>
      <trkpt lat="46.01447" lon="6.79956">
        <ele>1782</ele>
        <time>2023-09-30T07:43:32.000Z</time>
      </trkpt>
      <trkpt lat="46.01448" lon="6.79956">
        <ele>1782.1999511719</ele>
        <time>2023-09-30T07:43:33.000Z</time>
      </trkpt>
      <trkpt lat="46.01448" lon="6.79957">
        <ele>1782.4000244141</ele>
        <time>2023-09-30T07:43:34.000Z</time>
      </trkpt>
      <trkpt lat="46.01449" lon="6.79957">
        <ele>1782.4000244141</ele>
        <time>2023-09-30T07:43:35.000Z</time>
      </trkpt>
      <trkpt lat="46.0145" lon="6.79958">
        <ele>1782.8000488281</ele>
        <time>2023-09-30T07:43:36.000Z</time>
      </trkpt>
      <trkpt lat="46.01451" lon="6.79958">
        <ele>1783</ele>
        <time>2023-09-30T07:43:37.000Z</time>
      </trkpt>
      <trkpt lat="46.01451" lon="6.79959">
        <ele>1783</ele>
        <time>2023-09-30T07:43:38.000Z</time>
      </trkpt>
      <trkpt lat="46.01452" lon="6.79959">
        <ele>1783.4000244141</ele>
        <time>2023-09-30T07:43:39.000Z</time>
      </trkpt>
      <trkpt lat="46.01453" lon="6.79959">
        <ele>1783.4000244141</ele>
        <time>2023-09-30T07:43:40.000Z</time>
      </trkpt>
      <trkpt lat="46.01454" lon="6.79959">
        <ele>1783.4000244141</ele>
        <time>2023-09-30T07:43:41.000Z</time>
      </trkpt>
      <trkpt lat="46.01454" lon="6.7996">
        <ele>1783.5999755859</ele>
        <time>2023-09-30T07:43:42.000Z</time>
      </trkpt>
      <trkpt lat="46.01455" lon="6.7996">
        <ele>1783.8000488281</ele>
        <time>2023-09-30T07:43:43.000Z</time>
      </trkpt>
      <trkpt lat="46.01456" lon="6.7996">
        <ele>1784</ele>
        <time>2023-09-30T07:43:44.000Z</time>
      </trkpt>
      <trkpt lat="46.01457" lon="6.79961">
        <ele>1784</ele>
        <time>2023-09-30T07:43:45.000Z</time>
      </trkpt>
      <trkpt lat="46.01457" lon="6.79961">
        <ele>1784.1999511719</ele>
        <time>2023-09-30T07:43:46.000Z</time>
      </trkpt>
      <trkpt lat="46.01458" lon="6.79961">
        <ele>1784.1999511719</ele>
        <time>2023-09-30T07:43:47.000Z</time>
      </trkpt>
      <trkpt lat="46.01458" lon="6.79962">
        <ele>1784.4000244141</ele>
        <time>2023-09-30T07:43:48.000Z</time>
      </trkpt>
      <trkpt lat="46.01459" lon="6.79962">
        <ele>1784.4000244141</ele>
        <time>2023-09-30T07:43:49.000Z</time>
      </trkpt>
      <trkpt lat="46.01459" lon="6.79962">
        <ele>1785</ele>
        <time>2023-09-30T07:43:50.000Z</time>
      </trkpt>
      <trkpt lat="46.01459" lon="6.79962">
        <ele>1785.1999511719</ele>
        <time>2023-09-30T07:43:51.000Z</time>
      </trkpt>
      <trkpt lat="46.01459" lon="6.79963">
        <ele>1785.1999511719</ele>
        <time>2023-09-30T07:43:52.000Z</time>
      </trkpt>
      <trkpt lat="46.0146" lon="6.79964">
        <ele>1785.4000244141</ele>
        <time>2023-09-30T07:43:53.000Z</time>
      </trkpt>
      <trkpt lat="46.01461" lon="6.79964">
        <ele>1785.4000244141</ele>
        <time>2023-09-30T07:43:54.000Z</time>
      </trkpt>
      <trkpt lat="46.01462" lon="6.79965">
        <ele>1785.5999755859</ele>
        <time>2023-09-30T07:43:55.000Z</time>
      </trkpt>
      <trkpt lat="46.01462" lon="6.79965">
        <ele>1785.5999755859</ele>
        <time>2023-09-30T07:43:56.000Z</time>
      </trkpt>
      <trkpt lat="46.01462" lon="6.79965">
        <ele>1785.8000488281</ele>
        <time>2023-09-30T07:43:57.000Z</time>
      </trkpt>
      <trkpt lat="46.01462" lon="6.79966">
        <ele>1786</ele>
        <time>2023-09-30T07:43:58.000Z</time>
      </trkpt>
      <trkpt lat="46.01463" lon="6.79966">
        <ele>1786</ele>
        <time>2023-09-30T07:43:59.000Z</time>
      </trkpt>
      <trkpt lat="46.01464" lon="6.79966">
        <ele>1786.1999511719</ele>
        <time>2023-09-30T07:44:00.000Z</time>
      </trkpt>
      <trkpt lat="46.01465" lon="6.79966">
        <ele>1786.1999511719</ele>
        <time>2023-09-30T07:44:01.000Z</time>
      </trkpt>
      <trkpt lat="46.01465" lon="6.79965">
        <ele>1786.5999755859</ele>
        <time>2023-09-30T07:44:02.000Z</time>
      </trkpt>
      <trkpt lat="46.01466" lon="6.79965">
        <ele>1787</ele>
        <time>2023-09-30T07:44:03.000Z</time>
      </trkpt>
      <trkpt lat="46.01466" lon="6.79965">
        <ele>1787.1999511719</ele>
        <time>2023-09-30T07:44:04.000Z</time>
      </trkpt>
      <trkpt lat="46.01467" lon="6.79965">
        <ele>1787.4000244141</ele>
        <time>2023-09-30T07:44:05.000Z</time>
      </trkpt>
      <trkpt lat="46.01468" lon="6.79964">
        <ele>1787.4000244141</ele>
        <time>2023-09-30T07:44:06.000Z</time>
      </trkpt>
      <trkpt lat="46.01469" lon="6.79964">
        <ele>1787.5999755859</ele>
        <time>2023-09-30T07:44:07.000Z</time>
      </trkpt>
      <trkpt lat="46.01469" lon="6.79964">
        <ele>1787.8000488281</ele>
        <time>2023-09-30T07:44:08.000Z</time>
      </trkpt>
      <trkpt lat="46.01469" lon="6.79964">
        <ele>1788.4000244141</ele>
        <time>2023-09-30T07:44:10.000Z</time>
      </trkpt>
      <trkpt lat="46.01471" lon="6.79966">
        <ele>1788.8000488281</ele>
        <time>2023-09-30T07:44:13.000Z</time>
      </trkpt>
      <trkpt lat="46.01472" lon="6.79966">
        <ele>1789</ele>
        <time>2023-09-30T07:44:14.000Z</time>
      </trkpt>
      <trkpt lat="46.01472" lon="6.79967">
        <ele>1789</ele>
        <time>2023-09-30T07:44:15.000Z</time>
      </trkpt>
      <trkpt lat="46.01473" lon="6.79967">
        <ele>1789.1999511719</ele>
        <time>2023-09-30T07:44:16.000Z</time>
      </trkpt>
      <trkpt lat="46.01473" lon="6.79967">
        <ele>1789.4000244141</ele>
        <time>2023-09-30T07:44:17.000Z</time>
      </trkpt>
      <trkpt lat="46.01473" lon="6.79967">
        <ele>1789.5999755859</ele>
        <time>2023-09-30T07:44:19.000Z</time>
      </trkpt>
      <trkpt lat="46.01474" lon="6.79969">
        <ele>1789.8000488281</ele>
        <time>2023-09-30T07:44:24.000Z</time>
      </trkpt>
      <trkpt lat="46.01475" lon="6.7997">
        <ele>1789.8000488281</ele>
        <time>2023-09-30T07:44:25.000Z</time>
      </trkpt>
      <trkpt lat="46.01476" lon="6.79971">
        <ele>1789.8000488281</ele>
        <time>2023-09-30T07:44:26.000Z</time>
      </trkpt>
      <trkpt lat="46.01476" lon="6.79972">
        <ele>1790</ele>
        <time>2023-09-30T07:44:27.000Z</time>
      </trkpt>
      <trkpt lat="46.01477" lon="6.79973">
        <ele>1790</ele>
        <time>2023-09-30T07:44:28.000Z</time>
      </trkpt>
      <trkpt lat="46.01478" lon="6.79974">
        <ele>1790.1999511719</ele>
        <time>2023-09-30T07:44:29.000Z</time>
      </trkpt>
      <trkpt lat="46.01479" lon="6.79975">
        <ele>1790.4000244141</ele>
        <time>2023-09-30T07:44:30.000Z</time>
      </trkpt>
      <trkpt lat="46.0148" lon="6.79977">
        <ele>1790.4000244141</ele>
        <time>2023-09-30T07:44:31.000Z</time>
      </trkpt>
      <trkpt lat="46.01481" lon="6.79979">
        <ele>1790.4000244141</ele>
        <time>2023-09-30T07:44:32.000Z</time>
      </trkpt>
      <trkpt lat="46.01482" lon="6.7998">
        <ele>1790.5999755859</ele>
        <time>2023-09-30T07:44:33.000Z</time>
      </trkpt>
      <trkpt lat="46.01483" lon="6.79981">
        <ele>1790.8000488281</ele>
        <time>2023-09-30T07:44:34.000Z</time>
      </trkpt>
      <trkpt lat="46.01483" lon="6.79982">
        <ele>1791</ele>
        <time>2023-09-30T07:44:35.000Z</time>
      </trkpt>
      <trkpt lat="46.01483" lon="6.79982">
        <ele>1791</ele>
        <time>2023-09-30T07:44:36.000Z</time>
      </trkpt>
      <trkpt lat="46.01484" lon="6.79984">
        <ele>1791</ele>
        <time>2023-09-30T07:44:37.000Z</time>
      </trkpt>
      <trkpt lat="46.01484" lon="6.79984">
        <ele>1791.1999511719</ele>
        <time>2023-09-30T07:44:38.000Z</time>
      </trkpt>
      <trkpt lat="46.01485" lon="6.79985">
        <ele>1791.1999511719</ele>
        <time>2023-09-30T07:44:39.000Z</time>
      </trkpt>
      <trkpt lat="46.01485" lon="6.79986">
        <ele>1791.4000244141</ele>
        <time>2023-09-30T07:44:40.000Z</time>
      </trkpt>
      <trkpt lat="46.01486" lon="6.79987">
        <ele>1791.4000244141</ele>
        <time>2023-09-30T07:44:41.000Z</time>
      </trkpt>
      <trkpt lat="46.01487" lon="6.79988">
        <ele>1791.4000244141</ele>
        <time>2023-09-30T07:44:42.000Z</time>
      </trkpt>
      <trkpt lat="46.01487" lon="6.7999">
        <ele>1791.5999755859</ele>
        <time>2023-09-30T07:44:43.000Z</time>
      </trkpt>
      <trkpt lat="46.01488" lon="6.79991">
        <ele>1791.8000488281</ele>
        <time>2023-09-30T07:44:44.000Z</time>
      </trkpt>
      <trkpt lat="46.01488" lon="6.79992">
        <ele>1791.8000488281</ele>
        <time>2023-09-30T07:44:45.000Z</time>
      </trkpt>
      <trkpt lat="46.01489" lon="6.79993">
        <ele>1792</ele>
        <time>2023-09-30T07:44:46.000Z</time>
      </trkpt>
      <trkpt lat="46.01489" lon="6.79994">
        <ele>1792.1999511719</ele>
        <time>2023-09-30T07:44:47.000Z</time>
      </trkpt>
      <trkpt lat="46.0149" lon="6.79995">
        <ele>1792.4000244141</ele>
        <time>2023-09-30T07:44:48.000Z</time>
      </trkpt>
      <trkpt lat="46.0149" lon="6.79996">
        <ele>1792.5999755859</ele>
        <time>2023-09-30T07:44:49.000Z</time>
      </trkpt>
      <trkpt lat="46.0149" lon="6.79997">
        <ele>1792.8000488281</ele>
        <time>2023-09-30T07:44:50.000Z</time>
      </trkpt>
      <trkpt lat="46.01491" lon="6.79998">
        <ele>1793</ele>
        <time>2023-09-30T07:44:51.000Z</time>
      </trkpt>
      <trkpt lat="46.01491" lon="6.8">
        <ele>1793.1999511719</ele>
        <time>2023-09-30T07:44:52.000Z</time>
      </trkpt>
      <trkpt lat="46.01491" lon="6.80001">
        <ele>1793.4000244141</ele>
        <time>2023-09-30T07:44:53.000Z</time>
      </trkpt>
      <trkpt lat="46.01491" lon="6.80002">
        <ele>1793.5999755859</ele>
        <time>2023-09-30T07:44:54.000Z</time>
      </trkpt>
      <trkpt lat="46.01491" lon="6.80003">
        <ele>1793.5999755859</ele>
        <time>2023-09-30T07:44:55.000Z</time>
      </trkpt>
      <trkpt lat="46.01492" lon="6.80004">
        <ele>1793.8000488281</ele>
        <time>2023-09-30T07:44:56.000Z</time>
      </trkpt>
      <trkpt lat="46.01492" lon="6.80005">
        <ele>1794</ele>
        <time>2023-09-30T07:44:57.000Z</time>
      </trkpt>
      <trkpt lat="46.01492" lon="6.80006">
        <ele>1794</ele>
        <time>2023-09-30T07:44:58.000Z</time>
      </trkpt>
      <trkpt lat="46.01492" lon="6.80007">
        <ele>1794.5999755859</ele>
        <time>2023-09-30T07:44:59.000Z</time>
      </trkpt>
      <trkpt lat="46.01493" lon="6.80008">
        <ele>1794.8000488281</ele>
        <time>2023-09-30T07:45:00.000Z</time>
      </trkpt>
      <trkpt lat="46.01493" lon="6.80009">
        <ele>1795</ele>
        <time>2023-09-30T07:45:01.000Z</time>
      </trkpt>
      <trkpt lat="46.01493" lon="6.8001">
        <ele>1795.1999511719</ele>
        <time>2023-09-30T07:45:02.000Z</time>
      </trkpt>
      <trkpt lat="46.01493" lon="6.80011">
        <ele>1795.4000244141</ele>
        <time>2023-09-30T07:45:03.000Z</time>
      </trkpt>
      <trkpt lat="46.01493" lon="6.80013">
        <ele>1795.5999755859</ele>
        <time>2023-09-30T07:45:04.000Z</time>
      </trkpt>
      <trkpt lat="46.01493" lon="6.80014">
        <ele>1795.5999755859</ele>
        <time>2023-09-30T07:45:05.000Z</time>
      </trkpt>
      <trkpt lat="46.01494" lon="6.80015">
        <ele>1795.8000488281</ele>
        <time>2023-09-30T07:45:06.000Z</time>
      </trkpt>
      <trkpt lat="46.01494" lon="6.80016">
        <ele>1796</ele>
        <time>2023-09-30T07:45:07.000Z</time>
      </trkpt>
      <trkpt lat="46.01494" lon="6.80017">
        <ele>1796.1999511719</ele>
        <time>2023-09-30T07:45:08.000Z</time>
      </trkpt>
      <trkpt lat="46.01494" lon="6.80018">
        <ele>1796.4000244141</ele>
        <time>2023-09-30T07:45:09.000Z</time>
      </trkpt>
      <trkpt lat="46.01494" lon="6.80019">
        <ele>1796.4000244141</ele>
        <time>2023-09-30T07:45:10.000Z</time>
      </trkpt>
      <trkpt lat="46.01494" lon="6.8002">
        <ele>1796.5999755859</ele>
        <time>2023-09-30T07:45:11.000Z</time>
      </trkpt>
      <trkpt lat="46.01494" lon="6.80022">
        <ele>1796.5999755859</ele>
        <time>2023-09-30T07:45:12.000Z</time>
      </trkpt>
      <trkpt lat="46.01494" lon="6.80023">
        <ele>1796.8000488281</ele>
        <time>2023-09-30T07:45:13.000Z</time>
      </trkpt>
      <trkpt lat="46.01494" lon="6.80024">
        <ele>1796.8000488281</ele>
        <time>2023-09-30T07:45:14.000Z</time>
      </trkpt>
      <trkpt lat="46.01494" lon="6.80025">
        <ele>1797.1999511719</ele>
        <time>2023-09-30T07:45:15.000Z</time>
      </trkpt>
      <trkpt lat="46.01495" lon="6.80026">
        <ele>1797.1999511719</ele>
        <time>2023-09-30T07:45:16.000Z</time>
      </trkpt>
      <trkpt lat="46.01495" lon="6.80027">
        <ele>1797.1999511719</ele>
        <time>2023-09-30T07:45:17.000Z</time>
      </trkpt>
      <trkpt lat="46.01495" lon="6.80028">
        <ele>1797.4000244141</ele>
        <time>2023-09-30T07:45:18.000Z</time>
      </trkpt>
      <trkpt lat="46.01495" lon="6.80029">
        <ele>1797.5999755859</ele>
        <time>2023-09-30T07:45:19.000Z</time>
      </trkpt>
      <trkpt lat="46.01495" lon="6.8003">
        <ele>1798</ele>
        <time>2023-09-30T07:45:20.000Z</time>
      </trkpt>
      <trkpt lat="46.01495" lon="6.80031">
        <ele>1798.1999511719</ele>
        <time>2023-09-30T07:45:21.000Z</time>
      </trkpt>
      <trkpt lat="46.01495" lon="6.80033">
        <ele>1798.1999511719</ele>
        <time>2023-09-30T07:45:22.000Z</time>
      </trkpt>
      <trkpt lat="46.01495" lon="6.80034">
        <ele>1798.4000244141</ele>
        <time>2023-09-30T07:45:23.000Z</time>
      </trkpt>
      <trkpt lat="46.01494" lon="6.80035">
        <ele>1798.8000488281</ele>
        <time>2023-09-30T07:45:24.000Z</time>
      </trkpt>
      <trkpt lat="46.01494" lon="6.80037">
        <ele>1799</ele>
        <time>2023-09-30T07:45:25.000Z</time>
      </trkpt>
      <trkpt lat="46.01494" lon="6.80038">
        <ele>1799.1999511719</ele>
        <time>2023-09-30T07:45:26.000Z</time>
      </trkpt>
      <trkpt lat="46.01495" lon="6.80039">
        <ele>1799.4000244141</ele>
        <time>2023-09-30T07:45:27.000Z</time>
      </trkpt>
      <trkpt lat="46.01495" lon="6.8004">
        <ele>1799.4000244141</ele>
        <time>2023-09-30T07:45:28.000Z</time>
      </trkpt>
      <trkpt lat="46.01495" lon="6.80041">
        <ele>1799.5999755859</ele>
        <time>2023-09-30T07:45:29.000Z</time>
      </trkpt>
      <trkpt lat="46.01495" lon="6.80042">
        <ele>1799.5999755859</ele>
        <time>2023-09-30T07:45:30.000Z</time>
      </trkpt>
      <trkpt lat="46.01495" lon="6.80043">
        <ele>1800</ele>
        <time>2023-09-30T07:45:31.000Z</time>
      </trkpt>
      <trkpt lat="46.01494" lon="6.80044">
        <ele>1800.1999511719</ele>
        <time>2023-09-30T07:45:32.000Z</time>
      </trkpt>
      <trkpt lat="46.01494" lon="6.80045">
        <ele>1800.1999511719</ele>
        <time>2023-09-30T07:45:33.000Z</time>
      </trkpt>
      <trkpt lat="46.01494" lon="6.80046">
        <ele>1800.5999755859</ele>
        <time>2023-09-30T07:45:34.000Z</time>
      </trkpt>
      <trkpt lat="46.01494" lon="6.80047">
        <ele>1800.5999755859</ele>
        <time>2023-09-30T07:45:35.000Z</time>
      </trkpt>
      <trkpt lat="46.01494" lon="6.80047">
        <ele>1801</ele>
        <time>2023-09-30T07:45:36.000Z</time>
      </trkpt>
      <trkpt lat="46.01494" lon="6.80048">
        <ele>1801</ele>
        <time>2023-09-30T07:45:37.000Z</time>
      </trkpt>
      <trkpt lat="46.01493" lon="6.80049">
        <ele>1801.1999511719</ele>
        <time>2023-09-30T07:45:38.000Z</time>
      </trkpt>
      <trkpt lat="46.01493" lon="6.8005">
        <ele>1801.4000244141</ele>
        <time>2023-09-30T07:45:39.000Z</time>
      </trkpt>
      <trkpt lat="46.01493" lon="6.80052">
        <ele>1801.5999755859</ele>
        <time>2023-09-30T07:45:40.000Z</time>
      </trkpt>
      <trkpt lat="46.01493" lon="6.80053">
        <ele>1801.5999755859</ele>
        <time>2023-09-30T07:45:41.000Z</time>
      </trkpt>
      <trkpt lat="46.01493" lon="6.80054">
        <ele>1801.8000488281</ele>
        <time>2023-09-30T07:45:42.000Z</time>
      </trkpt>
      <trkpt lat="46.01493" lon="6.80055">
        <ele>1802</ele>
        <time>2023-09-30T07:45:43.000Z</time>
      </trkpt>
      <trkpt lat="46.01493" lon="6.80057">
        <ele>1802</ele>
        <time>2023-09-30T07:45:44.000Z</time>
      </trkpt>
      <trkpt lat="46.01493" lon="6.80058">
        <ele>1802.4000244141</ele>
        <time>2023-09-30T07:45:45.000Z</time>
      </trkpt>
      <trkpt lat="46.01493" lon="6.80059">
        <ele>1802.5999755859</ele>
        <time>2023-09-30T07:45:46.000Z</time>
      </trkpt>
      <trkpt lat="46.01493" lon="6.8006">
        <ele>1802.8000488281</ele>
        <time>2023-09-30T07:45:47.000Z</time>
      </trkpt>
      <trkpt lat="46.01493" lon="6.80061">
        <ele>1803</ele>
        <time>2023-09-30T07:45:48.000Z</time>
      </trkpt>
      <trkpt lat="46.01493" lon="6.80062">
        <ele>1803.1999511719</ele>
        <time>2023-09-30T07:45:49.000Z</time>
      </trkpt>
      <trkpt lat="46.01493" lon="6.80063">
        <ele>1803.4000244141</ele>
        <time>2023-09-30T07:45:50.000Z</time>
      </trkpt>
      <trkpt lat="46.01494" lon="6.80064">
        <ele>1803.5999755859</ele>
        <time>2023-09-30T07:45:51.000Z</time>
      </trkpt>
      <trkpt lat="46.01494" lon="6.80066">
        <ele>1804</ele>
        <time>2023-09-30T07:45:52.000Z</time>
      </trkpt>
      <trkpt lat="46.01493" lon="6.80067">
        <ele>1804.1999511719</ele>
        <time>2023-09-30T07:45:53.000Z</time>
      </trkpt>
      <trkpt lat="46.01493" lon="6.80068">
        <ele>1804.4000244141</ele>
        <time>2023-09-30T07:45:54.000Z</time>
      </trkpt>
      <trkpt lat="46.01493" lon="6.80069">
        <ele>1804.5999755859</ele>
        <time>2023-09-30T07:45:55.000Z</time>
      </trkpt>
      <trkpt lat="46.01493" lon="6.8007">
        <ele>1804.5999755859</ele>
        <time>2023-09-30T07:45:56.000Z</time>
      </trkpt>
      <trkpt lat="46.01493" lon="6.80071">
        <ele>1804.8000488281</ele>
        <time>2023-09-30T07:45:57.000Z</time>
      </trkpt>
      <trkpt lat="46.01493" lon="6.80072">
        <ele>1805</ele>
        <time>2023-09-30T07:45:58.000Z</time>
      </trkpt>
      <trkpt lat="46.01493" lon="6.80073">
        <ele>1805</ele>
        <time>2023-09-30T07:45:59.000Z</time>
      </trkpt>
      <trkpt lat="46.01493" lon="6.80073">
        <ele>1805.4000244141</ele>
        <time>2023-09-30T07:46:00.000Z</time>
      </trkpt>
      <trkpt lat="46.01493" lon="6.80074">
        <ele>1805.4000244141</ele>
        <time>2023-09-30T07:46:01.000Z</time>
      </trkpt>
      <trkpt lat="46.01493" lon="6.80075">
        <ele>1805.5999755859</ele>
        <time>2023-09-30T07:46:02.000Z</time>
      </trkpt>
      <trkpt lat="46.01493" lon="6.80076">
        <ele>1805.8000488281</ele>
        <time>2023-09-30T07:46:03.000Z</time>
      </trkpt>
      <trkpt lat="46.01493" lon="6.80078">
        <ele>1806</ele>
        <time>2023-09-30T07:46:04.000Z</time>
      </trkpt>
      <trkpt lat="46.01493" lon="6.80079">
        <ele>1806</ele>
        <time>2023-09-30T07:46:05.000Z</time>
      </trkpt>
      <trkpt lat="46.01493" lon="6.8008">
        <ele>1806.1999511719</ele>
        <time>2023-09-30T07:46:06.000Z</time>
      </trkpt>
      <trkpt lat="46.01493" lon="6.80081">
        <ele>1806.4000244141</ele>
        <time>2023-09-30T07:46:07.000Z</time>
      </trkpt>
      <trkpt lat="46.01493" lon="6.80082">
        <ele>1806.4000244141</ele>
        <time>2023-09-30T07:46:08.000Z</time>
      </trkpt>
      <trkpt lat="46.01493" lon="6.80083">
        <ele>1806.5999755859</ele>
        <time>2023-09-30T07:46:09.000Z</time>
      </trkpt>
      <trkpt lat="46.01493" lon="6.80084">
        <ele>1806.8000488281</ele>
        <time>2023-09-30T07:46:10.000Z</time>
      </trkpt>
      <trkpt lat="46.01493" lon="6.80085">
        <ele>1807</ele>
        <time>2023-09-30T07:46:11.000Z</time>
      </trkpt>
      <trkpt lat="46.01493" lon="6.80086">
        <ele>1807</ele>
        <time>2023-09-30T07:46:12.000Z</time>
      </trkpt>
      <trkpt lat="46.01493" lon="6.80086">
        <ele>1807</ele>
        <time>2023-09-30T07:46:13.000Z</time>
      </trkpt>
      <trkpt lat="46.01493" lon="6.80086">
        <ele>1807.4000244141</ele>
        <time>2023-09-30T07:46:14.000Z</time>
      </trkpt>
      <trkpt lat="46.01493" lon="6.80088">
        <ele>1807.8000488281</ele>
        <time>2023-09-30T07:46:16.000Z</time>
      </trkpt>
      <trkpt lat="46.01493" lon="6.80089">
        <ele>1808</ele>
        <time>2023-09-30T07:46:17.000Z</time>
      </trkpt>
      <trkpt lat="46.01493" lon="6.8009">
        <ele>1808</ele>
        <time>2023-09-30T07:46:18.000Z</time>
      </trkpt>
      <trkpt lat="46.01493" lon="6.8009">
        <ele>1808.4000244141</ele>
        <time>2023-09-30T07:46:19.000Z</time>
      </trkpt>
      <trkpt lat="46.01492" lon="6.8009">
        <ele>1808.4000244141</ele>
        <time>2023-09-30T07:46:20.000Z</time>
      </trkpt>
      <trkpt lat="46.01492" lon="6.8009">
        <ele>1808.5999755859</ele>
        <time>2023-09-30T07:46:21.000Z</time>
      </trkpt>
      <trkpt lat="46.01493" lon="6.80091">
        <ele>1808.5999755859</ele>
        <time>2023-09-30T07:46:22.000Z</time>
      </trkpt>
      <trkpt lat="46.01492" lon="6.80094">
        <ele>1809</ele>
        <time>2023-09-30T07:46:24.000Z</time>
      </trkpt>
      <trkpt lat="46.01492" lon="6.80095">
        <ele>1809</ele>
        <time>2023-09-30T07:46:25.000Z</time>
      </trkpt>
      <trkpt lat="46.01492" lon="6.80095">
        <ele>1809.1999511719</ele>
        <time>2023-09-30T07:46:26.000Z</time>
      </trkpt>
      <trkpt lat="46.01492" lon="6.80096">
        <ele>1809.4000244141</ele>
        <time>2023-09-30T07:46:27.000Z</time>
      </trkpt>
      <trkpt lat="46.01492" lon="6.80098">
        <ele>1809.5999755859</ele>
        <time>2023-09-30T07:46:28.000Z</time>
      </trkpt>
      <trkpt lat="46.01492" lon="6.80098">
        <ele>1809.5999755859</ele>
        <time>2023-09-30T07:46:29.000Z</time>
      </trkpt>
      <trkpt lat="46.01492" lon="6.80099">
        <ele>1810</ele>
        <time>2023-09-30T07:46:30.000Z</time>
      </trkpt>
      <trkpt lat="46.01491" lon="6.801">
        <ele>1810.1999511719</ele>
        <time>2023-09-30T07:46:31.000Z</time>
      </trkpt>
      <trkpt lat="46.01491" lon="6.80101">
        <ele>1810.4000244141</ele>
        <time>2023-09-30T07:46:32.000Z</time>
      </trkpt>
      <trkpt lat="46.01491" lon="6.80102">
        <ele>1810.5999755859</ele>
        <time>2023-09-30T07:46:33.000Z</time>
      </trkpt>
      <trkpt lat="46.0149" lon="6.80103">
        <ele>1810.5999755859</ele>
        <time>2023-09-30T07:46:34.000Z</time>
      </trkpt>
      <trkpt lat="46.0149" lon="6.80104">
        <ele>1810.8000488281</ele>
        <time>2023-09-30T07:46:35.000Z</time>
      </trkpt>
      <trkpt lat="46.0149" lon="6.80105">
        <ele>1810.8000488281</ele>
        <time>2023-09-30T07:46:36.000Z</time>
      </trkpt>
      <trkpt lat="46.01491" lon="6.80106">
        <ele>1811</ele>
        <time>2023-09-30T07:46:37.000Z</time>
      </trkpt>
      <trkpt lat="46.01491" lon="6.80107">
        <ele>1811.1999511719</ele>
        <time>2023-09-30T07:46:38.000Z</time>
      </trkpt>
      <trkpt lat="46.01491" lon="6.80108">
        <ele>1811.4000244141</ele>
        <time>2023-09-30T07:46:39.000Z</time>
      </trkpt>
      <trkpt lat="46.01491" lon="6.80109">
        <ele>1811.5999755859</ele>
        <time>2023-09-30T07:46:40.000Z</time>
      </trkpt>
      <trkpt lat="46.01491" lon="6.8011">
        <ele>1811.8000488281</ele>
        <time>2023-09-30T07:46:41.000Z</time>
      </trkpt>
      <trkpt lat="46.01491" lon="6.80112">
        <ele>1812</ele>
        <time>2023-09-30T07:46:42.000Z</time>
      </trkpt>
      <trkpt lat="46.01491" lon="6.80113">
        <ele>1812</ele>
        <time>2023-09-30T07:46:43.000Z</time>
      </trkpt>
      <trkpt lat="46.01491" lon="6.80114">
        <ele>1812.1999511719</ele>
        <time>2023-09-30T07:46:44.000Z</time>
      </trkpt>
      <trkpt lat="46.0149" lon="6.80115">
        <ele>1812.4000244141</ele>
        <time>2023-09-30T07:46:45.000Z</time>
      </trkpt>
      <trkpt lat="46.0149" lon="6.80117">
        <ele>1812.4000244141</ele>
        <time>2023-09-30T07:46:46.000Z</time>
      </trkpt>
      <trkpt lat="46.0149" lon="6.80117">
        <ele>1812.5999755859</ele>
        <time>2023-09-30T07:46:47.000Z</time>
      </trkpt>
      <trkpt lat="46.0149" lon="6.80118">
        <ele>1812.5999755859</ele>
        <time>2023-09-30T07:46:48.000Z</time>
      </trkpt>
      <trkpt lat="46.0149" lon="6.80119">
        <ele>1813</ele>
        <time>2023-09-30T07:46:49.000Z</time>
      </trkpt>
      <trkpt lat="46.01489" lon="6.8012">
        <ele>1813.1999511719</ele>
        <time>2023-09-30T07:46:50.000Z</time>
      </trkpt>
      <trkpt lat="46.01489" lon="6.8012">
        <ele>1813.4000244141</ele>
        <time>2023-09-30T07:46:51.000Z</time>
      </trkpt>
      <trkpt lat="46.01489" lon="6.8012">
        <ele>1813.5999755859</ele>
        <time>2023-09-30T07:46:52.000Z</time>
      </trkpt>
      <trkpt lat="46.01489" lon="6.8012">
        <ele>1814.1999511719</ele>
        <time>2023-09-30T07:46:56.000Z</time>
      </trkpt>
      <trkpt lat="46.01489" lon="6.8012">
        <ele>1814.4000244141</ele>
        <time>2023-09-30T07:46:59.000Z</time>
      </trkpt>
      <trkpt lat="46.01489" lon="6.80122">
        <ele>1814.4000244141</ele>
        <time>2023-09-30T07:47:07.000Z</time>
      </trkpt>
      <trkpt lat="46.01488" lon="6.80123">
        <ele>1814.4000244141</ele>
        <time>2023-09-30T07:47:08.000Z</time>
      </trkpt>
      <trkpt lat="46.01488" lon="6.80124">
        <ele>1814.4000244141</ele>
        <time>2023-09-30T07:47:09.000Z</time>
      </trkpt>
      <trkpt lat="46.01488" lon="6.80125">
        <ele>1814.4000244141</ele>
        <time>2023-09-30T07:47:10.000Z</time>
      </trkpt>
      <trkpt lat="46.01488" lon="6.80126">
        <ele>1814.4000244141</ele>
        <time>2023-09-30T07:47:11.000Z</time>
      </trkpt>
      <trkpt lat="46.01488" lon="6.80126">
        <ele>1814.4000244141</ele>
        <time>2023-09-30T07:47:12.000Z</time>
      </trkpt>
      <trkpt lat="46.01487" lon="6.8013">
        <ele>1815</ele>
        <time>2023-09-30T07:47:16.000Z</time>
      </trkpt>
      <trkpt lat="46.01487" lon="6.8013">
        <ele>1815.1999511719</ele>
        <time>2023-09-30T07:47:17.000Z</time>
      </trkpt>
      <trkpt lat="46.01486" lon="6.80132">
        <ele>1815.5999755859</ele>
        <time>2023-09-30T07:47:20.000Z</time>
      </trkpt>
      <trkpt lat="46.01485" lon="6.80133">
        <ele>1815.8000488281</ele>
        <time>2023-09-30T07:47:21.000Z</time>
      </trkpt>
      <trkpt lat="46.01483" lon="6.80137">
        <ele>1816.4000244141</ele>
        <time>2023-09-30T07:47:25.000Z</time>
      </trkpt>
      <trkpt lat="46.01482" lon="6.80138">
        <ele>1816.5999755859</ele>
        <time>2023-09-30T07:47:26.000Z</time>
      </trkpt>
      <trkpt lat="46.01482" lon="6.80139">
        <ele>1816.8000488281</ele>
        <time>2023-09-30T07:47:27.000Z</time>
      </trkpt>
      <trkpt lat="46.01482" lon="6.8014">
        <ele>1817.1999511719</ele>
        <time>2023-09-30T07:47:28.000Z</time>
      </trkpt>
      <trkpt lat="46.01482" lon="6.80141">
        <ele>1817.5999755859</ele>
        <time>2023-09-30T07:47:29.000Z</time>
      </trkpt>
      <trkpt lat="46.01481" lon="6.80142">
        <ele>1817.5999755859</ele>
        <time>2023-09-30T07:47:30.000Z</time>
      </trkpt>
      <trkpt lat="46.01481" lon="6.80144">
        <ele>1818</ele>
        <time>2023-09-30T07:47:31.000Z</time>
      </trkpt>
      <trkpt lat="46.01481" lon="6.80144">
        <ele>1818.1999511719</ele>
        <time>2023-09-30T07:47:32.000Z</time>
      </trkpt>
      <trkpt lat="46.01481" lon="6.80146">
        <ele>1818.4000244141</ele>
        <time>2023-09-30T07:47:33.000Z</time>
      </trkpt>
      <trkpt lat="46.0148" lon="6.80147">
        <ele>1818.5999755859</ele>
        <time>2023-09-30T07:47:34.000Z</time>
      </trkpt>
      <trkpt lat="46.01479" lon="6.80148">
        <ele>1818.5999755859</ele>
        <time>2023-09-30T07:47:35.000Z</time>
      </trkpt>
      <trkpt lat="46.01479" lon="6.80149">
        <ele>1818.8000488281</ele>
        <time>2023-09-30T07:47:36.000Z</time>
      </trkpt>
      <trkpt lat="46.01479" lon="6.8015">
        <ele>1818.8000488281</ele>
        <time>2023-09-30T07:47:37.000Z</time>
      </trkpt>
      <trkpt lat="46.01478" lon="6.80151">
        <ele>1819</ele>
        <time>2023-09-30T07:47:38.000Z</time>
      </trkpt>
      <trkpt lat="46.01478" lon="6.80152">
        <ele>1819.1999511719</ele>
        <time>2023-09-30T07:47:39.000Z</time>
      </trkpt>
      <trkpt lat="46.01478" lon="6.80153">
        <ele>1819.1999511719</ele>
        <time>2023-09-30T07:47:40.000Z</time>
      </trkpt>
      <trkpt lat="46.01477" lon="6.80154">
        <ele>1819.5999755859</ele>
        <time>2023-09-30T07:47:41.000Z</time>
      </trkpt>
      <trkpt lat="46.01477" lon="6.80155">
        <ele>1819.8000488281</ele>
        <time>2023-09-30T07:47:42.000Z</time>
      </trkpt>
      <trkpt lat="46.01476" lon="6.80156">
        <ele>1819.8000488281</ele>
        <time>2023-09-30T07:47:43.000Z</time>
      </trkpt>
      <trkpt lat="46.01476" lon="6.80156">
        <ele>1820</ele>
        <time>2023-09-30T07:47:44.000Z</time>
      </trkpt>
      <trkpt lat="46.01475" lon="6.80157">
        <ele>1820</ele>
        <time>2023-09-30T07:47:45.000Z</time>
      </trkpt>
      <trkpt lat="46.01475" lon="6.80157">
        <ele>1820.1999511719</ele>
        <time>2023-09-30T07:47:46.000Z</time>
      </trkpt>
      <trkpt lat="46.01474" lon="6.80158">
        <ele>1820.4000244141</ele>
        <time>2023-09-30T07:47:47.000Z</time>
      </trkpt>
      <trkpt lat="46.01474" lon="6.80158">
        <ele>1820.5999755859</ele>
        <time>2023-09-30T07:47:48.000Z</time>
      </trkpt>
      <trkpt lat="46.01474" lon="6.80158">
        <ele>1820.8000488281</ele>
        <time>2023-09-30T07:47:50.000Z</time>
      </trkpt>
      <trkpt lat="46.01474" lon="6.80158">
        <ele>1820.5999755859</ele>
        <time>2023-09-30T07:48:42.000Z</time>
      </trkpt>
      <trkpt lat="46.01474" lon="6.80158">
        <ele>1820.4000244141</ele>
        <time>2023-09-30T07:50:26.000Z</time>
      </trkpt>
      <trkpt lat="46.0147" lon="6.80161">
        <ele>1821.4000244141</ele>
        <time>2023-09-30T07:53:14.000Z</time>
      </trkpt>
      <trkpt lat="46.01465" lon="6.80166">
        <ele>1822.4000244141</ele>
        <time>2023-09-30T07:53:21.000Z</time>
      </trkpt>
      <trkpt lat="46.01464" lon="6.80167">
        <ele>1822.8000488281</ele>
        <time>2023-09-30T07:53:23.000Z</time>
      </trkpt>
      <trkpt lat="46.01463" lon="6.80167">
        <ele>1823</ele>
        <time>2023-09-30T07:53:24.000Z</time>
      </trkpt>
      <trkpt lat="46.01463" lon="6.80168">
        <ele>1823</ele>
        <time>2023-09-30T07:53:25.000Z</time>
      </trkpt>
      <trkpt lat="46.01463" lon="6.80169">
        <ele>1823.1999511719</ele>
        <time>2023-09-30T07:53:26.000Z</time>
      </trkpt>
      <trkpt lat="46.01462" lon="6.80169">
        <ele>1823.4000244141</ele>
        <time>2023-09-30T07:53:27.000Z</time>
      </trkpt>
      <trkpt lat="46.01462" lon="6.80169">
        <ele>1823.5999755859</ele>
        <time>2023-09-30T07:53:28.000Z</time>
      </trkpt>
      <trkpt lat="46.01462" lon="6.8017">
        <ele>1823.5999755859</ele>
        <time>2023-09-30T07:53:29.000Z</time>
      </trkpt>
      <trkpt lat="46.01462" lon="6.8017">
        <ele>1823.8000488281</ele>
        <time>2023-09-30T07:53:30.000Z</time>
      </trkpt>
      <trkpt lat="46.01462" lon="6.8017">
        <ele>1824</ele>
        <time>2023-09-30T07:53:32.000Z</time>
      </trkpt>
      <trkpt lat="46.01461" lon="6.8017">
        <ele>1824.4000244141</ele>
        <time>2023-09-30T07:53:43.000Z</time>
      </trkpt>
      <trkpt lat="46.01461" lon="6.8017">
        <ele>1824.5999755859</ele>
        <time>2023-09-30T07:53:48.000Z</time>
      </trkpt>
      <trkpt lat="46.01461" lon="6.8017">
        <ele>1824.5999755859</ele>
        <time>2023-09-30T07:53:49.000Z</time>
      </trkpt>
      <trkpt lat="46.0146" lon="6.80171">
        <ele>1824.5999755859</ele>
        <time>2023-09-30T07:53:50.000Z</time>
      </trkpt>
      <trkpt lat="46.01458" lon="6.80174">
        <ele>1824.8000488281</ele>
        <time>2023-09-30T07:53:52.000Z</time>
      </trkpt>
      <trkpt lat="46.01458" lon="6.80175">
        <ele>1824.8000488281</ele>
        <time>2023-09-30T07:53:53.000Z</time>
      </trkpt>
      <trkpt lat="46.01457" lon="6.80176">
        <ele>1824.8000488281</ele>
        <time>2023-09-30T07:53:54.000Z</time>
      </trkpt>
      <trkpt lat="46.01452" lon="6.80182">
        <ele>1825.5999755859</ele>
        <time>2023-09-30T07:54:00.000Z</time>
      </trkpt>
      <trkpt lat="46.01452" lon="6.80183">
        <ele>1825.8000488281</ele>
        <time>2023-09-30T07:54:01.000Z</time>
      </trkpt>
      <trkpt lat="46.01451" lon="6.80184">
        <ele>1826</ele>
        <time>2023-09-30T07:54:02.000Z</time>
      </trkpt>
      <trkpt lat="46.0145" lon="6.80184">
        <ele>1826.1999511719</ele>
        <time>2023-09-30T07:54:03.000Z</time>
      </trkpt>
      <trkpt lat="46.0145" lon="6.80185">
        <ele>1826.1999511719</ele>
        <time>2023-09-30T07:54:04.000Z</time>
      </trkpt>
      <trkpt lat="46.01449" lon="6.80186">
        <ele>1826.4000244141</ele>
        <time>2023-09-30T07:54:05.000Z</time>
      </trkpt>
      <trkpt lat="46.01448" lon="6.80186">
        <ele>1826.4000244141</ele>
        <time>2023-09-30T07:54:06.000Z</time>
      </trkpt>
      <trkpt lat="46.01447" lon="6.80186">
        <ele>1826.4000244141</ele>
        <time>2023-09-30T07:54:07.000Z</time>
      </trkpt>
      <trkpt lat="46.01447" lon="6.80186">
        <ele>1826.5999755859</ele>
        <time>2023-09-30T07:54:08.000Z</time>
      </trkpt>
      <trkpt lat="46.01446" lon="6.80186">
        <ele>1826.8000488281</ele>
        <time>2023-09-30T07:54:09.000Z</time>
      </trkpt>
      <trkpt lat="46.01445" lon="6.80186">
        <ele>1827</ele>
        <time>2023-09-30T07:54:10.000Z</time>
      </trkpt>
      <trkpt lat="46.01445" lon="6.80186">
        <ele>1827.1999511719</ele>
        <time>2023-09-30T07:54:11.000Z</time>
      </trkpt>
      <trkpt lat="46.01444" lon="6.80186">
        <ele>1827.4000244141</ele>
        <time>2023-09-30T07:54:12.000Z</time>
      </trkpt>
      <trkpt lat="46.01443" lon="6.80186">
        <ele>1827.5999755859</ele>
        <time>2023-09-30T07:54:13.000Z</time>
      </trkpt>
      <trkpt lat="46.01442" lon="6.80186">
        <ele>1828</ele>
        <time>2023-09-30T07:54:14.000Z</time>
      </trkpt>
      <trkpt lat="46.01441" lon="6.80186">
        <ele>1828</ele>
        <time>2023-09-30T07:54:15.000Z</time>
      </trkpt>
      <trkpt lat="46.01441" lon="6.80186">
        <ele>1828.1999511719</ele>
        <time>2023-09-30T07:54:16.000Z</time>
      </trkpt>
      <trkpt lat="46.0144" lon="6.80186">
        <ele>1828.5999755859</ele>
        <time>2023-09-30T07:54:17.000Z</time>
      </trkpt>
      <trkpt lat="46.01439" lon="6.80186">
        <ele>1829</ele>
        <time>2023-09-30T07:54:18.000Z</time>
      </trkpt>
      <trkpt lat="46.01438" lon="6.80185">
        <ele>1829.1999511719</ele>
        <time>2023-09-30T07:54:19.000Z</time>
      </trkpt>
      <trkpt lat="46.01438" lon="6.80185">
        <ele>1829.5999755859</ele>
        <time>2023-09-30T07:54:20.000Z</time>
      </trkpt>
      <trkpt lat="46.01438" lon="6.80185">
        <ele>1829.4000244141</ele>
        <time>2023-09-30T07:54:21.000Z</time>
      </trkpt>
      <trkpt lat="46.01438" lon="6.80185">
        <ele>1830.4000244141</ele>
        <time>2023-09-30T07:54:25.000Z</time>
      </trkpt>
      <trkpt lat="46.01438" lon="6.80185">
        <ele>1830.5999755859</ele>
        <time>2023-09-30T07:54:42.000Z</time>
      </trkpt>
      <trkpt lat="46.01438" lon="6.80185">
        <ele>1830.4000244141</ele>
        <time>2023-09-30T07:55:16.000Z</time>
      </trkpt>
      <trkpt lat="46.01432" lon="6.80185">
        <ele>1830.5999755859</ele>
        <time>2023-09-30T07:55:20.000Z</time>
      </trkpt>
      <trkpt lat="46.01431" lon="6.80184">
        <ele>1830.5999755859</ele>
        <time>2023-09-30T07:55:21.000Z</time>
      </trkpt>
      <trkpt lat="46.01425" lon="6.80182">
        <ele>1831.4000244141</ele>
        <time>2023-09-30T07:55:26.000Z</time>
      </trkpt>
      <trkpt lat="46.0142" lon="6.80183">
        <ele>1832</ele>
        <time>2023-09-30T07:55:30.000Z</time>
      </trkpt>
      <trkpt lat="46.01419" lon="6.80185">
        <ele>1832.4000244141</ele>
        <time>2023-09-30T07:55:32.000Z</time>
      </trkpt>
      <trkpt lat="46.01417" lon="6.80186">
        <ele>1832.5999755859</ele>
        <time>2023-09-30T07:55:33.000Z</time>
      </trkpt>
      <trkpt lat="46.01414" lon="6.80189">
        <ele>1833.1999511719</ele>
        <time>2023-09-30T07:55:36.000Z</time>
      </trkpt>
      <trkpt lat="46.01413" lon="6.80189">
        <ele>1833.4000244141</ele>
        <time>2023-09-30T07:55:37.000Z</time>
      </trkpt>
      <trkpt lat="46.01412" lon="6.8019">
        <ele>1833.5999755859</ele>
        <time>2023-09-30T07:55:38.000Z</time>
      </trkpt>
      <trkpt lat="46.01411" lon="6.8019">
        <ele>1833.5999755859</ele>
        <time>2023-09-30T07:55:39.000Z</time>
      </trkpt>
      <trkpt lat="46.0141" lon="6.80191">
        <ele>1833.5999755859</ele>
        <time>2023-09-30T07:55:40.000Z</time>
      </trkpt>
      <trkpt lat="46.0141" lon="6.80192">
        <ele>1833.8000488281</ele>
        <time>2023-09-30T07:55:41.000Z</time>
      </trkpt>
      <trkpt lat="46.01408" lon="6.80192">
        <ele>1833.8000488281</ele>
        <time>2023-09-30T07:55:42.000Z</time>
      </trkpt>
      <trkpt lat="46.01407" lon="6.80193">
        <ele>1833.8000488281</ele>
        <time>2023-09-30T07:55:43.000Z</time>
      </trkpt>
      <trkpt lat="46.01406" lon="6.80194">
        <ele>1833.8000488281</ele>
        <time>2023-09-30T07:55:44.000Z</time>
      </trkpt>
      <trkpt lat="46.01406" lon="6.80196">
        <ele>1833.8000488281</ele>
        <time>2023-09-30T07:55:45.000Z</time>
      </trkpt>
      <trkpt lat="46.01405" lon="6.80197">
        <ele>1834.1999511719</ele>
        <time>2023-09-30T07:55:46.000Z</time>
      </trkpt>
      <trkpt lat="46.01404" lon="6.80198">
        <ele>1834.5999755859</ele>
        <time>2023-09-30T07:55:47.000Z</time>
      </trkpt>
      <trkpt lat="46.01404" lon="6.802">
        <ele>1834.8000488281</ele>
        <time>2023-09-30T07:55:48.000Z</time>
      </trkpt>
      <trkpt lat="46.01404" lon="6.80202">
        <ele>1834.8000488281</ele>
        <time>2023-09-30T07:55:49.000Z</time>
      </trkpt>
      <trkpt lat="46.01403" lon="6.80203">
        <ele>1834.8000488281</ele>
        <time>2023-09-30T07:55:50.000Z</time>
      </trkpt>
      <trkpt lat="46.01403" lon="6.80204">
        <ele>1834.8000488281</ele>
        <time>2023-09-30T07:55:51.000Z</time>
      </trkpt>
      <trkpt lat="46.01402" lon="6.80206">
        <ele>1834.8000488281</ele>
        <time>2023-09-30T07:55:52.000Z</time>
      </trkpt>
      <trkpt lat="46.01402" lon="6.80207">
        <ele>1835</ele>
        <time>2023-09-30T07:55:53.000Z</time>
      </trkpt>
      <trkpt lat="46.01401" lon="6.80209">
        <ele>1835</ele>
        <time>2023-09-30T07:55:54.000Z</time>
      </trkpt>
      <trkpt lat="46.01401" lon="6.8021">
        <ele>1835</ele>
        <time>2023-09-30T07:55:55.000Z</time>
      </trkpt>
      <trkpt lat="46.01401" lon="6.80211">
        <ele>1835.1999511719</ele>
        <time>2023-09-30T07:55:56.000Z</time>
      </trkpt>
      <trkpt lat="46.014" lon="6.80213">
        <ele>1835.1999511719</ele>
        <time>2023-09-30T07:55:57.000Z</time>
      </trkpt>
      <trkpt lat="46.014" lon="6.80214">
        <ele>1835.1999511719</ele>
        <time>2023-09-30T07:55:58.000Z</time>
      </trkpt>
      <trkpt lat="46.014" lon="6.80216">
        <ele>1835.4000244141</ele>
        <time>2023-09-30T07:55:59.000Z</time>
      </trkpt>
      <trkpt lat="46.01399" lon="6.80217">
        <ele>1835.5999755859</ele>
        <time>2023-09-30T07:56:00.000Z</time>
      </trkpt>
      <trkpt lat="46.01399" lon="6.80218">
        <ele>1835.8000488281</ele>
        <time>2023-09-30T07:56:01.000Z</time>
      </trkpt>
      <trkpt lat="46.01399" lon="6.80219">
        <ele>1836</ele>
        <time>2023-09-30T07:56:02.000Z</time>
      </trkpt>
      <trkpt lat="46.01398" lon="6.8022">
        <ele>1836.1999511719</ele>
        <time>2023-09-30T07:56:03.000Z</time>
      </trkpt>
      <trkpt lat="46.01397" lon="6.80221">
        <ele>1836.1999511719</ele>
        <time>2023-09-30T07:56:04.000Z</time>
      </trkpt>
      <trkpt lat="46.01397" lon="6.80223">
        <ele>1836.4000244141</ele>
        <time>2023-09-30T07:56:05.000Z</time>
      </trkpt>
      <trkpt lat="46.01396" lon="6.80223">
        <ele>1836.4000244141</ele>
        <time>2023-09-30T07:56:06.000Z</time>
      </trkpt>
      <trkpt lat="46.01396" lon="6.80224">
        <ele>1836.5999755859</ele>
        <time>2023-09-30T07:56:07.000Z</time>
      </trkpt>
      <trkpt lat="46.01396" lon="6.80225">
        <ele>1836.8000488281</ele>
        <time>2023-09-30T07:56:08.000Z</time>
      </trkpt>
      <trkpt lat="46.01395" lon="6.80227">
        <ele>1837</ele>
        <time>2023-09-30T07:56:09.000Z</time>
      </trkpt>
      <trkpt lat="46.01394" lon="6.80228">
        <ele>1837.1999511719</ele>
        <time>2023-09-30T07:56:10.000Z</time>
      </trkpt>
      <trkpt lat="46.01394" lon="6.80229">
        <ele>1837.1999511719</ele>
        <time>2023-09-30T07:56:11.000Z</time>
      </trkpt>
      <trkpt lat="46.01393" lon="6.8023">
        <ele>1837.5999755859</ele>
        <time>2023-09-30T07:56:12.000Z</time>
      </trkpt>
      <trkpt lat="46.01393" lon="6.80232">
        <ele>1837.8000488281</ele>
        <time>2023-09-30T07:56:13.000Z</time>
      </trkpt>
      <trkpt lat="46.01392" lon="6.80234">
        <ele>1837.8000488281</ele>
        <time>2023-09-30T07:56:14.000Z</time>
      </trkpt>
      <trkpt lat="46.01391" lon="6.80235">
        <ele>1838</ele>
        <time>2023-09-30T07:56:15.000Z</time>
      </trkpt>
      <trkpt lat="46.01391" lon="6.80237">
        <ele>1838</ele>
        <time>2023-09-30T07:56:16.000Z</time>
      </trkpt>
      <trkpt lat="46.0139" lon="6.80238">
        <ele>1838.1999511719</ele>
        <time>2023-09-30T07:56:17.000Z</time>
      </trkpt>
      <trkpt lat="46.01388" lon="6.80238">
        <ele>1838.4000244141</ele>
        <time>2023-09-30T07:56:18.000Z</time>
      </trkpt>
      <trkpt lat="46.01388" lon="6.80239">
        <ele>1838.5999755859</ele>
        <time>2023-09-30T07:56:19.000Z</time>
      </trkpt>
      <trkpt lat="46.01387" lon="6.8024">
        <ele>1838.8000488281</ele>
        <time>2023-09-30T07:56:20.000Z</time>
      </trkpt>
      <trkpt lat="46.01386" lon="6.80241">
        <ele>1839</ele>
        <time>2023-09-30T07:56:21.000Z</time>
      </trkpt>
      <trkpt lat="46.01386" lon="6.80242">
        <ele>1839.1999511719</ele>
        <time>2023-09-30T07:56:22.000Z</time>
      </trkpt>
      <trkpt lat="46.01385" lon="6.80243">
        <ele>1839.4000244141</ele>
        <time>2023-09-30T07:56:23.000Z</time>
      </trkpt>
      <trkpt lat="46.01385" lon="6.80243">
        <ele>1839.8000488281</ele>
        <time>2023-09-30T07:56:24.000Z</time>
      </trkpt>
      <trkpt lat="46.01384" lon="6.80242">
        <ele>1840</ele>
        <time>2023-09-30T07:56:25.000Z</time>
      </trkpt>
      <trkpt lat="46.01383" lon="6.80241">
        <ele>1840.1999511719</ele>
        <time>2023-09-30T07:56:26.000Z</time>
      </trkpt>
      <trkpt lat="46.01383" lon="6.8024">
        <ele>1840.1999511719</ele>
        <time>2023-09-30T07:56:27.000Z</time>
      </trkpt>
      <trkpt lat="46.01383" lon="6.80239">
        <ele>1840.4000244141</ele>
        <time>2023-09-30T07:56:28.000Z</time>
      </trkpt>
      <trkpt lat="46.01383" lon="6.80237">
        <ele>1840.5999755859</ele>
        <time>2023-09-30T07:56:29.000Z</time>
      </trkpt>
      <trkpt lat="46.01383" lon="6.80236">
        <ele>1840.8000488281</ele>
        <time>2023-09-30T07:56:30.000Z</time>
      </trkpt>
      <trkpt lat="46.01383" lon="6.80235">
        <ele>1841</ele>
        <time>2023-09-30T07:56:31.000Z</time>
      </trkpt>
      <trkpt lat="46.01382" lon="6.80234">
        <ele>1841.1999511719</ele>
        <time>2023-09-30T07:56:32.000Z</time>
      </trkpt>
      <trkpt lat="46.01383" lon="6.80233">
        <ele>1841.1999511719</ele>
        <time>2023-09-30T07:56:33.000Z</time>
      </trkpt>
      <trkpt lat="46.01383" lon="6.80232">
        <ele>1841.5999755859</ele>
        <time>2023-09-30T07:56:34.000Z</time>
      </trkpt>
      <trkpt lat="46.01383" lon="6.80232">
        <ele>1841.8000488281</ele>
        <time>2023-09-30T07:56:35.000Z</time>
      </trkpt>
      <trkpt lat="46.01383" lon="6.80232">
        <ele>1842.1999511719</ele>
        <time>2023-09-30T07:56:36.000Z</time>
      </trkpt>
      <trkpt lat="46.01383" lon="6.80232">
        <ele>1842.4000244141</ele>
        <time>2023-09-30T07:56:38.000Z</time>
      </trkpt>
      <trkpt lat="46.01383" lon="6.80232">
        <ele>1842.5999755859</ele>
        <time>2023-09-30T07:56:41.000Z</time>
      </trkpt>
      <trkpt lat="46.01383" lon="6.80232">
        <ele>1842.5999755859</ele>
        <time>2023-09-30T07:56:43.000Z</time>
      </trkpt>
      <trkpt lat="46.01383" lon="6.80231">
        <ele>1842.8000488281</ele>
        <time>2023-09-30T07:56:44.000Z</time>
      </trkpt>
      <trkpt lat="46.01382" lon="6.8023">
        <ele>1842.8000488281</ele>
        <time>2023-09-30T07:56:45.000Z</time>
      </trkpt>
      <trkpt lat="46.01382" lon="6.8023">
        <ele>1843</ele>
        <time>2023-09-30T07:56:46.000Z</time>
      </trkpt>
      <trkpt lat="46.01382" lon="6.8023">
        <ele>1843.1999511719</ele>
        <time>2023-09-30T07:56:49.000Z</time>
      </trkpt>
      <trkpt lat="46.01383" lon="6.80228">
        <ele>1843.4000244141</ele>
        <time>2023-09-30T07:56:50.000Z</time>
      </trkpt>
      <trkpt lat="46.01383" lon="6.80226">
        <ele>1843.4000244141</ele>
        <time>2023-09-30T07:56:51.000Z</time>
      </trkpt>
      <trkpt lat="46.01383" lon="6.80224">
        <ele>1843.5999755859</ele>
        <time>2023-09-30T07:56:52.000Z</time>
      </trkpt>
      <trkpt lat="46.01383" lon="6.80222">
        <ele>1843.8000488281</ele>
        <time>2023-09-30T07:56:53.000Z</time>
      </trkpt>
      <trkpt lat="46.01383" lon="6.8022">
        <ele>1843.8000488281</ele>
        <time>2023-09-30T07:56:54.000Z</time>
      </trkpt>
      <trkpt lat="46.01383" lon="6.80218">
        <ele>1843.8000488281</ele>
        <time>2023-09-30T07:56:55.000Z</time>
      </trkpt>
      <trkpt lat="46.01384" lon="6.80216">
        <ele>1843.8000488281</ele>
        <time>2023-09-30T07:56:56.000Z</time>
      </trkpt>
      <trkpt lat="46.01384" lon="6.80215">
        <ele>1844</ele>
        <time>2023-09-30T07:56:57.000Z</time>
      </trkpt>
      <trkpt lat="46.01384" lon="6.80213">
        <ele>1844</ele>
        <time>2023-09-30T07:56:58.000Z</time>
      </trkpt>
      <trkpt lat="46.01384" lon="6.80211">
        <ele>1844</ele>
        <time>2023-09-30T07:56:59.000Z</time>
      </trkpt>
      <trkpt lat="46.01384" lon="6.80209">
        <ele>1844.1999511719</ele>
        <time>2023-09-30T07:57:00.000Z</time>
      </trkpt>
      <trkpt lat="46.01384" lon="6.80207">
        <ele>1844.4000244141</ele>
        <time>2023-09-30T07:57:01.000Z</time>
      </trkpt>
      <trkpt lat="46.01385" lon="6.80206">
        <ele>1844.4000244141</ele>
        <time>2023-09-30T07:57:02.000Z</time>
      </trkpt>
      <trkpt lat="46.01384" lon="6.80204">
        <ele>1844.5999755859</ele>
        <time>2023-09-30T07:57:03.000Z</time>
      </trkpt>
      <trkpt lat="46.01384" lon="6.80201">
        <ele>1844.8000488281</ele>
        <time>2023-09-30T07:57:04.000Z</time>
      </trkpt>
      <trkpt lat="46.01384" lon="6.80199">
        <ele>1845</ele>
        <time>2023-09-30T07:57:05.000Z</time>
      </trkpt>
      <trkpt lat="46.01384" lon="6.80198">
        <ele>1845.1999511719</ele>
        <time>2023-09-30T07:57:06.000Z</time>
      </trkpt>
      <trkpt lat="46.01383" lon="6.80196">
        <ele>1845.1999511719</ele>
        <time>2023-09-30T07:57:07.000Z</time>
      </trkpt>
      <trkpt lat="46.01383" lon="6.80195">
        <ele>1845.4000244141</ele>
        <time>2023-09-30T07:57:08.000Z</time>
      </trkpt>
      <trkpt lat="46.01383" lon="6.80193">
        <ele>1845.5999755859</ele>
        <time>2023-09-30T07:57:09.000Z</time>
      </trkpt>
      <trkpt lat="46.01383" lon="6.80191">
        <ele>1845.8000488281</ele>
        <time>2023-09-30T07:57:10.000Z</time>
      </trkpt>
      <trkpt lat="46.01383" lon="6.80189">
        <ele>1845.8000488281</ele>
        <time>2023-09-30T07:57:11.000Z</time>
      </trkpt>
      <trkpt lat="46.01383" lon="6.80188">
        <ele>1846</ele>
        <time>2023-09-30T07:57:12.000Z</time>
      </trkpt>
      <trkpt lat="46.01383" lon="6.80186">
        <ele>1846.1999511719</ele>
        <time>2023-09-30T07:57:13.000Z</time>
      </trkpt>
      <trkpt lat="46.01382" lon="6.80183">
        <ele>1846.1999511719</ele>
        <time>2023-09-30T07:57:14.000Z</time>
      </trkpt>
      <trkpt lat="46.01382" lon="6.80181">
        <ele>1846.4000244141</ele>
        <time>2023-09-30T07:57:15.000Z</time>
      </trkpt>
      <trkpt lat="46.01382" lon="6.80179">
        <ele>1846.4000244141</ele>
        <time>2023-09-30T07:57:16.000Z</time>
      </trkpt>
      <trkpt lat="46.01382" lon="6.80178">
        <ele>1846.5999755859</ele>
        <time>2023-09-30T07:57:17.000Z</time>
      </trkpt>
      <trkpt lat="46.01381" lon="6.80176">
        <ele>1846.5999755859</ele>
        <time>2023-09-30T07:57:18.000Z</time>
      </trkpt>
      <trkpt lat="46.01381" lon="6.80174">
        <ele>1846.8000488281</ele>
        <time>2023-09-30T07:57:19.000Z</time>
      </trkpt>
      <trkpt lat="46.01381" lon="6.80172">
        <ele>1846.8000488281</ele>
        <time>2023-09-30T07:57:20.000Z</time>
      </trkpt>
      <trkpt lat="46.01381" lon="6.8017">
        <ele>1847</ele>
        <time>2023-09-30T07:57:21.000Z</time>
      </trkpt>
      <trkpt lat="46.01381" lon="6.80169">
        <ele>1847</ele>
        <time>2023-09-30T07:57:22.000Z</time>
      </trkpt>
      <trkpt lat="46.0138" lon="6.80167">
        <ele>1847</ele>
        <time>2023-09-30T07:57:23.000Z</time>
      </trkpt>
      <trkpt lat="46.01379" lon="6.80165">
        <ele>1847.4000244141</ele>
        <time>2023-09-30T07:57:24.000Z</time>
      </trkpt>
      <trkpt lat="46.01378" lon="6.80163">
        <ele>1847.4000244141</ele>
        <time>2023-09-30T07:57:25.000Z</time>
      </trkpt>
      <trkpt lat="46.01377" lon="6.80161">
        <ele>1847.5999755859</ele>
        <time>2023-09-30T07:57:26.000Z</time>
      </trkpt>
      <trkpt lat="46.01376" lon="6.80159">
        <ele>1847.5999755859</ele>
        <time>2023-09-30T07:57:27.000Z</time>
      </trkpt>
      <trkpt lat="46.01375" lon="6.80157">
        <ele>1847.5999755859</ele>
        <time>2023-09-30T07:57:28.000Z</time>
      </trkpt>
      <trkpt lat="46.01374" lon="6.80154">
        <ele>1847.8000488281</ele>
        <time>2023-09-30T07:57:29.000Z</time>
      </trkpt>
      <trkpt lat="46.01373" lon="6.80152">
        <ele>1847.8000488281</ele>
        <time>2023-09-30T07:57:30.000Z</time>
      </trkpt>
      <trkpt lat="46.01373" lon="6.80151">
        <ele>1848</ele>
        <time>2023-09-30T07:57:31.000Z</time>
      </trkpt>
      <trkpt lat="46.01372" lon="6.80149">
        <ele>1848.1999511719</ele>
        <time>2023-09-30T07:57:32.000Z</time>
      </trkpt>
      <trkpt lat="46.01371" lon="6.80147">
        <ele>1848.4000244141</ele>
        <time>2023-09-30T07:57:33.000Z</time>
      </trkpt>
      <trkpt lat="46.0137" lon="6.80145">
        <ele>1848.5999755859</ele>
        <time>2023-09-30T07:57:34.000Z</time>
      </trkpt>
      <trkpt lat="46.01369" lon="6.80143">
        <ele>1848.5999755859</ele>
        <time>2023-09-30T07:57:35.000Z</time>
      </trkpt>
      <trkpt lat="46.01368" lon="6.80142">
        <ele>1848.8000488281</ele>
        <time>2023-09-30T07:57:36.000Z</time>
      </trkpt>
      <trkpt lat="46.01367" lon="6.80141">
        <ele>1848.8000488281</ele>
        <time>2023-09-30T07:57:37.000Z</time>
      </trkpt>
      <trkpt lat="46.01366" lon="6.8014">
        <ele>1848.8000488281</ele>
        <time>2023-09-30T07:57:38.000Z</time>
      </trkpt>
      <trkpt lat="46.01365" lon="6.80138">
        <ele>1849</ele>
        <time>2023-09-30T07:57:39.000Z</time>
      </trkpt>
      <trkpt lat="46.01364" lon="6.80137">
        <ele>1849</ele>
        <time>2023-09-30T07:57:40.000Z</time>
      </trkpt>
      <trkpt lat="46.01363" lon="6.80137">
        <ele>1849.1999511719</ele>
        <time>2023-09-30T07:57:41.000Z</time>
      </trkpt>
      <trkpt lat="46.01361" lon="6.80136">
        <ele>1849.4000244141</ele>
        <time>2023-09-30T07:57:42.000Z</time>
      </trkpt>
      <trkpt lat="46.0136" lon="6.80134">
        <ele>1849.4000244141</ele>
        <time>2023-09-30T07:57:43.000Z</time>
      </trkpt>
      <trkpt lat="46.01359" lon="6.80133">
        <ele>1849.5999755859</ele>
        <time>2023-09-30T07:57:44.000Z</time>
      </trkpt>
      <trkpt lat="46.01358" lon="6.80132">
        <ele>1849.5999755859</ele>
        <time>2023-09-30T07:57:45.000Z</time>
      </trkpt>
      <trkpt lat="46.01356" lon="6.80131">
        <ele>1849.8000488281</ele>
        <time>2023-09-30T07:57:46.000Z</time>
      </trkpt>
      <trkpt lat="46.01355" lon="6.8013">
        <ele>1849.8000488281</ele>
        <time>2023-09-30T07:57:47.000Z</time>
      </trkpt>
      <trkpt lat="46.01354" lon="6.80129">
        <ele>1850</ele>
        <time>2023-09-30T07:57:48.000Z</time>
      </trkpt>
      <trkpt lat="46.01353" lon="6.80128">
        <ele>1850</ele>
        <time>2023-09-30T07:57:49.000Z</time>
      </trkpt>
      <trkpt lat="46.01351" lon="6.80128">
        <ele>1850.1999511719</ele>
        <time>2023-09-30T07:57:50.000Z</time>
      </trkpt>
      <trkpt lat="46.0135" lon="6.80127">
        <ele>1850.1999511719</ele>
        <time>2023-09-30T07:57:51.000Z</time>
      </trkpt>
      <trkpt lat="46.01349" lon="6.80126">
        <ele>1850.4000244141</ele>
        <time>2023-09-30T07:57:52.000Z</time>
      </trkpt>
      <trkpt lat="46.01348" lon="6.80125">
        <ele>1850.5999755859</ele>
        <time>2023-09-30T07:57:53.000Z</time>
      </trkpt>
      <trkpt lat="46.01347" lon="6.80126">
        <ele>1850.8000488281</ele>
        <time>2023-09-30T07:57:54.000Z</time>
      </trkpt>
      <trkpt lat="46.01346" lon="6.80126">
        <ele>1851</ele>
        <time>2023-09-30T07:57:55.000Z</time>
      </trkpt>
      <trkpt lat="46.01346" lon="6.80128">
        <ele>1851</ele>
        <time>2023-09-30T07:57:56.000Z</time>
      </trkpt>
      <trkpt lat="46.01347" lon="6.80129">
        <ele>1851.1999511719</ele>
        <time>2023-09-30T07:57:57.000Z</time>
      </trkpt>
      <trkpt lat="46.01347" lon="6.8013">
        <ele>1851.1999511719</ele>
        <time>2023-09-30T07:57:58.000Z</time>
      </trkpt>
      <trkpt lat="46.01347" lon="6.8013">
        <ele>1851.4000244141</ele>
        <time>2023-09-30T07:58:01.000Z</time>
      </trkpt>
      <trkpt lat="46.01348" lon="6.80131">
        <ele>1851.1999511719</ele>
        <time>2023-09-30T07:58:02.000Z</time>
      </trkpt>
      <trkpt lat="46.01348" lon="6.80132">
        <ele>1851.1999511719</ele>
        <time>2023-09-30T07:58:03.000Z</time>
      </trkpt>
      <trkpt lat="46.01349" lon="6.80133">
        <ele>1851.5999755859</ele>
        <time>2023-09-30T07:58:04.000Z</time>
      </trkpt>
      <trkpt lat="46.01349" lon="6.80133">
        <ele>1851.4000244141</ele>
        <time>2023-09-30T07:58:05.000Z</time>
      </trkpt>
      <trkpt lat="46.01349" lon="6.80133">
        <ele>1851.5999755859</ele>
        <time>2023-09-30T07:58:06.000Z</time>
      </trkpt>
      <trkpt lat="46.01349" lon="6.80133">
        <ele>1851.5999755859</ele>
        <time>2023-09-30T07:58:07.000Z</time>
      </trkpt>
      <trkpt lat="46.0135" lon="6.80134">
        <ele>1851.8000488281</ele>
        <time>2023-09-30T07:58:08.000Z</time>
      </trkpt>
      <trkpt lat="46.0135" lon="6.80135">
        <ele>1852</ele>
        <time>2023-09-30T07:58:09.000Z</time>
      </trkpt>
      <trkpt lat="46.01351" lon="6.80136">
        <ele>1852.1999511719</ele>
        <time>2023-09-30T07:58:10.000Z</time>
      </trkpt>
      <trkpt lat="46.01351" lon="6.80137">
        <ele>1852.5999755859</ele>
        <time>2023-09-30T07:58:11.000Z</time>
      </trkpt>
      <trkpt lat="46.01352" lon="6.80138">
        <ele>1852.5999755859</ele>
        <time>2023-09-30T07:58:12.000Z</time>
      </trkpt>
      <trkpt lat="46.01353" lon="6.8014">
        <ele>1852.8000488281</ele>
        <time>2023-09-30T07:58:13.000Z</time>
      </trkpt>
      <trkpt lat="46.01353" lon="6.80141">
        <ele>1853</ele>
        <time>2023-09-30T07:58:14.000Z</time>
      </trkpt>
      <trkpt lat="46.01354" lon="6.80143">
        <ele>1853.1999511719</ele>
        <time>2023-09-30T07:58:15.000Z</time>
      </trkpt>
      <trkpt lat="46.01355" lon="6.80145">
        <ele>1853.4000244141</ele>
        <time>2023-09-30T07:58:16.000Z</time>
      </trkpt>
      <trkpt lat="46.01355" lon="6.80146">
        <ele>1853.5999755859</ele>
        <time>2023-09-30T07:58:17.000Z</time>
      </trkpt>
      <trkpt lat="46.01356" lon="6.80147">
        <ele>1854</ele>
        <time>2023-09-30T07:58:18.000Z</time>
      </trkpt>
      <trkpt lat="46.01356" lon="6.80148">
        <ele>1854</ele>
        <time>2023-09-30T07:58:19.000Z</time>
      </trkpt>
      <trkpt lat="46.01357" lon="6.80149">
        <ele>1854.1999511719</ele>
        <time>2023-09-30T07:58:20.000Z</time>
      </trkpt>
      <trkpt lat="46.01358" lon="6.80151">
        <ele>1854.4000244141</ele>
        <time>2023-09-30T07:58:21.000Z</time>
      </trkpt>
      <trkpt lat="46.01358" lon="6.80152">
        <ele>1854.5999755859</ele>
        <time>2023-09-30T07:58:22.000Z</time>
      </trkpt>
      <trkpt lat="46.01359" lon="6.80153">
        <ele>1854.8000488281</ele>
        <time>2023-09-30T07:58:23.000Z</time>
      </trkpt>
      <trkpt lat="46.01359" lon="6.80154">
        <ele>1854.8000488281</ele>
        <time>2023-09-30T07:58:24.000Z</time>
      </trkpt>
      <trkpt lat="46.0136" lon="6.80155">
        <ele>1855</ele>
        <time>2023-09-30T07:58:25.000Z</time>
      </trkpt>
      <trkpt lat="46.01361" lon="6.80156">
        <ele>1855.1999511719</ele>
        <time>2023-09-30T07:58:26.000Z</time>
      </trkpt>
      <trkpt lat="46.01361" lon="6.80157">
        <ele>1855.4000244141</ele>
        <time>2023-09-30T07:58:27.000Z</time>
      </trkpt>
      <trkpt lat="46.01361" lon="6.80158">
        <ele>1855.4000244141</ele>
        <time>2023-09-30T07:58:28.000Z</time>
      </trkpt>
      <trkpt lat="46.01362" lon="6.80159">
        <ele>1855.5999755859</ele>
        <time>2023-09-30T07:58:29.000Z</time>
      </trkpt>
      <trkpt lat="46.01362" lon="6.80161">
        <ele>1855.8000488281</ele>
        <time>2023-09-30T07:58:30.000Z</time>
      </trkpt>
      <trkpt lat="46.01362" lon="6.80162">
        <ele>1855.8000488281</ele>
        <time>2023-09-30T07:58:31.000Z</time>
      </trkpt>
      <trkpt lat="46.01362" lon="6.80164">
        <ele>1856.1999511719</ele>
        <time>2023-09-30T07:58:32.000Z</time>
      </trkpt>
      <trkpt lat="46.01363" lon="6.80166">
        <ele>1856.4000244141</ele>
        <time>2023-09-30T07:58:33.000Z</time>
      </trkpt>
      <trkpt lat="46.01363" lon="6.80167">
        <ele>1856.4000244141</ele>
        <time>2023-09-30T07:58:34.000Z</time>
      </trkpt>
      <trkpt lat="46.01363" lon="6.80168">
        <ele>1856.5999755859</ele>
        <time>2023-09-30T07:58:35.000Z</time>
      </trkpt>
      <trkpt lat="46.01363" lon="6.80169">
        <ele>1856.8000488281</ele>
        <time>2023-09-30T07:58:36.000Z</time>
      </trkpt>
      <trkpt lat="46.01364" lon="6.80171">
        <ele>1857</ele>
        <time>2023-09-30T07:58:37.000Z</time>
      </trkpt>
      <trkpt lat="46.01364" lon="6.80173">
        <ele>1857</ele>
        <time>2023-09-30T07:58:38.000Z</time>
      </trkpt>
      <trkpt lat="46.01364" lon="6.80174">
        <ele>1857.1999511719</ele>
        <time>2023-09-30T07:58:39.000Z</time>
      </trkpt>
      <trkpt lat="46.01364" lon="6.80175">
        <ele>1857.1999511719</ele>
        <time>2023-09-30T07:58:40.000Z</time>
      </trkpt>
      <trkpt lat="46.01364" lon="6.80176">
        <ele>1857.4000244141</ele>
        <time>2023-09-30T07:58:41.000Z</time>
      </trkpt>
      <trkpt lat="46.01364" lon="6.80177">
        <ele>1857.5999755859</ele>
        <time>2023-09-30T07:58:42.000Z</time>
      </trkpt>
      <trkpt lat="46.01365" lon="6.80178">
        <ele>1857.8000488281</ele>
        <time>2023-09-30T07:58:43.000Z</time>
      </trkpt>
      <trkpt lat="46.01365" lon="6.80179">
        <ele>1858</ele>
        <time>2023-09-30T07:58:44.000Z</time>
      </trkpt>
      <trkpt lat="46.01365" lon="6.80181">
        <ele>1858</ele>
        <time>2023-09-30T07:58:45.000Z</time>
      </trkpt>
      <trkpt lat="46.01365" lon="6.80182">
        <ele>1858.1999511719</ele>
        <time>2023-09-30T07:58:46.000Z</time>
      </trkpt>
      <trkpt lat="46.01365" lon="6.80184">
        <ele>1858.1999511719</ele>
        <time>2023-09-30T07:58:47.000Z</time>
      </trkpt>
      <trkpt lat="46.01365" lon="6.80185">
        <ele>1858.1999511719</ele>
        <time>2023-09-30T07:58:48.000Z</time>
      </trkpt>
      <trkpt lat="46.01364" lon="6.80187">
        <ele>1858.4000244141</ele>
        <time>2023-09-30T07:58:49.000Z</time>
      </trkpt>
      <trkpt lat="46.01363" lon="6.80187">
        <ele>1858.4000244141</ele>
        <time>2023-09-30T07:58:50.000Z</time>
      </trkpt>
      <trkpt lat="46.01362" lon="6.80187">
        <ele>1858.5999755859</ele>
        <time>2023-09-30T07:58:51.000Z</time>
      </trkpt>
      <trkpt lat="46.01362" lon="6.80186">
        <ele>1858.8000488281</ele>
        <time>2023-09-30T07:58:52.000Z</time>
      </trkpt>
      <trkpt lat="46.01361" lon="6.80186">
        <ele>1859</ele>
        <time>2023-09-30T07:58:53.000Z</time>
      </trkpt>
      <trkpt lat="46.01361" lon="6.80185">
        <ele>1859.1999511719</ele>
        <time>2023-09-30T07:58:54.000Z</time>
      </trkpt>
      <trkpt lat="46.0136" lon="6.80184">
        <ele>1859.4000244141</ele>
        <time>2023-09-30T07:58:55.000Z</time>
      </trkpt>
      <trkpt lat="46.0136" lon="6.80183">
        <ele>1859.5999755859</ele>
        <time>2023-09-30T07:58:56.000Z</time>
      </trkpt>
      <trkpt lat="46.01359" lon="6.80182">
        <ele>1859.8000488281</ele>
        <time>2023-09-30T07:58:57.000Z</time>
      </trkpt>
      <trkpt lat="46.01359" lon="6.80182">
        <ele>1860</ele>
        <time>2023-09-30T07:58:58.000Z</time>
      </trkpt>
      <trkpt lat="46.01359" lon="6.80181">
        <ele>1860.1999511719</ele>
        <time>2023-09-30T07:58:59.000Z</time>
      </trkpt>
      <trkpt lat="46.01359" lon="6.8018">
        <ele>1860.4000244141</ele>
        <time>2023-09-30T07:59:00.000Z</time>
      </trkpt>
      <trkpt lat="46.01359" lon="6.80179">
        <ele>1860.5999755859</ele>
        <time>2023-09-30T07:59:01.000Z</time>
      </trkpt>
      <trkpt lat="46.01359" lon="6.80179">
        <ele>1860.5999755859</ele>
        <time>2023-09-30T07:59:02.000Z</time>
      </trkpt>
      <trkpt lat="46.01358" lon="6.80178">
        <ele>1860.8000488281</ele>
        <time>2023-09-30T07:59:03.000Z</time>
      </trkpt>
      <trkpt lat="46.01358" lon="6.80177">
        <ele>1861</ele>
        <time>2023-09-30T07:59:04.000Z</time>
      </trkpt>
      <trkpt lat="46.01357" lon="6.80176">
        <ele>1861.1999511719</ele>
        <time>2023-09-30T07:59:05.000Z</time>
      </trkpt>
      <trkpt lat="46.01356" lon="6.80175">
        <ele>1861.4000244141</ele>
        <time>2023-09-30T07:59:06.000Z</time>
      </trkpt>
      <trkpt lat="46.01355" lon="6.80174">
        <ele>1861.5999755859</ele>
        <time>2023-09-30T07:59:07.000Z</time>
      </trkpt>
      <trkpt lat="46.01355" lon="6.80173">
        <ele>1861.5999755859</ele>
        <time>2023-09-30T07:59:08.000Z</time>
      </trkpt>
      <trkpt lat="46.01354" lon="6.80172">
        <ele>1861.8000488281</ele>
        <time>2023-09-30T07:59:09.000Z</time>
      </trkpt>
      <trkpt lat="46.01353" lon="6.80171">
        <ele>1861.8000488281</ele>
        <time>2023-09-30T07:59:10.000Z</time>
      </trkpt>
      <trkpt lat="46.01352" lon="6.8017">
        <ele>1862</ele>
        <time>2023-09-30T07:59:11.000Z</time>
      </trkpt>
      <trkpt lat="46.01351" lon="6.8017">
        <ele>1862.1999511719</ele>
        <time>2023-09-30T07:59:12.000Z</time>
      </trkpt>
      <trkpt lat="46.01351" lon="6.80169">
        <ele>1862.4000244141</ele>
        <time>2023-09-30T07:59:13.000Z</time>
      </trkpt>
      <trkpt lat="46.0135" lon="6.80168">
        <ele>1862.4000244141</ele>
        <time>2023-09-30T07:59:14.000Z</time>
      </trkpt>
      <trkpt lat="46.01349" lon="6.80167">
        <ele>1862.4000244141</ele>
        <time>2023-09-30T07:59:15.000Z</time>
      </trkpt>
      <trkpt lat="46.01349" lon="6.80167">
        <ele>1862.5999755859</ele>
        <time>2023-09-30T07:59:16.000Z</time>
      </trkpt>
      <trkpt lat="46.01348" lon="6.80166">
        <ele>1862.5999755859</ele>
        <time>2023-09-30T07:59:17.000Z</time>
      </trkpt>
      <trkpt lat="46.01347" lon="6.80165">
        <ele>1862.5999755859</ele>
        <time>2023-09-30T07:59:18.000Z</time>
      </trkpt>
      <trkpt lat="46.01346" lon="6.80164">
        <ele>1862.8000488281</ele>
        <time>2023-09-30T07:59:19.000Z</time>
      </trkpt>
      <trkpt lat="46.01346" lon="6.80164">
        <ele>1862.8000488281</ele>
        <time>2023-09-30T07:59:20.000Z</time>
      </trkpt>
      <trkpt lat="46.01345" lon="6.80163">
        <ele>1863</ele>
        <time>2023-09-30T07:59:21.000Z</time>
      </trkpt>
      <trkpt lat="46.01345" lon="6.80163">
        <ele>1863.1999511719</ele>
        <time>2023-09-30T07:59:22.000Z</time>
      </trkpt>
      <trkpt lat="46.01345" lon="6.80163">
        <ele>1863.1999511719</ele>
        <time>2023-09-30T07:59:23.000Z</time>
      </trkpt>
      <trkpt lat="46.01344" lon="6.80162">
        <ele>1863.5999755859</ele>
        <time>2023-09-30T07:59:24.000Z</time>
      </trkpt>
      <trkpt lat="46.01343" lon="6.80161">
        <ele>1863.5999755859</ele>
        <time>2023-09-30T07:59:25.000Z</time>
      </trkpt>
      <trkpt lat="46.01343" lon="6.80161">
        <ele>1863.8000488281</ele>
        <time>2023-09-30T07:59:26.000Z</time>
      </trkpt>
      <trkpt lat="46.01342" lon="6.80162">
        <ele>1864</ele>
        <time>2023-09-30T07:59:27.000Z</time>
      </trkpt>
      <trkpt lat="46.01342" lon="6.80163">
        <ele>1864</ele>
        <time>2023-09-30T07:59:28.000Z</time>
      </trkpt>
      <trkpt lat="46.01342" lon="6.80164">
        <ele>1864.1999511719</ele>
        <time>2023-09-30T07:59:29.000Z</time>
      </trkpt>
      <trkpt lat="46.01343" lon="6.80165">
        <ele>1864.4000244141</ele>
        <time>2023-09-30T07:59:30.000Z</time>
      </trkpt>
      <trkpt lat="46.01343" lon="6.80166">
        <ele>1864.8000488281</ele>
        <time>2023-09-30T07:59:31.000Z</time>
      </trkpt>
      <trkpt lat="46.01344" lon="6.80166">
        <ele>1865</ele>
        <time>2023-09-30T07:59:32.000Z</time>
      </trkpt>
      <trkpt lat="46.01345" lon="6.80167">
        <ele>1865.4000244141</ele>
        <time>2023-09-30T07:59:33.000Z</time>
      </trkpt>
      <trkpt lat="46.01345" lon="6.80168">
        <ele>1865.5999755859</ele>
        <time>2023-09-30T07:59:34.000Z</time>
      </trkpt>
      <trkpt lat="46.01346" lon="6.80169">
        <ele>1865.8000488281</ele>
        <time>2023-09-30T07:59:35.000Z</time>
      </trkpt>
      <trkpt lat="46.01347" lon="6.8017">
        <ele>1866</ele>
        <time>2023-09-30T07:59:36.000Z</time>
      </trkpt>
      <trkpt lat="46.01347" lon="6.80171">
        <ele>1866.1999511719</ele>
        <time>2023-09-30T07:59:37.000Z</time>
      </trkpt>
      <trkpt lat="46.01347" lon="6.80173">
        <ele>1866.1999511719</ele>
        <time>2023-09-30T07:59:38.000Z</time>
      </trkpt>
      <trkpt lat="46.01348" lon="6.80173">
        <ele>1866.4000244141</ele>
        <time>2023-09-30T07:59:39.000Z</time>
      </trkpt>
      <trkpt lat="46.01348" lon="6.80173">
        <ele>1866.4000244141</ele>
        <time>2023-09-30T07:59:56.000Z</time>
      </trkpt>
      <trkpt lat="46.01348" lon="6.80175">
        <ele>1866.5999755859</ele>
        <time>2023-09-30T07:59:57.000Z</time>
      </trkpt>
      <trkpt lat="46.01349" lon="6.8018">
        <ele>1866.5999755859</ele>
        <time>2023-09-30T07:59:59.000Z</time>
      </trkpt>
      <trkpt lat="46.0135" lon="6.80181">
        <ele>1866.5999755859</ele>
        <time>2023-09-30T08:00:00.000Z</time>
      </trkpt>
      <trkpt lat="46.01353" lon="6.80194">
        <ele>1867</ele>
        <time>2023-09-30T08:00:06.000Z</time>
      </trkpt>
      <trkpt lat="46.01354" lon="6.80196">
        <ele>1867.1999511719</ele>
        <time>2023-09-30T08:00:07.000Z</time>
      </trkpt>
      <trkpt lat="46.01355" lon="6.80218">
        <ele>1868.1999511719</ele>
        <time>2023-09-30T08:00:17.000Z</time>
      </trkpt>
      <trkpt lat="46.01354" lon="6.80219">
        <ele>1868.4000244141</ele>
        <time>2023-09-30T08:00:18.000Z</time>
      </trkpt>
      <trkpt lat="46.01353" lon="6.8022">
        <ele>1868.5999755859</ele>
        <time>2023-09-30T08:00:19.000Z</time>
      </trkpt>
      <trkpt lat="46.01352" lon="6.80222">
        <ele>1868.8000488281</ele>
        <time>2023-09-30T08:00:20.000Z</time>
      </trkpt>
      <trkpt lat="46.01351" lon="6.80223">
        <ele>1868.8000488281</ele>
        <time>2023-09-30T08:00:21.000Z</time>
      </trkpt>
      <trkpt lat="46.0135" lon="6.80225">
        <ele>1868.8000488281</ele>
        <time>2023-09-30T08:00:22.000Z</time>
      </trkpt>
      <trkpt lat="46.01349" lon="6.80226">
        <ele>1868.8000488281</ele>
        <time>2023-09-30T08:00:23.000Z</time>
      </trkpt>
      <trkpt lat="46.01348" lon="6.80227">
        <ele>1869</ele>
        <time>2023-09-30T08:00:24.000Z</time>
      </trkpt>
      <trkpt lat="46.01347" lon="6.80228">
        <ele>1869</ele>
        <time>2023-09-30T08:00:25.000Z</time>
      </trkpt>
      <trkpt lat="46.01346" lon="6.80228">
        <ele>1869</ele>
        <time>2023-09-30T08:00:26.000Z</time>
      </trkpt>
      <trkpt lat="46.01345" lon="6.80229">
        <ele>1869.1999511719</ele>
        <time>2023-09-30T08:00:27.000Z</time>
      </trkpt>
      <trkpt lat="46.01344" lon="6.8023">
        <ele>1869.1999511719</ele>
        <time>2023-09-30T08:00:28.000Z</time>
      </trkpt>
      <trkpt lat="46.01341" lon="6.80231">
        <ele>1869.5999755859</ele>
        <time>2023-09-30T08:00:30.000Z</time>
      </trkpt>
      <trkpt lat="46.01339" lon="6.80233">
        <ele>1869.8000488281</ele>
        <time>2023-09-30T08:00:32.000Z</time>
      </trkpt>
      <trkpt lat="46.01339" lon="6.80234">
        <ele>1869.8000488281</ele>
        <time>2023-09-30T08:00:33.000Z</time>
      </trkpt>
      <trkpt lat="46.01338" lon="6.80236">
        <ele>1870</ele>
        <time>2023-09-30T08:00:34.000Z</time>
      </trkpt>
      <trkpt lat="46.01337" lon="6.80237">
        <ele>1870</ele>
        <time>2023-09-30T08:00:35.000Z</time>
      </trkpt>
      <trkpt lat="46.01335" lon="6.80239">
        <ele>1870.1999511719</ele>
        <time>2023-09-30T08:00:37.000Z</time>
      </trkpt>
      <trkpt lat="46.01334" lon="6.80239">
        <ele>1870.4000244141</ele>
        <time>2023-09-30T08:00:38.000Z</time>
      </trkpt>
      <trkpt lat="46.01333" lon="6.80241">
        <ele>1871</ele>
        <time>2023-09-30T08:00:41.000Z</time>
      </trkpt>
      <trkpt lat="46.01333" lon="6.80242">
        <ele>1871</ele>
        <time>2023-09-30T08:00:42.000Z</time>
      </trkpt>
      <trkpt lat="46.01332" lon="6.80243">
        <ele>1871.1999511719</ele>
        <time>2023-09-30T08:00:43.000Z</time>
      </trkpt>
      <trkpt lat="46.01332" lon="6.80244">
        <ele>1871.1999511719</ele>
        <time>2023-09-30T08:00:44.000Z</time>
      </trkpt>
      <trkpt lat="46.01331" lon="6.80245">
        <ele>1871.5999755859</ele>
        <time>2023-09-30T08:00:45.000Z</time>
      </trkpt>
      <trkpt lat="46.01331" lon="6.80246">
        <ele>1871.5999755859</ele>
        <time>2023-09-30T08:00:46.000Z</time>
      </trkpt>
      <trkpt lat="46.01331" lon="6.80247">
        <ele>1871.8000488281</ele>
        <time>2023-09-30T08:00:47.000Z</time>
      </trkpt>
      <trkpt lat="46.0133" lon="6.80248">
        <ele>1872</ele>
        <time>2023-09-30T08:00:48.000Z</time>
      </trkpt>
      <trkpt lat="46.0133" lon="6.80249">
        <ele>1872</ele>
        <time>2023-09-30T08:00:49.000Z</time>
      </trkpt>
      <trkpt lat="46.01329" lon="6.8025">
        <ele>1872.4000244141</ele>
        <time>2023-09-30T08:00:50.000Z</time>
      </trkpt>
      <trkpt lat="46.01329" lon="6.8025">
        <ele>1872.4000244141</ele>
        <time>2023-09-30T08:00:51.000Z</time>
      </trkpt>
      <trkpt lat="46.01329" lon="6.8025">
        <ele>1872.5999755859</ele>
        <time>2023-09-30T08:00:52.000Z</time>
      </trkpt>
      <trkpt lat="46.01328" lon="6.80251">
        <ele>1873</ele>
        <time>2023-09-30T08:00:53.000Z</time>
      </trkpt>
      <trkpt lat="46.01327" lon="6.80252">
        <ele>1873</ele>
        <time>2023-09-30T08:00:54.000Z</time>
      </trkpt>
      <trkpt lat="46.01326" lon="6.80253">
        <ele>1873.1999511719</ele>
        <time>2023-09-30T08:00:55.000Z</time>
      </trkpt>
      <trkpt lat="46.01326" lon="6.80254">
        <ele>1873.4000244141</ele>
        <time>2023-09-30T08:00:56.000Z</time>
      </trkpt>
      <trkpt lat="46.01325" lon="6.80255">
        <ele>1873.4000244141</ele>
        <time>2023-09-30T08:00:57.000Z</time>
      </trkpt>
      <trkpt lat="46.01324" lon="6.80256">
        <ele>1873.5999755859</ele>
        <time>2023-09-30T08:00:58.000Z</time>
      </trkpt>
      <trkpt lat="46.01324" lon="6.80257">
        <ele>1873.5999755859</ele>
        <time>2023-09-30T08:00:59.000Z</time>
      </trkpt>
      <trkpt lat="46.01323" lon="6.80258">
        <ele>1874</ele>
        <time>2023-09-30T08:01:00.000Z</time>
      </trkpt>
      <trkpt lat="46.01322" lon="6.80259">
        <ele>1874</ele>
        <time>2023-09-30T08:01:01.000Z</time>
      </trkpt>
      <trkpt lat="46.01322" lon="6.8026">
        <ele>1874.1999511719</ele>
        <time>2023-09-30T08:01:02.000Z</time>
      </trkpt>
      <trkpt lat="46.01321" lon="6.8026">
        <ele>1874.4000244141</ele>
        <time>2023-09-30T08:01:03.000Z</time>
      </trkpt>
      <trkpt lat="46.0132" lon="6.80261">
        <ele>1874.5999755859</ele>
        <time>2023-09-30T08:01:04.000Z</time>
      </trkpt>
      <trkpt lat="46.01319" lon="6.8026">
        <ele>1874.5999755859</ele>
        <time>2023-09-30T08:01:05.000Z</time>
      </trkpt>
      <trkpt lat="46.01319" lon="6.8026">
        <ele>1874.8000488281</ele>
        <time>2023-09-30T08:01:06.000Z</time>
      </trkpt>
      <trkpt lat="46.0132" lon="6.80259">
        <ele>1875</ele>
        <time>2023-09-30T08:01:07.000Z</time>
      </trkpt>
      <trkpt lat="46.0132" lon="6.80258">
        <ele>1875.1999511719</ele>
        <time>2023-09-30T08:01:08.000Z</time>
      </trkpt>
      <trkpt lat="46.0132" lon="6.80257">
        <ele>1875.4000244141</ele>
        <time>2023-09-30T08:01:09.000Z</time>
      </trkpt>
      <trkpt lat="46.0132" lon="6.80257">
        <ele>1875.4000244141</ele>
        <time>2023-09-30T08:01:10.000Z</time>
      </trkpt>
      <trkpt lat="46.0132" lon="6.80256">
        <ele>1875.5999755859</ele>
        <time>2023-09-30T08:01:11.000Z</time>
      </trkpt>
      <trkpt lat="46.0132" lon="6.80255">
        <ele>1875.8000488281</ele>
        <time>2023-09-30T08:01:12.000Z</time>
      </trkpt>
      <trkpt lat="46.0132" lon="6.80254">
        <ele>1875.8000488281</ele>
        <time>2023-09-30T08:01:13.000Z</time>
      </trkpt>
      <trkpt lat="46.0132" lon="6.80253">
        <ele>1876</ele>
        <time>2023-09-30T08:01:14.000Z</time>
      </trkpt>
      <trkpt lat="46.01319" lon="6.80251">
        <ele>1876</ele>
        <time>2023-09-30T08:01:15.000Z</time>
      </trkpt>
      <trkpt lat="46.01319" lon="6.80249">
        <ele>1876.1999511719</ele>
        <time>2023-09-30T08:01:16.000Z</time>
      </trkpt>
      <trkpt lat="46.01319" lon="6.80248">
        <ele>1876.4000244141</ele>
        <time>2023-09-30T08:01:17.000Z</time>
      </trkpt>
      <trkpt lat="46.0132" lon="6.80246">
        <ele>1876.4000244141</ele>
        <time>2023-09-30T08:01:18.000Z</time>
      </trkpt>
      <trkpt lat="46.0132" lon="6.80244">
        <ele>1876.5999755859</ele>
        <time>2023-09-30T08:01:19.000Z</time>
      </trkpt>
      <trkpt lat="46.0132" lon="6.80243">
        <ele>1876.5999755859</ele>
        <time>2023-09-30T08:01:20.000Z</time>
      </trkpt>
      <trkpt lat="46.0132" lon="6.80242">
        <ele>1876.8000488281</ele>
        <time>2023-09-30T08:01:21.000Z</time>
      </trkpt>
      <trkpt lat="46.01321" lon="6.8024">
        <ele>1876.8000488281</ele>
        <time>2023-09-30T08:01:22.000Z</time>
      </trkpt>
      <trkpt lat="46.01321" lon="6.80239">
        <ele>1876.8000488281</ele>
        <time>2023-09-30T08:01:23.000Z</time>
      </trkpt>
      <trkpt lat="46.01322" lon="6.80238">
        <ele>1877</ele>
        <time>2023-09-30T08:01:24.000Z</time>
      </trkpt>
      <trkpt lat="46.01323" lon="6.80236">
        <ele>1877</ele>
        <time>2023-09-30T08:01:25.000Z</time>
      </trkpt>
      <trkpt lat="46.01323" lon="6.80235">
        <ele>1877.1999511719</ele>
        <time>2023-09-30T08:01:26.000Z</time>
      </trkpt>
      <trkpt lat="46.01324" lon="6.80233">
        <ele>1877.1999511719</ele>
        <time>2023-09-30T08:01:27.000Z</time>
      </trkpt>
      <trkpt lat="46.01324" lon="6.80232">
        <ele>1877.4000244141</ele>
        <time>2023-09-30T08:01:28.000Z</time>
      </trkpt>
      <trkpt lat="46.01325" lon="6.8023">
        <ele>1877.5999755859</ele>
        <time>2023-09-30T08:01:29.000Z</time>
      </trkpt>
      <trkpt lat="46.01325" lon="6.80228">
        <ele>1877.5999755859</ele>
        <time>2023-09-30T08:01:30.000Z</time>
      </trkpt>
      <trkpt lat="46.01326" lon="6.80227">
        <ele>1877.8000488281</ele>
        <time>2023-09-30T08:01:31.000Z</time>
      </trkpt>
      <trkpt lat="46.01326" lon="6.80226">
        <ele>1877.8000488281</ele>
        <time>2023-09-30T08:01:32.000Z</time>
      </trkpt>
      <trkpt lat="46.01327" lon="6.80225">
        <ele>1877.8000488281</ele>
        <time>2023-09-30T08:01:33.000Z</time>
      </trkpt>
      <trkpt lat="46.01327" lon="6.80223">
        <ele>1878</ele>
        <time>2023-09-30T08:01:34.000Z</time>
      </trkpt>
      <trkpt lat="46.01328" lon="6.80221">
        <ele>1878</ele>
        <time>2023-09-30T08:01:35.000Z</time>
      </trkpt>
      <trkpt lat="46.01328" lon="6.8022">
        <ele>1878</ele>
        <time>2023-09-30T08:01:36.000Z</time>
      </trkpt>
      <trkpt lat="46.01329" lon="6.80219">
        <ele>1878</ele>
        <time>2023-09-30T08:01:37.000Z</time>
      </trkpt>
      <trkpt lat="46.01329" lon="6.80217">
        <ele>1878</ele>
        <time>2023-09-30T08:01:38.000Z</time>
      </trkpt>
      <trkpt lat="46.01329" lon="6.80215">
        <ele>1878</ele>
        <time>2023-09-30T08:01:39.000Z</time>
      </trkpt>
      <trkpt lat="46.01329" lon="6.80214">
        <ele>1878.1999511719</ele>
        <time>2023-09-30T08:01:40.000Z</time>
      </trkpt>
      <trkpt lat="46.01329" lon="6.80211">
        <ele>1878.1999511719</ele>
        <time>2023-09-30T08:01:41.000Z</time>
      </trkpt>
      <trkpt lat="46.01328" lon="6.8021">
        <ele>1878.4000244141</ele>
        <time>2023-09-30T08:01:42.000Z</time>
      </trkpt>
      <trkpt lat="46.01328" lon="6.80208">
        <ele>1878.4000244141</ele>
        <time>2023-09-30T08:01:43.000Z</time>
      </trkpt>
      <trkpt lat="46.01327" lon="6.80207">
        <ele>1878.5999755859</ele>
        <time>2023-09-30T08:01:44.000Z</time>
      </trkpt>
      <trkpt lat="46.01327" lon="6.80206">
        <ele>1878.5999755859</ele>
        <time>2023-09-30T08:01:45.000Z</time>
      </trkpt>
      <trkpt lat="46.01326" lon="6.80205">
        <ele>1878.8000488281</ele>
        <time>2023-09-30T08:01:46.000Z</time>
      </trkpt>
      <trkpt lat="46.01324" lon="6.80201">
        <ele>1879.1999511719</ele>
        <time>2023-09-30T08:01:49.000Z</time>
      </trkpt>
      <trkpt lat="46.01323" lon="6.80199">
        <ele>1879.4000244141</ele>
        <time>2023-09-30T08:01:51.000Z</time>
      </trkpt>
      <trkpt lat="46.01322" lon="6.80198">
        <ele>1879.4000244141</ele>
        <time>2023-09-30T08:01:52.000Z</time>
      </trkpt>
      <trkpt lat="46.01322" lon="6.80198">
        <ele>1879.8000488281</ele>
        <time>2023-09-30T08:01:53.000Z</time>
      </trkpt>
      <trkpt lat="46.01321" lon="6.80197">
        <ele>1880</ele>
        <time>2023-09-30T08:01:54.000Z</time>
      </trkpt>
      <trkpt lat="46.0132" lon="6.80196">
        <ele>1880</ele>
        <time>2023-09-30T08:01:55.000Z</time>
      </trkpt>
      <trkpt lat="46.01319" lon="6.80196">
        <ele>1880.1999511719</ele>
        <time>2023-09-30T08:01:56.000Z</time>
      </trkpt>
      <trkpt lat="46.01319" lon="6.80196">
        <ele>1880.4000244141</ele>
        <time>2023-09-30T08:01:57.000Z</time>
      </trkpt>
      <trkpt lat="46.01318" lon="6.80196">
        <ele>1880.5999755859</ele>
        <time>2023-09-30T08:01:58.000Z</time>
      </trkpt>
      <trkpt lat="46.01317" lon="6.80196">
        <ele>1880.8000488281</ele>
        <time>2023-09-30T08:01:59.000Z</time>
      </trkpt>
      <trkpt lat="46.01316" lon="6.80197">
        <ele>1880.8000488281</ele>
        <time>2023-09-30T08:02:00.000Z</time>
      </trkpt>
      <trkpt lat="46.01316" lon="6.80198">
        <ele>1881.1999511719</ele>
        <time>2023-09-30T08:02:01.000Z</time>
      </trkpt>
      <trkpt lat="46.01315" lon="6.80199">
        <ele>1881.1999511719</ele>
        <time>2023-09-30T08:02:02.000Z</time>
      </trkpt>
      <trkpt lat="46.01315" lon="6.80199">
        <ele>1881.4000244141</ele>
        <time>2023-09-30T08:02:03.000Z</time>
      </trkpt>
      <trkpt lat="46.01315" lon="6.802">
        <ele>1881.4000244141</ele>
        <time>2023-09-30T08:02:04.000Z</time>
      </trkpt>
      <trkpt lat="46.01314" lon="6.80201">
        <ele>1881.5999755859</ele>
        <time>2023-09-30T08:02:05.000Z</time>
      </trkpt>
      <trkpt lat="46.01313" lon="6.80202">
        <ele>1881.5999755859</ele>
        <time>2023-09-30T08:02:06.000Z</time>
      </trkpt>
      <trkpt lat="46.01313" lon="6.80204">
        <ele>1881.8000488281</ele>
        <time>2023-09-30T08:02:07.000Z</time>
      </trkpt>
      <trkpt lat="46.01313" lon="6.80205">
        <ele>1882.1999511719</ele>
        <time>2023-09-30T08:02:08.000Z</time>
      </trkpt>
      <trkpt lat="46.01312" lon="6.80206">
        <ele>1882.4000244141</ele>
        <time>2023-09-30T08:02:09.000Z</time>
      </trkpt>
      <trkpt lat="46.01311" lon="6.80207">
        <ele>1883</ele>
        <time>2023-09-30T08:02:10.000Z</time>
      </trkpt>
      <trkpt lat="46.01311" lon="6.80208">
        <ele>1883</ele>
        <time>2023-09-30T08:02:11.000Z</time>
      </trkpt>
      <trkpt lat="46.0131" lon="6.80209">
        <ele>1883.4000244141</ele>
        <time>2023-09-30T08:02:12.000Z</time>
      </trkpt>
      <trkpt lat="46.01309" lon="6.8021">
        <ele>1883.4000244141</ele>
        <time>2023-09-30T08:02:13.000Z</time>
      </trkpt>
      <trkpt lat="46.01309" lon="6.80211">
        <ele>1883.4000244141</ele>
        <time>2023-09-30T08:02:14.000Z</time>
      </trkpt>
      <trkpt lat="46.01309" lon="6.80211">
        <ele>1883.5999755859</ele>
        <time>2023-09-30T08:02:19.000Z</time>
      </trkpt>
      <trkpt lat="46.01309" lon="6.80211">
        <ele>1884.4000244141</ele>
        <time>2023-09-30T08:02:21.000Z</time>
      </trkpt>
      <trkpt lat="46.01309" lon="6.80211">
        <ele>1885.4000244141</ele>
        <time>2023-09-30T08:02:28.000Z</time>
      </trkpt>
      <trkpt lat="46.01308" lon="6.80211">
        <ele>1885.1999511719</ele>
        <time>2023-09-30T08:02:33.000Z</time>
      </trkpt>
      <trkpt lat="46.01307" lon="6.80212">
        <ele>1885.1999511719</ele>
        <time>2023-09-30T08:02:34.000Z</time>
      </trkpt>
      <trkpt lat="46.01306" lon="6.80214">
        <ele>1885.4000244141</ele>
        <time>2023-09-30T08:02:35.000Z</time>
      </trkpt>
      <trkpt lat="46.01305" lon="6.80215">
        <ele>1885.4000244141</ele>
        <time>2023-09-30T08:02:36.000Z</time>
      </trkpt>
      <trkpt lat="46.01304" lon="6.80216">
        <ele>1885.4000244141</ele>
        <time>2023-09-30T08:02:37.000Z</time>
      </trkpt>
      <trkpt lat="46.01303" lon="6.80216">
        <ele>1885.5999755859</ele>
        <time>2023-09-30T08:02:38.000Z</time>
      </trkpt>
      <trkpt lat="46.01302" lon="6.80217">
        <ele>1885.5999755859</ele>
        <time>2023-09-30T08:02:39.000Z</time>
      </trkpt>
      <trkpt lat="46.01301" lon="6.80218">
        <ele>1885.4000244141</ele>
        <time>2023-09-30T08:02:40.000Z</time>
      </trkpt>
      <trkpt lat="46.013" lon="6.80219">
        <ele>1885.4000244141</ele>
        <time>2023-09-30T08:02:41.000Z</time>
      </trkpt>
      <trkpt lat="46.01298" lon="6.80219">
        <ele>1885.5999755859</ele>
        <time>2023-09-30T08:02:43.000Z</time>
      </trkpt>
      <trkpt lat="46.01297" lon="6.80218">
        <ele>1885.5999755859</ele>
        <time>2023-09-30T08:02:44.000Z</time>
      </trkpt>
      <trkpt lat="46.01297" lon="6.80217">
        <ele>1885.5999755859</ele>
        <time>2023-09-30T08:02:45.000Z</time>
      </trkpt>
      <trkpt lat="46.01296" lon="6.80216">
        <ele>1885.5999755859</ele>
        <time>2023-09-30T08:02:46.000Z</time>
      </trkpt>
      <trkpt lat="46.01296" lon="6.80215">
        <ele>1885.8000488281</ele>
        <time>2023-09-30T08:02:47.000Z</time>
      </trkpt>
      <trkpt lat="46.01295" lon="6.80214">
        <ele>1886.5999755859</ele>
        <time>2023-09-30T08:02:51.000Z</time>
      </trkpt>
      <trkpt lat="46.01294" lon="6.80213">
        <ele>1887.4000244141</ele>
        <time>2023-09-30T08:02:54.000Z</time>
      </trkpt>
      <trkpt lat="46.01293" lon="6.80213">
        <ele>1887.4000244141</ele>
        <time>2023-09-30T08:02:55.000Z</time>
      </trkpt>
      <trkpt lat="46.01293" lon="6.80213">
        <ele>1887.8000488281</ele>
        <time>2023-09-30T08:02:56.000Z</time>
      </trkpt>
      <trkpt lat="46.01292" lon="6.80214">
        <ele>1887.8000488281</ele>
        <time>2023-09-30T08:02:57.000Z</time>
      </trkpt>
      <trkpt lat="46.01291" lon="6.80214">
        <ele>1888</ele>
        <time>2023-09-30T08:02:58.000Z</time>
      </trkpt>
      <trkpt lat="46.01291" lon="6.80214">
        <ele>1888.1999511719</ele>
        <time>2023-09-30T08:02:59.000Z</time>
      </trkpt>
      <trkpt lat="46.0129" lon="6.80214">
        <ele>1888.1999511719</ele>
        <time>2023-09-30T08:03:00.000Z</time>
      </trkpt>
      <trkpt lat="46.0129" lon="6.80214">
        <ele>1888.8000488281</ele>
        <time>2023-09-30T08:03:03.000Z</time>
      </trkpt>
      <trkpt lat="46.0129" lon="6.80214">
        <ele>1889</ele>
        <time>2023-09-30T08:03:04.000Z</time>
      </trkpt>
      <trkpt lat="46.01289" lon="6.80215">
        <ele>1889</ele>
        <time>2023-09-30T08:03:05.000Z</time>
      </trkpt>
      <trkpt lat="46.01288" lon="6.80215">
        <ele>1889.5999755859</ele>
        <time>2023-09-30T08:03:06.000Z</time>
      </trkpt>
      <trkpt lat="46.01288" lon="6.80216">
        <ele>1889.5999755859</ele>
        <time>2023-09-30T08:03:07.000Z</time>
      </trkpt>
      <trkpt lat="46.01287" lon="6.80217">
        <ele>1889.8000488281</ele>
        <time>2023-09-30T08:03:08.000Z</time>
      </trkpt>
      <trkpt lat="46.01286" lon="6.80218">
        <ele>1890</ele>
        <time>2023-09-30T08:03:09.000Z</time>
      </trkpt>
      <trkpt lat="46.01285" lon="6.80219">
        <ele>1890.1999511719</ele>
        <time>2023-09-30T08:03:10.000Z</time>
      </trkpt>
      <trkpt lat="46.01285" lon="6.8022">
        <ele>1890.4000244141</ele>
        <time>2023-09-30T08:03:11.000Z</time>
      </trkpt>
      <trkpt lat="46.01284" lon="6.8022">
        <ele>1890.5999755859</ele>
        <time>2023-09-30T08:03:12.000Z</time>
      </trkpt>
      <trkpt lat="46.01284" lon="6.80221">
        <ele>1890.8000488281</ele>
        <time>2023-09-30T08:03:13.000Z</time>
      </trkpt>
      <trkpt lat="46.01283" lon="6.80221">
        <ele>1890.8000488281</ele>
        <time>2023-09-30T08:03:14.000Z</time>
      </trkpt>
      <trkpt lat="46.01283" lon="6.80221">
        <ele>1891</ele>
        <time>2023-09-30T08:03:15.000Z</time>
      </trkpt>
      <trkpt lat="46.01283" lon="6.80221">
        <ele>1891.1999511719</ele>
        <time>2023-09-30T08:03:16.000Z</time>
      </trkpt>
      <trkpt lat="46.01283" lon="6.80222">
        <ele>1891.4000244141</ele>
        <time>2023-09-30T08:03:17.000Z</time>
      </trkpt>
      <trkpt lat="46.01282" lon="6.80223">
        <ele>1891.5999755859</ele>
        <time>2023-09-30T08:03:18.000Z</time>
      </trkpt>
      <trkpt lat="46.01282" lon="6.80223">
        <ele>1891.5999755859</ele>
        <time>2023-09-30T08:03:19.000Z</time>
      </trkpt>
      <trkpt lat="46.01281" lon="6.80224">
        <ele>1892</ele>
        <time>2023-09-30T08:03:20.000Z</time>
      </trkpt>
      <trkpt lat="46.01281" lon="6.80225">
        <ele>1892</ele>
        <time>2023-09-30T08:03:21.000Z</time>
      </trkpt>
      <trkpt lat="46.0128" lon="6.80225">
        <ele>1892.1999511719</ele>
        <time>2023-09-30T08:03:22.000Z</time>
      </trkpt>
      <trkpt lat="46.0128" lon="6.80226">
        <ele>1892.4000244141</ele>
        <time>2023-09-30T08:03:23.000Z</time>
      </trkpt>
      <trkpt lat="46.01279" lon="6.80226">
        <ele>1892.5999755859</ele>
        <time>2023-09-30T08:03:24.000Z</time>
      </trkpt>
      <trkpt lat="46.0128" lon="6.80226">
        <ele>1892.5999755859</ele>
        <time>2023-09-30T08:03:25.000Z</time>
      </trkpt>
      <trkpt lat="46.01279" lon="6.80227">
        <ele>1892.5999755859</ele>
        <time>2023-09-30T08:03:26.000Z</time>
      </trkpt>
      <trkpt lat="46.01279" lon="6.80227">
        <ele>1893</ele>
        <time>2023-09-30T08:03:27.000Z</time>
      </trkpt>
      <trkpt lat="46.01279" lon="6.80228">
        <ele>1893.1999511719</ele>
        <time>2023-09-30T08:03:28.000Z</time>
      </trkpt>
      <trkpt lat="46.01278" lon="6.80229">
        <ele>1893.4000244141</ele>
        <time>2023-09-30T08:03:29.000Z</time>
      </trkpt>
      <trkpt lat="46.01277" lon="6.80229">
        <ele>1893.5999755859</ele>
        <time>2023-09-30T08:03:30.000Z</time>
      </trkpt>
      <trkpt lat="46.01277" lon="6.8023">
        <ele>1893.8000488281</ele>
        <time>2023-09-30T08:03:31.000Z</time>
      </trkpt>
      <trkpt lat="46.01277" lon="6.80231">
        <ele>1894</ele>
        <time>2023-09-30T08:03:32.000Z</time>
      </trkpt>
      <trkpt lat="46.01277" lon="6.80232">
        <ele>1894.1999511719</ele>
        <time>2023-09-30T08:03:33.000Z</time>
      </trkpt>
      <trkpt lat="46.01276" lon="6.80233">
        <ele>1894.4000244141</ele>
        <time>2023-09-30T08:03:34.000Z</time>
      </trkpt>
      <trkpt lat="46.01276" lon="6.80234">
        <ele>1894.4000244141</ele>
        <time>2023-09-30T08:03:35.000Z</time>
      </trkpt>
      <trkpt lat="46.01276" lon="6.80235">
        <ele>1894.8000488281</ele>
        <time>2023-09-30T08:03:36.000Z</time>
      </trkpt>
      <trkpt lat="46.01275" lon="6.80235">
        <ele>1894.8000488281</ele>
        <time>2023-09-30T08:03:37.000Z</time>
      </trkpt>
      <trkpt lat="46.01275" lon="6.80235">
        <ele>1894.8000488281</ele>
        <time>2023-09-30T08:03:38.000Z</time>
      </trkpt>
      <trkpt lat="46.01274" lon="6.80235">
        <ele>1895</ele>
        <time>2023-09-30T08:03:39.000Z</time>
      </trkpt>
      <trkpt lat="46.01273" lon="6.80235">
        <ele>1895</ele>
        <time>2023-09-30T08:03:40.000Z</time>
      </trkpt>
      <trkpt lat="46.01273" lon="6.80234">
        <ele>1895.4000244141</ele>
        <time>2023-09-30T08:03:41.000Z</time>
      </trkpt>
      <trkpt lat="46.01273" lon="6.80234">
        <ele>1895.4000244141</ele>
        <time>2023-09-30T08:03:42.000Z</time>
      </trkpt>
      <trkpt lat="46.01273" lon="6.80234">
        <ele>1895.5999755859</ele>
        <time>2023-09-30T08:03:43.000Z</time>
      </trkpt>
      <trkpt lat="46.01272" lon="6.80234">
        <ele>1896</ele>
        <time>2023-09-30T08:03:45.000Z</time>
      </trkpt>
      <trkpt lat="46.01271" lon="6.80234">
        <ele>1896.1999511719</ele>
        <time>2023-09-30T08:03:46.000Z</time>
      </trkpt>
      <trkpt lat="46.0127" lon="6.80234">
        <ele>1896.1999511719</ele>
        <time>2023-09-30T08:03:47.000Z</time>
      </trkpt>
      <trkpt lat="46.0127" lon="6.80233">
        <ele>1896.5999755859</ele>
        <time>2023-09-30T08:03:48.000Z</time>
      </trkpt>
      <trkpt lat="46.01269" lon="6.80233">
        <ele>1896.5999755859</ele>
        <time>2023-09-30T08:03:49.000Z</time>
      </trkpt>
      <trkpt lat="46.01268" lon="6.80233">
        <ele>1896.8000488281</ele>
        <time>2023-09-30T08:03:50.000Z</time>
      </trkpt>
      <trkpt lat="46.01267" lon="6.80233">
        <ele>1896.8000488281</ele>
        <time>2023-09-30T08:03:51.000Z</time>
      </trkpt>
      <trkpt lat="46.01266" lon="6.80234">
        <ele>1897.1999511719</ele>
        <time>2023-09-30T08:03:52.000Z</time>
      </trkpt>
      <trkpt lat="46.01266" lon="6.80234">
        <ele>1897.4000244141</ele>
        <time>2023-09-30T08:03:53.000Z</time>
      </trkpt>
      <trkpt lat="46.01265" lon="6.80235">
        <ele>1897.5999755859</ele>
        <time>2023-09-30T08:03:54.000Z</time>
      </trkpt>
      <trkpt lat="46.01264" lon="6.80235">
        <ele>1897.5999755859</ele>
        <time>2023-09-30T08:03:55.000Z</time>
      </trkpt>
      <trkpt lat="46.01264" lon="6.80236">
        <ele>1897.5999755859</ele>
        <time>2023-09-30T08:03:56.000Z</time>
      </trkpt>
      <trkpt lat="46.01263" lon="6.80237">
        <ele>1897.8000488281</ele>
        <time>2023-09-30T08:03:57.000Z</time>
      </trkpt>
      <trkpt lat="46.01263" lon="6.80237">
        <ele>1898</ele>
        <time>2023-09-30T08:03:58.000Z</time>
      </trkpt>
      <trkpt lat="46.01263" lon="6.80238">
        <ele>1898.1999511719</ele>
        <time>2023-09-30T08:03:59.000Z</time>
      </trkpt>
      <trkpt lat="46.01262" lon="6.80238">
        <ele>1898.4000244141</ele>
        <time>2023-09-30T08:04:00.000Z</time>
      </trkpt>
      <trkpt lat="46.01262" lon="6.80238">
        <ele>1898.5999755859</ele>
        <time>2023-09-30T08:04:01.000Z</time>
      </trkpt>
      <trkpt lat="46.01261" lon="6.80239">
        <ele>1898.5999755859</ele>
        <time>2023-09-30T08:04:02.000Z</time>
      </trkpt>
      <trkpt lat="46.01261" lon="6.80239">
        <ele>1898.8000488281</ele>
        <time>2023-09-30T08:04:03.000Z</time>
      </trkpt>
      <trkpt lat="46.01261" lon="6.80239">
        <ele>1898.8000488281</ele>
        <time>2023-09-30T08:04:04.000Z</time>
      </trkpt>
      <trkpt lat="46.0126" lon="6.80239">
        <ele>1899.1999511719</ele>
        <time>2023-09-30T08:04:05.000Z</time>
      </trkpt>
      <trkpt lat="46.0126" lon="6.80238">
        <ele>1899.4000244141</ele>
        <time>2023-09-30T08:04:06.000Z</time>
      </trkpt>
      <trkpt lat="46.01259" lon="6.80238">
        <ele>1899.4000244141</ele>
        <time>2023-09-30T08:04:07.000Z</time>
      </trkpt>
      <trkpt lat="46.01259" lon="6.80237">
        <ele>1899.5999755859</ele>
        <time>2023-09-30T08:04:08.000Z</time>
      </trkpt>
      <trkpt lat="46.01258" lon="6.80237">
        <ele>1899.8000488281</ele>
        <time>2023-09-30T08:04:09.000Z</time>
      </trkpt>
      <trkpt lat="46.01257" lon="6.80237">
        <ele>1899.8000488281</ele>
        <time>2023-09-30T08:04:10.000Z</time>
      </trkpt>
      <trkpt lat="46.01257" lon="6.80237">
        <ele>1900.1999511719</ele>
        <time>2023-09-30T08:04:11.000Z</time>
      </trkpt>
      <trkpt lat="46.01257" lon="6.80237">
        <ele>1900.4000244141</ele>
        <time>2023-09-30T08:04:12.000Z</time>
      </trkpt>
      <trkpt lat="46.01256" lon="6.80236">
        <ele>1900.5999755859</ele>
        <time>2023-09-30T08:04:13.000Z</time>
      </trkpt>
      <trkpt lat="46.01256" lon="6.80236">
        <ele>1900.8000488281</ele>
        <time>2023-09-30T08:04:14.000Z</time>
      </trkpt>
      <trkpt lat="46.01256" lon="6.80236">
        <ele>1901</ele>
        <time>2023-09-30T08:04:16.000Z</time>
      </trkpt>
      <trkpt lat="46.01255" lon="6.80235">
        <ele>1901.1999511719</ele>
        <time>2023-09-30T08:04:18.000Z</time>
      </trkpt>
      <trkpt lat="46.01255" lon="6.80235">
        <ele>1901.4000244141</ele>
        <time>2023-09-30T08:04:19.000Z</time>
      </trkpt>
      <trkpt lat="46.01254" lon="6.80234">
        <ele>1901.4000244141</ele>
        <time>2023-09-30T08:04:20.000Z</time>
      </trkpt>
      <trkpt lat="46.01254" lon="6.80233">
        <ele>1901.5999755859</ele>
        <time>2023-09-30T08:04:21.000Z</time>
      </trkpt>
      <trkpt lat="46.01253" lon="6.80233">
        <ele>1901.5999755859</ele>
        <time>2023-09-30T08:04:22.000Z</time>
      </trkpt>
      <trkpt lat="46.01253" lon="6.80233">
        <ele>1901.8000488281</ele>
        <time>2023-09-30T08:04:23.000Z</time>
      </trkpt>
      <trkpt lat="46.01253" lon="6.80233">
        <ele>1902</ele>
        <time>2023-09-30T08:04:26.000Z</time>
      </trkpt>
      <trkpt lat="46.01253" lon="6.80233">
        <ele>1902.4000244141</ele>
        <time>2023-09-30T08:04:29.000Z</time>
      </trkpt>
      <trkpt lat="46.01252" lon="6.80233">
        <ele>1902.5999755859</ele>
        <time>2023-09-30T08:04:30.000Z</time>
      </trkpt>
      <trkpt lat="46.01251" lon="6.80233">
        <ele>1902.8000488281</ele>
        <time>2023-09-30T08:04:31.000Z</time>
      </trkpt>
      <trkpt lat="46.01251" lon="6.80233">
        <ele>1902.8000488281</ele>
        <time>2023-09-30T08:04:32.000Z</time>
      </trkpt>
      <trkpt lat="46.0125" lon="6.80232">
        <ele>1902.8000488281</ele>
        <time>2023-09-30T08:04:33.000Z</time>
      </trkpt>
      <trkpt lat="46.01249" lon="6.80232">
        <ele>1903</ele>
        <time>2023-09-30T08:04:34.000Z</time>
      </trkpt>
      <trkpt lat="46.01249" lon="6.80232">
        <ele>1903.1999511719</ele>
        <time>2023-09-30T08:04:35.000Z</time>
      </trkpt>
      <trkpt lat="46.01249" lon="6.80232">
        <ele>1904</ele>
        <time>2023-09-30T08:04:40.000Z</time>
      </trkpt>
      <trkpt lat="46.01249" lon="6.80232">
        <ele>1904.1999511719</ele>
        <time>2023-09-30T08:04:42.000Z</time>
      </trkpt>
      <trkpt lat="46.01248" lon="6.80232">
        <ele>1904.8000488281</ele>
        <time>2023-09-30T08:04:47.000Z</time>
      </trkpt>
      <trkpt lat="46.01247" lon="6.80231">
        <ele>1905</ele>
        <time>2023-09-30T08:04:48.000Z</time>
      </trkpt>
      <trkpt lat="46.01246" lon="6.80231">
        <ele>1905.1999511719</ele>
        <time>2023-09-30T08:04:49.000Z</time>
      </trkpt>
      <trkpt lat="46.01245" lon="6.8023">
        <ele>1905.1999511719</ele>
        <time>2023-09-30T08:04:50.000Z</time>
      </trkpt>
      <trkpt lat="46.01243" lon="6.8023">
        <ele>1905.1999511719</ele>
        <time>2023-09-30T08:04:51.000Z</time>
      </trkpt>
      <trkpt lat="46.01242" lon="6.8023">
        <ele>1905.4000244141</ele>
        <time>2023-09-30T08:04:52.000Z</time>
      </trkpt>
      <trkpt lat="46.01241" lon="6.80229">
        <ele>1905.5999755859</ele>
        <time>2023-09-30T08:04:53.000Z</time>
      </trkpt>
      <trkpt lat="46.01241" lon="6.80229">
        <ele>1906</ele>
        <time>2023-09-30T08:04:54.000Z</time>
      </trkpt>
      <trkpt lat="46.01239" lon="6.80228">
        <ele>1906.4000244141</ele>
        <time>2023-09-30T08:04:56.000Z</time>
      </trkpt>
      <trkpt lat="46.01239" lon="6.80228">
        <ele>1906.4000244141</ele>
        <time>2023-09-30T08:04:57.000Z</time>
      </trkpt>
      <trkpt lat="46.01238" lon="6.80228">
        <ele>1906.8000488281</ele>
        <time>2023-09-30T08:04:58.000Z</time>
      </trkpt>
      <trkpt lat="46.01238" lon="6.80228">
        <ele>1906.8000488281</ele>
        <time>2023-09-30T08:04:59.000Z</time>
      </trkpt>
      <trkpt lat="46.01237" lon="6.80228">
        <ele>1907</ele>
        <time>2023-09-30T08:05:00.000Z</time>
      </trkpt>
      <trkpt lat="46.01236" lon="6.80227">
        <ele>1907.4000244141</ele>
        <time>2023-09-30T08:05:05.000Z</time>
      </trkpt>
      <trkpt lat="46.01235" lon="6.80227">
        <ele>1907.4000244141</ele>
        <time>2023-09-30T08:05:06.000Z</time>
      </trkpt>
      <trkpt lat="46.01235" lon="6.80228">
        <ele>1907.5999755859</ele>
        <time>2023-09-30T08:05:07.000Z</time>
      </trkpt>
      <trkpt lat="46.01235" lon="6.80229">
        <ele>1907.5999755859</ele>
        <time>2023-09-30T08:05:08.000Z</time>
      </trkpt>
      <trkpt lat="46.01235" lon="6.8023">
        <ele>1907.5999755859</ele>
        <time>2023-09-30T08:05:09.000Z</time>
      </trkpt>
      <trkpt lat="46.01235" lon="6.8023">
        <ele>1907.8000488281</ele>
        <time>2023-09-30T08:05:10.000Z</time>
      </trkpt>
      <trkpt lat="46.01235" lon="6.80231">
        <ele>1907.8000488281</ele>
        <time>2023-09-30T08:05:11.000Z</time>
      </trkpt>
      <trkpt lat="46.01236" lon="6.80231">
        <ele>1908</ele>
        <time>2023-09-30T08:05:12.000Z</time>
      </trkpt>
      <trkpt lat="46.01236" lon="6.80232">
        <ele>1908.1999511719</ele>
        <time>2023-09-30T08:05:13.000Z</time>
      </trkpt>
      <trkpt lat="46.01236" lon="6.80232">
        <ele>1908.1999511719</ele>
        <time>2023-09-30T08:05:14.000Z</time>
      </trkpt>
      <trkpt lat="46.01236" lon="6.80232">
        <ele>1908.5999755859</ele>
        <time>2023-09-30T08:05:15.000Z</time>
      </trkpt>
      <trkpt lat="46.01237" lon="6.80232">
        <ele>1909.5999755859</ele>
        <time>2023-09-30T08:05:22.000Z</time>
      </trkpt>
      <trkpt lat="46.01237" lon="6.80234">
        <ele>1909.5999755859</ele>
        <time>2023-09-30T08:05:23.000Z</time>
      </trkpt>
      <trkpt lat="46.01238" lon="6.80235">
        <ele>1909.5999755859</ele>
        <time>2023-09-30T08:05:24.000Z</time>
      </trkpt>
      <trkpt lat="46.01239" lon="6.80236">
        <ele>1909.8000488281</ele>
        <time>2023-09-30T08:05:25.000Z</time>
      </trkpt>
      <trkpt lat="46.0124" lon="6.80237">
        <ele>1909.8000488281</ele>
        <time>2023-09-30T08:05:26.000Z</time>
      </trkpt>
      <trkpt lat="46.01241" lon="6.80239">
        <ele>1910</ele>
        <time>2023-09-30T08:05:27.000Z</time>
      </trkpt>
      <trkpt lat="46.01241" lon="6.8024">
        <ele>1910.1999511719</ele>
        <time>2023-09-30T08:05:28.000Z</time>
      </trkpt>
      <trkpt lat="46.01242" lon="6.80241">
        <ele>1910.4000244141</ele>
        <time>2023-09-30T08:05:29.000Z</time>
      </trkpt>
      <trkpt lat="46.01243" lon="6.80242">
        <ele>1910.4000244141</ele>
        <time>2023-09-30T08:05:30.000Z</time>
      </trkpt>
      <trkpt lat="46.01243" lon="6.80244">
        <ele>1910.5999755859</ele>
        <time>2023-09-30T08:05:31.000Z</time>
      </trkpt>
      <trkpt lat="46.01243" lon="6.80245">
        <ele>1910.8000488281</ele>
        <time>2023-09-30T08:05:32.000Z</time>
      </trkpt>
      <trkpt lat="46.01243" lon="6.80246">
        <ele>1911</ele>
        <time>2023-09-30T08:05:33.000Z</time>
      </trkpt>
      <trkpt lat="46.01243" lon="6.80247">
        <ele>1911.4000244141</ele>
        <time>2023-09-30T08:05:34.000Z</time>
      </trkpt>
      <trkpt lat="46.01243" lon="6.80247">
        <ele>1911.4000244141</ele>
        <time>2023-09-30T08:05:35.000Z</time>
      </trkpt>
      <trkpt lat="46.01243" lon="6.80248">
        <ele>1911.8000488281</ele>
        <time>2023-09-30T08:05:36.000Z</time>
      </trkpt>
      <trkpt lat="46.01242" lon="6.80249">
        <ele>1912</ele>
        <time>2023-09-30T08:05:37.000Z</time>
      </trkpt>
      <trkpt lat="46.01242" lon="6.80249">
        <ele>1912.1999511719</ele>
        <time>2023-09-30T08:05:38.000Z</time>
      </trkpt>
      <trkpt lat="46.01242" lon="6.80249">
        <ele>1912.4000244141</ele>
        <time>2023-09-30T08:05:39.000Z</time>
      </trkpt>
      <trkpt lat="46.01241" lon="6.80248">
        <ele>1912.4000244141</ele>
        <time>2023-09-30T08:05:40.000Z</time>
      </trkpt>
      <trkpt lat="46.01241" lon="6.80248">
        <ele>1912.5999755859</ele>
        <time>2023-09-30T08:05:41.000Z</time>
      </trkpt>
      <trkpt lat="46.0124" lon="6.80247">
        <ele>1912.5999755859</ele>
        <time>2023-09-30T08:05:42.000Z</time>
      </trkpt>
      <trkpt lat="46.0124" lon="6.80246">
        <ele>1912.8000488281</ele>
        <time>2023-09-30T08:05:43.000Z</time>
      </trkpt>
      <trkpt lat="46.01239" lon="6.80245">
        <ele>1912.8000488281</ele>
        <time>2023-09-30T08:05:44.000Z</time>
      </trkpt>
      <trkpt lat="46.01239" lon="6.80245">
        <ele>1912.8000488281</ele>
        <time>2023-09-30T08:05:45.000Z</time>
      </trkpt>
      <trkpt lat="46.01239" lon="6.80244">
        <ele>1912.8000488281</ele>
        <time>2023-09-30T08:05:46.000Z</time>
      </trkpt>
      <trkpt lat="46.01239" lon="6.80244">
        <ele>1913</ele>
        <time>2023-09-30T08:05:48.000Z</time>
      </trkpt>
      <trkpt lat="46.01239" lon="6.80244">
        <ele>1913.1999511719</ele>
        <time>2023-09-30T08:05:49.000Z</time>
      </trkpt>
      <trkpt lat="46.01238" lon="6.80243">
        <ele>1913.5999755859</ele>
        <time>2023-09-30T08:05:50.000Z</time>
      </trkpt>
      <trkpt lat="46.01237" lon="6.80242">
        <ele>1913.5999755859</ele>
        <time>2023-09-30T08:05:51.000Z</time>
      </trkpt>
      <trkpt lat="46.01237" lon="6.80242">
        <ele>1914</ele>
        <time>2023-09-30T08:05:52.000Z</time>
      </trkpt>
      <trkpt lat="46.01236" lon="6.80241">
        <ele>1913.8000488281</ele>
        <time>2023-09-30T08:05:53.000Z</time>
      </trkpt>
      <trkpt lat="46.01235" lon="6.80241">
        <ele>1914</ele>
        <time>2023-09-30T08:05:54.000Z</time>
      </trkpt>
      <trkpt lat="46.01234" lon="6.8024">
        <ele>1914.1999511719</ele>
        <time>2023-09-30T08:05:55.000Z</time>
      </trkpt>
      <trkpt lat="46.01233" lon="6.8024">
        <ele>1914.1999511719</ele>
        <time>2023-09-30T08:05:56.000Z</time>
      </trkpt>
      <trkpt lat="46.01233" lon="6.80239">
        <ele>1914.4000244141</ele>
        <time>2023-09-30T08:05:57.000Z</time>
      </trkpt>
      <trkpt lat="46.01232" lon="6.80238">
        <ele>1914.4000244141</ele>
        <time>2023-09-30T08:05:58.000Z</time>
      </trkpt>
      <trkpt lat="46.01231" lon="6.80238">
        <ele>1914.5999755859</ele>
        <time>2023-09-30T08:05:59.000Z</time>
      </trkpt>
      <trkpt lat="46.01231" lon="6.80237">
        <ele>1914.8000488281</ele>
        <time>2023-09-30T08:06:01.000Z</time>
      </trkpt>
      <trkpt lat="46.0123" lon="6.80237">
        <ele>1915.1999511719</ele>
        <time>2023-09-30T08:06:04.000Z</time>
      </trkpt>
      <trkpt lat="46.0123" lon="6.80237">
        <ele>1915.4000244141</ele>
        <time>2023-09-30T08:06:05.000Z</time>
      </trkpt>
      <trkpt lat="46.01229" lon="6.80237">
        <ele>1915.4000244141</ele>
        <time>2023-09-30T08:06:06.000Z</time>
      </trkpt>
      <trkpt lat="46.01228" lon="6.80236">
        <ele>1915.5999755859</ele>
        <time>2023-09-30T08:06:07.000Z</time>
      </trkpt>
      <trkpt lat="46.01227" lon="6.80236">
        <ele>1915.5999755859</ele>
        <time>2023-09-30T08:06:08.000Z</time>
      </trkpt>
      <trkpt lat="46.01227" lon="6.80236">
        <ele>1915.8000488281</ele>
        <time>2023-09-30T08:06:09.000Z</time>
      </trkpt>
      <trkpt lat="46.01226" lon="6.80235">
        <ele>1915.8000488281</ele>
        <time>2023-09-30T08:06:10.000Z</time>
      </trkpt>
      <trkpt lat="46.01225" lon="6.80235">
        <ele>1915.8000488281</ele>
        <time>2023-09-30T08:06:11.000Z</time>
      </trkpt>
      <trkpt lat="46.01225" lon="6.80234">
        <ele>1916</ele>
        <time>2023-09-30T08:06:12.000Z</time>
      </trkpt>
      <trkpt lat="46.01224" lon="6.80234">
        <ele>1916.1999511719</ele>
        <time>2023-09-30T08:06:13.000Z</time>
      </trkpt>
      <trkpt lat="46.01223" lon="6.80233">
        <ele>1916.1999511719</ele>
        <time>2023-09-30T08:06:14.000Z</time>
      </trkpt>
      <trkpt lat="46.01223" lon="6.80233">
        <ele>1916.1999511719</ele>
        <time>2023-09-30T08:06:15.000Z</time>
      </trkpt>
      <trkpt lat="46.01222" lon="6.80233">
        <ele>1916.4000244141</ele>
        <time>2023-09-30T08:06:16.000Z</time>
      </trkpt>
      <trkpt lat="46.01221" lon="6.80233">
        <ele>1916.5999755859</ele>
        <time>2023-09-30T08:06:17.000Z</time>
      </trkpt>
      <trkpt lat="46.01221" lon="6.80233">
        <ele>1917</ele>
        <time>2023-09-30T08:06:19.000Z</time>
      </trkpt>
      <trkpt lat="46.01221" lon="6.80233">
        <ele>1917.1999511719</ele>
        <time>2023-09-30T08:06:20.000Z</time>
      </trkpt>
      <trkpt lat="46.0122" lon="6.80233">
        <ele>1917.4000244141</ele>
        <time>2023-09-30T08:06:21.000Z</time>
      </trkpt>
      <trkpt lat="46.0122" lon="6.80233">
        <ele>1917.4000244141</ele>
        <time>2023-09-30T08:06:22.000Z</time>
      </trkpt>
      <trkpt lat="46.0122" lon="6.80233">
        <ele>1918</ele>
        <time>2023-09-30T08:06:27.000Z</time>
      </trkpt>
      <trkpt lat="46.01219" lon="6.80232">
        <ele>1918.1999511719</ele>
        <time>2023-09-30T08:06:28.000Z</time>
      </trkpt>
      <trkpt lat="46.01218" lon="6.80232">
        <ele>1918.1999511719</ele>
        <time>2023-09-30T08:06:29.000Z</time>
      </trkpt>
      <trkpt lat="46.01217" lon="6.80232">
        <ele>1918.4000244141</ele>
        <time>2023-09-30T08:06:30.000Z</time>
      </trkpt>
      <trkpt lat="46.01217" lon="6.80232">
        <ele>1919</ele>
        <time>2023-09-30T08:06:35.000Z</time>
      </trkpt>
      <trkpt lat="46.01217" lon="6.80232">
        <ele>1920.1999511719</ele>
        <time>2023-09-30T08:06:44.000Z</time>
      </trkpt>
      <trkpt lat="46.01216" lon="6.80232">
        <ele>1920.4000244141</ele>
        <time>2023-09-30T08:06:45.000Z</time>
      </trkpt>
      <trkpt lat="46.01215" lon="6.80232">
        <ele>1920.5999755859</ele>
        <time>2023-09-30T08:06:46.000Z</time>
      </trkpt>
      <trkpt lat="46.01214" lon="6.80231">
        <ele>1920.8000488281</ele>
        <time>2023-09-30T08:06:47.000Z</time>
      </trkpt>
      <trkpt lat="46.01213" lon="6.80231">
        <ele>1921.1999511719</ele>
        <time>2023-09-30T08:06:48.000Z</time>
      </trkpt>
      <trkpt lat="46.01212" lon="6.8023">
        <ele>1921.4000244141</ele>
        <time>2023-09-30T08:06:49.000Z</time>
      </trkpt>
      <trkpt lat="46.01211" lon="6.80229">
        <ele>1921.4000244141</ele>
        <time>2023-09-30T08:06:50.000Z</time>
      </trkpt>
      <trkpt lat="46.0121" lon="6.80228">
        <ele>1921.5999755859</ele>
        <time>2023-09-30T08:06:51.000Z</time>
      </trkpt>
      <trkpt lat="46.01208" lon="6.80227">
        <ele>1921.5999755859</ele>
        <time>2023-09-30T08:06:52.000Z</time>
      </trkpt>
      <trkpt lat="46.01207" lon="6.80226">
        <ele>1921.8000488281</ele>
        <time>2023-09-30T08:06:53.000Z</time>
      </trkpt>
      <trkpt lat="46.01206" lon="6.80225">
        <ele>1921.8000488281</ele>
        <time>2023-09-30T08:06:54.000Z</time>
      </trkpt>
      <trkpt lat="46.01205" lon="6.80224">
        <ele>1922</ele>
        <time>2023-09-30T08:06:55.000Z</time>
      </trkpt>
      <trkpt lat="46.01205" lon="6.80224">
        <ele>1922.1999511719</ele>
        <time>2023-09-30T08:06:56.000Z</time>
      </trkpt>
      <trkpt lat="46.01204" lon="6.80223">
        <ele>1922.1999511719</ele>
        <time>2023-09-30T08:06:57.000Z</time>
      </trkpt>
      <trkpt lat="46.01204" lon="6.80223">
        <ele>1922.4000244141</ele>
        <time>2023-09-30T08:06:58.000Z</time>
      </trkpt>
      <trkpt lat="46.01204" lon="6.80223">
        <ele>1922.5999755859</ele>
        <time>2023-09-30T08:06:59.000Z</time>
      </trkpt>
      <trkpt lat="46.01203" lon="6.80223">
        <ele>1922.8000488281</ele>
        <time>2023-09-30T08:07:00.000Z</time>
      </trkpt>
      <trkpt lat="46.01203" lon="6.80222">
        <ele>1923</ele>
        <time>2023-09-30T08:07:01.000Z</time>
      </trkpt>
      <trkpt lat="46.01202" lon="6.80221">
        <ele>1923.4000244141</ele>
        <time>2023-09-30T08:07:02.000Z</time>
      </trkpt>
      <trkpt lat="46.01201" lon="6.80221">
        <ele>1923.5999755859</ele>
        <time>2023-09-30T08:07:03.000Z</time>
      </trkpt>
      <trkpt lat="46.01201" lon="6.80221">
        <ele>1923.8000488281</ele>
        <time>2023-09-30T08:07:04.000Z</time>
      </trkpt>
      <trkpt lat="46.012" lon="6.80222">
        <ele>1924</ele>
        <time>2023-09-30T08:07:05.000Z</time>
      </trkpt>
      <trkpt lat="46.012" lon="6.80223">
        <ele>1924.1999511719</ele>
        <time>2023-09-30T08:07:06.000Z</time>
      </trkpt>
      <trkpt lat="46.012" lon="6.80223">
        <ele>1924.4000244141</ele>
        <time>2023-09-30T08:07:08.000Z</time>
      </trkpt>
      <trkpt lat="46.012" lon="6.80224">
        <ele>1924.5999755859</ele>
        <time>2023-09-30T08:07:10.000Z</time>
      </trkpt>
      <trkpt lat="46.012" lon="6.80225">
        <ele>1924.8000488281</ele>
        <time>2023-09-30T08:07:11.000Z</time>
      </trkpt>
      <trkpt lat="46.012" lon="6.80226">
        <ele>1924.8000488281</ele>
        <time>2023-09-30T08:07:12.000Z</time>
      </trkpt>
      <trkpt lat="46.012" lon="6.80227">
        <ele>1924.8000488281</ele>
        <time>2023-09-30T08:07:13.000Z</time>
      </trkpt>
      <trkpt lat="46.012" lon="6.80227">
        <ele>1924.8000488281</ele>
        <time>2023-09-30T08:07:14.000Z</time>
      </trkpt>
      <trkpt lat="46.01201" lon="6.80228">
        <ele>1924.8000488281</ele>
        <time>2023-09-30T08:07:15.000Z</time>
      </trkpt>
      <trkpt lat="46.01201" lon="6.80228">
        <ele>1925</ele>
        <time>2023-09-30T08:07:16.000Z</time>
      </trkpt>
      <trkpt lat="46.01202" lon="6.80229">
        <ele>1925</ele>
        <time>2023-09-30T08:07:17.000Z</time>
      </trkpt>
      <trkpt lat="46.01202" lon="6.8023">
        <ele>1925</ele>
        <time>2023-09-30T08:07:18.000Z</time>
      </trkpt>
      <trkpt lat="46.01203" lon="6.8023">
        <ele>1925.1999511719</ele>
        <time>2023-09-30T08:07:19.000Z</time>
      </trkpt>
      <trkpt lat="46.01204" lon="6.80231">
        <ele>1925.1999511719</ele>
        <time>2023-09-30T08:07:20.000Z</time>
      </trkpt>
      <trkpt lat="46.01204" lon="6.80232">
        <ele>1925.4000244141</ele>
        <time>2023-09-30T08:07:21.000Z</time>
      </trkpt>
      <trkpt lat="46.01205" lon="6.80233">
        <ele>1925.4000244141</ele>
        <time>2023-09-30T08:07:22.000Z</time>
      </trkpt>
      <trkpt lat="46.01205" lon="6.80234">
        <ele>1925.5999755859</ele>
        <time>2023-09-30T08:07:23.000Z</time>
      </trkpt>
      <trkpt lat="46.01205" lon="6.80234">
        <ele>1925.8000488281</ele>
        <time>2023-09-30T08:07:24.000Z</time>
      </trkpt>
      <trkpt lat="46.01206" lon="6.80235">
        <ele>1926</ele>
        <time>2023-09-30T08:07:25.000Z</time>
      </trkpt>
      <trkpt lat="46.01206" lon="6.80236">
        <ele>1926.1999511719</ele>
        <time>2023-09-30T08:07:26.000Z</time>
      </trkpt>
      <trkpt lat="46.01206" lon="6.80237">
        <ele>1926.1999511719</ele>
        <time>2023-09-30T08:07:27.000Z</time>
      </trkpt>
      <trkpt lat="46.01206" lon="6.80238">
        <ele>1926.5999755859</ele>
        <time>2023-09-30T08:07:28.000Z</time>
      </trkpt>
      <trkpt lat="46.01206" lon="6.80239">
        <ele>1926.5999755859</ele>
        <time>2023-09-30T08:07:29.000Z</time>
      </trkpt>
      <trkpt lat="46.01207" lon="6.80239">
        <ele>1926.8000488281</ele>
        <time>2023-09-30T08:07:30.000Z</time>
      </trkpt>
      <trkpt lat="46.01207" lon="6.80239">
        <ele>1927.5999755859</ele>
        <time>2023-09-30T08:07:37.000Z</time>
      </trkpt>
      <trkpt lat="46.01207" lon="6.80239">
        <ele>1928</ele>
        <time>2023-09-30T08:07:40.000Z</time>
      </trkpt>
      <trkpt lat="46.01206" lon="6.80239">
        <ele>1928.4000244141</ele>
        <time>2023-09-30T08:07:44.000Z</time>
      </trkpt>
      <trkpt lat="46.01206" lon="6.80238">
        <ele>1928.4000244141</ele>
        <time>2023-09-30T08:07:45.000Z</time>
      </trkpt>
      <trkpt lat="46.01205" lon="6.80237">
        <ele>1928.4000244141</ele>
        <time>2023-09-30T08:07:46.000Z</time>
      </trkpt>
      <trkpt lat="46.01204" lon="6.80236">
        <ele>1928.5999755859</ele>
        <time>2023-09-30T08:07:47.000Z</time>
      </trkpt>
      <trkpt lat="46.01203" lon="6.80236">
        <ele>1928.5999755859</ele>
        <time>2023-09-30T08:07:48.000Z</time>
      </trkpt>
      <trkpt lat="46.01202" lon="6.80236">
        <ele>1928.8000488281</ele>
        <time>2023-09-30T08:07:49.000Z</time>
      </trkpt>
      <trkpt lat="46.01201" lon="6.80235">
        <ele>1928.8000488281</ele>
        <time>2023-09-30T08:07:50.000Z</time>
      </trkpt>
      <trkpt lat="46.012" lon="6.80235">
        <ele>1928.8000488281</ele>
        <time>2023-09-30T08:07:51.000Z</time>
      </trkpt>
      <trkpt lat="46.012" lon="6.80235">
        <ele>1929</ele>
        <time>2023-09-30T08:07:52.000Z</time>
      </trkpt>
      <trkpt lat="46.01199" lon="6.80235">
        <ele>1929.1999511719</ele>
        <time>2023-09-30T08:07:53.000Z</time>
      </trkpt>
      <trkpt lat="46.01199" lon="6.80235">
        <ele>1929.1999511719</ele>
        <time>2023-09-30T08:07:54.000Z</time>
      </trkpt>
      <trkpt lat="46.01199" lon="6.80235">
        <ele>1929.5999755859</ele>
        <time>2023-09-30T08:07:57.000Z</time>
      </trkpt>
      <trkpt lat="46.01199" lon="6.80235">
        <ele>1930.1999511719</ele>
        <time>2023-09-30T08:07:59.000Z</time>
      </trkpt>
      <trkpt lat="46.01198" lon="6.80234">
        <ele>1930.4000244141</ele>
        <time>2023-09-30T08:08:02.000Z</time>
      </trkpt>
      <trkpt lat="46.01197" lon="6.80234">
        <ele>1930.4000244141</ele>
        <time>2023-09-30T08:08:03.000Z</time>
      </trkpt>
      <trkpt lat="46.01197" lon="6.80234">
        <ele>1930.5999755859</ele>
        <time>2023-09-30T08:08:06.000Z</time>
      </trkpt>
      <trkpt lat="46.01196" lon="6.80233">
        <ele>1930.5999755859</ele>
        <time>2023-09-30T08:08:07.000Z</time>
      </trkpt>
      <trkpt lat="46.01196" lon="6.80233">
        <ele>1930.8000488281</ele>
        <time>2023-09-30T08:08:08.000Z</time>
      </trkpt>
      <trkpt lat="46.01195" lon="6.80233">
        <ele>1931</ele>
        <time>2023-09-30T08:08:09.000Z</time>
      </trkpt>
      <trkpt lat="46.01194" lon="6.80233">
        <ele>1931.1999511719</ele>
        <time>2023-09-30T08:08:10.000Z</time>
      </trkpt>
      <trkpt lat="46.01194" lon="6.80233">
        <ele>1931.1999511719</ele>
        <time>2023-09-30T08:08:11.000Z</time>
      </trkpt>
      <trkpt lat="46.01194" lon="6.80233">
        <ele>1931.8000488281</ele>
        <time>2023-09-30T08:08:13.000Z</time>
      </trkpt>
      <trkpt lat="46.01194" lon="6.80233">
        <ele>1932.4000244141</ele>
        <time>2023-09-30T08:08:17.000Z</time>
      </trkpt>
      <trkpt lat="46.01193" lon="6.80233">
        <ele>1932.8000488281</ele>
        <time>2023-09-30T08:08:21.000Z</time>
      </trkpt>
      <trkpt lat="46.01192" lon="6.80233">
        <ele>1933.4000244141</ele>
        <time>2023-09-30T08:08:22.000Z</time>
      </trkpt>
      <trkpt lat="46.01192" lon="6.80233">
        <ele>1933.1999511719</ele>
        <time>2023-09-30T08:08:23.000Z</time>
      </trkpt>
      <trkpt lat="46.01192" lon="6.80233">
        <ele>1934</ele>
        <time>2023-09-30T08:08:26.000Z</time>
      </trkpt>
      <trkpt lat="46.01192" lon="6.80233">
        <ele>1934.1999511719</ele>
        <time>2023-09-30T08:08:29.000Z</time>
      </trkpt>
      <trkpt lat="46.01191" lon="6.80233">
        <ele>1934.4000244141</ele>
        <time>2023-09-30T08:08:30.000Z</time>
      </trkpt>
      <trkpt lat="46.0119" lon="6.80232">
        <ele>1934.4000244141</ele>
        <time>2023-09-30T08:08:31.000Z</time>
      </trkpt>
      <trkpt lat="46.01188" lon="6.80231">
        <ele>1934.4000244141</ele>
        <time>2023-09-30T08:08:32.000Z</time>
      </trkpt>
      <trkpt lat="46.01187" lon="6.80231">
        <ele>1934.5999755859</ele>
        <time>2023-09-30T08:08:33.000Z</time>
      </trkpt>
      <trkpt lat="46.01185" lon="6.8023">
        <ele>1934.8000488281</ele>
        <time>2023-09-30T08:08:34.000Z</time>
      </trkpt>
      <trkpt lat="46.01184" lon="6.8023">
        <ele>1934.8000488281</ele>
        <time>2023-09-30T08:08:35.000Z</time>
      </trkpt>
      <trkpt lat="46.01183" lon="6.8023">
        <ele>1935</ele>
        <time>2023-09-30T08:08:36.000Z</time>
      </trkpt>
      <trkpt lat="46.01181" lon="6.8023">
        <ele>1935</ele>
        <time>2023-09-30T08:08:37.000Z</time>
      </trkpt>
      <trkpt lat="46.0118" lon="6.80229">
        <ele>1935.1999511719</ele>
        <time>2023-09-30T08:08:38.000Z</time>
      </trkpt>
      <trkpt lat="46.01179" lon="6.80229">
        <ele>1935.1999511719</ele>
        <time>2023-09-30T08:08:39.000Z</time>
      </trkpt>
      <trkpt lat="46.01178" lon="6.80229">
        <ele>1935.4000244141</ele>
        <time>2023-09-30T08:08:40.000Z</time>
      </trkpt>
      <trkpt lat="46.01178" lon="6.80229">
        <ele>1935.5999755859</ele>
        <time>2023-09-30T08:08:41.000Z</time>
      </trkpt>
      <trkpt lat="46.01177" lon="6.80228">
        <ele>1935.8000488281</ele>
        <time>2023-09-30T08:08:42.000Z</time>
      </trkpt>
      <trkpt lat="46.01176" lon="6.80228">
        <ele>1936</ele>
        <time>2023-09-30T08:08:43.000Z</time>
      </trkpt>
      <trkpt lat="46.01176" lon="6.80228">
        <ele>1936</ele>
        <time>2023-09-30T08:08:44.000Z</time>
      </trkpt>
      <trkpt lat="46.01175" lon="6.80228">
        <ele>1936.4000244141</ele>
        <time>2023-09-30T08:08:45.000Z</time>
      </trkpt>
      <trkpt lat="46.01174" lon="6.80227">
        <ele>1936.4000244141</ele>
        <time>2023-09-30T08:08:46.000Z</time>
      </trkpt>
      <trkpt lat="46.01173" lon="6.80227">
        <ele>1936.8000488281</ele>
        <time>2023-09-30T08:08:47.000Z</time>
      </trkpt>
      <trkpt lat="46.01173" lon="6.80226">
        <ele>1937</ele>
        <time>2023-09-30T08:08:48.000Z</time>
      </trkpt>
      <trkpt lat="46.01172" lon="6.80226">
        <ele>1937</ele>
        <time>2023-09-30T08:08:49.000Z</time>
      </trkpt>
      <trkpt lat="46.01171" lon="6.80225">
        <ele>1937.1999511719</ele>
        <time>2023-09-30T08:08:50.000Z</time>
      </trkpt>
      <trkpt lat="46.0117" lon="6.80225">
        <ele>1937.1999511719</ele>
        <time>2023-09-30T08:08:51.000Z</time>
      </trkpt>
      <trkpt lat="46.0117" lon="6.80225">
        <ele>1937.1999511719</ele>
        <time>2023-09-30T08:08:52.000Z</time>
      </trkpt>
      <trkpt lat="46.01169" lon="6.80224">
        <ele>1937.4000244141</ele>
        <time>2023-09-30T08:08:53.000Z</time>
      </trkpt>
      <trkpt lat="46.01168" lon="6.80224">
        <ele>1937.4000244141</ele>
        <time>2023-09-30T08:08:54.000Z</time>
      </trkpt>
      <trkpt lat="46.01168" lon="6.80223">
        <ele>1937.5999755859</ele>
        <time>2023-09-30T08:08:55.000Z</time>
      </trkpt>
      <trkpt lat="46.01167" lon="6.80223">
        <ele>1937.8000488281</ele>
        <time>2023-09-30T08:08:56.000Z</time>
      </trkpt>
      <trkpt lat="46.01166" lon="6.80222">
        <ele>1938</ele>
        <time>2023-09-30T08:08:57.000Z</time>
      </trkpt>
      <trkpt lat="46.01165" lon="6.80221">
        <ele>1938</ele>
        <time>2023-09-30T08:08:58.000Z</time>
      </trkpt>
      <trkpt lat="46.01165" lon="6.80221">
        <ele>1938.1999511719</ele>
        <time>2023-09-30T08:08:59.000Z</time>
      </trkpt>
      <trkpt lat="46.01164" lon="6.80221">
        <ele>1938.4000244141</ele>
        <time>2023-09-30T08:09:00.000Z</time>
      </trkpt>
      <trkpt lat="46.01163" lon="6.80221">
        <ele>1938.4000244141</ele>
        <time>2023-09-30T08:09:01.000Z</time>
      </trkpt>
      <trkpt lat="46.01163" lon="6.80221">
        <ele>1938.4000244141</ele>
        <time>2023-09-30T08:09:02.000Z</time>
      </trkpt>
      <trkpt lat="46.01162" lon="6.80221">
        <ele>1938.4000244141</ele>
        <time>2023-09-30T08:09:03.000Z</time>
      </trkpt>
      <trkpt lat="46.01161" lon="6.8022">
        <ele>1938.5999755859</ele>
        <time>2023-09-30T08:09:04.000Z</time>
      </trkpt>
      <trkpt lat="46.0116" lon="6.8022">
        <ele>1938.5999755859</ele>
        <time>2023-09-30T08:09:05.000Z</time>
      </trkpt>
      <trkpt lat="46.01159" lon="6.8022">
        <ele>1938.8000488281</ele>
        <time>2023-09-30T08:09:06.000Z</time>
      </trkpt>
      <trkpt lat="46.01159" lon="6.8022">
        <ele>1938.8000488281</ele>
        <time>2023-09-30T08:09:07.000Z</time>
      </trkpt>
      <trkpt lat="46.01159" lon="6.8022">
        <ele>1939</ele>
        <time>2023-09-30T08:09:08.000Z</time>
      </trkpt>
      <trkpt lat="46.01158" lon="6.8022">
        <ele>1939.1999511719</ele>
        <time>2023-09-30T08:09:09.000Z</time>
      </trkpt>
      <trkpt lat="46.01158" lon="6.8022">
        <ele>1939.5999755859</ele>
        <time>2023-09-30T08:09:12.000Z</time>
      </trkpt>
      <trkpt lat="46.01157" lon="6.80219">
        <ele>1939.8000488281</ele>
        <time>2023-09-30T08:09:13.000Z</time>
      </trkpt>
      <trkpt lat="46.01157" lon="6.80219">
        <ele>1940</ele>
        <time>2023-09-30T08:09:14.000Z</time>
      </trkpt>
      <trkpt lat="46.01157" lon="6.80219">
        <ele>1940</ele>
        <time>2023-09-30T08:09:15.000Z</time>
      </trkpt>
      <trkpt lat="46.01156" lon="6.80219">
        <ele>1940.1999511719</ele>
        <time>2023-09-30T08:09:16.000Z</time>
      </trkpt>
      <trkpt lat="46.01155" lon="6.80219">
        <ele>1940</ele>
        <time>2023-09-30T08:09:17.000Z</time>
      </trkpt>
      <trkpt lat="46.01155" lon="6.80219">
        <ele>1940.1999511719</ele>
        <time>2023-09-30T08:09:18.000Z</time>
      </trkpt>
      <trkpt lat="46.01154" lon="6.80218">
        <ele>1940.1999511719</ele>
        <time>2023-09-30T08:09:19.000Z</time>
      </trkpt>
      <trkpt lat="46.01153" lon="6.80217">
        <ele>1940.1999511719</ele>
        <time>2023-09-30T08:09:20.000Z</time>
      </trkpt>
      <trkpt lat="46.01153" lon="6.80216">
        <ele>1940.4000244141</ele>
        <time>2023-09-30T08:09:21.000Z</time>
      </trkpt>
      <trkpt lat="46.01152" lon="6.80216">
        <ele>1940.4000244141</ele>
        <time>2023-09-30T08:09:22.000Z</time>
      </trkpt>
      <trkpt lat="46.01151" lon="6.80216">
        <ele>1940.5999755859</ele>
        <time>2023-09-30T08:09:23.000Z</time>
      </trkpt>
      <trkpt lat="46.01151" lon="6.80216">
        <ele>1940.8000488281</ele>
        <time>2023-09-30T08:09:26.000Z</time>
      </trkpt>
      <trkpt lat="46.01151" lon="6.80215">
        <ele>1941</ele>
        <time>2023-09-30T08:09:27.000Z</time>
      </trkpt>
      <trkpt lat="46.0115" lon="6.80214">
        <ele>1941.4000244141</ele>
        <time>2023-09-30T08:09:28.000Z</time>
      </trkpt>
      <trkpt lat="46.01149" lon="6.80214">
        <ele>1941.4000244141</ele>
        <time>2023-09-30T08:09:29.000Z</time>
      </trkpt>
      <trkpt lat="46.01149" lon="6.80214">
        <ele>1941.8000488281</ele>
        <time>2023-09-30T08:09:30.000Z</time>
      </trkpt>
      <trkpt lat="46.01148" lon="6.80214">
        <ele>1942</ele>
        <time>2023-09-30T08:09:31.000Z</time>
      </trkpt>
      <trkpt lat="46.01148" lon="6.80214">
        <ele>1942.1999511719</ele>
        <time>2023-09-30T08:09:32.000Z</time>
      </trkpt>
      <trkpt lat="46.01147" lon="6.80213">
        <ele>1942.1999511719</ele>
        <time>2023-09-30T08:09:33.000Z</time>
      </trkpt>
      <trkpt lat="46.01146" lon="6.80213">
        <ele>1942.4000244141</ele>
        <time>2023-09-30T08:09:34.000Z</time>
      </trkpt>
      <trkpt lat="46.01146" lon="6.80212">
        <ele>1942.5999755859</ele>
        <time>2023-09-30T08:09:35.000Z</time>
      </trkpt>
      <trkpt lat="46.01145" lon="6.80212">
        <ele>1942.4000244141</ele>
        <time>2023-09-30T08:09:36.000Z</time>
      </trkpt>
      <trkpt lat="46.01145" lon="6.80211">
        <ele>1942.5999755859</ele>
        <time>2023-09-30T08:09:37.000Z</time>
      </trkpt>
      <trkpt lat="46.01144" lon="6.80211">
        <ele>1942.5999755859</ele>
        <time>2023-09-30T08:09:38.000Z</time>
      </trkpt>
      <trkpt lat="46.01143" lon="6.8021">
        <ele>1943</ele>
        <time>2023-09-30T08:09:39.000Z</time>
      </trkpt>
      <trkpt lat="46.01143" lon="6.8021">
        <ele>1943</ele>
        <time>2023-09-30T08:09:40.000Z</time>
      </trkpt>
      <trkpt lat="46.01143" lon="6.8021">
        <ele>1943.1999511719</ele>
        <time>2023-09-30T08:09:42.000Z</time>
      </trkpt>
      <trkpt lat="46.01142" lon="6.80209">
        <ele>1943.1999511719</ele>
        <time>2023-09-30T08:09:43.000Z</time>
      </trkpt>
      <trkpt lat="46.01141" lon="6.80209">
        <ele>1943.5999755859</ele>
        <time>2023-09-30T08:09:44.000Z</time>
      </trkpt>
      <trkpt lat="46.01141" lon="6.80208">
        <ele>1943.8000488281</ele>
        <time>2023-09-30T08:09:45.000Z</time>
      </trkpt>
      <trkpt lat="46.01141" lon="6.80208">
        <ele>1944</ele>
        <time>2023-09-30T08:09:46.000Z</time>
      </trkpt>
      <trkpt lat="46.0114" lon="6.80208">
        <ele>1944</ele>
        <time>2023-09-30T08:09:47.000Z</time>
      </trkpt>
      <trkpt lat="46.0114" lon="6.80208">
        <ele>1944.1999511719</ele>
        <time>2023-09-30T08:09:48.000Z</time>
      </trkpt>
      <trkpt lat="46.0114" lon="6.80208">
        <ele>1944.4000244141</ele>
        <time>2023-09-30T08:09:49.000Z</time>
      </trkpt>
      <trkpt lat="46.01139" lon="6.80207">
        <ele>1944.4000244141</ele>
        <time>2023-09-30T08:09:50.000Z</time>
      </trkpt>
      <trkpt lat="46.01139" lon="6.80206">
        <ele>1944.8000488281</ele>
        <time>2023-09-30T08:09:51.000Z</time>
      </trkpt>
      <trkpt lat="46.01138" lon="6.80205">
        <ele>1945</ele>
        <time>2023-09-30T08:09:52.000Z</time>
      </trkpt>
      <trkpt lat="46.01137" lon="6.80204">
        <ele>1945.1999511719</ele>
        <time>2023-09-30T08:09:53.000Z</time>
      </trkpt>
      <trkpt lat="46.01137" lon="6.80203">
        <ele>1945.4000244141</ele>
        <time>2023-09-30T08:09:54.000Z</time>
      </trkpt>
      <trkpt lat="46.01136" lon="6.80202">
        <ele>1945.5999755859</ele>
        <time>2023-09-30T08:09:55.000Z</time>
      </trkpt>
      <trkpt lat="46.01135" lon="6.80201">
        <ele>1945.8000488281</ele>
        <time>2023-09-30T08:09:56.000Z</time>
      </trkpt>
      <trkpt lat="46.01134" lon="6.802">
        <ele>1946</ele>
        <time>2023-09-30T08:09:57.000Z</time>
      </trkpt>
      <trkpt lat="46.01134" lon="6.80199">
        <ele>1946</ele>
        <time>2023-09-30T08:09:58.000Z</time>
      </trkpt>
      <trkpt lat="46.01133" lon="6.80198">
        <ele>1946.1999511719</ele>
        <time>2023-09-30T08:09:59.000Z</time>
      </trkpt>
      <trkpt lat="46.01132" lon="6.80198">
        <ele>1946</ele>
        <time>2023-09-30T08:10:00.000Z</time>
      </trkpt>
      <trkpt lat="46.01132" lon="6.80197">
        <ele>1946.1999511719</ele>
        <time>2023-09-30T08:10:01.000Z</time>
      </trkpt>
      <trkpt lat="46.01131" lon="6.80196">
        <ele>1946.4000244141</ele>
        <time>2023-09-30T08:10:02.000Z</time>
      </trkpt>
      <trkpt lat="46.0113" lon="6.80195">
        <ele>1946.5999755859</ele>
        <time>2023-09-30T08:10:03.000Z</time>
      </trkpt>
      <trkpt lat="46.0113" lon="6.80194">
        <ele>1946.8000488281</ele>
        <time>2023-09-30T08:10:04.000Z</time>
      </trkpt>
      <trkpt lat="46.01128" lon="6.80192">
        <ele>1947.1999511719</ele>
        <time>2023-09-30T08:10:05.000Z</time>
      </trkpt>
      <trkpt lat="46.01128" lon="6.80191">
        <ele>1947.1999511719</ele>
        <time>2023-09-30T08:10:06.000Z</time>
      </trkpt>
      <trkpt lat="46.01128" lon="6.80191">
        <ele>1947.4000244141</ele>
        <time>2023-09-30T08:10:07.000Z</time>
      </trkpt>
      <trkpt lat="46.01127" lon="6.8019">
        <ele>1947.5999755859</ele>
        <time>2023-09-30T08:10:08.000Z</time>
      </trkpt>
      <trkpt lat="46.01126" lon="6.80189">
        <ele>1947.8000488281</ele>
        <time>2023-09-30T08:10:10.000Z</time>
      </trkpt>
      <trkpt lat="46.01126" lon="6.80188">
        <ele>1948</ele>
        <time>2023-09-30T08:10:11.000Z</time>
      </trkpt>
      <trkpt lat="46.01126" lon="6.80187">
        <ele>1948</ele>
        <time>2023-09-30T08:10:12.000Z</time>
      </trkpt>
      <trkpt lat="46.01126" lon="6.80187">
        <ele>1948.1999511719</ele>
        <time>2023-09-30T08:10:13.000Z</time>
      </trkpt>
      <trkpt lat="46.01125" lon="6.80186">
        <ele>1948.4000244141</ele>
        <time>2023-09-30T08:10:15.000Z</time>
      </trkpt>
      <trkpt lat="46.01124" lon="6.80186">
        <ele>1948.5999755859</ele>
        <time>2023-09-30T08:10:16.000Z</time>
      </trkpt>
      <trkpt lat="46.01124" lon="6.80185">
        <ele>1948.8000488281</ele>
        <time>2023-09-30T08:10:17.000Z</time>
      </trkpt>
      <trkpt lat="46.01123" lon="6.80185">
        <ele>1949</ele>
        <time>2023-09-30T08:10:18.000Z</time>
      </trkpt>
      <trkpt lat="46.01123" lon="6.80185">
        <ele>1949.1999511719</ele>
        <time>2023-09-30T08:10:19.000Z</time>
      </trkpt>
      <trkpt lat="46.01122" lon="6.80184">
        <ele>1949.1999511719</ele>
        <time>2023-09-30T08:10:20.000Z</time>
      </trkpt>
      <trkpt lat="46.01122" lon="6.80184">
        <ele>1949.4000244141</ele>
        <time>2023-09-30T08:10:21.000Z</time>
      </trkpt>
      <trkpt lat="46.01121" lon="6.80183">
        <ele>1949.4000244141</ele>
        <time>2023-09-30T08:10:22.000Z</time>
      </trkpt>
      <trkpt lat="46.0112" lon="6.80182">
        <ele>1949.5999755859</ele>
        <time>2023-09-30T08:10:23.000Z</time>
      </trkpt>
      <trkpt lat="46.0112" lon="6.80181">
        <ele>1949.8000488281</ele>
        <time>2023-09-30T08:10:24.000Z</time>
      </trkpt>
      <trkpt lat="46.0112" lon="6.8018">
        <ele>1950</ele>
        <time>2023-09-30T08:10:25.000Z</time>
      </trkpt>
      <trkpt lat="46.0112" lon="6.8018">
        <ele>1950.1999511719</ele>
        <time>2023-09-30T08:10:26.000Z</time>
      </trkpt>
      <trkpt lat="46.01119" lon="6.80179">
        <ele>1950.1999511719</ele>
        <time>2023-09-30T08:10:27.000Z</time>
      </trkpt>
      <trkpt lat="46.01119" lon="6.80178">
        <ele>1950.1999511719</ele>
        <time>2023-09-30T08:10:28.000Z</time>
      </trkpt>
      <trkpt lat="46.01119" lon="6.80177">
        <ele>1950.4000244141</ele>
        <time>2023-09-30T08:10:29.000Z</time>
      </trkpt>
      <trkpt lat="46.01119" lon="6.80176">
        <ele>1950.5999755859</ele>
        <time>2023-09-30T08:10:30.000Z</time>
      </trkpt>
      <trkpt lat="46.01119" lon="6.80174">
        <ele>1950.5999755859</ele>
        <time>2023-09-30T08:10:31.000Z</time>
      </trkpt>
      <trkpt lat="46.01119" lon="6.80173">
        <ele>1950.8000488281</ele>
        <time>2023-09-30T08:10:32.000Z</time>
      </trkpt>
      <trkpt lat="46.01119" lon="6.80172">
        <ele>1951</ele>
        <time>2023-09-30T08:10:33.000Z</time>
      </trkpt>
      <trkpt lat="46.01119" lon="6.80171">
        <ele>1951</ele>
        <time>2023-09-30T08:10:34.000Z</time>
      </trkpt>
      <trkpt lat="46.01118" lon="6.80169">
        <ele>1951.4000244141</ele>
        <time>2023-09-30T08:10:35.000Z</time>
      </trkpt>
      <trkpt lat="46.01118" lon="6.80168">
        <ele>1951.5999755859</ele>
        <time>2023-09-30T08:10:36.000Z</time>
      </trkpt>
      <trkpt lat="46.01118" lon="6.80167">
        <ele>1951.5999755859</ele>
        <time>2023-09-30T08:10:37.000Z</time>
      </trkpt>
      <trkpt lat="46.01118" lon="6.80166">
        <ele>1951.8000488281</ele>
        <time>2023-09-30T08:10:38.000Z</time>
      </trkpt>
      <trkpt lat="46.01117" lon="6.80165">
        <ele>1951.8000488281</ele>
        <time>2023-09-30T08:10:39.000Z</time>
      </trkpt>
      <trkpt lat="46.01117" lon="6.80164">
        <ele>1952</ele>
        <time>2023-09-30T08:10:40.000Z</time>
      </trkpt>
      <trkpt lat="46.01117" lon="6.80163">
        <ele>1952</ele>
        <time>2023-09-30T08:10:41.000Z</time>
      </trkpt>
      <trkpt lat="46.01117" lon="6.80162">
        <ele>1952.1999511719</ele>
        <time>2023-09-30T08:10:42.000Z</time>
      </trkpt>
      <trkpt lat="46.01117" lon="6.80161">
        <ele>1952.1999511719</ele>
        <time>2023-09-30T08:10:43.000Z</time>
      </trkpt>
      <trkpt lat="46.01116" lon="6.80159">
        <ele>1952.4000244141</ele>
        <time>2023-09-30T08:10:44.000Z</time>
      </trkpt>
      <trkpt lat="46.01116" lon="6.80159">
        <ele>1952.8000488281</ele>
        <time>2023-09-30T08:10:47.000Z</time>
      </trkpt>
      <trkpt lat="46.01116" lon="6.80159">
        <ele>1953</ele>
        <time>2023-09-30T08:10:49.000Z</time>
      </trkpt>
      <trkpt lat="46.01116" lon="6.80159">
        <ele>1953.8000488281</ele>
        <time>2023-09-30T08:11:08.000Z</time>
      </trkpt>
      <trkpt lat="46.01116" lon="6.80157">
        <ele>1953.8000488281</ele>
        <time>2023-09-30T08:12:04.000Z</time>
      </trkpt>
      <trkpt lat="46.01115" lon="6.80154">
        <ele>1953.5999755859</ele>
        <time>2023-09-30T08:12:06.000Z</time>
      </trkpt>
      <trkpt lat="46.01115" lon="6.80153">
        <ele>1953.5999755859</ele>
        <time>2023-09-30T08:12:07.000Z</time>
      </trkpt>
      <trkpt lat="46.01114" lon="6.80152">
        <ele>1953.5999755859</ele>
        <time>2023-09-30T08:12:08.000Z</time>
      </trkpt>
      <trkpt lat="46.01113" lon="6.80151">
        <ele>1953.8000488281</ele>
        <time>2023-09-30T08:12:09.000Z</time>
      </trkpt>
      <trkpt lat="46.01112" lon="6.80151">
        <ele>1953.8000488281</ele>
        <time>2023-09-30T08:12:10.000Z</time>
      </trkpt>
      <trkpt lat="46.01111" lon="6.80151">
        <ele>1953.8000488281</ele>
        <time>2023-09-30T08:12:12.000Z</time>
      </trkpt>
      <trkpt lat="46.01111" lon="6.80151">
        <ele>1954.4000244141</ele>
        <time>2023-09-30T08:12:20.000Z</time>
      </trkpt>
      <trkpt lat="46.01111" lon="6.80151">
        <ele>1954.4000244141</ele>
        <time>2023-09-30T08:12:51.000Z</time>
      </trkpt>
      <trkpt lat="46.0111" lon="6.80155">
        <ele>1954.5999755859</ele>
        <time>2023-09-30T08:13:39.000Z</time>
      </trkpt>
      <trkpt lat="46.01109" lon="6.80156">
        <ele>1954.8000488281</ele>
        <time>2023-09-30T08:13:40.000Z</time>
      </trkpt>
      <trkpt lat="46.01109" lon="6.80157">
        <ele>1954.8000488281</ele>
        <time>2023-09-30T08:13:41.000Z</time>
      </trkpt>
      <trkpt lat="46.01108" lon="6.80161">
        <ele>1955.4000244141</ele>
        <time>2023-09-30T08:13:44.000Z</time>
      </trkpt>
      <trkpt lat="46.01107" lon="6.80161">
        <ele>1955.5999755859</ele>
        <time>2023-09-30T08:13:45.000Z</time>
      </trkpt>
      <trkpt lat="46.01107" lon="6.80162">
        <ele>1955.5999755859</ele>
        <time>2023-09-30T08:13:46.000Z</time>
      </trkpt>
      <trkpt lat="46.01107" lon="6.80163">
        <ele>1955.8000488281</ele>
        <time>2023-09-30T08:13:47.000Z</time>
      </trkpt>
      <trkpt lat="46.01107" lon="6.80165">
        <ele>1956</ele>
        <time>2023-09-30T08:13:48.000Z</time>
      </trkpt>
      <trkpt lat="46.01107" lon="6.80166">
        <ele>1956.1999511719</ele>
        <time>2023-09-30T08:13:49.000Z</time>
      </trkpt>
      <trkpt lat="46.01107" lon="6.80167">
        <ele>1956.4000244141</ele>
        <time>2023-09-30T08:13:50.000Z</time>
      </trkpt>
      <trkpt lat="46.01107" lon="6.80167">
        <ele>1956.4000244141</ele>
        <time>2023-09-30T08:13:51.000Z</time>
      </trkpt>
      <trkpt lat="46.01106" lon="6.8017">
        <ele>1956.8000488281</ele>
        <time>2023-09-30T08:13:53.000Z</time>
      </trkpt>
      <trkpt lat="46.01105" lon="6.80176">
        <ele>1957.4000244141</ele>
        <time>2023-09-30T08:13:58.000Z</time>
      </trkpt>
      <trkpt lat="46.01105" lon="6.80177">
        <ele>1957.8000488281</ele>
        <time>2023-09-30T08:13:59.000Z</time>
      </trkpt>
      <trkpt lat="46.01105" lon="6.80178">
        <ele>1957.8000488281</ele>
        <time>2023-09-30T08:14:00.000Z</time>
      </trkpt>
      <trkpt lat="46.01104" lon="6.80179">
        <ele>1958</ele>
        <time>2023-09-30T08:14:01.000Z</time>
      </trkpt>
      <trkpt lat="46.01104" lon="6.8018">
        <ele>1958.1999511719</ele>
        <time>2023-09-30T08:14:02.000Z</time>
      </trkpt>
      <trkpt lat="46.01104" lon="6.80182">
        <ele>1958.1999511719</ele>
        <time>2023-09-30T08:14:03.000Z</time>
      </trkpt>
      <trkpt lat="46.01104" lon="6.80183">
        <ele>1958.4000244141</ele>
        <time>2023-09-30T08:14:04.000Z</time>
      </trkpt>
      <trkpt lat="46.01104" lon="6.80184">
        <ele>1958.4000244141</ele>
        <time>2023-09-30T08:14:05.000Z</time>
      </trkpt>
      <trkpt lat="46.01104" lon="6.80185">
        <ele>1958.8000488281</ele>
        <time>2023-09-30T08:14:06.000Z</time>
      </trkpt>
      <trkpt lat="46.01104" lon="6.80187">
        <ele>1959</ele>
        <time>2023-09-30T08:14:07.000Z</time>
      </trkpt>
      <trkpt lat="46.01104" lon="6.80188">
        <ele>1959.1999511719</ele>
        <time>2023-09-30T08:14:08.000Z</time>
      </trkpt>
      <trkpt lat="46.01104" lon="6.80189">
        <ele>1959.1999511719</ele>
        <time>2023-09-30T08:14:09.000Z</time>
      </trkpt>
      <trkpt lat="46.01104" lon="6.8019">
        <ele>1959.4000244141</ele>
        <time>2023-09-30T08:14:10.000Z</time>
      </trkpt>
      <trkpt lat="46.01105" lon="6.80192">
        <ele>1960</ele>
        <time>2023-09-30T08:14:11.000Z</time>
      </trkpt>
      <trkpt lat="46.01104" lon="6.80193">
        <ele>1960.1999511719</ele>
        <time>2023-09-30T08:14:12.000Z</time>
      </trkpt>
      <trkpt lat="46.01104" lon="6.80194">
        <ele>1960.1999511719</ele>
        <time>2023-09-30T08:14:13.000Z</time>
      </trkpt>
      <trkpt lat="46.01104" lon="6.80195">
        <ele>1960.4000244141</ele>
        <time>2023-09-30T08:14:14.000Z</time>
      </trkpt>
      <trkpt lat="46.01104" lon="6.80196">
        <ele>1960.5999755859</ele>
        <time>2023-09-30T08:14:15.000Z</time>
      </trkpt>
      <trkpt lat="46.01105" lon="6.80196">
        <ele>1960.5999755859</ele>
        <time>2023-09-30T08:14:16.000Z</time>
      </trkpt>
      <trkpt lat="46.01105" lon="6.80198">
        <ele>1961</ele>
        <time>2023-09-30T08:14:17.000Z</time>
      </trkpt>
      <trkpt lat="46.01105" lon="6.80199">
        <ele>1961.1999511719</ele>
        <time>2023-09-30T08:14:18.000Z</time>
      </trkpt>
      <trkpt lat="46.01105" lon="6.802">
        <ele>1961.4000244141</ele>
        <time>2023-09-30T08:14:19.000Z</time>
      </trkpt>
      <trkpt lat="46.01106" lon="6.80201">
        <ele>1961.5999755859</ele>
        <time>2023-09-30T08:14:20.000Z</time>
      </trkpt>
      <trkpt lat="46.01106" lon="6.80202">
        <ele>1961.8000488281</ele>
        <time>2023-09-30T08:14:21.000Z</time>
      </trkpt>
      <trkpt lat="46.01106" lon="6.80203">
        <ele>1962</ele>
        <time>2023-09-30T08:14:22.000Z</time>
      </trkpt>
      <trkpt lat="46.01106" lon="6.80204">
        <ele>1962</ele>
        <time>2023-09-30T08:14:23.000Z</time>
      </trkpt>
      <trkpt lat="46.01106" lon="6.80205">
        <ele>1962.5999755859</ele>
        <time>2023-09-30T08:14:25.000Z</time>
      </trkpt>
      <trkpt lat="46.01106" lon="6.80206">
        <ele>1962.5999755859</ele>
        <time>2023-09-30T08:14:26.000Z</time>
      </trkpt>
      <trkpt lat="46.01106" lon="6.80207">
        <ele>1963</ele>
        <time>2023-09-30T08:14:27.000Z</time>
      </trkpt>
      <trkpt lat="46.01106" lon="6.80208">
        <ele>1963</ele>
        <time>2023-09-30T08:14:28.000Z</time>
      </trkpt>
      <trkpt lat="46.01106" lon="6.80209">
        <ele>1963.4000244141</ele>
        <time>2023-09-30T08:14:29.000Z</time>
      </trkpt>
      <trkpt lat="46.01106" lon="6.8021">
        <ele>1963.5999755859</ele>
        <time>2023-09-30T08:14:30.000Z</time>
      </trkpt>
      <trkpt lat="46.01106" lon="6.80211">
        <ele>1963.8000488281</ele>
        <time>2023-09-30T08:14:31.000Z</time>
      </trkpt>
      <trkpt lat="46.01106" lon="6.80212">
        <ele>1964</ele>
        <time>2023-09-30T08:14:32.000Z</time>
      </trkpt>
      <trkpt lat="46.01106" lon="6.80213">
        <ele>1964.1999511719</ele>
        <time>2023-09-30T08:14:33.000Z</time>
      </trkpt>
      <trkpt lat="46.01106" lon="6.80214">
        <ele>1964.4000244141</ele>
        <time>2023-09-30T08:14:34.000Z</time>
      </trkpt>
      <trkpt lat="46.01107" lon="6.80215">
        <ele>1964.4000244141</ele>
        <time>2023-09-30T08:14:35.000Z</time>
      </trkpt>
      <trkpt lat="46.01107" lon="6.80216">
        <ele>1964.5999755859</ele>
        <time>2023-09-30T08:14:36.000Z</time>
      </trkpt>
      <trkpt lat="46.01108" lon="6.80217">
        <ele>1964.8000488281</ele>
        <time>2023-09-30T08:14:37.000Z</time>
      </trkpt>
      <trkpt lat="46.01108" lon="6.80218">
        <ele>1964.8000488281</ele>
        <time>2023-09-30T08:14:38.000Z</time>
      </trkpt>
      <trkpt lat="46.01108" lon="6.80219">
        <ele>1965</ele>
        <time>2023-09-30T08:14:39.000Z</time>
      </trkpt>
      <trkpt lat="46.01108" lon="6.8022">
        <ele>1965.1999511719</ele>
        <time>2023-09-30T08:14:40.000Z</time>
      </trkpt>
      <trkpt lat="46.01108" lon="6.80221">
        <ele>1965.4000244141</ele>
        <time>2023-09-30T08:14:41.000Z</time>
      </trkpt>
      <trkpt lat="46.01108" lon="6.80222">
        <ele>1965.4000244141</ele>
        <time>2023-09-30T08:14:42.000Z</time>
      </trkpt>
      <trkpt lat="46.01109" lon="6.80223">
        <ele>1965.5999755859</ele>
        <time>2023-09-30T08:14:43.000Z</time>
      </trkpt>
      <trkpt lat="46.01109" lon="6.80224">
        <ele>1965.8000488281</ele>
        <time>2023-09-30T08:14:44.000Z</time>
      </trkpt>
      <trkpt lat="46.01109" lon="6.80224">
        <ele>1966</ele>
        <time>2023-09-30T08:14:45.000Z</time>
      </trkpt>
      <trkpt lat="46.0111" lon="6.80225">
        <ele>1966.1999511719</ele>
        <time>2023-09-30T08:14:46.000Z</time>
      </trkpt>
      <trkpt lat="46.0111" lon="6.80225">
        <ele>1966.4000244141</ele>
        <time>2023-09-30T08:14:47.000Z</time>
      </trkpt>
      <trkpt lat="46.01111" lon="6.80226">
        <ele>1966.5999755859</ele>
        <time>2023-09-30T08:14:48.000Z</time>
      </trkpt>
      <trkpt lat="46.01111" lon="6.80227">
        <ele>1966.5999755859</ele>
        <time>2023-09-30T08:14:49.000Z</time>
      </trkpt>
      <trkpt lat="46.01111" lon="6.80228">
        <ele>1966.8000488281</ele>
        <time>2023-09-30T08:14:50.000Z</time>
      </trkpt>
      <trkpt lat="46.01111" lon="6.80229">
        <ele>1967.1999511719</ele>
        <time>2023-09-30T08:14:51.000Z</time>
      </trkpt>
      <trkpt lat="46.01111" lon="6.8023">
        <ele>1967.1999511719</ele>
        <time>2023-09-30T08:14:52.000Z</time>
      </trkpt>
      <trkpt lat="46.01112" lon="6.80231">
        <ele>1967.4000244141</ele>
        <time>2023-09-30T08:14:53.000Z</time>
      </trkpt>
      <trkpt lat="46.01112" lon="6.80231">
        <ele>1967.5999755859</ele>
        <time>2023-09-30T08:14:54.000Z</time>
      </trkpt>
      <trkpt lat="46.01112" lon="6.80232">
        <ele>1967.5999755859</ele>
        <time>2023-09-30T08:14:55.000Z</time>
      </trkpt>
      <trkpt lat="46.01112" lon="6.80232">
        <ele>1967.8000488281</ele>
        <time>2023-09-30T08:14:56.000Z</time>
      </trkpt>
      <trkpt lat="46.01112" lon="6.80234">
        <ele>1967.8000488281</ele>
        <time>2023-09-30T08:14:57.000Z</time>
      </trkpt>
      <trkpt lat="46.01113" lon="6.80235">
        <ele>1968.1999511719</ele>
        <time>2023-09-30T08:14:58.000Z</time>
      </trkpt>
      <trkpt lat="46.01113" lon="6.80236">
        <ele>1968.1999511719</ele>
        <time>2023-09-30T08:14:59.000Z</time>
      </trkpt>
      <trkpt lat="46.01113" lon="6.80236">
        <ele>1968.4000244141</ele>
        <time>2023-09-30T08:15:00.000Z</time>
      </trkpt>
      <trkpt lat="46.01113" lon="6.80237">
        <ele>1968.4000244141</ele>
        <time>2023-09-30T08:15:01.000Z</time>
      </trkpt>
      <trkpt lat="46.01113" lon="6.80238">
        <ele>1968.5999755859</ele>
        <time>2023-09-30T08:15:02.000Z</time>
      </trkpt>
      <trkpt lat="46.01114" lon="6.80239">
        <ele>1968.5999755859</ele>
        <time>2023-09-30T08:15:03.000Z</time>
      </trkpt>
      <trkpt lat="46.01114" lon="6.8024">
        <ele>1968.8000488281</ele>
        <time>2023-09-30T08:15:04.000Z</time>
      </trkpt>
      <trkpt lat="46.01113" lon="6.80239">
        <ele>1969.1999511719</ele>
        <time>2023-09-30T08:15:05.000Z</time>
      </trkpt>
      <trkpt lat="46.01114" lon="6.8024">
        <ele>1969.5999755859</ele>
        <time>2023-09-30T08:15:07.000Z</time>
      </trkpt>
      <trkpt lat="46.01114" lon="6.80241">
        <ele>1969.5999755859</ele>
        <time>2023-09-30T08:15:08.000Z</time>
      </trkpt>
      <trkpt lat="46.01115" lon="6.80242">
        <ele>1969.8000488281</ele>
        <time>2023-09-30T08:15:09.000Z</time>
      </trkpt>
      <trkpt lat="46.01115" lon="6.80243">
        <ele>1970</ele>
        <time>2023-09-30T08:15:10.000Z</time>
      </trkpt>
      <trkpt lat="46.01115" lon="6.80243">
        <ele>1970.1999511719</ele>
        <time>2023-09-30T08:15:11.000Z</time>
      </trkpt>
      <trkpt lat="46.01116" lon="6.80244">
        <ele>1970.4000244141</ele>
        <time>2023-09-30T08:15:12.000Z</time>
      </trkpt>
      <trkpt lat="46.01116" lon="6.80244">
        <ele>1970.5999755859</ele>
        <time>2023-09-30T08:15:13.000Z</time>
      </trkpt>
      <trkpt lat="46.01116" lon="6.80244">
        <ele>1970.8000488281</ele>
        <time>2023-09-30T08:15:15.000Z</time>
      </trkpt>
      <trkpt lat="46.01116" lon="6.80245">
        <ele>1971.1999511719</ele>
        <time>2023-09-30T08:15:16.000Z</time>
      </trkpt>
      <trkpt lat="46.01116" lon="6.80246">
        <ele>1971.1999511719</ele>
        <time>2023-09-30T08:15:17.000Z</time>
      </trkpt>
      <trkpt lat="46.01117" lon="6.80247">
        <ele>1971.4000244141</ele>
        <time>2023-09-30T08:15:18.000Z</time>
      </trkpt>
      <trkpt lat="46.01117" lon="6.80247">
        <ele>1971.5999755859</ele>
        <time>2023-09-30T08:15:19.000Z</time>
      </trkpt>
      <trkpt lat="46.01117" lon="6.80248">
        <ele>1971.5999755859</ele>
        <time>2023-09-30T08:15:20.000Z</time>
      </trkpt>
      <trkpt lat="46.01117" lon="6.80249">
        <ele>1971.8000488281</ele>
        <time>2023-09-30T08:15:21.000Z</time>
      </trkpt>
      <trkpt lat="46.01117" lon="6.8025">
        <ele>1971.8000488281</ele>
        <time>2023-09-30T08:15:22.000Z</time>
      </trkpt>
      <trkpt lat="46.01117" lon="6.8025">
        <ele>1972.1999511719</ele>
        <time>2023-09-30T08:15:23.000Z</time>
      </trkpt>
      <trkpt lat="46.01117" lon="6.80251">
        <ele>1972.4000244141</ele>
        <time>2023-09-30T08:15:24.000Z</time>
      </trkpt>
      <trkpt lat="46.01117" lon="6.80251">
        <ele>1972.5999755859</ele>
        <time>2023-09-30T08:15:25.000Z</time>
      </trkpt>
      <trkpt lat="46.01117" lon="6.80251">
        <ele>1972.5999755859</ele>
        <time>2023-09-30T08:15:28.000Z</time>
      </trkpt>
      <trkpt lat="46.01117" lon="6.80252">
        <ele>1972.8000488281</ele>
        <time>2023-09-30T08:15:29.000Z</time>
      </trkpt>
      <trkpt lat="46.01117" lon="6.80254">
        <ele>1972.8000488281</ele>
        <time>2023-09-30T08:15:30.000Z</time>
      </trkpt>
      <trkpt lat="46.01117" lon="6.80255">
        <ele>1972.8000488281</ele>
        <time>2023-09-30T08:15:31.000Z</time>
      </trkpt>
      <trkpt lat="46.01117" lon="6.80255">
        <ele>1973</ele>
        <time>2023-09-30T08:15:32.000Z</time>
      </trkpt>
      <trkpt lat="46.01117" lon="6.80256">
        <ele>1973</ele>
        <time>2023-09-30T08:15:34.000Z</time>
      </trkpt>
      <trkpt lat="46.01117" lon="6.80257">
        <ele>1973.1999511719</ele>
        <time>2023-09-30T08:15:35.000Z</time>
      </trkpt>
      <trkpt lat="46.01117" lon="6.80257">
        <ele>1973.4000244141</ele>
        <time>2023-09-30T08:15:36.000Z</time>
      </trkpt>
      <trkpt lat="46.01117" lon="6.80257">
        <ele>1973.5999755859</ele>
        <time>2023-09-30T08:15:37.000Z</time>
      </trkpt>
      <trkpt lat="46.01117" lon="6.80257">
        <ele>1973.8000488281</ele>
        <time>2023-09-30T08:15:38.000Z</time>
      </trkpt>
      <trkpt lat="46.01117" lon="6.80258">
        <ele>1974</ele>
        <time>2023-09-30T08:15:39.000Z</time>
      </trkpt>
      <trkpt lat="46.01117" lon="6.80258">
        <ele>1974.1999511719</ele>
        <time>2023-09-30T08:15:42.000Z</time>
      </trkpt>
      <trkpt lat="46.01117" lon="6.80259">
        <ele>1974.5999755859</ele>
        <time>2023-09-30T08:15:44.000Z</time>
      </trkpt>
      <trkpt lat="46.01116" lon="6.80261">
        <ele>1974.5999755859</ele>
        <time>2023-09-30T08:15:45.000Z</time>
      </trkpt>
      <trkpt lat="46.01116" lon="6.80263">
        <ele>1974.8000488281</ele>
        <time>2023-09-30T08:15:46.000Z</time>
      </trkpt>
      <trkpt lat="46.01116" lon="6.80264">
        <ele>1975</ele>
        <time>2023-09-30T08:15:47.000Z</time>
      </trkpt>
      <trkpt lat="46.01116" lon="6.80266">
        <ele>1975.1999511719</ele>
        <time>2023-09-30T08:15:48.000Z</time>
      </trkpt>
      <trkpt lat="46.01116" lon="6.80268">
        <ele>1975.4000244141</ele>
        <time>2023-09-30T08:15:49.000Z</time>
      </trkpt>
      <trkpt lat="46.01115" lon="6.80269">
        <ele>1975.4000244141</ele>
        <time>2023-09-30T08:15:50.000Z</time>
      </trkpt>
      <trkpt lat="46.01115" lon="6.80271">
        <ele>1975.5999755859</ele>
        <time>2023-09-30T08:15:51.000Z</time>
      </trkpt>
      <trkpt lat="46.01114" lon="6.80272">
        <ele>1975.8000488281</ele>
        <time>2023-09-30T08:15:52.000Z</time>
      </trkpt>
      <trkpt lat="46.01114" lon="6.80274">
        <ele>1975.8000488281</ele>
        <time>2023-09-30T08:15:53.000Z</time>
      </trkpt>
      <trkpt lat="46.01114" lon="6.80275">
        <ele>1976.1999511719</ele>
        <time>2023-09-30T08:15:54.000Z</time>
      </trkpt>
      <trkpt lat="46.01114" lon="6.80276">
        <ele>1976.1999511719</ele>
        <time>2023-09-30T08:15:55.000Z</time>
      </trkpt>
      <trkpt lat="46.01114" lon="6.80277">
        <ele>1976.5999755859</ele>
        <time>2023-09-30T08:15:56.000Z</time>
      </trkpt>
      <trkpt lat="46.01113" lon="6.80278">
        <ele>1976.5999755859</ele>
        <time>2023-09-30T08:15:57.000Z</time>
      </trkpt>
      <trkpt lat="46.01113" lon="6.8028">
        <ele>1976.8000488281</ele>
        <time>2023-09-30T08:15:58.000Z</time>
      </trkpt>
      <trkpt lat="46.01113" lon="6.8028">
        <ele>1976.8000488281</ele>
        <time>2023-09-30T08:15:59.000Z</time>
      </trkpt>
      <trkpt lat="46.01113" lon="6.80281">
        <ele>1977</ele>
        <time>2023-09-30T08:16:00.000Z</time>
      </trkpt>
      <trkpt lat="46.01113" lon="6.80283">
        <ele>1977.1999511719</ele>
        <time>2023-09-30T08:16:01.000Z</time>
      </trkpt>
      <trkpt lat="46.01113" lon="6.80284">
        <ele>1977.1999511719</ele>
        <time>2023-09-30T08:16:02.000Z</time>
      </trkpt>
      <trkpt lat="46.01113" lon="6.80285">
        <ele>1977.4000244141</ele>
        <time>2023-09-30T08:16:03.000Z</time>
      </trkpt>
      <trkpt lat="46.01114" lon="6.80286">
        <ele>1977.5999755859</ele>
        <time>2023-09-30T08:16:04.000Z</time>
      </trkpt>
      <trkpt lat="46.01114" lon="6.80286">
        <ele>1977.5999755859</ele>
        <time>2023-09-30T08:16:05.000Z</time>
      </trkpt>
      <trkpt lat="46.01114" lon="6.80286">
        <ele>1978</ele>
        <time>2023-09-30T08:16:08.000Z</time>
      </trkpt>
      <trkpt lat="46.01114" lon="6.80286">
        <ele>1978.1999511719</ele>
        <time>2023-09-30T08:16:09.000Z</time>
      </trkpt>
      <trkpt lat="46.01112" lon="6.80295">
        <ele>1978.8000488281</ele>
        <time>2023-09-30T08:17:28.000Z</time>
      </trkpt>
      <trkpt lat="46.01111" lon="6.80297">
        <ele>1978.8000488281</ele>
        <time>2023-09-30T08:17:29.000Z</time>
      </trkpt>
      <trkpt lat="46.01111" lon="6.80299">
        <ele>1979</ele>
        <time>2023-09-30T08:17:30.000Z</time>
      </trkpt>
      <trkpt lat="46.0111" lon="6.803">
        <ele>1979.1999511719</ele>
        <time>2023-09-30T08:17:31.000Z</time>
      </trkpt>
      <trkpt lat="46.01108" lon="6.80303">
        <ele>1980</ele>
        <time>2023-09-30T08:17:34.000Z</time>
      </trkpt>
      <trkpt lat="46.01108" lon="6.80305">
        <ele>1980.1999511719</ele>
        <time>2023-09-30T08:17:35.000Z</time>
      </trkpt>
      <trkpt lat="46.01108" lon="6.80306">
        <ele>1980.5999755859</ele>
        <time>2023-09-30T08:17:36.000Z</time>
      </trkpt>
      <trkpt lat="46.01107" lon="6.80306">
        <ele>1980.8000488281</ele>
        <time>2023-09-30T08:17:37.000Z</time>
      </trkpt>
      <trkpt lat="46.01107" lon="6.80307">
        <ele>1981</ele>
        <time>2023-09-30T08:17:38.000Z</time>
      </trkpt>
      <trkpt lat="46.01107" lon="6.80309">
        <ele>1981.4000244141</ele>
        <time>2023-09-30T08:17:39.000Z</time>
      </trkpt>
      <trkpt lat="46.01106" lon="6.8031">
        <ele>1981.5999755859</ele>
        <time>2023-09-30T08:17:40.000Z</time>
      </trkpt>
      <trkpt lat="46.01106" lon="6.80311">
        <ele>1981.8000488281</ele>
        <time>2023-09-30T08:17:41.000Z</time>
      </trkpt>
      <trkpt lat="46.01106" lon="6.80313">
        <ele>1982</ele>
        <time>2023-09-30T08:17:42.000Z</time>
      </trkpt>
      <trkpt lat="46.01106" lon="6.80314">
        <ele>1982</ele>
        <time>2023-09-30T08:17:43.000Z</time>
      </trkpt>
      <trkpt lat="46.01106" lon="6.80316">
        <ele>1982.1999511719</ele>
        <time>2023-09-30T08:17:44.000Z</time>
      </trkpt>
      <trkpt lat="46.01105" lon="6.80318">
        <ele>1982.1999511719</ele>
        <time>2023-09-30T08:17:45.000Z</time>
      </trkpt>
      <trkpt lat="46.01105" lon="6.8032">
        <ele>1982.5999755859</ele>
        <time>2023-09-30T08:17:46.000Z</time>
      </trkpt>
      <trkpt lat="46.01105" lon="6.80321">
        <ele>1982.5999755859</ele>
        <time>2023-09-30T08:17:47.000Z</time>
      </trkpt>
      <trkpt lat="46.01104" lon="6.80322">
        <ele>1982.8000488281</ele>
        <time>2023-09-30T08:17:48.000Z</time>
      </trkpt>
      <trkpt lat="46.01103" lon="6.80323">
        <ele>1983</ele>
        <time>2023-09-30T08:17:49.000Z</time>
      </trkpt>
      <trkpt lat="46.01103" lon="6.80324">
        <ele>1983.4000244141</ele>
        <time>2023-09-30T08:17:50.000Z</time>
      </trkpt>
      <trkpt lat="46.01102" lon="6.80325">
        <ele>1983.5999755859</ele>
        <time>2023-09-30T08:17:51.000Z</time>
      </trkpt>
      <trkpt lat="46.01102" lon="6.80326">
        <ele>1983.5999755859</ele>
        <time>2023-09-30T08:17:52.000Z</time>
      </trkpt>
      <trkpt lat="46.01102" lon="6.80327">
        <ele>1983.8000488281</ele>
        <time>2023-09-30T08:17:53.000Z</time>
      </trkpt>
      <trkpt lat="46.01101" lon="6.80328">
        <ele>1984</ele>
        <time>2023-09-30T08:17:54.000Z</time>
      </trkpt>
      <trkpt lat="46.01101" lon="6.8033">
        <ele>1984.1999511719</ele>
        <time>2023-09-30T08:17:55.000Z</time>
      </trkpt>
      <trkpt lat="46.011" lon="6.80331">
        <ele>1984.4000244141</ele>
        <time>2023-09-30T08:17:56.000Z</time>
      </trkpt>
      <trkpt lat="46.011" lon="6.80331">
        <ele>1984.4000244141</ele>
        <time>2023-09-30T08:17:57.000Z</time>
      </trkpt>
      <trkpt lat="46.01099" lon="6.80332">
        <ele>1984.8000488281</ele>
        <time>2023-09-30T08:17:58.000Z</time>
      </trkpt>
      <trkpt lat="46.01099" lon="6.80333">
        <ele>1985.4000244141</ele>
        <time>2023-09-30T08:18:03.000Z</time>
      </trkpt>
      <trkpt lat="46.011" lon="6.80334">
        <ele>1986.1999511719</ele>
        <time>2023-09-30T08:18:09.000Z</time>
      </trkpt>
      <trkpt lat="46.011" lon="6.80334">
        <ele>1986.4000244141</ele>
        <time>2023-09-30T08:18:11.000Z</time>
      </trkpt>
      <trkpt lat="46.01099" lon="6.80334">
        <ele>1986.4000244141</ele>
        <time>2023-09-30T08:18:19.000Z</time>
      </trkpt>
      <trkpt lat="46.01098" lon="6.80335">
        <ele>1986.4000244141</ele>
        <time>2023-09-30T08:18:20.000Z</time>
      </trkpt>
      <trkpt lat="46.01096" lon="6.80335">
        <ele>1986.4000244141</ele>
        <time>2023-09-30T08:18:21.000Z</time>
      </trkpt>
      <trkpt lat="46.01095" lon="6.80335">
        <ele>1986.5999755859</ele>
        <time>2023-09-30T08:18:22.000Z</time>
      </trkpt>
      <trkpt lat="46.01095" lon="6.80335">
        <ele>1986.5999755859</ele>
        <time>2023-09-30T08:18:23.000Z</time>
      </trkpt>
      <trkpt lat="46.01094" lon="6.80333">
        <ele>1986.5999755859</ele>
        <time>2023-09-30T08:18:24.000Z</time>
      </trkpt>
      <trkpt lat="46.01092" lon="6.80328">
        <ele>1986.5999755859</ele>
        <time>2023-09-30T08:18:28.000Z</time>
      </trkpt>
      <trkpt lat="46.01091" lon="6.80323">
        <ele>1987.4000244141</ele>
        <time>2023-09-30T08:18:31.000Z</time>
      </trkpt>
      <trkpt lat="46.01091" lon="6.80323">
        <ele>1987.4000244141</ele>
        <time>2023-09-30T08:18:32.000Z</time>
      </trkpt>
      <trkpt lat="46.01089" lon="6.80319">
        <ele>1988.5999755859</ele>
        <time>2023-09-30T08:18:35.000Z</time>
      </trkpt>
      <trkpt lat="46.01088" lon="6.80315">
        <ele>1989.1999511719</ele>
        <time>2023-09-30T08:18:38.000Z</time>
      </trkpt>
      <trkpt lat="46.01088" lon="6.80314">
        <ele>1989.1999511719</ele>
        <time>2023-09-30T08:18:39.000Z</time>
      </trkpt>
      <trkpt lat="46.01087" lon="6.80313">
        <ele>1989.4000244141</ele>
        <time>2023-09-30T08:18:40.000Z</time>
      </trkpt>
      <trkpt lat="46.01087" lon="6.80311">
        <ele>1989.5999755859</ele>
        <time>2023-09-30T08:18:41.000Z</time>
      </trkpt>
      <trkpt lat="46.01087" lon="6.80311">
        <ele>1989.5999755859</ele>
        <time>2023-09-30T08:18:42.000Z</time>
      </trkpt>
      <trkpt lat="46.01087" lon="6.8031">
        <ele>1990</ele>
        <time>2023-09-30T08:18:43.000Z</time>
      </trkpt>
      <trkpt lat="46.01087" lon="6.80308">
        <ele>1990</ele>
        <time>2023-09-30T08:18:44.000Z</time>
      </trkpt>
      <trkpt lat="46.01086" lon="6.80307">
        <ele>1990.4000244141</ele>
        <time>2023-09-30T08:18:45.000Z</time>
      </trkpt>
      <trkpt lat="46.01087" lon="6.80306">
        <ele>1990.5999755859</ele>
        <time>2023-09-30T08:18:46.000Z</time>
      </trkpt>
      <trkpt lat="46.01087" lon="6.80304">
        <ele>1990.8000488281</ele>
        <time>2023-09-30T08:18:47.000Z</time>
      </trkpt>
      <trkpt lat="46.01087" lon="6.80303">
        <ele>1990.8000488281</ele>
        <time>2023-09-30T08:18:48.000Z</time>
      </trkpt>
      <trkpt lat="46.01087" lon="6.80302">
        <ele>1991</ele>
        <time>2023-09-30T08:18:49.000Z</time>
      </trkpt>
      <trkpt lat="46.01087" lon="6.80301">
        <ele>1991.4000244141</ele>
        <time>2023-09-30T08:18:50.000Z</time>
      </trkpt>
      <trkpt lat="46.01087" lon="6.80299">
        <ele>1991.4000244141</ele>
        <time>2023-09-30T08:18:51.000Z</time>
      </trkpt>
      <trkpt lat="46.01087" lon="6.80297">
        <ele>1991.5999755859</ele>
        <time>2023-09-30T08:18:52.000Z</time>
      </trkpt>
      <trkpt lat="46.01086" lon="6.80296">
        <ele>1991.8000488281</ele>
        <time>2023-09-30T08:18:53.000Z</time>
      </trkpt>
      <trkpt lat="46.01086" lon="6.80295">
        <ele>1992</ele>
        <time>2023-09-30T08:18:54.000Z</time>
      </trkpt>
      <trkpt lat="46.01086" lon="6.80294">
        <ele>1992</ele>
        <time>2023-09-30T08:18:55.000Z</time>
      </trkpt>
      <trkpt lat="46.01085" lon="6.80292">
        <ele>1992.1999511719</ele>
        <time>2023-09-30T08:18:56.000Z</time>
      </trkpt>
      <trkpt lat="46.01085" lon="6.80291">
        <ele>1992.4000244141</ele>
        <time>2023-09-30T08:18:57.000Z</time>
      </trkpt>
      <trkpt lat="46.01085" lon="6.8029">
        <ele>1992.5999755859</ele>
        <time>2023-09-30T08:18:58.000Z</time>
      </trkpt>
      <trkpt lat="46.01084" lon="6.80288">
        <ele>1992.5999755859</ele>
        <time>2023-09-30T08:18:59.000Z</time>
      </trkpt>
      <trkpt lat="46.01084" lon="6.80287">
        <ele>1992.8000488281</ele>
        <time>2023-09-30T08:19:00.000Z</time>
      </trkpt>
      <trkpt lat="46.01084" lon="6.80286">
        <ele>1992.8000488281</ele>
        <time>2023-09-30T08:19:01.000Z</time>
      </trkpt>
      <trkpt lat="46.01084" lon="6.80285">
        <ele>1993</ele>
        <time>2023-09-30T08:19:02.000Z</time>
      </trkpt>
      <trkpt lat="46.01084" lon="6.80284">
        <ele>1993.1999511719</ele>
        <time>2023-09-30T08:19:03.000Z</time>
      </trkpt>
      <trkpt lat="46.01084" lon="6.80283">
        <ele>1993.4000244141</ele>
        <time>2023-09-30T08:19:04.000Z</time>
      </trkpt>
      <trkpt lat="46.01084" lon="6.80282">
        <ele>1993.5999755859</ele>
        <time>2023-09-30T08:19:05.000Z</time>
      </trkpt>
      <trkpt lat="46.01083" lon="6.80282">
        <ele>1993.5999755859</ele>
        <time>2023-09-30T08:19:06.000Z</time>
      </trkpt>
      <trkpt lat="46.01083" lon="6.80282">
        <ele>1993.5999755859</ele>
        <time>2023-09-30T08:19:07.000Z</time>
      </trkpt>
      <trkpt lat="46.01083" lon="6.8028">
        <ele>1994</ele>
        <time>2023-09-30T08:19:10.000Z</time>
      </trkpt>
      <trkpt lat="46.01083" lon="6.80279">
        <ele>1994.1999511719</ele>
        <time>2023-09-30T08:19:11.000Z</time>
      </trkpt>
      <trkpt lat="46.01083" lon="6.80279">
        <ele>1994.1999511719</ele>
        <time>2023-09-30T08:19:12.000Z</time>
      </trkpt>
      <trkpt lat="46.01083" lon="6.80278">
        <ele>1994.8000488281</ele>
        <time>2023-09-30T08:19:13.000Z</time>
      </trkpt>
      <trkpt lat="46.01083" lon="6.80276">
        <ele>1994.8000488281</ele>
        <time>2023-09-30T08:19:14.000Z</time>
      </trkpt>
      <trkpt lat="46.01083" lon="6.80275">
        <ele>1995</ele>
        <time>2023-09-30T08:19:15.000Z</time>
      </trkpt>
      <trkpt lat="46.01083" lon="6.80274">
        <ele>1995.1999511719</ele>
        <time>2023-09-30T08:19:16.000Z</time>
      </trkpt>
      <trkpt lat="46.01083" lon="6.80274">
        <ele>1995.1999511719</ele>
        <time>2023-09-30T08:19:17.000Z</time>
      </trkpt>
      <trkpt lat="46.01083" lon="6.80273">
        <ele>1996</ele>
        <time>2023-09-30T08:19:21.000Z</time>
      </trkpt>
      <trkpt lat="46.01083" lon="6.80272">
        <ele>1996.1999511719</ele>
        <time>2023-09-30T08:19:22.000Z</time>
      </trkpt>
      <trkpt lat="46.01083" lon="6.80272">
        <ele>1996.4000244141</ele>
        <time>2023-09-30T08:19:23.000Z</time>
      </trkpt>
      <trkpt lat="46.01083" lon="6.80272">
        <ele>1996.4000244141</ele>
        <time>2023-09-30T08:19:24.000Z</time>
      </trkpt>
      <trkpt lat="46.01083" lon="6.80271">
        <ele>1996.5999755859</ele>
        <time>2023-09-30T08:19:25.000Z</time>
      </trkpt>
      <trkpt lat="46.01083" lon="6.8027">
        <ele>1996.4000244141</ele>
        <time>2023-09-30T08:19:26.000Z</time>
      </trkpt>
      <trkpt lat="46.01083" lon="6.80269">
        <ele>1996.5999755859</ele>
        <time>2023-09-30T08:19:27.000Z</time>
      </trkpt>
      <trkpt lat="46.01083" lon="6.80268">
        <ele>1996.5999755859</ele>
        <time>2023-09-30T08:19:28.000Z</time>
      </trkpt>
      <trkpt lat="46.01083" lon="6.80267">
        <ele>1996.8000488281</ele>
        <time>2023-09-30T08:19:29.000Z</time>
      </trkpt>
      <trkpt lat="46.01083" lon="6.80265">
        <ele>1997</ele>
        <time>2023-09-30T08:19:30.000Z</time>
      </trkpt>
      <trkpt lat="46.01083" lon="6.80264">
        <ele>1997.1999511719</ele>
        <time>2023-09-30T08:19:31.000Z</time>
      </trkpt>
      <trkpt lat="46.01082" lon="6.80263">
        <ele>1997.1999511719</ele>
        <time>2023-09-30T08:19:32.000Z</time>
      </trkpt>
      <trkpt lat="46.01082" lon="6.80262">
        <ele>1997.4000244141</ele>
        <time>2023-09-30T08:19:33.000Z</time>
      </trkpt>
      <trkpt lat="46.01081" lon="6.80262">
        <ele>1997.5999755859</ele>
        <time>2023-09-30T08:19:34.000Z</time>
      </trkpt>
      <trkpt lat="46.0108" lon="6.80263">
        <ele>1997.5999755859</ele>
        <time>2023-09-30T08:19:35.000Z</time>
      </trkpt>
      <trkpt lat="46.01079" lon="6.80263">
        <ele>1997.5999755859</ele>
        <time>2023-09-30T08:19:36.000Z</time>
      </trkpt>
      <trkpt lat="46.01079" lon="6.80264">
        <ele>1997.8000488281</ele>
        <time>2023-09-30T08:19:37.000Z</time>
      </trkpt>
      <trkpt lat="46.01078" lon="6.80265">
        <ele>1997.8000488281</ele>
        <time>2023-09-30T08:19:38.000Z</time>
      </trkpt>
      <trkpt lat="46.01078" lon="6.80265">
        <ele>1998.1999511719</ele>
        <time>2023-09-30T08:19:39.000Z</time>
      </trkpt>
      <trkpt lat="46.01078" lon="6.80266">
        <ele>1998.4000244141</ele>
        <time>2023-09-30T08:19:40.000Z</time>
      </trkpt>
      <trkpt lat="46.01077" lon="6.80267">
        <ele>1998.4000244141</ele>
        <time>2023-09-30T08:19:41.000Z</time>
      </trkpt>
      <trkpt lat="46.01077" lon="6.80267">
        <ele>1998.5999755859</ele>
        <time>2023-09-30T08:19:42.000Z</time>
      </trkpt>
      <trkpt lat="46.01076" lon="6.80268">
        <ele>1998.8000488281</ele>
        <time>2023-09-30T08:19:43.000Z</time>
      </trkpt>
      <trkpt lat="46.01076" lon="6.80268">
        <ele>1999</ele>
        <time>2023-09-30T08:19:44.000Z</time>
      </trkpt>
      <trkpt lat="46.01076" lon="6.80269">
        <ele>1999</ele>
        <time>2023-09-30T08:19:45.000Z</time>
      </trkpt>
      <trkpt lat="46.01076" lon="6.8027">
        <ele>1999.1999511719</ele>
        <time>2023-09-30T08:19:46.000Z</time>
      </trkpt>
      <trkpt lat="46.01075" lon="6.80271">
        <ele>1999.4000244141</ele>
        <time>2023-09-30T08:19:47.000Z</time>
      </trkpt>
      <trkpt lat="46.01075" lon="6.80272">
        <ele>1999.4000244141</ele>
        <time>2023-09-30T08:19:48.000Z</time>
      </trkpt>
      <trkpt lat="46.01075" lon="6.80272">
        <ele>1999.5999755859</ele>
        <time>2023-09-30T08:19:49.000Z</time>
      </trkpt>
      <trkpt lat="46.01074" lon="6.80273">
        <ele>2000</ele>
        <time>2023-09-30T08:19:50.000Z</time>
      </trkpt>
      <trkpt lat="46.01074" lon="6.80274">
        <ele>2000</ele>
        <time>2023-09-30T08:19:51.000Z</time>
      </trkpt>
      <trkpt lat="46.01074" lon="6.80274">
        <ele>2000.1999511719</ele>
        <time>2023-09-30T08:19:52.000Z</time>
      </trkpt>
      <trkpt lat="46.01073" lon="6.80275">
        <ele>2000.1999511719</ele>
        <time>2023-09-30T08:19:53.000Z</time>
      </trkpt>
      <trkpt lat="46.01073" lon="6.80275">
        <ele>2000.4000244141</ele>
        <time>2023-09-30T08:19:54.000Z</time>
      </trkpt>
      <trkpt lat="46.01072" lon="6.80276">
        <ele>2000.5999755859</ele>
        <time>2023-09-30T08:19:55.000Z</time>
      </trkpt>
      <trkpt lat="46.01072" lon="6.80277">
        <ele>2000.5999755859</ele>
        <time>2023-09-30T08:19:56.000Z</time>
      </trkpt>
      <trkpt lat="46.01071" lon="6.80278">
        <ele>2000.8000488281</ele>
        <time>2023-09-30T08:19:57.000Z</time>
      </trkpt>
      <trkpt lat="46.01071" lon="6.80279">
        <ele>2001</ele>
        <time>2023-09-30T08:19:58.000Z</time>
      </trkpt>
      <trkpt lat="46.01071" lon="6.80279">
        <ele>2001.1999511719</ele>
        <time>2023-09-30T08:19:59.000Z</time>
      </trkpt>
      <trkpt lat="46.0107" lon="6.8028">
        <ele>2001.1999511719</ele>
        <time>2023-09-30T08:20:00.000Z</time>
      </trkpt>
      <trkpt lat="46.0107" lon="6.8028">
        <ele>2001.4000244141</ele>
        <time>2023-09-30T08:20:01.000Z</time>
      </trkpt>
      <trkpt lat="46.01069" lon="6.80281">
        <ele>2001.5999755859</ele>
        <time>2023-09-30T08:20:02.000Z</time>
      </trkpt>
      <trkpt lat="46.01068" lon="6.80282">
        <ele>2001.5999755859</ele>
        <time>2023-09-30T08:20:03.000Z</time>
      </trkpt>
      <trkpt lat="46.01068" lon="6.80282">
        <ele>2001.8000488281</ele>
        <time>2023-09-30T08:20:04.000Z</time>
      </trkpt>
      <trkpt lat="46.01068" lon="6.80283">
        <ele>2002</ele>
        <time>2023-09-30T08:20:05.000Z</time>
      </trkpt>
      <trkpt lat="46.01067" lon="6.80284">
        <ele>2002.1999511719</ele>
        <time>2023-09-30T08:20:06.000Z</time>
      </trkpt>
      <trkpt lat="46.01067" lon="6.80285">
        <ele>2002.1999511719</ele>
        <time>2023-09-30T08:20:07.000Z</time>
      </trkpt>
      <trkpt lat="46.01067" lon="6.80286">
        <ele>2002.4000244141</ele>
        <time>2023-09-30T08:20:08.000Z</time>
      </trkpt>
      <trkpt lat="46.01066" lon="6.80287">
        <ele>2002.5999755859</ele>
        <time>2023-09-30T08:20:09.000Z</time>
      </trkpt>
      <trkpt lat="46.01066" lon="6.80288">
        <ele>2002.8000488281</ele>
        <time>2023-09-30T08:20:10.000Z</time>
      </trkpt>
      <trkpt lat="46.01066" lon="6.80289">
        <ele>2003</ele>
        <time>2023-09-30T08:20:11.000Z</time>
      </trkpt>
      <trkpt lat="46.01066" lon="6.80289">
        <ele>2003</ele>
        <time>2023-09-30T08:20:12.000Z</time>
      </trkpt>
      <trkpt lat="46.01065" lon="6.8029">
        <ele>2003.1999511719</ele>
        <time>2023-09-30T08:20:13.000Z</time>
      </trkpt>
      <trkpt lat="46.01065" lon="6.80291">
        <ele>2003.4000244141</ele>
        <time>2023-09-30T08:20:14.000Z</time>
      </trkpt>
      <trkpt lat="46.01064" lon="6.80292">
        <ele>2003.5999755859</ele>
        <time>2023-09-30T08:20:15.000Z</time>
      </trkpt>
      <trkpt lat="46.01064" lon="6.80293">
        <ele>2003.8000488281</ele>
        <time>2023-09-30T08:20:16.000Z</time>
      </trkpt>
      <trkpt lat="46.01064" lon="6.80294">
        <ele>2003.8000488281</ele>
        <time>2023-09-30T08:20:17.000Z</time>
      </trkpt>
      <trkpt lat="46.01063" lon="6.80295">
        <ele>2004</ele>
        <time>2023-09-30T08:20:18.000Z</time>
      </trkpt>
      <trkpt lat="46.01063" lon="6.80295">
        <ele>2004.4000244141</ele>
        <time>2023-09-30T08:20:19.000Z</time>
      </trkpt>
      <trkpt lat="46.01063" lon="6.80296">
        <ele>2004.4000244141</ele>
        <time>2023-09-30T08:20:20.000Z</time>
      </trkpt>
      <trkpt lat="46.01062" lon="6.80297">
        <ele>2004.5999755859</ele>
        <time>2023-09-30T08:20:21.000Z</time>
      </trkpt>
      <trkpt lat="46.01062" lon="6.80297">
        <ele>2004.8000488281</ele>
        <time>2023-09-30T08:20:22.000Z</time>
      </trkpt>
      <trkpt lat="46.01062" lon="6.80298">
        <ele>2005</ele>
        <time>2023-09-30T08:20:23.000Z</time>
      </trkpt>
      <trkpt lat="46.01061" lon="6.80298">
        <ele>2005.1999511719</ele>
        <time>2023-09-30T08:20:25.000Z</time>
      </trkpt>
      <trkpt lat="46.01061" lon="6.80299">
        <ele>2005.1999511719</ele>
        <time>2023-09-30T08:20:26.000Z</time>
      </trkpt>
      <trkpt lat="46.01061" lon="6.803">
        <ele>2005.1999511719</ele>
        <time>2023-09-30T08:20:27.000Z</time>
      </trkpt>
      <trkpt lat="46.0106" lon="6.80301">
        <ele>2005.4000244141</ele>
        <time>2023-09-30T08:20:28.000Z</time>
      </trkpt>
      <trkpt lat="46.0106" lon="6.80302">
        <ele>2005.5999755859</ele>
        <time>2023-09-30T08:20:29.000Z</time>
      </trkpt>
      <trkpt lat="46.0106" lon="6.80302">
        <ele>2005.8000488281</ele>
        <time>2023-09-30T08:20:30.000Z</time>
      </trkpt>
      <trkpt lat="46.0106" lon="6.80302">
        <ele>2006</ele>
        <time>2023-09-30T08:20:31.000Z</time>
      </trkpt>
      <trkpt lat="46.0106" lon="6.80302">
        <ele>2006.4000244141</ele>
        <time>2023-09-30T08:20:34.000Z</time>
      </trkpt>
      <trkpt lat="46.01059" lon="6.80303">
        <ele>2006.5999755859</ele>
        <time>2023-09-30T08:20:35.000Z</time>
      </trkpt>
      <trkpt lat="46.01059" lon="6.80304">
        <ele>2006.5999755859</ele>
        <time>2023-09-30T08:20:36.000Z</time>
      </trkpt>
      <trkpt lat="46.01059" lon="6.80304">
        <ele>2006.8000488281</ele>
        <time>2023-09-30T08:20:37.000Z</time>
      </trkpt>
      <trkpt lat="46.01058" lon="6.80305">
        <ele>2006.8000488281</ele>
        <time>2023-09-30T08:20:38.000Z</time>
      </trkpt>
      <trkpt lat="46.01058" lon="6.80305">
        <ele>2007</ele>
        <time>2023-09-30T08:20:39.000Z</time>
      </trkpt>
      <trkpt lat="46.01058" lon="6.80305">
        <ele>2007</ele>
        <time>2023-09-30T08:20:40.000Z</time>
      </trkpt>
      <trkpt lat="46.01058" lon="6.80305">
        <ele>2007.1999511719</ele>
        <time>2023-09-30T08:20:41.000Z</time>
      </trkpt>
      <trkpt lat="46.01058" lon="6.80306">
        <ele>2007.4000244141</ele>
        <time>2023-09-30T08:20:42.000Z</time>
      </trkpt>
      <trkpt lat="46.01058" lon="6.80307">
        <ele>2007.4000244141</ele>
        <time>2023-09-30T08:20:43.000Z</time>
      </trkpt>
      <trkpt lat="46.01057" lon="6.80308">
        <ele>2007.8000488281</ele>
        <time>2023-09-30T08:20:44.000Z</time>
      </trkpt>
      <trkpt lat="46.01056" lon="6.80309">
        <ele>2008</ele>
        <time>2023-09-30T08:20:45.000Z</time>
      </trkpt>
      <trkpt lat="46.01056" lon="6.80311">
        <ele>2008.1999511719</ele>
        <time>2023-09-30T08:20:46.000Z</time>
      </trkpt>
      <trkpt lat="46.01055" lon="6.80311">
        <ele>2008.4000244141</ele>
        <time>2023-09-30T08:20:47.000Z</time>
      </trkpt>
      <trkpt lat="46.01055" lon="6.80312">
        <ele>2008.5999755859</ele>
        <time>2023-09-30T08:20:48.000Z</time>
      </trkpt>
      <trkpt lat="46.01054" lon="6.80313">
        <ele>2008.5999755859</ele>
        <time>2023-09-30T08:20:49.000Z</time>
      </trkpt>
      <trkpt lat="46.01053" lon="6.80313">
        <ele>2008.5999755859</ele>
        <time>2023-09-30T08:20:50.000Z</time>
      </trkpt>
      <trkpt lat="46.01052" lon="6.80314">
        <ele>2008.8000488281</ele>
        <time>2023-09-30T08:20:51.000Z</time>
      </trkpt>
      <trkpt lat="46.01052" lon="6.80315">
        <ele>2008.8000488281</ele>
        <time>2023-09-30T08:20:52.000Z</time>
      </trkpt>
      <trkpt lat="46.01052" lon="6.80316">
        <ele>2009</ele>
        <time>2023-09-30T08:20:53.000Z</time>
      </trkpt>
      <trkpt lat="46.01051" lon="6.80317">
        <ele>2009.4000244141</ele>
        <time>2023-09-30T08:20:54.000Z</time>
      </trkpt>
      <trkpt lat="46.01051" lon="6.80318">
        <ele>2009.4000244141</ele>
        <time>2023-09-30T08:20:55.000Z</time>
      </trkpt>
      <trkpt lat="46.0105" lon="6.80319">
        <ele>2009.5999755859</ele>
        <time>2023-09-30T08:20:56.000Z</time>
      </trkpt>
      <trkpt lat="46.0105" lon="6.80319">
        <ele>2009.8000488281</ele>
        <time>2023-09-30T08:20:57.000Z</time>
      </trkpt>
      <trkpt lat="46.01049" lon="6.8032">
        <ele>2010</ele>
        <time>2023-09-30T08:20:58.000Z</time>
      </trkpt>
      <trkpt lat="46.01048" lon="6.80321">
        <ele>2010.1999511719</ele>
        <time>2023-09-30T08:20:59.000Z</time>
      </trkpt>
      <trkpt lat="46.01047" lon="6.80321">
        <ele>2010.1999511719</ele>
        <time>2023-09-30T08:21:00.000Z</time>
      </trkpt>
      <trkpt lat="46.01046" lon="6.80322">
        <ele>2010.4000244141</ele>
        <time>2023-09-30T08:21:01.000Z</time>
      </trkpt>
      <trkpt lat="46.01045" lon="6.80323">
        <ele>2010.4000244141</ele>
        <time>2023-09-30T08:21:02.000Z</time>
      </trkpt>
      <trkpt lat="46.01045" lon="6.80324">
        <ele>2010.5999755859</ele>
        <time>2023-09-30T08:21:03.000Z</time>
      </trkpt>
      <trkpt lat="46.01044" lon="6.80325">
        <ele>2010.8000488281</ele>
        <time>2023-09-30T08:21:04.000Z</time>
      </trkpt>
      <trkpt lat="46.01043" lon="6.80326">
        <ele>2011</ele>
        <time>2023-09-30T08:21:05.000Z</time>
      </trkpt>
      <trkpt lat="46.01043" lon="6.80327">
        <ele>2011.1999511719</ele>
        <time>2023-09-30T08:21:06.000Z</time>
      </trkpt>
      <trkpt lat="46.01042" lon="6.80328">
        <ele>2011.1999511719</ele>
        <time>2023-09-30T08:21:07.000Z</time>
      </trkpt>
      <trkpt lat="46.01041" lon="6.80329">
        <ele>2011.4000244141</ele>
        <time>2023-09-30T08:21:08.000Z</time>
      </trkpt>
      <trkpt lat="46.0104" lon="6.8033">
        <ele>2011.4000244141</ele>
        <time>2023-09-30T08:21:09.000Z</time>
      </trkpt>
      <trkpt lat="46.0104" lon="6.80331">
        <ele>2011.5999755859</ele>
        <time>2023-09-30T08:21:10.000Z</time>
      </trkpt>
      <trkpt lat="46.01039" lon="6.80332">
        <ele>2011.5999755859</ele>
        <time>2023-09-30T08:21:11.000Z</time>
      </trkpt>
      <trkpt lat="46.01038" lon="6.80334">
        <ele>2011.8000488281</ele>
        <time>2023-09-30T08:21:12.000Z</time>
      </trkpt>
      <trkpt lat="46.01037" lon="6.80334">
        <ele>2011.8000488281</ele>
        <time>2023-09-30T08:21:13.000Z</time>
      </trkpt>
      <trkpt lat="46.01037" lon="6.80336">
        <ele>2012</ele>
        <time>2023-09-30T08:21:14.000Z</time>
      </trkpt>
      <trkpt lat="46.01036" lon="6.80336">
        <ele>2012</ele>
        <time>2023-09-30T08:21:15.000Z</time>
      </trkpt>
      <trkpt lat="46.01035" lon="6.80337">
        <ele>2012.1999511719</ele>
        <time>2023-09-30T08:21:16.000Z</time>
      </trkpt>
      <trkpt lat="46.01034" lon="6.80338">
        <ele>2012.1999511719</ele>
        <time>2023-09-30T08:21:17.000Z</time>
      </trkpt>
      <trkpt lat="46.01034" lon="6.80339">
        <ele>2012.1999511719</ele>
        <time>2023-09-30T08:21:18.000Z</time>
      </trkpt>
      <trkpt lat="46.01033" lon="6.8034">
        <ele>2012.5999755859</ele>
        <time>2023-09-30T08:21:19.000Z</time>
      </trkpt>
      <trkpt lat="46.01032" lon="6.80341">
        <ele>2012.5999755859</ele>
        <time>2023-09-30T08:21:20.000Z</time>
      </trkpt>
      <trkpt lat="46.01032" lon="6.80342">
        <ele>2012.8000488281</ele>
        <time>2023-09-30T08:21:21.000Z</time>
      </trkpt>
      <trkpt lat="46.01031" lon="6.80343">
        <ele>2013.1999511719</ele>
        <time>2023-09-30T08:21:22.000Z</time>
      </trkpt>
      <trkpt lat="46.0103" lon="6.80343">
        <ele>2013.1999511719</ele>
        <time>2023-09-30T08:21:23.000Z</time>
      </trkpt>
      <trkpt lat="46.01029" lon="6.80344">
        <ele>2013.4000244141</ele>
        <time>2023-09-30T08:21:24.000Z</time>
      </trkpt>
      <trkpt lat="46.01029" lon="6.80345">
        <ele>2013.5999755859</ele>
        <time>2023-09-30T08:21:25.000Z</time>
      </trkpt>
      <trkpt lat="46.01028" lon="6.80345">
        <ele>2014</ele>
        <time>2023-09-30T08:21:26.000Z</time>
      </trkpt>
      <trkpt lat="46.01027" lon="6.80346">
        <ele>2014</ele>
        <time>2023-09-30T08:21:27.000Z</time>
      </trkpt>
      <trkpt lat="46.01026" lon="6.80347">
        <ele>2014.4000244141</ele>
        <time>2023-09-30T08:21:28.000Z</time>
      </trkpt>
      <trkpt lat="46.01025" lon="6.80347">
        <ele>2014.5999755859</ele>
        <time>2023-09-30T08:21:29.000Z</time>
      </trkpt>
      <trkpt lat="46.01024" lon="6.80348">
        <ele>2014.5999755859</ele>
        <time>2023-09-30T08:21:30.000Z</time>
      </trkpt>
      <trkpt lat="46.01024" lon="6.80349">
        <ele>2014.8000488281</ele>
        <time>2023-09-30T08:21:31.000Z</time>
      </trkpt>
      <trkpt lat="46.01023" lon="6.80349">
        <ele>2014.8000488281</ele>
        <time>2023-09-30T08:21:32.000Z</time>
      </trkpt>
      <trkpt lat="46.01022" lon="6.8035">
        <ele>2014.8000488281</ele>
        <time>2023-09-30T08:21:33.000Z</time>
      </trkpt>
      <trkpt lat="46.01021" lon="6.80351">
        <ele>2014.8000488281</ele>
        <time>2023-09-30T08:21:34.000Z</time>
      </trkpt>
      <trkpt lat="46.0102" lon="6.80351">
        <ele>2015.1999511719</ele>
        <time>2023-09-30T08:21:35.000Z</time>
      </trkpt>
      <trkpt lat="46.01019" lon="6.80352">
        <ele>2015.4000244141</ele>
        <time>2023-09-30T08:21:36.000Z</time>
      </trkpt>
      <trkpt lat="46.01018" lon="6.80352">
        <ele>2015.5999755859</ele>
        <time>2023-09-30T08:21:37.000Z</time>
      </trkpt>
      <trkpt lat="46.01017" lon="6.80353">
        <ele>2015.8000488281</ele>
        <time>2023-09-30T08:21:38.000Z</time>
      </trkpt>
      <trkpt lat="46.01017" lon="6.80354">
        <ele>2015.8000488281</ele>
        <time>2023-09-30T08:21:39.000Z</time>
      </trkpt>
      <trkpt lat="46.01016" lon="6.80355">
        <ele>2015.8000488281</ele>
        <time>2023-09-30T08:21:40.000Z</time>
      </trkpt>
      <trkpt lat="46.01015" lon="6.80356">
        <ele>2015.8000488281</ele>
        <time>2023-09-30T08:21:41.000Z</time>
      </trkpt>
      <trkpt lat="46.01014" lon="6.80357">
        <ele>2015.8000488281</ele>
        <time>2023-09-30T08:21:42.000Z</time>
      </trkpt>
      <trkpt lat="46.01013" lon="6.80358">
        <ele>2015.8000488281</ele>
        <time>2023-09-30T08:21:43.000Z</time>
      </trkpt>
      <trkpt lat="46.01012" lon="6.80359">
        <ele>2016.1999511719</ele>
        <time>2023-09-30T08:21:44.000Z</time>
      </trkpt>
      <trkpt lat="46.01012" lon="6.8036">
        <ele>2016.1999511719</ele>
        <time>2023-09-30T08:21:45.000Z</time>
      </trkpt>
      <trkpt lat="46.01011" lon="6.80361">
        <ele>2016.1999511719</ele>
        <time>2023-09-30T08:21:46.000Z</time>
      </trkpt>
      <trkpt lat="46.0101" lon="6.80363">
        <ele>2016.4000244141</ele>
        <time>2023-09-30T08:21:47.000Z</time>
      </trkpt>
      <trkpt lat="46.01009" lon="6.80364">
        <ele>2016.5999755859</ele>
        <time>2023-09-30T08:21:48.000Z</time>
      </trkpt>
      <trkpt lat="46.01008" lon="6.80365">
        <ele>2016.8000488281</ele>
        <time>2023-09-30T08:21:49.000Z</time>
      </trkpt>
      <trkpt lat="46.01008" lon="6.80366">
        <ele>2016.8000488281</ele>
        <time>2023-09-30T08:21:50.000Z</time>
      </trkpt>
      <trkpt lat="46.01007" lon="6.80367">
        <ele>2017</ele>
        <time>2023-09-30T08:21:51.000Z</time>
      </trkpt>
      <trkpt lat="46.01006" lon="6.80368">
        <ele>2017.1999511719</ele>
        <time>2023-09-30T08:21:52.000Z</time>
      </trkpt>
      <trkpt lat="46.01005" lon="6.80369">
        <ele>2017.1999511719</ele>
        <time>2023-09-30T08:21:53.000Z</time>
      </trkpt>
      <trkpt lat="46.01005" lon="6.80369">
        <ele>2017.4000244141</ele>
        <time>2023-09-30T08:21:54.000Z</time>
      </trkpt>
      <trkpt lat="46.01004" lon="6.8037">
        <ele>2017.5999755859</ele>
        <time>2023-09-30T08:21:55.000Z</time>
      </trkpt>
      <trkpt lat="46.01003" lon="6.80371">
        <ele>2017.5999755859</ele>
        <time>2023-09-30T08:21:56.000Z</time>
      </trkpt>
      <trkpt lat="46.01003" lon="6.80372">
        <ele>2017.5999755859</ele>
        <time>2023-09-30T08:21:57.000Z</time>
      </trkpt>
      <trkpt lat="46.01002" lon="6.80373">
        <ele>2017.5999755859</ele>
        <time>2023-09-30T08:21:58.000Z</time>
      </trkpt>
      <trkpt lat="46.01001" lon="6.80373">
        <ele>2017.8000488281</ele>
        <time>2023-09-30T08:21:59.000Z</time>
      </trkpt>
      <trkpt lat="46.01001" lon="6.80374">
        <ele>2017.8000488281</ele>
        <time>2023-09-30T08:22:00.000Z</time>
      </trkpt>
      <trkpt lat="46.01" lon="6.80374">
        <ele>2017.5999755859</ele>
        <time>2023-09-30T08:22:04.000Z</time>
      </trkpt>
      <trkpt lat="46.00997" lon="6.80377">
        <ele>2017.5999755859</ele>
        <time>2023-09-30T08:22:26.000Z</time>
      </trkpt>
      <trkpt lat="46.00993" lon="6.80379">
        <ele>2017.5999755859</ele>
        <time>2023-09-30T08:22:28.000Z</time>
      </trkpt>
      <trkpt lat="46.00982" lon="6.80382">
        <ele>2017.4000244141</ele>
        <time>2023-09-30T08:22:32.000Z</time>
      </trkpt>
      <trkpt lat="46.00965" lon="6.80378">
        <ele>2016.5999755859</ele>
        <time>2023-09-30T08:22:37.000Z</time>
      </trkpt>
      <trkpt lat="46.00962" lon="6.80374">
        <ele>2016.5999755859</ele>
        <time>2023-09-30T08:22:38.000Z</time>
      </trkpt>
      <trkpt lat="46.00959" lon="6.8037">
        <ele>2016.4000244141</ele>
        <time>2023-09-30T08:22:39.000Z</time>
      </trkpt>
      <trkpt lat="46.00958" lon="6.80369">
        <ele>2016.1999511719</ele>
        <time>2023-09-30T08:22:40.000Z</time>
      </trkpt>
      <trkpt lat="46.00957" lon="6.80368">
        <ele>2016.1999511719</ele>
        <time>2023-09-30T08:22:41.000Z</time>
      </trkpt>
      <trkpt lat="46.00956" lon="6.80369">
        <ele>2015.5999755859</ele>
        <time>2023-09-30T08:22:42.000Z</time>
      </trkpt>
      <trkpt lat="46.00955" lon="6.80369">
        <ele>2015</ele>
        <time>2023-09-30T08:22:43.000Z</time>
      </trkpt>
      <trkpt lat="46.00954" lon="6.8037">
        <ele>2014.8000488281</ele>
        <time>2023-09-30T08:22:44.000Z</time>
      </trkpt>
      <trkpt lat="46.00953" lon="6.80375">
        <ele>2014.4000244141</ele>
        <time>2023-09-30T08:22:47.000Z</time>
      </trkpt>
      <trkpt lat="46.00953" lon="6.80377">
        <ele>2014.4000244141</ele>
        <time>2023-09-30T08:22:48.000Z</time>
      </trkpt>
      <trkpt lat="46.00953" lon="6.80379">
        <ele>2014.4000244141</ele>
        <time>2023-09-30T08:22:49.000Z</time>
      </trkpt>
      <trkpt lat="46.00951" lon="6.80386">
        <ele>2014.4000244141</ele>
        <time>2023-09-30T08:22:52.000Z</time>
      </trkpt>
      <trkpt lat="46.0095" lon="6.80387">
        <ele>2014.4000244141</ele>
        <time>2023-09-30T08:22:53.000Z</time>
      </trkpt>
      <trkpt lat="46.00946" lon="6.8039">
        <ele>2014.4000244141</ele>
        <time>2023-09-30T08:22:55.000Z</time>
      </trkpt>
      <trkpt lat="46.00944" lon="6.80391">
        <ele>2014.5999755859</ele>
        <time>2023-09-30T08:22:56.000Z</time>
      </trkpt>
      <trkpt lat="46.00941" lon="6.80392">
        <ele>2014.5999755859</ele>
        <time>2023-09-30T08:22:57.000Z</time>
      </trkpt>
      <trkpt lat="46.00937" lon="6.80395">
        <ele>2014.5999755859</ele>
        <time>2023-09-30T08:22:59.000Z</time>
      </trkpt>
      <trkpt lat="46.00921" lon="6.80402">
        <ele>2014.4000244141</ele>
        <time>2023-09-30T08:23:04.000Z</time>
      </trkpt>
      <trkpt lat="46.00918" lon="6.80403">
        <ele>2014.4000244141</ele>
        <time>2023-09-30T08:23:05.000Z</time>
      </trkpt>
      <trkpt lat="46.00914" lon="6.80406">
        <ele>2014.4000244141</ele>
        <time>2023-09-30T08:23:06.000Z</time>
      </trkpt>
      <trkpt lat="46.00912" lon="6.80409">
        <ele>2014</ele>
        <time>2023-09-30T08:23:07.000Z</time>
      </trkpt>
      <trkpt lat="46.0091" lon="6.80413">
        <ele>2013.8000488281</ele>
        <time>2023-09-30T08:23:08.000Z</time>
      </trkpt>
      <trkpt lat="46.00907" lon="6.80417">
        <ele>2013.5999755859</ele>
        <time>2023-09-30T08:23:09.000Z</time>
      </trkpt>
      <trkpt lat="46.00905" lon="6.80421">
        <ele>2013.4000244141</ele>
        <time>2023-09-30T08:23:10.000Z</time>
      </trkpt>
      <trkpt lat="46.00899" lon="6.80423">
        <ele>2013</ele>
        <time>2023-09-30T08:23:12.000Z</time>
      </trkpt>
      <trkpt lat="46.00897" lon="6.80423">
        <ele>2013</ele>
        <time>2023-09-30T08:23:13.000Z</time>
      </trkpt>
      <trkpt lat="46.00896" lon="6.80423">
        <ele>2012.8000488281</ele>
        <time>2023-09-30T08:23:14.000Z</time>
      </trkpt>
      <trkpt lat="46.00894" lon="6.80423">
        <ele>2012.8000488281</ele>
        <time>2023-09-30T08:23:15.000Z</time>
      </trkpt>
      <trkpt lat="46.00893" lon="6.80423">
        <ele>2012.4000244141</ele>
        <time>2023-09-30T08:23:16.000Z</time>
      </trkpt>
      <trkpt lat="46.00891" lon="6.80423">
        <ele>2012.4000244141</ele>
        <time>2023-09-30T08:23:17.000Z</time>
      </trkpt>
      <trkpt lat="46.00889" lon="6.80423">
        <ele>2012.5999755859</ele>
        <time>2023-09-30T08:23:18.000Z</time>
      </trkpt>
      <trkpt lat="46.00888" lon="6.80424">
        <ele>2012.4000244141</ele>
        <time>2023-09-30T08:23:19.000Z</time>
      </trkpt>
      <trkpt lat="46.00887" lon="6.80425">
        <ele>2012.5999755859</ele>
        <time>2023-09-30T08:23:20.000Z</time>
      </trkpt>
      <trkpt lat="46.00886" lon="6.80426">
        <ele>2012.5999755859</ele>
        <time>2023-09-30T08:23:21.000Z</time>
      </trkpt>
      <trkpt lat="46.00885" lon="6.80427">
        <ele>2012.5999755859</ele>
        <time>2023-09-30T08:23:22.000Z</time>
      </trkpt>
      <trkpt lat="46.00883" lon="6.80426">
        <ele>2013</ele>
        <time>2023-09-30T08:23:23.000Z</time>
      </trkpt>
      <trkpt lat="46.00882" lon="6.80426">
        <ele>2013.1999511719</ele>
        <time>2023-09-30T08:23:24.000Z</time>
      </trkpt>
      <trkpt lat="46.0088" lon="6.80425">
        <ele>2013.4000244141</ele>
        <time>2023-09-30T08:23:25.000Z</time>
      </trkpt>
      <trkpt lat="46.00879" lon="6.80425">
        <ele>2013.5999755859</ele>
        <time>2023-09-30T08:23:26.000Z</time>
      </trkpt>
      <trkpt lat="46.00877" lon="6.80425">
        <ele>2014</ele>
        <time>2023-09-30T08:23:28.000Z</time>
      </trkpt>
      <trkpt lat="46.00876" lon="6.80425">
        <ele>2014</ele>
        <time>2023-09-30T08:23:29.000Z</time>
      </trkpt>
      <trkpt lat="46.00876" lon="6.80425">
        <ele>2014.1999511719</ele>
        <time>2023-09-30T08:23:30.000Z</time>
      </trkpt>
      <trkpt lat="46.00875" lon="6.80425">
        <ele>2014.4000244141</ele>
        <time>2023-09-30T08:23:32.000Z</time>
      </trkpt>
      <trkpt lat="46.00874" lon="6.80425">
        <ele>2014.4000244141</ele>
        <time>2023-09-30T08:23:33.000Z</time>
      </trkpt>
      <trkpt lat="46.00873" lon="6.80425">
        <ele>2014.4000244141</ele>
        <time>2023-09-30T08:23:34.000Z</time>
      </trkpt>
      <trkpt lat="46.00873" lon="6.80425">
        <ele>2014.5999755859</ele>
        <time>2023-09-30T08:23:35.000Z</time>
      </trkpt>
      <trkpt lat="46.00871" lon="6.80426">
        <ele>2014.5999755859</ele>
        <time>2023-09-30T08:23:36.000Z</time>
      </trkpt>
      <trkpt lat="46.00869" lon="6.80426">
        <ele>2014.5999755859</ele>
        <time>2023-09-30T08:23:38.000Z</time>
      </trkpt>
      <trkpt lat="46.00868" lon="6.80427">
        <ele>2014.8000488281</ele>
        <time>2023-09-30T08:23:39.000Z</time>
      </trkpt>
      <trkpt lat="46.00862" lon="6.80429">
        <ele>2016</ele>
        <time>2023-09-30T08:23:44.000Z</time>
      </trkpt>
      <trkpt lat="46.00861" lon="6.80429">
        <ele>2016.1999511719</ele>
        <time>2023-09-30T08:23:45.000Z</time>
      </trkpt>
      <trkpt lat="46.0086" lon="6.80429">
        <ele>2016.1999511719</ele>
        <time>2023-09-30T08:23:46.000Z</time>
      </trkpt>
      <trkpt lat="46.00859" lon="6.80429">
        <ele>2016.4000244141</ele>
        <time>2023-09-30T08:23:47.000Z</time>
      </trkpt>
      <trkpt lat="46.00858" lon="6.80429">
        <ele>2016.4000244141</ele>
        <time>2023-09-30T08:23:48.000Z</time>
      </trkpt>
      <trkpt lat="46.00858" lon="6.80428">
        <ele>2016.5999755859</ele>
        <time>2023-09-30T08:23:49.000Z</time>
      </trkpt>
      <trkpt lat="46.00858" lon="6.80429">
        <ele>2016.5999755859</ele>
        <time>2023-09-30T08:23:50.000Z</time>
      </trkpt>
      <trkpt lat="46.00859" lon="6.80429">
        <ele>2016.8000488281</ele>
        <time>2023-09-30T08:23:51.000Z</time>
      </trkpt>
      <trkpt lat="46.00859" lon="6.80429">
        <ele>2016.8000488281</ele>
        <time>2023-09-30T08:23:52.000Z</time>
      </trkpt>
      <trkpt lat="46.00858" lon="6.8043">
        <ele>2017</ele>
        <time>2023-09-30T08:23:57.000Z</time>
      </trkpt>
      <trkpt lat="46.00858" lon="6.80431">
        <ele>2017</ele>
        <time>2023-09-30T08:23:58.000Z</time>
      </trkpt>
      <trkpt lat="46.00857" lon="6.80432">
        <ele>2017</ele>
        <time>2023-09-30T08:23:59.000Z</time>
      </trkpt>
      <trkpt lat="46.00856" lon="6.80433">
        <ele>2017.1999511719</ele>
        <time>2023-09-30T08:24:00.000Z</time>
      </trkpt>
      <trkpt lat="46.00856" lon="6.80433">
        <ele>2017.1999511719</ele>
        <time>2023-09-30T08:24:01.000Z</time>
      </trkpt>
      <trkpt lat="46.00856" lon="6.80433">
        <ele>2017.5999755859</ele>
        <time>2023-09-30T08:24:05.000Z</time>
      </trkpt>
      <trkpt lat="46.00856" lon="6.80433">
        <ele>2018</ele>
        <time>2023-09-30T08:24:08.000Z</time>
      </trkpt>
      <trkpt lat="46.00851" lon="6.80437">
        <ele>2018</ele>
        <time>2023-09-30T08:24:11.000Z</time>
      </trkpt>
      <trkpt lat="46.00848" lon="6.80438">
        <ele>2018</ele>
        <time>2023-09-30T08:24:13.000Z</time>
      </trkpt>
      <trkpt lat="46.00845" lon="6.80439">
        <ele>2018.1999511719</ele>
        <time>2023-09-30T08:24:15.000Z</time>
      </trkpt>
      <trkpt lat="46.00845" lon="6.8044">
        <ele>2018.1999511719</ele>
        <time>2023-09-30T08:24:16.000Z</time>
      </trkpt>
      <trkpt lat="46.0084" lon="6.80442">
        <ele>2018.1999511719</ele>
        <time>2023-09-30T08:24:19.000Z</time>
      </trkpt>
      <trkpt lat="46.00838" lon="6.80444">
        <ele>2018.4000244141</ele>
        <time>2023-09-30T08:24:21.000Z</time>
      </trkpt>
      <trkpt lat="46.00837" lon="6.80445">
        <ele>2018.8000488281</ele>
        <time>2023-09-30T08:24:22.000Z</time>
      </trkpt>
      <trkpt lat="46.00837" lon="6.80446">
        <ele>2018.8000488281</ele>
        <time>2023-09-30T08:24:23.000Z</time>
      </trkpt>
      <trkpt lat="46.00836" lon="6.80448">
        <ele>2019</ele>
        <time>2023-09-30T08:24:24.000Z</time>
      </trkpt>
      <trkpt lat="46.00834" lon="6.80452">
        <ele>2019.4000244141</ele>
        <time>2023-09-30T08:24:26.000Z</time>
      </trkpt>
      <trkpt lat="46.0083" lon="6.80459">
        <ele>2020</ele>
        <time>2023-09-30T08:24:30.000Z</time>
      </trkpt>
      <trkpt lat="46.00828" lon="6.80462">
        <ele>2020.4000244141</ele>
        <time>2023-09-30T08:24:32.000Z</time>
      </trkpt>
      <trkpt lat="46.00826" lon="6.80464">
        <ele>2020.8000488281</ele>
        <time>2023-09-30T08:24:33.000Z</time>
      </trkpt>
      <trkpt lat="46.00825" lon="6.80466">
        <ele>2020.8000488281</ele>
        <time>2023-09-30T08:24:34.000Z</time>
      </trkpt>
      <trkpt lat="46.00824" lon="6.80467">
        <ele>2021</ele>
        <time>2023-09-30T08:24:35.000Z</time>
      </trkpt>
      <trkpt lat="46.00823" lon="6.80468">
        <ele>2021</ele>
        <time>2023-09-30T08:24:36.000Z</time>
      </trkpt>
      <trkpt lat="46.00821" lon="6.80469">
        <ele>2021</ele>
        <time>2023-09-30T08:24:37.000Z</time>
      </trkpt>
      <trkpt lat="46.0082" lon="6.80471">
        <ele>2021</ele>
        <time>2023-09-30T08:24:38.000Z</time>
      </trkpt>
      <trkpt lat="46.00819" lon="6.80472">
        <ele>2021</ele>
        <time>2023-09-30T08:24:39.000Z</time>
      </trkpt>
      <trkpt lat="46.00818" lon="6.80473">
        <ele>2021.1999511719</ele>
        <time>2023-09-30T08:24:40.000Z</time>
      </trkpt>
      <trkpt lat="46.00817" lon="6.80475">
        <ele>2021.1999511719</ele>
        <time>2023-09-30T08:24:41.000Z</time>
      </trkpt>
      <trkpt lat="46.00816" lon="6.80477">
        <ele>2021.1999511719</ele>
        <time>2023-09-30T08:24:42.000Z</time>
      </trkpt>
      <trkpt lat="46.00815" lon="6.80479">
        <ele>2021.4000244141</ele>
        <time>2023-09-30T08:24:43.000Z</time>
      </trkpt>
      <trkpt lat="46.00814" lon="6.8048">
        <ele>2021.5999755859</ele>
        <time>2023-09-30T08:24:44.000Z</time>
      </trkpt>
      <trkpt lat="46.00813" lon="6.80481">
        <ele>2021.5999755859</ele>
        <time>2023-09-30T08:24:45.000Z</time>
      </trkpt>
      <trkpt lat="46.00811" lon="6.80482">
        <ele>2021.8000488281</ele>
        <time>2023-09-30T08:24:46.000Z</time>
      </trkpt>
      <trkpt lat="46.0081" lon="6.80482">
        <ele>2021.8000488281</ele>
        <time>2023-09-30T08:24:47.000Z</time>
      </trkpt>
      <trkpt lat="46.00809" lon="6.80483">
        <ele>2022</ele>
        <time>2023-09-30T08:24:48.000Z</time>
      </trkpt>
      <trkpt lat="46.00808" lon="6.80485">
        <ele>2022.1999511719</ele>
        <time>2023-09-30T08:24:49.000Z</time>
      </trkpt>
      <trkpt lat="46.00807" lon="6.80486">
        <ele>2022.4000244141</ele>
        <time>2023-09-30T08:24:50.000Z</time>
      </trkpt>
      <trkpt lat="46.00806" lon="6.80487">
        <ele>2022.4000244141</ele>
        <time>2023-09-30T08:24:51.000Z</time>
      </trkpt>
      <trkpt lat="46.00805" lon="6.80489">
        <ele>2022.5999755859</ele>
        <time>2023-09-30T08:24:52.000Z</time>
      </trkpt>
      <trkpt lat="46.00803" lon="6.8049">
        <ele>2022.8000488281</ele>
        <time>2023-09-30T08:24:53.000Z</time>
      </trkpt>
      <trkpt lat="46.00802" lon="6.80492">
        <ele>2023</ele>
        <time>2023-09-30T08:24:54.000Z</time>
      </trkpt>
      <trkpt lat="46.00801" lon="6.80493">
        <ele>2023.1999511719</ele>
        <time>2023-09-30T08:24:55.000Z</time>
      </trkpt>
      <trkpt lat="46.008" lon="6.80495">
        <ele>2023.1999511719</ele>
        <time>2023-09-30T08:24:56.000Z</time>
      </trkpt>
      <trkpt lat="46.00799" lon="6.80496">
        <ele>2023.4000244141</ele>
        <time>2023-09-30T08:24:57.000Z</time>
      </trkpt>
      <trkpt lat="46.00798" lon="6.80497">
        <ele>2023.4000244141</ele>
        <time>2023-09-30T08:24:58.000Z</time>
      </trkpt>
      <trkpt lat="46.00797" lon="6.80499">
        <ele>2023.4000244141</ele>
        <time>2023-09-30T08:24:59.000Z</time>
      </trkpt>
      <trkpt lat="46.00795" lon="6.805">
        <ele>2023.5999755859</ele>
        <time>2023-09-30T08:25:00.000Z</time>
      </trkpt>
      <trkpt lat="46.00793" lon="6.80501">
        <ele>2023.5999755859</ele>
        <time>2023-09-30T08:25:01.000Z</time>
      </trkpt>
      <trkpt lat="46.00792" lon="6.80503">
        <ele>2023.8000488281</ele>
        <time>2023-09-30T08:25:02.000Z</time>
      </trkpt>
      <trkpt lat="46.00791" lon="6.80505">
        <ele>2024</ele>
        <time>2023-09-30T08:25:03.000Z</time>
      </trkpt>
      <trkpt lat="46.00791" lon="6.80506">
        <ele>2024</ele>
        <time>2023-09-30T08:25:04.000Z</time>
      </trkpt>
      <trkpt lat="46.0079" lon="6.80507">
        <ele>2024</ele>
        <time>2023-09-30T08:25:05.000Z</time>
      </trkpt>
      <trkpt lat="46.0079" lon="6.80509">
        <ele>2024.1999511719</ele>
        <time>2023-09-30T08:25:06.000Z</time>
      </trkpt>
      <trkpt lat="46.00789" lon="6.8051">
        <ele>2024.1999511719</ele>
        <time>2023-09-30T08:25:07.000Z</time>
      </trkpt>
      <trkpt lat="46.00789" lon="6.80512">
        <ele>2024.4000244141</ele>
        <time>2023-09-30T08:25:08.000Z</time>
      </trkpt>
      <trkpt lat="46.00789" lon="6.80514">
        <ele>2024.5999755859</ele>
        <time>2023-09-30T08:25:09.000Z</time>
      </trkpt>
      <trkpt lat="46.00789" lon="6.80516">
        <ele>2024.8000488281</ele>
        <time>2023-09-30T08:25:10.000Z</time>
      </trkpt>
      <trkpt lat="46.0079" lon="6.80518">
        <ele>2025</ele>
        <time>2023-09-30T08:25:11.000Z</time>
      </trkpt>
      <trkpt lat="46.0079" lon="6.8052">
        <ele>2025.1999511719</ele>
        <time>2023-09-30T08:25:12.000Z</time>
      </trkpt>
      <trkpt lat="46.0079" lon="6.80521">
        <ele>2025.1999511719</ele>
        <time>2023-09-30T08:25:13.000Z</time>
      </trkpt>
      <trkpt lat="46.0079" lon="6.80523">
        <ele>2025.4000244141</ele>
        <time>2023-09-30T08:25:14.000Z</time>
      </trkpt>
      <trkpt lat="46.00791" lon="6.80525">
        <ele>2025.4000244141</ele>
        <time>2023-09-30T08:25:15.000Z</time>
      </trkpt>
      <trkpt lat="46.00791" lon="6.80528">
        <ele>2025.5999755859</ele>
        <time>2023-09-30T08:25:16.000Z</time>
      </trkpt>
      <trkpt lat="46.00792" lon="6.80529">
        <ele>2025.8000488281</ele>
        <time>2023-09-30T08:25:17.000Z</time>
      </trkpt>
      <trkpt lat="46.00792" lon="6.8053">
        <ele>2026</ele>
        <time>2023-09-30T08:25:18.000Z</time>
      </trkpt>
      <trkpt lat="46.00793" lon="6.80531">
        <ele>2026.1999511719</ele>
        <time>2023-09-30T08:25:19.000Z</time>
      </trkpt>
      <trkpt lat="46.00793" lon="6.80532">
        <ele>2026.4000244141</ele>
        <time>2023-09-30T08:25:20.000Z</time>
      </trkpt>
      <trkpt lat="46.00794" lon="6.80534">
        <ele>2027</ele>
        <time>2023-09-30T08:25:23.000Z</time>
      </trkpt>
      <trkpt lat="46.00794" lon="6.80535">
        <ele>2027</ele>
        <time>2023-09-30T08:25:24.000Z</time>
      </trkpt>
      <trkpt lat="46.00794" lon="6.80536">
        <ele>2027.1999511719</ele>
        <time>2023-09-30T08:25:25.000Z</time>
      </trkpt>
      <trkpt lat="46.00794" lon="6.80537">
        <ele>2027.5999755859</ele>
        <time>2023-09-30T08:25:26.000Z</time>
      </trkpt>
      <trkpt lat="46.00794" lon="6.80539">
        <ele>2027.8000488281</ele>
        <time>2023-09-30T08:25:27.000Z</time>
      </trkpt>
      <trkpt lat="46.00794" lon="6.80541">
        <ele>2027.8000488281</ele>
        <time>2023-09-30T08:25:28.000Z</time>
      </trkpt>
      <trkpt lat="46.00794" lon="6.80542">
        <ele>2027.8000488281</ele>
        <time>2023-09-30T08:25:29.000Z</time>
      </trkpt>
      <trkpt lat="46.00794" lon="6.80542">
        <ele>2028</ele>
        <time>2023-09-30T08:25:30.000Z</time>
      </trkpt>
      <trkpt lat="46.00795" lon="6.80543">
        <ele>2028</ele>
        <time>2023-09-30T08:25:31.000Z</time>
      </trkpt>
      <trkpt lat="46.00794" lon="6.80544">
        <ele>2028.1999511719</ele>
        <time>2023-09-30T08:25:32.000Z</time>
      </trkpt>
      <trkpt lat="46.00794" lon="6.80545">
        <ele>2028.5999755859</ele>
        <time>2023-09-30T08:25:34.000Z</time>
      </trkpt>
      <trkpt lat="46.00794" lon="6.80546">
        <ele>2028.5999755859</ele>
        <time>2023-09-30T08:25:35.000Z</time>
      </trkpt>
      <trkpt lat="46.00794" lon="6.80546">
        <ele>2029</ele>
        <time>2023-09-30T08:25:36.000Z</time>
      </trkpt>
      <trkpt lat="46.00794" lon="6.80548">
        <ele>2029.1999511719</ele>
        <time>2023-09-30T08:25:37.000Z</time>
      </trkpt>
      <trkpt lat="46.00793" lon="6.80549">
        <ele>2029.1999511719</ele>
        <time>2023-09-30T08:25:38.000Z</time>
      </trkpt>
      <trkpt lat="46.00793" lon="6.80551">
        <ele>2029.1999511719</ele>
        <time>2023-09-30T08:25:39.000Z</time>
      </trkpt>
      <trkpt lat="46.00792" lon="6.80552">
        <ele>2029.1999511719</ele>
        <time>2023-09-30T08:25:40.000Z</time>
      </trkpt>
      <trkpt lat="46.00792" lon="6.80553">
        <ele>2029.4000244141</ele>
        <time>2023-09-30T08:25:41.000Z</time>
      </trkpt>
      <trkpt lat="46.00791" lon="6.80553">
        <ele>2029.4000244141</ele>
        <time>2023-09-30T08:25:42.000Z</time>
      </trkpt>
      <trkpt lat="46.00791" lon="6.80553">
        <ele>2029.4000244141</ele>
        <time>2023-09-30T08:25:43.000Z</time>
      </trkpt>
      <trkpt lat="46.00791" lon="6.80554">
        <ele>2029.4000244141</ele>
        <time>2023-09-30T08:25:44.000Z</time>
      </trkpt>
      <trkpt lat="46.0079" lon="6.80555">
        <ele>2029.4000244141</ele>
        <time>2023-09-30T08:25:45.000Z</time>
      </trkpt>
      <trkpt lat="46.00789" lon="6.80556">
        <ele>2029.5999755859</ele>
        <time>2023-09-30T08:25:46.000Z</time>
      </trkpt>
      <trkpt lat="46.00789" lon="6.80557">
        <ele>2029.5999755859</ele>
        <time>2023-09-30T08:25:47.000Z</time>
      </trkpt>
      <trkpt lat="46.00789" lon="6.80557">
        <ele>2029.8000488281</ele>
        <time>2023-09-30T08:25:48.000Z</time>
      </trkpt>
      <trkpt lat="46.00788" lon="6.80557">
        <ele>2030.4000244141</ele>
        <time>2023-09-30T08:25:54.000Z</time>
      </trkpt>
      <trkpt lat="46.00788" lon="6.80557">
        <ele>2030.4000244141</ele>
        <time>2023-09-30T08:25:55.000Z</time>
      </trkpt>
      <trkpt lat="46.00788" lon="6.80557">
        <ele>2030.5999755859</ele>
        <time>2023-09-30T08:25:56.000Z</time>
      </trkpt>
      <trkpt lat="46.00787" lon="6.80558">
        <ele>2030.5999755859</ele>
        <time>2023-09-30T08:25:57.000Z</time>
      </trkpt>
      <trkpt lat="46.00786" lon="6.80558">
        <ele>2030.5999755859</ele>
        <time>2023-09-30T08:25:58.000Z</time>
      </trkpt>
      <trkpt lat="46.00785" lon="6.8056">
        <ele>2030.5999755859</ele>
        <time>2023-09-30T08:25:59.000Z</time>
      </trkpt>
      <trkpt lat="46.00785" lon="6.80561">
        <ele>2030.8000488281</ele>
        <time>2023-09-30T08:26:00.000Z</time>
      </trkpt>
      <trkpt lat="46.00782" lon="6.80564">
        <ele>2031.1999511719</ele>
        <time>2023-09-30T08:26:03.000Z</time>
      </trkpt>
      <trkpt lat="46.00782" lon="6.80565">
        <ele>2031.1999511719</ele>
        <time>2023-09-30T08:26:04.000Z</time>
      </trkpt>
      <trkpt lat="46.00781" lon="6.80566">
        <ele>2031.4000244141</ele>
        <time>2023-09-30T08:26:05.000Z</time>
      </trkpt>
      <trkpt lat="46.00782" lon="6.80566">
        <ele>2031.4000244141</ele>
        <time>2023-09-30T08:26:06.000Z</time>
      </trkpt>
      <trkpt lat="46.00781" lon="6.80568">
        <ele>2031.5999755859</ele>
        <time>2023-09-30T08:26:10.000Z</time>
      </trkpt>
      <trkpt lat="46.0078" lon="6.80568">
        <ele>2031.8000488281</ele>
        <time>2023-09-30T08:26:11.000Z</time>
      </trkpt>
      <trkpt lat="46.00779" lon="6.80569">
        <ele>2032</ele>
        <time>2023-09-30T08:26:12.000Z</time>
      </trkpt>
      <trkpt lat="46.00779" lon="6.8057">
        <ele>2032.8000488281</ele>
        <time>2023-09-30T08:26:16.000Z</time>
      </trkpt>
      <trkpt lat="46.00779" lon="6.8057">
        <ele>2032.8000488281</ele>
        <time>2023-09-30T08:26:17.000Z</time>
      </trkpt>
      <trkpt lat="46.00778" lon="6.8057">
        <ele>2033.1999511719</ele>
        <time>2023-09-30T08:26:23.000Z</time>
      </trkpt>
      <trkpt lat="46.00778" lon="6.8057">
        <ele>2033.1999511719</ele>
        <time>2023-09-30T08:26:24.000Z</time>
      </trkpt>
      <trkpt lat="46.00777" lon="6.80571">
        <ele>2033.4000244141</ele>
        <time>2023-09-30T08:26:25.000Z</time>
      </trkpt>
      <trkpt lat="46.00776" lon="6.80572">
        <ele>2033.4000244141</ele>
        <time>2023-09-30T08:26:26.000Z</time>
      </trkpt>
      <trkpt lat="46.00775" lon="6.80573">
        <ele>2033.4000244141</ele>
        <time>2023-09-30T08:26:27.000Z</time>
      </trkpt>
      <trkpt lat="46.00774" lon="6.80574">
        <ele>2033.4000244141</ele>
        <time>2023-09-30T08:26:28.000Z</time>
      </trkpt>
      <trkpt lat="46.00773" lon="6.80576">
        <ele>2033.4000244141</ele>
        <time>2023-09-30T08:26:29.000Z</time>
      </trkpt>
      <trkpt lat="46.00769" lon="6.8058">
        <ele>2033.8000488281</ele>
        <time>2023-09-30T08:26:33.000Z</time>
      </trkpt>
      <trkpt lat="46.00767" lon="6.80583">
        <ele>2034</ele>
        <time>2023-09-30T08:26:35.000Z</time>
      </trkpt>
      <trkpt lat="46.00762" lon="6.80592">
        <ele>2035</ele>
        <time>2023-09-30T08:26:40.000Z</time>
      </trkpt>
      <trkpt lat="46.00761" lon="6.80595">
        <ele>2035.4000244141</ele>
        <time>2023-09-30T08:26:42.000Z</time>
      </trkpt>
      <trkpt lat="46.00759" lon="6.80598">
        <ele>2035.5999755859</ele>
        <time>2023-09-30T08:26:44.000Z</time>
      </trkpt>
      <trkpt lat="46.00758" lon="6.80599">
        <ele>2035.8000488281</ele>
        <time>2023-09-30T08:26:45.000Z</time>
      </trkpt>
      <trkpt lat="46.00757" lon="6.80599">
        <ele>2036</ele>
        <time>2023-09-30T08:26:46.000Z</time>
      </trkpt>
      <trkpt lat="46.00757" lon="6.80601">
        <ele>2036.1999511719</ele>
        <time>2023-09-30T08:26:47.000Z</time>
      </trkpt>
      <trkpt lat="46.00756" lon="6.80603">
        <ele>2036.4000244141</ele>
        <time>2023-09-30T08:26:48.000Z</time>
      </trkpt>
      <trkpt lat="46.00756" lon="6.80604">
        <ele>2036.8000488281</ele>
        <time>2023-09-30T08:26:49.000Z</time>
      </trkpt>
      <trkpt lat="46.00756" lon="6.80606">
        <ele>2037</ele>
        <time>2023-09-30T08:26:50.000Z</time>
      </trkpt>
      <trkpt lat="46.00755" lon="6.80608">
        <ele>2037.1999511719</ele>
        <time>2023-09-30T08:26:51.000Z</time>
      </trkpt>
      <trkpt lat="46.00755" lon="6.8061">
        <ele>2037.1999511719</ele>
        <time>2023-09-30T08:26:52.000Z</time>
      </trkpt>
      <trkpt lat="46.00754" lon="6.80612">
        <ele>2037.4000244141</ele>
        <time>2023-09-30T08:26:53.000Z</time>
      </trkpt>
      <trkpt lat="46.00754" lon="6.80613">
        <ele>2037.5999755859</ele>
        <time>2023-09-30T08:26:54.000Z</time>
      </trkpt>
      <trkpt lat="46.00754" lon="6.80614">
        <ele>2037.5999755859</ele>
        <time>2023-09-30T08:26:55.000Z</time>
      </trkpt>
      <trkpt lat="46.00754" lon="6.80614">
        <ele>2037.8000488281</ele>
        <time>2023-09-30T08:26:56.000Z</time>
      </trkpt>
      <trkpt lat="46.00754" lon="6.80615">
        <ele>2038</ele>
        <time>2023-09-30T08:26:57.000Z</time>
      </trkpt>
      <trkpt lat="46.00753" lon="6.80615">
        <ele>2038.4000244141</ele>
        <time>2023-09-30T08:26:58.000Z</time>
      </trkpt>
      <trkpt lat="46.00753" lon="6.80615">
        <ele>2038.4000244141</ele>
        <time>2023-09-30T08:26:59.000Z</time>
      </trkpt>
      <trkpt lat="46.00753" lon="6.80616">
        <ele>2038.4000244141</ele>
        <time>2023-09-30T08:27:00.000Z</time>
      </trkpt>
      <trkpt lat="46.00753" lon="6.80616">
        <ele>2038.4000244141</ele>
        <time>2023-09-30T08:27:01.000Z</time>
      </trkpt>
      <trkpt lat="46.00753" lon="6.80617">
        <ele>2038.5999755859</ele>
        <time>2023-09-30T08:27:02.000Z</time>
      </trkpt>
      <trkpt lat="46.00752" lon="6.80618">
        <ele>2038.4000244141</ele>
        <time>2023-09-30T08:27:03.000Z</time>
      </trkpt>
      <trkpt lat="46.00752" lon="6.80619">
        <ele>2038.5999755859</ele>
        <time>2023-09-30T08:27:04.000Z</time>
      </trkpt>
      <trkpt lat="46.00751" lon="6.8062">
        <ele>2038.5999755859</ele>
        <time>2023-09-30T08:27:05.000Z</time>
      </trkpt>
      <trkpt lat="46.00751" lon="6.80621">
        <ele>2038.5999755859</ele>
        <time>2023-09-30T08:27:06.000Z</time>
      </trkpt>
      <trkpt lat="46.0075" lon="6.80622">
        <ele>2039</ele>
        <time>2023-09-30T08:27:07.000Z</time>
      </trkpt>
      <trkpt lat="46.0075" lon="6.80623">
        <ele>2039.4000244141</ele>
        <time>2023-09-30T08:27:08.000Z</time>
      </trkpt>
      <trkpt lat="46.0075" lon="6.80624">
        <ele>2039.4000244141</ele>
        <time>2023-09-30T08:27:09.000Z</time>
      </trkpt>
      <trkpt lat="46.00749" lon="6.80626">
        <ele>2039.5999755859</ele>
        <time>2023-09-30T08:27:10.000Z</time>
      </trkpt>
      <trkpt lat="46.00748" lon="6.80627">
        <ele>2039.5999755859</ele>
        <time>2023-09-30T08:27:11.000Z</time>
      </trkpt>
      <trkpt lat="46.00748" lon="6.80629">
        <ele>2039.8000488281</ele>
        <time>2023-09-30T08:27:12.000Z</time>
      </trkpt>
      <trkpt lat="46.00747" lon="6.8063">
        <ele>2039.8000488281</ele>
        <time>2023-09-30T08:27:13.000Z</time>
      </trkpt>
      <trkpt lat="46.00747" lon="6.80631">
        <ele>2040</ele>
        <time>2023-09-30T08:27:14.000Z</time>
      </trkpt>
      <trkpt lat="46.00747" lon="6.80631">
        <ele>2040.4000244141</ele>
        <time>2023-09-30T08:27:17.000Z</time>
      </trkpt>
      <trkpt lat="46.00746" lon="6.80632">
        <ele>2040.5999755859</ele>
        <time>2023-09-30T08:27:18.000Z</time>
      </trkpt>
      <trkpt lat="46.00745" lon="6.80633">
        <ele>2040.8000488281</ele>
        <time>2023-09-30T08:27:19.000Z</time>
      </trkpt>
      <trkpt lat="46.00745" lon="6.80634">
        <ele>2041</ele>
        <time>2023-09-30T08:27:20.000Z</time>
      </trkpt>
      <trkpt lat="46.00744" lon="6.80634">
        <ele>2041</ele>
        <time>2023-09-30T08:27:21.000Z</time>
      </trkpt>
      <trkpt lat="46.00744" lon="6.80635">
        <ele>2041.1999511719</ele>
        <time>2023-09-30T08:27:22.000Z</time>
      </trkpt>
      <trkpt lat="46.00744" lon="6.80636">
        <ele>2041.1999511719</ele>
        <time>2023-09-30T08:27:23.000Z</time>
      </trkpt>
      <trkpt lat="46.00744" lon="6.80636">
        <ele>2041.4000244141</ele>
        <time>2023-09-30T08:27:24.000Z</time>
      </trkpt>
      <trkpt lat="46.00744" lon="6.80636">
        <ele>2041.4000244141</ele>
        <time>2023-09-30T08:27:25.000Z</time>
      </trkpt>
      <trkpt lat="46.00744" lon="6.80636">
        <ele>2041.4000244141</ele>
        <time>2023-09-30T08:27:26.000Z</time>
      </trkpt>
      <trkpt lat="46.00743" lon="6.80638">
        <ele>2041.4000244141</ele>
        <time>2023-09-30T08:27:29.000Z</time>
      </trkpt>
      <trkpt lat="46.00743" lon="6.80638">
        <ele>2041.4000244141</ele>
        <time>2023-09-30T08:27:30.000Z</time>
      </trkpt>
      <trkpt lat="46.00742" lon="6.80639">
        <ele>2041.4000244141</ele>
        <time>2023-09-30T08:27:31.000Z</time>
      </trkpt>
      <trkpt lat="46.00741" lon="6.80641">
        <ele>2041.4000244141</ele>
        <time>2023-09-30T08:27:32.000Z</time>
      </trkpt>
      <trkpt lat="46.0074" lon="6.80642">
        <ele>2041.5999755859</ele>
        <time>2023-09-30T08:27:33.000Z</time>
      </trkpt>
      <trkpt lat="46.00739" lon="6.80643">
        <ele>2041.5999755859</ele>
        <time>2023-09-30T08:27:34.000Z</time>
      </trkpt>
      <trkpt lat="46.00738" lon="6.80644">
        <ele>2041.8000488281</ele>
        <time>2023-09-30T08:27:35.000Z</time>
      </trkpt>
      <trkpt lat="46.00737" lon="6.80645">
        <ele>2041.8000488281</ele>
        <time>2023-09-30T08:27:36.000Z</time>
      </trkpt>
      <trkpt lat="46.00737" lon="6.80645">
        <ele>2042</ele>
        <time>2023-09-30T08:27:37.000Z</time>
      </trkpt>
      <trkpt lat="46.00737" lon="6.80645">
        <ele>2042.4000244141</ele>
        <time>2023-09-30T08:27:42.000Z</time>
      </trkpt>
      <trkpt lat="46.00736" lon="6.80646">
        <ele>2042.5999755859</ele>
        <time>2023-09-30T08:27:46.000Z</time>
      </trkpt>
      <trkpt lat="46.00735" lon="6.80646">
        <ele>2042.5999755859</ele>
        <time>2023-09-30T08:27:47.000Z</time>
      </trkpt>
      <trkpt lat="46.00734" lon="6.80647">
        <ele>2042.5999755859</ele>
        <time>2023-09-30T08:27:48.000Z</time>
      </trkpt>
      <trkpt lat="46.00731" lon="6.8065">
        <ele>2042.8000488281</ele>
        <time>2023-09-30T08:27:50.000Z</time>
      </trkpt>
      <trkpt lat="46.00729" lon="6.80653">
        <ele>2042.8000488281</ele>
        <time>2023-09-30T08:27:52.000Z</time>
      </trkpt>
      <trkpt lat="46.00723" lon="6.80659">
        <ele>2043</ele>
        <time>2023-09-30T08:27:57.000Z</time>
      </trkpt>
      <trkpt lat="46.00723" lon="6.80659">
        <ele>2043.1999511719</ele>
        <time>2023-09-30T08:27:58.000Z</time>
      </trkpt>
      <trkpt lat="46.00722" lon="6.80659">
        <ele>2043.4000244141</ele>
        <time>2023-09-30T08:27:59.000Z</time>
      </trkpt>
      <trkpt lat="46.00722" lon="6.8066">
        <ele>2043.4000244141</ele>
        <time>2023-09-30T08:28:00.000Z</time>
      </trkpt>
      <trkpt lat="46.00722" lon="6.8066">
        <ele>2043.5999755859</ele>
        <time>2023-09-30T08:28:01.000Z</time>
      </trkpt>
      <trkpt lat="46.00721" lon="6.80662">
        <ele>2043.8000488281</ele>
        <time>2023-09-30T08:28:03.000Z</time>
      </trkpt>
      <trkpt lat="46.00721" lon="6.80662">
        <ele>2044.1999511719</ele>
        <time>2023-09-30T08:28:06.000Z</time>
      </trkpt>
      <trkpt lat="46.00719" lon="6.80664">
        <ele>2044.4000244141</ele>
        <time>2023-09-30T08:28:11.000Z</time>
      </trkpt>
      <trkpt lat="46.00718" lon="6.80665">
        <ele>2044.4000244141</ele>
        <time>2023-09-30T08:28:12.000Z</time>
      </trkpt>
      <trkpt lat="46.00717" lon="6.80667">
        <ele>2044.4000244141</ele>
        <time>2023-09-30T08:28:13.000Z</time>
      </trkpt>
      <trkpt lat="46.00713" lon="6.8067">
        <ele>2044.8000488281</ele>
        <time>2023-09-30T08:28:16.000Z</time>
      </trkpt>
      <trkpt lat="46.00708" lon="6.80678">
        <ele>2045.5999755859</ele>
        <time>2023-09-30T08:28:22.000Z</time>
      </trkpt>
      <trkpt lat="46.00706" lon="6.80682">
        <ele>2045.8000488281</ele>
        <time>2023-09-30T08:28:24.000Z</time>
      </trkpt>
      <trkpt lat="46.007" lon="6.80691">
        <ele>2046.1999511719</ele>
        <time>2023-09-30T08:28:29.000Z</time>
      </trkpt>
      <trkpt lat="46.00698" lon="6.80692">
        <ele>2046.1999511719</ele>
        <time>2023-09-30T08:28:30.000Z</time>
      </trkpt>
      <trkpt lat="46.00694" lon="6.80694">
        <ele>2046.5999755859</ele>
        <time>2023-09-30T08:28:33.000Z</time>
      </trkpt>
      <trkpt lat="46.00693" lon="6.80696">
        <ele>2046.8000488281</ele>
        <time>2023-09-30T08:28:34.000Z</time>
      </trkpt>
      <trkpt lat="46.00692" lon="6.80697">
        <ele>2046.8000488281</ele>
        <time>2023-09-30T08:28:35.000Z</time>
      </trkpt>
      <trkpt lat="46.00691" lon="6.80698">
        <ele>2047</ele>
        <time>2023-09-30T08:28:36.000Z</time>
      </trkpt>
      <trkpt lat="46.0069" lon="6.807">
        <ele>2047.1999511719</ele>
        <time>2023-09-30T08:28:37.000Z</time>
      </trkpt>
      <trkpt lat="46.00687" lon="6.80702">
        <ele>2047.5999755859</ele>
        <time>2023-09-30T08:28:39.000Z</time>
      </trkpt>
      <trkpt lat="46.00686" lon="6.80703">
        <ele>2047.5999755859</ele>
        <time>2023-09-30T08:28:40.000Z</time>
      </trkpt>
      <trkpt lat="46.00685" lon="6.80705">
        <ele>2048</ele>
        <time>2023-09-30T08:28:41.000Z</time>
      </trkpt>
      <trkpt lat="46.00684" lon="6.80706">
        <ele>2048</ele>
        <time>2023-09-30T08:28:42.000Z</time>
      </trkpt>
      <trkpt lat="46.00683" lon="6.80707">
        <ele>2048.3999023438</ele>
        <time>2023-09-30T08:28:43.000Z</time>
      </trkpt>
      <trkpt lat="46.00681" lon="6.80707">
        <ele>2048.3999023438</ele>
        <time>2023-09-30T08:28:44.000Z</time>
      </trkpt>
      <trkpt lat="46.0068" lon="6.80707">
        <ele>2048.6000976562</ele>
        <time>2023-09-30T08:28:45.000Z</time>
      </trkpt>
      <trkpt lat="46.00679" lon="6.80708">
        <ele>2049</ele>
        <time>2023-09-30T08:28:48.000Z</time>
      </trkpt>
      <trkpt lat="46.00678" lon="6.80708">
        <ele>2049.1999511719</ele>
        <time>2023-09-30T08:28:49.000Z</time>
      </trkpt>
      <trkpt lat="46.00678" lon="6.80709">
        <ele>2049.3999023438</ele>
        <time>2023-09-30T08:28:50.000Z</time>
      </trkpt>
      <trkpt lat="46.00677" lon="6.80709">
        <ele>2049.6000976562</ele>
        <time>2023-09-30T08:28:51.000Z</time>
      </trkpt>
      <trkpt lat="46.00676" lon="6.80709">
        <ele>2049.6000976562</ele>
        <time>2023-09-30T08:28:52.000Z</time>
      </trkpt>
      <trkpt lat="46.00675" lon="6.8071">
        <ele>2049.8000488281</ele>
        <time>2023-09-30T08:28:53.000Z</time>
      </trkpt>
      <trkpt lat="46.00674" lon="6.8071">
        <ele>2050</ele>
        <time>2023-09-30T08:28:54.000Z</time>
      </trkpt>
      <trkpt lat="46.00674" lon="6.8071">
        <ele>2050.1999511719</ele>
        <time>2023-09-30T08:28:56.000Z</time>
      </trkpt>
      <trkpt lat="46.00674" lon="6.8071">
        <ele>2050.3999023438</ele>
        <time>2023-09-30T08:28:57.000Z</time>
      </trkpt>
      <trkpt lat="46.00674" lon="6.8071">
        <ele>2051.1999511719</ele>
        <time>2023-09-30T08:28:59.000Z</time>
      </trkpt>
      <trkpt lat="46.00674" lon="6.8071">
        <ele>2052.3999023438</ele>
        <time>2023-09-30T08:29:04.000Z</time>
      </trkpt>
      <trkpt lat="46.00672" lon="6.8071">
        <ele>2052.6000976562</ele>
        <time>2023-09-30T08:29:06.000Z</time>
      </trkpt>
      <trkpt lat="46.00671" lon="6.8071">
        <ele>2052.6000976562</ele>
        <time>2023-09-30T08:29:07.000Z</time>
      </trkpt>
      <trkpt lat="46.0067" lon="6.80711">
        <ele>2052.3999023438</ele>
        <time>2023-09-30T08:29:08.000Z</time>
      </trkpt>
      <trkpt lat="46.00669" lon="6.80711">
        <ele>2052.3999023438</ele>
        <time>2023-09-30T08:29:09.000Z</time>
      </trkpt>
      <trkpt lat="46.00668" lon="6.80712">
        <ele>2052.3999023438</ele>
        <time>2023-09-30T08:29:10.000Z</time>
      </trkpt>
      <trkpt lat="46.00667" lon="6.80713">
        <ele>2052.1999511719</ele>
        <time>2023-09-30T08:29:11.000Z</time>
      </trkpt>
      <trkpt lat="46.00666" lon="6.80714">
        <ele>2052.1999511719</ele>
        <time>2023-09-30T08:29:12.000Z</time>
      </trkpt>
      <trkpt lat="46.00665" lon="6.80715">
        <ele>2052.3999023438</ele>
        <time>2023-09-30T08:29:13.000Z</time>
      </trkpt>
      <trkpt lat="46.00664" lon="6.80716">
        <ele>2052.3999023438</ele>
        <time>2023-09-30T08:29:14.000Z</time>
      </trkpt>
      <trkpt lat="46.00663" lon="6.80717">
        <ele>2052.3999023438</ele>
        <time>2023-09-30T08:29:15.000Z</time>
      </trkpt>
      <trkpt lat="46.00662" lon="6.80718">
        <ele>2052.3999023438</ele>
        <time>2023-09-30T08:29:16.000Z</time>
      </trkpt>
      <trkpt lat="46.00661" lon="6.8072">
        <ele>2052.6000976562</ele>
        <time>2023-09-30T08:29:19.000Z</time>
      </trkpt>
      <trkpt lat="46.0066" lon="6.80721">
        <ele>2052.8000488281</ele>
        <time>2023-09-30T08:29:20.000Z</time>
      </trkpt>
      <trkpt lat="46.0066" lon="6.80722">
        <ele>2052.8000488281</ele>
        <time>2023-09-30T08:29:21.000Z</time>
      </trkpt>
      <trkpt lat="46.00659" lon="6.80722">
        <ele>2053</ele>
        <time>2023-09-30T08:29:22.000Z</time>
      </trkpt>
      <trkpt lat="46.00658" lon="6.80724">
        <ele>2053.1999511719</ele>
        <time>2023-09-30T08:29:24.000Z</time>
      </trkpt>
      <trkpt lat="46.00657" lon="6.80725">
        <ele>2053.3999023438</ele>
        <time>2023-09-30T08:29:25.000Z</time>
      </trkpt>
      <trkpt lat="46.00655" lon="6.80728">
        <ele>2053.8000488281</ele>
        <time>2023-09-30T08:29:28.000Z</time>
      </trkpt>
      <trkpt lat="46.00654" lon="6.80729">
        <ele>2054</ele>
        <time>2023-09-30T08:29:29.000Z</time>
      </trkpt>
      <trkpt lat="46.00654" lon="6.80729">
        <ele>2054.3999023438</ele>
        <time>2023-09-30T08:29:30.000Z</time>
      </trkpt>
      <trkpt lat="46.00654" lon="6.8073">
        <ele>2054.3999023438</ele>
        <time>2023-09-30T08:29:31.000Z</time>
      </trkpt>
      <trkpt lat="46.00653" lon="6.80731">
        <ele>2054.8000488281</ele>
        <time>2023-09-30T08:29:32.000Z</time>
      </trkpt>
      <trkpt lat="46.00653" lon="6.80732">
        <ele>2055</ele>
        <time>2023-09-30T08:29:33.000Z</time>
      </trkpt>
      <trkpt lat="46.00652" lon="6.80734">
        <ele>2055.3999023438</ele>
        <time>2023-09-30T08:29:34.000Z</time>
      </trkpt>
      <trkpt lat="46.00652" lon="6.80735">
        <ele>2055.3999023438</ele>
        <time>2023-09-30T08:29:35.000Z</time>
      </trkpt>
      <trkpt lat="46.00652" lon="6.80737">
        <ele>2055.8000488281</ele>
        <time>2023-09-30T08:29:36.000Z</time>
      </trkpt>
      <trkpt lat="46.00651" lon="6.80739">
        <ele>2056</ele>
        <time>2023-09-30T08:29:37.000Z</time>
      </trkpt>
      <trkpt lat="46.00651" lon="6.8074">
        <ele>2056</ele>
        <time>2023-09-30T08:29:38.000Z</time>
      </trkpt>
      <trkpt lat="46.0065" lon="6.80742">
        <ele>2056.1999511719</ele>
        <time>2023-09-30T08:29:39.000Z</time>
      </trkpt>
      <trkpt lat="46.0065" lon="6.80743">
        <ele>2056.3999023438</ele>
        <time>2023-09-30T08:29:40.000Z</time>
      </trkpt>
      <trkpt lat="46.00649" lon="6.80745">
        <ele>2056.3999023438</ele>
        <time>2023-09-30T08:29:41.000Z</time>
      </trkpt>
      <trkpt lat="46.00649" lon="6.80745">
        <ele>2056.6000976562</ele>
        <time>2023-09-30T08:29:42.000Z</time>
      </trkpt>
      <trkpt lat="46.00648" lon="6.80746">
        <ele>2057</ele>
        <time>2023-09-30T08:29:43.000Z</time>
      </trkpt>
      <trkpt lat="46.00646" lon="6.80746">
        <ele>2057.1999511719</ele>
        <time>2023-09-30T08:29:44.000Z</time>
      </trkpt>
      <trkpt lat="46.00645" lon="6.80747">
        <ele>2057.1999511719</ele>
        <time>2023-09-30T08:29:45.000Z</time>
      </trkpt>
      <trkpt lat="46.00644" lon="6.80748">
        <ele>2057.6000976562</ele>
        <time>2023-09-30T08:29:46.000Z</time>
      </trkpt>
      <trkpt lat="46.00643" lon="6.80749">
        <ele>2057.6000976562</ele>
        <time>2023-09-30T08:29:47.000Z</time>
      </trkpt>
      <trkpt lat="46.00643" lon="6.80749">
        <ele>2057.8000488281</ele>
        <time>2023-09-30T08:29:48.000Z</time>
      </trkpt>
      <trkpt lat="46.00642" lon="6.8075">
        <ele>2057.8000488281</ele>
        <time>2023-09-30T08:29:49.000Z</time>
      </trkpt>
      <trkpt lat="46.00641" lon="6.80751">
        <ele>2058</ele>
        <time>2023-09-30T08:29:50.000Z</time>
      </trkpt>
      <trkpt lat="46.0064" lon="6.80752">
        <ele>2058.3999023438</ele>
        <time>2023-09-30T08:29:51.000Z</time>
      </trkpt>
      <trkpt lat="46.00639" lon="6.80753">
        <ele>2058.3999023438</ele>
        <time>2023-09-30T08:29:52.000Z</time>
      </trkpt>
      <trkpt lat="46.00639" lon="6.80754">
        <ele>2058.6000976562</ele>
        <time>2023-09-30T08:29:53.000Z</time>
      </trkpt>
      <trkpt lat="46.00638" lon="6.80756">
        <ele>2058.6000976562</ele>
        <time>2023-09-30T08:29:54.000Z</time>
      </trkpt>
      <trkpt lat="46.00637" lon="6.80757">
        <ele>2059</ele>
        <time>2023-09-30T08:29:55.000Z</time>
      </trkpt>
      <trkpt lat="46.00637" lon="6.80757">
        <ele>2059</ele>
        <time>2023-09-30T08:29:56.000Z</time>
      </trkpt>
      <trkpt lat="46.00636" lon="6.80758">
        <ele>2059.1999511719</ele>
        <time>2023-09-30T08:29:57.000Z</time>
      </trkpt>
      <trkpt lat="46.00636" lon="6.80759">
        <ele>2059.6000976562</ele>
        <time>2023-09-30T08:30:01.000Z</time>
      </trkpt>
      <trkpt lat="46.00635" lon="6.8076">
        <ele>2059.8000488281</ele>
        <time>2023-09-30T08:30:02.000Z</time>
      </trkpt>
      <trkpt lat="46.00634" lon="6.80762">
        <ele>2059.8000488281</ele>
        <time>2023-09-30T08:30:03.000Z</time>
      </trkpt>
      <trkpt lat="46.00632" lon="6.80763">
        <ele>2060</ele>
        <time>2023-09-30T08:30:04.000Z</time>
      </trkpt>
      <trkpt lat="46.00631" lon="6.80765">
        <ele>2060</ele>
        <time>2023-09-30T08:30:05.000Z</time>
      </trkpt>
      <trkpt lat="46.0063" lon="6.80767">
        <ele>2060</ele>
        <time>2023-09-30T08:30:06.000Z</time>
      </trkpt>
      <trkpt lat="46.00629" lon="6.80768">
        <ele>2060.1999511719</ele>
        <time>2023-09-30T08:30:07.000Z</time>
      </trkpt>
      <trkpt lat="46.00628" lon="6.80769">
        <ele>2060.1999511719</ele>
        <time>2023-09-30T08:30:08.000Z</time>
      </trkpt>
      <trkpt lat="46.00627" lon="6.8077">
        <ele>2060.1999511719</ele>
        <time>2023-09-30T08:30:09.000Z</time>
      </trkpt>
      <trkpt lat="46.00626" lon="6.80771">
        <ele>2060.3999023438</ele>
        <time>2023-09-30T08:30:10.000Z</time>
      </trkpt>
      <trkpt lat="46.00625" lon="6.80771">
        <ele>2060.3999023438</ele>
        <time>2023-09-30T08:30:11.000Z</time>
      </trkpt>
      <trkpt lat="46.00623" lon="6.80772">
        <ele>2060.8000488281</ele>
        <time>2023-09-30T08:30:12.000Z</time>
      </trkpt>
      <trkpt lat="46.00621" lon="6.80772">
        <ele>2061</ele>
        <time>2023-09-30T08:30:13.000Z</time>
      </trkpt>
      <trkpt lat="46.0062" lon="6.80773">
        <ele>2061.1999511719</ele>
        <time>2023-09-30T08:30:14.000Z</time>
      </trkpt>
      <trkpt lat="46.00618" lon="6.80774">
        <ele>2061.1999511719</ele>
        <time>2023-09-30T08:30:15.000Z</time>
      </trkpt>
      <trkpt lat="46.00616" lon="6.80775">
        <ele>2061.1999511719</ele>
        <time>2023-09-30T08:30:16.000Z</time>
      </trkpt>
      <trkpt lat="46.00615" lon="6.80776">
        <ele>2061.3999023438</ele>
        <time>2023-09-30T08:30:17.000Z</time>
      </trkpt>
      <trkpt lat="46.00614" lon="6.80776">
        <ele>2061.6000976562</ele>
        <time>2023-09-30T08:30:18.000Z</time>
      </trkpt>
      <trkpt lat="46.00612" lon="6.80777">
        <ele>2061.8000488281</ele>
        <time>2023-09-30T08:30:19.000Z</time>
      </trkpt>
      <trkpt lat="46.00611" lon="6.80778">
        <ele>2061.8000488281</ele>
        <time>2023-09-30T08:30:20.000Z</time>
      </trkpt>
      <trkpt lat="46.0061" lon="6.80778">
        <ele>2062</ele>
        <time>2023-09-30T08:30:21.000Z</time>
      </trkpt>
      <trkpt lat="46.00608" lon="6.80779">
        <ele>2062</ele>
        <time>2023-09-30T08:30:22.000Z</time>
      </trkpt>
      <trkpt lat="46.00607" lon="6.80779">
        <ele>2062.1999511719</ele>
        <time>2023-09-30T08:30:23.000Z</time>
      </trkpt>
      <trkpt lat="46.00606" lon="6.8078">
        <ele>2062.1999511719</ele>
        <time>2023-09-30T08:30:24.000Z</time>
      </trkpt>
      <trkpt lat="46.00604" lon="6.80781">
        <ele>2062.3999023438</ele>
        <time>2023-09-30T08:30:25.000Z</time>
      </trkpt>
      <trkpt lat="46.00603" lon="6.80782">
        <ele>2062.6000976562</ele>
        <time>2023-09-30T08:30:26.000Z</time>
      </trkpt>
      <trkpt lat="46.00601" lon="6.80783">
        <ele>2062.6000976562</ele>
        <time>2023-09-30T08:30:27.000Z</time>
      </trkpt>
      <trkpt lat="46.006" lon="6.80783">
        <ele>2062.8000488281</ele>
        <time>2023-09-30T08:30:28.000Z</time>
      </trkpt>
      <trkpt lat="46.00598" lon="6.80784">
        <ele>2062.8000488281</ele>
        <time>2023-09-30T08:30:29.000Z</time>
      </trkpt>
      <trkpt lat="46.00597" lon="6.80784">
        <ele>2063</ele>
        <time>2023-09-30T08:30:30.000Z</time>
      </trkpt>
      <trkpt lat="46.00595" lon="6.80785">
        <ele>2063</ele>
        <time>2023-09-30T08:30:31.000Z</time>
      </trkpt>
      <trkpt lat="46.00594" lon="6.80785">
        <ele>2063</ele>
        <time>2023-09-30T08:30:32.000Z</time>
      </trkpt>
      <trkpt lat="46.00592" lon="6.80786">
        <ele>2063</ele>
        <time>2023-09-30T08:30:33.000Z</time>
      </trkpt>
      <trkpt lat="46.0059" lon="6.80787">
        <ele>2063.1999511719</ele>
        <time>2023-09-30T08:30:34.000Z</time>
      </trkpt>
      <trkpt lat="46.00589" lon="6.80787">
        <ele>2063.3999023438</ele>
        <time>2023-09-30T08:30:35.000Z</time>
      </trkpt>
      <trkpt lat="46.00588" lon="6.80787">
        <ele>2063.3999023438</ele>
        <time>2023-09-30T08:30:36.000Z</time>
      </trkpt>
      <trkpt lat="46.00587" lon="6.80787">
        <ele>2063.6000976562</ele>
        <time>2023-09-30T08:30:37.000Z</time>
      </trkpt>
      <trkpt lat="46.00586" lon="6.80788">
        <ele>2063.6000976562</ele>
        <time>2023-09-30T08:30:38.000Z</time>
      </trkpt>
      <trkpt lat="46.00585" lon="6.80789">
        <ele>2063.8000488281</ele>
        <time>2023-09-30T08:30:39.000Z</time>
      </trkpt>
      <trkpt lat="46.00584" lon="6.80789">
        <ele>2063.6000976562</ele>
        <time>2023-09-30T08:30:40.000Z</time>
      </trkpt>
      <trkpt lat="46.00583" lon="6.80789">
        <ele>2063.6000976562</ele>
        <time>2023-09-30T08:30:41.000Z</time>
      </trkpt>
      <trkpt lat="46.00581" lon="6.80789">
        <ele>2063.8000488281</ele>
        <time>2023-09-30T08:30:42.000Z</time>
      </trkpt>
      <trkpt lat="46.0058" lon="6.80789">
        <ele>2063.8000488281</ele>
        <time>2023-09-30T08:30:43.000Z</time>
      </trkpt>
      <trkpt lat="46.00579" lon="6.8079">
        <ele>2063.8000488281</ele>
        <time>2023-09-30T08:30:44.000Z</time>
      </trkpt>
      <trkpt lat="46.00578" lon="6.8079">
        <ele>2064</ele>
        <time>2023-09-30T08:30:45.000Z</time>
      </trkpt>
      <trkpt lat="46.00577" lon="6.8079">
        <ele>2064.1999511719</ele>
        <time>2023-09-30T08:30:46.000Z</time>
      </trkpt>
      <trkpt lat="46.00575" lon="6.80791">
        <ele>2064.1999511719</ele>
        <time>2023-09-30T08:30:47.000Z</time>
      </trkpt>
      <trkpt lat="46.00572" lon="6.80791">
        <ele>2064.3999023438</ele>
        <time>2023-09-30T08:30:50.000Z</time>
      </trkpt>
      <trkpt lat="46.00572" lon="6.80791">
        <ele>2064.6000976562</ele>
        <time>2023-09-30T08:30:51.000Z</time>
      </trkpt>
      <trkpt lat="46.00572" lon="6.80791">
        <ele>2064.8000488281</ele>
        <time>2023-09-30T08:31:09.000Z</time>
      </trkpt>
      <trkpt lat="46.00572" lon="6.80792">
        <ele>2064.6000976562</ele>
        <time>2023-09-30T08:32:10.000Z</time>
      </trkpt>
      <trkpt lat="46.00567" lon="6.80793">
        <ele>2064.8000488281</ele>
        <time>2023-09-30T08:32:14.000Z</time>
      </trkpt>
      <trkpt lat="46.00567" lon="6.80793">
        <ele>2064.8000488281</ele>
        <time>2023-09-30T08:32:16.000Z</time>
      </trkpt>
      <trkpt lat="46.00567" lon="6.80793">
        <ele>2064.8000488281</ele>
        <time>2023-09-30T08:32:23.000Z</time>
      </trkpt>
      <trkpt lat="46.00563" lon="6.80793">
        <ele>2065</ele>
        <time>2023-09-30T08:32:45.000Z</time>
      </trkpt>
      <trkpt lat="46.00562" lon="6.80794">
        <ele>2065</ele>
        <time>2023-09-30T08:32:46.000Z</time>
      </trkpt>
      <trkpt lat="46.00557" lon="6.80795">
        <ele>2065</ele>
        <time>2023-09-30T08:32:49.000Z</time>
      </trkpt>
      <trkpt lat="46.00556" lon="6.80795">
        <ele>2065.1999511719</ele>
        <time>2023-09-30T08:32:50.000Z</time>
      </trkpt>
      <trkpt lat="46.00555" lon="6.80795">
        <ele>2065.1999511719</ele>
        <time>2023-09-30T08:32:51.000Z</time>
      </trkpt>
      <trkpt lat="46.00554" lon="6.80795">
        <ele>2065.1999511719</ele>
        <time>2023-09-30T08:32:52.000Z</time>
      </trkpt>
      <trkpt lat="46.00548" lon="6.80794">
        <ele>2065.6000976562</ele>
        <time>2023-09-30T08:32:56.000Z</time>
      </trkpt>
      <trkpt lat="46.00538" lon="6.80796">
        <ele>2066</ele>
        <time>2023-09-30T08:33:02.000Z</time>
      </trkpt>
      <trkpt lat="46.00523" lon="6.80796">
        <ele>2066.6000976562</ele>
        <time>2023-09-30T08:33:10.000Z</time>
      </trkpt>
      <trkpt lat="46.00519" lon="6.80796">
        <ele>2066.6000976562</ele>
        <time>2023-09-30T08:33:12.000Z</time>
      </trkpt>
      <trkpt lat="46.00518" lon="6.80796">
        <ele>2066.8000488281</ele>
        <time>2023-09-30T08:33:13.000Z</time>
      </trkpt>
      <trkpt lat="46.00514" lon="6.80796">
        <ele>2067</ele>
        <time>2023-09-30T08:33:15.000Z</time>
      </trkpt>
      <trkpt lat="46.00513" lon="6.80796">
        <ele>2067.1999511719</ele>
        <time>2023-09-30T08:33:16.000Z</time>
      </trkpt>
      <trkpt lat="46.00511" lon="6.80797">
        <ele>2067.1999511719</ele>
        <time>2023-09-30T08:33:17.000Z</time>
      </trkpt>
      <trkpt lat="46.00505" lon="6.80798">
        <ele>2067.6000976562</ele>
        <time>2023-09-30T08:33:20.000Z</time>
      </trkpt>
      <trkpt lat="46.00503" lon="6.80798">
        <ele>2067.6000976562</ele>
        <time>2023-09-30T08:33:21.000Z</time>
      </trkpt>
      <trkpt lat="46.00501" lon="6.80798">
        <ele>2067.6000976562</ele>
        <time>2023-09-30T08:33:22.000Z</time>
      </trkpt>
      <trkpt lat="46.005" lon="6.80798">
        <ele>2067.8000488281</ele>
        <time>2023-09-30T08:33:23.000Z</time>
      </trkpt>
      <trkpt lat="46.00498" lon="6.80798">
        <ele>2067.6000976562</ele>
        <time>2023-09-30T08:33:24.000Z</time>
      </trkpt>
      <trkpt lat="46.00488" lon="6.80798">
        <ele>2068.3999023438</ele>
        <time>2023-09-30T08:33:29.000Z</time>
      </trkpt>
      <trkpt lat="46.00483" lon="6.80799">
        <ele>2068.3999023438</ele>
        <time>2023-09-30T08:33:31.000Z</time>
      </trkpt>
      <trkpt lat="46.00478" lon="6.80803">
        <ele>2068.6000976562</ele>
        <time>2023-09-30T08:33:34.000Z</time>
      </trkpt>
      <trkpt lat="46.00477" lon="6.80805">
        <ele>2068.6000976562</ele>
        <time>2023-09-30T08:33:35.000Z</time>
      </trkpt>
      <trkpt lat="46.00476" lon="6.80806">
        <ele>2068.8000488281</ele>
        <time>2023-09-30T08:33:36.000Z</time>
      </trkpt>
      <trkpt lat="46.00475" lon="6.80808">
        <ele>2068.8000488281</ele>
        <time>2023-09-30T08:33:37.000Z</time>
      </trkpt>
      <trkpt lat="46.00475" lon="6.8081">
        <ele>2068.8000488281</ele>
        <time>2023-09-30T08:33:38.000Z</time>
      </trkpt>
      <trkpt lat="46.00474" lon="6.80812">
        <ele>2069</ele>
        <time>2023-09-30T08:33:39.000Z</time>
      </trkpt>
      <trkpt lat="46.00473" lon="6.80813">
        <ele>2069</ele>
        <time>2023-09-30T08:33:40.000Z</time>
      </trkpt>
      <trkpt lat="46.00472" lon="6.80815">
        <ele>2069</ele>
        <time>2023-09-30T08:33:41.000Z</time>
      </trkpt>
      <trkpt lat="46.00471" lon="6.80816">
        <ele>2069.1999511719</ele>
        <time>2023-09-30T08:33:42.000Z</time>
      </trkpt>
      <trkpt lat="46.0047" lon="6.80817">
        <ele>2069.1999511719</ele>
        <time>2023-09-30T08:33:43.000Z</time>
      </trkpt>
      <trkpt lat="46.00469" lon="6.80818">
        <ele>2069.1999511719</ele>
        <time>2023-09-30T08:33:44.000Z</time>
      </trkpt>
      <trkpt lat="46.00468" lon="6.80819">
        <ele>2069.1999511719</ele>
        <time>2023-09-30T08:33:45.000Z</time>
      </trkpt>
      <trkpt lat="46.00466" lon="6.80819">
        <ele>2069.1999511719</ele>
        <time>2023-09-30T08:33:46.000Z</time>
      </trkpt>
      <trkpt lat="46.00464" lon="6.8082">
        <ele>2069.6000976562</ele>
        <time>2023-09-30T08:33:48.000Z</time>
      </trkpt>
      <trkpt lat="46.00463" lon="6.8082">
        <ele>2069.6000976562</ele>
        <time>2023-09-30T08:33:49.000Z</time>
      </trkpt>
      <trkpt lat="46.00462" lon="6.80821">
        <ele>2069.6000976562</ele>
        <time>2023-09-30T08:33:50.000Z</time>
      </trkpt>
      <trkpt lat="46.00461" lon="6.80821">
        <ele>2069.8000488281</ele>
        <time>2023-09-30T08:33:51.000Z</time>
      </trkpt>
      <trkpt lat="46.0046" lon="6.80821">
        <ele>2070</ele>
        <time>2023-09-30T08:33:52.000Z</time>
      </trkpt>
      <trkpt lat="46.00458" lon="6.80821">
        <ele>2070.1999511719</ele>
        <time>2023-09-30T08:33:53.000Z</time>
      </trkpt>
      <trkpt lat="46.00457" lon="6.80821">
        <ele>2070.3999023438</ele>
        <time>2023-09-30T08:33:54.000Z</time>
      </trkpt>
      <trkpt lat="46.00456" lon="6.80822">
        <ele>2070.3999023438</ele>
        <time>2023-09-30T08:33:55.000Z</time>
      </trkpt>
      <trkpt lat="46.00453" lon="6.80822">
        <ele>2070.3999023438</ele>
        <time>2023-09-30T08:33:57.000Z</time>
      </trkpt>
      <trkpt lat="46.00447" lon="6.80822">
        <ele>2070.8000488281</ele>
        <time>2023-09-30T08:34:01.000Z</time>
      </trkpt>
      <trkpt lat="46.00442" lon="6.80822">
        <ele>2071.1999511719</ele>
        <time>2023-09-30T08:34:04.000Z</time>
      </trkpt>
      <trkpt lat="46.00439" lon="6.80823">
        <ele>2071.8000488281</ele>
        <time>2023-09-30T08:34:06.000Z</time>
      </trkpt>
      <trkpt lat="46.00437" lon="6.80823">
        <ele>2071.8000488281</ele>
        <time>2023-09-30T08:34:07.000Z</time>
      </trkpt>
      <trkpt lat="46.00435" lon="6.80824">
        <ele>2072</ele>
        <time>2023-09-30T08:34:08.000Z</time>
      </trkpt>
      <trkpt lat="46.00434" lon="6.80824">
        <ele>2072.6000976562</ele>
        <time>2023-09-30T08:34:09.000Z</time>
      </trkpt>
      <trkpt lat="46.00432" lon="6.80825">
        <ele>2072.6000976562</ele>
        <time>2023-09-30T08:34:10.000Z</time>
      </trkpt>
      <trkpt lat="46.00431" lon="6.80825">
        <ele>2073</ele>
        <time>2023-09-30T08:34:11.000Z</time>
      </trkpt>
      <trkpt lat="46.0043" lon="6.80826">
        <ele>2073</ele>
        <time>2023-09-30T08:34:12.000Z</time>
      </trkpt>
      <trkpt lat="46.00428" lon="6.80827">
        <ele>2073.6000976562</ele>
        <time>2023-09-30T08:34:13.000Z</time>
      </trkpt>
      <trkpt lat="46.00427" lon="6.80827">
        <ele>2073.8000488281</ele>
        <time>2023-09-30T08:34:14.000Z</time>
      </trkpt>
      <trkpt lat="46.00425" lon="6.80828">
        <ele>2074.1999511719</ele>
        <time>2023-09-30T08:34:15.000Z</time>
      </trkpt>
      <trkpt lat="46.00424" lon="6.80829">
        <ele>2074.1999511719</ele>
        <time>2023-09-30T08:34:16.000Z</time>
      </trkpt>
      <trkpt lat="46.00423" lon="6.80831">
        <ele>2074.3999023438</ele>
        <time>2023-09-30T08:34:17.000Z</time>
      </trkpt>
      <trkpt lat="46.00422" lon="6.80832">
        <ele>2074.3999023438</ele>
        <time>2023-09-30T08:34:18.000Z</time>
      </trkpt>
      <trkpt lat="46.00421" lon="6.80833">
        <ele>2074.6000976562</ele>
        <time>2023-09-30T08:34:19.000Z</time>
      </trkpt>
      <trkpt lat="46.0042" lon="6.80835">
        <ele>2074.8000488281</ele>
        <time>2023-09-30T08:34:20.000Z</time>
      </trkpt>
      <trkpt lat="46.00419" lon="6.80836">
        <ele>2074.8000488281</ele>
        <time>2023-09-30T08:34:21.000Z</time>
      </trkpt>
      <trkpt lat="46.00418" lon="6.80838">
        <ele>2075</ele>
        <time>2023-09-30T08:34:22.000Z</time>
      </trkpt>
      <trkpt lat="46.00417" lon="6.8084">
        <ele>2075.1999511719</ele>
        <time>2023-09-30T08:34:23.000Z</time>
      </trkpt>
      <trkpt lat="46.00416" lon="6.80841">
        <ele>2075.3999023438</ele>
        <time>2023-09-30T08:34:24.000Z</time>
      </trkpt>
      <trkpt lat="46.00416" lon="6.80842">
        <ele>2075.6000976562</ele>
        <time>2023-09-30T08:34:25.000Z</time>
      </trkpt>
      <trkpt lat="46.00414" lon="6.80844">
        <ele>2075.6000976562</ele>
        <time>2023-09-30T08:34:26.000Z</time>
      </trkpt>
      <trkpt lat="46.00413" lon="6.80846">
        <ele>2075.8000488281</ele>
        <time>2023-09-30T08:34:27.000Z</time>
      </trkpt>
      <trkpt lat="46.00413" lon="6.80847">
        <ele>2075.8000488281</ele>
        <time>2023-09-30T08:34:28.000Z</time>
      </trkpt>
      <trkpt lat="46.00411" lon="6.80848">
        <ele>2075.8000488281</ele>
        <time>2023-09-30T08:34:29.000Z</time>
      </trkpt>
      <trkpt lat="46.0041" lon="6.80849">
        <ele>2076</ele>
        <time>2023-09-30T08:34:30.000Z</time>
      </trkpt>
      <trkpt lat="46.00408" lon="6.80849">
        <ele>2076</ele>
        <time>2023-09-30T08:34:31.000Z</time>
      </trkpt>
      <trkpt lat="46.00407" lon="6.80849">
        <ele>2076.1999511719</ele>
        <time>2023-09-30T08:34:32.000Z</time>
      </trkpt>
      <trkpt lat="46.00406" lon="6.80849">
        <ele>2076.3999023438</ele>
        <time>2023-09-30T08:34:33.000Z</time>
      </trkpt>
      <trkpt lat="46.00404" lon="6.80849">
        <ele>2076.6000976562</ele>
        <time>2023-09-30T08:34:34.000Z</time>
      </trkpt>
      <trkpt lat="46.00403" lon="6.80848">
        <ele>2076.6000976562</ele>
        <time>2023-09-30T08:34:35.000Z</time>
      </trkpt>
      <trkpt lat="46.00401" lon="6.80848">
        <ele>2076.8000488281</ele>
        <time>2023-09-30T08:34:36.000Z</time>
      </trkpt>
      <trkpt lat="46.004" lon="6.80848">
        <ele>2076.8000488281</ele>
        <time>2023-09-30T08:34:37.000Z</time>
      </trkpt>
      <trkpt lat="46.00398" lon="6.80847">
        <ele>2077</ele>
        <time>2023-09-30T08:34:38.000Z</time>
      </trkpt>
      <trkpt lat="46.00397" lon="6.80848">
        <ele>2077.1999511719</ele>
        <time>2023-09-30T08:34:39.000Z</time>
      </trkpt>
      <trkpt lat="46.00395" lon="6.80848">
        <ele>2077.1999511719</ele>
        <time>2023-09-30T08:34:40.000Z</time>
      </trkpt>
      <trkpt lat="46.00394" lon="6.80849">
        <ele>2077.6000976562</ele>
        <time>2023-09-30T08:34:41.000Z</time>
      </trkpt>
      <trkpt lat="46.00392" lon="6.80849">
        <ele>2077.6000976562</ele>
        <time>2023-09-30T08:34:42.000Z</time>
      </trkpt>
      <trkpt lat="46.0039" lon="6.80848">
        <ele>2078</ele>
        <time>2023-09-30T08:34:43.000Z</time>
      </trkpt>
      <trkpt lat="46.00389" lon="6.80847">
        <ele>2078.1999511719</ele>
        <time>2023-09-30T08:34:44.000Z</time>
      </trkpt>
      <trkpt lat="46.00387" lon="6.80846">
        <ele>2078.3999023438</ele>
        <time>2023-09-30T08:34:45.000Z</time>
      </trkpt>
      <trkpt lat="46.00385" lon="6.80846">
        <ele>2078.3999023438</ele>
        <time>2023-09-30T08:34:46.000Z</time>
      </trkpt>
      <trkpt lat="46.00384" lon="6.80846">
        <ele>2078.3999023438</ele>
        <time>2023-09-30T08:34:47.000Z</time>
      </trkpt>
      <trkpt lat="46.00382" lon="6.80846">
        <ele>2078.3999023438</ele>
        <time>2023-09-30T08:34:48.000Z</time>
      </trkpt>
      <trkpt lat="46.00381" lon="6.80845">
        <ele>2078.3999023438</ele>
        <time>2023-09-30T08:34:49.000Z</time>
      </trkpt>
      <trkpt lat="46.00379" lon="6.80845">
        <ele>2078.6000976562</ele>
        <time>2023-09-30T08:34:50.000Z</time>
      </trkpt>
      <trkpt lat="46.00377" lon="6.80845">
        <ele>2078.6000976562</ele>
        <time>2023-09-30T08:34:51.000Z</time>
      </trkpt>
      <trkpt lat="46.00376" lon="6.80845">
        <ele>2078.8000488281</ele>
        <time>2023-09-30T08:34:52.000Z</time>
      </trkpt>
      <trkpt lat="46.00374" lon="6.80845">
        <ele>2078.8000488281</ele>
        <time>2023-09-30T08:34:53.000Z</time>
      </trkpt>
      <trkpt lat="46.00373" lon="6.80845">
        <ele>2078.8000488281</ele>
        <time>2023-09-30T08:34:54.000Z</time>
      </trkpt>
      <trkpt lat="46.00371" lon="6.80844">
        <ele>2078.8000488281</ele>
        <time>2023-09-30T08:34:55.000Z</time>
      </trkpt>
      <trkpt lat="46.0037" lon="6.80844">
        <ele>2078.8000488281</ele>
        <time>2023-09-30T08:34:56.000Z</time>
      </trkpt>
      <trkpt lat="46.00368" lon="6.80844">
        <ele>2079.1999511719</ele>
        <time>2023-09-30T08:34:57.000Z</time>
      </trkpt>
      <trkpt lat="46.00367" lon="6.80844">
        <ele>2079.1999511719</ele>
        <time>2023-09-30T08:34:58.000Z</time>
      </trkpt>
      <trkpt lat="46.00366" lon="6.80843">
        <ele>2079.3999023438</ele>
        <time>2023-09-30T08:34:59.000Z</time>
      </trkpt>
      <trkpt lat="46.00364" lon="6.80843">
        <ele>2079.6000976562</ele>
        <time>2023-09-30T08:35:00.000Z</time>
      </trkpt>
      <trkpt lat="46.00363" lon="6.80843">
        <ele>2079.6000976562</ele>
        <time>2023-09-30T08:35:01.000Z</time>
      </trkpt>
      <trkpt lat="46.00361" lon="6.80843">
        <ele>2079.6000976562</ele>
        <time>2023-09-30T08:35:02.000Z</time>
      </trkpt>
      <trkpt lat="46.0036" lon="6.80843">
        <ele>2079.8000488281</ele>
        <time>2023-09-30T08:35:03.000Z</time>
      </trkpt>
      <trkpt lat="46.00358" lon="6.80843">
        <ele>2079.8000488281</ele>
        <time>2023-09-30T08:35:04.000Z</time>
      </trkpt>
      <trkpt lat="46.00357" lon="6.80844">
        <ele>2079.8000488281</ele>
        <time>2023-09-30T08:35:05.000Z</time>
      </trkpt>
      <trkpt lat="46.00356" lon="6.80844">
        <ele>2080</ele>
        <time>2023-09-30T08:35:06.000Z</time>
      </trkpt>
      <trkpt lat="46.00355" lon="6.80845">
        <ele>2080</ele>
        <time>2023-09-30T08:35:07.000Z</time>
      </trkpt>
      <trkpt lat="46.00354" lon="6.80845">
        <ele>2080.1999511719</ele>
        <time>2023-09-30T08:35:08.000Z</time>
      </trkpt>
      <trkpt lat="46.00353" lon="6.80845">
        <ele>2080.3999023438</ele>
        <time>2023-09-30T08:35:09.000Z</time>
      </trkpt>
      <trkpt lat="46.00352" lon="6.80846">
        <ele>2080.3999023438</ele>
        <time>2023-09-30T08:35:10.000Z</time>
      </trkpt>
      <trkpt lat="46.00352" lon="6.80846">
        <ele>2080.6000976562</ele>
        <time>2023-09-30T08:35:11.000Z</time>
      </trkpt>
      <trkpt lat="46.00352" lon="6.80846">
        <ele>2080.6000976562</ele>
        <time>2023-09-30T08:35:12.000Z</time>
      </trkpt>
      <trkpt lat="46.00352" lon="6.80846">
        <ele>2080.6000976562</ele>
        <time>2023-09-30T08:35:13.000Z</time>
      </trkpt>
      <trkpt lat="46.00352" lon="6.80846">
        <ele>2080.8000488281</ele>
        <time>2023-09-30T08:35:14.000Z</time>
      </trkpt>
      <trkpt lat="46.00351" lon="6.80847">
        <ele>2080.8000488281</ele>
        <time>2023-09-30T08:35:15.000Z</time>
      </trkpt>
      <trkpt lat="46.0035" lon="6.80848">
        <ele>2080.8000488281</ele>
        <time>2023-09-30T08:35:16.000Z</time>
      </trkpt>
      <trkpt lat="46.00349" lon="6.80848">
        <ele>2081</ele>
        <time>2023-09-30T08:35:17.000Z</time>
      </trkpt>
      <trkpt lat="46.00348" lon="6.80848">
        <ele>2081</ele>
        <time>2023-09-30T08:35:18.000Z</time>
      </trkpt>
      <trkpt lat="46.00346" lon="6.80849">
        <ele>2081</ele>
        <time>2023-09-30T08:35:19.000Z</time>
      </trkpt>
      <trkpt lat="46.00345" lon="6.80849">
        <ele>2081.1999511719</ele>
        <time>2023-09-30T08:35:20.000Z</time>
      </trkpt>
      <trkpt lat="46.00345" lon="6.8085">
        <ele>2081.1999511719</ele>
        <time>2023-09-30T08:35:21.000Z</time>
      </trkpt>
      <trkpt lat="46.00344" lon="6.80851">
        <ele>2081.3999023438</ele>
        <time>2023-09-30T08:35:22.000Z</time>
      </trkpt>
      <trkpt lat="46.00344" lon="6.80851">
        <ele>2081.6000976562</ele>
        <time>2023-09-30T08:35:23.000Z</time>
      </trkpt>
      <trkpt lat="46.00342" lon="6.80851">
        <ele>2082.1999511719</ele>
        <time>2023-09-30T08:35:25.000Z</time>
      </trkpt>
      <trkpt lat="46.00341" lon="6.80851">
        <ele>2082.3999023438</ele>
        <time>2023-09-30T08:35:26.000Z</time>
      </trkpt>
      <trkpt lat="46.0034" lon="6.80852">
        <ele>2082.6000976562</ele>
        <time>2023-09-30T08:35:27.000Z</time>
      </trkpt>
      <trkpt lat="46.0034" lon="6.80853">
        <ele>2082.6000976562</ele>
        <time>2023-09-30T08:35:28.000Z</time>
      </trkpt>
      <trkpt lat="46.00339" lon="6.80853">
        <ele>2082.8000488281</ele>
        <time>2023-09-30T08:35:29.000Z</time>
      </trkpt>
      <trkpt lat="46.00339" lon="6.80853">
        <ele>2083</ele>
        <time>2023-09-30T08:35:31.000Z</time>
      </trkpt>
      <trkpt lat="46.00339" lon="6.80853">
        <ele>2083.1999511719</ele>
        <time>2023-09-30T08:35:34.000Z</time>
      </trkpt>
      <trkpt lat="46.00337" lon="6.80853">
        <ele>2083.1999511719</ele>
        <time>2023-09-30T08:35:35.000Z</time>
      </trkpt>
      <trkpt lat="46.00336" lon="6.80853">
        <ele>2083.1999511719</ele>
        <time>2023-09-30T08:35:36.000Z</time>
      </trkpt>
      <trkpt lat="46.00334" lon="6.80853">
        <ele>2083.1999511719</ele>
        <time>2023-09-30T08:35:37.000Z</time>
      </trkpt>
      <trkpt lat="46.00331" lon="6.80851">
        <ele>2083.1999511719</ele>
        <time>2023-09-30T08:35:38.000Z</time>
      </trkpt>
      <trkpt lat="46.0033" lon="6.80849">
        <ele>2083.1999511719</ele>
        <time>2023-09-30T08:35:39.000Z</time>
      </trkpt>
      <trkpt lat="46.0033" lon="6.80849">
        <ele>2083.1999511719</ele>
        <time>2023-09-30T08:35:41.000Z</time>
      </trkpt>
      <trkpt lat="46.00329" lon="6.80848">
        <ele>2083</ele>
        <time>2023-09-30T08:35:43.000Z</time>
      </trkpt>
      <trkpt lat="46.00329" lon="6.80848">
        <ele>2083</ele>
        <time>2023-09-30T08:35:44.000Z</time>
      </trkpt>
      <trkpt lat="46.00326" lon="6.80844">
        <ele>2083</ele>
        <time>2023-09-30T08:35:49.000Z</time>
      </trkpt>
      <trkpt lat="46.00325" lon="6.80844">
        <ele>2083</ele>
        <time>2023-09-30T08:35:53.000Z</time>
      </trkpt>
      <trkpt lat="46.0032" lon="6.8084">
        <ele>2083.1999511719</ele>
        <time>2023-09-30T08:35:56.000Z</time>
      </trkpt>
      <trkpt lat="46.00316" lon="6.80838">
        <ele>2083.3999023438</ele>
        <time>2023-09-30T08:35:57.000Z</time>
      </trkpt>
      <trkpt lat="46.00312" lon="6.80836">
        <ele>2083.3999023438</ele>
        <time>2023-09-30T08:35:58.000Z</time>
      </trkpt>
      <trkpt lat="46.00307" lon="6.80834">
        <ele>2083.3999023438</ele>
        <time>2023-09-30T08:36:00.000Z</time>
      </trkpt>
      <trkpt lat="46.00305" lon="6.80833">
        <ele>2083.3999023438</ele>
        <time>2023-09-30T08:36:01.000Z</time>
      </trkpt>
      <trkpt lat="46.00303" lon="6.80832">
        <ele>2083.3999023438</ele>
        <time>2023-09-30T08:36:02.000Z</time>
      </trkpt>
      <trkpt lat="46.00301" lon="6.80832">
        <ele>2083.3999023438</ele>
        <time>2023-09-30T08:36:03.000Z</time>
      </trkpt>
      <trkpt lat="46.00299" lon="6.80831">
        <ele>2083.3999023438</ele>
        <time>2023-09-30T08:36:04.000Z</time>
      </trkpt>
      <trkpt lat="46.00296" lon="6.80827">
        <ele>2083.3999023438</ele>
        <time>2023-09-30T08:36:06.000Z</time>
      </trkpt>
      <trkpt lat="46.00295" lon="6.80825">
        <ele>2083.3999023438</ele>
        <time>2023-09-30T08:36:07.000Z</time>
      </trkpt>
      <trkpt lat="46.00294" lon="6.80823">
        <ele>2083.3999023438</ele>
        <time>2023-09-30T08:36:08.000Z</time>
      </trkpt>
      <trkpt lat="46.00294" lon="6.8082">
        <ele>2083.3999023438</ele>
        <time>2023-09-30T08:36:09.000Z</time>
      </trkpt>
      <trkpt lat="46.00294" lon="6.80818">
        <ele>2083.3999023438</ele>
        <time>2023-09-30T08:36:10.000Z</time>
      </trkpt>
      <trkpt lat="46.00294" lon="6.80816">
        <ele>2083.3999023438</ele>
        <time>2023-09-30T08:36:11.000Z</time>
      </trkpt>
      <trkpt lat="46.00295" lon="6.80813">
        <ele>2083.3999023438</ele>
        <time>2023-09-30T08:36:12.000Z</time>
      </trkpt>
      <trkpt lat="46.00295" lon="6.80811">
        <ele>2083.3999023438</ele>
        <time>2023-09-30T08:36:13.000Z</time>
      </trkpt>
      <trkpt lat="46.00296" lon="6.80809">
        <ele>2083.6000976562</ele>
        <time>2023-09-30T08:36:14.000Z</time>
      </trkpt>
      <trkpt lat="46.00296" lon="6.80807">
        <ele>2083.6000976562</ele>
        <time>2023-09-30T08:36:15.000Z</time>
      </trkpt>
      <trkpt lat="46.00297" lon="6.80804">
        <ele>2083.6000976562</ele>
        <time>2023-09-30T08:36:16.000Z</time>
      </trkpt>
      <trkpt lat="46.00297" lon="6.80802">
        <ele>2083.8000488281</ele>
        <time>2023-09-30T08:36:17.000Z</time>
      </trkpt>
      <trkpt lat="46.00298" lon="6.808">
        <ele>2083.8000488281</ele>
        <time>2023-09-30T08:36:18.000Z</time>
      </trkpt>
      <trkpt lat="46.00298" lon="6.80798">
        <ele>2083.8000488281</ele>
        <time>2023-09-30T08:36:19.000Z</time>
      </trkpt>
      <trkpt lat="46.00298" lon="6.80796">
        <ele>2084</ele>
        <time>2023-09-30T08:36:20.000Z</time>
      </trkpt>
      <trkpt lat="46.00298" lon="6.80795">
        <ele>2084</ele>
        <time>2023-09-30T08:36:21.000Z</time>
      </trkpt>
      <trkpt lat="46.00298" lon="6.80793">
        <ele>2084</ele>
        <time>2023-09-30T08:36:22.000Z</time>
      </trkpt>
      <trkpt lat="46.00298" lon="6.80791">
        <ele>2084.3999023438</ele>
        <time>2023-09-30T08:36:23.000Z</time>
      </trkpt>
      <trkpt lat="46.00298" lon="6.80789">
        <ele>2084.6000976562</ele>
        <time>2023-09-30T08:36:24.000Z</time>
      </trkpt>
      <trkpt lat="46.00298" lon="6.80788">
        <ele>2084.6000976562</ele>
        <time>2023-09-30T08:36:25.000Z</time>
      </trkpt>
      <trkpt lat="46.00298" lon="6.80788">
        <ele>2084.8000488281</ele>
        <time>2023-09-30T08:36:26.000Z</time>
      </trkpt>
      <trkpt lat="46.00298" lon="6.80788">
        <ele>2085</ele>
        <time>2023-09-30T08:36:27.000Z</time>
      </trkpt>
      <trkpt lat="46.00299" lon="6.80785">
        <ele>2085.6000976562</ele>
        <time>2023-09-30T08:36:32.000Z</time>
      </trkpt>
      <trkpt lat="46.003" lon="6.80783">
        <ele>2085.8000488281</ele>
        <time>2023-09-30T08:36:33.000Z</time>
      </trkpt>
      <trkpt lat="46.003" lon="6.8078">
        <ele>2085.8000488281</ele>
        <time>2023-09-30T08:36:35.000Z</time>
      </trkpt>
      <trkpt lat="46.003" lon="6.80777">
        <ele>2086</ele>
        <time>2023-09-30T08:36:36.000Z</time>
      </trkpt>
      <trkpt lat="46.003" lon="6.80775">
        <ele>2086</ele>
        <time>2023-09-30T08:36:37.000Z</time>
      </trkpt>
      <trkpt lat="46.00299" lon="6.80773">
        <ele>2086.1999511719</ele>
        <time>2023-09-30T08:36:38.000Z</time>
      </trkpt>
      <trkpt lat="46.00299" lon="6.80771">
        <ele>2086.3999023438</ele>
        <time>2023-09-30T08:36:39.000Z</time>
      </trkpt>
      <trkpt lat="46.00298" lon="6.80769">
        <ele>2086.3999023438</ele>
        <time>2023-09-30T08:36:40.000Z</time>
      </trkpt>
      <trkpt lat="46.00297" lon="6.80767">
        <ele>2086.3999023438</ele>
        <time>2023-09-30T08:36:41.000Z</time>
      </trkpt>
      <trkpt lat="46.00297" lon="6.80765">
        <ele>2086.6000976562</ele>
        <time>2023-09-30T08:36:42.000Z</time>
      </trkpt>
      <trkpt lat="46.00297" lon="6.80763">
        <ele>2086.6000976562</ele>
        <time>2023-09-30T08:36:43.000Z</time>
      </trkpt>
      <trkpt lat="46.00298" lon="6.8076">
        <ele>2086.6000976562</ele>
        <time>2023-09-30T08:36:44.000Z</time>
      </trkpt>
      <trkpt lat="46.00298" lon="6.80758">
        <ele>2086.6000976562</ele>
        <time>2023-09-30T08:36:45.000Z</time>
      </trkpt>
      <trkpt lat="46.00299" lon="6.80755">
        <ele>2086.8000488281</ele>
        <time>2023-09-30T08:36:46.000Z</time>
      </trkpt>
      <trkpt lat="46.00299" lon="6.80753">
        <ele>2087</ele>
        <time>2023-09-30T08:36:47.000Z</time>
      </trkpt>
      <trkpt lat="46.003" lon="6.80751">
        <ele>2087.1999511719</ele>
        <time>2023-09-30T08:36:48.000Z</time>
      </trkpt>
      <trkpt lat="46.00301" lon="6.80749">
        <ele>2087.3999023438</ele>
        <time>2023-09-30T08:36:49.000Z</time>
      </trkpt>
      <trkpt lat="46.00301" lon="6.80747">
        <ele>2087.6000976562</ele>
        <time>2023-09-30T08:36:50.000Z</time>
      </trkpt>
      <trkpt lat="46.00301" lon="6.80746">
        <ele>2087.6000976562</ele>
        <time>2023-09-30T08:36:51.000Z</time>
      </trkpt>
      <trkpt lat="46.00301" lon="6.80744">
        <ele>2087.8000488281</ele>
        <time>2023-09-30T08:36:52.000Z</time>
      </trkpt>
      <trkpt lat="46.00301" lon="6.80742">
        <ele>2088</ele>
        <time>2023-09-30T08:36:53.000Z</time>
      </trkpt>
      <trkpt lat="46.00301" lon="6.8074">
        <ele>2088</ele>
        <time>2023-09-30T08:36:54.000Z</time>
      </trkpt>
      <trkpt lat="46.00301" lon="6.80738">
        <ele>2088.1999511719</ele>
        <time>2023-09-30T08:36:55.000Z</time>
      </trkpt>
      <trkpt lat="46.00301" lon="6.80736">
        <ele>2088.3999023438</ele>
        <time>2023-09-30T08:36:56.000Z</time>
      </trkpt>
      <trkpt lat="46.00301" lon="6.80734">
        <ele>2088.6000976562</ele>
        <time>2023-09-30T08:36:57.000Z</time>
      </trkpt>
      <trkpt lat="46.00301" lon="6.80732">
        <ele>2088.6000976562</ele>
        <time>2023-09-30T08:36:58.000Z</time>
      </trkpt>
      <trkpt lat="46.00301" lon="6.8073">
        <ele>2088.8000488281</ele>
        <time>2023-09-30T08:36:59.000Z</time>
      </trkpt>
      <trkpt lat="46.00301" lon="6.80728">
        <ele>2089</ele>
        <time>2023-09-30T08:37:00.000Z</time>
      </trkpt>
      <trkpt lat="46.00301" lon="6.80726">
        <ele>2089</ele>
        <time>2023-09-30T08:37:01.000Z</time>
      </trkpt>
      <trkpt lat="46.00301" lon="6.80724">
        <ele>2089</ele>
        <time>2023-09-30T08:37:02.000Z</time>
      </trkpt>
      <trkpt lat="46.00301" lon="6.80722">
        <ele>2089.1999511719</ele>
        <time>2023-09-30T08:37:03.000Z</time>
      </trkpt>
      <trkpt lat="46.00301" lon="6.8072">
        <ele>2089.1999511719</ele>
        <time>2023-09-30T08:37:04.000Z</time>
      </trkpt>
      <trkpt lat="46.00301" lon="6.80718">
        <ele>2089.3999023438</ele>
        <time>2023-09-30T08:37:05.000Z</time>
      </trkpt>
      <trkpt lat="46.00302" lon="6.80717">
        <ele>2089.3999023438</ele>
        <time>2023-09-30T08:37:06.000Z</time>
      </trkpt>
      <trkpt lat="46.00302" lon="6.80715">
        <ele>2089.6000976562</ele>
        <time>2023-09-30T08:37:07.000Z</time>
      </trkpt>
      <trkpt lat="46.00302" lon="6.80713">
        <ele>2089.6000976562</ele>
        <time>2023-09-30T08:37:08.000Z</time>
      </trkpt>
      <trkpt lat="46.00303" lon="6.80711">
        <ele>2090.1999511719</ele>
        <time>2023-09-30T08:37:09.000Z</time>
      </trkpt>
      <trkpt lat="46.00303" lon="6.80709">
        <ele>2090.3999023438</ele>
        <time>2023-09-30T08:37:10.000Z</time>
      </trkpt>
      <trkpt lat="46.00304" lon="6.80707">
        <ele>2090.3999023438</ele>
        <time>2023-09-30T08:37:11.000Z</time>
      </trkpt>
      <trkpt lat="46.00305" lon="6.80706">
        <ele>2090.3999023438</ele>
        <time>2023-09-30T08:37:12.000Z</time>
      </trkpt>
      <trkpt lat="46.00305" lon="6.80705">
        <ele>2090.3999023438</ele>
        <time>2023-09-30T08:37:13.000Z</time>
      </trkpt>
      <trkpt lat="46.00305" lon="6.80705">
        <ele>2090.6000976562</ele>
        <time>2023-09-30T08:37:14.000Z</time>
      </trkpt>
      <trkpt lat="46.00305" lon="6.80704">
        <ele>2090.8000488281</ele>
        <time>2023-09-30T08:37:15.000Z</time>
      </trkpt>
      <trkpt lat="46.00306" lon="6.80703">
        <ele>2090.8000488281</ele>
        <time>2023-09-30T08:37:16.000Z</time>
      </trkpt>
      <trkpt lat="46.00306" lon="6.80702">
        <ele>2090.8000488281</ele>
        <time>2023-09-30T08:37:17.000Z</time>
      </trkpt>
      <trkpt lat="46.00307" lon="6.80701">
        <ele>2091</ele>
        <time>2023-09-30T08:37:18.000Z</time>
      </trkpt>
      <trkpt lat="46.00307" lon="6.807">
        <ele>2091.3999023438</ele>
        <time>2023-09-30T08:37:19.000Z</time>
      </trkpt>
      <trkpt lat="46.00307" lon="6.807">
        <ele>2091.8000488281</ele>
        <time>2023-09-30T08:37:22.000Z</time>
      </trkpt>
      <trkpt lat="46.00308" lon="6.80699">
        <ele>2092.1999511719</ele>
        <time>2023-09-30T08:37:27.000Z</time>
      </trkpt>
      <trkpt lat="46.00308" lon="6.80697">
        <ele>2092.1999511719</ele>
        <time>2023-09-30T08:37:28.000Z</time>
      </trkpt>
      <trkpt lat="46.00309" lon="6.80695">
        <ele>2092.3999023438</ele>
        <time>2023-09-30T08:37:29.000Z</time>
      </trkpt>
      <trkpt lat="46.0031" lon="6.80694">
        <ele>2092.3999023438</ele>
        <time>2023-09-30T08:37:30.000Z</time>
      </trkpt>
      <trkpt lat="46.0031" lon="6.80692">
        <ele>2092.1999511719</ele>
        <time>2023-09-30T08:37:31.000Z</time>
      </trkpt>
      <trkpt lat="46.00311" lon="6.8069">
        <ele>2092.3999023438</ele>
        <time>2023-09-30T08:37:32.000Z</time>
      </trkpt>
      <trkpt lat="46.00311" lon="6.80688">
        <ele>2092.3999023438</ele>
        <time>2023-09-30T08:37:33.000Z</time>
      </trkpt>
      <trkpt lat="46.00312" lon="6.80686">
        <ele>2092.6000976562</ele>
        <time>2023-09-30T08:37:34.000Z</time>
      </trkpt>
      <trkpt lat="46.00312" lon="6.80684">
        <ele>2092.6000976562</ele>
        <time>2023-09-30T08:37:35.000Z</time>
      </trkpt>
      <trkpt lat="46.00313" lon="6.80683">
        <ele>2092.8000488281</ele>
        <time>2023-09-30T08:37:36.000Z</time>
      </trkpt>
      <trkpt lat="46.00313" lon="6.80681">
        <ele>2093</ele>
        <time>2023-09-30T08:37:37.000Z</time>
      </trkpt>
      <trkpt lat="46.00313" lon="6.80679">
        <ele>2093</ele>
        <time>2023-09-30T08:37:38.000Z</time>
      </trkpt>
      <trkpt lat="46.00314" lon="6.80677">
        <ele>2093.3999023438</ele>
        <time>2023-09-30T08:37:39.000Z</time>
      </trkpt>
      <trkpt lat="46.00314" lon="6.80676">
        <ele>2093.3999023438</ele>
        <time>2023-09-30T08:37:40.000Z</time>
      </trkpt>
      <trkpt lat="46.00314" lon="6.80674">
        <ele>2093.6000976562</ele>
        <time>2023-09-30T08:37:41.000Z</time>
      </trkpt>
      <trkpt lat="46.00314" lon="6.80674">
        <ele>2094</ele>
        <time>2023-09-30T08:37:42.000Z</time>
      </trkpt>
      <trkpt lat="46.00314" lon="6.80674">
        <ele>2094.1999511719</ele>
        <time>2023-09-30T08:37:43.000Z</time>
      </trkpt>
      <trkpt lat="46.00314" lon="6.80673">
        <ele>2094.6000976562</ele>
        <time>2023-09-30T08:37:46.000Z</time>
      </trkpt>
      <trkpt lat="46.00315" lon="6.80672">
        <ele>2094.6000976562</ele>
        <time>2023-09-30T08:37:47.000Z</time>
      </trkpt>
      <trkpt lat="46.00315" lon="6.80671">
        <ele>2094.8000488281</ele>
        <time>2023-09-30T08:37:48.000Z</time>
      </trkpt>
      <trkpt lat="46.00315" lon="6.8067">
        <ele>2094.8000488281</ele>
        <time>2023-09-30T08:37:49.000Z</time>
      </trkpt>
      <trkpt lat="46.00315" lon="6.8067">
        <ele>2095</ele>
        <time>2023-09-30T08:37:50.000Z</time>
      </trkpt>
      <trkpt lat="46.00315" lon="6.80668">
        <ele>2095</ele>
        <time>2023-09-30T08:37:51.000Z</time>
      </trkpt>
      <trkpt lat="46.00315" lon="6.80668">
        <ele>2095.1999511719</ele>
        <time>2023-09-30T08:37:52.000Z</time>
      </trkpt>
      <trkpt lat="46.00315" lon="6.80668">
        <ele>2095.6000976562</ele>
        <time>2023-09-30T08:37:59.000Z</time>
      </trkpt>
      <trkpt lat="46.00315" lon="6.80668">
        <ele>2096.8000488281</ele>
        <time>2023-09-30T08:38:04.000Z</time>
      </trkpt>
      <trkpt lat="46.00315" lon="6.80668">
        <ele>2097</ele>
        <time>2023-09-30T08:38:09.000Z</time>
      </trkpt>
      <trkpt lat="46.00315" lon="6.80666">
        <ele>2097</ele>
        <time>2023-09-30T08:38:10.000Z</time>
      </trkpt>
      <trkpt lat="46.00315" lon="6.80664">
        <ele>2097</ele>
        <time>2023-09-30T08:38:11.000Z</time>
      </trkpt>
      <trkpt lat="46.00315" lon="6.80663">
        <ele>2096.8000488281</ele>
        <time>2023-09-30T08:38:12.000Z</time>
      </trkpt>
      <trkpt lat="46.00314" lon="6.80661">
        <ele>2096.8000488281</ele>
        <time>2023-09-30T08:38:13.000Z</time>
      </trkpt>
      <trkpt lat="46.00314" lon="6.8066">
        <ele>2096.6000976562</ele>
        <time>2023-09-30T08:38:14.000Z</time>
      </trkpt>
      <trkpt lat="46.00314" lon="6.80659">
        <ele>2096.6000976562</ele>
        <time>2023-09-30T08:38:15.000Z</time>
      </trkpt>
      <trkpt lat="46.00313" lon="6.8065">
        <ele>2098</ele>
        <time>2023-09-30T08:38:21.000Z</time>
      </trkpt>
      <trkpt lat="46.00313" lon="6.80648">
        <ele>2098</ele>
        <time>2023-09-30T08:38:22.000Z</time>
      </trkpt>
      <trkpt lat="46.00312" lon="6.80646">
        <ele>2098.1999511719</ele>
        <time>2023-09-30T08:38:24.000Z</time>
      </trkpt>
      <trkpt lat="46.00312" lon="6.80644">
        <ele>2098.3999023438</ele>
        <time>2023-09-30T08:38:25.000Z</time>
      </trkpt>
      <trkpt lat="46.00311" lon="6.80643">
        <ele>2098.3999023438</ele>
        <time>2023-09-30T08:38:26.000Z</time>
      </trkpt>
      <trkpt lat="46.0031" lon="6.80643">
        <ele>2098.3999023438</ele>
        <time>2023-09-30T08:38:27.000Z</time>
      </trkpt>
      <trkpt lat="46.0031" lon="6.80643">
        <ele>2098.3999023438</ele>
        <time>2023-09-30T08:38:28.000Z</time>
      </trkpt>
      <trkpt lat="46.00309" lon="6.80643">
        <ele>2098.6000976562</ele>
        <time>2023-09-30T08:38:29.000Z</time>
      </trkpt>
      <trkpt lat="46.00309" lon="6.80644">
        <ele>2099.1999511719</ele>
        <time>2023-09-30T08:38:32.000Z</time>
      </trkpt>
      <trkpt lat="46.00309" lon="6.80644">
        <ele>2099.8000488281</ele>
        <time>2023-09-30T08:38:37.000Z</time>
      </trkpt>
      <trkpt lat="46.00308" lon="6.80645">
        <ele>2099.8000488281</ele>
        <time>2023-09-30T08:39:01.000Z</time>
      </trkpt>
      <trkpt lat="46.00308" lon="6.80646">
        <ele>2100.1999511719</ele>
        <time>2023-09-30T08:39:02.000Z</time>
      </trkpt>
      <trkpt lat="46.00307" lon="6.80647">
        <ele>2100.1999511719</ele>
        <time>2023-09-30T08:39:03.000Z</time>
      </trkpt>
      <trkpt lat="46.00306" lon="6.80648">
        <ele>2100.1999511719</ele>
        <time>2023-09-30T08:39:04.000Z</time>
      </trkpt>
      <trkpt lat="46.00306" lon="6.8065">
        <ele>2100.1999511719</ele>
        <time>2023-09-30T08:39:05.000Z</time>
      </trkpt>
      <trkpt lat="46.00304" lon="6.80652">
        <ele>2100.3999023438</ele>
        <time>2023-09-30T08:39:07.000Z</time>
      </trkpt>
      <trkpt lat="46.00301" lon="6.80661">
        <ele>2101.1999511719</ele>
        <time>2023-09-30T08:39:13.000Z</time>
      </trkpt>
      <trkpt lat="46.003" lon="6.80662">
        <ele>2101.3999023438</ele>
        <time>2023-09-30T08:39:14.000Z</time>
      </trkpt>
      <trkpt lat="46.00299" lon="6.80664">
        <ele>2102.1999511719</ele>
        <time>2023-09-30T08:39:16.000Z</time>
      </trkpt>
      <trkpt lat="46.00299" lon="6.80665">
        <ele>2102.3999023438</ele>
        <time>2023-09-30T08:39:17.000Z</time>
      </trkpt>
      <trkpt lat="46.00298" lon="6.80665">
        <ele>2102.8000488281</ele>
        <time>2023-09-30T08:39:18.000Z</time>
      </trkpt>
      <trkpt lat="46.00297" lon="6.80667">
        <ele>2103.6000976562</ele>
        <time>2023-09-30T08:39:21.000Z</time>
      </trkpt>
      <trkpt lat="46.00296" lon="6.80668">
        <ele>2103.8000488281</ele>
        <time>2023-09-30T08:39:22.000Z</time>
      </trkpt>
      <trkpt lat="46.00296" lon="6.80669">
        <ele>2104</ele>
        <time>2023-09-30T08:39:23.000Z</time>
      </trkpt>
      <trkpt lat="46.00295" lon="6.8067">
        <ele>2104.1999511719</ele>
        <time>2023-09-30T08:39:24.000Z</time>
      </trkpt>
      <trkpt lat="46.00295" lon="6.80671">
        <ele>2104.3999023438</ele>
        <time>2023-09-30T08:39:25.000Z</time>
      </trkpt>
      <trkpt lat="46.00294" lon="6.80672">
        <ele>2104.6000976562</ele>
        <time>2023-09-30T08:39:26.000Z</time>
      </trkpt>
      <trkpt lat="46.00294" lon="6.80674">
        <ele>2104.8000488281</ele>
        <time>2023-09-30T08:39:27.000Z</time>
      </trkpt>
      <trkpt lat="46.00293" lon="6.80675">
        <ele>2105</ele>
        <time>2023-09-30T08:39:28.000Z</time>
      </trkpt>
      <trkpt lat="46.00293" lon="6.80676">
        <ele>2105.1999511719</ele>
        <time>2023-09-30T08:39:29.000Z</time>
      </trkpt>
      <trkpt lat="46.00292" lon="6.80677">
        <ele>2105.3999023438</ele>
        <time>2023-09-30T08:39:30.000Z</time>
      </trkpt>
      <trkpt lat="46.00292" lon="6.80678">
        <ele>2105.3999023438</ele>
        <time>2023-09-30T08:39:31.000Z</time>
      </trkpt>
      <trkpt lat="46.00291" lon="6.80679">
        <ele>2105.8000488281</ele>
        <time>2023-09-30T08:39:32.000Z</time>
      </trkpt>
      <trkpt lat="46.00291" lon="6.80679">
        <ele>2106</ele>
        <time>2023-09-30T08:39:33.000Z</time>
      </trkpt>
      <trkpt lat="46.0029" lon="6.8068">
        <ele>2106.1999511719</ele>
        <time>2023-09-30T08:39:34.000Z</time>
      </trkpt>
      <trkpt lat="46.0029" lon="6.8068">
        <ele>2106.1999511719</ele>
        <time>2023-09-30T08:39:35.000Z</time>
      </trkpt>
      <trkpt lat="46.00289" lon="6.8068">
        <ele>2106.3999023438</ele>
        <time>2023-09-30T08:39:36.000Z</time>
      </trkpt>
      <trkpt lat="46.00289" lon="6.80678">
        <ele>2106.6000976562</ele>
        <time>2023-09-30T08:39:37.000Z</time>
      </trkpt>
      <trkpt lat="46.00289" lon="6.80677">
        <ele>2106.8000488281</ele>
        <time>2023-09-30T08:39:38.000Z</time>
      </trkpt>
      <trkpt lat="46.00289" lon="6.80676">
        <ele>2107</ele>
        <time>2023-09-30T08:39:39.000Z</time>
      </trkpt>
      <trkpt lat="46.00288" lon="6.80675">
        <ele>2107</ele>
        <time>2023-09-30T08:39:40.000Z</time>
      </trkpt>
      <trkpt lat="46.00288" lon="6.80674">
        <ele>2107.3999023438</ele>
        <time>2023-09-30T08:39:41.000Z</time>
      </trkpt>
      <trkpt lat="46.00287" lon="6.80673">
        <ele>2107.3999023438</ele>
        <time>2023-09-30T08:39:42.000Z</time>
      </trkpt>
      <trkpt lat="46.00287" lon="6.80672">
        <ele>2107.6000976562</ele>
        <time>2023-09-30T08:39:43.000Z</time>
      </trkpt>
      <trkpt lat="46.00287" lon="6.80671">
        <ele>2108</ele>
        <time>2023-09-30T08:39:44.000Z</time>
      </trkpt>
      <trkpt lat="46.00287" lon="6.80671">
        <ele>2108.1999511719</ele>
        <time>2023-09-30T08:39:45.000Z</time>
      </trkpt>
      <trkpt lat="46.00287" lon="6.8067">
        <ele>2108.3999023438</ele>
        <time>2023-09-30T08:39:46.000Z</time>
      </trkpt>
      <trkpt lat="46.00287" lon="6.80669">
        <ele>2108.6000976562</ele>
        <time>2023-09-30T08:39:47.000Z</time>
      </trkpt>
      <trkpt lat="46.00287" lon="6.80667">
        <ele>2108.8000488281</ele>
        <time>2023-09-30T08:39:48.000Z</time>
      </trkpt>
      <trkpt lat="46.00287" lon="6.80667">
        <ele>2109</ele>
        <time>2023-09-30T08:39:49.000Z</time>
      </trkpt>
      <trkpt lat="46.00286" lon="6.80665">
        <ele>2109</ele>
        <time>2023-09-30T08:39:50.000Z</time>
      </trkpt>
      <trkpt lat="46.00286" lon="6.80664">
        <ele>2109.1999511719</ele>
        <time>2023-09-30T08:39:51.000Z</time>
      </trkpt>
      <trkpt lat="46.00286" lon="6.80663">
        <ele>2109.1999511719</ele>
        <time>2023-09-30T08:39:52.000Z</time>
      </trkpt>
      <trkpt lat="46.00285" lon="6.80662">
        <ele>2109.6000976562</ele>
        <time>2023-09-30T08:39:53.000Z</time>
      </trkpt>
      <trkpt lat="46.00285" lon="6.80661">
        <ele>2109.8000488281</ele>
        <time>2023-09-30T08:39:54.000Z</time>
      </trkpt>
      <trkpt lat="46.00285" lon="6.8066">
        <ele>2110</ele>
        <time>2023-09-30T08:39:55.000Z</time>
      </trkpt>
      <trkpt lat="46.00285" lon="6.80659">
        <ele>2110</ele>
        <time>2023-09-30T08:39:56.000Z</time>
      </trkpt>
      <trkpt lat="46.00284" lon="6.80659">
        <ele>2110.1999511719</ele>
        <time>2023-09-30T08:39:57.000Z</time>
      </trkpt>
      <trkpt lat="46.00284" lon="6.80657">
        <ele>2110.6000976562</ele>
        <time>2023-09-30T08:39:58.000Z</time>
      </trkpt>
      <trkpt lat="46.00284" lon="6.80656">
        <ele>2110.8000488281</ele>
        <time>2023-09-30T08:39:59.000Z</time>
      </trkpt>
      <trkpt lat="46.00283" lon="6.80655">
        <ele>2110.8000488281</ele>
        <time>2023-09-30T08:40:00.000Z</time>
      </trkpt>
      <trkpt lat="46.00283" lon="6.80655">
        <ele>2111</ele>
        <time>2023-09-30T08:40:01.000Z</time>
      </trkpt>
      <trkpt lat="46.00282" lon="6.80654">
        <ele>2111.3999023438</ele>
        <time>2023-09-30T08:40:02.000Z</time>
      </trkpt>
      <trkpt lat="46.00282" lon="6.80653">
        <ele>2111.6000976562</ele>
        <time>2023-09-30T08:40:03.000Z</time>
      </trkpt>
      <trkpt lat="46.00281" lon="6.80652">
        <ele>2111.8000488281</ele>
        <time>2023-09-30T08:40:04.000Z</time>
      </trkpt>
      <trkpt lat="46.0028" lon="6.80652">
        <ele>2111.8000488281</ele>
        <time>2023-09-30T08:40:05.000Z</time>
      </trkpt>
      <trkpt lat="46.0028" lon="6.80653">
        <ele>2112</ele>
        <time>2023-09-30T08:40:06.000Z</time>
      </trkpt>
      <trkpt lat="46.00279" lon="6.80653">
        <ele>2112.1999511719</ele>
        <time>2023-09-30T08:40:07.000Z</time>
      </trkpt>
      <trkpt lat="46.00278" lon="6.80654">
        <ele>2112.3999023438</ele>
        <time>2023-09-30T08:40:08.000Z</time>
      </trkpt>
      <trkpt lat="46.00278" lon="6.80654">
        <ele>2112.3999023438</ele>
        <time>2023-09-30T08:40:09.000Z</time>
      </trkpt>
      <trkpt lat="46.00277" lon="6.80654">
        <ele>2112.3999023438</ele>
        <time>2023-09-30T08:40:10.000Z</time>
      </trkpt>
      <trkpt lat="46.00276" lon="6.80654">
        <ele>2112.8000488281</ele>
        <time>2023-09-30T08:40:11.000Z</time>
      </trkpt>
      <trkpt lat="46.00275" lon="6.80654">
        <ele>2113</ele>
        <time>2023-09-30T08:40:12.000Z</time>
      </trkpt>
      <trkpt lat="46.00274" lon="6.80654">
        <ele>2113.1999511719</ele>
        <time>2023-09-30T08:40:13.000Z</time>
      </trkpt>
      <trkpt lat="46.00274" lon="6.80654">
        <ele>2113.3999023438</ele>
        <time>2023-09-30T08:40:14.000Z</time>
      </trkpt>
      <trkpt lat="46.00273" lon="6.80655">
        <ele>2113.6000976562</ele>
        <time>2023-09-30T08:40:15.000Z</time>
      </trkpt>
      <trkpt lat="46.00273" lon="6.80655">
        <ele>2113.8000488281</ele>
        <time>2023-09-30T08:40:16.000Z</time>
      </trkpt>
      <trkpt lat="46.00272" lon="6.80656">
        <ele>2113.8000488281</ele>
        <time>2023-09-30T08:40:17.000Z</time>
      </trkpt>
      <trkpt lat="46.00271" lon="6.80656">
        <ele>2114</ele>
        <time>2023-09-30T08:40:18.000Z</time>
      </trkpt>
      <trkpt lat="46.0027" lon="6.80657">
        <ele>2114.1999511719</ele>
        <time>2023-09-30T08:40:19.000Z</time>
      </trkpt>
      <trkpt lat="46.00269" lon="6.80657">
        <ele>2114.3999023438</ele>
        <time>2023-09-30T08:40:20.000Z</time>
      </trkpt>
      <trkpt lat="46.00268" lon="6.80657">
        <ele>2114.6000976562</ele>
        <time>2023-09-30T08:40:21.000Z</time>
      </trkpt>
      <trkpt lat="46.00267" lon="6.80657">
        <ele>2114.6000976562</ele>
        <time>2023-09-30T08:40:22.000Z</time>
      </trkpt>
      <trkpt lat="46.00267" lon="6.80657">
        <ele>2114.8000488281</ele>
        <time>2023-09-30T08:40:23.000Z</time>
      </trkpt>
      <trkpt lat="46.00267" lon="6.80657">
        <ele>2115.1999511719</ele>
        <time>2023-09-30T08:40:27.000Z</time>
      </trkpt>
      <trkpt lat="46.00265" lon="6.80656">
        <ele>2115.3999023438</ele>
        <time>2023-09-30T08:40:29.000Z</time>
      </trkpt>
      <trkpt lat="46.00264" lon="6.80656">
        <ele>2115.3999023438</ele>
        <time>2023-09-30T08:40:30.000Z</time>
      </trkpt>
      <trkpt lat="46.00263" lon="6.80655">
        <ele>2115.3999023438</ele>
        <time>2023-09-30T08:40:31.000Z</time>
      </trkpt>
      <trkpt lat="46.00261" lon="6.80655">
        <ele>2115.3999023438</ele>
        <time>2023-09-30T08:40:32.000Z</time>
      </trkpt>
      <trkpt lat="46.0026" lon="6.80654">
        <ele>2115.3999023438</ele>
        <time>2023-09-30T08:40:33.000Z</time>
      </trkpt>
      <trkpt lat="46.00259" lon="6.80653">
        <ele>2115.3999023438</ele>
        <time>2023-09-30T08:40:34.000Z</time>
      </trkpt>
      <trkpt lat="46.00257" lon="6.80652">
        <ele>2115.3999023438</ele>
        <time>2023-09-30T08:40:35.000Z</time>
      </trkpt>
      <trkpt lat="46.00256" lon="6.8065">
        <ele>2115.3999023438</ele>
        <time>2023-09-30T08:40:36.000Z</time>
      </trkpt>
      <trkpt lat="46.00255" lon="6.80649">
        <ele>2115.3999023438</ele>
        <time>2023-09-30T08:40:37.000Z</time>
      </trkpt>
      <trkpt lat="46.00254" lon="6.80647">
        <ele>2115.3999023438</ele>
        <time>2023-09-30T08:40:38.000Z</time>
      </trkpt>
      <trkpt lat="46.00253" lon="6.80645">
        <ele>2115.6000976562</ele>
        <time>2023-09-30T08:40:39.000Z</time>
      </trkpt>
      <trkpt lat="46.00252" lon="6.80643">
        <ele>2115.8000488281</ele>
        <time>2023-09-30T08:40:40.000Z</time>
      </trkpt>
      <trkpt lat="46.00248" lon="6.80634">
        <ele>2116</ele>
        <time>2023-09-30T08:40:44.000Z</time>
      </trkpt>
      <trkpt lat="46.00243" lon="6.80624">
        <ele>2115.8000488281</ele>
        <time>2023-09-30T08:40:48.000Z</time>
      </trkpt>
      <trkpt lat="46.00242" lon="6.80622">
        <ele>2115.8000488281</ele>
        <time>2023-09-30T08:40:49.000Z</time>
      </trkpt>
      <trkpt lat="46.00241" lon="6.80621">
        <ele>2115.8000488281</ele>
        <time>2023-09-30T08:40:50.000Z</time>
      </trkpt>
      <trkpt lat="46.0024" lon="6.80619">
        <ele>2115.6000976562</ele>
        <time>2023-09-30T08:40:51.000Z</time>
      </trkpt>
      <trkpt lat="46.0024" lon="6.80618">
        <ele>2115.3999023438</ele>
        <time>2023-09-30T08:40:52.000Z</time>
      </trkpt>
      <trkpt lat="46.00241" lon="6.80618">
        <ele>2115.3999023438</ele>
        <time>2023-09-30T08:40:53.000Z</time>
      </trkpt>
      <trkpt lat="46.00241" lon="6.80616">
        <ele>2115.1999511719</ele>
        <time>2023-09-30T08:40:54.000Z</time>
      </trkpt>
      <trkpt lat="46.00241" lon="6.80616">
        <ele>2115</ele>
        <time>2023-09-30T08:40:55.000Z</time>
      </trkpt>
      <trkpt lat="46.00242" lon="6.80615">
        <ele>2114.8000488281</ele>
        <time>2023-09-30T08:40:59.000Z</time>
      </trkpt>
      <trkpt lat="46.00242" lon="6.80615">
        <ele>2114.8000488281</ele>
        <time>2023-09-30T08:41:00.000Z</time>
      </trkpt>
      <trkpt lat="46.00241" lon="6.80613">
        <ele>2115</ele>
        <time>2023-09-30T08:41:02.000Z</time>
      </trkpt>
      <trkpt lat="46.00241" lon="6.80613">
        <ele>2115</ele>
        <time>2023-09-30T08:41:03.000Z</time>
      </trkpt>
      <trkpt lat="46.00241" lon="6.80612">
        <ele>2115</ele>
        <time>2023-09-30T08:41:04.000Z</time>
      </trkpt>
      <trkpt lat="46.00241" lon="6.80612">
        <ele>2115.1999511719</ele>
        <time>2023-09-30T08:41:05.000Z</time>
      </trkpt>
      <trkpt lat="46.00241" lon="6.80612">
        <ele>2115.1999511719</ele>
        <time>2023-09-30T08:41:06.000Z</time>
      </trkpt>
      <trkpt lat="46.0024" lon="6.8061">
        <ele>2115.3999023438</ele>
        <time>2023-09-30T08:41:08.000Z</time>
      </trkpt>
      <trkpt lat="46.0024" lon="6.80609">
        <ele>2115.3999023438</ele>
        <time>2023-09-30T08:41:09.000Z</time>
      </trkpt>
      <trkpt lat="46.00239" lon="6.80608">
        <ele>2115.3999023438</ele>
        <time>2023-09-30T08:41:10.000Z</time>
      </trkpt>
      <trkpt lat="46.00237" lon="6.80606">
        <ele>2115.8000488281</ele>
        <time>2023-09-30T08:41:11.000Z</time>
      </trkpt>
      <trkpt lat="46.00234" lon="6.80602">
        <ele>2116.1999511719</ele>
        <time>2023-09-30T08:41:14.000Z</time>
      </trkpt>
      <trkpt lat="46.00233" lon="6.80601">
        <ele>2116.3999023438</ele>
        <time>2023-09-30T08:41:15.000Z</time>
      </trkpt>
      <trkpt lat="46.00232" lon="6.806">
        <ele>2116.6000976562</ele>
        <time>2023-09-30T08:41:16.000Z</time>
      </trkpt>
      <trkpt lat="46.00231" lon="6.806">
        <ele>2116.6000976562</ele>
        <time>2023-09-30T08:41:17.000Z</time>
      </trkpt>
      <trkpt lat="46.00227" lon="6.80598">
        <ele>2117.3999023438</ele>
        <time>2023-09-30T08:41:20.000Z</time>
      </trkpt>
      <trkpt lat="46.00226" lon="6.80597">
        <ele>2117.3999023438</ele>
        <time>2023-09-30T08:41:21.000Z</time>
      </trkpt>
      <trkpt lat="46.00226" lon="6.80596">
        <ele>2117.8000488281</ele>
        <time>2023-09-30T08:41:22.000Z</time>
      </trkpt>
      <trkpt lat="46.00225" lon="6.80595">
        <ele>2117.8000488281</ele>
        <time>2023-09-30T08:41:23.000Z</time>
      </trkpt>
      <trkpt lat="46.00224" lon="6.80594">
        <ele>2118</ele>
        <time>2023-09-30T08:41:24.000Z</time>
      </trkpt>
      <trkpt lat="46.00222" lon="6.80594">
        <ele>2118</ele>
        <time>2023-09-30T08:41:25.000Z</time>
      </trkpt>
      <trkpt lat="46.00222" lon="6.80593">
        <ele>2118</ele>
        <time>2023-09-30T08:41:26.000Z</time>
      </trkpt>
      <trkpt lat="46.00221" lon="6.80592">
        <ele>2118</ele>
        <time>2023-09-30T08:41:27.000Z</time>
      </trkpt>
      <trkpt lat="46.0022" lon="6.80592">
        <ele>2118</ele>
        <time>2023-09-30T08:41:28.000Z</time>
      </trkpt>
      <trkpt lat="46.00219" lon="6.80592">
        <ele>2118.3999023438</ele>
        <time>2023-09-30T08:41:29.000Z</time>
      </trkpt>
      <trkpt lat="46.00217" lon="6.80592">
        <ele>2118.6000976562</ele>
        <time>2023-09-30T08:41:30.000Z</time>
      </trkpt>
      <trkpt lat="46.00216" lon="6.80592">
        <ele>2118.6000976562</ele>
        <time>2023-09-30T08:41:31.000Z</time>
      </trkpt>
      <trkpt lat="46.00215" lon="6.80591">
        <ele>2118.8000488281</ele>
        <time>2023-09-30T08:41:32.000Z</time>
      </trkpt>
      <trkpt lat="46.00214" lon="6.8059">
        <ele>2119</ele>
        <time>2023-09-30T08:41:33.000Z</time>
      </trkpt>
      <trkpt lat="46.00212" lon="6.80589">
        <ele>2119</ele>
        <time>2023-09-30T08:41:34.000Z</time>
      </trkpt>
      <trkpt lat="46.00211" lon="6.80588">
        <ele>2119.3999023438</ele>
        <time>2023-09-30T08:41:35.000Z</time>
      </trkpt>
      <trkpt lat="46.0021" lon="6.80587">
        <ele>2119.3999023438</ele>
        <time>2023-09-30T08:41:36.000Z</time>
      </trkpt>
      <trkpt lat="46.0021" lon="6.80586">
        <ele>2119.6000976562</ele>
        <time>2023-09-30T08:41:37.000Z</time>
      </trkpt>
      <trkpt lat="46.00209" lon="6.80585">
        <ele>2119.6000976562</ele>
        <time>2023-09-30T08:41:38.000Z</time>
      </trkpt>
      <trkpt lat="46.00209" lon="6.80585">
        <ele>2119.8000488281</ele>
        <time>2023-09-30T08:41:39.000Z</time>
      </trkpt>
      <trkpt lat="46.00209" lon="6.80586">
        <ele>2120</ele>
        <time>2023-09-30T08:41:40.000Z</time>
      </trkpt>
      <trkpt lat="46.00208" lon="6.80585">
        <ele>2120.1999511719</ele>
        <time>2023-09-30T08:41:45.000Z</time>
      </trkpt>
      <trkpt lat="46.00207" lon="6.80584">
        <ele>2120.1999511719</ele>
        <time>2023-09-30T08:41:46.000Z</time>
      </trkpt>
      <trkpt lat="46.00207" lon="6.80583">
        <ele>2120.1999511719</ele>
        <time>2023-09-30T08:41:47.000Z</time>
      </trkpt>
      <trkpt lat="46.00206" lon="6.80583">
        <ele>2120.3999023438</ele>
        <time>2023-09-30T08:41:48.000Z</time>
      </trkpt>
      <trkpt lat="46.00205" lon="6.80582">
        <ele>2120.3999023438</ele>
        <time>2023-09-30T08:41:49.000Z</time>
      </trkpt>
      <trkpt lat="46.00203" lon="6.80582">
        <ele>2120.3999023438</ele>
        <time>2023-09-30T08:41:50.000Z</time>
      </trkpt>
      <trkpt lat="46.00202" lon="6.80582">
        <ele>2120.3999023438</ele>
        <time>2023-09-30T08:41:51.000Z</time>
      </trkpt>
      <trkpt lat="46.00201" lon="6.80582">
        <ele>2120.3999023438</ele>
        <time>2023-09-30T08:41:52.000Z</time>
      </trkpt>
      <trkpt lat="46.002" lon="6.80582">
        <ele>2120.3999023438</ele>
        <time>2023-09-30T08:41:53.000Z</time>
      </trkpt>
      <trkpt lat="46.00199" lon="6.80581">
        <ele>2120.3999023438</ele>
        <time>2023-09-30T08:41:54.000Z</time>
      </trkpt>
      <trkpt lat="46.00194" lon="6.8058">
        <ele>2120.3999023438</ele>
        <time>2023-09-30T08:41:57.000Z</time>
      </trkpt>
      <trkpt lat="46.00189" lon="6.80582">
        <ele>2120.3999023438</ele>
        <time>2023-09-30T08:42:00.000Z</time>
      </trkpt>
      <trkpt lat="46.00187" lon="6.80582">
        <ele>2120.3999023438</ele>
        <time>2023-09-30T08:42:01.000Z</time>
      </trkpt>
      <trkpt lat="46.00185" lon="6.80583">
        <ele>2120.3999023438</ele>
        <time>2023-09-30T08:42:02.000Z</time>
      </trkpt>
      <trkpt lat="46.00184" lon="6.80583">
        <ele>2120.3999023438</ele>
        <time>2023-09-30T08:42:03.000Z</time>
      </trkpt>
      <trkpt lat="46.00178" lon="6.80583">
        <ele>2120.1999511719</ele>
        <time>2023-09-30T08:42:06.000Z</time>
      </trkpt>
      <trkpt lat="46.00177" lon="6.80583">
        <ele>2120.1999511719</ele>
        <time>2023-09-30T08:42:07.000Z</time>
      </trkpt>
      <trkpt lat="46.00176" lon="6.80582">
        <ele>2120.1999511719</ele>
        <time>2023-09-30T08:42:08.000Z</time>
      </trkpt>
      <trkpt lat="46.00173" lon="6.80579">
        <ele>2119.8000488281</ele>
        <time>2023-09-30T08:42:10.000Z</time>
      </trkpt>
      <trkpt lat="46.00172" lon="6.80577">
        <ele>2119.8000488281</ele>
        <time>2023-09-30T08:42:11.000Z</time>
      </trkpt>
      <trkpt lat="46.00171" lon="6.80575">
        <ele>2119.8000488281</ele>
        <time>2023-09-30T08:42:12.000Z</time>
      </trkpt>
      <trkpt lat="46.0017" lon="6.80573">
        <ele>2119.8000488281</ele>
        <time>2023-09-30T08:42:13.000Z</time>
      </trkpt>
      <trkpt lat="46.0017" lon="6.80571">
        <ele>2119.8000488281</ele>
        <time>2023-09-30T08:42:14.000Z</time>
      </trkpt>
      <trkpt lat="46.00165" lon="6.80557">
        <ele>2119.8000488281</ele>
        <time>2023-09-30T08:42:20.000Z</time>
      </trkpt>
      <trkpt lat="46.00163" lon="6.80554">
        <ele>2119.6000976562</ele>
        <time>2023-09-30T08:42:22.000Z</time>
      </trkpt>
      <trkpt lat="46.00162" lon="6.80551">
        <ele>2119.6000976562</ele>
        <time>2023-09-30T08:42:23.000Z</time>
      </trkpt>
      <trkpt lat="46.00159" lon="6.80546">
        <ele>2119.6000976562</ele>
        <time>2023-09-30T08:42:26.000Z</time>
      </trkpt>
      <trkpt lat="46.00156" lon="6.80543">
        <ele>2119.8000488281</ele>
        <time>2023-09-30T08:42:28.000Z</time>
      </trkpt>
      <trkpt lat="46.00155" lon="6.80542">
        <ele>2119.8000488281</ele>
        <time>2023-09-30T08:42:29.000Z</time>
      </trkpt>
      <trkpt lat="46.00154" lon="6.8054">
        <ele>2120</ele>
        <time>2023-09-30T08:42:30.000Z</time>
      </trkpt>
      <trkpt lat="46.00151" lon="6.80534">
        <ele>2120.1999511719</ele>
        <time>2023-09-30T08:42:33.000Z</time>
      </trkpt>
      <trkpt lat="46.00141" lon="6.80521">
        <ele>2120.6000976562</ele>
        <time>2023-09-30T08:42:41.000Z</time>
      </trkpt>
      <trkpt lat="46.0014" lon="6.8052">
        <ele>2120.6000976562</ele>
        <time>2023-09-30T08:42:42.000Z</time>
      </trkpt>
      <trkpt lat="46.00124" lon="6.80505">
        <ele>2120.6000976562</ele>
        <time>2023-09-30T08:42:52.000Z</time>
      </trkpt>
      <trkpt lat="46.00113" lon="6.80494">
        <ele>2120.8000488281</ele>
        <time>2023-09-30T08:42:59.000Z</time>
      </trkpt>
      <trkpt lat="46.001" lon="6.80482">
        <ele>2120.3999023438</ele>
        <time>2023-09-30T08:43:06.000Z</time>
      </trkpt>
      <trkpt lat="46.00092" lon="6.80474">
        <ele>2120.3999023438</ele>
        <time>2023-09-30T08:43:11.000Z</time>
      </trkpt>
      <trkpt lat="46.0009" lon="6.80473">
        <ele>2120.6000976562</ele>
        <time>2023-09-30T08:43:12.000Z</time>
      </trkpt>
      <trkpt lat="46.00088" lon="6.80472">
        <ele>2120.8000488281</ele>
        <time>2023-09-30T08:43:13.000Z</time>
      </trkpt>
      <trkpt lat="46.00087" lon="6.80471">
        <ele>2120.8000488281</ele>
        <time>2023-09-30T08:43:14.000Z</time>
      </trkpt>
      <trkpt lat="46.00085" lon="6.80471">
        <ele>2121</ele>
        <time>2023-09-30T08:43:15.000Z</time>
      </trkpt>
      <trkpt lat="46.00084" lon="6.8047">
        <ele>2121.3999023438</ele>
        <time>2023-09-30T08:43:16.000Z</time>
      </trkpt>
      <trkpt lat="46.00084" lon="6.8047">
        <ele>2121.3999023438</ele>
        <time>2023-09-30T08:43:17.000Z</time>
      </trkpt>
      <trkpt lat="46.00084" lon="6.8047">
        <ele>2121.6000976562</ele>
        <time>2023-09-30T08:43:18.000Z</time>
      </trkpt>
      <trkpt lat="46.00084" lon="6.8047">
        <ele>2121.8000488281</ele>
        <time>2023-09-30T08:43:19.000Z</time>
      </trkpt>
      <trkpt lat="46.00084" lon="6.8047">
        <ele>2121.8000488281</ele>
        <time>2023-09-30T08:43:29.000Z</time>
      </trkpt>
      <trkpt lat="46.00084" lon="6.8047">
        <ele>2121.8000488281</ele>
        <time>2023-09-30T08:44:48.000Z</time>
      </trkpt>
      <trkpt lat="46.00084" lon="6.8047">
        <ele>2121.8000488281</ele>
        <time>2023-09-30T08:45:29.000Z</time>
      </trkpt>
      <trkpt lat="46.00084" lon="6.8047">
        <ele>2121.8000488281</ele>
        <time>2023-09-30T08:45:54.000Z</time>
      </trkpt>
      <trkpt lat="46.00081" lon="6.80468">
        <ele>2121.8000488281</ele>
        <time>2023-09-30T08:46:28.000Z</time>
      </trkpt>
      <trkpt lat="46.00081" lon="6.80468">
        <ele>2121.8000488281</ele>
        <time>2023-09-30T08:46:29.000Z</time>
      </trkpt>
      <trkpt lat="46.00081" lon="6.80468">
        <ele>2121.8000488281</ele>
        <time>2023-09-30T08:46:34.000Z</time>
      </trkpt>
      <trkpt lat="46.00076" lon="6.80464">
        <ele>2121.8000488281</ele>
        <time>2023-09-30T08:46:37.000Z</time>
      </trkpt>
      <trkpt lat="46.00075" lon="6.80462">
        <ele>2121.8000488281</ele>
        <time>2023-09-30T08:46:38.000Z</time>
      </trkpt>
      <trkpt lat="46.00067" lon="6.80454">
        <ele>2122</ele>
        <time>2023-09-30T08:46:43.000Z</time>
      </trkpt>
      <trkpt lat="46.00066" lon="6.80453">
        <ele>2122</ele>
        <time>2023-09-30T08:46:44.000Z</time>
      </trkpt>
      <trkpt lat="46.00066" lon="6.80451">
        <ele>2122</ele>
        <time>2023-09-30T08:46:45.000Z</time>
      </trkpt>
      <trkpt lat="46.00066" lon="6.8045">
        <ele>2122</ele>
        <time>2023-09-30T08:46:46.000Z</time>
      </trkpt>
      <trkpt lat="46.00066" lon="6.80448">
        <ele>2122</ele>
        <time>2023-09-30T08:46:47.000Z</time>
      </trkpt>
      <trkpt lat="46.00065" lon="6.80446">
        <ele>2122</ele>
        <time>2023-09-30T08:46:48.000Z</time>
      </trkpt>
      <trkpt lat="46.00064" lon="6.80445">
        <ele>2122</ele>
        <time>2023-09-30T08:46:49.000Z</time>
      </trkpt>
      <trkpt lat="46.00063" lon="6.80443">
        <ele>2122</ele>
        <time>2023-09-30T08:46:50.000Z</time>
      </trkpt>
      <trkpt lat="46.00062" lon="6.80442">
        <ele>2122</ele>
        <time>2023-09-30T08:46:51.000Z</time>
      </trkpt>
      <trkpt lat="46.00061" lon="6.80441">
        <ele>2122.1999511719</ele>
        <time>2023-09-30T08:46:52.000Z</time>
      </trkpt>
      <trkpt lat="46.0006" lon="6.8044">
        <ele>2122.1999511719</ele>
        <time>2023-09-30T08:46:53.000Z</time>
      </trkpt>
      <trkpt lat="46.0006" lon="6.80439">
        <ele>2122.1999511719</ele>
        <time>2023-09-30T08:46:54.000Z</time>
      </trkpt>
      <trkpt lat="46.00059" lon="6.80437">
        <ele>2122.3999023438</ele>
        <time>2023-09-30T08:46:59.000Z</time>
      </trkpt>
      <trkpt lat="46.00059" lon="6.80437">
        <ele>2122.8000488281</ele>
        <time>2023-09-30T08:47:32.000Z</time>
      </trkpt>
      <trkpt lat="46.00055" lon="6.80434">
        <ele>2122.8000488281</ele>
        <time>2023-09-30T08:48:07.000Z</time>
      </trkpt>
      <trkpt lat="46.00052" lon="6.80433">
        <ele>2123</ele>
        <time>2023-09-30T08:48:09.000Z</time>
      </trkpt>
      <trkpt lat="46.0005" lon="6.80431">
        <ele>2123.1999511719</ele>
        <time>2023-09-30T08:48:11.000Z</time>
      </trkpt>
      <trkpt lat="46.00049" lon="6.8043">
        <ele>2123.6000976562</ele>
        <time>2023-09-30T08:48:12.000Z</time>
      </trkpt>
      <trkpt lat="46.00048" lon="6.8043">
        <ele>2123.6000976562</ele>
        <time>2023-09-30T08:48:13.000Z</time>
      </trkpt>
      <trkpt lat="46.00047" lon="6.8043">
        <ele>2123.8000488281</ele>
        <time>2023-09-30T08:48:14.000Z</time>
      </trkpt>
      <trkpt lat="46.00046" lon="6.8043">
        <ele>2124.1999511719</ele>
        <time>2023-09-30T08:48:15.000Z</time>
      </trkpt>
      <trkpt lat="46.00045" lon="6.8043">
        <ele>2124.1999511719</ele>
        <time>2023-09-30T08:48:16.000Z</time>
      </trkpt>
      <trkpt lat="46.00044" lon="6.8043">
        <ele>2124.6000976562</ele>
        <time>2023-09-30T08:48:17.000Z</time>
      </trkpt>
      <trkpt lat="46.00037" lon="6.80432">
        <ele>2124.8000488281</ele>
        <time>2023-09-30T08:48:23.000Z</time>
      </trkpt>
      <trkpt lat="46.00033" lon="6.80432">
        <ele>2124.8000488281</ele>
        <time>2023-09-30T08:48:26.000Z</time>
      </trkpt>
      <trkpt lat="46.00026" lon="6.80432">
        <ele>2125.3999023438</ele>
        <time>2023-09-30T08:48:32.000Z</time>
      </trkpt>
      <trkpt lat="46.00025" lon="6.80432">
        <ele>2125.6000976562</ele>
        <time>2023-09-30T08:48:33.000Z</time>
      </trkpt>
      <trkpt lat="46.00024" lon="6.80432">
        <ele>2125.8000488281</ele>
        <time>2023-09-30T08:48:34.000Z</time>
      </trkpt>
      <trkpt lat="46.00023" lon="6.80432">
        <ele>2126.1999511719</ele>
        <time>2023-09-30T08:48:35.000Z</time>
      </trkpt>
      <trkpt lat="46.00022" lon="6.80432">
        <ele>2126.3999023438</ele>
        <time>2023-09-30T08:48:36.000Z</time>
      </trkpt>
      <trkpt lat="46.00021" lon="6.80431">
        <ele>2126.6000976562</ele>
        <time>2023-09-30T08:48:37.000Z</time>
      </trkpt>
      <trkpt lat="46.0002" lon="6.80431">
        <ele>2126.8000488281</ele>
        <time>2023-09-30T08:48:38.000Z</time>
      </trkpt>
      <trkpt lat="46.00019" lon="6.80431">
        <ele>2127.1999511719</ele>
        <time>2023-09-30T08:48:39.000Z</time>
      </trkpt>
      <trkpt lat="46.00019" lon="6.80431">
        <ele>2127.3999023438</ele>
        <time>2023-09-30T08:48:43.000Z</time>
      </trkpt>
      <trkpt lat="46.00019" lon="6.80431">
        <ele>2127.6000976562</ele>
        <time>2023-09-30T08:48:45.000Z</time>
      </trkpt>
      <trkpt lat="46.00018" lon="6.80431">
        <ele>2127.6000976562</ele>
        <time>2023-09-30T08:48:46.000Z</time>
      </trkpt>
      <trkpt lat="46.00017" lon="6.8043">
        <ele>2127.8000488281</ele>
        <time>2023-09-30T08:48:47.000Z</time>
      </trkpt>
      <trkpt lat="46.00016" lon="6.80429">
        <ele>2127.8000488281</ele>
        <time>2023-09-30T08:48:48.000Z</time>
      </trkpt>
      <trkpt lat="46.00016" lon="6.80428">
        <ele>2127.8000488281</ele>
        <time>2023-09-30T08:48:49.000Z</time>
      </trkpt>
      <trkpt lat="46.00015" lon="6.80427">
        <ele>2127.8000488281</ele>
        <time>2023-09-30T08:48:50.000Z</time>
      </trkpt>
      <trkpt lat="46.00015" lon="6.80427">
        <ele>2128</ele>
        <time>2023-09-30T08:48:55.000Z</time>
      </trkpt>
      <trkpt lat="46.00015" lon="6.80426">
        <ele>2128.3999023438</ele>
        <time>2023-09-30T08:49:07.000Z</time>
      </trkpt>
      <trkpt lat="46.00014" lon="6.80425">
        <ele>2128.3999023438</ele>
        <time>2023-09-30T08:49:08.000Z</time>
      </trkpt>
      <trkpt lat="46.00012" lon="6.80422">
        <ele>2128.3999023438</ele>
        <time>2023-09-30T08:49:11.000Z</time>
      </trkpt>
      <trkpt lat="46.00011" lon="6.8042">
        <ele>2128.3999023438</ele>
        <time>2023-09-30T08:49:12.000Z</time>
      </trkpt>
      <trkpt lat="46.00011" lon="6.8042">
        <ele>2128.6000976562</ele>
        <time>2023-09-30T08:49:13.000Z</time>
      </trkpt>
      <trkpt lat="46.00011" lon="6.8042">
        <ele>2128.8000488281</ele>
        <time>2023-09-30T08:49:15.000Z</time>
      </trkpt>
      <trkpt lat="46.00011" lon="6.8042">
        <ele>2128.8000488281</ele>
        <time>2023-09-30T08:49:16.000Z</time>
      </trkpt>
      <trkpt lat="46.00011" lon="6.80419">
        <ele>2128.3999023438</ele>
        <time>2023-09-30T08:49:51.000Z</time>
      </trkpt>
      <trkpt lat="46.0001" lon="6.80418">
        <ele>2128.6000976562</ele>
        <time>2023-09-30T08:50:45.000Z</time>
      </trkpt>
      <trkpt lat="46.00008" lon="6.80411">
        <ele>2129.1999511719</ele>
        <time>2023-09-30T08:50:51.000Z</time>
      </trkpt>
      <trkpt lat="46.00006" lon="6.80406">
        <ele>2129.1999511719</ele>
        <time>2023-09-30T08:50:53.000Z</time>
      </trkpt>
      <trkpt lat="46.00002" lon="6.80395">
        <ele>2129.3999023438</ele>
        <time>2023-09-30T08:50:58.000Z</time>
      </trkpt>
      <trkpt lat="45.99998" lon="6.80382">
        <ele>2130.1999511719</ele>
        <time>2023-09-30T08:51:04.000Z</time>
      </trkpt>
      <trkpt lat="45.99995" lon="6.80377">
        <ele>2130.6000976562</ele>
        <time>2023-09-30T08:51:07.000Z</time>
      </trkpt>
      <trkpt lat="45.99995" lon="6.80375">
        <ele>2130.6000976562</ele>
        <time>2023-09-30T08:51:08.000Z</time>
      </trkpt>
      <trkpt lat="45.99994" lon="6.80373">
        <ele>2131</ele>
        <time>2023-09-30T08:51:09.000Z</time>
      </trkpt>
      <trkpt lat="45.99994" lon="6.80371">
        <ele>2131</ele>
        <time>2023-09-30T08:51:10.000Z</time>
      </trkpt>
      <trkpt lat="45.99992" lon="6.80366">
        <ele>2131.1999511719</ele>
        <time>2023-09-30T08:51:13.000Z</time>
      </trkpt>
      <trkpt lat="45.99991" lon="6.80365">
        <ele>2131.3999023438</ele>
        <time>2023-09-30T08:51:14.000Z</time>
      </trkpt>
      <trkpt lat="45.99991" lon="6.80364">
        <ele>2131.3999023438</ele>
        <time>2023-09-30T08:51:15.000Z</time>
      </trkpt>
      <trkpt lat="45.99988" lon="6.80357">
        <ele>2132</ele>
        <time>2023-09-30T08:51:27.000Z</time>
      </trkpt>
      <trkpt lat="45.99986" lon="6.8035">
        <ele>2132</ele>
        <time>2023-09-30T08:51:30.000Z</time>
      </trkpt>
      <trkpt lat="45.99985" lon="6.80348">
        <ele>2132</ele>
        <time>2023-09-30T08:51:31.000Z</time>
      </trkpt>
      <trkpt lat="45.99985" lon="6.80347">
        <ele>2131.8000488281</ele>
        <time>2023-09-30T08:51:32.000Z</time>
      </trkpt>
      <trkpt lat="45.99984" lon="6.80341">
        <ele>2131.8000488281</ele>
        <time>2023-09-30T08:51:35.000Z</time>
      </trkpt>
      <trkpt lat="45.99976" lon="6.80324">
        <ele>2131.6000976562</ele>
        <time>2023-09-30T08:51:41.000Z</time>
      </trkpt>
      <trkpt lat="45.9997" lon="6.80308">
        <ele>2131.1999511719</ele>
        <time>2023-09-30T08:51:47.000Z</time>
      </trkpt>
      <trkpt lat="45.99959" lon="6.80293">
        <ele>2130.8000488281</ele>
        <time>2023-09-30T08:51:53.000Z</time>
      </trkpt>
      <trkpt lat="45.99956" lon="6.80292">
        <ele>2130.8000488281</ele>
        <time>2023-09-30T08:51:54.000Z</time>
      </trkpt>
      <trkpt lat="45.99953" lon="6.80292">
        <ele>2130.8000488281</ele>
        <time>2023-09-30T08:51:55.000Z</time>
      </trkpt>
      <trkpt lat="45.99949" lon="6.80293">
        <ele>2130.6000976562</ele>
        <time>2023-09-30T08:51:56.000Z</time>
      </trkpt>
      <trkpt lat="45.99946" lon="6.80293">
        <ele>2130.6000976562</ele>
        <time>2023-09-30T08:51:57.000Z</time>
      </trkpt>
      <trkpt lat="45.99942" lon="6.80293">
        <ele>2130.6000976562</ele>
        <time>2023-09-30T08:51:58.000Z</time>
      </trkpt>
      <trkpt lat="45.99936" lon="6.8029">
        <ele>2130.1999511719</ele>
        <time>2023-09-30T08:52:00.000Z</time>
      </trkpt>
      <trkpt lat="45.99934" lon="6.80288">
        <ele>2130.1999511719</ele>
        <time>2023-09-30T08:52:01.000Z</time>
      </trkpt>
      <trkpt lat="45.99932" lon="6.80285">
        <ele>2129.8000488281</ele>
        <time>2023-09-30T08:52:02.000Z</time>
      </trkpt>
      <trkpt lat="45.99929" lon="6.80283">
        <ele>2129.6000976562</ele>
        <time>2023-09-30T08:52:03.000Z</time>
      </trkpt>
      <trkpt lat="45.99927" lon="6.8028">
        <ele>2129.3999023438</ele>
        <time>2023-09-30T08:52:04.000Z</time>
      </trkpt>
      <trkpt lat="45.99926" lon="6.80278">
        <ele>2129.1999511719</ele>
        <time>2023-09-30T08:52:05.000Z</time>
      </trkpt>
      <trkpt lat="45.99925" lon="6.80276">
        <ele>2129</ele>
        <time>2023-09-30T08:52:06.000Z</time>
      </trkpt>
      <trkpt lat="45.99924" lon="6.80274">
        <ele>2129</ele>
        <time>2023-09-30T08:52:07.000Z</time>
      </trkpt>
      <trkpt lat="45.99923" lon="6.80272">
        <ele>2128.8000488281</ele>
        <time>2023-09-30T08:52:08.000Z</time>
      </trkpt>
      <trkpt lat="45.99913" lon="6.80258">
        <ele>2128.6000976562</ele>
        <time>2023-09-30T08:52:14.000Z</time>
      </trkpt>
      <trkpt lat="45.99904" lon="6.80245">
        <ele>2128.8000488281</ele>
        <time>2023-09-30T08:52:17.000Z</time>
      </trkpt>
      <trkpt lat="45.99901" lon="6.80241">
        <ele>2128.8000488281</ele>
        <time>2023-09-30T08:52:18.000Z</time>
      </trkpt>
      <trkpt lat="45.99898" lon="6.80236">
        <ele>2128.8000488281</ele>
        <time>2023-09-30T08:52:19.000Z</time>
      </trkpt>
      <trkpt lat="45.99896" lon="6.80231">
        <ele>2128.8000488281</ele>
        <time>2023-09-30T08:52:20.000Z</time>
      </trkpt>
      <trkpt lat="45.99894" lon="6.80227">
        <ele>2128.8000488281</ele>
        <time>2023-09-30T08:52:21.000Z</time>
      </trkpt>
      <trkpt lat="45.99892" lon="6.80223">
        <ele>2128.6000976562</ele>
        <time>2023-09-30T08:52:22.000Z</time>
      </trkpt>
      <trkpt lat="45.99882" lon="6.80209">
        <ele>2127.8000488281</ele>
        <time>2023-09-30T08:52:26.000Z</time>
      </trkpt>
      <trkpt lat="45.99879" lon="6.80205">
        <ele>2127.3999023438</ele>
        <time>2023-09-30T08:52:27.000Z</time>
      </trkpt>
      <trkpt lat="45.99877" lon="6.80201">
        <ele>2127.3999023438</ele>
        <time>2023-09-30T08:52:28.000Z</time>
      </trkpt>
      <trkpt lat="45.99876" lon="6.80197">
        <ele>2127.3999023438</ele>
        <time>2023-09-30T08:52:29.000Z</time>
      </trkpt>
      <trkpt lat="45.99869" lon="6.80183">
        <ele>2127</ele>
        <time>2023-09-30T08:52:32.000Z</time>
      </trkpt>
      <trkpt lat="45.99861" lon="6.80167">
        <ele>2126.1999511719</ele>
        <time>2023-09-30T08:52:36.000Z</time>
      </trkpt>
      <trkpt lat="45.99859" lon="6.80163">
        <ele>2126.1999511719</ele>
        <time>2023-09-30T08:52:37.000Z</time>
      </trkpt>
      <trkpt lat="45.99857" lon="6.8016">
        <ele>2126.3999023438</ele>
        <time>2023-09-30T08:52:38.000Z</time>
      </trkpt>
      <trkpt lat="45.99856" lon="6.80157">
        <ele>2126.3999023438</ele>
        <time>2023-09-30T08:52:39.000Z</time>
      </trkpt>
      <trkpt lat="45.99854" lon="6.80154">
        <ele>2126.3999023438</ele>
        <time>2023-09-30T08:52:40.000Z</time>
      </trkpt>
      <trkpt lat="45.99853" lon="6.80151">
        <ele>2126.3999023438</ele>
        <time>2023-09-30T08:52:41.000Z</time>
      </trkpt>
      <trkpt lat="45.99847" lon="6.80133">
        <ele>2126.6000976562</ele>
        <time>2023-09-30T08:52:46.000Z</time>
      </trkpt>
      <trkpt lat="45.99846" lon="6.80131">
        <ele>2126.6000976562</ele>
        <time>2023-09-30T08:52:47.000Z</time>
      </trkpt>
      <trkpt lat="45.99846" lon="6.80129">
        <ele>2126.6000976562</ele>
        <time>2023-09-30T08:52:48.000Z</time>
      </trkpt>
      <trkpt lat="45.99846" lon="6.80126">
        <ele>2126.6000976562</ele>
        <time>2023-09-30T08:52:49.000Z</time>
      </trkpt>
      <trkpt lat="45.99846" lon="6.80124">
        <ele>2126.6000976562</ele>
        <time>2023-09-30T08:52:50.000Z</time>
      </trkpt>
      <trkpt lat="45.99846" lon="6.80123">
        <ele>2126.3999023438</ele>
        <time>2023-09-30T08:52:52.000Z</time>
      </trkpt>
      <trkpt lat="45.99846" lon="6.80123">
        <ele>2126.3999023438</ele>
        <time>2023-09-30T08:52:53.000Z</time>
      </trkpt>
      <trkpt lat="45.99846" lon="6.80123">
        <ele>2126.1999511719</ele>
        <time>2023-09-30T08:53:02.000Z</time>
      </trkpt>
      <trkpt lat="45.99845" lon="6.80121">
        <ele>2126.1999511719</ele>
        <time>2023-09-30T08:53:12.000Z</time>
      </trkpt>
      <trkpt lat="45.99844" lon="6.8012">
        <ele>2126.1999511719</ele>
        <time>2023-09-30T08:53:13.000Z</time>
      </trkpt>
      <trkpt lat="45.99836" lon="6.80111">
        <ele>2127</ele>
        <time>2023-09-30T08:53:19.000Z</time>
      </trkpt>
      <trkpt lat="45.99834" lon="6.8011">
        <ele>2127</ele>
        <time>2023-09-30T08:53:20.000Z</time>
      </trkpt>
      <trkpt lat="45.99831" lon="6.80109">
        <ele>2127.1999511719</ele>
        <time>2023-09-30T08:53:21.000Z</time>
      </trkpt>
      <trkpt lat="45.99829" lon="6.80109">
        <ele>2127.1999511719</ele>
        <time>2023-09-30T08:53:22.000Z</time>
      </trkpt>
      <trkpt lat="45.99827" lon="6.8011">
        <ele>2127.1999511719</ele>
        <time>2023-09-30T08:53:23.000Z</time>
      </trkpt>
      <trkpt lat="45.99824" lon="6.80111">
        <ele>2127.6000976562</ele>
        <time>2023-09-30T08:53:24.000Z</time>
      </trkpt>
      <trkpt lat="45.99821" lon="6.80111">
        <ele>2127.8000488281</ele>
        <time>2023-09-30T08:53:25.000Z</time>
      </trkpt>
      <trkpt lat="45.99807" lon="6.80108">
        <ele>2127.8000488281</ele>
        <time>2023-09-30T08:53:29.000Z</time>
      </trkpt>
      <trkpt lat="45.99804" lon="6.80105">
        <ele>2127.6000976562</ele>
        <time>2023-09-30T08:53:30.000Z</time>
      </trkpt>
      <trkpt lat="45.99801" lon="6.80102">
        <ele>2127.1999511719</ele>
        <time>2023-09-30T08:53:31.000Z</time>
      </trkpt>
      <trkpt lat="45.99798" lon="6.80099">
        <ele>2127</ele>
        <time>2023-09-30T08:53:32.000Z</time>
      </trkpt>
      <trkpt lat="45.99795" lon="6.80096">
        <ele>2126.6000976562</ele>
        <time>2023-09-30T08:53:33.000Z</time>
      </trkpt>
      <trkpt lat="45.99788" lon="6.80089">
        <ele>2126.3999023438</ele>
        <time>2023-09-30T08:53:35.000Z</time>
      </trkpt>
      <trkpt lat="45.99784" lon="6.80084">
        <ele>2126.3999023438</ele>
        <time>2023-09-30T08:53:36.000Z</time>
      </trkpt>
      <trkpt lat="45.99781" lon="6.80079">
        <ele>2126.1999511719</ele>
        <time>2023-09-30T08:53:37.000Z</time>
      </trkpt>
      <trkpt lat="45.99777" lon="6.80074">
        <ele>2126</ele>
        <time>2023-09-30T08:53:38.000Z</time>
      </trkpt>
      <trkpt lat="45.99774" lon="6.8007">
        <ele>2125.8000488281</ele>
        <time>2023-09-30T08:53:39.000Z</time>
      </trkpt>
      <trkpt lat="45.99773" lon="6.80069">
        <ele>2125.3999023438</ele>
        <time>2023-09-30T08:53:40.000Z</time>
      </trkpt>
      <trkpt lat="45.99772" lon="6.80069">
        <ele>2124.8000488281</ele>
        <time>2023-09-30T08:53:42.000Z</time>
      </trkpt>
      <trkpt lat="45.99772" lon="6.80069">
        <ele>2124.8000488281</ele>
        <time>2023-09-30T08:53:43.000Z</time>
      </trkpt>
      <trkpt lat="45.99772" lon="6.80069">
        <ele>2124.3999023438</ele>
        <time>2023-09-30T08:53:56.000Z</time>
      </trkpt>
      <trkpt lat="45.99772" lon="6.80069">
        <ele>2123.6000976562</ele>
        <time>2023-09-30T08:53:59.000Z</time>
      </trkpt>
      <trkpt lat="45.99772" lon="6.80069">
        <ele>2122.3999023438</ele>
        <time>2023-09-30T08:54:04.000Z</time>
      </trkpt>
      <trkpt lat="45.99772" lon="6.80068">
        <ele>2122.3999023438</ele>
        <time>2023-09-30T08:54:05.000Z</time>
      </trkpt>
      <trkpt lat="45.99767" lon="6.80062">
        <ele>2121.8000488281</ele>
        <time>2023-09-30T08:54:08.000Z</time>
      </trkpt>
      <trkpt lat="45.99763" lon="6.80059">
        <ele>2121.6000976562</ele>
        <time>2023-09-30T08:54:10.000Z</time>
      </trkpt>
      <trkpt lat="45.99761" lon="6.80057">
        <ele>2121.3999023438</ele>
        <time>2023-09-30T08:54:11.000Z</time>
      </trkpt>
      <trkpt lat="45.99759" lon="6.80056">
        <ele>2121</ele>
        <time>2023-09-30T08:54:12.000Z</time>
      </trkpt>
      <trkpt lat="45.99755" lon="6.80053">
        <ele>2120.6000976562</ele>
        <time>2023-09-30T08:54:14.000Z</time>
      </trkpt>
      <trkpt lat="45.99754" lon="6.80052">
        <ele>2120.6000976562</ele>
        <time>2023-09-30T08:54:15.000Z</time>
      </trkpt>
      <trkpt lat="45.99754" lon="6.80051">
        <ele>2120.1999511719</ele>
        <time>2023-09-30T08:54:16.000Z</time>
      </trkpt>
      <trkpt lat="45.99754" lon="6.80051">
        <ele>2120</ele>
        <time>2023-09-30T08:54:17.000Z</time>
      </trkpt>
      <trkpt lat="45.99754" lon="6.80051">
        <ele>2119.8000488281</ele>
        <time>2023-09-30T08:54:19.000Z</time>
      </trkpt>
      <trkpt lat="45.99753" lon="6.80049">
        <ele>2119.1999511719</ele>
        <time>2023-09-30T08:54:27.000Z</time>
      </trkpt>
      <trkpt lat="45.99753" lon="6.80049">
        <ele>2119</ele>
        <time>2023-09-30T08:54:30.000Z</time>
      </trkpt>
      <trkpt lat="45.99753" lon="6.80049">
        <ele>2119</ele>
        <time>2023-09-30T08:54:45.000Z</time>
      </trkpt>
      <trkpt lat="45.99753" lon="6.80049">
        <ele>2118.6000976562</ele>
        <time>2023-09-30T08:58:05.000Z</time>
      </trkpt>
      <trkpt lat="45.99753" lon="6.80049">
        <ele>2118.6000976562</ele>
        <time>2023-09-30T09:02:20.000Z</time>
      </trkpt>
      <trkpt lat="45.99754" lon="6.8005">
        <ele>2118.6000976562</ele>
        <time>2023-09-30T09:04:13.000Z</time>
      </trkpt>
      <trkpt lat="45.99755" lon="6.80051">
        <ele>2118.6000976562</ele>
        <time>2023-09-30T09:04:15.000Z</time>
      </trkpt>
      <trkpt lat="45.99755" lon="6.80051">
        <ele>2118.8000488281</ele>
        <time>2023-09-30T09:04:16.000Z</time>
      </trkpt>
      <trkpt lat="45.99755" lon="6.80051">
        <ele>2118.6000976562</ele>
        <time>2023-09-30T09:04:19.000Z</time>
      </trkpt>
      <trkpt lat="45.99756" lon="6.80046">
        <ele>2117.3999023438</ele>
        <time>2023-09-30T09:25:01.000Z</time>
      </trkpt>
      <trkpt lat="45.99756" lon="6.80053">
        <ele>2117.1999511719</ele>
        <time>2023-09-30T09:25:07.000Z</time>
      </trkpt>
      <trkpt lat="45.99754" lon="6.80052">
        <ele>2117.6000976562</ele>
        <time>2023-09-30T09:25:22.000Z</time>
      </trkpt>
      <trkpt lat="45.99754" lon="6.80053">
        <ele>2117.3999023438</ele>
        <time>2023-09-30T09:25:31.000Z</time>
      </trkpt>
      <trkpt lat="45.9976" lon="6.80057">
        <ele>2117.8000488281</ele>
        <time>2023-09-30T09:25:42.000Z</time>
      </trkpt>
      <trkpt lat="45.99763" lon="6.80058">
        <ele>2117.8000488281</ele>
        <time>2023-09-30T09:25:44.000Z</time>
      </trkpt>
      <trkpt lat="45.99763" lon="6.80058">
        <ele>2118.1999511719</ele>
        <time>2023-09-30T09:25:47.000Z</time>
      </trkpt>
      <trkpt lat="45.99765" lon="6.8006">
        <ele>2118.3999023438</ele>
        <time>2023-09-30T09:25:50.000Z</time>
      </trkpt>
      <trkpt lat="45.99766" lon="6.80061">
        <ele>2118.6000976562</ele>
        <time>2023-09-30T09:25:51.000Z</time>
      </trkpt>
      <trkpt lat="45.99768" lon="6.80063">
        <ele>2118.6000976562</ele>
        <time>2023-09-30T09:25:53.000Z</time>
      </trkpt>
      <trkpt lat="45.99768" lon="6.80063">
        <ele>2118.8000488281</ele>
        <time>2023-09-30T09:25:54.000Z</time>
      </trkpt>
      <trkpt lat="45.9977" lon="6.80064">
        <ele>2119</ele>
        <time>2023-09-30T09:25:58.000Z</time>
      </trkpt>
      <trkpt lat="45.99772" lon="6.80066">
        <ele>2119.3999023438</ele>
        <time>2023-09-30T09:26:03.000Z</time>
      </trkpt>
      <trkpt lat="45.99772" lon="6.80066">
        <ele>2119.3999023438</ele>
        <time>2023-09-30T09:26:05.000Z</time>
      </trkpt>
      <trkpt lat="45.99774" lon="6.80069">
        <ele>2119.3999023438</ele>
        <time>2023-09-30T09:26:09.000Z</time>
      </trkpt>
      <trkpt lat="45.99775" lon="6.8007">
        <ele>2119.3999023438</ele>
        <time>2023-09-30T09:26:10.000Z</time>
      </trkpt>
      <trkpt lat="45.99777" lon="6.80074">
        <ele>2119.6000976562</ele>
        <time>2023-09-30T09:26:13.000Z</time>
      </trkpt>
      <trkpt lat="45.99778" lon="6.80076">
        <ele>2119.6000976562</ele>
        <time>2023-09-30T09:26:14.000Z</time>
      </trkpt>
      <trkpt lat="45.99779" lon="6.80077">
        <ele>2119.6000976562</ele>
        <time>2023-09-30T09:26:15.000Z</time>
      </trkpt>
      <trkpt lat="45.99781" lon="6.80079">
        <ele>2119.8000488281</ele>
        <time>2023-09-30T09:26:17.000Z</time>
      </trkpt>
      <trkpt lat="45.99787" lon="6.80088">
        <ele>2120.3999023438</ele>
        <time>2023-09-30T09:26:23.000Z</time>
      </trkpt>
      <trkpt lat="45.99788" lon="6.80089">
        <ele>2120.6000976562</ele>
        <time>2023-09-30T09:26:24.000Z</time>
      </trkpt>
      <trkpt lat="45.99789" lon="6.80089">
        <ele>2120.8000488281</ele>
        <time>2023-09-30T09:26:25.000Z</time>
      </trkpt>
      <trkpt lat="45.99791" lon="6.80092">
        <ele>2121.1999511719</ele>
        <time>2023-09-30T09:26:27.000Z</time>
      </trkpt>
      <trkpt lat="45.99792" lon="6.80093">
        <ele>2121.3999023438</ele>
        <time>2023-09-30T09:26:28.000Z</time>
      </trkpt>
      <trkpt lat="45.99792" lon="6.80094">
        <ele>2121.6000976562</ele>
        <time>2023-09-30T09:26:29.000Z</time>
      </trkpt>
      <trkpt lat="45.99793" lon="6.80095">
        <ele>2121.6000976562</ele>
        <time>2023-09-30T09:26:30.000Z</time>
      </trkpt>
      <trkpt lat="45.99794" lon="6.80096">
        <ele>2121.8000488281</ele>
        <time>2023-09-30T09:26:31.000Z</time>
      </trkpt>
      <trkpt lat="45.99795" lon="6.80096">
        <ele>2121.8000488281</ele>
        <time>2023-09-30T09:26:32.000Z</time>
      </trkpt>
      <trkpt lat="45.99804" lon="6.80105">
        <ele>2122.6000976562</ele>
        <time>2023-09-30T09:26:39.000Z</time>
      </trkpt>
      <trkpt lat="45.99806" lon="6.80108">
        <ele>2123.1999511719</ele>
        <time>2023-09-30T09:26:42.000Z</time>
      </trkpt>
      <trkpt lat="45.99808" lon="6.80109">
        <ele>2123.3999023438</ele>
        <time>2023-09-30T09:26:44.000Z</time>
      </trkpt>
      <trkpt lat="45.99809" lon="6.8011">
        <ele>2123.3999023438</ele>
        <time>2023-09-30T09:26:45.000Z</time>
      </trkpt>
      <trkpt lat="45.9981" lon="6.80111">
        <ele>2123.3999023438</ele>
        <time>2023-09-30T09:26:46.000Z</time>
      </trkpt>
      <trkpt lat="45.99811" lon="6.80111">
        <ele>2123.6000976562</ele>
        <time>2023-09-30T09:26:47.000Z</time>
      </trkpt>
      <trkpt lat="45.99813" lon="6.80111">
        <ele>2123.6000976562</ele>
        <time>2023-09-30T09:26:48.000Z</time>
      </trkpt>
      <trkpt lat="45.99814" lon="6.80112">
        <ele>2123.6000976562</ele>
        <time>2023-09-30T09:26:49.000Z</time>
      </trkpt>
      <trkpt lat="45.99816" lon="6.80112">
        <ele>2123.6000976562</ele>
        <time>2023-09-30T09:26:50.000Z</time>
      </trkpt>
      <trkpt lat="45.99817" lon="6.80113">
        <ele>2123.8000488281</ele>
        <time>2023-09-30T09:26:51.000Z</time>
      </trkpt>
      <trkpt lat="45.99818" lon="6.80113">
        <ele>2123.8000488281</ele>
        <time>2023-09-30T09:26:52.000Z</time>
      </trkpt>
      <trkpt lat="45.99819" lon="6.80113">
        <ele>2123.8000488281</ele>
        <time>2023-09-30T09:26:53.000Z</time>
      </trkpt>
      <trkpt lat="45.9982" lon="6.80113">
        <ele>2123.8000488281</ele>
        <time>2023-09-30T09:26:54.000Z</time>
      </trkpt>
      <trkpt lat="45.99822" lon="6.80112">
        <ele>2124</ele>
        <time>2023-09-30T09:26:55.000Z</time>
      </trkpt>
      <trkpt lat="45.99831" lon="6.80111">
        <ele>2124.1999511719</ele>
        <time>2023-09-30T09:27:01.000Z</time>
      </trkpt>
      <trkpt lat="45.99832" lon="6.80111">
        <ele>2124.1999511719</ele>
        <time>2023-09-30T09:27:02.000Z</time>
      </trkpt>
      <trkpt lat="45.99833" lon="6.80111">
        <ele>2124.6000976562</ele>
        <time>2023-09-30T09:27:03.000Z</time>
      </trkpt>
      <trkpt lat="45.99838" lon="6.80113">
        <ele>2125.1999511719</ele>
        <time>2023-09-30T09:27:07.000Z</time>
      </trkpt>
      <trkpt lat="45.99839" lon="6.80114">
        <ele>2125.1999511719</ele>
        <time>2023-09-30T09:27:08.000Z</time>
      </trkpt>
      <trkpt lat="45.99841" lon="6.80116">
        <ele>2125.1999511719</ele>
        <time>2023-09-30T09:27:09.000Z</time>
      </trkpt>
      <trkpt lat="45.99842" lon="6.80117">
        <ele>2125.3999023438</ele>
        <time>2023-09-30T09:27:10.000Z</time>
      </trkpt>
      <trkpt lat="45.99848" lon="6.80131">
        <ele>2125.3999023438</ele>
        <time>2023-09-30T09:27:15.000Z</time>
      </trkpt>
      <trkpt lat="45.99849" lon="6.80137">
        <ele>2125</ele>
        <time>2023-09-30T09:27:17.000Z</time>
      </trkpt>
      <trkpt lat="45.9985" lon="6.80139">
        <ele>2124.8000488281</ele>
        <time>2023-09-30T09:27:18.000Z</time>
      </trkpt>
      <trkpt lat="45.99851" lon="6.80142">
        <ele>2124.6000976562</ele>
        <time>2023-09-30T09:27:19.000Z</time>
      </trkpt>
      <trkpt lat="45.99852" lon="6.80145">
        <ele>2124.6000976562</ele>
        <time>2023-09-30T09:27:20.000Z</time>
      </trkpt>
      <trkpt lat="45.99853" lon="6.8015">
        <ele>2124.1999511719</ele>
        <time>2023-09-30T09:27:22.000Z</time>
      </trkpt>
      <trkpt lat="45.99854" lon="6.80153">
        <ele>2124.1999511719</ele>
        <time>2023-09-30T09:27:23.000Z</time>
      </trkpt>
      <trkpt lat="45.99854" lon="6.80155">
        <ele>2124.1999511719</ele>
        <time>2023-09-30T09:27:24.000Z</time>
      </trkpt>
      <trkpt lat="45.99855" lon="6.80157">
        <ele>2124.1999511719</ele>
        <time>2023-09-30T09:27:25.000Z</time>
      </trkpt>
      <trkpt lat="45.99856" lon="6.80159">
        <ele>2124.1999511719</ele>
        <time>2023-09-30T09:27:26.000Z</time>
      </trkpt>
      <trkpt lat="45.99857" lon="6.80161">
        <ele>2124.1999511719</ele>
        <time>2023-09-30T09:27:27.000Z</time>
      </trkpt>
      <trkpt lat="45.99863" lon="6.80171">
        <ele>2124.1999511719</ele>
        <time>2023-09-30T09:27:30.000Z</time>
      </trkpt>
      <trkpt lat="45.99865" lon="6.80175">
        <ele>2124.1999511719</ele>
        <time>2023-09-30T09:27:31.000Z</time>
      </trkpt>
      <trkpt lat="45.99873" lon="6.80191">
        <ele>2124.6000976562</ele>
        <time>2023-09-30T09:27:35.000Z</time>
      </trkpt>
      <trkpt lat="45.99875" lon="6.80195">
        <ele>2124.6000976562</ele>
        <time>2023-09-30T09:27:36.000Z</time>
      </trkpt>
      <trkpt lat="45.99877" lon="6.80198">
        <ele>2124.3999023438</ele>
        <time>2023-09-30T09:27:37.000Z</time>
      </trkpt>
      <trkpt lat="45.99878" lon="6.80201">
        <ele>2124.1999511719</ele>
        <time>2023-09-30T09:27:38.000Z</time>
      </trkpt>
      <trkpt lat="45.99879" lon="6.80204">
        <ele>2124.1999511719</ele>
        <time>2023-09-30T09:27:39.000Z</time>
      </trkpt>
      <trkpt lat="45.99881" lon="6.80206">
        <ele>2124.1999511719</ele>
        <time>2023-09-30T09:27:40.000Z</time>
      </trkpt>
      <trkpt lat="45.99883" lon="6.80208">
        <ele>2124.1999511719</ele>
        <time>2023-09-30T09:27:41.000Z</time>
      </trkpt>
      <trkpt lat="45.99888" lon="6.80216">
        <ele>2124.3999023438</ele>
        <time>2023-09-30T09:27:44.000Z</time>
      </trkpt>
      <trkpt lat="45.9989" lon="6.80218">
        <ele>2124.3999023438</ele>
        <time>2023-09-30T09:27:45.000Z</time>
      </trkpt>
      <trkpt lat="45.99891" lon="6.80221">
        <ele>2124.6000976562</ele>
        <time>2023-09-30T09:27:46.000Z</time>
      </trkpt>
      <trkpt lat="45.99892" lon="6.80223">
        <ele>2124.6000976562</ele>
        <time>2023-09-30T09:27:47.000Z</time>
      </trkpt>
      <trkpt lat="45.999" lon="6.80238">
        <ele>2125.3999023438</ele>
        <time>2023-09-30T09:27:52.000Z</time>
      </trkpt>
      <trkpt lat="45.99903" lon="6.80244">
        <ele>2125.3999023438</ele>
        <time>2023-09-30T09:27:54.000Z</time>
      </trkpt>
      <trkpt lat="45.99904" lon="6.80246">
        <ele>2125.3999023438</ele>
        <time>2023-09-30T09:27:55.000Z</time>
      </trkpt>
      <trkpt lat="45.99907" lon="6.8025">
        <ele>2125.3999023438</ele>
        <time>2023-09-30T09:27:57.000Z</time>
      </trkpt>
      <trkpt lat="45.99909" lon="6.80253">
        <ele>2125.3999023438</ele>
        <time>2023-09-30T09:27:58.000Z</time>
      </trkpt>
      <trkpt lat="45.99911" lon="6.80256">
        <ele>2125.3999023438</ele>
        <time>2023-09-30T09:27:59.000Z</time>
      </trkpt>
      <trkpt lat="45.99912" lon="6.80257">
        <ele>2125.6000976562</ele>
        <time>2023-09-30T09:28:00.000Z</time>
      </trkpt>
      <trkpt lat="45.99914" lon="6.8026">
        <ele>2125.6000976562</ele>
        <time>2023-09-30T09:28:01.000Z</time>
      </trkpt>
      <trkpt lat="45.99915" lon="6.80262">
        <ele>2125.6000976562</ele>
        <time>2023-09-30T09:28:02.000Z</time>
      </trkpt>
      <trkpt lat="45.99916" lon="6.80264">
        <ele>2125.6000976562</ele>
        <time>2023-09-30T09:28:03.000Z</time>
      </trkpt>
      <trkpt lat="45.99918" lon="6.80266">
        <ele>2125.8000488281</ele>
        <time>2023-09-30T09:28:04.000Z</time>
      </trkpt>
      <trkpt lat="45.99919" lon="6.80268">
        <ele>2126.3999023438</ele>
        <time>2023-09-30T09:28:05.000Z</time>
      </trkpt>
      <trkpt lat="45.99921" lon="6.80269">
        <ele>2126.6000976562</ele>
        <time>2023-09-30T09:28:06.000Z</time>
      </trkpt>
      <trkpt lat="45.99922" lon="6.80271">
        <ele>2126.6000976562</ele>
        <time>2023-09-30T09:28:07.000Z</time>
      </trkpt>
      <trkpt lat="45.99924" lon="6.80273">
        <ele>2126.8000488281</ele>
        <time>2023-09-30T09:28:08.000Z</time>
      </trkpt>
      <trkpt lat="45.99925" lon="6.80275">
        <ele>2127</ele>
        <time>2023-09-30T09:28:09.000Z</time>
      </trkpt>
      <trkpt lat="45.99926" lon="6.80277">
        <ele>2127</ele>
        <time>2023-09-30T09:28:10.000Z</time>
      </trkpt>
      <trkpt lat="45.99928" lon="6.80279">
        <ele>2127</ele>
        <time>2023-09-30T09:28:11.000Z</time>
      </trkpt>
      <trkpt lat="45.99929" lon="6.80281">
        <ele>2127</ele>
        <time>2023-09-30T09:28:12.000Z</time>
      </trkpt>
      <trkpt lat="45.99938" lon="6.80292">
        <ele>2127</ele>
        <time>2023-09-30T09:28:17.000Z</time>
      </trkpt>
      <trkpt lat="45.99945" lon="6.80297">
        <ele>2127</ele>
        <time>2023-09-30T09:28:22.000Z</time>
      </trkpt>
      <trkpt lat="45.99947" lon="6.80297">
        <ele>2127</ele>
        <time>2023-09-30T09:28:23.000Z</time>
      </trkpt>
      <trkpt lat="45.99949" lon="6.80296">
        <ele>2127.1999511719</ele>
        <time>2023-09-30T09:28:24.000Z</time>
      </trkpt>
      <trkpt lat="45.99951" lon="6.80295">
        <ele>2127.1999511719</ele>
        <time>2023-09-30T09:28:25.000Z</time>
      </trkpt>
      <trkpt lat="45.99953" lon="6.80295">
        <ele>2127.1999511719</ele>
        <time>2023-09-30T09:28:26.000Z</time>
      </trkpt>
      <trkpt lat="45.99954" lon="6.80295">
        <ele>2127.3999023438</ele>
        <time>2023-09-30T09:28:27.000Z</time>
      </trkpt>
      <trkpt lat="45.99956" lon="6.80295">
        <ele>2127.3999023438</ele>
        <time>2023-09-30T09:28:28.000Z</time>
      </trkpt>
      <trkpt lat="45.99964" lon="6.80297">
        <ele>2127.8000488281</ele>
        <time>2023-09-30T09:28:33.000Z</time>
      </trkpt>
      <trkpt lat="45.99966" lon="6.80298">
        <ele>2128</ele>
        <time>2023-09-30T09:28:34.000Z</time>
      </trkpt>
      <trkpt lat="45.99967" lon="6.803">
        <ele>2128</ele>
        <time>2023-09-30T09:28:35.000Z</time>
      </trkpt>
      <trkpt lat="45.99968" lon="6.80302">
        <ele>2128.1999511719</ele>
        <time>2023-09-30T09:28:36.000Z</time>
      </trkpt>
      <trkpt lat="45.99969" lon="6.80304">
        <ele>2128.3999023438</ele>
        <time>2023-09-30T09:28:37.000Z</time>
      </trkpt>
      <trkpt lat="45.99975" lon="6.80314">
        <ele>2128.8000488281</ele>
        <time>2023-09-30T09:28:42.000Z</time>
      </trkpt>
      <trkpt lat="45.99982" lon="6.80329">
        <ele>2129.3999023438</ele>
        <time>2023-09-30T09:28:48.000Z</time>
      </trkpt>
      <trkpt lat="45.99983" lon="6.80331">
        <ele>2129.3999023438</ele>
        <time>2023-09-30T09:28:49.000Z</time>
      </trkpt>
      <trkpt lat="45.99988" lon="6.80346">
        <ele>2130</ele>
        <time>2023-09-30T09:28:55.000Z</time>
      </trkpt>
      <trkpt lat="45.99988" lon="6.80348">
        <ele>2130</ele>
        <time>2023-09-30T09:28:56.000Z</time>
      </trkpt>
      <trkpt lat="45.99989" lon="6.8035">
        <ele>2130</ele>
        <time>2023-09-30T09:28:57.000Z</time>
      </trkpt>
      <trkpt lat="45.99993" lon="6.80362">
        <ele>2130.6000976562</ele>
        <time>2023-09-30T09:29:02.000Z</time>
      </trkpt>
      <trkpt lat="45.99994" lon="6.80365">
        <ele>2130.6000976562</ele>
        <time>2023-09-30T09:29:03.000Z</time>
      </trkpt>
      <trkpt lat="46.00002" lon="6.80388">
        <ele>2131</ele>
        <time>2023-09-30T09:29:09.000Z</time>
      </trkpt>
      <trkpt lat="46.00012" lon="6.8042">
        <ele>2131</ele>
        <time>2023-09-30T09:29:14.000Z</time>
      </trkpt>
      <trkpt lat="46.00015" lon="6.80425">
        <ele>2130.8000488281</ele>
        <time>2023-09-30T09:29:15.000Z</time>
      </trkpt>
      <trkpt lat="46.00018" lon="6.80429">
        <ele>2130.6000976562</ele>
        <time>2023-09-30T09:29:16.000Z</time>
      </trkpt>
      <trkpt lat="46.0002" lon="6.80432">
        <ele>2130.1999511719</ele>
        <time>2023-09-30T09:29:17.000Z</time>
      </trkpt>
      <trkpt lat="46.00024" lon="6.80434">
        <ele>2129.8000488281</ele>
        <time>2023-09-30T09:29:18.000Z</time>
      </trkpt>
      <trkpt lat="46.00028" lon="6.80433">
        <ele>2129.6000976562</ele>
        <time>2023-09-30T09:29:19.000Z</time>
      </trkpt>
      <trkpt lat="46.00033" lon="6.80433">
        <ele>2129.3999023438</ele>
        <time>2023-09-30T09:29:20.000Z</time>
      </trkpt>
      <trkpt lat="46.00038" lon="6.80433">
        <ele>2129.1999511719</ele>
        <time>2023-09-30T09:29:21.000Z</time>
      </trkpt>
      <trkpt lat="46.00043" lon="6.80433">
        <ele>2129</ele>
        <time>2023-09-30T09:29:22.000Z</time>
      </trkpt>
      <trkpt lat="46.00049" lon="6.80433">
        <ele>2128.1999511719</ele>
        <time>2023-09-30T09:29:23.000Z</time>
      </trkpt>
      <trkpt lat="46.00053" lon="6.80433">
        <ele>2127</ele>
        <time>2023-09-30T09:29:24.000Z</time>
      </trkpt>
      <trkpt lat="46.00057" lon="6.80435">
        <ele>2126</ele>
        <time>2023-09-30T09:29:25.000Z</time>
      </trkpt>
      <trkpt lat="46.00061" lon="6.80438">
        <ele>2125.8000488281</ele>
        <time>2023-09-30T09:29:26.000Z</time>
      </trkpt>
      <trkpt lat="46.00065" lon="6.80442">
        <ele>2125.1999511719</ele>
        <time>2023-09-30T09:29:27.000Z</time>
      </trkpt>
      <trkpt lat="46.00068" lon="6.80447">
        <ele>2125</ele>
        <time>2023-09-30T09:29:28.000Z</time>
      </trkpt>
      <trkpt lat="46.00071" lon="6.80453">
        <ele>2124</ele>
        <time>2023-09-30T09:29:29.000Z</time>
      </trkpt>
      <trkpt lat="46.00073" lon="6.80457">
        <ele>2123.8000488281</ele>
        <time>2023-09-30T09:29:30.000Z</time>
      </trkpt>
      <trkpt lat="46.00073" lon="6.80457">
        <ele>2123.1999511719</ele>
        <time>2023-09-30T09:29:31.000Z</time>
      </trkpt>
      <trkpt lat="46.00079" lon="6.80464">
        <ele>2123</ele>
        <time>2023-09-30T09:29:32.000Z</time>
      </trkpt>
      <trkpt lat="46.00081" lon="6.80467">
        <ele>2122.6000976562</ele>
        <time>2023-09-30T09:29:33.000Z</time>
      </trkpt>
      <trkpt lat="46.00084" lon="6.8047">
        <ele>2122.3999023438</ele>
        <time>2023-09-30T09:29:34.000Z</time>
      </trkpt>
      <trkpt lat="46.00086" lon="6.80472">
        <ele>2122.1999511719</ele>
        <time>2023-09-30T09:29:35.000Z</time>
      </trkpt>
      <trkpt lat="46.00089" lon="6.80474">
        <ele>2121.8000488281</ele>
        <time>2023-09-30T09:29:36.000Z</time>
      </trkpt>
      <trkpt lat="46.00095" lon="6.80478">
        <ele>2121.3999023438</ele>
        <time>2023-09-30T09:29:38.000Z</time>
      </trkpt>
      <trkpt lat="46.00099" lon="6.80481">
        <ele>2121.3999023438</ele>
        <time>2023-09-30T09:29:39.000Z</time>
      </trkpt>
      <trkpt lat="46.00109" lon="6.80493">
        <ele>2121</ele>
        <time>2023-09-30T09:29:42.000Z</time>
      </trkpt>
      <trkpt lat="46.00115" lon="6.80499">
        <ele>2120.3999023438</ele>
        <time>2023-09-30T09:29:44.000Z</time>
      </trkpt>
      <trkpt lat="46.00117" lon="6.80501">
        <ele>2120</ele>
        <time>2023-09-30T09:29:45.000Z</time>
      </trkpt>
      <trkpt lat="46.0012" lon="6.80503">
        <ele>2119.8000488281</ele>
        <time>2023-09-30T09:29:46.000Z</time>
      </trkpt>
      <trkpt lat="46.00122" lon="6.80505">
        <ele>2119.6000976562</ele>
        <time>2023-09-30T09:29:47.000Z</time>
      </trkpt>
      <trkpt lat="46.00124" lon="6.80507">
        <ele>2119.3999023438</ele>
        <time>2023-09-30T09:29:48.000Z</time>
      </trkpt>
      <trkpt lat="46.0013" lon="6.80512">
        <ele>2119.3999023438</ele>
        <time>2023-09-30T09:29:50.000Z</time>
      </trkpt>
      <trkpt lat="46.00134" lon="6.80515">
        <ele>2119.3999023438</ele>
        <time>2023-09-30T09:29:52.000Z</time>
      </trkpt>
      <trkpt lat="46.00136" lon="6.80516">
        <ele>2119.3999023438</ele>
        <time>2023-09-30T09:29:53.000Z</time>
      </trkpt>
      <trkpt lat="46.00136" lon="6.80517">
        <ele>2119.3999023438</ele>
        <time>2023-09-30T09:29:54.000Z</time>
      </trkpt>
      <trkpt lat="46.00137" lon="6.80518">
        <ele>2119.1999511719</ele>
        <time>2023-09-30T09:29:55.000Z</time>
      </trkpt>
      <trkpt lat="46.00136" lon="6.80518">
        <ele>2119.1999511719</ele>
        <time>2023-09-30T09:29:56.000Z</time>
      </trkpt>
      <trkpt lat="46.00137" lon="6.80518">
        <ele>2119</ele>
        <time>2023-09-30T09:30:01.000Z</time>
      </trkpt>
      <trkpt lat="46.00137" lon="6.80518">
        <ele>2118.8000488281</ele>
        <time>2023-09-30T09:30:15.000Z</time>
      </trkpt>
      <trkpt lat="46.00138" lon="6.80518">
        <ele>2118.8000488281</ele>
        <time>2023-09-30T09:30:16.000Z</time>
      </trkpt>
      <trkpt lat="46.0014" lon="6.80521">
        <ele>2118.8000488281</ele>
        <time>2023-09-30T09:30:19.000Z</time>
      </trkpt>
      <trkpt lat="46.00142" lon="6.80522">
        <ele>2118.8000488281</ele>
        <time>2023-09-30T09:30:20.000Z</time>
      </trkpt>
      <trkpt lat="46.00143" lon="6.80524">
        <ele>2118.6000976562</ele>
        <time>2023-09-30T09:30:22.000Z</time>
      </trkpt>
      <trkpt lat="46.00148" lon="6.80528">
        <ele>2118.8000488281</ele>
        <time>2023-09-30T09:30:26.000Z</time>
      </trkpt>
      <trkpt lat="46.00151" lon="6.80532">
        <ele>2118.3999023438</ele>
        <time>2023-09-30T09:30:30.000Z</time>
      </trkpt>
      <trkpt lat="46.00156" lon="6.80538">
        <ele>2118.6000976562</ele>
        <time>2023-09-30T09:30:35.000Z</time>
      </trkpt>
      <trkpt lat="46.00158" lon="6.80542">
        <ele>2118.3999023438</ele>
        <time>2023-09-30T09:30:38.000Z</time>
      </trkpt>
      <trkpt lat="46.00159" lon="6.80544">
        <ele>2118.3999023438</ele>
        <time>2023-09-30T09:30:39.000Z</time>
      </trkpt>
      <trkpt lat="46.00162" lon="6.8055">
        <ele>2118.6000976562</ele>
        <time>2023-09-30T09:30:43.000Z</time>
      </trkpt>
      <trkpt lat="46.00165" lon="6.80555">
        <ele>2118.3999023438</ele>
        <time>2023-09-30T09:30:46.000Z</time>
      </trkpt>
      <trkpt lat="46.00168" lon="6.80564">
        <ele>2118.1999511719</ele>
        <time>2023-09-30T09:30:50.000Z</time>
      </trkpt>
      <trkpt lat="46.00169" lon="6.80567">
        <ele>2118.3999023438</ele>
        <time>2023-09-30T09:30:51.000Z</time>
      </trkpt>
      <trkpt lat="46.00176" lon="6.80581">
        <ele>2118.1999511719</ele>
        <time>2023-09-30T09:30:55.000Z</time>
      </trkpt>
      <trkpt lat="46.00179" lon="6.80583">
        <ele>2118</ele>
        <time>2023-09-30T09:30:56.000Z</time>
      </trkpt>
      <trkpt lat="46.00181" lon="6.80584">
        <ele>2118</ele>
        <time>2023-09-30T09:30:57.000Z</time>
      </trkpt>
      <trkpt lat="46.00184" lon="6.80585">
        <ele>2118</ele>
        <time>2023-09-30T09:30:58.000Z</time>
      </trkpt>
      <trkpt lat="46.00184" lon="6.80585">
        <ele>2118</ele>
        <time>2023-09-30T09:30:59.000Z</time>
      </trkpt>
      <trkpt lat="46.0019" lon="6.80584">
        <ele>2118</ele>
        <time>2023-09-30T09:31:00.000Z</time>
      </trkpt>
      <trkpt lat="46.00208" lon="6.80584">
        <ele>2118.3999023438</ele>
        <time>2023-09-30T09:31:06.000Z</time>
      </trkpt>
      <trkpt lat="46.0021" lon="6.80585">
        <ele>2118.6000976562</ele>
        <time>2023-09-30T09:31:07.000Z</time>
      </trkpt>
      <trkpt lat="46.00213" lon="6.80587">
        <ele>2118.6000976562</ele>
        <time>2023-09-30T09:31:08.000Z</time>
      </trkpt>
      <trkpt lat="46.00225" lon="6.80596">
        <ele>2118.8000488281</ele>
        <time>2023-09-30T09:31:12.000Z</time>
      </trkpt>
      <trkpt lat="46.00228" lon="6.80598">
        <ele>2118.8000488281</ele>
        <time>2023-09-30T09:31:13.000Z</time>
      </trkpt>
      <trkpt lat="46.00236" lon="6.80603">
        <ele>2118.6000976562</ele>
        <time>2023-09-30T09:31:15.000Z</time>
      </trkpt>
      <trkpt lat="46.0024" lon="6.80608">
        <ele>2118.1999511719</ele>
        <time>2023-09-30T09:31:16.000Z</time>
      </trkpt>
      <trkpt lat="46.00242" lon="6.80611">
        <ele>2117.6000976562</ele>
        <time>2023-09-30T09:31:17.000Z</time>
      </trkpt>
      <trkpt lat="46.00243" lon="6.80613">
        <ele>2117.3999023438</ele>
        <time>2023-09-30T09:31:18.000Z</time>
      </trkpt>
      <trkpt lat="46.00243" lon="6.80615">
        <ele>2116.6000976562</ele>
        <time>2023-09-30T09:31:19.000Z</time>
      </trkpt>
      <trkpt lat="46.00243" lon="6.80618">
        <ele>2116.1999511719</ele>
        <time>2023-09-30T09:31:20.000Z</time>
      </trkpt>
      <trkpt lat="46.00242" lon="6.80621">
        <ele>2116</ele>
        <time>2023-09-30T09:31:21.000Z</time>
      </trkpt>
      <trkpt lat="46.00242" lon="6.80623">
        <ele>2115.8000488281</ele>
        <time>2023-09-30T09:31:22.000Z</time>
      </trkpt>
      <trkpt lat="46.00243" lon="6.80626">
        <ele>2115.3999023438</ele>
        <time>2023-09-30T09:31:23.000Z</time>
      </trkpt>
      <trkpt lat="46.00248" lon="6.80636">
        <ele>2115</ele>
        <time>2023-09-30T09:31:27.000Z</time>
      </trkpt>
      <trkpt lat="46.0025" lon="6.80638">
        <ele>2114.8000488281</ele>
        <time>2023-09-30T09:31:28.000Z</time>
      </trkpt>
      <trkpt lat="46.00251" lon="6.8064">
        <ele>2114.6000976562</ele>
        <time>2023-09-30T09:31:29.000Z</time>
      </trkpt>
      <trkpt lat="46.00252" lon="6.80642">
        <ele>2114.6000976562</ele>
        <time>2023-09-30T09:31:30.000Z</time>
      </trkpt>
      <trkpt lat="46.00262" lon="6.80656">
        <ele>2114.8000488281</ele>
        <time>2023-09-30T09:31:36.000Z</time>
      </trkpt>
      <trkpt lat="46.00268" lon="6.80658">
        <ele>2114.8000488281</ele>
        <time>2023-09-30T09:31:38.000Z</time>
      </trkpt>
      <trkpt lat="46.00271" lon="6.80658">
        <ele>2114.8000488281</ele>
        <time>2023-09-30T09:31:39.000Z</time>
      </trkpt>
      <trkpt lat="46.00274" lon="6.80657">
        <ele>2115</ele>
        <time>2023-09-30T09:31:40.000Z</time>
      </trkpt>
      <trkpt lat="46.00276" lon="6.80655">
        <ele>2115</ele>
        <time>2023-09-30T09:31:41.000Z</time>
      </trkpt>
      <trkpt lat="46.00279" lon="6.80654">
        <ele>2114.8000488281</ele>
        <time>2023-09-30T09:31:42.000Z</time>
      </trkpt>
      <trkpt lat="46.00283" lon="6.80653">
        <ele>2114.6000976562</ele>
        <time>2023-09-30T09:31:44.000Z</time>
      </trkpt>
      <trkpt lat="46.00285" lon="6.80654">
        <ele>2114.6000976562</ele>
        <time>2023-09-30T09:31:45.000Z</time>
      </trkpt>
      <trkpt lat="46.00286" lon="6.80657">
        <ele>2114.1999511719</ele>
        <time>2023-09-30T09:31:46.000Z</time>
      </trkpt>
      <trkpt lat="46.00288" lon="6.80668">
        <ele>2113.6000976562</ele>
        <time>2023-09-30T09:31:49.000Z</time>
      </trkpt>
      <trkpt lat="46.00288" lon="6.8067">
        <ele>2113</ele>
        <time>2023-09-30T09:31:50.000Z</time>
      </trkpt>
      <trkpt lat="46.00289" lon="6.80673">
        <ele>2112.6000976562</ele>
        <time>2023-09-30T09:31:51.000Z</time>
      </trkpt>
      <trkpt lat="46.00289" lon="6.80675">
        <ele>2112</ele>
        <time>2023-09-30T09:31:52.000Z</time>
      </trkpt>
      <trkpt lat="46.0029" lon="6.80676">
        <ele>2111</ele>
        <time>2023-09-30T09:31:53.000Z</time>
      </trkpt>
      <trkpt lat="46.0029" lon="6.80678">
        <ele>2110.8000488281</ele>
        <time>2023-09-30T09:31:54.000Z</time>
      </trkpt>
      <trkpt lat="46.00291" lon="6.80679">
        <ele>2110.3999023438</ele>
        <time>2023-09-30T09:31:55.000Z</time>
      </trkpt>
      <trkpt lat="46.00292" lon="6.80678">
        <ele>2109.8000488281</ele>
        <time>2023-09-30T09:31:56.000Z</time>
      </trkpt>
      <trkpt lat="46.00293" lon="6.80677">
        <ele>2109.1999511719</ele>
        <time>2023-09-30T09:31:57.000Z</time>
      </trkpt>
      <trkpt lat="46.00294" lon="6.80675">
        <ele>2108.1999511719</ele>
        <time>2023-09-30T09:31:58.000Z</time>
      </trkpt>
      <trkpt lat="46.00296" lon="6.80672">
        <ele>2107.8000488281</ele>
        <time>2023-09-30T09:31:59.000Z</time>
      </trkpt>
      <trkpt lat="46.00297" lon="6.8067">
        <ele>2107.3999023438</ele>
        <time>2023-09-30T09:32:00.000Z</time>
      </trkpt>
      <trkpt lat="46.00298" lon="6.80668">
        <ele>2107.1999511719</ele>
        <time>2023-09-30T09:32:01.000Z</time>
      </trkpt>
      <trkpt lat="46.00299" lon="6.80666">
        <ele>2106.8000488281</ele>
        <time>2023-09-30T09:32:02.000Z</time>
      </trkpt>
      <trkpt lat="46.003" lon="6.80664">
        <ele>2106.3999023438</ele>
        <time>2023-09-30T09:32:03.000Z</time>
      </trkpt>
      <trkpt lat="46.00301" lon="6.80663">
        <ele>2106</ele>
        <time>2023-09-30T09:32:04.000Z</time>
      </trkpt>
      <trkpt lat="46.00302" lon="6.80661">
        <ele>2105.8000488281</ele>
        <time>2023-09-30T09:32:05.000Z</time>
      </trkpt>
      <trkpt lat="46.00303" lon="6.80659">
        <ele>2105</ele>
        <time>2023-09-30T09:32:06.000Z</time>
      </trkpt>
      <trkpt lat="46.00305" lon="6.80654">
        <ele>2104.1999511719</ele>
        <time>2023-09-30T09:32:08.000Z</time>
      </trkpt>
      <trkpt lat="46.00307" lon="6.8065">
        <ele>2103.3999023438</ele>
        <time>2023-09-30T09:32:09.000Z</time>
      </trkpt>
      <trkpt lat="46.00309" lon="6.80645">
        <ele>2102.8000488281</ele>
        <time>2023-09-30T09:32:11.000Z</time>
      </trkpt>
      <trkpt lat="46.0031" lon="6.80644">
        <ele>2102.6000976562</ele>
        <time>2023-09-30T09:32:12.000Z</time>
      </trkpt>
      <trkpt lat="46.00311" lon="6.80644">
        <ele>2102.1999511719</ele>
        <time>2023-09-30T09:32:13.000Z</time>
      </trkpt>
      <trkpt lat="46.00312" lon="6.80644">
        <ele>2101</ele>
        <time>2023-09-30T09:32:14.000Z</time>
      </trkpt>
      <trkpt lat="46.00312" lon="6.80644">
        <ele>2100.8000488281</ele>
        <time>2023-09-30T09:32:15.000Z</time>
      </trkpt>
      <trkpt lat="46.00313" lon="6.80645">
        <ele>2100.1999511719</ele>
        <time>2023-09-30T09:32:16.000Z</time>
      </trkpt>
      <trkpt lat="46.00313" lon="6.80647">
        <ele>2100</ele>
        <time>2023-09-30T09:32:17.000Z</time>
      </trkpt>
      <trkpt lat="46.00314" lon="6.80655">
        <ele>2099</ele>
        <time>2023-09-30T09:32:20.000Z</time>
      </trkpt>
      <trkpt lat="46.00315" lon="6.80659">
        <ele>2099</ele>
        <time>2023-09-30T09:32:21.000Z</time>
      </trkpt>
      <trkpt lat="46.00315" lon="6.80676">
        <ele>2098.1999511719</ele>
        <time>2023-09-30T09:32:24.000Z</time>
      </trkpt>
      <trkpt lat="46.00312" lon="6.8069">
        <ele>2097.3999023438</ele>
        <time>2023-09-30T09:32:26.000Z</time>
      </trkpt>
      <trkpt lat="46.00311" lon="6.80695">
        <ele>2096.8000488281</ele>
        <time>2023-09-30T09:32:27.000Z</time>
      </trkpt>
      <trkpt lat="46.00307" lon="6.80707">
        <ele>2096</ele>
        <time>2023-09-30T09:32:29.000Z</time>
      </trkpt>
      <trkpt lat="46.00305" lon="6.80715">
        <ele>2095.3999023438</ele>
        <time>2023-09-30T09:32:30.000Z</time>
      </trkpt>
      <trkpt lat="46.00305" lon="6.8073">
        <ele>2094.1999511719</ele>
        <time>2023-09-30T09:32:32.000Z</time>
      </trkpt>
      <trkpt lat="46.00305" lon="6.80737">
        <ele>2093.3999023438</ele>
        <time>2023-09-30T09:32:33.000Z</time>
      </trkpt>
      <trkpt lat="46.00305" lon="6.80744">
        <ele>2092.3999023438</ele>
        <time>2023-09-30T09:32:34.000Z</time>
      </trkpt>
      <trkpt lat="46.00305" lon="6.80751">
        <ele>2092.1999511719</ele>
        <time>2023-09-30T09:32:35.000Z</time>
      </trkpt>
      <trkpt lat="46.00304" lon="6.80757">
        <ele>2091.6000976562</ele>
        <time>2023-09-30T09:32:36.000Z</time>
      </trkpt>
      <trkpt lat="46.00303" lon="6.80762">
        <ele>2091.3999023438</ele>
        <time>2023-09-30T09:32:37.000Z</time>
      </trkpt>
      <trkpt lat="46.00302" lon="6.80768">
        <ele>2090.6000976562</ele>
        <time>2023-09-30T09:32:38.000Z</time>
      </trkpt>
      <trkpt lat="46.00303" lon="6.80773">
        <ele>2089.6000976562</ele>
        <time>2023-09-30T09:32:39.000Z</time>
      </trkpt>
      <trkpt lat="46.00304" lon="6.80779">
        <ele>2089</ele>
        <time>2023-09-30T09:32:40.000Z</time>
      </trkpt>
      <trkpt lat="46.00305" lon="6.80784">
        <ele>2088.1999511719</ele>
        <time>2023-09-30T09:32:41.000Z</time>
      </trkpt>
      <trkpt lat="46.00305" lon="6.80789">
        <ele>2087.8000488281</ele>
        <time>2023-09-30T09:32:42.000Z</time>
      </trkpt>
      <trkpt lat="46.00304" lon="6.80791">
        <ele>2087.3999023438</ele>
        <time>2023-09-30T09:32:43.000Z</time>
      </trkpt>
      <trkpt lat="46.00305" lon="6.80793">
        <ele>2087.3999023438</ele>
        <time>2023-09-30T09:32:44.000Z</time>
      </trkpt>
      <trkpt lat="46.00305" lon="6.80795">
        <ele>2086.8000488281</ele>
        <time>2023-09-30T09:32:45.000Z</time>
      </trkpt>
      <trkpt lat="46.00305" lon="6.80798">
        <ele>2086.6000976562</ele>
        <time>2023-09-30T09:32:46.000Z</time>
      </trkpt>
      <trkpt lat="46.00304" lon="6.808">
        <ele>2086.3999023438</ele>
        <time>2023-09-30T09:32:47.000Z</time>
      </trkpt>
      <trkpt lat="46.00304" lon="6.80803">
        <ele>2086.1999511719</ele>
        <time>2023-09-30T09:32:48.000Z</time>
      </trkpt>
      <trkpt lat="46.00303" lon="6.80809">
        <ele>2085.8000488281</ele>
        <time>2023-09-30T09:32:50.000Z</time>
      </trkpt>
      <trkpt lat="46.00301" lon="6.80822">
        <ele>2085</ele>
        <time>2023-09-30T09:32:53.000Z</time>
      </trkpt>
      <trkpt lat="46.00301" lon="6.80828">
        <ele>2084.8000488281</ele>
        <time>2023-09-30T09:32:54.000Z</time>
      </trkpt>
      <trkpt lat="46.00302" lon="6.80833">
        <ele>2084.6000976562</ele>
        <time>2023-09-30T09:32:55.000Z</time>
      </trkpt>
      <trkpt lat="46.00305" lon="6.80837">
        <ele>2084.3999023438</ele>
        <time>2023-09-30T09:32:56.000Z</time>
      </trkpt>
      <trkpt lat="46.00308" lon="6.80839">
        <ele>2084.3999023438</ele>
        <time>2023-09-30T09:32:57.000Z</time>
      </trkpt>
      <trkpt lat="46.00311" lon="6.8084">
        <ele>2084.3999023438</ele>
        <time>2023-09-30T09:32:58.000Z</time>
      </trkpt>
      <trkpt lat="46.00319" lon="6.80842">
        <ele>2084.1999511719</ele>
        <time>2023-09-30T09:33:00.000Z</time>
      </trkpt>
      <trkpt lat="46.00325" lon="6.80844">
        <ele>2083.6000976562</ele>
        <time>2023-09-30T09:33:02.000Z</time>
      </trkpt>
      <trkpt lat="46.00328" lon="6.80845">
        <ele>2083.3999023438</ele>
        <time>2023-09-30T09:33:03.000Z</time>
      </trkpt>
      <trkpt lat="46.00329" lon="6.80846">
        <ele>2083</ele>
        <time>2023-09-30T09:33:04.000Z</time>
      </trkpt>
      <trkpt lat="46.00331" lon="6.80848">
        <ele>2083</ele>
        <time>2023-09-30T09:33:05.000Z</time>
      </trkpt>
      <trkpt lat="46.00333" lon="6.80849">
        <ele>2082.8000488281</ele>
        <time>2023-09-30T09:33:06.000Z</time>
      </trkpt>
      <trkpt lat="46.00338" lon="6.80856">
        <ele>2082.8000488281</ele>
        <time>2023-09-30T09:33:09.000Z</time>
      </trkpt>
      <trkpt lat="46.0034" lon="6.80858">
        <ele>2082.8000488281</ele>
        <time>2023-09-30T09:33:10.000Z</time>
      </trkpt>
      <trkpt lat="46.00342" lon="6.80858">
        <ele>2082.6000976562</ele>
        <time>2023-09-30T09:33:11.000Z</time>
      </trkpt>
      <trkpt lat="46.00342" lon="6.80858">
        <ele>2082.6000976562</ele>
        <time>2023-09-30T09:33:12.000Z</time>
      </trkpt>
      <trkpt lat="46.00342" lon="6.80858">
        <ele>2082.6000976562</ele>
        <time>2023-09-30T09:33:13.000Z</time>
      </trkpt>
      <trkpt lat="46.00345" lon="6.80857">
        <ele>2082.8000488281</ele>
        <time>2023-09-30T09:33:17.000Z</time>
      </trkpt>
      <trkpt lat="46.00347" lon="6.80856">
        <ele>2082.8000488281</ele>
        <time>2023-09-30T09:33:18.000Z</time>
      </trkpt>
      <trkpt lat="46.00349" lon="6.80855">
        <ele>2082.6000976562</ele>
        <time>2023-09-30T09:33:19.000Z</time>
      </trkpt>
      <trkpt lat="46.00357" lon="6.80848">
        <ele>2082.6000976562</ele>
        <time>2023-09-30T09:33:22.000Z</time>
      </trkpt>
      <trkpt lat="46.00375" lon="6.80847">
        <ele>2082</ele>
        <time>2023-09-30T09:33:27.000Z</time>
      </trkpt>
      <trkpt lat="46.00377" lon="6.80848">
        <ele>2081.8000488281</ele>
        <time>2023-09-30T09:33:28.000Z</time>
      </trkpt>
      <trkpt lat="46.0038" lon="6.80848">
        <ele>2081.3999023438</ele>
        <time>2023-09-30T09:33:29.000Z</time>
      </trkpt>
      <trkpt lat="46.00384" lon="6.80848">
        <ele>2081</ele>
        <time>2023-09-30T09:33:30.000Z</time>
      </trkpt>
      <trkpt lat="46.00387" lon="6.80848">
        <ele>2080.6000976562</ele>
        <time>2023-09-30T09:33:31.000Z</time>
      </trkpt>
      <trkpt lat="46.00391" lon="6.80848">
        <ele>2080.1999511719</ele>
        <time>2023-09-30T09:33:32.000Z</time>
      </trkpt>
      <trkpt lat="46.00394" lon="6.80849">
        <ele>2079.6000976562</ele>
        <time>2023-09-30T09:33:33.000Z</time>
      </trkpt>
      <trkpt lat="46.00398" lon="6.8085">
        <ele>2079.1999511719</ele>
        <time>2023-09-30T09:33:34.000Z</time>
      </trkpt>
      <trkpt lat="46.00404" lon="6.8085">
        <ele>2079</ele>
        <time>2023-09-30T09:33:36.000Z</time>
      </trkpt>
      <trkpt lat="46.00405" lon="6.80849">
        <ele>2079</ele>
        <time>2023-09-30T09:33:37.000Z</time>
      </trkpt>
      <trkpt lat="46.00408" lon="6.80849">
        <ele>2078.8000488281</ele>
        <time>2023-09-30T09:33:38.000Z</time>
      </trkpt>
      <trkpt lat="46.0041" lon="6.8085">
        <ele>2078.8000488281</ele>
        <time>2023-09-30T09:33:39.000Z</time>
      </trkpt>
      <trkpt lat="46.00413" lon="6.80851">
        <ele>2078.6000976562</ele>
        <time>2023-09-30T09:33:40.000Z</time>
      </trkpt>
      <trkpt lat="46.0042" lon="6.80848">
        <ele>2078.3999023438</ele>
        <time>2023-09-30T09:33:42.000Z</time>
      </trkpt>
      <trkpt lat="46.00422" lon="6.80845">
        <ele>2078</ele>
        <time>2023-09-30T09:33:43.000Z</time>
      </trkpt>
      <trkpt lat="46.00427" lon="6.80837">
        <ele>2077.6000976562</ele>
        <time>2023-09-30T09:33:45.000Z</time>
      </trkpt>
      <trkpt lat="46.00428" lon="6.80834">
        <ele>2077.6000976562</ele>
        <time>2023-09-30T09:33:46.000Z</time>
      </trkpt>
      <trkpt lat="46.0043" lon="6.80833">
        <ele>2077.1999511719</ele>
        <time>2023-09-30T09:33:47.000Z</time>
      </trkpt>
      <trkpt lat="46.00435" lon="6.80829">
        <ele>2076.8000488281</ele>
        <time>2023-09-30T09:33:49.000Z</time>
      </trkpt>
      <trkpt lat="46.00446" lon="6.80825">
        <ele>2076.1999511719</ele>
        <time>2023-09-30T09:33:52.000Z</time>
      </trkpt>
      <trkpt lat="46.00454" lon="6.80824">
        <ele>2075.3999023438</ele>
        <time>2023-09-30T09:33:54.000Z</time>
      </trkpt>
      <trkpt lat="46.00457" lon="6.80822">
        <ele>2075.3999023438</ele>
        <time>2023-09-30T09:33:55.000Z</time>
      </trkpt>
      <trkpt lat="46.00459" lon="6.8082">
        <ele>2075.1999511719</ele>
        <time>2023-09-30T09:33:56.000Z</time>
      </trkpt>
      <trkpt lat="46.00462" lon="6.80819">
        <ele>2074.8000488281</ele>
        <time>2023-09-30T09:33:57.000Z</time>
      </trkpt>
      <trkpt lat="46.00465" lon="6.80819">
        <ele>2074</ele>
        <time>2023-09-30T09:33:58.000Z</time>
      </trkpt>
      <trkpt lat="46.00468" lon="6.80819">
        <ele>2073.3999023438</ele>
        <time>2023-09-30T09:33:59.000Z</time>
      </trkpt>
      <trkpt lat="46.00469" lon="6.80819">
        <ele>2073.1999511719</ele>
        <time>2023-09-30T09:34:00.000Z</time>
      </trkpt>
      <trkpt lat="46.00471" lon="6.80819">
        <ele>2072.6000976562</ele>
        <time>2023-09-30T09:34:01.000Z</time>
      </trkpt>
      <trkpt lat="46.00473" lon="6.80819">
        <ele>2072.3999023438</ele>
        <time>2023-09-30T09:34:02.000Z</time>
      </trkpt>
      <trkpt lat="46.00474" lon="6.80817">
        <ele>2071.8000488281</ele>
        <time>2023-09-30T09:34:03.000Z</time>
      </trkpt>
      <trkpt lat="46.00476" lon="6.80816">
        <ele>2071.3999023438</ele>
        <time>2023-09-30T09:34:04.000Z</time>
      </trkpt>
      <trkpt lat="46.00477" lon="6.80814">
        <ele>2071</ele>
        <time>2023-09-30T09:34:05.000Z</time>
      </trkpt>
      <trkpt lat="46.00478" lon="6.80811">
        <ele>2070.6000976562</ele>
        <time>2023-09-30T09:34:06.000Z</time>
      </trkpt>
      <trkpt lat="46.0048" lon="6.80808">
        <ele>2070.6000976562</ele>
        <time>2023-09-30T09:34:07.000Z</time>
      </trkpt>
      <trkpt lat="46.00481" lon="6.80805">
        <ele>2070.3999023438</ele>
        <time>2023-09-30T09:34:08.000Z</time>
      </trkpt>
      <trkpt lat="46.00486" lon="6.80799">
        <ele>2070</ele>
        <time>2023-09-30T09:34:11.000Z</time>
      </trkpt>
      <trkpt lat="46.00489" lon="6.80798">
        <ele>2070</ele>
        <time>2023-09-30T09:34:12.000Z</time>
      </trkpt>
      <trkpt lat="46.00493" lon="6.80798">
        <ele>2069.8000488281</ele>
        <time>2023-09-30T09:34:13.000Z</time>
      </trkpt>
      <trkpt lat="46.00496" lon="6.80798">
        <ele>2069.8000488281</ele>
        <time>2023-09-30T09:34:14.000Z</time>
      </trkpt>
      <trkpt lat="46.00498" lon="6.80797">
        <ele>2069.6000976562</ele>
        <time>2023-09-30T09:34:15.000Z</time>
      </trkpt>
      <trkpt lat="46.00505" lon="6.80797">
        <ele>2069.3999023438</ele>
        <time>2023-09-30T09:34:17.000Z</time>
      </trkpt>
      <trkpt lat="46.00516" lon="6.80796">
        <ele>2069</ele>
        <time>2023-09-30T09:34:20.000Z</time>
      </trkpt>
      <trkpt lat="46.00528" lon="6.80795">
        <ele>2068.6000976562</ele>
        <time>2023-09-30T09:34:23.000Z</time>
      </trkpt>
      <trkpt lat="46.00533" lon="6.80795">
        <ele>2068.1999511719</ele>
        <time>2023-09-30T09:34:24.000Z</time>
      </trkpt>
      <trkpt lat="46.00541" lon="6.80795">
        <ele>2067.8000488281</ele>
        <time>2023-09-30T09:34:26.000Z</time>
      </trkpt>
      <trkpt lat="46.00556" lon="6.80794">
        <ele>2067.3999023438</ele>
        <time>2023-09-30T09:34:30.000Z</time>
      </trkpt>
      <trkpt lat="46.0056" lon="6.80794">
        <ele>2067.1999511719</ele>
        <time>2023-09-30T09:34:31.000Z</time>
      </trkpt>
      <trkpt lat="46.00564" lon="6.80794">
        <ele>2067</ele>
        <time>2023-09-30T09:34:32.000Z</time>
      </trkpt>
      <trkpt lat="46.00569" lon="6.80793">
        <ele>2066.6000976562</ele>
        <time>2023-09-30T09:34:33.000Z</time>
      </trkpt>
      <trkpt lat="46.00587" lon="6.80789">
        <ele>2066</ele>
        <time>2023-09-30T09:34:37.000Z</time>
      </trkpt>
      <trkpt lat="46.00592" lon="6.80787">
        <ele>2066</ele>
        <time>2023-09-30T09:34:38.000Z</time>
      </trkpt>
      <trkpt lat="46.00607" lon="6.80781">
        <ele>2065.3999023438</ele>
        <time>2023-09-30T09:34:41.000Z</time>
      </trkpt>
      <trkpt lat="46.00611" lon="6.80779">
        <ele>2065</ele>
        <time>2023-09-30T09:34:42.000Z</time>
      </trkpt>
      <trkpt lat="46.00616" lon="6.80777">
        <ele>2064.8000488281</ele>
        <time>2023-09-30T09:34:43.000Z</time>
      </trkpt>
      <trkpt lat="46.0062" lon="6.80774">
        <ele>2064.3999023438</ele>
        <time>2023-09-30T09:34:44.000Z</time>
      </trkpt>
      <trkpt lat="46.00624" lon="6.80772">
        <ele>2064</ele>
        <time>2023-09-30T09:34:45.000Z</time>
      </trkpt>
      <trkpt lat="46.00628" lon="6.80771">
        <ele>2063.8000488281</ele>
        <time>2023-09-30T09:34:46.000Z</time>
      </trkpt>
      <trkpt lat="46.00629" lon="6.8077">
        <ele>2063.1999511719</ele>
        <time>2023-09-30T09:34:48.000Z</time>
      </trkpt>
      <trkpt lat="46.00629" lon="6.8077">
        <ele>2062.8000488281</ele>
        <time>2023-09-30T09:34:49.000Z</time>
      </trkpt>
      <trkpt lat="46.00629" lon="6.8077">
        <ele>2061.6000976562</ele>
        <time>2023-09-30T09:34:56.000Z</time>
      </trkpt>
      <trkpt lat="46.00629" lon="6.8077">
        <ele>2061.1999511719</ele>
        <time>2023-09-30T09:35:01.000Z</time>
      </trkpt>
      <trkpt lat="46.00629" lon="6.8077">
        <ele>2060.8000488281</ele>
        <time>2023-09-30T09:35:16.000Z</time>
      </trkpt>
      <trkpt lat="46.00629" lon="6.8077">
        <ele>2060.8000488281</ele>
        <time>2023-09-30T09:35:17.000Z</time>
      </trkpt>
      <trkpt lat="46.00634" lon="6.80765">
        <ele>2060.6000976562</ele>
        <time>2023-09-30T09:35:23.000Z</time>
      </trkpt>
      <trkpt lat="46.00643" lon="6.80753">
        <ele>2060.3999023438</ele>
        <time>2023-09-30T09:35:27.000Z</time>
      </trkpt>
      <trkpt lat="46.0065" lon="6.80747">
        <ele>2060.1999511719</ele>
        <time>2023-09-30T09:35:29.000Z</time>
      </trkpt>
      <trkpt lat="46.00658" lon="6.80739">
        <ele>2059.8000488281</ele>
        <time>2023-09-30T09:35:32.000Z</time>
      </trkpt>
      <trkpt lat="46.00659" lon="6.80736">
        <ele>2059.3999023438</ele>
        <time>2023-09-30T09:35:33.000Z</time>
      </trkpt>
      <trkpt lat="46.00661" lon="6.80733">
        <ele>2059.1999511719</ele>
        <time>2023-09-30T09:35:34.000Z</time>
      </trkpt>
      <trkpt lat="46.00662" lon="6.80729">
        <ele>2058.3999023438</ele>
        <time>2023-09-30T09:35:35.000Z</time>
      </trkpt>
      <trkpt lat="46.00665" lon="6.80722">
        <ele>2057.3999023438</ele>
        <time>2023-09-30T09:35:37.000Z</time>
      </trkpt>
      <trkpt lat="46.00667" lon="6.80718">
        <ele>2057.1999511719</ele>
        <time>2023-09-30T09:35:38.000Z</time>
      </trkpt>
      <trkpt lat="46.00669" lon="6.80714">
        <ele>2056.8000488281</ele>
        <time>2023-09-30T09:35:39.000Z</time>
      </trkpt>
      <trkpt lat="46.00672" lon="6.80712">
        <ele>2056.3999023438</ele>
        <time>2023-09-30T09:35:40.000Z</time>
      </trkpt>
      <trkpt lat="46.00676" lon="6.80711">
        <ele>2056.3999023438</ele>
        <time>2023-09-30T09:35:41.000Z</time>
      </trkpt>
      <trkpt lat="46.0068" lon="6.80711">
        <ele>2055.6000976562</ele>
        <time>2023-09-30T09:35:42.000Z</time>
      </trkpt>
      <trkpt lat="46.00685" lon="6.80709">
        <ele>2055.1999511719</ele>
        <time>2023-09-30T09:35:43.000Z</time>
      </trkpt>
      <trkpt lat="46.0069" lon="6.80705">
        <ele>2054.3999023438</ele>
        <time>2023-09-30T09:35:44.000Z</time>
      </trkpt>
      <trkpt lat="46.00694" lon="6.80701">
        <ele>2054.1999511719</ele>
        <time>2023-09-30T09:35:45.000Z</time>
      </trkpt>
      <trkpt lat="46.00699" lon="6.80697">
        <ele>2053.6000976562</ele>
        <time>2023-09-30T09:35:46.000Z</time>
      </trkpt>
      <trkpt lat="46.00703" lon="6.80693">
        <ele>2052.8000488281</ele>
        <time>2023-09-30T09:35:47.000Z</time>
      </trkpt>
      <trkpt lat="46.00707" lon="6.80688">
        <ele>2052</ele>
        <time>2023-09-30T09:35:48.000Z</time>
      </trkpt>
      <trkpt lat="46.0071" lon="6.80683">
        <ele>2051</ele>
        <time>2023-09-30T09:35:49.000Z</time>
      </trkpt>
      <trkpt lat="46.00714" lon="6.80678">
        <ele>2050.8000488281</ele>
        <time>2023-09-30T09:35:50.000Z</time>
      </trkpt>
      <trkpt lat="46.00718" lon="6.80674">
        <ele>2050</ele>
        <time>2023-09-30T09:35:51.000Z</time>
      </trkpt>
      <trkpt lat="46.00722" lon="6.8067">
        <ele>2049.6000976562</ele>
        <time>2023-09-30T09:35:52.000Z</time>
      </trkpt>
      <trkpt lat="46.00726" lon="6.80665">
        <ele>2048.8000488281</ele>
        <time>2023-09-30T09:35:53.000Z</time>
      </trkpt>
      <trkpt lat="46.00735" lon="6.80654">
        <ele>2047.5999755859</ele>
        <time>2023-09-30T09:35:55.000Z</time>
      </trkpt>
      <trkpt lat="46.00739" lon="6.8065">
        <ele>2047.1999511719</ele>
        <time>2023-09-30T09:35:56.000Z</time>
      </trkpt>
      <trkpt lat="46.00742" lon="6.80646">
        <ele>2047.1999511719</ele>
        <time>2023-09-30T09:35:57.000Z</time>
      </trkpt>
      <trkpt lat="46.00745" lon="6.80643">
        <ele>2046.4000244141</ele>
        <time>2023-09-30T09:35:58.000Z</time>
      </trkpt>
      <trkpt lat="46.00747" lon="6.80639">
        <ele>2045.8000488281</ele>
        <time>2023-09-30T09:35:59.000Z</time>
      </trkpt>
      <trkpt lat="46.00749" lon="6.80635">
        <ele>2044.8000488281</ele>
        <time>2023-09-30T09:36:00.000Z</time>
      </trkpt>
      <trkpt lat="46.00753" lon="6.80627">
        <ele>2043.1999511719</ele>
        <time>2023-09-30T09:36:02.000Z</time>
      </trkpt>
      <trkpt lat="46.00754" lon="6.80624">
        <ele>2042.5999755859</ele>
        <time>2023-09-30T09:36:03.000Z</time>
      </trkpt>
      <trkpt lat="46.00756" lon="6.8062">
        <ele>2042.4000244141</ele>
        <time>2023-09-30T09:36:04.000Z</time>
      </trkpt>
      <trkpt lat="46.00757" lon="6.80616">
        <ele>2041.8000488281</ele>
        <time>2023-09-30T09:36:05.000Z</time>
      </trkpt>
      <trkpt lat="46.00762" lon="6.806">
        <ele>2040.4000244141</ele>
        <time>2023-09-30T09:36:08.000Z</time>
      </trkpt>
      <trkpt lat="46.00765" lon="6.80595">
        <ele>2039.8000488281</ele>
        <time>2023-09-30T09:36:09.000Z</time>
      </trkpt>
      <trkpt lat="46.00768" lon="6.80589">
        <ele>2039.1999511719</ele>
        <time>2023-09-30T09:36:10.000Z</time>
      </trkpt>
      <trkpt lat="46.00771" lon="6.80583">
        <ele>2039</ele>
        <time>2023-09-30T09:36:11.000Z</time>
      </trkpt>
      <trkpt lat="46.00781" lon="6.80573">
        <ele>2038</ele>
        <time>2023-09-30T09:36:13.000Z</time>
      </trkpt>
      <trkpt lat="46.00794" lon="6.80558">
        <ele>2037</ele>
        <time>2023-09-30T09:36:16.000Z</time>
      </trkpt>
      <trkpt lat="46.00796" lon="6.80554">
        <ele>2036.5999755859</ele>
        <time>2023-09-30T09:36:17.000Z</time>
      </trkpt>
      <trkpt lat="46.00797" lon="6.80547">
        <ele>2035</ele>
        <time>2023-09-30T09:36:18.000Z</time>
      </trkpt>
      <trkpt lat="46.00796" lon="6.80542">
        <ele>2032.8000488281</ele>
        <time>2023-09-30T09:36:19.000Z</time>
      </trkpt>
      <trkpt lat="46.00796" lon="6.80537">
        <ele>2032.1999511719</ele>
        <time>2023-09-30T09:36:20.000Z</time>
      </trkpt>
      <trkpt lat="46.00795" lon="6.80532">
        <ele>2031.5999755859</ele>
        <time>2023-09-30T09:36:21.000Z</time>
      </trkpt>
      <trkpt lat="46.00793" lon="6.80527">
        <ele>2031.1999511719</ele>
        <time>2023-09-30T09:36:22.000Z</time>
      </trkpt>
      <trkpt lat="46.00792" lon="6.80521">
        <ele>2030.5999755859</ele>
        <time>2023-09-30T09:36:23.000Z</time>
      </trkpt>
      <trkpt lat="46.00793" lon="6.80515">
        <ele>2030.1999511719</ele>
        <time>2023-09-30T09:36:24.000Z</time>
      </trkpt>
      <trkpt lat="46.00795" lon="6.8051">
        <ele>2029.8000488281</ele>
        <time>2023-09-30T09:36:25.000Z</time>
      </trkpt>
      <trkpt lat="46.00797" lon="6.80505">
        <ele>2029.1999511719</ele>
        <time>2023-09-30T09:36:26.000Z</time>
      </trkpt>
      <trkpt lat="46.008" lon="6.80502">
        <ele>2028.5999755859</ele>
        <time>2023-09-30T09:36:27.000Z</time>
      </trkpt>
      <trkpt lat="46.00804" lon="6.80496">
        <ele>2028</ele>
        <time>2023-09-30T09:36:28.000Z</time>
      </trkpt>
      <trkpt lat="46.00806" lon="6.80493">
        <ele>2027.8000488281</ele>
        <time>2023-09-30T09:36:29.000Z</time>
      </trkpt>
      <trkpt lat="46.00808" lon="6.8049">
        <ele>2027.1999511719</ele>
        <time>2023-09-30T09:36:30.000Z</time>
      </trkpt>
      <trkpt lat="46.00808" lon="6.8049">
        <ele>2026.8000488281</ele>
        <time>2023-09-30T09:36:31.000Z</time>
      </trkpt>
      <trkpt lat="46.00814" lon="6.80485">
        <ele>2026.4000244141</ele>
        <time>2023-09-30T09:36:32.000Z</time>
      </trkpt>
      <trkpt lat="46.00818" lon="6.80481">
        <ele>2026</ele>
        <time>2023-09-30T09:36:33.000Z</time>
      </trkpt>
      <trkpt lat="46.0082" lon="6.80476">
        <ele>2025.5999755859</ele>
        <time>2023-09-30T09:36:34.000Z</time>
      </trkpt>
      <trkpt lat="46.00823" lon="6.80471">
        <ele>2025</ele>
        <time>2023-09-30T09:36:35.000Z</time>
      </trkpt>
      <trkpt lat="46.00829" lon="6.80464">
        <ele>2024.1999511719</ele>
        <time>2023-09-30T09:36:37.000Z</time>
      </trkpt>
      <trkpt lat="46.00832" lon="6.8046">
        <ele>2023.8000488281</ele>
        <time>2023-09-30T09:36:38.000Z</time>
      </trkpt>
      <trkpt lat="46.00836" lon="6.80452">
        <ele>2023.1999511719</ele>
        <time>2023-09-30T09:36:40.000Z</time>
      </trkpt>
      <trkpt lat="46.00838" lon="6.80449">
        <ele>2022.8000488281</ele>
        <time>2023-09-30T09:36:41.000Z</time>
      </trkpt>
      <trkpt lat="46.0084" lon="6.80446">
        <ele>2022.5999755859</ele>
        <time>2023-09-30T09:36:42.000Z</time>
      </trkpt>
      <trkpt lat="46.00843" lon="6.80444">
        <ele>2022.4000244141</ele>
        <time>2023-09-30T09:36:43.000Z</time>
      </trkpt>
      <trkpt lat="46.00846" lon="6.80441">
        <ele>2022</ele>
        <time>2023-09-30T09:36:44.000Z</time>
      </trkpt>
      <trkpt lat="46.0085" lon="6.80439">
        <ele>2022</ele>
        <time>2023-09-30T09:36:45.000Z</time>
      </trkpt>
      <trkpt lat="46.00854" lon="6.80437">
        <ele>2022</ele>
        <time>2023-09-30T09:36:46.000Z</time>
      </trkpt>
      <trkpt lat="46.00859" lon="6.80435">
        <ele>2021.4000244141</ele>
        <time>2023-09-30T09:36:48.000Z</time>
      </trkpt>
      <trkpt lat="46.0086" lon="6.80433">
        <ele>2020.4000244141</ele>
        <time>2023-09-30T09:36:49.000Z</time>
      </trkpt>
      <trkpt lat="46.0086" lon="6.80432">
        <ele>2020</ele>
        <time>2023-09-30T09:36:50.000Z</time>
      </trkpt>
      <trkpt lat="46.0086" lon="6.80432">
        <ele>2019.4000244141</ele>
        <time>2023-09-30T09:36:51.000Z</time>
      </trkpt>
      <trkpt lat="46.0086" lon="6.80432">
        <ele>2018.8000488281</ele>
        <time>2023-09-30T09:36:53.000Z</time>
      </trkpt>
      <trkpt lat="46.0086" lon="6.80432">
        <ele>2018.1999511719</ele>
        <time>2023-09-30T09:36:55.000Z</time>
      </trkpt>
      <trkpt lat="46.0086" lon="6.80432">
        <ele>2017.4000244141</ele>
        <time>2023-09-30T09:37:08.000Z</time>
      </trkpt>
      <trkpt lat="46.0086" lon="6.80432">
        <ele>2017.1999511719</ele>
        <time>2023-09-30T09:37:23.000Z</time>
      </trkpt>
      <trkpt lat="46.0086" lon="6.80432">
        <ele>2017.1999511719</ele>
        <time>2023-09-30T09:37:51.000Z</time>
      </trkpt>
      <trkpt lat="46.0086" lon="6.80431">
        <ele>2017</ele>
        <time>2023-09-30T09:37:57.000Z</time>
      </trkpt>
      <trkpt lat="46.00855" lon="6.80429">
        <ele>2017</ele>
        <time>2023-09-30T09:38:00.000Z</time>
      </trkpt>
      <trkpt lat="46.00855" lon="6.80429">
        <ele>2017</ele>
        <time>2023-09-30T09:38:01.000Z</time>
      </trkpt>
      <trkpt lat="46.00854" lon="6.80429">
        <ele>2016.8000488281</ele>
        <time>2023-09-30T09:38:05.000Z</time>
      </trkpt>
      <trkpt lat="46.00838" lon="6.80424">
        <ele>2016.5999755859</ele>
        <time>2023-09-30T09:38:11.000Z</time>
      </trkpt>
      <trkpt lat="46.00832" lon="6.80424">
        <ele>2016.5999755859</ele>
        <time>2023-09-30T09:38:13.000Z</time>
      </trkpt>
      <trkpt lat="46.00818" lon="6.80422">
        <ele>2016.5999755859</ele>
        <time>2023-09-30T09:38:17.000Z</time>
      </trkpt>
      <trkpt lat="46.00808" lon="6.80419">
        <ele>2016.8000488281</ele>
        <time>2023-09-30T09:38:21.000Z</time>
      </trkpt>
      <trkpt lat="46.00805" lon="6.8042">
        <ele>2016.5999755859</ele>
        <time>2023-09-30T09:38:22.000Z</time>
      </trkpt>
      <trkpt lat="46.00803" lon="6.8042">
        <ele>2016.5999755859</ele>
        <time>2023-09-30T09:38:23.000Z</time>
      </trkpt>
      <trkpt lat="46.008" lon="6.80421">
        <ele>2016.4000244141</ele>
        <time>2023-09-30T09:38:24.000Z</time>
      </trkpt>
      <trkpt lat="46.00797" lon="6.8042">
        <ele>2016.1999511719</ele>
        <time>2023-09-30T09:38:25.000Z</time>
      </trkpt>
      <trkpt lat="46.00795" lon="6.80419">
        <ele>2016.1999511719</ele>
        <time>2023-09-30T09:38:26.000Z</time>
      </trkpt>
      <trkpt lat="46.00793" lon="6.80419">
        <ele>2016</ele>
        <time>2023-09-30T09:38:27.000Z</time>
      </trkpt>
      <trkpt lat="46.0079" lon="6.80417">
        <ele>2016</ele>
        <time>2023-09-30T09:38:28.000Z</time>
      </trkpt>
      <trkpt lat="46.0078" lon="6.80408">
        <ele>2014.8000488281</ele>
        <time>2023-09-30T09:38:32.000Z</time>
      </trkpt>
      <trkpt lat="46.00773" lon="6.80401">
        <ele>2014.1999511719</ele>
        <time>2023-09-30T09:38:34.000Z</time>
      </trkpt>
      <trkpt lat="46.0077" lon="6.80397">
        <ele>2013.8000488281</ele>
        <time>2023-09-30T09:38:35.000Z</time>
      </trkpt>
      <trkpt lat="46.00759" lon="6.80378">
        <ele>2012.4000244141</ele>
        <time>2023-09-30T09:38:39.000Z</time>
      </trkpt>
      <trkpt lat="46.00758" lon="6.80375">
        <ele>2011.5999755859</ele>
        <time>2023-09-30T09:38:40.000Z</time>
      </trkpt>
      <trkpt lat="46.00757" lon="6.8037">
        <ele>2010.5999755859</ele>
        <time>2023-09-30T09:38:41.000Z</time>
      </trkpt>
      <trkpt lat="46.00754" lon="6.8036">
        <ele>2009.4000244141</ele>
        <time>2023-09-30T09:38:43.000Z</time>
      </trkpt>
      <trkpt lat="46.00753" lon="6.80357">
        <ele>2008.1999511719</ele>
        <time>2023-09-30T09:38:44.000Z</time>
      </trkpt>
      <trkpt lat="46.00752" lon="6.80356">
        <ele>2007.8000488281</ele>
        <time>2023-09-30T09:38:45.000Z</time>
      </trkpt>
      <trkpt lat="46.0075" lon="6.80355">
        <ele>2007</ele>
        <time>2023-09-30T09:38:46.000Z</time>
      </trkpt>
      <trkpt lat="46.00748" lon="6.80351">
        <ele>2006.5999755859</ele>
        <time>2023-09-30T09:38:47.000Z</time>
      </trkpt>
      <trkpt lat="46.00744" lon="6.8034">
        <ele>2005.8000488281</ele>
        <time>2023-09-30T09:38:49.000Z</time>
      </trkpt>
      <trkpt lat="46.00739" lon="6.80329">
        <ele>2005.4000244141</ele>
        <time>2023-09-30T09:38:51.000Z</time>
      </trkpt>
      <trkpt lat="46.00736" lon="6.80324">
        <ele>2004.8000488281</ele>
        <time>2023-09-30T09:38:52.000Z</time>
      </trkpt>
      <trkpt lat="46.00733" lon="6.8032">
        <ele>2004.1999511719</ele>
        <time>2023-09-30T09:38:53.000Z</time>
      </trkpt>
      <trkpt lat="46.00731" lon="6.80315">
        <ele>2003.4000244141</ele>
        <time>2023-09-30T09:38:54.000Z</time>
      </trkpt>
      <trkpt lat="46.00729" lon="6.80311">
        <ele>2002.8000488281</ele>
        <time>2023-09-30T09:38:55.000Z</time>
      </trkpt>
      <trkpt lat="46.00723" lon="6.803">
        <ele>2001.4000244141</ele>
        <time>2023-09-30T09:38:58.000Z</time>
      </trkpt>
      <trkpt lat="46.0072" lon="6.80294">
        <ele>2000.1999511719</ele>
        <time>2023-09-30T09:38:59.000Z</time>
      </trkpt>
      <trkpt lat="46.00718" lon="6.8029">
        <ele>1998.8000488281</ele>
        <time>2023-09-30T09:39:00.000Z</time>
      </trkpt>
      <trkpt lat="46.00717" lon="6.80287">
        <ele>1998.4000244141</ele>
        <time>2023-09-30T09:39:01.000Z</time>
      </trkpt>
      <trkpt lat="46.00716" lon="6.80284">
        <ele>1997.8000488281</ele>
        <time>2023-09-30T09:39:02.000Z</time>
      </trkpt>
      <trkpt lat="46.00715" lon="6.80281">
        <ele>1997.5999755859</ele>
        <time>2023-09-30T09:39:03.000Z</time>
      </trkpt>
      <trkpt lat="46.00713" lon="6.80279">
        <ele>1996.8000488281</ele>
        <time>2023-09-30T09:39:04.000Z</time>
      </trkpt>
      <trkpt lat="46.00712" lon="6.80277">
        <ele>1996.4000244141</ele>
        <time>2023-09-30T09:39:05.000Z</time>
      </trkpt>
      <trkpt lat="46.00712" lon="6.80275">
        <ele>1996</ele>
        <time>2023-09-30T09:39:06.000Z</time>
      </trkpt>
      <trkpt lat="46.00711" lon="6.80273">
        <ele>1995.5999755859</ele>
        <time>2023-09-30T09:39:07.000Z</time>
      </trkpt>
      <trkpt lat="46.0071" lon="6.80271">
        <ele>1995.1999511719</ele>
        <time>2023-09-30T09:39:08.000Z</time>
      </trkpt>
      <trkpt lat="46.00705" lon="6.80257">
        <ele>1994.1999511719</ele>
        <time>2023-09-30T09:39:13.000Z</time>
      </trkpt>
      <trkpt lat="46.00705" lon="6.80255">
        <ele>1993.8000488281</ele>
        <time>2023-09-30T09:39:14.000Z</time>
      </trkpt>
      <trkpt lat="46.00704" lon="6.80253">
        <ele>1993.4000244141</ele>
        <time>2023-09-30T09:39:15.000Z</time>
      </trkpt>
      <trkpt lat="46.00702" lon="6.80251">
        <ele>1993</ele>
        <time>2023-09-30T09:39:16.000Z</time>
      </trkpt>
      <trkpt lat="46.00699" lon="6.80247">
        <ele>1992</ele>
        <time>2023-09-30T09:39:18.000Z</time>
      </trkpt>
      <trkpt lat="46.00698" lon="6.80243">
        <ele>1991.8000488281</ele>
        <time>2023-09-30T09:39:19.000Z</time>
      </trkpt>
      <trkpt lat="46.00696" lon="6.80234">
        <ele>1990.5999755859</ele>
        <time>2023-09-30T09:39:21.000Z</time>
      </trkpt>
      <trkpt lat="46.00694" lon="6.80225">
        <ele>1990</ele>
        <time>2023-09-30T09:39:23.000Z</time>
      </trkpt>
      <trkpt lat="46.00692" lon="6.8022">
        <ele>1989.8000488281</ele>
        <time>2023-09-30T09:39:24.000Z</time>
      </trkpt>
      <trkpt lat="46.00691" lon="6.80216">
        <ele>1989.4000244141</ele>
        <time>2023-09-30T09:39:25.000Z</time>
      </trkpt>
      <trkpt lat="46.0069" lon="6.80213">
        <ele>1989.1999511719</ele>
        <time>2023-09-30T09:39:26.000Z</time>
      </trkpt>
      <trkpt lat="46.00689" lon="6.80211">
        <ele>1988</ele>
        <time>2023-09-30T09:39:27.000Z</time>
      </trkpt>
      <trkpt lat="46.00688" lon="6.80208">
        <ele>1987</ele>
        <time>2023-09-30T09:39:28.000Z</time>
      </trkpt>
      <trkpt lat="46.00687" lon="6.80206">
        <ele>1986.5999755859</ele>
        <time>2023-09-30T09:39:29.000Z</time>
      </trkpt>
      <trkpt lat="46.00686" lon="6.80204">
        <ele>1986</ele>
        <time>2023-09-30T09:39:30.000Z</time>
      </trkpt>
      <trkpt lat="46.00684" lon="6.80196">
        <ele>1985.1999511719</ele>
        <time>2023-09-30T09:39:32.000Z</time>
      </trkpt>
      <trkpt lat="46.0068" lon="6.80188">
        <ele>1983.8000488281</ele>
        <time>2023-09-30T09:39:34.000Z</time>
      </trkpt>
      <trkpt lat="46.00675" lon="6.80174">
        <ele>1983</ele>
        <time>2023-09-30T09:39:37.000Z</time>
      </trkpt>
      <trkpt lat="46.00674" lon="6.80169">
        <ele>1982.4000244141</ele>
        <time>2023-09-30T09:39:38.000Z</time>
      </trkpt>
      <trkpt lat="46.00672" lon="6.80166">
        <ele>1981.4000244141</ele>
        <time>2023-09-30T09:39:39.000Z</time>
      </trkpt>
      <trkpt lat="46.00668" lon="6.80158">
        <ele>1980</ele>
        <time>2023-09-30T09:39:41.000Z</time>
      </trkpt>
      <trkpt lat="46.00664" lon="6.80151">
        <ele>1978.8000488281</ele>
        <time>2023-09-30T09:39:43.000Z</time>
      </trkpt>
      <trkpt lat="46.00663" lon="6.80148">
        <ele>1977.8000488281</ele>
        <time>2023-09-30T09:39:44.000Z</time>
      </trkpt>
      <trkpt lat="46.00661" lon="6.80145">
        <ele>1977.5999755859</ele>
        <time>2023-09-30T09:39:45.000Z</time>
      </trkpt>
      <trkpt lat="46.00656" lon="6.80139">
        <ele>1976.1999511719</ele>
        <time>2023-09-30T09:39:47.000Z</time>
      </trkpt>
      <trkpt lat="46.00654" lon="6.80136">
        <ele>1974.8000488281</ele>
        <time>2023-09-30T09:39:48.000Z</time>
      </trkpt>
      <trkpt lat="46.00653" lon="6.80133">
        <ele>1974.5999755859</ele>
        <time>2023-09-30T09:39:49.000Z</time>
      </trkpt>
      <trkpt lat="46.00653" lon="6.80131">
        <ele>1973.8000488281</ele>
        <time>2023-09-30T09:39:50.000Z</time>
      </trkpt>
      <trkpt lat="46.00652" lon="6.80129">
        <ele>1972.8000488281</ele>
        <time>2023-09-30T09:39:51.000Z</time>
      </trkpt>
      <trkpt lat="46.00651" lon="6.80127">
        <ele>1972.1999511719</ele>
        <time>2023-09-30T09:39:52.000Z</time>
      </trkpt>
      <trkpt lat="46.0065" lon="6.80125">
        <ele>1971.4000244141</ele>
        <time>2023-09-30T09:39:53.000Z</time>
      </trkpt>
      <trkpt lat="46.00649" lon="6.80123">
        <ele>1971.1999511719</ele>
        <time>2023-09-30T09:39:54.000Z</time>
      </trkpt>
      <trkpt lat="46.00646" lon="6.80118">
        <ele>1970.1999511719</ele>
        <time>2023-09-30T09:39:56.000Z</time>
      </trkpt>
      <trkpt lat="46.00643" lon="6.80108">
        <ele>1969</ele>
        <time>2023-09-30T09:39:59.000Z</time>
      </trkpt>
      <trkpt lat="46.00642" lon="6.80102">
        <ele>1968.4000244141</ele>
        <time>2023-09-30T09:40:00.000Z</time>
      </trkpt>
      <trkpt lat="46.00641" lon="6.80096">
        <ele>1968</ele>
        <time>2023-09-30T09:40:01.000Z</time>
      </trkpt>
      <trkpt lat="46.00637" lon="6.80085">
        <ele>1966.5999755859</ele>
        <time>2023-09-30T09:40:03.000Z</time>
      </trkpt>
      <trkpt lat="46.00635" lon="6.80082">
        <ele>1965.8000488281</ele>
        <time>2023-09-30T09:40:04.000Z</time>
      </trkpt>
      <trkpt lat="46.00633" lon="6.80078">
        <ele>1965</ele>
        <time>2023-09-30T09:40:05.000Z</time>
      </trkpt>
      <trkpt lat="46.00629" lon="6.80074">
        <ele>1964.4000244141</ele>
        <time>2023-09-30T09:40:06.000Z</time>
      </trkpt>
      <trkpt lat="46.00628" lon="6.80071">
        <ele>1963.1999511719</ele>
        <time>2023-09-30T09:40:07.000Z</time>
      </trkpt>
      <trkpt lat="46.00626" lon="6.80069">
        <ele>1962.8000488281</ele>
        <time>2023-09-30T09:40:08.000Z</time>
      </trkpt>
      <trkpt lat="46.00625" lon="6.80067">
        <ele>1962.4000244141</ele>
        <time>2023-09-30T09:40:09.000Z</time>
      </trkpt>
      <trkpt lat="46.00624" lon="6.80065">
        <ele>1962.1999511719</ele>
        <time>2023-09-30T09:40:10.000Z</time>
      </trkpt>
      <trkpt lat="46.00616" lon="6.80054">
        <ele>1961.5999755859</ele>
        <time>2023-09-30T09:40:14.000Z</time>
      </trkpt>
      <trkpt lat="46.00606" lon="6.80036">
        <ele>1961.1999511719</ele>
        <time>2023-09-30T09:40:18.000Z</time>
      </trkpt>
      <trkpt lat="46.00604" lon="6.8003">
        <ele>1961.1999511719</ele>
        <time>2023-09-30T09:40:19.000Z</time>
      </trkpt>
      <trkpt lat="46.00594" lon="6.80008">
        <ele>1960.1999511719</ele>
        <time>2023-09-30T09:40:23.000Z</time>
      </trkpt>
      <trkpt lat="46.00591" lon="6.80002">
        <ele>1960</ele>
        <time>2023-09-30T09:40:24.000Z</time>
      </trkpt>
      <trkpt lat="46.00587" lon="6.79992">
        <ele>1959.5999755859</ele>
        <time>2023-09-30T09:40:26.000Z</time>
      </trkpt>
      <trkpt lat="46.00587" lon="6.79986">
        <ele>1959</ele>
        <time>2023-09-30T09:40:27.000Z</time>
      </trkpt>
      <trkpt lat="46.00587" lon="6.7998">
        <ele>1958.1999511719</ele>
        <time>2023-09-30T09:40:28.000Z</time>
      </trkpt>
      <trkpt lat="46.00587" lon="6.79974">
        <ele>1958</ele>
        <time>2023-09-30T09:40:29.000Z</time>
      </trkpt>
      <trkpt lat="46.00588" lon="6.79969">
        <ele>1957.4000244141</ele>
        <time>2023-09-30T09:40:30.000Z</time>
      </trkpt>
      <trkpt lat="46.00588" lon="6.79964">
        <ele>1956.5999755859</ele>
        <time>2023-09-30T09:40:31.000Z</time>
      </trkpt>
      <trkpt lat="46.00589" lon="6.79961">
        <ele>1955.8000488281</ele>
        <time>2023-09-30T09:40:32.000Z</time>
      </trkpt>
      <trkpt lat="46.0059" lon="6.7996">
        <ele>1955.1999511719</ele>
        <time>2023-09-30T09:40:33.000Z</time>
      </trkpt>
      <trkpt lat="46.0059" lon="6.79959">
        <ele>1954</ele>
        <time>2023-09-30T09:40:35.000Z</time>
      </trkpt>
      <trkpt lat="46.0059" lon="6.79959">
        <ele>1953.5999755859</ele>
        <time>2023-09-30T09:40:36.000Z</time>
      </trkpt>
      <trkpt lat="46.0059" lon="6.79957">
        <ele>1952.8000488281</ele>
        <time>2023-09-30T09:40:38.000Z</time>
      </trkpt>
      <trkpt lat="46.00593" lon="6.79944">
        <ele>1952.1999511719</ele>
        <time>2023-09-30T09:40:41.000Z</time>
      </trkpt>
      <trkpt lat="46.00594" lon="6.79939">
        <ele>1952.1999511719</ele>
        <time>2023-09-30T09:40:42.000Z</time>
      </trkpt>
      <trkpt lat="46.00597" lon="6.79931">
        <ele>1951.5999755859</ele>
        <time>2023-09-30T09:40:44.000Z</time>
      </trkpt>
      <trkpt lat="46.006" lon="6.79919">
        <ele>1951.4000244141</ele>
        <time>2023-09-30T09:40:46.000Z</time>
      </trkpt>
      <trkpt lat="46.00602" lon="6.79913">
        <ele>1951</ele>
        <time>2023-09-30T09:40:47.000Z</time>
      </trkpt>
      <trkpt lat="46.00603" lon="6.79906">
        <ele>1950.4000244141</ele>
        <time>2023-09-30T09:40:48.000Z</time>
      </trkpt>
      <trkpt lat="46.00604" lon="6.79901">
        <ele>1950.1999511719</ele>
        <time>2023-09-30T09:40:49.000Z</time>
      </trkpt>
      <trkpt lat="46.00606" lon="6.79896">
        <ele>1949.4000244141</ele>
        <time>2023-09-30T09:40:50.000Z</time>
      </trkpt>
      <trkpt lat="46.00608" lon="6.79891">
        <ele>1948.4000244141</ele>
        <time>2023-09-30T09:40:51.000Z</time>
      </trkpt>
      <trkpt lat="46.00611" lon="6.7988">
        <ele>1947</ele>
        <time>2023-09-30T09:40:53.000Z</time>
      </trkpt>
      <trkpt lat="46.00613" lon="6.79871">
        <ele>1945.4000244141</ele>
        <time>2023-09-30T09:40:55.000Z</time>
      </trkpt>
      <trkpt lat="46.00616" lon="6.79865">
        <ele>1944.5999755859</ele>
        <time>2023-09-30T09:40:56.000Z</time>
      </trkpt>
      <trkpt lat="46.00619" lon="6.79861">
        <ele>1943.4000244141</ele>
        <time>2023-09-30T09:40:57.000Z</time>
      </trkpt>
      <trkpt lat="46.00621" lon="6.79858">
        <ele>1942</ele>
        <time>2023-09-30T09:40:58.000Z</time>
      </trkpt>
      <trkpt lat="46.00623" lon="6.79855">
        <ele>1941.4000244141</ele>
        <time>2023-09-30T09:40:59.000Z</time>
      </trkpt>
      <trkpt lat="46.00625" lon="6.79852">
        <ele>1939.1999511719</ele>
        <time>2023-09-30T09:41:00.000Z</time>
      </trkpt>
      <trkpt lat="46.00626" lon="6.79848">
        <ele>1938.1999511719</ele>
        <time>2023-09-30T09:41:01.000Z</time>
      </trkpt>
      <trkpt lat="46.00628" lon="6.79845">
        <ele>1937</ele>
        <time>2023-09-30T09:41:02.000Z</time>
      </trkpt>
      <trkpt lat="46.00633" lon="6.79839">
        <ele>1935</ele>
        <time>2023-09-30T09:41:04.000Z</time>
      </trkpt>
      <trkpt lat="46.00634" lon="6.79836">
        <ele>1934.4000244141</ele>
        <time>2023-09-30T09:41:05.000Z</time>
      </trkpt>
      <trkpt lat="46.00634" lon="6.79832">
        <ele>1933.8000488281</ele>
        <time>2023-09-30T09:41:06.000Z</time>
      </trkpt>
      <trkpt lat="46.00636" lon="6.79826">
        <ele>1932.8000488281</ele>
        <time>2023-09-30T09:41:07.000Z</time>
      </trkpt>
      <trkpt lat="46.00639" lon="6.79817">
        <ele>1931.1999511719</ele>
        <time>2023-09-30T09:41:09.000Z</time>
      </trkpt>
      <trkpt lat="46.00638" lon="6.79814">
        <ele>1930.8000488281</ele>
        <time>2023-09-30T09:41:10.000Z</time>
      </trkpt>
      <trkpt lat="46.00637" lon="6.79811">
        <ele>1930</ele>
        <time>2023-09-30T09:41:11.000Z</time>
      </trkpt>
      <trkpt lat="46.00634" lon="6.79808">
        <ele>1929.5999755859</ele>
        <time>2023-09-30T09:41:12.000Z</time>
      </trkpt>
      <trkpt lat="46.00631" lon="6.79802">
        <ele>1928.5999755859</ele>
        <time>2023-09-30T09:41:13.000Z</time>
      </trkpt>
      <trkpt lat="46.00629" lon="6.79795">
        <ele>1927.8000488281</ele>
        <time>2023-09-30T09:41:14.000Z</time>
      </trkpt>
      <trkpt lat="46.00627" lon="6.79788">
        <ele>1927.4000244141</ele>
        <time>2023-09-30T09:41:15.000Z</time>
      </trkpt>
      <trkpt lat="46.00624" lon="6.7978">
        <ele>1925.5999755859</ele>
        <time>2023-09-30T09:41:16.000Z</time>
      </trkpt>
      <trkpt lat="46.0062" lon="6.79765">
        <ele>1923.1999511719</ele>
        <time>2023-09-30T09:41:18.000Z</time>
      </trkpt>
      <trkpt lat="46.00619" lon="6.79759">
        <ele>1922.1999511719</ele>
        <time>2023-09-30T09:41:19.000Z</time>
      </trkpt>
      <trkpt lat="46.00618" lon="6.79754">
        <ele>1920.1999511719</ele>
        <time>2023-09-30T09:41:20.000Z</time>
      </trkpt>
      <trkpt lat="46.00616" lon="6.79751">
        <ele>1919</ele>
        <time>2023-09-30T09:41:21.000Z</time>
      </trkpt>
      <trkpt lat="46.00613" lon="6.79748">
        <ele>1918.4000244141</ele>
        <time>2023-09-30T09:41:22.000Z</time>
      </trkpt>
      <trkpt lat="46.00609" lon="6.79745">
        <ele>1917.1999511719</ele>
        <time>2023-09-30T09:41:23.000Z</time>
      </trkpt>
      <trkpt lat="46.00606" lon="6.79741">
        <ele>1916.8000488281</ele>
        <time>2023-09-30T09:41:24.000Z</time>
      </trkpt>
      <trkpt lat="46.00603" lon="6.79736">
        <ele>1915</ele>
        <time>2023-09-30T09:41:25.000Z</time>
      </trkpt>
      <trkpt lat="46.006" lon="6.79733">
        <ele>1914</ele>
        <time>2023-09-30T09:41:26.000Z</time>
      </trkpt>
      <trkpt lat="46.00598" lon="6.79732">
        <ele>1912.8000488281</ele>
        <time>2023-09-30T09:41:27.000Z</time>
      </trkpt>
      <trkpt lat="46.00595" lon="6.79729">
        <ele>1911.8000488281</ele>
        <time>2023-09-30T09:41:28.000Z</time>
      </trkpt>
      <trkpt lat="46.0059" lon="6.79726">
        <ele>1911.4000244141</ele>
        <time>2023-09-30T09:41:29.000Z</time>
      </trkpt>
      <trkpt lat="46.00586" lon="6.79724">
        <ele>1910.5999755859</ele>
        <time>2023-09-30T09:41:30.000Z</time>
      </trkpt>
      <trkpt lat="46.00583" lon="6.7972">
        <ele>1909.8000488281</ele>
        <time>2023-09-30T09:41:31.000Z</time>
      </trkpt>
      <trkpt lat="46.00579" lon="6.79716">
        <ele>1908.5999755859</ele>
        <time>2023-09-30T09:41:32.000Z</time>
      </trkpt>
      <trkpt lat="46.00575" lon="6.79711">
        <ele>1907.8000488281</ele>
        <time>2023-09-30T09:41:33.000Z</time>
      </trkpt>
      <trkpt lat="46.00572" lon="6.79707">
        <ele>1907</ele>
        <time>2023-09-30T09:41:34.000Z</time>
      </trkpt>
      <trkpt lat="46.00569" lon="6.79702">
        <ele>1906.5999755859</ele>
        <time>2023-09-30T09:41:35.000Z</time>
      </trkpt>
      <trkpt lat="46.00569" lon="6.797">
        <ele>1904.4000244141</ele>
        <time>2023-09-30T09:41:36.000Z</time>
      </trkpt>
      <trkpt lat="46.00569" lon="6.79699">
        <ele>1903</ele>
        <time>2023-09-30T09:41:37.000Z</time>
      </trkpt>
      <trkpt lat="46.00569" lon="6.79698">
        <ele>1902.8000488281</ele>
        <time>2023-09-30T09:41:38.000Z</time>
      </trkpt>
      <trkpt lat="46.00568" lon="6.79698">
        <ele>1901.8000488281</ele>
        <time>2023-09-30T09:41:39.000Z</time>
      </trkpt>
      <trkpt lat="46.00567" lon="6.79697">
        <ele>1901.5999755859</ele>
        <time>2023-09-30T09:41:40.000Z</time>
      </trkpt>
      <trkpt lat="46.00566" lon="6.79696">
        <ele>1901.1999511719</ele>
        <time>2023-09-30T09:41:41.000Z</time>
      </trkpt>
      <trkpt lat="46.00565" lon="6.79696">
        <ele>1901</ele>
        <time>2023-09-30T09:41:42.000Z</time>
      </trkpt>
      <trkpt lat="46.00564" lon="6.79696">
        <ele>1900.5999755859</ele>
        <time>2023-09-30T09:41:43.000Z</time>
      </trkpt>
      <trkpt lat="46.00563" lon="6.79696">
        <ele>1900.1999511719</ele>
        <time>2023-09-30T09:41:44.000Z</time>
      </trkpt>
      <trkpt lat="46.00563" lon="6.79696">
        <ele>1899.5999755859</ele>
        <time>2023-09-30T09:41:47.000Z</time>
      </trkpt>
      <trkpt lat="46.00562" lon="6.79696">
        <ele>1899.8000488281</ele>
        <time>2023-09-30T09:41:48.000Z</time>
      </trkpt>
      <trkpt lat="46.00556" lon="6.79697">
        <ele>1899.4000244141</ele>
        <time>2023-09-30T09:41:51.000Z</time>
      </trkpt>
      <trkpt lat="46.00542" lon="6.79697">
        <ele>1899</ele>
        <time>2023-09-30T09:41:56.000Z</time>
      </trkpt>
      <trkpt lat="46.00541" lon="6.79696">
        <ele>1898.5999755859</ele>
        <time>2023-09-30T09:41:57.000Z</time>
      </trkpt>
      <trkpt lat="46.00541" lon="6.79693">
        <ele>1898.4000244141</ele>
        <time>2023-09-30T09:41:58.000Z</time>
      </trkpt>
      <trkpt lat="46.00542" lon="6.79689">
        <ele>1898</ele>
        <time>2023-09-30T09:41:59.000Z</time>
      </trkpt>
      <trkpt lat="46.00541" lon="6.79687">
        <ele>1897</ele>
        <time>2023-09-30T09:42:00.000Z</time>
      </trkpt>
      <trkpt lat="46.0054" lon="6.79684">
        <ele>1896.8000488281</ele>
        <time>2023-09-30T09:42:01.000Z</time>
      </trkpt>
      <trkpt lat="46.00539" lon="6.79681">
        <ele>1896.1999511719</ele>
        <time>2023-09-30T09:42:02.000Z</time>
      </trkpt>
      <trkpt lat="46.00537" lon="6.79678">
        <ele>1896.1999511719</ele>
        <time>2023-09-30T09:42:03.000Z</time>
      </trkpt>
      <trkpt lat="46.00536" lon="6.79675">
        <ele>1895</ele>
        <time>2023-09-30T09:42:04.000Z</time>
      </trkpt>
      <trkpt lat="46.00535" lon="6.79673">
        <ele>1894.8000488281</ele>
        <time>2023-09-30T09:42:05.000Z</time>
      </trkpt>
      <trkpt lat="46.00534" lon="6.7967">
        <ele>1894</ele>
        <time>2023-09-30T09:42:06.000Z</time>
      </trkpt>
      <trkpt lat="46.00534" lon="6.79666">
        <ele>1893</ele>
        <time>2023-09-30T09:42:07.000Z</time>
      </trkpt>
      <trkpt lat="46.00534" lon="6.79662">
        <ele>1892.5999755859</ele>
        <time>2023-09-30T09:42:08.000Z</time>
      </trkpt>
      <trkpt lat="46.00534" lon="6.79658">
        <ele>1892</ele>
        <time>2023-09-30T09:42:09.000Z</time>
      </trkpt>
      <trkpt lat="46.00533" lon="6.79655">
        <ele>1891.8000488281</ele>
        <time>2023-09-30T09:42:10.000Z</time>
      </trkpt>
      <trkpt lat="46.00532" lon="6.79651">
        <ele>1890.8000488281</ele>
        <time>2023-09-30T09:42:11.000Z</time>
      </trkpt>
      <trkpt lat="46.00532" lon="6.79648">
        <ele>1890.1999511719</ele>
        <time>2023-09-30T09:42:12.000Z</time>
      </trkpt>
      <trkpt lat="46.0053" lon="6.79644">
        <ele>1888.4000244141</ele>
        <time>2023-09-30T09:42:13.000Z</time>
      </trkpt>
      <trkpt lat="46.00528" lon="6.79637">
        <ele>1886.4000244141</ele>
        <time>2023-09-30T09:42:15.000Z</time>
      </trkpt>
      <trkpt lat="46.00526" lon="6.7963">
        <ele>1885</ele>
        <time>2023-09-30T09:42:17.000Z</time>
      </trkpt>
      <trkpt lat="46.00523" lon="6.79619">
        <ele>1884.1999511719</ele>
        <time>2023-09-30T09:42:19.000Z</time>
      </trkpt>
      <trkpt lat="46.00522" lon="6.79614">
        <ele>1883.5999755859</ele>
        <time>2023-09-30T09:42:20.000Z</time>
      </trkpt>
      <trkpt lat="46.00521" lon="6.79611">
        <ele>1883</ele>
        <time>2023-09-30T09:42:21.000Z</time>
      </trkpt>
      <trkpt lat="46.00521" lon="6.79608">
        <ele>1882.1999511719</ele>
        <time>2023-09-30T09:42:22.000Z</time>
      </trkpt>
      <trkpt lat="46.0052" lon="6.79604">
        <ele>1881.5999755859</ele>
        <time>2023-09-30T09:42:23.000Z</time>
      </trkpt>
      <trkpt lat="46.00519" lon="6.79602">
        <ele>1880.8000488281</ele>
        <time>2023-09-30T09:42:24.000Z</time>
      </trkpt>
      <trkpt lat="46.00518" lon="6.79602">
        <ele>1879.4000244141</ele>
        <time>2023-09-30T09:42:25.000Z</time>
      </trkpt>
      <trkpt lat="46.00517" lon="6.79603">
        <ele>1878.8000488281</ele>
        <time>2023-09-30T09:42:26.000Z</time>
      </trkpt>
      <trkpt lat="46.00515" lon="6.79605">
        <ele>1878</ele>
        <time>2023-09-30T09:42:27.000Z</time>
      </trkpt>
      <trkpt lat="46.00512" lon="6.79609">
        <ele>1877.8000488281</ele>
        <time>2023-09-30T09:42:28.000Z</time>
      </trkpt>
      <trkpt lat="46.00509" lon="6.79612">
        <ele>1877.4000244141</ele>
        <time>2023-09-30T09:42:29.000Z</time>
      </trkpt>
      <trkpt lat="46.00505" lon="6.79615">
        <ele>1876.8000488281</ele>
        <time>2023-09-30T09:42:30.000Z</time>
      </trkpt>
      <trkpt lat="46.00503" lon="6.79618">
        <ele>1876.4000244141</ele>
        <time>2023-09-30T09:42:31.000Z</time>
      </trkpt>
      <trkpt lat="46.005" lon="6.7962">
        <ele>1876</ele>
        <time>2023-09-30T09:42:32.000Z</time>
      </trkpt>
      <trkpt lat="46.00497" lon="6.79622">
        <ele>1875.8000488281</ele>
        <time>2023-09-30T09:42:33.000Z</time>
      </trkpt>
      <trkpt lat="46.00494" lon="6.79621">
        <ele>1874.8000488281</ele>
        <time>2023-09-30T09:42:34.000Z</time>
      </trkpt>
      <trkpt lat="46.00493" lon="6.7962">
        <ele>1874.4000244141</ele>
        <time>2023-09-30T09:42:35.000Z</time>
      </trkpt>
      <trkpt lat="46.00493" lon="6.79619">
        <ele>1872</ele>
        <time>2023-09-30T09:42:36.000Z</time>
      </trkpt>
      <trkpt lat="46.00492" lon="6.79619">
        <ele>1871.1999511719</ele>
        <time>2023-09-30T09:42:37.000Z</time>
      </trkpt>
      <trkpt lat="46.00491" lon="6.79617">
        <ele>1870.1999511719</ele>
        <time>2023-09-30T09:42:38.000Z</time>
      </trkpt>
      <trkpt lat="46.00491" lon="6.79614">
        <ele>1869.1999511719</ele>
        <time>2023-09-30T09:42:39.000Z</time>
      </trkpt>
      <trkpt lat="46.00491" lon="6.79611">
        <ele>1868.8000488281</ele>
        <time>2023-09-30T09:42:40.000Z</time>
      </trkpt>
      <trkpt lat="46.00491" lon="6.79609">
        <ele>1868.4000244141</ele>
        <time>2023-09-30T09:42:41.000Z</time>
      </trkpt>
      <trkpt lat="46.00494" lon="6.79604">
        <ele>1867.5999755859</ele>
        <time>2023-09-30T09:42:43.000Z</time>
      </trkpt>
      <trkpt lat="46.00494" lon="6.79602">
        <ele>1867.1999511719</ele>
        <time>2023-09-30T09:42:44.000Z</time>
      </trkpt>
      <trkpt lat="46.00493" lon="6.79598">
        <ele>1866.5999755859</ele>
        <time>2023-09-30T09:42:45.000Z</time>
      </trkpt>
      <trkpt lat="46.00491" lon="6.7959">
        <ele>1866</ele>
        <time>2023-09-30T09:42:47.000Z</time>
      </trkpt>
      <trkpt lat="46.0049" lon="6.79583">
        <ele>1865.8000488281</ele>
        <time>2023-09-30T09:42:48.000Z</time>
      </trkpt>
      <trkpt lat="46.00492" lon="6.79577">
        <ele>1865.5999755859</ele>
        <time>2023-09-30T09:42:49.000Z</time>
      </trkpt>
      <trkpt lat="46.00493" lon="6.79573">
        <ele>1864.8000488281</ele>
        <time>2023-09-30T09:42:50.000Z</time>
      </trkpt>
      <trkpt lat="46.00494" lon="6.79569">
        <ele>1863.8000488281</ele>
        <time>2023-09-30T09:42:51.000Z</time>
      </trkpt>
      <trkpt lat="46.00495" lon="6.79565">
        <ele>1862.4000244141</ele>
        <time>2023-09-30T09:42:52.000Z</time>
      </trkpt>
      <trkpt lat="46.00496" lon="6.79563">
        <ele>1861.4000244141</ele>
        <time>2023-09-30T09:42:53.000Z</time>
      </trkpt>
      <trkpt lat="46.00496" lon="6.79562">
        <ele>1861</ele>
        <time>2023-09-30T09:42:54.000Z</time>
      </trkpt>
      <trkpt lat="46.00497" lon="6.79562">
        <ele>1860</ele>
        <time>2023-09-30T09:42:55.000Z</time>
      </trkpt>
      <trkpt lat="46.00497" lon="6.79561">
        <ele>1859.5999755859</ele>
        <time>2023-09-30T09:42:56.000Z</time>
      </trkpt>
      <trkpt lat="46.00496" lon="6.79562">
        <ele>1859.1999511719</ele>
        <time>2023-09-30T09:42:57.000Z</time>
      </trkpt>
      <trkpt lat="46.00496" lon="6.79562">
        <ele>1859</ele>
        <time>2023-09-30T09:42:58.000Z</time>
      </trkpt>
      <trkpt lat="46.00496" lon="6.79563">
        <ele>1858.8000488281</ele>
        <time>2023-09-30T09:42:59.000Z</time>
      </trkpt>
      <trkpt lat="46.00495" lon="6.79563">
        <ele>1858.4000244141</ele>
        <time>2023-09-30T09:43:01.000Z</time>
      </trkpt>
      <trkpt lat="46.00495" lon="6.79563">
        <ele>1858.1999511719</ele>
        <time>2023-09-30T09:43:03.000Z</time>
      </trkpt>
      <trkpt lat="46.00495" lon="6.79563">
        <ele>1858</ele>
        <time>2023-09-30T09:43:07.000Z</time>
      </trkpt>
      <trkpt lat="46.00495" lon="6.79563">
        <ele>1857.8000488281</ele>
        <time>2023-09-30T09:43:09.000Z</time>
      </trkpt>
      <trkpt lat="46.00495" lon="6.79563">
        <ele>1856.5999755859</ele>
        <time>2023-09-30T09:43:20.000Z</time>
      </trkpt>
      <trkpt lat="46.00495" lon="6.79563">
        <ele>1856.4000244141</ele>
        <time>2023-09-30T09:43:51.000Z</time>
      </trkpt>
      <trkpt lat="46.00495" lon="6.79563">
        <ele>1857</ele>
        <time>2023-09-30T09:44:30.000Z</time>
      </trkpt>
      <trkpt lat="46.00495" lon="6.79563">
        <ele>1857.4000244141</ele>
        <time>2023-09-30T09:44:40.000Z</time>
      </trkpt>
      <trkpt lat="46.00495" lon="6.79563">
        <ele>1857.4000244141</ele>
        <time>2023-09-30T09:44:43.000Z</time>
      </trkpt>
      <trkpt lat="46.00494" lon="6.79561">
        <ele>1857.4000244141</ele>
        <time>2023-09-30T09:44:45.000Z</time>
      </trkpt>
      <trkpt lat="46.0049" lon="6.79552">
        <ele>1857.5999755859</ele>
        <time>2023-09-30T09:44:48.000Z</time>
      </trkpt>
      <trkpt lat="46.0048" lon="6.79531">
        <ele>1857.8000488281</ele>
        <time>2023-09-30T09:44:53.000Z</time>
      </trkpt>
      <trkpt lat="46.00478" lon="6.79526">
        <ele>1857.8000488281</ele>
        <time>2023-09-30T09:44:54.000Z</time>
      </trkpt>
      <trkpt lat="46.00475" lon="6.79508">
        <ele>1857.5999755859</ele>
        <time>2023-09-30T09:44:57.000Z</time>
      </trkpt>
      <trkpt lat="46.00474" lon="6.79497">
        <ele>1857.4000244141</ele>
        <time>2023-09-30T09:44:59.000Z</time>
      </trkpt>
      <trkpt lat="46.00472" lon="6.79481">
        <ele>1857.1999511719</ele>
        <time>2023-09-30T09:45:01.000Z</time>
      </trkpt>
      <trkpt lat="46.00472" lon="6.79465">
        <ele>1856.8000488281</ele>
        <time>2023-09-30T09:45:03.000Z</time>
      </trkpt>
      <trkpt lat="46.00473" lon="6.79449">
        <ele>1856.5999755859</ele>
        <time>2023-09-30T09:45:05.000Z</time>
      </trkpt>
      <trkpt lat="46.00473" lon="6.79441">
        <ele>1855.5999755859</ele>
        <time>2023-09-30T09:45:06.000Z</time>
      </trkpt>
      <trkpt lat="46.00474" lon="6.79433">
        <ele>1855.1999511719</ele>
        <time>2023-09-30T09:45:07.000Z</time>
      </trkpt>
      <trkpt lat="46.00474" lon="6.79427">
        <ele>1854.8000488281</ele>
        <time>2023-09-30T09:45:08.000Z</time>
      </trkpt>
      <trkpt lat="46.00473" lon="6.79421">
        <ele>1854.5999755859</ele>
        <time>2023-09-30T09:45:09.000Z</time>
      </trkpt>
      <trkpt lat="46.0047" lon="6.79414">
        <ele>1854</ele>
        <time>2023-09-30T09:45:10.000Z</time>
      </trkpt>
      <trkpt lat="46.00469" lon="6.79407">
        <ele>1853.1999511719</ele>
        <time>2023-09-30T09:45:11.000Z</time>
      </trkpt>
      <trkpt lat="46.00468" lon="6.794">
        <ele>1852</ele>
        <time>2023-09-30T09:45:12.000Z</time>
      </trkpt>
      <trkpt lat="46.00467" lon="6.79394">
        <ele>1851.5999755859</ele>
        <time>2023-09-30T09:45:13.000Z</time>
      </trkpt>
      <trkpt lat="46.00467" lon="6.79389">
        <ele>1850.8000488281</ele>
        <time>2023-09-30T09:45:14.000Z</time>
      </trkpt>
      <trkpt lat="46.00467" lon="6.79383">
        <ele>1850.1999511719</ele>
        <time>2023-09-30T09:45:15.000Z</time>
      </trkpt>
      <trkpt lat="46.00468" lon="6.79376">
        <ele>1849.8000488281</ele>
        <time>2023-09-30T09:45:16.000Z</time>
      </trkpt>
      <trkpt lat="46.0047" lon="6.79369">
        <ele>1849.1999511719</ele>
        <time>2023-09-30T09:45:17.000Z</time>
      </trkpt>
      <trkpt lat="46.00471" lon="6.79362">
        <ele>1848.8000488281</ele>
        <time>2023-09-30T09:45:18.000Z</time>
      </trkpt>
      <trkpt lat="46.00471" lon="6.79355">
        <ele>1848.4000244141</ele>
        <time>2023-09-30T09:45:19.000Z</time>
      </trkpt>
      <trkpt lat="46.00471" lon="6.79349">
        <ele>1848</ele>
        <time>2023-09-30T09:45:20.000Z</time>
      </trkpt>
      <trkpt lat="46.0047" lon="6.79343">
        <ele>1847.5999755859</ele>
        <time>2023-09-30T09:45:21.000Z</time>
      </trkpt>
      <trkpt lat="46.0047" lon="6.79337">
        <ele>1845.5999755859</ele>
        <time>2023-09-30T09:45:22.000Z</time>
      </trkpt>
      <trkpt lat="46.0047" lon="6.79332">
        <ele>1844.1999511719</ele>
        <time>2023-09-30T09:45:23.000Z</time>
      </trkpt>
      <trkpt lat="46.00471" lon="6.79328">
        <ele>1842.4000244141</ele>
        <time>2023-09-30T09:45:24.000Z</time>
      </trkpt>
      <trkpt lat="46.00471" lon="6.79323">
        <ele>1841.4000244141</ele>
        <time>2023-09-30T09:45:25.000Z</time>
      </trkpt>
      <trkpt lat="46.00472" lon="6.79318">
        <ele>1840</ele>
        <time>2023-09-30T09:45:26.000Z</time>
      </trkpt>
      <trkpt lat="46.00472" lon="6.79308">
        <ele>1838.5999755859</ele>
        <time>2023-09-30T09:45:28.000Z</time>
      </trkpt>
      <trkpt lat="46.0047" lon="6.79299">
        <ele>1837</ele>
        <time>2023-09-30T09:45:30.000Z</time>
      </trkpt>
      <trkpt lat="46.00467" lon="6.79297">
        <ele>1836.1999511719</ele>
        <time>2023-09-30T09:45:31.000Z</time>
      </trkpt>
      <trkpt lat="46.00465" lon="6.79295">
        <ele>1835.5999755859</ele>
        <time>2023-09-30T09:45:32.000Z</time>
      </trkpt>
      <trkpt lat="46.00462" lon="6.79294">
        <ele>1834.5999755859</ele>
        <time>2023-09-30T09:45:33.000Z</time>
      </trkpt>
      <trkpt lat="46.00459" lon="6.79293">
        <ele>1834.1999511719</ele>
        <time>2023-09-30T09:45:34.000Z</time>
      </trkpt>
      <trkpt lat="46.00456" lon="6.79294">
        <ele>1832.8000488281</ele>
        <time>2023-09-30T09:45:35.000Z</time>
      </trkpt>
      <trkpt lat="46.00452" lon="6.79294">
        <ele>1832.4000244141</ele>
        <time>2023-09-30T09:45:36.000Z</time>
      </trkpt>
      <trkpt lat="46.00449" lon="6.79294">
        <ele>1831.4000244141</ele>
        <time>2023-09-30T09:45:37.000Z</time>
      </trkpt>
      <trkpt lat="46.00447" lon="6.79295">
        <ele>1830</ele>
        <time>2023-09-30T09:45:38.000Z</time>
      </trkpt>
      <trkpt lat="46.00444" lon="6.79296">
        <ele>1829.1999511719</ele>
        <time>2023-09-30T09:45:39.000Z</time>
      </trkpt>
      <trkpt lat="46.00441" lon="6.79296">
        <ele>1828.1999511719</ele>
        <time>2023-09-30T09:45:40.000Z</time>
      </trkpt>
      <trkpt lat="46.00438" lon="6.79295">
        <ele>1828</ele>
        <time>2023-09-30T09:45:41.000Z</time>
      </trkpt>
      <trkpt lat="46.00436" lon="6.79294">
        <ele>1827.1999511719</ele>
        <time>2023-09-30T09:45:42.000Z</time>
      </trkpt>
      <trkpt lat="46.00435" lon="6.79291">
        <ele>1826.8000488281</ele>
        <time>2023-09-30T09:45:43.000Z</time>
      </trkpt>
      <trkpt lat="46.00435" lon="6.79287">
        <ele>1825.5999755859</ele>
        <time>2023-09-30T09:45:44.000Z</time>
      </trkpt>
      <trkpt lat="46.00437" lon="6.79278">
        <ele>1823.8000488281</ele>
        <time>2023-09-30T09:45:46.000Z</time>
      </trkpt>
      <trkpt lat="46.00439" lon="6.79274">
        <ele>1822.5999755859</ele>
        <time>2023-09-30T09:45:47.000Z</time>
      </trkpt>
      <trkpt lat="46.0044" lon="6.79269">
        <ele>1822.1999511719</ele>
        <time>2023-09-30T09:45:48.000Z</time>
      </trkpt>
      <trkpt lat="46.00441" lon="6.7926">
        <ele>1821.1999511719</ele>
        <time>2023-09-30T09:45:50.000Z</time>
      </trkpt>
      <trkpt lat="46.0044" lon="6.79256">
        <ele>1820.1999511719</ele>
        <time>2023-09-30T09:45:51.000Z</time>
      </trkpt>
      <trkpt lat="46.00438" lon="6.79252">
        <ele>1819.8000488281</ele>
        <time>2023-09-30T09:45:52.000Z</time>
      </trkpt>
      <trkpt lat="46.00436" lon="6.79249">
        <ele>1818.8000488281</ele>
        <time>2023-09-30T09:45:53.000Z</time>
      </trkpt>
      <trkpt lat="46.00433" lon="6.79248">
        <ele>1817.1999511719</ele>
        <time>2023-09-30T09:45:54.000Z</time>
      </trkpt>
      <trkpt lat="46.00431" lon="6.79249">
        <ele>1816.5999755859</ele>
        <time>2023-09-30T09:45:55.000Z</time>
      </trkpt>
      <trkpt lat="46.00427" lon="6.7925">
        <ele>1814.8000488281</ele>
        <time>2023-09-30T09:45:56.000Z</time>
      </trkpt>
      <trkpt lat="46.00424" lon="6.79251">
        <ele>1814</ele>
        <time>2023-09-30T09:45:57.000Z</time>
      </trkpt>
      <trkpt lat="46.0042" lon="6.79253">
        <ele>1813</ele>
        <time>2023-09-30T09:45:58.000Z</time>
      </trkpt>
      <trkpt lat="46.00412" lon="6.7926">
        <ele>1812</ele>
        <time>2023-09-30T09:46:00.000Z</time>
      </trkpt>
      <trkpt lat="46.00409" lon="6.79263">
        <ele>1811.1999511719</ele>
        <time>2023-09-30T09:46:01.000Z</time>
      </trkpt>
      <trkpt lat="46.00407" lon="6.79266">
        <ele>1810.4000244141</ele>
        <time>2023-09-30T09:46:02.000Z</time>
      </trkpt>
      <trkpt lat="46.00404" lon="6.79266">
        <ele>1808.8000488281</ele>
        <time>2023-09-30T09:46:03.000Z</time>
      </trkpt>
      <trkpt lat="46.00401" lon="6.79265">
        <ele>1807.8000488281</ele>
        <time>2023-09-30T09:46:04.000Z</time>
      </trkpt>
      <trkpt lat="46.00398" lon="6.79262">
        <ele>1806.5999755859</ele>
        <time>2023-09-30T09:46:05.000Z</time>
      </trkpt>
      <trkpt lat="46.00396" lon="6.79258">
        <ele>1805.8000488281</ele>
        <time>2023-09-30T09:46:06.000Z</time>
      </trkpt>
      <trkpt lat="46.00396" lon="6.79254">
        <ele>1804.5999755859</ele>
        <time>2023-09-30T09:46:07.000Z</time>
      </trkpt>
      <trkpt lat="46.00395" lon="6.79249">
        <ele>1803.5999755859</ele>
        <time>2023-09-30T09:46:08.000Z</time>
      </trkpt>
      <trkpt lat="46.00394" lon="6.79244">
        <ele>1803.1999511719</ele>
        <time>2023-09-30T09:46:09.000Z</time>
      </trkpt>
      <trkpt lat="46.00394" lon="6.79238">
        <ele>1802.8000488281</ele>
        <time>2023-09-30T09:46:10.000Z</time>
      </trkpt>
      <trkpt lat="46.00396" lon="6.79224">
        <ele>1802.1999511719</ele>
        <time>2023-09-30T09:46:12.000Z</time>
      </trkpt>
      <trkpt lat="46.00399" lon="6.79218">
        <ele>1802</ele>
        <time>2023-09-30T09:46:13.000Z</time>
      </trkpt>
      <trkpt lat="46.00402" lon="6.79214">
        <ele>1801.4000244141</ele>
        <time>2023-09-30T09:46:14.000Z</time>
      </trkpt>
      <trkpt lat="46.00406" lon="6.7921">
        <ele>1801.1999511719</ele>
        <time>2023-09-30T09:46:15.000Z</time>
      </trkpt>
      <trkpt lat="46.00411" lon="6.79207">
        <ele>1800.8000488281</ele>
        <time>2023-09-30T09:46:16.000Z</time>
      </trkpt>
      <trkpt lat="46.00416" lon="6.79205">
        <ele>1800.4000244141</ele>
        <time>2023-09-30T09:46:17.000Z</time>
      </trkpt>
      <trkpt lat="46.00422" lon="6.79204">
        <ele>1800.1999511719</ele>
        <time>2023-09-30T09:46:18.000Z</time>
      </trkpt>
      <trkpt lat="46.00427" lon="6.79203">
        <ele>1799.8000488281</ele>
        <time>2023-09-30T09:46:19.000Z</time>
      </trkpt>
      <trkpt lat="46.00438" lon="6.792">
        <ele>1798.8000488281</ele>
        <time>2023-09-30T09:46:21.000Z</time>
      </trkpt>
      <trkpt lat="46.00443" lon="6.79196">
        <ele>1798.5999755859</ele>
        <time>2023-09-30T09:46:22.000Z</time>
      </trkpt>
      <trkpt lat="46.00446" lon="6.7919">
        <ele>1797.8000488281</ele>
        <time>2023-09-30T09:46:23.000Z</time>
      </trkpt>
      <trkpt lat="46.00448" lon="6.79184">
        <ele>1797.1999511719</ele>
        <time>2023-09-30T09:46:24.000Z</time>
      </trkpt>
      <trkpt lat="46.0045" lon="6.79178">
        <ele>1797</ele>
        <time>2023-09-30T09:46:25.000Z</time>
      </trkpt>
      <trkpt lat="46.00453" lon="6.79173">
        <ele>1796.4000244141</ele>
        <time>2023-09-30T09:46:26.000Z</time>
      </trkpt>
      <trkpt lat="46.00454" lon="6.79168">
        <ele>1796.1999511719</ele>
        <time>2023-09-30T09:46:27.000Z</time>
      </trkpt>
      <trkpt lat="46.00455" lon="6.79163">
        <ele>1795.8000488281</ele>
        <time>2023-09-30T09:46:28.000Z</time>
      </trkpt>
      <trkpt lat="46.00456" lon="6.79158">
        <ele>1795.5999755859</ele>
        <time>2023-09-30T09:46:29.000Z</time>
      </trkpt>
      <trkpt lat="46.00454" lon="6.79153">
        <ele>1795.1999511719</ele>
        <time>2023-09-30T09:46:30.000Z</time>
      </trkpt>
      <trkpt lat="46.00451" lon="6.79146">
        <ele>1794.5999755859</ele>
        <time>2023-09-30T09:46:32.000Z</time>
      </trkpt>
      <trkpt lat="46.0045" lon="6.79145">
        <ele>1794.1999511719</ele>
        <time>2023-09-30T09:46:33.000Z</time>
      </trkpt>
      <trkpt lat="46.0045" lon="6.79145">
        <ele>1794</ele>
        <time>2023-09-30T09:46:34.000Z</time>
      </trkpt>
      <trkpt lat="46.0045" lon="6.79145">
        <ele>1793.4000244141</ele>
        <time>2023-09-30T09:46:38.000Z</time>
      </trkpt>
      <trkpt lat="46.0045" lon="6.79145">
        <ele>1793.1999511719</ele>
        <time>2023-09-30T09:46:40.000Z</time>
      </trkpt>
      <trkpt lat="46.0045" lon="6.79145">
        <ele>1792.1999511719</ele>
        <time>2023-09-30T09:49:57.000Z</time>
      </trkpt>
      <trkpt lat="46.0045" lon="6.79145">
        <ele>1792.5999755859</ele>
        <time>2023-09-30T09:50:14.000Z</time>
      </trkpt>
      <trkpt lat="46.0045" lon="6.79145">
        <ele>1792.5999755859</ele>
        <time>2023-09-30T09:50:23.000Z</time>
      </trkpt>
      <trkpt lat="46.00453" lon="6.79145">
        <ele>1792.8000488281</ele>
        <time>2023-09-30T09:50:24.000Z</time>
      </trkpt>
      <trkpt lat="46.00455" lon="6.79143">
        <ele>1792.5999755859</ele>
        <time>2023-09-30T09:50:25.000Z</time>
      </trkpt>
      <trkpt lat="46.0047" lon="6.79129">
        <ele>1792.1999511719</ele>
        <time>2023-09-30T09:50:31.000Z</time>
      </trkpt>
      <trkpt lat="46.00472" lon="6.79127">
        <ele>1792.1999511719</ele>
        <time>2023-09-30T09:50:32.000Z</time>
      </trkpt>
      <trkpt lat="46.00473" lon="6.79126">
        <ele>1792.1999511719</ele>
        <time>2023-09-30T09:50:33.000Z</time>
      </trkpt>
      <trkpt lat="46.00474" lon="6.79124">
        <ele>1792</ele>
        <time>2023-09-30T09:50:34.000Z</time>
      </trkpt>
      <trkpt lat="46.00475" lon="6.79122">
        <ele>1792</ele>
        <time>2023-09-30T09:50:35.000Z</time>
      </trkpt>
      <trkpt lat="46.00476" lon="6.79119">
        <ele>1792</ele>
        <time>2023-09-30T09:50:36.000Z</time>
      </trkpt>
      <trkpt lat="46.00477" lon="6.79117">
        <ele>1792</ele>
        <time>2023-09-30T09:50:37.000Z</time>
      </trkpt>
      <trkpt lat="46.00483" lon="6.79099">
        <ele>1792.1999511719</ele>
        <time>2023-09-30T09:50:42.000Z</time>
      </trkpt>
      <trkpt lat="46.00487" lon="6.79074">
        <ele>1792.1999511719</ele>
        <time>2023-09-30T09:50:47.000Z</time>
      </trkpt>
      <trkpt lat="46.00489" lon="6.79063">
        <ele>1792.1999511719</ele>
        <time>2023-09-30T09:50:49.000Z</time>
      </trkpt>
      <trkpt lat="46.00489" lon="6.79044">
        <ele>1792</ele>
        <time>2023-09-30T09:50:52.000Z</time>
      </trkpt>
      <trkpt lat="46.00487" lon="6.79019">
        <ele>1791.4000244141</ele>
        <time>2023-09-30T09:50:56.000Z</time>
      </trkpt>
      <trkpt lat="46.00486" lon="6.79014">
        <ele>1791.4000244141</ele>
        <time>2023-09-30T09:50:57.000Z</time>
      </trkpt>
      <trkpt lat="46.00486" lon="6.79004">
        <ele>1791</ele>
        <time>2023-09-30T09:50:59.000Z</time>
      </trkpt>
      <trkpt lat="46.00485" lon="6.78999">
        <ele>1790.8000488281</ele>
        <time>2023-09-30T09:51:00.000Z</time>
      </trkpt>
      <trkpt lat="46.00485" lon="6.78992">
        <ele>1790.8000488281</ele>
        <time>2023-09-30T09:51:01.000Z</time>
      </trkpt>
      <trkpt lat="46.00485" lon="6.78988">
        <ele>1790.4000244141</ele>
        <time>2023-09-30T09:51:02.000Z</time>
      </trkpt>
      <trkpt lat="46.00484" lon="6.78983">
        <ele>1790.4000244141</ele>
        <time>2023-09-30T09:51:03.000Z</time>
      </trkpt>
      <trkpt lat="46.00485" lon="6.78979">
        <ele>1790.1999511719</ele>
        <time>2023-09-30T09:51:04.000Z</time>
      </trkpt>
      <trkpt lat="46.00486" lon="6.78975">
        <ele>1790</ele>
        <time>2023-09-30T09:51:05.000Z</time>
      </trkpt>
      <trkpt lat="46.00487" lon="6.78971">
        <ele>1790</ele>
        <time>2023-09-30T09:51:06.000Z</time>
      </trkpt>
      <trkpt lat="46.00487" lon="6.78968">
        <ele>1789.8000488281</ele>
        <time>2023-09-30T09:51:07.000Z</time>
      </trkpt>
      <trkpt lat="46.00487" lon="6.78965">
        <ele>1789.8000488281</ele>
        <time>2023-09-30T09:51:08.000Z</time>
      </trkpt>
      <trkpt lat="46.00486" lon="6.78962">
        <ele>1789.5999755859</ele>
        <time>2023-09-30T09:51:09.000Z</time>
      </trkpt>
      <trkpt lat="46.00485" lon="6.78959">
        <ele>1789.5999755859</ele>
        <time>2023-09-30T09:51:10.000Z</time>
      </trkpt>
      <trkpt lat="46.00484" lon="6.78957">
        <ele>1789.4000244141</ele>
        <time>2023-09-30T09:51:11.000Z</time>
      </trkpt>
      <trkpt lat="46.00483" lon="6.78955">
        <ele>1789.1999511719</ele>
        <time>2023-09-30T09:51:12.000Z</time>
      </trkpt>
      <trkpt lat="46.00482" lon="6.78952">
        <ele>1789.1999511719</ele>
        <time>2023-09-30T09:51:13.000Z</time>
      </trkpt>
      <trkpt lat="46.00481" lon="6.7895">
        <ele>1789</ele>
        <time>2023-09-30T09:51:14.000Z</time>
      </trkpt>
      <trkpt lat="46.00481" lon="6.78947">
        <ele>1789</ele>
        <time>2023-09-30T09:51:15.000Z</time>
      </trkpt>
      <trkpt lat="46.00482" lon="6.78943">
        <ele>1789</ele>
        <time>2023-09-30T09:51:16.000Z</time>
      </trkpt>
      <trkpt lat="46.00483" lon="6.7894">
        <ele>1789</ele>
        <time>2023-09-30T09:51:17.000Z</time>
      </trkpt>
      <trkpt lat="46.00484" lon="6.78938">
        <ele>1788.8000488281</ele>
        <time>2023-09-30T09:51:18.000Z</time>
      </trkpt>
      <trkpt lat="46.00488" lon="6.78919">
        <ele>1788.4000244141</ele>
        <time>2023-09-30T09:51:23.000Z</time>
      </trkpt>
      <trkpt lat="46.0049" lon="6.78915">
        <ele>1788.1999511719</ele>
        <time>2023-09-30T09:51:24.000Z</time>
      </trkpt>
      <trkpt lat="46.00492" lon="6.78912">
        <ele>1788.1999511719</ele>
        <time>2023-09-30T09:51:25.000Z</time>
      </trkpt>
      <trkpt lat="46.00494" lon="6.78909">
        <ele>1788</ele>
        <time>2023-09-30T09:51:26.000Z</time>
      </trkpt>
      <trkpt lat="46.00497" lon="6.78906">
        <ele>1787.8000488281</ele>
        <time>2023-09-30T09:51:27.000Z</time>
      </trkpt>
      <trkpt lat="46.00499" lon="6.78902">
        <ele>1787.8000488281</ele>
        <time>2023-09-30T09:51:28.000Z</time>
      </trkpt>
      <trkpt lat="46.00508" lon="6.78882">
        <ele>1787.4000244141</ele>
        <time>2023-09-30T09:51:33.000Z</time>
      </trkpt>
      <trkpt lat="46.00509" lon="6.78877">
        <ele>1787.1999511719</ele>
        <time>2023-09-30T09:51:34.000Z</time>
      </trkpt>
      <trkpt lat="46.00513" lon="6.78862">
        <ele>1787</ele>
        <time>2023-09-30T09:51:38.000Z</time>
      </trkpt>
      <trkpt lat="46.00515" lon="6.78861">
        <ele>1786.8000488281</ele>
        <time>2023-09-30T09:51:39.000Z</time>
      </trkpt>
      <trkpt lat="46.00516" lon="6.78861">
        <ele>1786.8000488281</ele>
        <time>2023-09-30T09:51:40.000Z</time>
      </trkpt>
      <trkpt lat="46.00517" lon="6.78861">
        <ele>1786.5999755859</ele>
        <time>2023-09-30T09:51:41.000Z</time>
      </trkpt>
      <trkpt lat="46.00518" lon="6.78861">
        <ele>1786.1999511719</ele>
        <time>2023-09-30T09:51:43.000Z</time>
      </trkpt>
      <trkpt lat="46.00518" lon="6.7886">
        <ele>1785.8000488281</ele>
        <time>2023-09-30T09:51:45.000Z</time>
      </trkpt>
      <trkpt lat="46.00518" lon="6.7886">
        <ele>1785.5999755859</ele>
        <time>2023-09-30T09:51:46.000Z</time>
      </trkpt>
      <trkpt lat="46.00519" lon="6.78859">
        <ele>1785.5999755859</ele>
        <time>2023-09-30T09:51:47.000Z</time>
      </trkpt>
      <trkpt lat="46.00519" lon="6.78858">
        <ele>1785.5999755859</ele>
        <time>2023-09-30T09:51:48.000Z</time>
      </trkpt>
      <trkpt lat="46.0052" lon="6.78856">
        <ele>1785.5999755859</ele>
        <time>2023-09-30T09:51:49.000Z</time>
      </trkpt>
      <trkpt lat="46.0052" lon="6.78855">
        <ele>1785.5999755859</ele>
        <time>2023-09-30T09:51:50.000Z</time>
      </trkpt>
      <trkpt lat="46.0052" lon="6.78853">
        <ele>1785.4000244141</ele>
        <time>2023-09-30T09:51:51.000Z</time>
      </trkpt>
      <trkpt lat="46.00521" lon="6.78847">
        <ele>1785.4000244141</ele>
        <time>2023-09-30T09:51:56.000Z</time>
      </trkpt>
      <trkpt lat="46.00522" lon="6.78845">
        <ele>1785.4000244141</ele>
        <time>2023-09-30T09:51:59.000Z</time>
      </trkpt>
      <trkpt lat="46.00523" lon="6.78844">
        <ele>1785.4000244141</ele>
        <time>2023-09-30T09:52:00.000Z</time>
      </trkpt>
      <trkpt lat="46.00524" lon="6.78843">
        <ele>1785.4000244141</ele>
        <time>2023-09-30T09:52:01.000Z</time>
      </trkpt>
      <trkpt lat="46.00532" lon="6.7884">
        <ele>1785.5999755859</ele>
        <time>2023-09-30T09:52:07.000Z</time>
      </trkpt>
      <trkpt lat="46.00533" lon="6.78839">
        <ele>1785.5999755859</ele>
        <time>2023-09-30T09:52:08.000Z</time>
      </trkpt>
      <trkpt lat="46.00551" lon="6.78817">
        <ele>1785.4000244141</ele>
        <time>2023-09-30T09:52:14.000Z</time>
      </trkpt>
      <trkpt lat="46.00557" lon="6.78807">
        <ele>1785.4000244141</ele>
        <time>2023-09-30T09:52:16.000Z</time>
      </trkpt>
      <trkpt lat="46.00559" lon="6.78802">
        <ele>1785.1999511719</ele>
        <time>2023-09-30T09:52:17.000Z</time>
      </trkpt>
      <trkpt lat="46.00561" lon="6.78797">
        <ele>1785</ele>
        <time>2023-09-30T09:52:18.000Z</time>
      </trkpt>
      <trkpt lat="46.00564" lon="6.78793">
        <ele>1785</ele>
        <time>2023-09-30T09:52:19.000Z</time>
      </trkpt>
      <trkpt lat="46.00566" lon="6.78788">
        <ele>1784.8000488281</ele>
        <time>2023-09-30T09:52:20.000Z</time>
      </trkpt>
      <trkpt lat="46.00569" lon="6.78779">
        <ele>1784.4000244141</ele>
        <time>2023-09-30T09:52:22.000Z</time>
      </trkpt>
      <trkpt lat="46.0057" lon="6.78774">
        <ele>1784.1999511719</ele>
        <time>2023-09-30T09:52:23.000Z</time>
      </trkpt>
      <trkpt lat="46.00571" lon="6.78766">
        <ele>1783.8000488281</ele>
        <time>2023-09-30T09:52:25.000Z</time>
      </trkpt>
      <trkpt lat="46.00572" lon="6.78761">
        <ele>1783.5999755859</ele>
        <time>2023-09-30T09:52:26.000Z</time>
      </trkpt>
      <trkpt lat="46.00573" lon="6.78757">
        <ele>1783.4000244141</ele>
        <time>2023-09-30T09:52:27.000Z</time>
      </trkpt>
      <trkpt lat="46.00575" lon="6.78754">
        <ele>1783.4000244141</ele>
        <time>2023-09-30T09:52:28.000Z</time>
      </trkpt>
      <trkpt lat="46.00577" lon="6.78751">
        <ele>1783.1999511719</ele>
        <time>2023-09-30T09:52:29.000Z</time>
      </trkpt>
      <trkpt lat="46.0058" lon="6.78749">
        <ele>1783</ele>
        <time>2023-09-30T09:52:30.000Z</time>
      </trkpt>
      <trkpt lat="46.00583" lon="6.78747">
        <ele>1783</ele>
        <time>2023-09-30T09:52:31.000Z</time>
      </trkpt>
      <trkpt lat="46.00586" lon="6.78745">
        <ele>1782.8000488281</ele>
        <time>2023-09-30T09:52:32.000Z</time>
      </trkpt>
      <trkpt lat="46.00588" lon="6.78743">
        <ele>1782.8000488281</ele>
        <time>2023-09-30T09:52:33.000Z</time>
      </trkpt>
      <trkpt lat="46.00589" lon="6.78741">
        <ele>1782.8000488281</ele>
        <time>2023-09-30T09:52:34.000Z</time>
      </trkpt>
      <trkpt lat="46.0059" lon="6.78739">
        <ele>1782.5999755859</ele>
        <time>2023-09-30T09:52:35.000Z</time>
      </trkpt>
      <trkpt lat="46.00591" lon="6.78737">
        <ele>1782.5999755859</ele>
        <time>2023-09-30T09:52:36.000Z</time>
      </trkpt>
      <trkpt lat="46.00592" lon="6.78734">
        <ele>1782.5999755859</ele>
        <time>2023-09-30T09:52:37.000Z</time>
      </trkpt>
      <trkpt lat="46.00596" lon="6.78729">
        <ele>1782.5999755859</ele>
        <time>2023-09-30T09:52:40.000Z</time>
      </trkpt>
      <trkpt lat="46.00601" lon="6.78723">
        <ele>1782.8000488281</ele>
        <time>2023-09-30T09:52:44.000Z</time>
      </trkpt>
      <trkpt lat="46.00606" lon="6.78716">
        <ele>1783.8000488281</ele>
        <time>2023-09-30T09:52:47.000Z</time>
      </trkpt>
      <trkpt lat="46.00607" lon="6.78714">
        <ele>1784</ele>
        <time>2023-09-30T09:52:48.000Z</time>
      </trkpt>
      <trkpt lat="46.00617" lon="6.78702">
        <ele>1784.4000244141</ele>
        <time>2023-09-30T09:52:52.000Z</time>
      </trkpt>
      <trkpt lat="46.00624" lon="6.78693">
        <ele>1784.4000244141</ele>
        <time>2023-09-30T09:52:55.000Z</time>
      </trkpt>
      <trkpt lat="46.00626" lon="6.7869">
        <ele>1784.4000244141</ele>
        <time>2023-09-30T09:52:56.000Z</time>
      </trkpt>
      <trkpt lat="46.00631" lon="6.78683">
        <ele>1784.4000244141</ele>
        <time>2023-09-30T09:52:58.000Z</time>
      </trkpt>
      <trkpt lat="46.00645" lon="6.78666">
        <ele>1783.5999755859</ele>
        <time>2023-09-30T09:53:03.000Z</time>
      </trkpt>
      <trkpt lat="46.00651" lon="6.78658">
        <ele>1783.1999511719</ele>
        <time>2023-09-30T09:53:05.000Z</time>
      </trkpt>
      <trkpt lat="46.00658" lon="6.78648">
        <ele>1782.8000488281</ele>
        <time>2023-09-30T09:53:08.000Z</time>
      </trkpt>
      <trkpt lat="46.00663" lon="6.78645">
        <ele>1782.1999511719</ele>
        <time>2023-09-30T09:53:10.000Z</time>
      </trkpt>
      <trkpt lat="46.00665" lon="6.78645">
        <ele>1781.8000488281</ele>
        <time>2023-09-30T09:53:11.000Z</time>
      </trkpt>
      <trkpt lat="46.00666" lon="6.78645">
        <ele>1781.4000244141</ele>
        <time>2023-09-30T09:53:12.000Z</time>
      </trkpt>
      <trkpt lat="46.00667" lon="6.78644">
        <ele>1781</ele>
        <time>2023-09-30T09:53:13.000Z</time>
      </trkpt>
      <trkpt lat="46.00668" lon="6.78644">
        <ele>1780.4000244141</ele>
        <time>2023-09-30T09:53:14.000Z</time>
      </trkpt>
      <trkpt lat="46.00668" lon="6.78644">
        <ele>1779.5999755859</ele>
        <time>2023-09-30T09:53:15.000Z</time>
      </trkpt>
      <trkpt lat="46.00668" lon="6.78644">
        <ele>1779.1999511719</ele>
        <time>2023-09-30T09:53:16.000Z</time>
      </trkpt>
      <trkpt lat="46.00669" lon="6.78642">
        <ele>1778.5999755859</ele>
        <time>2023-09-30T09:53:19.000Z</time>
      </trkpt>
      <trkpt lat="46.0067" lon="6.78641">
        <ele>1778.1999511719</ele>
        <time>2023-09-30T09:53:22.000Z</time>
      </trkpt>
      <trkpt lat="46.0067" lon="6.7864">
        <ele>1778</ele>
        <time>2023-09-30T09:53:23.000Z</time>
      </trkpt>
      <trkpt lat="46.00671" lon="6.78639">
        <ele>1778</ele>
        <time>2023-09-30T09:53:24.000Z</time>
      </trkpt>
      <trkpt lat="46.00671" lon="6.78639">
        <ele>1777.5999755859</ele>
        <time>2023-09-30T09:53:26.000Z</time>
      </trkpt>
      <trkpt lat="46.00671" lon="6.78639">
        <ele>1777.4000244141</ele>
        <time>2023-09-30T09:53:27.000Z</time>
      </trkpt>
      <trkpt lat="46.00671" lon="6.78639">
        <ele>1776.4000244141</ele>
        <time>2023-09-30T09:53:31.000Z</time>
      </trkpt>
      <trkpt lat="46.00671" lon="6.78639">
        <ele>1776.1999511719</ele>
        <time>2023-09-30T09:53:35.000Z</time>
      </trkpt>
      <trkpt lat="46.00671" lon="6.78639">
        <ele>1776</ele>
        <time>2023-09-30T09:53:50.000Z</time>
      </trkpt>
      <trkpt lat="46.00676" lon="6.78637">
        <ele>1776</ele>
        <time>2023-09-30T09:53:53.000Z</time>
      </trkpt>
      <trkpt lat="46.00685" lon="6.78637">
        <ele>1775.8000488281</ele>
        <time>2023-09-30T09:53:56.000Z</time>
      </trkpt>
      <trkpt lat="46.00687" lon="6.78638">
        <ele>1775.5999755859</ele>
        <time>2023-09-30T09:53:57.000Z</time>
      </trkpt>
      <trkpt lat="46.0069" lon="6.78638">
        <ele>1775.4000244141</ele>
        <time>2023-09-30T09:53:58.000Z</time>
      </trkpt>
      <trkpt lat="46.00692" lon="6.78638">
        <ele>1775.1999511719</ele>
        <time>2023-09-30T09:53:59.000Z</time>
      </trkpt>
      <trkpt lat="46.00701" lon="6.78636">
        <ele>1774.1999511719</ele>
        <time>2023-09-30T09:54:03.000Z</time>
      </trkpt>
      <trkpt lat="46.00703" lon="6.78635">
        <ele>1773.8000488281</ele>
        <time>2023-09-30T09:54:04.000Z</time>
      </trkpt>
      <trkpt lat="46.00704" lon="6.78633">
        <ele>1773.5999755859</ele>
        <time>2023-09-30T09:54:05.000Z</time>
      </trkpt>
      <trkpt lat="46.00704" lon="6.78632">
        <ele>1773.5999755859</ele>
        <time>2023-09-30T09:54:06.000Z</time>
      </trkpt>
      <trkpt lat="46.00705" lon="6.78631">
        <ele>1773.4000244141</ele>
        <time>2023-09-30T09:54:07.000Z</time>
      </trkpt>
      <trkpt lat="46.00705" lon="6.78629">
        <ele>1773.4000244141</ele>
        <time>2023-09-30T09:54:08.000Z</time>
      </trkpt>
      <trkpt lat="46.00706" lon="6.78628">
        <ele>1773</ele>
        <time>2023-09-30T09:54:09.000Z</time>
      </trkpt>
      <trkpt lat="46.00708" lon="6.78627">
        <ele>1772.8000488281</ele>
        <time>2023-09-30T09:54:10.000Z</time>
      </trkpt>
      <trkpt lat="46.00709" lon="6.78626">
        <ele>1772.4000244141</ele>
        <time>2023-09-30T09:54:11.000Z</time>
      </trkpt>
      <trkpt lat="46.0071" lon="6.78626">
        <ele>1772.1999511719</ele>
        <time>2023-09-30T09:54:12.000Z</time>
      </trkpt>
      <trkpt lat="46.00711" lon="6.78625">
        <ele>1772.1999511719</ele>
        <time>2023-09-30T09:54:13.000Z</time>
      </trkpt>
      <trkpt lat="46.00712" lon="6.78625">
        <ele>1772</ele>
        <time>2023-09-30T09:54:14.000Z</time>
      </trkpt>
      <trkpt lat="46.00714" lon="6.78626">
        <ele>1771.8000488281</ele>
        <time>2023-09-30T09:54:15.000Z</time>
      </trkpt>
      <trkpt lat="46.00716" lon="6.78627">
        <ele>1771.4000244141</ele>
        <time>2023-09-30T09:54:16.000Z</time>
      </trkpt>
      <trkpt lat="46.00717" lon="6.78626">
        <ele>1771.1999511719</ele>
        <time>2023-09-30T09:54:17.000Z</time>
      </trkpt>
      <trkpt lat="46.00719" lon="6.78625">
        <ele>1770.8000488281</ele>
        <time>2023-09-30T09:54:18.000Z</time>
      </trkpt>
      <trkpt lat="46.00721" lon="6.78623">
        <ele>1770.8000488281</ele>
        <time>2023-09-30T09:54:19.000Z</time>
      </trkpt>
      <trkpt lat="46.00724" lon="6.7862">
        <ele>1770.5999755859</ele>
        <time>2023-09-30T09:54:20.000Z</time>
      </trkpt>
      <trkpt lat="46.00725" lon="6.78619">
        <ele>1770.4000244141</ele>
        <time>2023-09-30T09:54:21.000Z</time>
      </trkpt>
      <trkpt lat="46.00725" lon="6.78617">
        <ele>1769.8000488281</ele>
        <time>2023-09-30T09:54:22.000Z</time>
      </trkpt>
      <trkpt lat="46.00726" lon="6.78615">
        <ele>1769.4000244141</ele>
        <time>2023-09-30T09:54:23.000Z</time>
      </trkpt>
      <trkpt lat="46.00727" lon="6.78614">
        <ele>1768.5999755859</ele>
        <time>2023-09-30T09:54:24.000Z</time>
      </trkpt>
      <trkpt lat="46.00727" lon="6.78611">
        <ele>1768</ele>
        <time>2023-09-30T09:54:25.000Z</time>
      </trkpt>
      <trkpt lat="46.00729" lon="6.78605">
        <ele>1767.4000244141</ele>
        <time>2023-09-30T09:54:27.000Z</time>
      </trkpt>
      <trkpt lat="46.00732" lon="6.78589">
        <ele>1766.8000488281</ele>
        <time>2023-09-30T09:54:31.000Z</time>
      </trkpt>
      <trkpt lat="46.00732" lon="6.78586">
        <ele>1766.5999755859</ele>
        <time>2023-09-30T09:54:32.000Z</time>
      </trkpt>
      <trkpt lat="46.00731" lon="6.78583">
        <ele>1766.4000244141</ele>
        <time>2023-09-30T09:54:33.000Z</time>
      </trkpt>
      <trkpt lat="46.00729" lon="6.78579">
        <ele>1766</ele>
        <time>2023-09-30T09:54:34.000Z</time>
      </trkpt>
      <trkpt lat="46.00728" lon="6.78576">
        <ele>1765.5999755859</ele>
        <time>2023-09-30T09:54:35.000Z</time>
      </trkpt>
      <trkpt lat="46.00726" lon="6.78572">
        <ele>1765</ele>
        <time>2023-09-30T09:54:36.000Z</time>
      </trkpt>
      <trkpt lat="46.00718" lon="6.78561">
        <ele>1764.5999755859</ele>
        <time>2023-09-30T09:54:40.000Z</time>
      </trkpt>
      <trkpt lat="46.00716" lon="6.78559">
        <ele>1764.5999755859</ele>
        <time>2023-09-30T09:54:41.000Z</time>
      </trkpt>
      <trkpt lat="46.0071" lon="6.78553">
        <ele>1764.4000244141</ele>
        <time>2023-09-30T09:54:44.000Z</time>
      </trkpt>
      <trkpt lat="46.0071" lon="6.78549">
        <ele>1764</ele>
        <time>2023-09-30T09:54:45.000Z</time>
      </trkpt>
      <trkpt lat="46.00709" lon="6.78546">
        <ele>1764</ele>
        <time>2023-09-30T09:54:46.000Z</time>
      </trkpt>
      <trkpt lat="46.00708" lon="6.78542">
        <ele>1763.5999755859</ele>
        <time>2023-09-30T09:54:47.000Z</time>
      </trkpt>
      <trkpt lat="46.00706" lon="6.78539">
        <ele>1763.1999511719</ele>
        <time>2023-09-30T09:54:48.000Z</time>
      </trkpt>
      <trkpt lat="46.00704" lon="6.78537">
        <ele>1763</ele>
        <time>2023-09-30T09:54:49.000Z</time>
      </trkpt>
      <trkpt lat="46.00702" lon="6.78536">
        <ele>1762.8000488281</ele>
        <time>2023-09-30T09:54:50.000Z</time>
      </trkpt>
      <trkpt lat="46.007" lon="6.78534">
        <ele>1762.4000244141</ele>
        <time>2023-09-30T09:54:51.000Z</time>
      </trkpt>
      <trkpt lat="46.00699" lon="6.78532">
        <ele>1761.5999755859</ele>
        <time>2023-09-30T09:54:52.000Z</time>
      </trkpt>
      <trkpt lat="46.00699" lon="6.7853">
        <ele>1761.1999511719</ele>
        <time>2023-09-30T09:54:53.000Z</time>
      </trkpt>
      <trkpt lat="46.00698" lon="6.78527">
        <ele>1760.8000488281</ele>
        <time>2023-09-30T09:54:54.000Z</time>
      </trkpt>
      <trkpt lat="46.00697" lon="6.78523">
        <ele>1760.1999511719</ele>
        <time>2023-09-30T09:54:55.000Z</time>
      </trkpt>
      <trkpt lat="46.00697" lon="6.78519">
        <ele>1760.1999511719</ele>
        <time>2023-09-30T09:54:56.000Z</time>
      </trkpt>
      <trkpt lat="46.00697" lon="6.78515">
        <ele>1759.8000488281</ele>
        <time>2023-09-30T09:54:57.000Z</time>
      </trkpt>
      <trkpt lat="46.00699" lon="6.7851">
        <ele>1759.8000488281</ele>
        <time>2023-09-30T09:54:58.000Z</time>
      </trkpt>
      <trkpt lat="46.007" lon="6.78504">
        <ele>1759.5999755859</ele>
        <time>2023-09-30T09:54:59.000Z</time>
      </trkpt>
      <trkpt lat="46.007" lon="6.78499">
        <ele>1759.4000244141</ele>
        <time>2023-09-30T09:55:00.000Z</time>
      </trkpt>
      <trkpt lat="46.007" lon="6.78494">
        <ele>1759</ele>
        <time>2023-09-30T09:55:01.000Z</time>
      </trkpt>
      <trkpt lat="46.007" lon="6.7849">
        <ele>1758.1999511719</ele>
        <time>2023-09-30T09:55:02.000Z</time>
      </trkpt>
      <trkpt lat="46.00702" lon="6.78485">
        <ele>1757.8000488281</ele>
        <time>2023-09-30T09:55:03.000Z</time>
      </trkpt>
      <trkpt lat="46.00704" lon="6.78482">
        <ele>1757.1999511719</ele>
        <time>2023-09-30T09:55:04.000Z</time>
      </trkpt>
      <trkpt lat="46.00705" lon="6.7848">
        <ele>1756.4000244141</ele>
        <time>2023-09-30T09:55:05.000Z</time>
      </trkpt>
      <trkpt lat="46.00706" lon="6.78477">
        <ele>1755.1999511719</ele>
        <time>2023-09-30T09:55:06.000Z</time>
      </trkpt>
      <trkpt lat="46.00708" lon="6.78475">
        <ele>1754.8000488281</ele>
        <time>2023-09-30T09:55:07.000Z</time>
      </trkpt>
      <trkpt lat="46.00717" lon="6.78466">
        <ele>1754.1999511719</ele>
        <time>2023-09-30T09:55:10.000Z</time>
      </trkpt>
      <trkpt lat="46.00721" lon="6.78461">
        <ele>1754.1999511719</ele>
        <time>2023-09-30T09:55:11.000Z</time>
      </trkpt>
      <trkpt lat="46.00729" lon="6.78453">
        <ele>1754</ele>
        <time>2023-09-30T09:55:13.000Z</time>
      </trkpt>
      <trkpt lat="46.00733" lon="6.78449">
        <ele>1754</ele>
        <time>2023-09-30T09:55:14.000Z</time>
      </trkpt>
      <trkpt lat="46.00743" lon="6.78444">
        <ele>1753.8000488281</ele>
        <time>2023-09-30T09:55:16.000Z</time>
      </trkpt>
      <trkpt lat="46.00749" lon="6.78442">
        <ele>1753.5999755859</ele>
        <time>2023-09-30T09:55:17.000Z</time>
      </trkpt>
      <trkpt lat="46.00753" lon="6.7844">
        <ele>1752.5999755859</ele>
        <time>2023-09-30T09:55:18.000Z</time>
      </trkpt>
      <trkpt lat="46.00757" lon="6.78438">
        <ele>1752.1999511719</ele>
        <time>2023-09-30T09:55:19.000Z</time>
      </trkpt>
      <trkpt lat="46.00759" lon="6.78434">
        <ele>1751.4000244141</ele>
        <time>2023-09-30T09:55:20.000Z</time>
      </trkpt>
      <trkpt lat="46.0076" lon="6.78431">
        <ele>1751</ele>
        <time>2023-09-30T09:55:21.000Z</time>
      </trkpt>
      <trkpt lat="46.00762" lon="6.78427">
        <ele>1750</ele>
        <time>2023-09-30T09:55:22.000Z</time>
      </trkpt>
      <trkpt lat="46.00765" lon="6.78424">
        <ele>1749.5999755859</ele>
        <time>2023-09-30T09:55:23.000Z</time>
      </trkpt>
      <trkpt lat="46.00768" lon="6.78421">
        <ele>1748.8000488281</ele>
        <time>2023-09-30T09:55:24.000Z</time>
      </trkpt>
      <trkpt lat="46.00772" lon="6.7842">
        <ele>1748.1999511719</ele>
        <time>2023-09-30T09:55:25.000Z</time>
      </trkpt>
      <trkpt lat="46.00775" lon="6.78418">
        <ele>1747.5999755859</ele>
        <time>2023-09-30T09:55:26.000Z</time>
      </trkpt>
      <trkpt lat="46.00779" lon="6.78416">
        <ele>1747</ele>
        <time>2023-09-30T09:55:27.000Z</time>
      </trkpt>
      <trkpt lat="46.00787" lon="6.78413">
        <ele>1746.4000244141</ele>
        <time>2023-09-30T09:55:29.000Z</time>
      </trkpt>
      <trkpt lat="46.00795" lon="6.78412">
        <ele>1746.1999511719</ele>
        <time>2023-09-30T09:55:31.000Z</time>
      </trkpt>
      <trkpt lat="46.00805" lon="6.78408">
        <ele>1745.4000244141</ele>
        <time>2023-09-30T09:55:34.000Z</time>
      </trkpt>
      <trkpt lat="46.00811" lon="6.78403">
        <ele>1744.8000488281</ele>
        <time>2023-09-30T09:55:36.000Z</time>
      </trkpt>
      <trkpt lat="46.00814" lon="6.78401">
        <ele>1744.5999755859</ele>
        <time>2023-09-30T09:55:37.000Z</time>
      </trkpt>
      <trkpt lat="46.00816" lon="6.78398">
        <ele>1744.1999511719</ele>
        <time>2023-09-30T09:55:38.000Z</time>
      </trkpt>
      <trkpt lat="46.00819" lon="6.78396">
        <ele>1744</ele>
        <time>2023-09-30T09:55:39.000Z</time>
      </trkpt>
      <trkpt lat="46.00822" lon="6.78394">
        <ele>1743.5999755859</ele>
        <time>2023-09-30T09:55:40.000Z</time>
      </trkpt>
      <trkpt lat="46.00828" lon="6.78391">
        <ele>1743.4000244141</ele>
        <time>2023-09-30T09:55:42.000Z</time>
      </trkpt>
      <trkpt lat="46.00831" lon="6.78389">
        <ele>1743</ele>
        <time>2023-09-30T09:55:43.000Z</time>
      </trkpt>
      <trkpt lat="46.00833" lon="6.78386">
        <ele>1742.5999755859</ele>
        <time>2023-09-30T09:55:44.000Z</time>
      </trkpt>
      <trkpt lat="46.00835" lon="6.78384">
        <ele>1742.1999511719</ele>
        <time>2023-09-30T09:55:45.000Z</time>
      </trkpt>
      <trkpt lat="46.00836" lon="6.78382">
        <ele>1742.1999511719</ele>
        <time>2023-09-30T09:55:46.000Z</time>
      </trkpt>
      <trkpt lat="46.00837" lon="6.7838">
        <ele>1742</ele>
        <time>2023-09-30T09:55:47.000Z</time>
      </trkpt>
      <trkpt lat="46.00838" lon="6.7838">
        <ele>1741.8000488281</ele>
        <time>2023-09-30T09:55:48.000Z</time>
      </trkpt>
      <trkpt lat="46.00839" lon="6.78379">
        <ele>1741.8000488281</ele>
        <time>2023-09-30T09:55:49.000Z</time>
      </trkpt>
      <trkpt lat="46.0084" lon="6.78378">
        <ele>1741.8000488281</ele>
        <time>2023-09-30T09:55:50.000Z</time>
      </trkpt>
      <trkpt lat="46.00841" lon="6.78377">
        <ele>1741.8000488281</ele>
        <time>2023-09-30T09:55:51.000Z</time>
      </trkpt>
      <trkpt lat="46.00843" lon="6.78375">
        <ele>1741.8000488281</ele>
        <time>2023-09-30T09:55:53.000Z</time>
      </trkpt>
      <trkpt lat="46.00843" lon="6.78374">
        <ele>1741.8000488281</ele>
        <time>2023-09-30T09:55:54.000Z</time>
      </trkpt>
      <trkpt lat="46.00845" lon="6.78373">
        <ele>1741.8000488281</ele>
        <time>2023-09-30T09:55:55.000Z</time>
      </trkpt>
      <trkpt lat="46.00845" lon="6.78372">
        <ele>1741.8000488281</ele>
        <time>2023-09-30T09:55:56.000Z</time>
      </trkpt>
      <trkpt lat="46.00846" lon="6.78371">
        <ele>1741.8000488281</ele>
        <time>2023-09-30T09:55:57.000Z</time>
      </trkpt>
      <trkpt lat="46.00847" lon="6.78371">
        <ele>1741.5999755859</ele>
        <time>2023-09-30T09:55:58.000Z</time>
      </trkpt>
      <trkpt lat="46.00848" lon="6.78371">
        <ele>1741.5999755859</ele>
        <time>2023-09-30T09:55:59.000Z</time>
      </trkpt>
      <trkpt lat="46.00848" lon="6.78371">
        <ele>1741.5999755859</ele>
        <time>2023-09-30T09:56:00.000Z</time>
      </trkpt>
      <trkpt lat="46.00849" lon="6.78371">
        <ele>1741.8000488281</ele>
        <time>2023-09-30T09:56:01.000Z</time>
      </trkpt>
      <trkpt lat="46.0085" lon="6.7837">
        <ele>1741.5999755859</ele>
        <time>2023-09-30T09:56:02.000Z</time>
      </trkpt>
      <trkpt lat="46.00851" lon="6.7837">
        <ele>1741.5999755859</ele>
        <time>2023-09-30T09:56:03.000Z</time>
      </trkpt>
      <trkpt lat="46.00852" lon="6.7837">
        <ele>1741.8000488281</ele>
        <time>2023-09-30T09:56:04.000Z</time>
      </trkpt>
      <trkpt lat="46.00853" lon="6.78369">
        <ele>1741.8000488281</ele>
        <time>2023-09-30T09:56:05.000Z</time>
      </trkpt>
      <trkpt lat="46.00853" lon="6.78368">
        <ele>1741.5999755859</ele>
        <time>2023-09-30T09:56:06.000Z</time>
      </trkpt>
      <trkpt lat="46.00853" lon="6.78368">
        <ele>1741.5999755859</ele>
        <time>2023-09-30T09:56:08.000Z</time>
      </trkpt>
      <trkpt lat="46.00853" lon="6.78368">
        <ele>1741.4000244141</ele>
        <time>2023-09-30T09:56:17.000Z</time>
      </trkpt>
      <trkpt lat="46.00854" lon="6.78368">
        <ele>1741.1999511719</ele>
        <time>2023-09-30T09:56:30.000Z</time>
      </trkpt>
      <trkpt lat="46.00858" lon="6.78366">
        <ele>1741.1999511719</ele>
        <time>2023-09-30T09:56:33.000Z</time>
      </trkpt>
      <trkpt lat="46.0086" lon="6.78365">
        <ele>1741.1999511719</ele>
        <time>2023-09-30T09:56:34.000Z</time>
      </trkpt>
      <trkpt lat="46.00869" lon="6.78361">
        <ele>1741.1999511719</ele>
        <time>2023-09-30T09:56:38.000Z</time>
      </trkpt>
      <trkpt lat="46.00877" lon="6.78358">
        <ele>1741.1999511719</ele>
        <time>2023-09-30T09:56:41.000Z</time>
      </trkpt>
      <trkpt lat="46.00888" lon="6.78358">
        <ele>1741.1999511719</ele>
        <time>2023-09-30T09:56:45.000Z</time>
      </trkpt>
      <trkpt lat="46.0089" lon="6.78359">
        <ele>1741</ele>
        <time>2023-09-30T09:56:46.000Z</time>
      </trkpt>
      <trkpt lat="46.00893" lon="6.7836">
        <ele>1741</ele>
        <time>2023-09-30T09:56:47.000Z</time>
      </trkpt>
      <trkpt lat="46.00901" lon="6.78362">
        <ele>1741</ele>
        <time>2023-09-30T09:56:49.000Z</time>
      </trkpt>
      <trkpt lat="46.00913" lon="6.78364">
        <ele>1740.8000488281</ele>
        <time>2023-09-30T09:56:51.000Z</time>
      </trkpt>
      <trkpt lat="46.0092" lon="6.78363">
        <ele>1740.4000244141</ele>
        <time>2023-09-30T09:56:52.000Z</time>
      </trkpt>
      <trkpt lat="46.00933" lon="6.78362">
        <ele>1739.5999755859</ele>
        <time>2023-09-30T09:56:54.000Z</time>
      </trkpt>
      <trkpt lat="46.00939" lon="6.78361">
        <ele>1739.4000244141</ele>
        <time>2023-09-30T09:56:55.000Z</time>
      </trkpt>
      <trkpt lat="46.00944" lon="6.78362">
        <ele>1738.8000488281</ele>
        <time>2023-09-30T09:56:56.000Z</time>
      </trkpt>
      <trkpt lat="46.0095" lon="6.78363">
        <ele>1737.8000488281</ele>
        <time>2023-09-30T09:56:57.000Z</time>
      </trkpt>
      <trkpt lat="46.00955" lon="6.78363">
        <ele>1737.5999755859</ele>
        <time>2023-09-30T09:56:58.000Z</time>
      </trkpt>
      <trkpt lat="46.00959" lon="6.78364">
        <ele>1736.8000488281</ele>
        <time>2023-09-30T09:56:59.000Z</time>
      </trkpt>
      <trkpt lat="46.00964" lon="6.78365">
        <ele>1736.5999755859</ele>
        <time>2023-09-30T09:57:00.000Z</time>
      </trkpt>
      <trkpt lat="46.00969" lon="6.78366">
        <ele>1736</ele>
        <time>2023-09-30T09:57:01.000Z</time>
      </trkpt>
      <trkpt lat="46.00973" lon="6.78365">
        <ele>1735.8000488281</ele>
        <time>2023-09-30T09:57:02.000Z</time>
      </trkpt>
      <trkpt lat="46.00976" lon="6.78365">
        <ele>1735.4000244141</ele>
        <time>2023-09-30T09:57:03.000Z</time>
      </trkpt>
      <trkpt lat="46.00977" lon="6.78364">
        <ele>1735.4000244141</ele>
        <time>2023-09-30T09:57:04.000Z</time>
      </trkpt>
      <trkpt lat="46.00978" lon="6.78363">
        <ele>1735.1999511719</ele>
        <time>2023-09-30T09:57:05.000Z</time>
      </trkpt>
      <trkpt lat="46.00978" lon="6.78363">
        <ele>1735.1999511719</ele>
        <time>2023-09-30T09:57:06.000Z</time>
      </trkpt>
      <trkpt lat="46.00979" lon="6.78363">
        <ele>1735</ele>
        <time>2023-09-30T09:57:08.000Z</time>
      </trkpt>
      <trkpt lat="46.00979" lon="6.78362">
        <ele>1735</ele>
        <time>2023-09-30T09:57:10.000Z</time>
      </trkpt>
      <trkpt lat="46.0098" lon="6.78362">
        <ele>1734.8000488281</ele>
        <time>2023-09-30T09:57:13.000Z</time>
      </trkpt>
      <trkpt lat="46.0098" lon="6.78363">
        <ele>1734.8000488281</ele>
        <time>2023-09-30T09:57:14.000Z</time>
      </trkpt>
      <trkpt lat="46.00981" lon="6.78363">
        <ele>1734.8000488281</ele>
        <time>2023-09-30T09:57:15.000Z</time>
      </trkpt>
      <trkpt lat="46.00982" lon="6.78362">
        <ele>1734.8000488281</ele>
        <time>2023-09-30T09:57:16.000Z</time>
      </trkpt>
      <trkpt lat="46.00983" lon="6.78362">
        <ele>1734.5999755859</ele>
        <time>2023-09-30T09:57:17.000Z</time>
      </trkpt>
      <trkpt lat="46.00984" lon="6.78361">
        <ele>1734.5999755859</ele>
        <time>2023-09-30T09:57:18.000Z</time>
      </trkpt>
      <trkpt lat="46.00985" lon="6.78361">
        <ele>1734.5999755859</ele>
        <time>2023-09-30T09:57:19.000Z</time>
      </trkpt>
      <trkpt lat="46.00987" lon="6.7836">
        <ele>1735</ele>
        <time>2023-09-30T09:57:21.000Z</time>
      </trkpt>
      <trkpt lat="46.0099" lon="6.78359">
        <ele>1734.5999755859</ele>
        <time>2023-09-30T09:57:23.000Z</time>
      </trkpt>
      <trkpt lat="46.00995" lon="6.78358">
        <ele>1734.5999755859</ele>
        <time>2023-09-30T09:57:26.000Z</time>
      </trkpt>
      <trkpt lat="46.01002" lon="6.78357">
        <ele>1734.5999755859</ele>
        <time>2023-09-30T09:57:32.000Z</time>
      </trkpt>
      <trkpt lat="46.01003" lon="6.78356">
        <ele>1734.5999755859</ele>
        <time>2023-09-30T09:57:33.000Z</time>
      </trkpt>
      <trkpt lat="46.01003" lon="6.78355">
        <ele>1734.5999755859</ele>
        <time>2023-09-30T09:57:34.000Z</time>
      </trkpt>
      <trkpt lat="46.01003" lon="6.78353">
        <ele>1734.5999755859</ele>
        <time>2023-09-30T09:57:35.000Z</time>
      </trkpt>
      <trkpt lat="46.01003" lon="6.78351">
        <ele>1734.5999755859</ele>
        <time>2023-09-30T09:57:36.000Z</time>
      </trkpt>
      <trkpt lat="46.01003" lon="6.78349">
        <ele>1734.5999755859</ele>
        <time>2023-09-30T09:57:37.000Z</time>
      </trkpt>
      <trkpt lat="46.01003" lon="6.78344">
        <ele>1734.4000244141</ele>
        <time>2023-09-30T09:57:39.000Z</time>
      </trkpt>
      <trkpt lat="46.01003" lon="6.78343">
        <ele>1734.5999755859</ele>
        <time>2023-09-30T09:57:40.000Z</time>
      </trkpt>
      <trkpt lat="46.01003" lon="6.78343">
        <ele>1734.5999755859</ele>
        <time>2023-09-30T09:57:41.000Z</time>
      </trkpt>
      <trkpt lat="46.01004" lon="6.78342">
        <ele>1734.5999755859</ele>
        <time>2023-09-30T09:57:42.000Z</time>
      </trkpt>
      <trkpt lat="46.01005" lon="6.78341">
        <ele>1734.5999755859</ele>
        <time>2023-09-30T09:57:43.000Z</time>
      </trkpt>
      <trkpt lat="46.01006" lon="6.7834">
        <ele>1734.5999755859</ele>
        <time>2023-09-30T09:57:44.000Z</time>
      </trkpt>
      <trkpt lat="46.01008" lon="6.78338">
        <ele>1734.5999755859</ele>
        <time>2023-09-30T09:57:45.000Z</time>
      </trkpt>
      <trkpt lat="46.01011" lon="6.78333">
        <ele>1734.5999755859</ele>
        <time>2023-09-30T09:57:47.000Z</time>
      </trkpt>
      <trkpt lat="46.01017" lon="6.78324">
        <ele>1734.5999755859</ele>
        <time>2023-09-30T09:57:50.000Z</time>
      </trkpt>
      <trkpt lat="46.01018" lon="6.78321">
        <ele>1734.8000488281</ele>
        <time>2023-09-30T09:57:51.000Z</time>
      </trkpt>
      <trkpt lat="46.0102" lon="6.78316">
        <ele>1734.8000488281</ele>
        <time>2023-09-30T09:57:53.000Z</time>
      </trkpt>
      <trkpt lat="46.01024" lon="6.78306">
        <ele>1734.8000488281</ele>
        <time>2023-09-30T09:57:57.000Z</time>
      </trkpt>
      <trkpt lat="46.01025" lon="6.78303">
        <ele>1734.8000488281</ele>
        <time>2023-09-30T09:57:58.000Z</time>
      </trkpt>
      <trkpt lat="46.01025" lon="6.78301">
        <ele>1734.8000488281</ele>
        <time>2023-09-30T09:57:59.000Z</time>
      </trkpt>
      <trkpt lat="46.01026" lon="6.78299">
        <ele>1734.8000488281</ele>
        <time>2023-09-30T09:58:00.000Z</time>
      </trkpt>
      <trkpt lat="46.01028" lon="6.78297">
        <ele>1734.8000488281</ele>
        <time>2023-09-30T09:58:01.000Z</time>
      </trkpt>
      <trkpt lat="46.01029" lon="6.78294">
        <ele>1734.8000488281</ele>
        <time>2023-09-30T09:58:02.000Z</time>
      </trkpt>
      <trkpt lat="46.01035" lon="6.78286">
        <ele>1734.5999755859</ele>
        <time>2023-09-30T09:58:06.000Z</time>
      </trkpt>
      <trkpt lat="46.01035" lon="6.78284">
        <ele>1734.5999755859</ele>
        <time>2023-09-30T09:58:07.000Z</time>
      </trkpt>
      <trkpt lat="46.01035" lon="6.78281">
        <ele>1734.5999755859</ele>
        <time>2023-09-30T09:58:08.000Z</time>
      </trkpt>
      <trkpt lat="46.01035" lon="6.7828">
        <ele>1734.5999755859</ele>
        <time>2023-09-30T09:58:09.000Z</time>
      </trkpt>
      <trkpt lat="46.01036" lon="6.78279">
        <ele>1735</ele>
        <time>2023-09-30T09:58:12.000Z</time>
      </trkpt>
      <trkpt lat="46.01037" lon="6.78272">
        <ele>1735.4000244141</ele>
        <time>2023-09-30T09:58:16.000Z</time>
      </trkpt>
      <trkpt lat="46.01038" lon="6.78271">
        <ele>1735.5999755859</ele>
        <time>2023-09-30T09:58:17.000Z</time>
      </trkpt>
      <trkpt lat="46.01041" lon="6.7827">
        <ele>1736</ele>
        <time>2023-09-30T09:58:19.000Z</time>
      </trkpt>
      <trkpt lat="46.01042" lon="6.78269">
        <ele>1736</ele>
        <time>2023-09-30T09:58:20.000Z</time>
      </trkpt>
      <trkpt lat="46.01044" lon="6.78266">
        <ele>1736.8000488281</ele>
        <time>2023-09-30T09:58:22.000Z</time>
      </trkpt>
      <trkpt lat="46.01044" lon="6.78264">
        <ele>1737</ele>
        <time>2023-09-30T09:58:23.000Z</time>
      </trkpt>
      <trkpt lat="46.01044" lon="6.78263">
        <ele>1737.1999511719</ele>
        <time>2023-09-30T09:58:24.000Z</time>
      </trkpt>
      <trkpt lat="46.01045" lon="6.78263">
        <ele>1737.1999511719</ele>
        <time>2023-09-30T09:58:25.000Z</time>
      </trkpt>
      <trkpt lat="46.01046" lon="6.78262">
        <ele>1737.5999755859</ele>
        <time>2023-09-30T09:58:26.000Z</time>
      </trkpt>
      <trkpt lat="46.01047" lon="6.7826">
        <ele>1737.8000488281</ele>
        <time>2023-09-30T09:58:27.000Z</time>
      </trkpt>
      <trkpt lat="46.01048" lon="6.78259">
        <ele>1738</ele>
        <time>2023-09-30T09:58:28.000Z</time>
      </trkpt>
      <trkpt lat="46.01049" lon="6.78258">
        <ele>1738</ele>
        <time>2023-09-30T09:58:29.000Z</time>
      </trkpt>
      <trkpt lat="46.0105" lon="6.78257">
        <ele>1738.1999511719</ele>
        <time>2023-09-30T09:58:30.000Z</time>
      </trkpt>
      <trkpt lat="46.0105" lon="6.78256">
        <ele>1738.1999511719</ele>
        <time>2023-09-30T09:58:31.000Z</time>
      </trkpt>
      <trkpt lat="46.01051" lon="6.78256">
        <ele>1738.4000244141</ele>
        <time>2023-09-30T09:58:32.000Z</time>
      </trkpt>
      <trkpt lat="46.01052" lon="6.78255">
        <ele>1738.4000244141</ele>
        <time>2023-09-30T09:58:33.000Z</time>
      </trkpt>
      <trkpt lat="46.01053" lon="6.78255">
        <ele>1738.4000244141</ele>
        <time>2023-09-30T09:58:34.000Z</time>
      </trkpt>
      <trkpt lat="46.01053" lon="6.78254">
        <ele>1738.5999755859</ele>
        <time>2023-09-30T09:58:35.000Z</time>
      </trkpt>
      <trkpt lat="46.01054" lon="6.78253">
        <ele>1738.5999755859</ele>
        <time>2023-09-30T09:58:36.000Z</time>
      </trkpt>
      <trkpt lat="46.01055" lon="6.78253">
        <ele>1738.8000488281</ele>
        <time>2023-09-30T09:58:37.000Z</time>
      </trkpt>
      <trkpt lat="46.01055" lon="6.78253">
        <ele>1738.8000488281</ele>
        <time>2023-09-30T09:58:38.000Z</time>
      </trkpt>
      <trkpt lat="46.01056" lon="6.78252">
        <ele>1738.8000488281</ele>
        <time>2023-09-30T09:58:39.000Z</time>
      </trkpt>
      <trkpt lat="46.01056" lon="6.78252">
        <ele>1738.8000488281</ele>
        <time>2023-09-30T09:58:40.000Z</time>
      </trkpt>
      <trkpt lat="46.01056" lon="6.78252">
        <ele>1738.8000488281</ele>
        <time>2023-09-30T09:58:43.000Z</time>
      </trkpt>
      <trkpt lat="46.01056" lon="6.78252">
        <ele>1738.5999755859</ele>
        <time>2023-09-30T09:58:44.000Z</time>
      </trkpt>
      <trkpt lat="46.01057" lon="6.78252">
        <ele>1738.5999755859</ele>
        <time>2023-09-30T09:58:45.000Z</time>
      </trkpt>
      <trkpt lat="46.01059" lon="6.78249">
        <ele>1738.5999755859</ele>
        <time>2023-09-30T09:58:47.000Z</time>
      </trkpt>
      <trkpt lat="46.0106" lon="6.78247">
        <ele>1738.5999755859</ele>
        <time>2023-09-30T09:58:48.000Z</time>
      </trkpt>
      <trkpt lat="46.01061" lon="6.78246">
        <ele>1738.5999755859</ele>
        <time>2023-09-30T09:58:49.000Z</time>
      </trkpt>
      <trkpt lat="46.01063" lon="6.78244">
        <ele>1738.5999755859</ele>
        <time>2023-09-30T09:58:51.000Z</time>
      </trkpt>
      <trkpt lat="46.01063" lon="6.78244">
        <ele>1738.5999755859</ele>
        <time>2023-09-30T09:58:52.000Z</time>
      </trkpt>
      <trkpt lat="46.01064" lon="6.78243">
        <ele>1738.5999755859</ele>
        <time>2023-09-30T09:58:53.000Z</time>
      </trkpt>
      <trkpt lat="46.01064" lon="6.78242">
        <ele>1738.5999755859</ele>
        <time>2023-09-30T09:58:54.000Z</time>
      </trkpt>
      <trkpt lat="46.01065" lon="6.78241">
        <ele>1738.8000488281</ele>
        <time>2023-09-30T09:58:55.000Z</time>
      </trkpt>
      <trkpt lat="46.01066" lon="6.78241">
        <ele>1738.8000488281</ele>
        <time>2023-09-30T09:58:56.000Z</time>
      </trkpt>
      <trkpt lat="46.01066" lon="6.7824">
        <ele>1738.8000488281</ele>
        <time>2023-09-30T09:58:57.000Z</time>
      </trkpt>
      <trkpt lat="46.01067" lon="6.78239">
        <ele>1738.8000488281</ele>
        <time>2023-09-30T09:58:58.000Z</time>
      </trkpt>
      <trkpt lat="46.01068" lon="6.78239">
        <ele>1739</ele>
        <time>2023-09-30T09:58:59.000Z</time>
      </trkpt>
      <trkpt lat="46.01071" lon="6.78235">
        <ele>1739.4000244141</ele>
        <time>2023-09-30T09:59:02.000Z</time>
      </trkpt>
      <trkpt lat="46.01072" lon="6.78234">
        <ele>1739.4000244141</ele>
        <time>2023-09-30T09:59:03.000Z</time>
      </trkpt>
      <trkpt lat="46.01072" lon="6.78233">
        <ele>1739.4000244141</ele>
        <time>2023-09-30T09:59:04.000Z</time>
      </trkpt>
      <trkpt lat="46.01073" lon="6.78231">
        <ele>1739.8000488281</ele>
        <time>2023-09-30T09:59:09.000Z</time>
      </trkpt>
      <trkpt lat="46.01075" lon="6.7823">
        <ele>1739.5999755859</ele>
        <time>2023-09-30T09:59:12.000Z</time>
      </trkpt>
      <trkpt lat="46.01078" lon="6.78227">
        <ele>1739.5999755859</ele>
        <time>2023-09-30T09:59:15.000Z</time>
      </trkpt>
      <trkpt lat="46.01081" lon="6.78226">
        <ele>1739.5999755859</ele>
        <time>2023-09-30T09:59:17.000Z</time>
      </trkpt>
      <trkpt lat="46.01083" lon="6.78226">
        <ele>1739.5999755859</ele>
        <time>2023-09-30T09:59:18.000Z</time>
      </trkpt>
      <trkpt lat="46.01084" lon="6.78225">
        <ele>1739.5999755859</ele>
        <time>2023-09-30T09:59:19.000Z</time>
      </trkpt>
      <trkpt lat="46.01085" lon="6.78223">
        <ele>1739.5999755859</ele>
        <time>2023-09-30T09:59:20.000Z</time>
      </trkpt>
      <trkpt lat="46.01087" lon="6.78221">
        <ele>1739.5999755859</ele>
        <time>2023-09-30T09:59:21.000Z</time>
      </trkpt>
      <trkpt lat="46.01087" lon="6.7822">
        <ele>1739.5999755859</ele>
        <time>2023-09-30T09:59:22.000Z</time>
      </trkpt>
      <trkpt lat="46.01088" lon="6.78218">
        <ele>1739.5999755859</ele>
        <time>2023-09-30T09:59:23.000Z</time>
      </trkpt>
      <trkpt lat="46.01089" lon="6.78217">
        <ele>1739.5999755859</ele>
        <time>2023-09-30T09:59:24.000Z</time>
      </trkpt>
      <trkpt lat="46.0109" lon="6.78215">
        <ele>1739.5999755859</ele>
        <time>2023-09-30T09:59:25.000Z</time>
      </trkpt>
      <trkpt lat="46.01092" lon="6.78214">
        <ele>1739.5999755859</ele>
        <time>2023-09-30T09:59:26.000Z</time>
      </trkpt>
      <trkpt lat="46.01092" lon="6.78213">
        <ele>1740</ele>
        <time>2023-09-30T09:59:27.000Z</time>
      </trkpt>
      <trkpt lat="46.01093" lon="6.78212">
        <ele>1740</ele>
        <time>2023-09-30T09:59:28.000Z</time>
      </trkpt>
      <trkpt lat="46.01093" lon="6.78211">
        <ele>1740</ele>
        <time>2023-09-30T09:59:29.000Z</time>
      </trkpt>
      <trkpt lat="46.01094" lon="6.7821">
        <ele>1740</ele>
        <time>2023-09-30T09:59:30.000Z</time>
      </trkpt>
      <trkpt lat="46.01094" lon="6.7821">
        <ele>1740</ele>
        <time>2023-09-30T09:59:31.000Z</time>
      </trkpt>
      <trkpt lat="46.01095" lon="6.7821">
        <ele>1739.5999755859</ele>
        <time>2023-09-30T09:59:32.000Z</time>
      </trkpt>
      <trkpt lat="46.01096" lon="6.7821">
        <ele>1739.5999755859</ele>
        <time>2023-09-30T09:59:33.000Z</time>
      </trkpt>
      <trkpt lat="46.01096" lon="6.78209">
        <ele>1739.5999755859</ele>
        <time>2023-09-30T09:59:34.000Z</time>
      </trkpt>
      <trkpt lat="46.01097" lon="6.78207">
        <ele>1739.5999755859</ele>
        <time>2023-09-30T09:59:35.000Z</time>
      </trkpt>
      <trkpt lat="46.01098" lon="6.78206">
        <ele>1739.4000244141</ele>
        <time>2023-09-30T09:59:36.000Z</time>
      </trkpt>
      <trkpt lat="46.01098" lon="6.78205">
        <ele>1739.5999755859</ele>
        <time>2023-09-30T09:59:37.000Z</time>
      </trkpt>
      <trkpt lat="46.01099" lon="6.78202">
        <ele>1739.5999755859</ele>
        <time>2023-09-30T09:59:39.000Z</time>
      </trkpt>
      <trkpt lat="46.011" lon="6.78201">
        <ele>1739.5999755859</ele>
        <time>2023-09-30T09:59:40.000Z</time>
      </trkpt>
      <trkpt lat="46.01101" lon="6.782">
        <ele>1739.5999755859</ele>
        <time>2023-09-30T09:59:41.000Z</time>
      </trkpt>
      <trkpt lat="46.01102" lon="6.782">
        <ele>1739.4000244141</ele>
        <time>2023-09-30T09:59:42.000Z</time>
      </trkpt>
      <trkpt lat="46.01102" lon="6.78199">
        <ele>1739.4000244141</ele>
        <time>2023-09-30T09:59:43.000Z</time>
      </trkpt>
      <trkpt lat="46.01102" lon="6.78199">
        <ele>1739.1999511719</ele>
        <time>2023-09-30T09:59:49.000Z</time>
      </trkpt>
      <trkpt lat="46.01102" lon="6.782">
        <ele>1738.8000488281</ele>
        <time>2023-09-30T10:00:01.000Z</time>
      </trkpt>
      <trkpt lat="46.01104" lon="6.782">
        <ele>1738.8000488281</ele>
        <time>2023-09-30T10:00:02.000Z</time>
      </trkpt>
      <trkpt lat="46.01106" lon="6.782">
        <ele>1738.8000488281</ele>
        <time>2023-09-30T10:00:03.000Z</time>
      </trkpt>
      <trkpt lat="46.01108" lon="6.78199">
        <ele>1738.8000488281</ele>
        <time>2023-09-30T10:00:04.000Z</time>
      </trkpt>
      <trkpt lat="46.01109" lon="6.78199">
        <ele>1738.8000488281</ele>
        <time>2023-09-30T10:00:05.000Z</time>
      </trkpt>
      <trkpt lat="46.01111" lon="6.78198">
        <ele>1738.8000488281</ele>
        <time>2023-09-30T10:00:06.000Z</time>
      </trkpt>
      <trkpt lat="46.01112" lon="6.78197">
        <ele>1738.5999755859</ele>
        <time>2023-09-30T10:00:07.000Z</time>
      </trkpt>
      <trkpt lat="46.01113" lon="6.78196">
        <ele>1738.5999755859</ele>
        <time>2023-09-30T10:00:08.000Z</time>
      </trkpt>
      <trkpt lat="46.01114" lon="6.78194">
        <ele>1738.5999755859</ele>
        <time>2023-09-30T10:00:09.000Z</time>
      </trkpt>
      <trkpt lat="46.01114" lon="6.78192">
        <ele>1738.5999755859</ele>
        <time>2023-09-30T10:00:10.000Z</time>
      </trkpt>
      <trkpt lat="46.01114" lon="6.7819">
        <ele>1738.5999755859</ele>
        <time>2023-09-30T10:00:11.000Z</time>
      </trkpt>
      <trkpt lat="46.01115" lon="6.78188">
        <ele>1738.4000244141</ele>
        <time>2023-09-30T10:00:12.000Z</time>
      </trkpt>
      <trkpt lat="46.01117" lon="6.78186">
        <ele>1738.4000244141</ele>
        <time>2023-09-30T10:00:14.000Z</time>
      </trkpt>
      <trkpt lat="46.01119" lon="6.78184">
        <ele>1738.4000244141</ele>
        <time>2023-09-30T10:00:15.000Z</time>
      </trkpt>
      <trkpt lat="46.0112" lon="6.78183">
        <ele>1738.4000244141</ele>
        <time>2023-09-30T10:00:16.000Z</time>
      </trkpt>
      <trkpt lat="46.01121" lon="6.78182">
        <ele>1738.5999755859</ele>
        <time>2023-09-30T10:00:20.000Z</time>
      </trkpt>
      <trkpt lat="46.01121" lon="6.7818">
        <ele>1738.4000244141</ele>
        <time>2023-09-30T10:00:23.000Z</time>
      </trkpt>
      <trkpt lat="46.01122" lon="6.78179">
        <ele>1738.4000244141</ele>
        <time>2023-09-30T10:00:24.000Z</time>
      </trkpt>
      <trkpt lat="46.01122" lon="6.78178">
        <ele>1738.4000244141</ele>
        <time>2023-09-30T10:00:25.000Z</time>
      </trkpt>
      <trkpt lat="46.01123" lon="6.78176">
        <ele>1738.5999755859</ele>
        <time>2023-09-30T10:00:26.000Z</time>
      </trkpt>
      <trkpt lat="46.01123" lon="6.78175">
        <ele>1738.5999755859</ele>
        <time>2023-09-30T10:00:27.000Z</time>
      </trkpt>
      <trkpt lat="46.01123" lon="6.78174">
        <ele>1738.5999755859</ele>
        <time>2023-09-30T10:00:28.000Z</time>
      </trkpt>
      <trkpt lat="46.01123" lon="6.78172">
        <ele>1738.4000244141</ele>
        <time>2023-09-30T10:00:29.000Z</time>
      </trkpt>
      <trkpt lat="46.01123" lon="6.7817">
        <ele>1738.5999755859</ele>
        <time>2023-09-30T10:00:33.000Z</time>
      </trkpt>
      <trkpt lat="46.01124" lon="6.78168">
        <ele>1738.8000488281</ele>
        <time>2023-09-30T10:00:38.000Z</time>
      </trkpt>
      <trkpt lat="46.01124" lon="6.78166">
        <ele>1738.8000488281</ele>
        <time>2023-09-30T10:00:39.000Z</time>
      </trkpt>
      <trkpt lat="46.01125" lon="6.7816">
        <ele>1738.8000488281</ele>
        <time>2023-09-30T10:00:42.000Z</time>
      </trkpt>
      <trkpt lat="46.01127" lon="6.78159">
        <ele>1738.8000488281</ele>
        <time>2023-09-30T10:00:43.000Z</time>
      </trkpt>
      <trkpt lat="46.01128" lon="6.78157">
        <ele>1738.5999755859</ele>
        <time>2023-09-30T10:00:44.000Z</time>
      </trkpt>
      <trkpt lat="46.01129" lon="6.78156">
        <ele>1738.5999755859</ele>
        <time>2023-09-30T10:00:45.000Z</time>
      </trkpt>
      <trkpt lat="46.0113" lon="6.78155">
        <ele>1738.4000244141</ele>
        <time>2023-09-30T10:00:46.000Z</time>
      </trkpt>
      <trkpt lat="46.01139" lon="6.78148">
        <ele>1737.8000488281</ele>
        <time>2023-09-30T10:00:52.000Z</time>
      </trkpt>
      <trkpt lat="46.01141" lon="6.78147">
        <ele>1737.5999755859</ele>
        <time>2023-09-30T10:00:53.000Z</time>
      </trkpt>
      <trkpt lat="46.01142" lon="6.78147">
        <ele>1737.5999755859</ele>
        <time>2023-09-30T10:00:54.000Z</time>
      </trkpt>
      <trkpt lat="46.01142" lon="6.78147">
        <ele>1737.4000244141</ele>
        <time>2023-09-30T10:00:55.000Z</time>
      </trkpt>
      <trkpt lat="46.01143" lon="6.78145">
        <ele>1737</ele>
        <time>2023-09-30T10:00:56.000Z</time>
      </trkpt>
      <trkpt lat="46.01143" lon="6.78144">
        <ele>1737</ele>
        <time>2023-09-30T10:00:57.000Z</time>
      </trkpt>
      <trkpt lat="46.01143" lon="6.78144">
        <ele>1736.8000488281</ele>
        <time>2023-09-30T10:00:58.000Z</time>
      </trkpt>
      <trkpt lat="46.01143" lon="6.78144">
        <ele>1736.8000488281</ele>
        <time>2023-09-30T10:00:59.000Z</time>
      </trkpt>
      <trkpt lat="46.01143" lon="6.78143">
        <ele>1736.5999755859</ele>
        <time>2023-09-30T10:01:00.000Z</time>
      </trkpt>
      <trkpt lat="46.01149" lon="6.78136">
        <ele>1735.8000488281</ele>
        <time>2023-09-30T10:01:04.000Z</time>
      </trkpt>
      <trkpt lat="46.01152" lon="6.78135">
        <ele>1735.5999755859</ele>
        <time>2023-09-30T10:01:05.000Z</time>
      </trkpt>
      <trkpt lat="46.01154" lon="6.78135">
        <ele>1735.1999511719</ele>
        <time>2023-09-30T10:01:06.000Z</time>
      </trkpt>
      <trkpt lat="46.01157" lon="6.78134">
        <ele>1735</ele>
        <time>2023-09-30T10:01:07.000Z</time>
      </trkpt>
      <trkpt lat="46.0116" lon="6.78133">
        <ele>1734.5999755859</ele>
        <time>2023-09-30T10:01:08.000Z</time>
      </trkpt>
      <trkpt lat="46.01165" lon="6.7813">
        <ele>1734.1999511719</ele>
        <time>2023-09-30T10:01:10.000Z</time>
      </trkpt>
      <trkpt lat="46.0117" lon="6.78127">
        <ele>1733.8000488281</ele>
        <time>2023-09-30T10:01:12.000Z</time>
      </trkpt>
      <trkpt lat="46.01172" lon="6.78127">
        <ele>1733.5999755859</ele>
        <time>2023-09-30T10:01:13.000Z</time>
      </trkpt>
      <trkpt lat="46.01173" lon="6.78126">
        <ele>1733.1999511719</ele>
        <time>2023-09-30T10:01:14.000Z</time>
      </trkpt>
      <trkpt lat="46.01175" lon="6.78125">
        <ele>1733</ele>
        <time>2023-09-30T10:01:15.000Z</time>
      </trkpt>
      <trkpt lat="46.01178" lon="6.78123">
        <ele>1732.4000244141</ele>
        <time>2023-09-30T10:01:17.000Z</time>
      </trkpt>
      <trkpt lat="46.01181" lon="6.78121">
        <ele>1732.1999511719</ele>
        <time>2023-09-30T10:01:18.000Z</time>
      </trkpt>
      <trkpt lat="46.01184" lon="6.78118">
        <ele>1731.4000244141</ele>
        <time>2023-09-30T10:01:21.000Z</time>
      </trkpt>
      <trkpt lat="46.01184" lon="6.78117">
        <ele>1731</ele>
        <time>2023-09-30T10:01:23.000Z</time>
      </trkpt>
      <trkpt lat="46.01184" lon="6.78116">
        <ele>1730</ele>
        <time>2023-09-30T10:01:27.000Z</time>
      </trkpt>
      <trkpt lat="46.01184" lon="6.78116">
        <ele>1729.4000244141</ele>
        <time>2023-09-30T10:01:30.000Z</time>
      </trkpt>
      <trkpt lat="46.01187" lon="6.78111">
        <ele>1729</ele>
        <time>2023-09-30T10:01:37.000Z</time>
      </trkpt>
      <trkpt lat="46.01188" lon="6.78108">
        <ele>1729</ele>
        <time>2023-09-30T10:01:38.000Z</time>
      </trkpt>
      <trkpt lat="46.01191" lon="6.78104">
        <ele>1728.8000488281</ele>
        <time>2023-09-30T10:01:40.000Z</time>
      </trkpt>
      <trkpt lat="46.01194" lon="6.781">
        <ele>1728.5999755859</ele>
        <time>2023-09-30T10:01:42.000Z</time>
      </trkpt>
      <trkpt lat="46.01206" lon="6.78093">
        <ele>1728.4000244141</ele>
        <time>2023-09-30T10:01:49.000Z</time>
      </trkpt>
      <trkpt lat="46.01207" lon="6.78091">
        <ele>1728.4000244141</ele>
        <time>2023-09-30T10:01:50.000Z</time>
      </trkpt>
      <trkpt lat="46.01208" lon="6.78088">
        <ele>1728.4000244141</ele>
        <time>2023-09-30T10:01:51.000Z</time>
      </trkpt>
      <trkpt lat="46.01209" lon="6.78087">
        <ele>1728.4000244141</ele>
        <time>2023-09-30T10:01:52.000Z</time>
      </trkpt>
      <trkpt lat="46.01212" lon="6.78084">
        <ele>1728.5999755859</ele>
        <time>2023-09-30T10:01:54.000Z</time>
      </trkpt>
      <trkpt lat="46.01213" lon="6.78082">
        <ele>1728.5999755859</ele>
        <time>2023-09-30T10:01:55.000Z</time>
      </trkpt>
      <trkpt lat="46.01214" lon="6.78081">
        <ele>1728.5999755859</ele>
        <time>2023-09-30T10:01:56.000Z</time>
      </trkpt>
      <trkpt lat="46.01216" lon="6.78079">
        <ele>1728.8000488281</ele>
        <time>2023-09-30T10:01:57.000Z</time>
      </trkpt>
      <trkpt lat="46.01217" lon="6.78078">
        <ele>1729</ele>
        <time>2023-09-30T10:01:58.000Z</time>
      </trkpt>
      <trkpt lat="46.0122" lon="6.78076">
        <ele>1729.4000244141</ele>
        <time>2023-09-30T10:02:00.000Z</time>
      </trkpt>
      <trkpt lat="46.01221" lon="6.78075">
        <ele>1729.4000244141</ele>
        <time>2023-09-30T10:02:01.000Z</time>
      </trkpt>
      <trkpt lat="46.01223" lon="6.78074">
        <ele>1729.5999755859</ele>
        <time>2023-09-30T10:02:02.000Z</time>
      </trkpt>
      <trkpt lat="46.01224" lon="6.78072">
        <ele>1729.5999755859</ele>
        <time>2023-09-30T10:02:03.000Z</time>
      </trkpt>
      <trkpt lat="46.01226" lon="6.7807">
        <ele>1729.8000488281</ele>
        <time>2023-09-30T10:02:05.000Z</time>
      </trkpt>
      <trkpt lat="46.01227" lon="6.78068">
        <ele>1730</ele>
        <time>2023-09-30T10:02:06.000Z</time>
      </trkpt>
      <trkpt lat="46.01229" lon="6.78065">
        <ele>1730.1999511719</ele>
        <time>2023-09-30T10:02:08.000Z</time>
      </trkpt>
      <trkpt lat="46.0123" lon="6.78064">
        <ele>1730.4000244141</ele>
        <time>2023-09-30T10:02:09.000Z</time>
      </trkpt>
      <trkpt lat="46.01231" lon="6.78063">
        <ele>1730.5999755859</ele>
        <time>2023-09-30T10:02:10.000Z</time>
      </trkpt>
      <trkpt lat="46.01238" lon="6.78056">
        <ele>1731</ele>
        <time>2023-09-30T10:02:15.000Z</time>
      </trkpt>
      <trkpt lat="46.01241" lon="6.78054">
        <ele>1731.1999511719</ele>
        <time>2023-09-30T10:02:17.000Z</time>
      </trkpt>
      <trkpt lat="46.01253" lon="6.78043">
        <ele>1731.8000488281</ele>
        <time>2023-09-30T10:02:26.000Z</time>
      </trkpt>
      <trkpt lat="46.01257" lon="6.7804">
        <ele>1732</ele>
        <time>2023-09-30T10:02:29.000Z</time>
      </trkpt>
      <trkpt lat="46.01258" lon="6.78039">
        <ele>1732</ele>
        <time>2023-09-30T10:02:30.000Z</time>
      </trkpt>
      <trkpt lat="46.0126" lon="6.78036">
        <ele>1732.1999511719</ele>
        <time>2023-09-30T10:02:32.000Z</time>
      </trkpt>
      <trkpt lat="46.01264" lon="6.78033">
        <ele>1732.5999755859</ele>
        <time>2023-09-30T10:02:35.000Z</time>
      </trkpt>
      <trkpt lat="46.01265" lon="6.78032">
        <ele>1732.8000488281</ele>
        <time>2023-09-30T10:02:36.000Z</time>
      </trkpt>
      <trkpt lat="46.01266" lon="6.7803">
        <ele>1732.8000488281</ele>
        <time>2023-09-30T10:02:37.000Z</time>
      </trkpt>
      <trkpt lat="46.01267" lon="6.78028">
        <ele>1733</ele>
        <time>2023-09-30T10:02:38.000Z</time>
      </trkpt>
      <trkpt lat="46.01267" lon="6.78026">
        <ele>1733.1999511719</ele>
        <time>2023-09-30T10:02:39.000Z</time>
      </trkpt>
      <trkpt lat="46.01267" lon="6.78025">
        <ele>1733.4000244141</ele>
        <time>2023-09-30T10:02:40.000Z</time>
      </trkpt>
      <trkpt lat="46.01267" lon="6.78023">
        <ele>1733.5999755859</ele>
        <time>2023-09-30T10:02:41.000Z</time>
      </trkpt>
      <trkpt lat="46.01267" lon="6.78022">
        <ele>1733.5999755859</ele>
        <time>2023-09-30T10:02:42.000Z</time>
      </trkpt>
      <trkpt lat="46.01266" lon="6.78021">
        <ele>1733.8000488281</ele>
        <time>2023-09-30T10:02:43.000Z</time>
      </trkpt>
      <trkpt lat="46.01267" lon="6.7802">
        <ele>1733.8000488281</ele>
        <time>2023-09-30T10:02:44.000Z</time>
      </trkpt>
      <trkpt lat="46.01267" lon="6.78019">
        <ele>1733.8000488281</ele>
        <time>2023-09-30T10:02:45.000Z</time>
      </trkpt>
      <trkpt lat="46.01268" lon="6.78018">
        <ele>1734</ele>
        <time>2023-09-30T10:02:46.000Z</time>
      </trkpt>
      <trkpt lat="46.01268" lon="6.78016">
        <ele>1734</ele>
        <time>2023-09-30T10:02:47.000Z</time>
      </trkpt>
      <trkpt lat="46.01268" lon="6.78015">
        <ele>1734.1999511719</ele>
        <time>2023-09-30T10:02:48.000Z</time>
      </trkpt>
      <trkpt lat="46.01269" lon="6.78013">
        <ele>1734.1999511719</ele>
        <time>2023-09-30T10:02:49.000Z</time>
      </trkpt>
      <trkpt lat="46.01269" lon="6.78012">
        <ele>1734.1999511719</ele>
        <time>2023-09-30T10:02:50.000Z</time>
      </trkpt>
      <trkpt lat="46.01269" lon="6.7801">
        <ele>1734.1999511719</ele>
        <time>2023-09-30T10:02:51.000Z</time>
      </trkpt>
      <trkpt lat="46.01269" lon="6.78009">
        <ele>1734.4000244141</ele>
        <time>2023-09-30T10:02:52.000Z</time>
      </trkpt>
      <trkpt lat="46.01268" lon="6.78007">
        <ele>1734.5999755859</ele>
        <time>2023-09-30T10:02:53.000Z</time>
      </trkpt>
      <trkpt lat="46.01268" lon="6.78005">
        <ele>1735.1999511719</ele>
        <time>2023-09-30T10:02:54.000Z</time>
      </trkpt>
      <trkpt lat="46.01268" lon="6.78004">
        <ele>1735.5999755859</ele>
        <time>2023-09-30T10:02:55.000Z</time>
      </trkpt>
      <trkpt lat="46.01268" lon="6.78003">
        <ele>1735.8000488281</ele>
        <time>2023-09-30T10:02:56.000Z</time>
      </trkpt>
      <trkpt lat="46.01267" lon="6.78002">
        <ele>1736</ele>
        <time>2023-09-30T10:02:57.000Z</time>
      </trkpt>
      <trkpt lat="46.01267" lon="6.78002">
        <ele>1736</ele>
        <time>2023-09-30T10:02:58.000Z</time>
      </trkpt>
      <trkpt lat="46.01268" lon="6.78001">
        <ele>1736.1999511719</ele>
        <time>2023-09-30T10:02:59.000Z</time>
      </trkpt>
      <trkpt lat="46.01268" lon="6.78">
        <ele>1736.4000244141</ele>
        <time>2023-09-30T10:03:00.000Z</time>
      </trkpt>
      <trkpt lat="46.01269" lon="6.77999">
        <ele>1736.4000244141</ele>
        <time>2023-09-30T10:03:01.000Z</time>
      </trkpt>
      <trkpt lat="46.01269" lon="6.77999">
        <ele>1736.5999755859</ele>
        <time>2023-09-30T10:03:02.000Z</time>
      </trkpt>
      <trkpt lat="46.01269" lon="6.77999">
        <ele>1737.1999511719</ele>
        <time>2023-09-30T10:03:07.000Z</time>
      </trkpt>
      <trkpt lat="46.01269" lon="6.77999">
        <ele>1737.5999755859</ele>
        <time>2023-09-30T10:03:22.000Z</time>
      </trkpt>
      <trkpt lat="46.01269" lon="6.77999">
        <ele>1737.4000244141</ele>
        <time>2023-09-30T10:03:28.000Z</time>
      </trkpt>
      <trkpt lat="46.01269" lon="6.77999">
        <ele>1737.8000488281</ele>
        <time>2023-09-30T10:03:50.000Z</time>
      </trkpt>
      <trkpt lat="46.0127" lon="6.77997">
        <ele>1737.8000488281</ele>
        <time>2023-09-30T10:03:51.000Z</time>
      </trkpt>
      <trkpt lat="46.01272" lon="6.77995">
        <ele>1737.8000488281</ele>
        <time>2023-09-30T10:03:53.000Z</time>
      </trkpt>
      <trkpt lat="46.01273" lon="6.77994">
        <ele>1737.8000488281</ele>
        <time>2023-09-30T10:03:54.000Z</time>
      </trkpt>
      <trkpt lat="46.01274" lon="6.77993">
        <ele>1737.8000488281</ele>
        <time>2023-09-30T10:03:55.000Z</time>
      </trkpt>
      <trkpt lat="46.01278" lon="6.77989">
        <ele>1738.1999511719</ele>
        <time>2023-09-30T10:03:58.000Z</time>
      </trkpt>
      <trkpt lat="46.01278" lon="6.77987">
        <ele>1738.5999755859</ele>
        <time>2023-09-30T10:03:59.000Z</time>
      </trkpt>
      <trkpt lat="46.01279" lon="6.77986">
        <ele>1738.5999755859</ele>
        <time>2023-09-30T10:04:00.000Z</time>
      </trkpt>
      <trkpt lat="46.0128" lon="6.77984">
        <ele>1739</ele>
        <time>2023-09-30T10:04:01.000Z</time>
      </trkpt>
      <trkpt lat="46.01281" lon="6.77983">
        <ele>1739.1999511719</ele>
        <time>2023-09-30T10:04:02.000Z</time>
      </trkpt>
      <trkpt lat="46.01281" lon="6.77982">
        <ele>1739.1999511719</ele>
        <time>2023-09-30T10:04:03.000Z</time>
      </trkpt>
      <trkpt lat="46.01281" lon="6.7798">
        <ele>1739.4000244141</ele>
        <time>2023-09-30T10:04:04.000Z</time>
      </trkpt>
      <trkpt lat="46.01281" lon="6.77979">
        <ele>1739.5999755859</ele>
        <time>2023-09-30T10:04:05.000Z</time>
      </trkpt>
      <trkpt lat="46.01282" lon="6.77977">
        <ele>1739.8000488281</ele>
        <time>2023-09-30T10:04:06.000Z</time>
      </trkpt>
      <trkpt lat="46.01283" lon="6.77976">
        <ele>1739.8000488281</ele>
        <time>2023-09-30T10:04:07.000Z</time>
      </trkpt>
      <trkpt lat="46.01284" lon="6.77975">
        <ele>1740</ele>
        <time>2023-09-30T10:04:08.000Z</time>
      </trkpt>
      <trkpt lat="46.01284" lon="6.77974">
        <ele>1740</ele>
        <time>2023-09-30T10:04:09.000Z</time>
      </trkpt>
      <trkpt lat="46.01285" lon="6.77972">
        <ele>1740.4000244141</ele>
        <time>2023-09-30T10:04:10.000Z</time>
      </trkpt>
      <trkpt lat="46.01285" lon="6.77971">
        <ele>1740.8000488281</ele>
        <time>2023-09-30T10:04:11.000Z</time>
      </trkpt>
      <trkpt lat="46.01285" lon="6.7797">
        <ele>1741</ele>
        <time>2023-09-30T10:04:12.000Z</time>
      </trkpt>
      <trkpt lat="46.01285" lon="6.7797">
        <ele>1741.4000244141</ele>
        <time>2023-09-30T10:04:13.000Z</time>
      </trkpt>
      <trkpt lat="46.01286" lon="6.77969">
        <ele>1741.5999755859</ele>
        <time>2023-09-30T10:04:14.000Z</time>
      </trkpt>
      <trkpt lat="46.01286" lon="6.77968">
        <ele>1741.8000488281</ele>
        <time>2023-09-30T10:04:15.000Z</time>
      </trkpt>
      <trkpt lat="46.01287" lon="6.77967">
        <ele>1742</ele>
        <time>2023-09-30T10:04:16.000Z</time>
      </trkpt>
      <trkpt lat="46.01286" lon="6.77966">
        <ele>1742.1999511719</ele>
        <time>2023-09-30T10:04:17.000Z</time>
      </trkpt>
      <trkpt lat="46.01287" lon="6.77966">
        <ele>1742.5999755859</ele>
        <time>2023-09-30T10:04:18.000Z</time>
      </trkpt>
      <trkpt lat="46.01287" lon="6.77965">
        <ele>1742.8000488281</ele>
        <time>2023-09-30T10:04:19.000Z</time>
      </trkpt>
      <trkpt lat="46.01288" lon="6.77965">
        <ele>1743</ele>
        <time>2023-09-30T10:04:20.000Z</time>
      </trkpt>
      <trkpt lat="46.01289" lon="6.77964">
        <ele>1743.1999511719</ele>
        <time>2023-09-30T10:04:21.000Z</time>
      </trkpt>
      <trkpt lat="46.01289" lon="6.77963">
        <ele>1743.5999755859</ele>
        <time>2023-09-30T10:04:22.000Z</time>
      </trkpt>
      <trkpt lat="46.01289" lon="6.77962">
        <ele>1743.8000488281</ele>
        <time>2023-09-30T10:04:23.000Z</time>
      </trkpt>
      <trkpt lat="46.0129" lon="6.77961">
        <ele>1744</ele>
        <time>2023-09-30T10:04:24.000Z</time>
      </trkpt>
      <trkpt lat="46.0129" lon="6.7796">
        <ele>1744.1999511719</ele>
        <time>2023-09-30T10:04:25.000Z</time>
      </trkpt>
      <trkpt lat="46.01291" lon="6.77959">
        <ele>1744.1999511719</ele>
        <time>2023-09-30T10:04:26.000Z</time>
      </trkpt>
      <trkpt lat="46.01292" lon="6.77957">
        <ele>1744.1999511719</ele>
        <time>2023-09-30T10:04:27.000Z</time>
      </trkpt>
      <trkpt lat="46.01292" lon="6.77957">
        <ele>1744.1999511719</ele>
        <time>2023-09-30T10:04:28.000Z</time>
      </trkpt>
      <trkpt lat="46.01293" lon="6.77956">
        <ele>1744.1999511719</ele>
        <time>2023-09-30T10:04:29.000Z</time>
      </trkpt>
      <trkpt lat="46.01293" lon="6.77956">
        <ele>1744.1999511719</ele>
        <time>2023-09-30T10:04:30.000Z</time>
      </trkpt>
      <trkpt lat="46.01293" lon="6.77956">
        <ele>1744.4000244141</ele>
        <time>2023-09-30T10:04:31.000Z</time>
      </trkpt>
      <trkpt lat="46.01293" lon="6.77955">
        <ele>1744.5999755859</ele>
        <time>2023-09-30T10:04:32.000Z</time>
      </trkpt>
      <trkpt lat="46.01294" lon="6.77954">
        <ele>1744.8000488281</ele>
        <time>2023-09-30T10:04:33.000Z</time>
      </trkpt>
      <trkpt lat="46.01295" lon="6.77953">
        <ele>1744.8000488281</ele>
        <time>2023-09-30T10:04:34.000Z</time>
      </trkpt>
      <trkpt lat="46.01296" lon="6.77952">
        <ele>1745</ele>
        <time>2023-09-30T10:04:35.000Z</time>
      </trkpt>
      <trkpt lat="46.01296" lon="6.7795">
        <ele>1745</ele>
        <time>2023-09-30T10:04:36.000Z</time>
      </trkpt>
      <trkpt lat="46.01297" lon="6.77949">
        <ele>1745</ele>
        <time>2023-09-30T10:04:37.000Z</time>
      </trkpt>
      <trkpt lat="46.01297" lon="6.77948">
        <ele>1745</ele>
        <time>2023-09-30T10:04:38.000Z</time>
      </trkpt>
      <trkpt lat="46.01298" lon="6.77946">
        <ele>1745</ele>
        <time>2023-09-30T10:04:39.000Z</time>
      </trkpt>
      <trkpt lat="46.01298" lon="6.77945">
        <ele>1745.1999511719</ele>
        <time>2023-09-30T10:04:40.000Z</time>
      </trkpt>
      <trkpt lat="46.01299" lon="6.77944">
        <ele>1745.5999755859</ele>
        <time>2023-09-30T10:04:41.000Z</time>
      </trkpt>
      <trkpt lat="46.013" lon="6.77943">
        <ele>1745.5999755859</ele>
        <time>2023-09-30T10:04:42.000Z</time>
      </trkpt>
      <trkpt lat="46.013" lon="6.77942">
        <ele>1745.8000488281</ele>
        <time>2023-09-30T10:04:43.000Z</time>
      </trkpt>
      <trkpt lat="46.01301" lon="6.77942">
        <ele>1745.8000488281</ele>
        <time>2023-09-30T10:04:44.000Z</time>
      </trkpt>
      <trkpt lat="46.01301" lon="6.77941">
        <ele>1746.1999511719</ele>
        <time>2023-09-30T10:04:45.000Z</time>
      </trkpt>
      <trkpt lat="46.01301" lon="6.7794">
        <ele>1746.1999511719</ele>
        <time>2023-09-30T10:04:46.000Z</time>
      </trkpt>
      <trkpt lat="46.01301" lon="6.7794">
        <ele>1746.4000244141</ele>
        <time>2023-09-30T10:04:47.000Z</time>
      </trkpt>
      <trkpt lat="46.01301" lon="6.77939">
        <ele>1746.8000488281</ele>
        <time>2023-09-30T10:04:48.000Z</time>
      </trkpt>
      <trkpt lat="46.01302" lon="6.77938">
        <ele>1747</ele>
        <time>2023-09-30T10:04:49.000Z</time>
      </trkpt>
      <trkpt lat="46.01303" lon="6.77936">
        <ele>1747.4000244141</ele>
        <time>2023-09-30T10:04:50.000Z</time>
      </trkpt>
      <trkpt lat="46.01303" lon="6.77935">
        <ele>1747.5999755859</ele>
        <time>2023-09-30T10:04:51.000Z</time>
      </trkpt>
      <trkpt lat="46.01304" lon="6.77933">
        <ele>1747.8000488281</ele>
        <time>2023-09-30T10:04:52.000Z</time>
      </trkpt>
      <trkpt lat="46.01304" lon="6.77932">
        <ele>1747.8000488281</ele>
        <time>2023-09-30T10:04:53.000Z</time>
      </trkpt>
      <trkpt lat="46.01305" lon="6.7793">
        <ele>1748</ele>
        <time>2023-09-30T10:04:54.000Z</time>
      </trkpt>
      <trkpt lat="46.01306" lon="6.77929">
        <ele>1748</ele>
        <time>2023-09-30T10:04:55.000Z</time>
      </trkpt>
      <trkpt lat="46.01306" lon="6.77928">
        <ele>1748.1999511719</ele>
        <time>2023-09-30T10:04:56.000Z</time>
      </trkpt>
      <trkpt lat="46.01307" lon="6.77926">
        <ele>1748.4000244141</ele>
        <time>2023-09-30T10:04:57.000Z</time>
      </trkpt>
      <trkpt lat="46.01308" lon="6.77925">
        <ele>1748.5999755859</ele>
        <time>2023-09-30T10:04:58.000Z</time>
      </trkpt>
      <trkpt lat="46.01309" lon="6.77924">
        <ele>1748.8000488281</ele>
        <time>2023-09-30T10:04:59.000Z</time>
      </trkpt>
      <trkpt lat="46.0131" lon="6.77923">
        <ele>1749</ele>
        <time>2023-09-30T10:05:00.000Z</time>
      </trkpt>
      <trkpt lat="46.0131" lon="6.77921">
        <ele>1749.4000244141</ele>
        <time>2023-09-30T10:05:01.000Z</time>
      </trkpt>
      <trkpt lat="46.01311" lon="6.7792">
        <ele>1749.4000244141</ele>
        <time>2023-09-30T10:05:02.000Z</time>
      </trkpt>
      <trkpt lat="46.01312" lon="6.77919">
        <ele>1749.5999755859</ele>
        <time>2023-09-30T10:05:03.000Z</time>
      </trkpt>
      <trkpt lat="46.01313" lon="6.77918">
        <ele>1749.5999755859</ele>
        <time>2023-09-30T10:05:04.000Z</time>
      </trkpt>
      <trkpt lat="46.01313" lon="6.77917">
        <ele>1749.5999755859</ele>
        <time>2023-09-30T10:05:05.000Z</time>
      </trkpt>
      <trkpt lat="46.01314" lon="6.77916">
        <ele>1749.8000488281</ele>
        <time>2023-09-30T10:05:06.000Z</time>
      </trkpt>
      <trkpt lat="46.01315" lon="6.77915">
        <ele>1750</ele>
        <time>2023-09-30T10:05:07.000Z</time>
      </trkpt>
      <trkpt lat="46.01317" lon="6.77913">
        <ele>1750</ele>
        <time>2023-09-30T10:05:08.000Z</time>
      </trkpt>
      <trkpt lat="46.01318" lon="6.77912">
        <ele>1750</ele>
        <time>2023-09-30T10:05:09.000Z</time>
      </trkpt>
      <trkpt lat="46.01319" lon="6.77912">
        <ele>1750.1999511719</ele>
        <time>2023-09-30T10:05:10.000Z</time>
      </trkpt>
      <trkpt lat="46.01321" lon="6.77911">
        <ele>1750.4000244141</ele>
        <time>2023-09-30T10:05:11.000Z</time>
      </trkpt>
      <trkpt lat="46.01322" lon="6.7791">
        <ele>1750.4000244141</ele>
        <time>2023-09-30T10:05:12.000Z</time>
      </trkpt>
      <trkpt lat="46.01323" lon="6.7791">
        <ele>1750.4000244141</ele>
        <time>2023-09-30T10:05:13.000Z</time>
      </trkpt>
      <trkpt lat="46.01325" lon="6.77909">
        <ele>1750.4000244141</ele>
        <time>2023-09-30T10:05:14.000Z</time>
      </trkpt>
      <trkpt lat="46.01326" lon="6.77908">
        <ele>1750.4000244141</ele>
        <time>2023-09-30T10:05:15.000Z</time>
      </trkpt>
      <trkpt lat="46.01327" lon="6.77907">
        <ele>1750.4000244141</ele>
        <time>2023-09-30T10:05:16.000Z</time>
      </trkpt>
      <trkpt lat="46.01328" lon="6.77906">
        <ele>1750.5999755859</ele>
        <time>2023-09-30T10:05:17.000Z</time>
      </trkpt>
      <trkpt lat="46.01329" lon="6.77905">
        <ele>1750.5999755859</ele>
        <time>2023-09-30T10:05:18.000Z</time>
      </trkpt>
      <trkpt lat="46.0133" lon="6.77904">
        <ele>1750.8000488281</ele>
        <time>2023-09-30T10:05:19.000Z</time>
      </trkpt>
      <trkpt lat="46.01332" lon="6.77903">
        <ele>1751</ele>
        <time>2023-09-30T10:05:20.000Z</time>
      </trkpt>
      <trkpt lat="46.01333" lon="6.77903">
        <ele>1751</ele>
        <time>2023-09-30T10:05:21.000Z</time>
      </trkpt>
      <trkpt lat="46.01334" lon="6.77903">
        <ele>1751</ele>
        <time>2023-09-30T10:05:22.000Z</time>
      </trkpt>
      <trkpt lat="46.01336" lon="6.77903">
        <ele>1751</ele>
        <time>2023-09-30T10:05:23.000Z</time>
      </trkpt>
      <trkpt lat="46.01337" lon="6.77902">
        <ele>1751.1999511719</ele>
        <time>2023-09-30T10:05:24.000Z</time>
      </trkpt>
      <trkpt lat="46.01338" lon="6.77901">
        <ele>1751.4000244141</ele>
        <time>2023-09-30T10:05:25.000Z</time>
      </trkpt>
      <trkpt lat="46.01339" lon="6.77901">
        <ele>1751.4000244141</ele>
        <time>2023-09-30T10:05:26.000Z</time>
      </trkpt>
      <trkpt lat="46.0134" lon="6.779">
        <ele>1751.4000244141</ele>
        <time>2023-09-30T10:05:27.000Z</time>
      </trkpt>
      <trkpt lat="46.0134" lon="6.779">
        <ele>1751.4000244141</ele>
        <time>2023-09-30T10:05:28.000Z</time>
      </trkpt>
      <trkpt lat="46.01341" lon="6.779">
        <ele>1751.5999755859</ele>
        <time>2023-09-30T10:05:29.000Z</time>
      </trkpt>
      <trkpt lat="46.01342" lon="6.779">
        <ele>1751.5999755859</ele>
        <time>2023-09-30T10:05:30.000Z</time>
      </trkpt>
      <trkpt lat="46.01343" lon="6.779">
        <ele>1751.8000488281</ele>
        <time>2023-09-30T10:05:31.000Z</time>
      </trkpt>
      <trkpt lat="46.01344" lon="6.779">
        <ele>1752</ele>
        <time>2023-09-30T10:05:32.000Z</time>
      </trkpt>
      <trkpt lat="46.01345" lon="6.779">
        <ele>1752.1999511719</ele>
        <time>2023-09-30T10:05:33.000Z</time>
      </trkpt>
      <trkpt lat="46.01346" lon="6.779">
        <ele>1752.4000244141</ele>
        <time>2023-09-30T10:05:34.000Z</time>
      </trkpt>
      <trkpt lat="46.01347" lon="6.779">
        <ele>1752.5999755859</ele>
        <time>2023-09-30T10:05:35.000Z</time>
      </trkpt>
      <trkpt lat="46.01347" lon="6.779">
        <ele>1752.8000488281</ele>
        <time>2023-09-30T10:05:36.000Z</time>
      </trkpt>
      <trkpt lat="46.01348" lon="6.77899">
        <ele>1753</ele>
        <time>2023-09-30T10:05:37.000Z</time>
      </trkpt>
      <trkpt lat="46.01349" lon="6.77899">
        <ele>1753.1999511719</ele>
        <time>2023-09-30T10:05:38.000Z</time>
      </trkpt>
      <trkpt lat="46.0135" lon="6.77899">
        <ele>1753.4000244141</ele>
        <time>2023-09-30T10:05:39.000Z</time>
      </trkpt>
      <trkpt lat="46.0135" lon="6.77899">
        <ele>1754.1999511719</ele>
        <time>2023-09-30T10:05:40.000Z</time>
      </trkpt>
      <trkpt lat="46.01351" lon="6.77899">
        <ele>1754.4000244141</ele>
        <time>2023-09-30T10:05:41.000Z</time>
      </trkpt>
      <trkpt lat="46.01352" lon="6.77899">
        <ele>1754.5999755859</ele>
        <time>2023-09-30T10:05:42.000Z</time>
      </trkpt>
      <trkpt lat="46.01353" lon="6.77899">
        <ele>1754.8000488281</ele>
        <time>2023-09-30T10:05:43.000Z</time>
      </trkpt>
      <trkpt lat="46.01354" lon="6.77899">
        <ele>1754.8000488281</ele>
        <time>2023-09-30T10:05:44.000Z</time>
      </trkpt>
      <trkpt lat="46.01355" lon="6.77899">
        <ele>1754.8000488281</ele>
        <time>2023-09-30T10:05:45.000Z</time>
      </trkpt>
      <trkpt lat="46.01356" lon="6.77899">
        <ele>1755</ele>
        <time>2023-09-30T10:05:46.000Z</time>
      </trkpt>
      <trkpt lat="46.01357" lon="6.77899">
        <ele>1755.1999511719</ele>
        <time>2023-09-30T10:05:47.000Z</time>
      </trkpt>
      <trkpt lat="46.01357" lon="6.77898">
        <ele>1755.4000244141</ele>
        <time>2023-09-30T10:05:48.000Z</time>
      </trkpt>
      <trkpt lat="46.01358" lon="6.77899">
        <ele>1755.8000488281</ele>
        <time>2023-09-30T10:05:49.000Z</time>
      </trkpt>
      <trkpt lat="46.01359" lon="6.77898">
        <ele>1756.1999511719</ele>
        <time>2023-09-30T10:05:50.000Z</time>
      </trkpt>
      <trkpt lat="46.0136" lon="6.77898">
        <ele>1756.4000244141</ele>
        <time>2023-09-30T10:05:51.000Z</time>
      </trkpt>
      <trkpt lat="46.01361" lon="6.77898">
        <ele>1756.5999755859</ele>
        <time>2023-09-30T10:05:52.000Z</time>
      </trkpt>
      <trkpt lat="46.01362" lon="6.77897">
        <ele>1756.8000488281</ele>
        <time>2023-09-30T10:05:53.000Z</time>
      </trkpt>
      <trkpt lat="46.01362" lon="6.77896">
        <ele>1757</ele>
        <time>2023-09-30T10:05:54.000Z</time>
      </trkpt>
      <trkpt lat="46.01363" lon="6.77896">
        <ele>1757.1999511719</ele>
        <time>2023-09-30T10:05:55.000Z</time>
      </trkpt>
      <trkpt lat="46.01364" lon="6.77895">
        <ele>1757.1999511719</ele>
        <time>2023-09-30T10:05:56.000Z</time>
      </trkpt>
      <trkpt lat="46.01365" lon="6.77895">
        <ele>1757.4000244141</ele>
        <time>2023-09-30T10:05:57.000Z</time>
      </trkpt>
      <trkpt lat="46.01365" lon="6.77895">
        <ele>1757.4000244141</ele>
        <time>2023-09-30T10:05:58.000Z</time>
      </trkpt>
      <trkpt lat="46.01365" lon="6.77894">
        <ele>1758</ele>
        <time>2023-09-30T10:06:01.000Z</time>
      </trkpt>
      <trkpt lat="46.01365" lon="6.77894">
        <ele>1758.1999511719</ele>
        <time>2023-09-30T10:06:02.000Z</time>
      </trkpt>
      <trkpt lat="46.01366" lon="6.77894">
        <ele>1758.4000244141</ele>
        <time>2023-09-30T10:06:03.000Z</time>
      </trkpt>
      <trkpt lat="46.01366" lon="6.77893">
        <ele>1758.5999755859</ele>
        <time>2023-09-30T10:06:04.000Z</time>
      </trkpt>
      <trkpt lat="46.01367" lon="6.77893">
        <ele>1758.8000488281</ele>
        <time>2023-09-30T10:06:05.000Z</time>
      </trkpt>
      <trkpt lat="46.01367" lon="6.77893">
        <ele>1759</ele>
        <time>2023-09-30T10:06:06.000Z</time>
      </trkpt>
      <trkpt lat="46.01368" lon="6.77893">
        <ele>1759</ele>
        <time>2023-09-30T10:06:07.000Z</time>
      </trkpt>
      <trkpt lat="46.01369" lon="6.77893">
        <ele>1759.1999511719</ele>
        <time>2023-09-30T10:06:08.000Z</time>
      </trkpt>
      <trkpt lat="46.01371" lon="6.77893">
        <ele>1759.1999511719</ele>
        <time>2023-09-30T10:06:09.000Z</time>
      </trkpt>
      <trkpt lat="46.01372" lon="6.77893">
        <ele>1759.4000244141</ele>
        <time>2023-09-30T10:06:10.000Z</time>
      </trkpt>
      <trkpt lat="46.01373" lon="6.77893">
        <ele>1759.4000244141</ele>
        <time>2023-09-30T10:06:11.000Z</time>
      </trkpt>
      <trkpt lat="46.01374" lon="6.77893">
        <ele>1759.5999755859</ele>
        <time>2023-09-30T10:06:12.000Z</time>
      </trkpt>
      <trkpt lat="46.01375" lon="6.77893">
        <ele>1759.8000488281</ele>
        <time>2023-09-30T10:06:13.000Z</time>
      </trkpt>
      <trkpt lat="46.01376" lon="6.77893">
        <ele>1759.8000488281</ele>
        <time>2023-09-30T10:06:14.000Z</time>
      </trkpt>
      <trkpt lat="46.01377" lon="6.77893">
        <ele>1760</ele>
        <time>2023-09-30T10:06:15.000Z</time>
      </trkpt>
      <trkpt lat="46.01378" lon="6.77893">
        <ele>1760</ele>
        <time>2023-09-30T10:06:16.000Z</time>
      </trkpt>
      <trkpt lat="46.01379" lon="6.77892">
        <ele>1760.1999511719</ele>
        <time>2023-09-30T10:06:17.000Z</time>
      </trkpt>
      <trkpt lat="46.0138" lon="6.77892">
        <ele>1760.4000244141</ele>
        <time>2023-09-30T10:06:18.000Z</time>
      </trkpt>
      <trkpt lat="46.0138" lon="6.77892">
        <ele>1760.4000244141</ele>
        <time>2023-09-30T10:06:19.000Z</time>
      </trkpt>
      <trkpt lat="46.01381" lon="6.77893">
        <ele>1760.8000488281</ele>
        <time>2023-09-30T10:06:20.000Z</time>
      </trkpt>
      <trkpt lat="46.01382" lon="6.77894">
        <ele>1761</ele>
        <time>2023-09-30T10:06:21.000Z</time>
      </trkpt>
      <trkpt lat="46.01383" lon="6.77895">
        <ele>1761.1999511719</ele>
        <time>2023-09-30T10:06:22.000Z</time>
      </trkpt>
      <trkpt lat="46.01383" lon="6.77896">
        <ele>1761.4000244141</ele>
        <time>2023-09-30T10:06:23.000Z</time>
      </trkpt>
      <trkpt lat="46.01384" lon="6.77896">
        <ele>1761.8000488281</ele>
        <time>2023-09-30T10:06:24.000Z</time>
      </trkpt>
      <trkpt lat="46.01385" lon="6.77897">
        <ele>1761.8000488281</ele>
        <time>2023-09-30T10:06:25.000Z</time>
      </trkpt>
      <trkpt lat="46.01386" lon="6.77898">
        <ele>1762</ele>
        <time>2023-09-30T10:06:26.000Z</time>
      </trkpt>
      <trkpt lat="46.01386" lon="6.77899">
        <ele>1762</ele>
        <time>2023-09-30T10:06:27.000Z</time>
      </trkpt>
      <trkpt lat="46.01387" lon="6.779">
        <ele>1762.1999511719</ele>
        <time>2023-09-30T10:06:28.000Z</time>
      </trkpt>
      <trkpt lat="46.01388" lon="6.77901">
        <ele>1762.5999755859</ele>
        <time>2023-09-30T10:06:29.000Z</time>
      </trkpt>
      <trkpt lat="46.0139" lon="6.77901">
        <ele>1762.5999755859</ele>
        <time>2023-09-30T10:06:30.000Z</time>
      </trkpt>
      <trkpt lat="46.01391" lon="6.77902">
        <ele>1762.8000488281</ele>
        <time>2023-09-30T10:06:31.000Z</time>
      </trkpt>
      <trkpt lat="46.01392" lon="6.77902">
        <ele>1763</ele>
        <time>2023-09-30T10:06:32.000Z</time>
      </trkpt>
      <trkpt lat="46.01393" lon="6.77903">
        <ele>1763.1999511719</ele>
        <time>2023-09-30T10:06:33.000Z</time>
      </trkpt>
      <trkpt lat="46.01395" lon="6.77903">
        <ele>1763.1999511719</ele>
        <time>2023-09-30T10:06:34.000Z</time>
      </trkpt>
      <trkpt lat="46.01396" lon="6.77904">
        <ele>1763.4000244141</ele>
        <time>2023-09-30T10:06:35.000Z</time>
      </trkpt>
      <trkpt lat="46.01397" lon="6.77904">
        <ele>1763.4000244141</ele>
        <time>2023-09-30T10:06:36.000Z</time>
      </trkpt>
      <trkpt lat="46.01398" lon="6.77904">
        <ele>1763.5999755859</ele>
        <time>2023-09-30T10:06:37.000Z</time>
      </trkpt>
      <trkpt lat="46.01399" lon="6.77904">
        <ele>1763.8000488281</ele>
        <time>2023-09-30T10:06:38.000Z</time>
      </trkpt>
      <trkpt lat="46.014" lon="6.77904">
        <ele>1763.8000488281</ele>
        <time>2023-09-30T10:06:39.000Z</time>
      </trkpt>
      <trkpt lat="46.01401" lon="6.77904">
        <ele>1764</ele>
        <time>2023-09-30T10:06:40.000Z</time>
      </trkpt>
      <trkpt lat="46.01402" lon="6.77904">
        <ele>1764</ele>
        <time>2023-09-30T10:06:41.000Z</time>
      </trkpt>
      <trkpt lat="46.01403" lon="6.77904">
        <ele>1764.4000244141</ele>
        <time>2023-09-30T10:06:42.000Z</time>
      </trkpt>
      <trkpt lat="46.01404" lon="6.77903">
        <ele>1764.4000244141</ele>
        <time>2023-09-30T10:06:43.000Z</time>
      </trkpt>
      <trkpt lat="46.01404" lon="6.77903">
        <ele>1764.5999755859</ele>
        <time>2023-09-30T10:06:44.000Z</time>
      </trkpt>
      <trkpt lat="46.01405" lon="6.77903">
        <ele>1764.8000488281</ele>
        <time>2023-09-30T10:06:45.000Z</time>
      </trkpt>
      <trkpt lat="46.01406" lon="6.77903">
        <ele>1765</ele>
        <time>2023-09-30T10:06:46.000Z</time>
      </trkpt>
      <trkpt lat="46.01407" lon="6.77903">
        <ele>1765.1999511719</ele>
        <time>2023-09-30T10:06:47.000Z</time>
      </trkpt>
      <trkpt lat="46.01408" lon="6.77903">
        <ele>1765.4000244141</ele>
        <time>2023-09-30T10:06:48.000Z</time>
      </trkpt>
      <trkpt lat="46.01409" lon="6.77903">
        <ele>1765.8000488281</ele>
        <time>2023-09-30T10:06:49.000Z</time>
      </trkpt>
      <trkpt lat="46.01409" lon="6.77902">
        <ele>1766</ele>
        <time>2023-09-30T10:06:50.000Z</time>
      </trkpt>
      <trkpt lat="46.0141" lon="6.77902">
        <ele>1766</ele>
        <time>2023-09-30T10:06:51.000Z</time>
      </trkpt>
      <trkpt lat="46.01411" lon="6.77902">
        <ele>1766.4000244141</ele>
        <time>2023-09-30T10:06:52.000Z</time>
      </trkpt>
      <trkpt lat="46.01412" lon="6.77902">
        <ele>1766.5999755859</ele>
        <time>2023-09-30T10:06:53.000Z</time>
      </trkpt>
      <trkpt lat="46.01414" lon="6.77902">
        <ele>1766.8000488281</ele>
        <time>2023-09-30T10:06:54.000Z</time>
      </trkpt>
      <trkpt lat="46.01414" lon="6.77901">
        <ele>1767</ele>
        <time>2023-09-30T10:06:55.000Z</time>
      </trkpt>
      <trkpt lat="46.01415" lon="6.77901">
        <ele>1767.1999511719</ele>
        <time>2023-09-30T10:06:56.000Z</time>
      </trkpt>
      <trkpt lat="46.01416" lon="6.77901">
        <ele>1767.1999511719</ele>
        <time>2023-09-30T10:06:57.000Z</time>
      </trkpt>
      <trkpt lat="46.01416" lon="6.77901">
        <ele>1767.8000488281</ele>
        <time>2023-09-30T10:06:59.000Z</time>
      </trkpt>
      <trkpt lat="46.01416" lon="6.77901">
        <ele>1768</ele>
        <time>2023-09-30T10:07:02.000Z</time>
      </trkpt>
      <trkpt lat="46.01416" lon="6.77901">
        <ele>1768.1999511719</ele>
        <time>2023-09-30T10:07:04.000Z</time>
      </trkpt>
      <trkpt lat="46.01416" lon="6.77901">
        <ele>1768.1999511719</ele>
        <time>2023-09-30T10:07:12.000Z</time>
      </trkpt>
      <trkpt lat="46.01416" lon="6.77901">
        <ele>1768.1999511719</ele>
        <time>2023-09-30T10:07:13.000Z</time>
      </trkpt>
      <trkpt lat="46.01417" lon="6.77901">
        <ele>1768.1999511719</ele>
        <time>2023-09-30T10:07:14.000Z</time>
      </trkpt>
      <trkpt lat="46.01418" lon="6.77901">
        <ele>1768.1999511719</ele>
        <time>2023-09-30T10:07:15.000Z</time>
      </trkpt>
      <trkpt lat="46.01419" lon="6.77901">
        <ele>1768.1999511719</ele>
        <time>2023-09-30T10:07:16.000Z</time>
      </trkpt>
      <trkpt lat="46.0142" lon="6.77901">
        <ele>1768.4000244141</ele>
        <time>2023-09-30T10:07:17.000Z</time>
      </trkpt>
      <trkpt lat="46.01422" lon="6.77901">
        <ele>1768.4000244141</ele>
        <time>2023-09-30T10:07:18.000Z</time>
      </trkpt>
      <trkpt lat="46.01426" lon="6.77901">
        <ele>1769.1999511719</ele>
        <time>2023-09-30T10:07:22.000Z</time>
      </trkpt>
      <trkpt lat="46.0143" lon="6.77901">
        <ele>1769.5999755859</ele>
        <time>2023-09-30T10:07:26.000Z</time>
      </trkpt>
      <trkpt lat="46.01434" lon="6.779">
        <ele>1770.4000244141</ele>
        <time>2023-09-30T10:07:30.000Z</time>
      </trkpt>
      <trkpt lat="46.01435" lon="6.77901">
        <ele>1771</ele>
        <time>2023-09-30T10:07:31.000Z</time>
      </trkpt>
      <trkpt lat="46.01437" lon="6.77901">
        <ele>1771.4000244141</ele>
        <time>2023-09-30T10:07:33.000Z</time>
      </trkpt>
      <trkpt lat="46.01438" lon="6.77901">
        <ele>1771.5999755859</ele>
        <time>2023-09-30T10:07:34.000Z</time>
      </trkpt>
      <trkpt lat="46.01438" lon="6.77901">
        <ele>1772</ele>
        <time>2023-09-30T10:07:35.000Z</time>
      </trkpt>
      <trkpt lat="46.01439" lon="6.77902">
        <ele>1772</ele>
        <time>2023-09-30T10:07:36.000Z</time>
      </trkpt>
      <trkpt lat="46.0144" lon="6.77902">
        <ele>1772.1999511719</ele>
        <time>2023-09-30T10:07:37.000Z</time>
      </trkpt>
      <trkpt lat="46.01441" lon="6.77903">
        <ele>1772.1999511719</ele>
        <time>2023-09-30T10:07:38.000Z</time>
      </trkpt>
      <trkpt lat="46.01442" lon="6.77903">
        <ele>1772.4000244141</ele>
        <time>2023-09-30T10:07:39.000Z</time>
      </trkpt>
      <trkpt lat="46.01443" lon="6.77903">
        <ele>1772.5999755859</ele>
        <time>2023-09-30T10:07:40.000Z</time>
      </trkpt>
      <trkpt lat="46.01444" lon="6.77904">
        <ele>1772.5999755859</ele>
        <time>2023-09-30T10:07:41.000Z</time>
      </trkpt>
      <trkpt lat="46.01444" lon="6.77904">
        <ele>1772.8000488281</ele>
        <time>2023-09-30T10:07:42.000Z</time>
      </trkpt>
      <trkpt lat="46.01445" lon="6.77905">
        <ele>1773</ele>
        <time>2023-09-30T10:07:43.000Z</time>
      </trkpt>
      <trkpt lat="46.01446" lon="6.77905">
        <ele>1773.5999755859</ele>
        <time>2023-09-30T10:07:44.000Z</time>
      </trkpt>
      <trkpt lat="46.01446" lon="6.77905">
        <ele>1773.8000488281</ele>
        <time>2023-09-30T10:07:45.000Z</time>
      </trkpt>
      <trkpt lat="46.01447" lon="6.77906">
        <ele>1774.1999511719</ele>
        <time>2023-09-30T10:07:46.000Z</time>
      </trkpt>
      <trkpt lat="46.01447" lon="6.77906">
        <ele>1774.4000244141</ele>
        <time>2023-09-30T10:07:47.000Z</time>
      </trkpt>
      <trkpt lat="46.01448" lon="6.77905">
        <ele>1774.5999755859</ele>
        <time>2023-09-30T10:07:48.000Z</time>
      </trkpt>
      <trkpt lat="46.01449" lon="6.77905">
        <ele>1774.8000488281</ele>
        <time>2023-09-30T10:07:49.000Z</time>
      </trkpt>
      <trkpt lat="46.0145" lon="6.77905">
        <ele>1775</ele>
        <time>2023-09-30T10:07:50.000Z</time>
      </trkpt>
      <trkpt lat="46.0145" lon="6.77905">
        <ele>1775.1999511719</ele>
        <time>2023-09-30T10:07:51.000Z</time>
      </trkpt>
      <trkpt lat="46.01451" lon="6.77905">
        <ele>1775.1999511719</ele>
        <time>2023-09-30T10:07:52.000Z</time>
      </trkpt>
      <trkpt lat="46.01452" lon="6.77905">
        <ele>1775.4000244141</ele>
        <time>2023-09-30T10:07:53.000Z</time>
      </trkpt>
      <trkpt lat="46.01452" lon="6.77905">
        <ele>1775.5999755859</ele>
        <time>2023-09-30T10:07:54.000Z</time>
      </trkpt>
      <trkpt lat="46.01453" lon="6.77905">
        <ele>1775.8000488281</ele>
        <time>2023-09-30T10:07:55.000Z</time>
      </trkpt>
      <trkpt lat="46.01454" lon="6.77904">
        <ele>1776</ele>
        <time>2023-09-30T10:07:56.000Z</time>
      </trkpt>
      <trkpt lat="46.01455" lon="6.77905">
        <ele>1776.1999511719</ele>
        <time>2023-09-30T10:07:57.000Z</time>
      </trkpt>
      <trkpt lat="46.01455" lon="6.77905">
        <ele>1776.4000244141</ele>
        <time>2023-09-30T10:07:58.000Z</time>
      </trkpt>
      <trkpt lat="46.01456" lon="6.77906">
        <ele>1776.5999755859</ele>
        <time>2023-09-30T10:07:59.000Z</time>
      </trkpt>
      <trkpt lat="46.01457" lon="6.77906">
        <ele>1777</ele>
        <time>2023-09-30T10:08:00.000Z</time>
      </trkpt>
      <trkpt lat="46.01458" lon="6.77907">
        <ele>1777.1999511719</ele>
        <time>2023-09-30T10:08:01.000Z</time>
      </trkpt>
      <trkpt lat="46.01459" lon="6.77907">
        <ele>1777.4000244141</ele>
        <time>2023-09-30T10:08:02.000Z</time>
      </trkpt>
      <trkpt lat="46.01459" lon="6.77907">
        <ele>1777.8000488281</ele>
        <time>2023-09-30T10:08:03.000Z</time>
      </trkpt>
      <trkpt lat="46.0146" lon="6.77907">
        <ele>1777.8000488281</ele>
        <time>2023-09-30T10:08:04.000Z</time>
      </trkpt>
      <trkpt lat="46.01461" lon="6.77907">
        <ele>1778.1999511719</ele>
        <time>2023-09-30T10:08:05.000Z</time>
      </trkpt>
      <trkpt lat="46.01461" lon="6.77906">
        <ele>1778.4000244141</ele>
        <time>2023-09-30T10:08:06.000Z</time>
      </trkpt>
      <trkpt lat="46.01462" lon="6.77906">
        <ele>1778.5999755859</ele>
        <time>2023-09-30T10:08:07.000Z</time>
      </trkpt>
      <trkpt lat="46.01463" lon="6.77906">
        <ele>1778.8000488281</ele>
        <time>2023-09-30T10:08:08.000Z</time>
      </trkpt>
      <trkpt lat="46.01463" lon="6.77906">
        <ele>1779</ele>
        <time>2023-09-30T10:08:09.000Z</time>
      </trkpt>
      <trkpt lat="46.01464" lon="6.77906">
        <ele>1779</ele>
        <time>2023-09-30T10:08:10.000Z</time>
      </trkpt>
      <trkpt lat="46.01465" lon="6.77906">
        <ele>1779.4000244141</ele>
        <time>2023-09-30T10:08:11.000Z</time>
      </trkpt>
      <trkpt lat="46.01466" lon="6.77906">
        <ele>1779.5999755859</ele>
        <time>2023-09-30T10:08:12.000Z</time>
      </trkpt>
      <trkpt lat="46.01467" lon="6.77906">
        <ele>1779.8000488281</ele>
        <time>2023-09-30T10:08:13.000Z</time>
      </trkpt>
      <trkpt lat="46.01467" lon="6.77905">
        <ele>1780</ele>
        <time>2023-09-30T10:08:14.000Z</time>
      </trkpt>
      <trkpt lat="46.01468" lon="6.77905">
        <ele>1780</ele>
        <time>2023-09-30T10:08:15.000Z</time>
      </trkpt>
      <trkpt lat="46.01468" lon="6.77905">
        <ele>1780.1999511719</ele>
        <time>2023-09-30T10:08:16.000Z</time>
      </trkpt>
      <trkpt lat="46.01468" lon="6.77905">
        <ele>1780.1999511719</ele>
        <time>2023-09-30T10:08:17.000Z</time>
      </trkpt>
      <trkpt lat="46.01469" lon="6.77905">
        <ele>1780.8000488281</ele>
        <time>2023-09-30T10:08:18.000Z</time>
      </trkpt>
      <trkpt lat="46.0147" lon="6.77905">
        <ele>1781.1999511719</ele>
        <time>2023-09-30T10:08:19.000Z</time>
      </trkpt>
      <trkpt lat="46.0147" lon="6.77905">
        <ele>1781.4000244141</ele>
        <time>2023-09-30T10:08:20.000Z</time>
      </trkpt>
      <trkpt lat="46.01471" lon="6.77905">
        <ele>1781.8000488281</ele>
        <time>2023-09-30T10:08:21.000Z</time>
      </trkpt>
      <trkpt lat="46.01472" lon="6.77905">
        <ele>1782</ele>
        <time>2023-09-30T10:08:22.000Z</time>
      </trkpt>
      <trkpt lat="46.01472" lon="6.77905">
        <ele>1782.4000244141</ele>
        <time>2023-09-30T10:08:23.000Z</time>
      </trkpt>
      <trkpt lat="46.01473" lon="6.77904">
        <ele>1782.5999755859</ele>
        <time>2023-09-30T10:08:24.000Z</time>
      </trkpt>
      <trkpt lat="46.01473" lon="6.77903">
        <ele>1782.8000488281</ele>
        <time>2023-09-30T10:08:25.000Z</time>
      </trkpt>
      <trkpt lat="46.01474" lon="6.77902">
        <ele>1783</ele>
        <time>2023-09-30T10:08:26.000Z</time>
      </trkpt>
      <trkpt lat="46.01474" lon="6.77902">
        <ele>1783.1999511719</ele>
        <time>2023-09-30T10:08:27.000Z</time>
      </trkpt>
      <trkpt lat="46.01474" lon="6.77902">
        <ele>1783.4000244141</ele>
        <time>2023-09-30T10:08:28.000Z</time>
      </trkpt>
      <trkpt lat="46.01474" lon="6.77902">
        <ele>1784.1999511719</ele>
        <time>2023-09-30T10:08:34.000Z</time>
      </trkpt>
      <trkpt lat="46.01474" lon="6.77902">
        <ele>1784.4000244141</ele>
        <time>2023-09-30T10:08:39.000Z</time>
      </trkpt>
      <trkpt lat="46.01474" lon="6.77902">
        <ele>1784.1999511719</ele>
        <time>2023-09-30T10:08:47.000Z</time>
      </trkpt>
      <trkpt lat="46.01474" lon="6.77902">
        <ele>1784.4000244141</ele>
        <time>2023-09-30T10:09:01.000Z</time>
      </trkpt>
      <trkpt lat="46.01475" lon="6.779">
        <ele>1784.4000244141</ele>
        <time>2023-09-30T10:09:02.000Z</time>
      </trkpt>
      <trkpt lat="46.01476" lon="6.77899">
        <ele>1784.4000244141</ele>
        <time>2023-09-30T10:09:04.000Z</time>
      </trkpt>
      <trkpt lat="46.01476" lon="6.77898">
        <ele>1784.5999755859</ele>
        <time>2023-09-30T10:09:22.000Z</time>
      </trkpt>
      <trkpt lat="46.01481" lon="6.77894">
        <ele>1784.4000244141</ele>
        <time>2023-09-30T10:09:35.000Z</time>
      </trkpt>
      <trkpt lat="46.01489" lon="6.77883">
        <ele>1784.1999511719</ele>
        <time>2023-09-30T10:09:40.000Z</time>
      </trkpt>
      <trkpt lat="46.01491" lon="6.77881">
        <ele>1783.8000488281</ele>
        <time>2023-09-30T10:09:41.000Z</time>
      </trkpt>
      <trkpt lat="46.01492" lon="6.77879">
        <ele>1783.5999755859</ele>
        <time>2023-09-30T10:09:42.000Z</time>
      </trkpt>
      <trkpt lat="46.01493" lon="6.77878">
        <ele>1783.1999511719</ele>
        <time>2023-09-30T10:09:43.000Z</time>
      </trkpt>
      <trkpt lat="46.01495" lon="6.77877">
        <ele>1783</ele>
        <time>2023-09-30T10:09:44.000Z</time>
      </trkpt>
      <trkpt lat="46.01497" lon="6.77877">
        <ele>1782.8000488281</ele>
        <time>2023-09-30T10:09:45.000Z</time>
      </trkpt>
      <trkpt lat="46.01498" lon="6.77876">
        <ele>1782.8000488281</ele>
        <time>2023-09-30T10:09:46.000Z</time>
      </trkpt>
      <trkpt lat="46.015" lon="6.77875">
        <ele>1782.8000488281</ele>
        <time>2023-09-30T10:09:47.000Z</time>
      </trkpt>
      <trkpt lat="46.01501" lon="6.77874">
        <ele>1782.8000488281</ele>
        <time>2023-09-30T10:09:48.000Z</time>
      </trkpt>
      <trkpt lat="46.01503" lon="6.77873">
        <ele>1782.8000488281</ele>
        <time>2023-09-30T10:09:49.000Z</time>
      </trkpt>
      <trkpt lat="46.01505" lon="6.77873">
        <ele>1782.8000488281</ele>
        <time>2023-09-30T10:09:50.000Z</time>
      </trkpt>
      <trkpt lat="46.01506" lon="6.77872">
        <ele>1782.8000488281</ele>
        <time>2023-09-30T10:09:51.000Z</time>
      </trkpt>
      <trkpt lat="46.01508" lon="6.77872">
        <ele>1783</ele>
        <time>2023-09-30T10:09:52.000Z</time>
      </trkpt>
      <trkpt lat="46.01511" lon="6.77872">
        <ele>1783.1999511719</ele>
        <time>2023-09-30T10:09:54.000Z</time>
      </trkpt>
      <trkpt lat="46.01519" lon="6.77871">
        <ele>1784</ele>
        <time>2023-09-30T10:09:59.000Z</time>
      </trkpt>
      <trkpt lat="46.01524" lon="6.77867">
        <ele>1784.4000244141</ele>
        <time>2023-09-30T10:10:02.000Z</time>
      </trkpt>
      <trkpt lat="46.01525" lon="6.77864">
        <ele>1784.5999755859</ele>
        <time>2023-09-30T10:10:03.000Z</time>
      </trkpt>
      <trkpt lat="46.01526" lon="6.77861">
        <ele>1784.5999755859</ele>
        <time>2023-09-30T10:10:04.000Z</time>
      </trkpt>
      <trkpt lat="46.01527" lon="6.77856">
        <ele>1784.5999755859</ele>
        <time>2023-09-30T10:10:05.000Z</time>
      </trkpt>
      <trkpt lat="46.01529" lon="6.77853">
        <ele>1784.5999755859</ele>
        <time>2023-09-30T10:10:06.000Z</time>
      </trkpt>
      <trkpt lat="46.01531" lon="6.77851">
        <ele>1784.5999755859</ele>
        <time>2023-09-30T10:10:07.000Z</time>
      </trkpt>
      <trkpt lat="46.01533" lon="6.77849">
        <ele>1784.5999755859</ele>
        <time>2023-09-30T10:10:08.000Z</time>
      </trkpt>
      <trkpt lat="46.01535" lon="6.77849">
        <ele>1784.5999755859</ele>
        <time>2023-09-30T10:10:09.000Z</time>
      </trkpt>
      <trkpt lat="46.01537" lon="6.77848">
        <ele>1784.5999755859</ele>
        <time>2023-09-30T10:10:10.000Z</time>
      </trkpt>
      <trkpt lat="46.01538" lon="6.77848">
        <ele>1784.4000244141</ele>
        <time>2023-09-30T10:10:11.000Z</time>
      </trkpt>
      <trkpt lat="46.01552" lon="6.77849">
        <ele>1783.8000488281</ele>
        <time>2023-09-30T10:10:16.000Z</time>
      </trkpt>
      <trkpt lat="46.01554" lon="6.77849">
        <ele>1783.5999755859</ele>
        <time>2023-09-30T10:10:17.000Z</time>
      </trkpt>
      <trkpt lat="46.01555" lon="6.77849">
        <ele>1783.5999755859</ele>
        <time>2023-09-30T10:10:18.000Z</time>
      </trkpt>
      <trkpt lat="46.01556" lon="6.77849">
        <ele>1783.1999511719</ele>
        <time>2023-09-30T10:10:19.000Z</time>
      </trkpt>
      <trkpt lat="46.01556" lon="6.77849">
        <ele>1783</ele>
        <time>2023-09-30T10:10:20.000Z</time>
      </trkpt>
      <trkpt lat="46.01556" lon="6.77849">
        <ele>1782.4000244141</ele>
        <time>2023-09-30T10:10:21.000Z</time>
      </trkpt>
      <trkpt lat="46.01556" lon="6.77849">
        <ele>1781.4000244141</ele>
        <time>2023-09-30T10:10:30.000Z</time>
      </trkpt>
      <trkpt lat="46.01556" lon="6.77849">
        <ele>1781</ele>
        <time>2023-09-30T10:10:46.000Z</time>
      </trkpt>
      <trkpt lat="46.0156" lon="6.77848">
        <ele>1781.1999511719</ele>
        <time>2023-09-30T10:10:48.000Z</time>
      </trkpt>
      <trkpt lat="46.01569" lon="6.77848">
        <ele>1781.4000244141</ele>
        <time>2023-09-30T10:10:52.000Z</time>
      </trkpt>
      <trkpt lat="46.01572" lon="6.77848">
        <ele>1781.4000244141</ele>
        <time>2023-09-30T10:10:53.000Z</time>
      </trkpt>
      <trkpt lat="46.01578" lon="6.77847">
        <ele>1781.5999755859</ele>
        <time>2023-09-30T10:10:56.000Z</time>
      </trkpt>
      <trkpt lat="46.01584" lon="6.77849">
        <ele>1781.5999755859</ele>
        <time>2023-09-30T10:10:59.000Z</time>
      </trkpt>
      <trkpt lat="46.01586" lon="6.77849">
        <ele>1781.1999511719</ele>
        <time>2023-09-30T10:11:00.000Z</time>
      </trkpt>
      <trkpt lat="46.01587" lon="6.7785">
        <ele>1781.1999511719</ele>
        <time>2023-09-30T10:11:01.000Z</time>
      </trkpt>
      <trkpt lat="46.01591" lon="6.77851">
        <ele>1781.1999511719</ele>
        <time>2023-09-30T10:11:03.000Z</time>
      </trkpt>
      <trkpt lat="46.01595" lon="6.77852">
        <ele>1781.1999511719</ele>
        <time>2023-09-30T10:11:05.000Z</time>
      </trkpt>
      <trkpt lat="46.01602" lon="6.77853">
        <ele>1781.1999511719</ele>
        <time>2023-09-30T10:11:08.000Z</time>
      </trkpt>
      <trkpt lat="46.01604" lon="6.77854">
        <ele>1781.1999511719</ele>
        <time>2023-09-30T10:11:09.000Z</time>
      </trkpt>
      <trkpt lat="46.01607" lon="6.77855">
        <ele>1781.1999511719</ele>
        <time>2023-09-30T10:11:10.000Z</time>
      </trkpt>
      <trkpt lat="46.01617" lon="6.77854">
        <ele>1781</ele>
        <time>2023-09-30T10:11:13.000Z</time>
      </trkpt>
      <trkpt lat="46.0162" lon="6.77853">
        <ele>1781</ele>
        <time>2023-09-30T10:11:14.000Z</time>
      </trkpt>
      <trkpt lat="46.01626" lon="6.7785">
        <ele>1781</ele>
        <time>2023-09-30T10:11:16.000Z</time>
      </trkpt>
      <trkpt lat="46.01629" lon="6.77848">
        <ele>1781</ele>
        <time>2023-09-30T10:11:17.000Z</time>
      </trkpt>
      <trkpt lat="46.01631" lon="6.77847">
        <ele>1781</ele>
        <time>2023-09-30T10:11:18.000Z</time>
      </trkpt>
      <trkpt lat="46.01633" lon="6.77846">
        <ele>1781</ele>
        <time>2023-09-30T10:11:19.000Z</time>
      </trkpt>
      <trkpt lat="46.01635" lon="6.77845">
        <ele>1781</ele>
        <time>2023-09-30T10:11:20.000Z</time>
      </trkpt>
      <trkpt lat="46.01637" lon="6.77844">
        <ele>1781</ele>
        <time>2023-09-30T10:11:21.000Z</time>
      </trkpt>
      <trkpt lat="46.01638" lon="6.77842">
        <ele>1780.8000488281</ele>
        <time>2023-09-30T10:11:22.000Z</time>
      </trkpt>
      <trkpt lat="46.01639" lon="6.77841">
        <ele>1780.8000488281</ele>
        <time>2023-09-30T10:11:23.000Z</time>
      </trkpt>
      <trkpt lat="46.01648" lon="6.77831">
        <ele>1780.8000488281</ele>
        <time>2023-09-30T10:11:28.000Z</time>
      </trkpt>
      <trkpt lat="46.01649" lon="6.7783">
        <ele>1780.5999755859</ele>
        <time>2023-09-30T10:11:29.000Z</time>
      </trkpt>
      <trkpt lat="46.01649" lon="6.77828">
        <ele>1780.4000244141</ele>
        <time>2023-09-30T10:11:30.000Z</time>
      </trkpt>
      <trkpt lat="46.0165" lon="6.77825">
        <ele>1780.4000244141</ele>
        <time>2023-09-30T10:11:31.000Z</time>
      </trkpt>
      <trkpt lat="46.0165" lon="6.77823">
        <ele>1780.1999511719</ele>
        <time>2023-09-30T10:11:32.000Z</time>
      </trkpt>
      <trkpt lat="46.01649" lon="6.7782">
        <ele>1780.1999511719</ele>
        <time>2023-09-30T10:11:33.000Z</time>
      </trkpt>
      <trkpt lat="46.01649" lon="6.77817">
        <ele>1780</ele>
        <time>2023-09-30T10:11:34.000Z</time>
      </trkpt>
      <trkpt lat="46.01649" lon="6.77815">
        <ele>1779.8000488281</ele>
        <time>2023-09-30T10:11:35.000Z</time>
      </trkpt>
      <trkpt lat="46.0165" lon="6.77813">
        <ele>1779.5999755859</ele>
        <time>2023-09-30T10:11:36.000Z</time>
      </trkpt>
      <trkpt lat="46.01651" lon="6.77812">
        <ele>1779</ele>
        <time>2023-09-30T10:11:37.000Z</time>
      </trkpt>
      <trkpt lat="46.01652" lon="6.7781">
        <ele>1778.8000488281</ele>
        <time>2023-09-30T10:11:38.000Z</time>
      </trkpt>
      <trkpt lat="46.01656" lon="6.77804">
        <ele>1778</ele>
        <time>2023-09-30T10:11:40.000Z</time>
      </trkpt>
      <trkpt lat="46.01657" lon="6.77802">
        <ele>1777.8000488281</ele>
        <time>2023-09-30T10:11:41.000Z</time>
      </trkpt>
      <trkpt lat="46.01658" lon="6.778">
        <ele>1777.5999755859</ele>
        <time>2023-09-30T10:11:42.000Z</time>
      </trkpt>
      <trkpt lat="46.0166" lon="6.77796">
        <ele>1776.8000488281</ele>
        <time>2023-09-30T10:11:43.000Z</time>
      </trkpt>
      <trkpt lat="46.01663" lon="6.77793">
        <ele>1775.5999755859</ele>
        <time>2023-09-30T10:11:45.000Z</time>
      </trkpt>
      <trkpt lat="46.01664" lon="6.77792">
        <ele>1774.4000244141</ele>
        <time>2023-09-30T10:11:46.000Z</time>
      </trkpt>
      <trkpt lat="46.01664" lon="6.77792">
        <ele>1773.1999511719</ele>
        <time>2023-09-30T10:11:48.000Z</time>
      </trkpt>
      <trkpt lat="46.01664" lon="6.77792">
        <ele>1773</ele>
        <time>2023-09-30T10:11:49.000Z</time>
      </trkpt>
      <trkpt lat="46.01665" lon="6.77792">
        <ele>1772.4000244141</ele>
        <time>2023-09-30T10:11:50.000Z</time>
      </trkpt>
      <trkpt lat="46.01667" lon="6.77791">
        <ele>1772.1999511719</ele>
        <time>2023-09-30T10:11:52.000Z</time>
      </trkpt>
      <trkpt lat="46.01667" lon="6.7779">
        <ele>1771.8000488281</ele>
        <time>2023-09-30T10:11:53.000Z</time>
      </trkpt>
      <trkpt lat="46.01667" lon="6.7779">
        <ele>1771</ele>
        <time>2023-09-30T10:11:56.000Z</time>
      </trkpt>
      <trkpt lat="46.01666" lon="6.77787">
        <ele>1770.5999755859</ele>
        <time>2023-09-30T10:11:58.000Z</time>
      </trkpt>
      <trkpt lat="46.01666" lon="6.77785">
        <ele>1770.1999511719</ele>
        <time>2023-09-30T10:11:59.000Z</time>
      </trkpt>
      <trkpt lat="46.01667" lon="6.7778">
        <ele>1769.8000488281</ele>
        <time>2023-09-30T10:12:01.000Z</time>
      </trkpt>
      <trkpt lat="46.01668" lon="6.77777">
        <ele>1769.4000244141</ele>
        <time>2023-09-30T10:12:02.000Z</time>
      </trkpt>
      <trkpt lat="46.01669" lon="6.77774">
        <ele>1769.1999511719</ele>
        <time>2023-09-30T10:12:03.000Z</time>
      </trkpt>
      <trkpt lat="46.01669" lon="6.77772">
        <ele>1768.5999755859</ele>
        <time>2023-09-30T10:12:04.000Z</time>
      </trkpt>
      <trkpt lat="46.01669" lon="6.77771">
        <ele>1768</ele>
        <time>2023-09-30T10:12:05.000Z</time>
      </trkpt>
      <trkpt lat="46.0167" lon="6.77769">
        <ele>1767.1999511719</ele>
        <time>2023-09-30T10:12:06.000Z</time>
      </trkpt>
      <trkpt lat="46.0167" lon="6.77767">
        <ele>1767</ele>
        <time>2023-09-30T10:12:07.000Z</time>
      </trkpt>
      <trkpt lat="46.01672" lon="6.77764">
        <ele>1766.1999511719</ele>
        <time>2023-09-30T10:12:08.000Z</time>
      </trkpt>
      <trkpt lat="46.01672" lon="6.77762">
        <ele>1766</ele>
        <time>2023-09-30T10:12:09.000Z</time>
      </trkpt>
      <trkpt lat="46.01673" lon="6.7776">
        <ele>1765.4000244141</ele>
        <time>2023-09-30T10:12:10.000Z</time>
      </trkpt>
      <trkpt lat="46.01673" lon="6.77757">
        <ele>1764.8000488281</ele>
        <time>2023-09-30T10:12:11.000Z</time>
      </trkpt>
      <trkpt lat="46.01676" lon="6.77746">
        <ele>1763.5999755859</ele>
        <time>2023-09-30T10:12:14.000Z</time>
      </trkpt>
      <trkpt lat="46.01677" lon="6.77742">
        <ele>1763</ele>
        <time>2023-09-30T10:12:15.000Z</time>
      </trkpt>
      <trkpt lat="46.01677" lon="6.77733">
        <ele>1762.1999511719</ele>
        <time>2023-09-30T10:12:17.000Z</time>
      </trkpt>
      <trkpt lat="46.01677" lon="6.77721">
        <ele>1761.4000244141</ele>
        <time>2023-09-30T10:12:19.000Z</time>
      </trkpt>
      <trkpt lat="46.01678" lon="6.77715">
        <ele>1760.8000488281</ele>
        <time>2023-09-30T10:12:20.000Z</time>
      </trkpt>
      <trkpt lat="46.01678" lon="6.77709">
        <ele>1760.5999755859</ele>
        <time>2023-09-30T10:12:21.000Z</time>
      </trkpt>
      <trkpt lat="46.01678" lon="6.77706">
        <ele>1760</ele>
        <time>2023-09-30T10:12:22.000Z</time>
      </trkpt>
      <trkpt lat="46.01679" lon="6.77702">
        <ele>1759.5999755859</ele>
        <time>2023-09-30T10:12:23.000Z</time>
      </trkpt>
      <trkpt lat="46.01679" lon="6.77698">
        <ele>1759.4000244141</ele>
        <time>2023-09-30T10:12:24.000Z</time>
      </trkpt>
      <trkpt lat="46.01681" lon="6.77684">
        <ele>1758.4000244141</ele>
        <time>2023-09-30T10:12:27.000Z</time>
      </trkpt>
      <trkpt lat="46.01681" lon="6.77679">
        <ele>1758.1999511719</ele>
        <time>2023-09-30T10:12:28.000Z</time>
      </trkpt>
      <trkpt lat="46.01682" lon="6.77675">
        <ele>1757.1999511719</ele>
        <time>2023-09-30T10:12:29.000Z</time>
      </trkpt>
      <trkpt lat="46.01683" lon="6.77672">
        <ele>1756.8000488281</ele>
        <time>2023-09-30T10:12:30.000Z</time>
      </trkpt>
      <trkpt lat="46.01683" lon="6.77669">
        <ele>1756.5999755859</ele>
        <time>2023-09-30T10:12:31.000Z</time>
      </trkpt>
      <trkpt lat="46.01684" lon="6.77667">
        <ele>1756.5999755859</ele>
        <time>2023-09-30T10:12:32.000Z</time>
      </trkpt>
      <trkpt lat="46.01684" lon="6.77664">
        <ele>1756.4000244141</ele>
        <time>2023-09-30T10:12:33.000Z</time>
      </trkpt>
      <trkpt lat="46.01685" lon="6.77659">
        <ele>1756.4000244141</ele>
        <time>2023-09-30T10:12:34.000Z</time>
      </trkpt>
      <trkpt lat="46.01688" lon="6.77649">
        <ele>1756.1999511719</ele>
        <time>2023-09-30T10:12:36.000Z</time>
      </trkpt>
      <trkpt lat="46.01691" lon="6.77638">
        <ele>1756.1999511719</ele>
        <time>2023-09-30T10:12:39.000Z</time>
      </trkpt>
      <trkpt lat="46.01693" lon="6.77632">
        <ele>1756.1999511719</ele>
        <time>2023-09-30T10:12:41.000Z</time>
      </trkpt>
      <trkpt lat="46.01693" lon="6.7763">
        <ele>1756.1999511719</ele>
        <time>2023-09-30T10:12:42.000Z</time>
      </trkpt>
      <trkpt lat="46.01693" lon="6.77628">
        <ele>1756</ele>
        <time>2023-09-30T10:12:43.000Z</time>
      </trkpt>
      <trkpt lat="46.01693" lon="6.77624">
        <ele>1756</ele>
        <time>2023-09-30T10:12:44.000Z</time>
      </trkpt>
      <trkpt lat="46.01693" lon="6.77621">
        <ele>1756</ele>
        <time>2023-09-30T10:12:45.000Z</time>
      </trkpt>
      <trkpt lat="46.01693" lon="6.77613">
        <ele>1756</ele>
        <time>2023-09-30T10:12:47.000Z</time>
      </trkpt>
      <trkpt lat="46.01688" lon="6.77592">
        <ele>1755.5999755859</ele>
        <time>2023-09-30T10:12:52.000Z</time>
      </trkpt>
      <trkpt lat="46.01684" lon="6.77581">
        <ele>1754.8000488281</ele>
        <time>2023-09-30T10:12:54.000Z</time>
      </trkpt>
      <trkpt lat="46.0168" lon="6.77572">
        <ele>1754.1999511719</ele>
        <time>2023-09-30T10:12:56.000Z</time>
      </trkpt>
      <trkpt lat="46.01678" lon="6.77567">
        <ele>1754</ele>
        <time>2023-09-30T10:12:57.000Z</time>
      </trkpt>
      <trkpt lat="46.01677" lon="6.77563">
        <ele>1753.5999755859</ele>
        <time>2023-09-30T10:12:58.000Z</time>
      </trkpt>
      <trkpt lat="46.01677" lon="6.77559">
        <ele>1753.4000244141</ele>
        <time>2023-09-30T10:12:59.000Z</time>
      </trkpt>
      <trkpt lat="46.01676" lon="6.77555">
        <ele>1753.1999511719</ele>
        <time>2023-09-30T10:13:00.000Z</time>
      </trkpt>
      <trkpt lat="46.01675" lon="6.77553">
        <ele>1752.5999755859</ele>
        <time>2023-09-30T10:13:01.000Z</time>
      </trkpt>
      <trkpt lat="46.01674" lon="6.7755">
        <ele>1752</ele>
        <time>2023-09-30T10:13:02.000Z</time>
      </trkpt>
      <trkpt lat="46.01673" lon="6.77547">
        <ele>1751.4000244141</ele>
        <time>2023-09-30T10:13:03.000Z</time>
      </trkpt>
      <trkpt lat="46.01673" lon="6.77544">
        <ele>1751.1999511719</ele>
        <time>2023-09-30T10:13:04.000Z</time>
      </trkpt>
      <trkpt lat="46.01673" lon="6.7754">
        <ele>1750.8000488281</ele>
        <time>2023-09-30T10:13:05.000Z</time>
      </trkpt>
      <trkpt lat="46.01673" lon="6.77534">
        <ele>1750</ele>
        <time>2023-09-30T10:13:07.000Z</time>
      </trkpt>
      <trkpt lat="46.01674" lon="6.77531">
        <ele>1749.4000244141</ele>
        <time>2023-09-30T10:13:08.000Z</time>
      </trkpt>
      <trkpt lat="46.01674" lon="6.77528">
        <ele>1749</ele>
        <time>2023-09-30T10:13:09.000Z</time>
      </trkpt>
      <trkpt lat="46.01673" lon="6.77526">
        <ele>1748.1999511719</ele>
        <time>2023-09-30T10:13:10.000Z</time>
      </trkpt>
      <trkpt lat="46.0167" lon="6.77519">
        <ele>1747.4000244141</ele>
        <time>2023-09-30T10:13:12.000Z</time>
      </trkpt>
      <trkpt lat="46.01669" lon="6.77515">
        <ele>1747</ele>
        <time>2023-09-30T10:13:13.000Z</time>
      </trkpt>
      <trkpt lat="46.01668" lon="6.77511">
        <ele>1746.4000244141</ele>
        <time>2023-09-30T10:13:14.000Z</time>
      </trkpt>
      <trkpt lat="46.01668" lon="6.77509">
        <ele>1745.8000488281</ele>
        <time>2023-09-30T10:13:15.000Z</time>
      </trkpt>
      <trkpt lat="46.01668" lon="6.77506">
        <ele>1745.1999511719</ele>
        <time>2023-09-30T10:13:16.000Z</time>
      </trkpt>
      <trkpt lat="46.01668" lon="6.77504">
        <ele>1744.5999755859</ele>
        <time>2023-09-30T10:13:17.000Z</time>
      </trkpt>
      <trkpt lat="46.01668" lon="6.77502">
        <ele>1744.1999511719</ele>
        <time>2023-09-30T10:13:18.000Z</time>
      </trkpt>
      <trkpt lat="46.01668" lon="6.77501">
        <ele>1743.8000488281</ele>
        <time>2023-09-30T10:13:21.000Z</time>
      </trkpt>
      <trkpt lat="46.01668" lon="6.77501">
        <ele>1743.4000244141</ele>
        <time>2023-09-30T10:13:23.000Z</time>
      </trkpt>
      <trkpt lat="46.01666" lon="6.77492">
        <ele>1742.5999755859</ele>
        <time>2023-09-30T10:13:33.000Z</time>
      </trkpt>
      <trkpt lat="46.0166" lon="6.77481">
        <ele>1742.1999511719</ele>
        <time>2023-09-30T10:13:37.000Z</time>
      </trkpt>
      <trkpt lat="46.01658" lon="6.77477">
        <ele>1742</ele>
        <time>2023-09-30T10:13:38.000Z</time>
      </trkpt>
      <trkpt lat="46.01658" lon="6.77469">
        <ele>1741.5999755859</ele>
        <time>2023-09-30T10:13:40.000Z</time>
      </trkpt>
      <trkpt lat="46.01658" lon="6.77467">
        <ele>1741.1999511719</ele>
        <time>2023-09-30T10:13:41.000Z</time>
      </trkpt>
      <trkpt lat="46.01657" lon="6.77464">
        <ele>1740.5999755859</ele>
        <time>2023-09-30T10:13:42.000Z</time>
      </trkpt>
      <trkpt lat="46.01658" lon="6.77461">
        <ele>1740.4000244141</ele>
        <time>2023-09-30T10:13:43.000Z</time>
      </trkpt>
      <trkpt lat="46.01658" lon="6.7745">
        <ele>1739.5999755859</ele>
        <time>2023-09-30T10:13:46.000Z</time>
      </trkpt>
      <trkpt lat="46.01658" lon="6.77446">
        <ele>1739.5999755859</ele>
        <time>2023-09-30T10:13:47.000Z</time>
      </trkpt>
      <trkpt lat="46.01658" lon="6.77443">
        <ele>1739.1999511719</ele>
        <time>2023-09-30T10:13:48.000Z</time>
      </trkpt>
      <trkpt lat="46.01658" lon="6.7744">
        <ele>1738.8000488281</ele>
        <time>2023-09-30T10:13:49.000Z</time>
      </trkpt>
      <trkpt lat="46.01659" lon="6.77438">
        <ele>1738.5999755859</ele>
        <time>2023-09-30T10:13:50.000Z</time>
      </trkpt>
      <trkpt lat="46.01659" lon="6.77435">
        <ele>1738</ele>
        <time>2023-09-30T10:13:51.000Z</time>
      </trkpt>
      <trkpt lat="46.01658" lon="6.77432">
        <ele>1738</ele>
        <time>2023-09-30T10:13:52.000Z</time>
      </trkpt>
      <trkpt lat="46.01658" lon="6.7743">
        <ele>1737.4000244141</ele>
        <time>2023-09-30T10:13:53.000Z</time>
      </trkpt>
      <trkpt lat="46.01658" lon="6.77428">
        <ele>1737</ele>
        <time>2023-09-30T10:13:54.000Z</time>
      </trkpt>
      <trkpt lat="46.01658" lon="6.77426">
        <ele>1736.4000244141</ele>
        <time>2023-09-30T10:13:55.000Z</time>
      </trkpt>
      <trkpt lat="46.01657" lon="6.77425">
        <ele>1736</ele>
        <time>2023-09-30T10:13:56.000Z</time>
      </trkpt>
      <trkpt lat="46.01657" lon="6.77425">
        <ele>1735.8000488281</ele>
        <time>2023-09-30T10:13:57.000Z</time>
      </trkpt>
      <trkpt lat="46.01656" lon="6.77423">
        <ele>1735.1999511719</ele>
        <time>2023-09-30T10:13:58.000Z</time>
      </trkpt>
      <trkpt lat="46.01655" lon="6.77423">
        <ele>1735.1999511719</ele>
        <time>2023-09-30T10:13:59.000Z</time>
      </trkpt>
      <trkpt lat="46.01653" lon="6.77421">
        <ele>1734.8000488281</ele>
        <time>2023-09-30T10:14:01.000Z</time>
      </trkpt>
      <trkpt lat="46.01653" lon="6.7742">
        <ele>1734.8000488281</ele>
        <time>2023-09-30T10:14:02.000Z</time>
      </trkpt>
      <trkpt lat="46.01651" lon="6.77416">
        <ele>1734.4000244141</ele>
        <time>2023-09-30T10:14:04.000Z</time>
      </trkpt>
      <trkpt lat="46.01649" lon="6.77415">
        <ele>1733.8000488281</ele>
        <time>2023-09-30T10:14:05.000Z</time>
      </trkpt>
      <trkpt lat="46.01648" lon="6.77413">
        <ele>1733.5999755859</ele>
        <time>2023-09-30T10:14:06.000Z</time>
      </trkpt>
      <trkpt lat="46.01647" lon="6.77412">
        <ele>1733.1999511719</ele>
        <time>2023-09-30T10:14:07.000Z</time>
      </trkpt>
      <trkpt lat="46.01646" lon="6.7741">
        <ele>1733</ele>
        <time>2023-09-30T10:14:08.000Z</time>
      </trkpt>
      <trkpt lat="46.01646" lon="6.77408">
        <ele>1732.4000244141</ele>
        <time>2023-09-30T10:14:09.000Z</time>
      </trkpt>
      <trkpt lat="46.01645" lon="6.77407">
        <ele>1732.1999511719</ele>
        <time>2023-09-30T10:14:10.000Z</time>
      </trkpt>
      <trkpt lat="46.01645" lon="6.77406">
        <ele>1731.5999755859</ele>
        <time>2023-09-30T10:14:13.000Z</time>
      </trkpt>
      <trkpt lat="46.01645" lon="6.77406">
        <ele>1731.1999511719</ele>
        <time>2023-09-30T10:14:14.000Z</time>
      </trkpt>
      <trkpt lat="46.01645" lon="6.77406">
        <ele>1730.1999511719</ele>
        <time>2023-09-30T10:14:21.000Z</time>
      </trkpt>
      <trkpt lat="46.01645" lon="6.77406">
        <ele>1729.8000488281</ele>
        <time>2023-09-30T10:14:27.000Z</time>
      </trkpt>
      <trkpt lat="46.01644" lon="6.77404">
        <ele>1729.8000488281</ele>
        <time>2023-09-30T10:14:28.000Z</time>
      </trkpt>
      <trkpt lat="46.0164" lon="6.77401">
        <ele>1729.5999755859</ele>
        <time>2023-09-30T10:14:30.000Z</time>
      </trkpt>
      <trkpt lat="46.01639" lon="6.77398">
        <ele>1729.4000244141</ele>
        <time>2023-09-30T10:14:31.000Z</time>
      </trkpt>
      <trkpt lat="46.01637" lon="6.77389">
        <ele>1729.1999511719</ele>
        <time>2023-09-30T10:14:33.000Z</time>
      </trkpt>
      <trkpt lat="46.01637" lon="6.77385">
        <ele>1729</ele>
        <time>2023-09-30T10:14:34.000Z</time>
      </trkpt>
      <trkpt lat="46.01638" lon="6.77381">
        <ele>1729.1999511719</ele>
        <time>2023-09-30T10:14:35.000Z</time>
      </trkpt>
      <trkpt lat="46.01638" lon="6.77378">
        <ele>1728.8000488281</ele>
        <time>2023-09-30T10:14:36.000Z</time>
      </trkpt>
      <trkpt lat="46.01638" lon="6.77375">
        <ele>1727.5999755859</ele>
        <time>2023-09-30T10:14:37.000Z</time>
      </trkpt>
      <trkpt lat="46.01637" lon="6.77367">
        <ele>1726.5999755859</ele>
        <time>2023-09-30T10:14:39.000Z</time>
      </trkpt>
      <trkpt lat="46.01636" lon="6.77361">
        <ele>1726.4000244141</ele>
        <time>2023-09-30T10:14:40.000Z</time>
      </trkpt>
      <trkpt lat="46.01634" lon="6.77348">
        <ele>1725.1999511719</ele>
        <time>2023-09-30T10:14:43.000Z</time>
      </trkpt>
      <trkpt lat="46.01632" lon="6.77345">
        <ele>1725</ele>
        <time>2023-09-30T10:14:44.000Z</time>
      </trkpt>
      <trkpt lat="46.01631" lon="6.77341">
        <ele>1724.5999755859</ele>
        <time>2023-09-30T10:14:45.000Z</time>
      </trkpt>
      <trkpt lat="46.01631" lon="6.77338">
        <ele>1724.1999511719</ele>
        <time>2023-09-30T10:14:46.000Z</time>
      </trkpt>
      <trkpt lat="46.0163" lon="6.77334">
        <ele>1723.8000488281</ele>
        <time>2023-09-30T10:14:47.000Z</time>
      </trkpt>
      <trkpt lat="46.0163" lon="6.7733">
        <ele>1723.1999511719</ele>
        <time>2023-09-30T10:14:48.000Z</time>
      </trkpt>
      <trkpt lat="46.0163" lon="6.77326">
        <ele>1723</ele>
        <time>2023-09-30T10:14:49.000Z</time>
      </trkpt>
      <trkpt lat="46.0163" lon="6.77321">
        <ele>1722.4000244141</ele>
        <time>2023-09-30T10:14:50.000Z</time>
      </trkpt>
      <trkpt lat="46.0163" lon="6.77316">
        <ele>1722</ele>
        <time>2023-09-30T10:14:51.000Z</time>
      </trkpt>
      <trkpt lat="46.01629" lon="6.77311">
        <ele>1721.4000244141</ele>
        <time>2023-09-30T10:14:52.000Z</time>
      </trkpt>
      <trkpt lat="46.01628" lon="6.77308">
        <ele>1721.1999511719</ele>
        <time>2023-09-30T10:14:53.000Z</time>
      </trkpt>
      <trkpt lat="46.01625" lon="6.77305">
        <ele>1721</ele>
        <time>2023-09-30T10:14:54.000Z</time>
      </trkpt>
      <trkpt lat="46.01621" lon="6.77303">
        <ele>1720</ele>
        <time>2023-09-30T10:14:55.000Z</time>
      </trkpt>
      <trkpt lat="46.01618" lon="6.77302">
        <ele>1719.5999755859</ele>
        <time>2023-09-30T10:14:56.000Z</time>
      </trkpt>
      <trkpt lat="46.01615" lon="6.773">
        <ele>1718.8000488281</ele>
        <time>2023-09-30T10:14:57.000Z</time>
      </trkpt>
      <trkpt lat="46.01614" lon="6.77297">
        <ele>1718.4000244141</ele>
        <time>2023-09-30T10:14:58.000Z</time>
      </trkpt>
      <trkpt lat="46.01615" lon="6.77294">
        <ele>1717.4000244141</ele>
        <time>2023-09-30T10:14:59.000Z</time>
      </trkpt>
      <trkpt lat="46.01615" lon="6.77292">
        <ele>1716.8000488281</ele>
        <time>2023-09-30T10:15:00.000Z</time>
      </trkpt>
      <trkpt lat="46.01617" lon="6.77289">
        <ele>1716</ele>
        <time>2023-09-30T10:15:01.000Z</time>
      </trkpt>
      <trkpt lat="46.01619" lon="6.77286">
        <ele>1715.4000244141</ele>
        <time>2023-09-30T10:15:02.000Z</time>
      </trkpt>
      <trkpt lat="46.0162" lon="6.77282">
        <ele>1715.1999511719</ele>
        <time>2023-09-30T10:15:03.000Z</time>
      </trkpt>
      <trkpt lat="46.01621" lon="6.77279">
        <ele>1714.8000488281</ele>
        <time>2023-09-30T10:15:04.000Z</time>
      </trkpt>
      <trkpt lat="46.0162" lon="6.77276">
        <ele>1714.5999755859</ele>
        <time>2023-09-30T10:15:05.000Z</time>
      </trkpt>
      <trkpt lat="46.0162" lon="6.77274">
        <ele>1714</ele>
        <time>2023-09-30T10:15:06.000Z</time>
      </trkpt>
      <trkpt lat="46.0162" lon="6.77271">
        <ele>1713.5999755859</ele>
        <time>2023-09-30T10:15:07.000Z</time>
      </trkpt>
      <trkpt lat="46.01621" lon="6.7727">
        <ele>1713.4000244141</ele>
        <time>2023-09-30T10:15:08.000Z</time>
      </trkpt>
      <trkpt lat="46.01622" lon="6.7727">
        <ele>1713</ele>
        <time>2023-09-30T10:15:09.000Z</time>
      </trkpt>
      <trkpt lat="46.01624" lon="6.7727">
        <ele>1712.8000488281</ele>
        <time>2023-09-30T10:15:10.000Z</time>
      </trkpt>
      <trkpt lat="46.01626" lon="6.77269">
        <ele>1712.4000244141</ele>
        <time>2023-09-30T10:15:11.000Z</time>
      </trkpt>
      <trkpt lat="46.0163" lon="6.77266">
        <ele>1712</ele>
        <time>2023-09-30T10:15:13.000Z</time>
      </trkpt>
      <trkpt lat="46.01633" lon="6.77263">
        <ele>1711.5999755859</ele>
        <time>2023-09-30T10:15:14.000Z</time>
      </trkpt>
      <trkpt lat="46.01636" lon="6.7726">
        <ele>1711</ele>
        <time>2023-09-30T10:15:15.000Z</time>
      </trkpt>
      <trkpt lat="46.01637" lon="6.77258">
        <ele>1710.4000244141</ele>
        <time>2023-09-30T10:15:16.000Z</time>
      </trkpt>
      <trkpt lat="46.01638" lon="6.77256">
        <ele>1709.1999511719</ele>
        <time>2023-09-30T10:15:17.000Z</time>
      </trkpt>
      <trkpt lat="46.01637" lon="6.77254">
        <ele>1708.4000244141</ele>
        <time>2023-09-30T10:15:18.000Z</time>
      </trkpt>
      <trkpt lat="46.01636" lon="6.77252">
        <ele>1708</ele>
        <time>2023-09-30T10:15:19.000Z</time>
      </trkpt>
      <trkpt lat="46.01634" lon="6.77251">
        <ele>1707.1999511719</ele>
        <time>2023-09-30T10:15:20.000Z</time>
      </trkpt>
      <trkpt lat="46.01633" lon="6.77249">
        <ele>1706.8000488281</ele>
        <time>2023-09-30T10:15:21.000Z</time>
      </trkpt>
      <trkpt lat="46.01632" lon="6.77248">
        <ele>1706</ele>
        <time>2023-09-30T10:15:22.000Z</time>
      </trkpt>
      <trkpt lat="46.01631" lon="6.77246">
        <ele>1705.5999755859</ele>
        <time>2023-09-30T10:15:23.000Z</time>
      </trkpt>
      <trkpt lat="46.01631" lon="6.77244">
        <ele>1704.8000488281</ele>
        <time>2023-09-30T10:15:24.000Z</time>
      </trkpt>
      <trkpt lat="46.0163" lon="6.77242">
        <ele>1704.4000244141</ele>
        <time>2023-09-30T10:15:25.000Z</time>
      </trkpt>
      <trkpt lat="46.0163" lon="6.7724">
        <ele>1704.1999511719</ele>
        <time>2023-09-30T10:15:26.000Z</time>
      </trkpt>
      <trkpt lat="46.0163" lon="6.77237">
        <ele>1703.5999755859</ele>
        <time>2023-09-30T10:15:27.000Z</time>
      </trkpt>
      <trkpt lat="46.0163" lon="6.7723">
        <ele>1702.8000488281</ele>
        <time>2023-09-30T10:15:29.000Z</time>
      </trkpt>
      <trkpt lat="46.01628" lon="6.77224">
        <ele>1702.4000244141</ele>
        <time>2023-09-30T10:15:31.000Z</time>
      </trkpt>
      <trkpt lat="46.01629" lon="6.77222">
        <ele>1702.1999511719</ele>
        <time>2023-09-30T10:15:32.000Z</time>
      </trkpt>
      <trkpt lat="46.0163" lon="6.7722">
        <ele>1701.8000488281</ele>
        <time>2023-09-30T10:15:33.000Z</time>
      </trkpt>
      <trkpt lat="46.01631" lon="6.77216">
        <ele>1701.1999511719</ele>
        <time>2023-09-30T10:15:34.000Z</time>
      </trkpt>
      <trkpt lat="46.01631" lon="6.77212">
        <ele>1700.5999755859</ele>
        <time>2023-09-30T10:15:35.000Z</time>
      </trkpt>
      <trkpt lat="46.0163" lon="6.77205">
        <ele>1699.4000244141</ele>
        <time>2023-09-30T10:15:37.000Z</time>
      </trkpt>
      <trkpt lat="46.0163" lon="6.77202">
        <ele>1698.4000244141</ele>
        <time>2023-09-30T10:15:38.000Z</time>
      </trkpt>
      <trkpt lat="46.0163" lon="6.77198">
        <ele>1698</ele>
        <time>2023-09-30T10:15:39.000Z</time>
      </trkpt>
      <trkpt lat="46.01629" lon="6.77194">
        <ele>1697</ele>
        <time>2023-09-30T10:15:40.000Z</time>
      </trkpt>
      <trkpt lat="46.01627" lon="6.77189">
        <ele>1696.1999511719</ele>
        <time>2023-09-30T10:15:41.000Z</time>
      </trkpt>
      <trkpt lat="46.01625" lon="6.77184">
        <ele>1695.4000244141</ele>
        <time>2023-09-30T10:15:42.000Z</time>
      </trkpt>
      <trkpt lat="46.01622" lon="6.7718">
        <ele>1694.1999511719</ele>
        <time>2023-09-30T10:15:43.000Z</time>
      </trkpt>
      <trkpt lat="46.01621" lon="6.77178">
        <ele>1693.8000488281</ele>
        <time>2023-09-30T10:15:44.000Z</time>
      </trkpt>
      <trkpt lat="46.01621" lon="6.77176">
        <ele>1692.8000488281</ele>
        <time>2023-09-30T10:15:45.000Z</time>
      </trkpt>
      <trkpt lat="46.01621" lon="6.77176">
        <ele>1692.5999755859</ele>
        <time>2023-09-30T10:15:46.000Z</time>
      </trkpt>
      <trkpt lat="46.01621" lon="6.77176">
        <ele>1691.8000488281</ele>
        <time>2023-09-30T10:15:47.000Z</time>
      </trkpt>
      <trkpt lat="46.01621" lon="6.77176">
        <ele>1691.8000488281</ele>
        <time>2023-09-30T10:15:48.000Z</time>
      </trkpt>
      <trkpt lat="46.01621" lon="6.77176">
        <ele>1690.5999755859</ele>
        <time>2023-09-30T10:15:50.000Z</time>
      </trkpt>
      <trkpt lat="46.01621" lon="6.77176">
        <ele>1689.4000244141</ele>
        <time>2023-09-30T10:15:54.000Z</time>
      </trkpt>
      <trkpt lat="46.01621" lon="6.77176">
        <ele>1689</ele>
        <time>2023-09-30T10:16:01.000Z</time>
      </trkpt>
      <trkpt lat="46.01621" lon="6.77176">
        <ele>1689</ele>
        <time>2023-09-30T10:16:02.000Z</time>
      </trkpt>
      <trkpt lat="46.01621" lon="6.77176">
        <ele>1688.4000244141</ele>
        <time>2023-09-30T10:16:06.000Z</time>
      </trkpt>
      <trkpt lat="46.01621" lon="6.77176">
        <ele>1688.4000244141</ele>
        <time>2023-09-30T10:16:14.000Z</time>
      </trkpt>
      <trkpt lat="46.0162" lon="6.77169">
        <ele>1688.1999511719</ele>
        <time>2023-09-30T10:16:17.000Z</time>
      </trkpt>
      <trkpt lat="46.01617" lon="6.77158">
        <ele>1687.8000488281</ele>
        <time>2023-09-30T10:16:20.000Z</time>
      </trkpt>
      <trkpt lat="46.01615" lon="6.77154">
        <ele>1687.4000244141</ele>
        <time>2023-09-30T10:16:21.000Z</time>
      </trkpt>
      <trkpt lat="46.01609" lon="6.77145">
        <ele>1686.1999511719</ele>
        <time>2023-09-30T10:16:24.000Z</time>
      </trkpt>
      <trkpt lat="46.01604" lon="6.77141">
        <ele>1685.1999511719</ele>
        <time>2023-09-30T10:16:26.000Z</time>
      </trkpt>
      <trkpt lat="46.01603" lon="6.7714">
        <ele>1685</ele>
        <time>2023-09-30T10:16:27.000Z</time>
      </trkpt>
      <trkpt lat="46.01601" lon="6.77138">
        <ele>1684.4000244141</ele>
        <time>2023-09-30T10:16:28.000Z</time>
      </trkpt>
      <trkpt lat="46.016" lon="6.77136">
        <ele>1683.8000488281</ele>
        <time>2023-09-30T10:16:29.000Z</time>
      </trkpt>
      <trkpt lat="46.01599" lon="6.77135">
        <ele>1683.5999755859</ele>
        <time>2023-09-30T10:16:30.000Z</time>
      </trkpt>
      <trkpt lat="46.01599" lon="6.77133">
        <ele>1683</ele>
        <time>2023-09-30T10:16:31.000Z</time>
      </trkpt>
      <trkpt lat="46.01598" lon="6.77133">
        <ele>1682.8000488281</ele>
        <time>2023-09-30T10:16:32.000Z</time>
      </trkpt>
      <trkpt lat="46.01597" lon="6.77133">
        <ele>1682</ele>
        <time>2023-09-30T10:16:35.000Z</time>
      </trkpt>
      <trkpt lat="46.01595" lon="6.77132">
        <ele>1681.8000488281</ele>
        <time>2023-09-30T10:16:36.000Z</time>
      </trkpt>
      <trkpt lat="46.01593" lon="6.77131">
        <ele>1681.5999755859</ele>
        <time>2023-09-30T10:16:37.000Z</time>
      </trkpt>
      <trkpt lat="46.01588" lon="6.77129">
        <ele>1681.4000244141</ele>
        <time>2023-09-30T10:16:40.000Z</time>
      </trkpt>
      <trkpt lat="46.01586" lon="6.77126">
        <ele>1681.1999511719</ele>
        <time>2023-09-30T10:16:41.000Z</time>
      </trkpt>
      <trkpt lat="46.01584" lon="6.77122">
        <ele>1681.1999511719</ele>
        <time>2023-09-30T10:16:42.000Z</time>
      </trkpt>
      <trkpt lat="46.01582" lon="6.77118">
        <ele>1681</ele>
        <time>2023-09-30T10:16:43.000Z</time>
      </trkpt>
      <trkpt lat="46.01579" lon="6.77117">
        <ele>1681</ele>
        <time>2023-09-30T10:16:44.000Z</time>
      </trkpt>
      <trkpt lat="46.01576" lon="6.77115">
        <ele>1680.8000488281</ele>
        <time>2023-09-30T10:16:45.000Z</time>
      </trkpt>
      <trkpt lat="46.01574" lon="6.77116">
        <ele>1680.5999755859</ele>
        <time>2023-09-30T10:16:46.000Z</time>
      </trkpt>
      <trkpt lat="46.01572" lon="6.77119">
        <ele>1680.1999511719</ele>
        <time>2023-09-30T10:16:47.000Z</time>
      </trkpt>
      <trkpt lat="46.0157" lon="6.7712">
        <ele>1680</ele>
        <time>2023-09-30T10:16:48.000Z</time>
      </trkpt>
      <trkpt lat="46.01567" lon="6.7712">
        <ele>1679.4000244141</ele>
        <time>2023-09-30T10:16:49.000Z</time>
      </trkpt>
      <trkpt lat="46.01567" lon="6.77118">
        <ele>1679.1999511719</ele>
        <time>2023-09-30T10:16:50.000Z</time>
      </trkpt>
      <trkpt lat="46.01566" lon="6.77116">
        <ele>1678.8000488281</ele>
        <time>2023-09-30T10:16:51.000Z</time>
      </trkpt>
      <trkpt lat="46.01566" lon="6.77109">
        <ele>1678.5999755859</ele>
        <time>2023-09-30T10:16:53.000Z</time>
      </trkpt>
      <trkpt lat="46.01565" lon="6.77107">
        <ele>1678.1999511719</ele>
        <time>2023-09-30T10:16:54.000Z</time>
      </trkpt>
      <trkpt lat="46.01563" lon="6.77104">
        <ele>1678.1999511719</ele>
        <time>2023-09-30T10:16:55.000Z</time>
      </trkpt>
      <trkpt lat="46.0156" lon="6.77101">
        <ele>1677.8000488281</ele>
        <time>2023-09-30T10:16:56.000Z</time>
      </trkpt>
      <trkpt lat="46.01555" lon="6.77093">
        <ele>1677</ele>
        <time>2023-09-30T10:16:58.000Z</time>
      </trkpt>
      <trkpt lat="46.01552" lon="6.7709">
        <ele>1676.8000488281</ele>
        <time>2023-09-30T10:16:59.000Z</time>
      </trkpt>
      <trkpt lat="46.0155" lon="6.77088">
        <ele>1676.5999755859</ele>
        <time>2023-09-30T10:17:00.000Z</time>
      </trkpt>
      <trkpt lat="46.01549" lon="6.77086">
        <ele>1676.1999511719</ele>
        <time>2023-09-30T10:17:01.000Z</time>
      </trkpt>
      <trkpt lat="46.01546" lon="6.77084">
        <ele>1676</ele>
        <time>2023-09-30T10:17:02.000Z</time>
      </trkpt>
      <trkpt lat="46.01545" lon="6.77083">
        <ele>1675.5999755859</ele>
        <time>2023-09-30T10:17:03.000Z</time>
      </trkpt>
      <trkpt lat="46.01542" lon="6.77083">
        <ele>1675.4000244141</ele>
        <time>2023-09-30T10:17:04.000Z</time>
      </trkpt>
      <trkpt lat="46.01541" lon="6.77083">
        <ele>1675</ele>
        <time>2023-09-30T10:17:05.000Z</time>
      </trkpt>
      <trkpt lat="46.01539" lon="6.77084">
        <ele>1674.8000488281</ele>
        <time>2023-09-30T10:17:06.000Z</time>
      </trkpt>
      <trkpt lat="46.01539" lon="6.77085">
        <ele>1674.5999755859</ele>
        <time>2023-09-30T10:17:07.000Z</time>
      </trkpt>
      <trkpt lat="46.01537" lon="6.77087">
        <ele>1674.4000244141</ele>
        <time>2023-09-30T10:17:08.000Z</time>
      </trkpt>
      <trkpt lat="46.01537" lon="6.77087">
        <ele>1674.4000244141</ele>
        <time>2023-09-30T10:17:09.000Z</time>
      </trkpt>
      <trkpt lat="46.01537" lon="6.77087">
        <ele>1674.1999511719</ele>
        <time>2023-09-30T10:17:10.000Z</time>
      </trkpt>
      <trkpt lat="46.01537" lon="6.77087">
        <ele>1674</ele>
        <time>2023-09-30T10:17:12.000Z</time>
      </trkpt>
      <trkpt lat="46.01535" lon="6.77086">
        <ele>1674</ele>
        <time>2023-09-30T10:17:16.000Z</time>
      </trkpt>
      <trkpt lat="46.01533" lon="6.77082">
        <ele>1674</ele>
        <time>2023-09-30T10:17:18.000Z</time>
      </trkpt>
      <trkpt lat="46.01533" lon="6.77081">
        <ele>1674</ele>
        <time>2023-09-30T10:17:19.000Z</time>
      </trkpt>
      <trkpt lat="46.01532" lon="6.7708">
        <ele>1674</ele>
        <time>2023-09-30T10:17:20.000Z</time>
      </trkpt>
      <trkpt lat="46.01532" lon="6.77079">
        <ele>1674</ele>
        <time>2023-09-30T10:17:21.000Z</time>
      </trkpt>
      <trkpt lat="46.0153" lon="6.77077">
        <ele>1674</ele>
        <time>2023-09-30T10:17:23.000Z</time>
      </trkpt>
      <trkpt lat="46.0153" lon="6.77072">
        <ele>1674</ele>
        <time>2023-09-30T10:17:26.000Z</time>
      </trkpt>
      <trkpt lat="46.0153" lon="6.7707">
        <ele>1674</ele>
        <time>2023-09-30T10:17:27.000Z</time>
      </trkpt>
      <trkpt lat="46.01528" lon="6.77067">
        <ele>1673.8000488281</ele>
        <time>2023-09-30T10:17:28.000Z</time>
      </trkpt>
      <trkpt lat="46.01527" lon="6.77066">
        <ele>1673.8000488281</ele>
        <time>2023-09-30T10:17:29.000Z</time>
      </trkpt>
      <trkpt lat="46.01527" lon="6.77064">
        <ele>1673.5999755859</ele>
        <time>2023-09-30T10:17:30.000Z</time>
      </trkpt>
      <trkpt lat="46.01525" lon="6.77055">
        <ele>1672.4000244141</ele>
        <time>2023-09-30T10:17:35.000Z</time>
      </trkpt>
      <trkpt lat="46.01525" lon="6.77051">
        <ele>1671.8000488281</ele>
        <time>2023-09-30T10:17:37.000Z</time>
      </trkpt>
      <trkpt lat="46.01525" lon="6.77051">
        <ele>1671.4000244141</ele>
        <time>2023-09-30T10:17:38.000Z</time>
      </trkpt>
      <trkpt lat="46.01526" lon="6.77051">
        <ele>1671.1999511719</ele>
        <time>2023-09-30T10:17:39.000Z</time>
      </trkpt>
      <trkpt lat="46.01526" lon="6.77051">
        <ele>1670.5999755859</ele>
        <time>2023-09-30T10:17:40.000Z</time>
      </trkpt>
      <trkpt lat="46.01527" lon="6.77052">
        <ele>1670.1999511719</ele>
        <time>2023-09-30T10:17:41.000Z</time>
      </trkpt>
      <trkpt lat="46.01527" lon="6.77052">
        <ele>1669.5999755859</ele>
        <time>2023-09-30T10:17:42.000Z</time>
      </trkpt>
      <trkpt lat="46.01528" lon="6.77053">
        <ele>1669.4000244141</ele>
        <time>2023-09-30T10:17:43.000Z</time>
      </trkpt>
      <trkpt lat="46.01529" lon="6.77053">
        <ele>1668.8000488281</ele>
        <time>2023-09-30T10:17:46.000Z</time>
      </trkpt>
      <trkpt lat="46.01529" lon="6.77053">
        <ele>1668.5999755859</ele>
        <time>2023-09-30T10:17:49.000Z</time>
      </trkpt>
      <trkpt lat="46.01529" lon="6.77053">
        <ele>1668.1999511719</ele>
        <time>2023-09-30T10:17:52.000Z</time>
      </trkpt>
      <trkpt lat="46.01532" lon="6.77051">
        <ele>1668</ele>
        <time>2023-09-30T10:17:55.000Z</time>
      </trkpt>
      <trkpt lat="46.01532" lon="6.77051">
        <ele>1667.4000244141</ele>
        <time>2023-09-30T10:17:57.000Z</time>
      </trkpt>
      <trkpt lat="46.01532" lon="6.77051">
        <ele>1667.1999511719</ele>
        <time>2023-09-30T10:17:58.000Z</time>
      </trkpt>
      <trkpt lat="46.01532" lon="6.7705">
        <ele>1666.4000244141</ele>
        <time>2023-09-30T10:18:04.000Z</time>
      </trkpt>
      <trkpt lat="46.01533" lon="6.77043">
        <ele>1666</ele>
        <time>2023-09-30T10:18:07.000Z</time>
      </trkpt>
      <trkpt lat="46.0153" lon="6.7704">
        <ele>1665.4000244141</ele>
        <time>2023-09-30T10:18:09.000Z</time>
      </trkpt>
      <trkpt lat="46.0153" lon="6.77038">
        <ele>1664.8000488281</ele>
        <time>2023-09-30T10:18:10.000Z</time>
      </trkpt>
      <trkpt lat="46.01529" lon="6.77037">
        <ele>1664.5999755859</ele>
        <time>2023-09-30T10:18:11.000Z</time>
      </trkpt>
      <trkpt lat="46.01529" lon="6.77035">
        <ele>1664.1999511719</ele>
        <time>2023-09-30T10:18:12.000Z</time>
      </trkpt>
      <trkpt lat="46.0153" lon="6.77033">
        <ele>1664</ele>
        <time>2023-09-30T10:18:13.000Z</time>
      </trkpt>
      <trkpt lat="46.0153" lon="6.77032">
        <ele>1663.5999755859</ele>
        <time>2023-09-30T10:18:14.000Z</time>
      </trkpt>
      <trkpt lat="46.01531" lon="6.7703">
        <ele>1663</ele>
        <time>2023-09-30T10:18:15.000Z</time>
      </trkpt>
      <trkpt lat="46.0153" lon="6.77029">
        <ele>1662.8000488281</ele>
        <time>2023-09-30T10:18:16.000Z</time>
      </trkpt>
      <trkpt lat="46.0153" lon="6.77028">
        <ele>1662.4000244141</ele>
        <time>2023-09-30T10:18:17.000Z</time>
      </trkpt>
      <trkpt lat="46.01529" lon="6.77027">
        <ele>1662.1999511719</ele>
        <time>2023-09-30T10:18:18.000Z</time>
      </trkpt>
      <trkpt lat="46.01527" lon="6.77026">
        <ele>1660.8000488281</ele>
        <time>2023-09-30T10:18:21.000Z</time>
      </trkpt>
      <trkpt lat="46.01527" lon="6.77026">
        <ele>1659.8000488281</ele>
        <time>2023-09-30T10:18:24.000Z</time>
      </trkpt>
      <trkpt lat="46.01524" lon="6.77018">
        <ele>1658.8000488281</ele>
        <time>2023-09-30T10:18:30.000Z</time>
      </trkpt>
      <trkpt lat="46.01524" lon="6.77016">
        <ele>1658.5999755859</ele>
        <time>2023-09-30T10:18:31.000Z</time>
      </trkpt>
      <trkpt lat="46.01524" lon="6.77016">
        <ele>1658.4000244141</ele>
        <time>2023-09-30T10:18:32.000Z</time>
      </trkpt>
      <trkpt lat="46.01524" lon="6.77016">
        <ele>1658</ele>
        <time>2023-09-30T10:18:33.000Z</time>
      </trkpt>
      <trkpt lat="46.01525" lon="6.77014">
        <ele>1657.5999755859</ele>
        <time>2023-09-30T10:18:35.000Z</time>
      </trkpt>
      <trkpt lat="46.01525" lon="6.77013">
        <ele>1657.4000244141</ele>
        <time>2023-09-30T10:18:36.000Z</time>
      </trkpt>
      <trkpt lat="46.01526" lon="6.77011">
        <ele>1657.1999511719</ele>
        <time>2023-09-30T10:18:37.000Z</time>
      </trkpt>
      <trkpt lat="46.01527" lon="6.77009">
        <ele>1656.4000244141</ele>
        <time>2023-09-30T10:18:40.000Z</time>
      </trkpt>
      <trkpt lat="46.01527" lon="6.77009">
        <ele>1656.4000244141</ele>
        <time>2023-09-30T10:18:41.000Z</time>
      </trkpt>
      <trkpt lat="46.01527" lon="6.77009">
        <ele>1655.8000488281</ele>
        <time>2023-09-30T10:18:42.000Z</time>
      </trkpt>
      <trkpt lat="46.01526" lon="6.77006">
        <ele>1655.1999511719</ele>
        <time>2023-09-30T10:18:45.000Z</time>
      </trkpt>
      <trkpt lat="46.01525" lon="6.77004">
        <ele>1654.8000488281</ele>
        <time>2023-09-30T10:18:46.000Z</time>
      </trkpt>
      <trkpt lat="46.01525" lon="6.77002">
        <ele>1654.5999755859</ele>
        <time>2023-09-30T10:18:47.000Z</time>
      </trkpt>
      <trkpt lat="46.01523" lon="6.76998">
        <ele>1654.1999511719</ele>
        <time>2023-09-30T10:18:49.000Z</time>
      </trkpt>
      <trkpt lat="46.01522" lon="6.76994">
        <ele>1654</ele>
        <time>2023-09-30T10:18:51.000Z</time>
      </trkpt>
      <trkpt lat="46.01521" lon="6.76989">
        <ele>1653.4000244141</ele>
        <time>2023-09-30T10:18:53.000Z</time>
      </trkpt>
      <trkpt lat="46.0152" lon="6.76988">
        <ele>1653</ele>
        <time>2023-09-30T10:18:54.000Z</time>
      </trkpt>
      <trkpt lat="46.01516" lon="6.7698">
        <ele>1651.5999755859</ele>
        <time>2023-09-30T10:18:58.000Z</time>
      </trkpt>
      <trkpt lat="46.01516" lon="6.76978">
        <ele>1651.1999511719</ele>
        <time>2023-09-30T10:18:59.000Z</time>
      </trkpt>
      <trkpt lat="46.01515" lon="6.76976">
        <ele>1650.4000244141</ele>
        <time>2023-09-30T10:19:00.000Z</time>
      </trkpt>
      <trkpt lat="46.01513" lon="6.76972">
        <ele>1649.5999755859</ele>
        <time>2023-09-30T10:19:02.000Z</time>
      </trkpt>
      <trkpt lat="46.01513" lon="6.7697">
        <ele>1649.4000244141</ele>
        <time>2023-09-30T10:19:03.000Z</time>
      </trkpt>
      <trkpt lat="46.01513" lon="6.76968">
        <ele>1649.4000244141</ele>
        <time>2023-09-30T10:19:04.000Z</time>
      </trkpt>
      <trkpt lat="46.01515" lon="6.76965">
        <ele>1649</ele>
        <time>2023-09-30T10:19:05.000Z</time>
      </trkpt>
      <trkpt lat="46.01515" lon="6.76959">
        <ele>1647.5999755859</ele>
        <time>2023-09-30T10:19:07.000Z</time>
      </trkpt>
      <trkpt lat="46.01515" lon="6.76953">
        <ele>1646.5999755859</ele>
        <time>2023-09-30T10:19:09.000Z</time>
      </trkpt>
      <trkpt lat="46.01513" lon="6.76951">
        <ele>1646.1999511719</ele>
        <time>2023-09-30T10:19:10.000Z</time>
      </trkpt>
      <trkpt lat="46.01512" lon="6.76947">
        <ele>1645</ele>
        <time>2023-09-30T10:19:12.000Z</time>
      </trkpt>
      <trkpt lat="46.01512" lon="6.7694">
        <ele>1644</ele>
        <time>2023-09-30T10:19:15.000Z</time>
      </trkpt>
      <trkpt lat="46.01511" lon="6.76938">
        <ele>1643.8000488281</ele>
        <time>2023-09-30T10:19:16.000Z</time>
      </trkpt>
      <trkpt lat="46.0151" lon="6.76934">
        <ele>1642.8000488281</ele>
        <time>2023-09-30T10:19:18.000Z</time>
      </trkpt>
      <trkpt lat="46.01509" lon="6.76931">
        <ele>1642.1999511719</ele>
        <time>2023-09-30T10:19:19.000Z</time>
      </trkpt>
      <trkpt lat="46.01507" lon="6.76928">
        <ele>1641.8000488281</ele>
        <time>2023-09-30T10:19:20.000Z</time>
      </trkpt>
      <trkpt lat="46.01506" lon="6.76924">
        <ele>1641.1999511719</ele>
        <time>2023-09-30T10:19:21.000Z</time>
      </trkpt>
      <trkpt lat="46.01505" lon="6.76921">
        <ele>1640.8000488281</ele>
        <time>2023-09-30T10:19:22.000Z</time>
      </trkpt>
      <trkpt lat="46.01504" lon="6.76919">
        <ele>1640.1999511719</ele>
        <time>2023-09-30T10:19:23.000Z</time>
      </trkpt>
      <trkpt lat="46.01503" lon="6.76918">
        <ele>1639.4000244141</ele>
        <time>2023-09-30T10:19:24.000Z</time>
      </trkpt>
      <trkpt lat="46.01502" lon="6.76916">
        <ele>1639</ele>
        <time>2023-09-30T10:19:25.000Z</time>
      </trkpt>
      <trkpt lat="46.01501" lon="6.76914">
        <ele>1638.1999511719</ele>
        <time>2023-09-30T10:19:26.000Z</time>
      </trkpt>
      <trkpt lat="46.01501" lon="6.76912">
        <ele>1638</ele>
        <time>2023-09-30T10:19:27.000Z</time>
      </trkpt>
      <trkpt lat="46.01501" lon="6.76911">
        <ele>1637.5999755859</ele>
        <time>2023-09-30T10:19:28.000Z</time>
      </trkpt>
      <trkpt lat="46.01501" lon="6.7691">
        <ele>1637.4000244141</ele>
        <time>2023-09-30T10:19:29.000Z</time>
      </trkpt>
      <trkpt lat="46.015" lon="6.76907">
        <ele>1637</ele>
        <time>2023-09-30T10:19:30.000Z</time>
      </trkpt>
      <trkpt lat="46.015" lon="6.76905">
        <ele>1636</ele>
        <time>2023-09-30T10:19:31.000Z</time>
      </trkpt>
      <trkpt lat="46.01499" lon="6.76903">
        <ele>1635.8000488281</ele>
        <time>2023-09-30T10:19:32.000Z</time>
      </trkpt>
      <trkpt lat="46.01496" lon="6.76893">
        <ele>1635</ele>
        <time>2023-09-30T10:19:35.000Z</time>
      </trkpt>
      <trkpt lat="46.01495" lon="6.76891">
        <ele>1634.8000488281</ele>
        <time>2023-09-30T10:19:36.000Z</time>
      </trkpt>
      <trkpt lat="46.01495" lon="6.76889">
        <ele>1634</ele>
        <time>2023-09-30T10:19:37.000Z</time>
      </trkpt>
      <trkpt lat="46.01494" lon="6.76886">
        <ele>1633.5999755859</ele>
        <time>2023-09-30T10:19:38.000Z</time>
      </trkpt>
      <trkpt lat="46.01494" lon="6.76882">
        <ele>1632.8000488281</ele>
        <time>2023-09-30T10:19:40.000Z</time>
      </trkpt>
      <trkpt lat="46.01494" lon="6.7688">
        <ele>1632.4000244141</ele>
        <time>2023-09-30T10:19:41.000Z</time>
      </trkpt>
      <trkpt lat="46.01491" lon="6.7687">
        <ele>1631.1999511719</ele>
        <time>2023-09-30T10:19:44.000Z</time>
      </trkpt>
      <trkpt lat="46.01489" lon="6.76864">
        <ele>1630.5999755859</ele>
        <time>2023-09-30T10:19:46.000Z</time>
      </trkpt>
      <trkpt lat="46.01488" lon="6.76862">
        <ele>1630</ele>
        <time>2023-09-30T10:19:47.000Z</time>
      </trkpt>
      <trkpt lat="46.01488" lon="6.76859">
        <ele>1629.8000488281</ele>
        <time>2023-09-30T10:19:48.000Z</time>
      </trkpt>
      <trkpt lat="46.01487" lon="6.76856">
        <ele>1629</ele>
        <time>2023-09-30T10:19:49.000Z</time>
      </trkpt>
      <trkpt lat="46.01486" lon="6.76851">
        <ele>1627.5999755859</ele>
        <time>2023-09-30T10:19:51.000Z</time>
      </trkpt>
      <trkpt lat="46.01484" lon="6.76849">
        <ele>1627.1999511719</ele>
        <time>2023-09-30T10:19:52.000Z</time>
      </trkpt>
      <trkpt lat="46.01483" lon="6.76846">
        <ele>1626.1999511719</ele>
        <time>2023-09-30T10:19:53.000Z</time>
      </trkpt>
      <trkpt lat="46.01482" lon="6.76839">
        <ele>1625.4000244141</ele>
        <time>2023-09-30T10:19:55.000Z</time>
      </trkpt>
      <trkpt lat="46.01481" lon="6.76836">
        <ele>1624.5999755859</ele>
        <time>2023-09-30T10:19:56.000Z</time>
      </trkpt>
      <trkpt lat="46.01481" lon="6.76833">
        <ele>1624.4000244141</ele>
        <time>2023-09-30T10:19:57.000Z</time>
      </trkpt>
      <trkpt lat="46.01479" lon="6.7683">
        <ele>1623.8000488281</ele>
        <time>2023-09-30T10:19:58.000Z</time>
      </trkpt>
      <trkpt lat="46.01477" lon="6.76827">
        <ele>1623.4000244141</ele>
        <time>2023-09-30T10:19:59.000Z</time>
      </trkpt>
      <trkpt lat="46.01476" lon="6.76825">
        <ele>1623</ele>
        <time>2023-09-30T10:20:00.000Z</time>
      </trkpt>
      <trkpt lat="46.01476" lon="6.76823">
        <ele>1622.5999755859</ele>
        <time>2023-09-30T10:20:01.000Z</time>
      </trkpt>
      <trkpt lat="46.01475" lon="6.76821">
        <ele>1622.1999511719</ele>
        <time>2023-09-30T10:20:02.000Z</time>
      </trkpt>
      <trkpt lat="46.01475" lon="6.76819">
        <ele>1621.8000488281</ele>
        <time>2023-09-30T10:20:03.000Z</time>
      </trkpt>
      <trkpt lat="46.01475" lon="6.76818">
        <ele>1621.5999755859</ele>
        <time>2023-09-30T10:20:04.000Z</time>
      </trkpt>
      <trkpt lat="46.01476" lon="6.76817">
        <ele>1620.8000488281</ele>
        <time>2023-09-30T10:20:05.000Z</time>
      </trkpt>
      <trkpt lat="46.01476" lon="6.76817">
        <ele>1620.4000244141</ele>
        <time>2023-09-30T10:20:06.000Z</time>
      </trkpt>
      <trkpt lat="46.01477" lon="6.76817">
        <ele>1620</ele>
        <time>2023-09-30T10:20:07.000Z</time>
      </trkpt>
      <trkpt lat="46.01477" lon="6.76817">
        <ele>1619.4000244141</ele>
        <time>2023-09-30T10:20:08.000Z</time>
      </trkpt>
      <trkpt lat="46.01478" lon="6.76817">
        <ele>1619.1999511719</ele>
        <time>2023-09-30T10:20:09.000Z</time>
      </trkpt>
      <trkpt lat="46.01479" lon="6.76817">
        <ele>1618.8000488281</ele>
        <time>2023-09-30T10:20:10.000Z</time>
      </trkpt>
      <trkpt lat="46.0148" lon="6.76817">
        <ele>1618.5999755859</ele>
        <time>2023-09-30T10:20:11.000Z</time>
      </trkpt>
      <trkpt lat="46.01483" lon="6.76815">
        <ele>1618.4000244141</ele>
        <time>2023-09-30T10:20:12.000Z</time>
      </trkpt>
      <trkpt lat="46.01485" lon="6.76814">
        <ele>1618.1999511719</ele>
        <time>2023-09-30T10:20:13.000Z</time>
      </trkpt>
      <trkpt lat="46.01486" lon="6.76813">
        <ele>1618.1999511719</ele>
        <time>2023-09-30T10:20:14.000Z</time>
      </trkpt>
      <trkpt lat="46.01487" lon="6.76812">
        <ele>1617.8000488281</ele>
        <time>2023-09-30T10:20:15.000Z</time>
      </trkpt>
      <trkpt lat="46.01487" lon="6.7681">
        <ele>1617.5999755859</ele>
        <time>2023-09-30T10:20:16.000Z</time>
      </trkpt>
      <trkpt lat="46.01488" lon="6.76808">
        <ele>1617.4000244141</ele>
        <time>2023-09-30T10:20:17.000Z</time>
      </trkpt>
      <trkpt lat="46.01489" lon="6.76806">
        <ele>1617</ele>
        <time>2023-09-30T10:20:18.000Z</time>
      </trkpt>
      <trkpt lat="46.01491" lon="6.76806">
        <ele>1616.4000244141</ele>
        <time>2023-09-30T10:20:19.000Z</time>
      </trkpt>
      <trkpt lat="46.01492" lon="6.76806">
        <ele>1616.1999511719</ele>
        <time>2023-09-30T10:20:20.000Z</time>
      </trkpt>
      <trkpt lat="46.01494" lon="6.76807">
        <ele>1615.8000488281</ele>
        <time>2023-09-30T10:20:22.000Z</time>
      </trkpt>
      <trkpt lat="46.01496" lon="6.76807">
        <ele>1615.4000244141</ele>
        <time>2023-09-30T10:20:23.000Z</time>
      </trkpt>
      <trkpt lat="46.01497" lon="6.76806">
        <ele>1614.5999755859</ele>
        <time>2023-09-30T10:20:24.000Z</time>
      </trkpt>
      <trkpt lat="46.01498" lon="6.76805">
        <ele>1614.4000244141</ele>
        <time>2023-09-30T10:20:25.000Z</time>
      </trkpt>
      <trkpt lat="46.01498" lon="6.76803">
        <ele>1614</ele>
        <time>2023-09-30T10:20:26.000Z</time>
      </trkpt>
      <trkpt lat="46.01499" lon="6.76801">
        <ele>1613.4000244141</ele>
        <time>2023-09-30T10:20:27.000Z</time>
      </trkpt>
      <trkpt lat="46.01501" lon="6.768">
        <ele>1612.8000488281</ele>
        <time>2023-09-30T10:20:28.000Z</time>
      </trkpt>
      <trkpt lat="46.01502" lon="6.768">
        <ele>1612.5999755859</ele>
        <time>2023-09-30T10:20:29.000Z</time>
      </trkpt>
      <trkpt lat="46.01503" lon="6.768">
        <ele>1612.1999511719</ele>
        <time>2023-09-30T10:20:30.000Z</time>
      </trkpt>
      <trkpt lat="46.01504" lon="6.768">
        <ele>1611.8000488281</ele>
        <time>2023-09-30T10:20:31.000Z</time>
      </trkpt>
      <trkpt lat="46.01504" lon="6.768">
        <ele>1611.5999755859</ele>
        <time>2023-09-30T10:20:32.000Z</time>
      </trkpt>
      <trkpt lat="46.01506" lon="6.768">
        <ele>1611.4000244141</ele>
        <time>2023-09-30T10:20:33.000Z</time>
      </trkpt>
      <trkpt lat="46.01506" lon="6.768">
        <ele>1611</ele>
        <time>2023-09-30T10:20:34.000Z</time>
      </trkpt>
      <trkpt lat="46.01506" lon="6.76799">
        <ele>1610.1999511719</ele>
        <time>2023-09-30T10:20:35.000Z</time>
      </trkpt>
      <trkpt lat="46.01506" lon="6.76799">
        <ele>1609</ele>
        <time>2023-09-30T10:20:37.000Z</time>
      </trkpt>
      <trkpt lat="46.01506" lon="6.76799">
        <ele>1608</ele>
        <time>2023-09-30T10:20:40.000Z</time>
      </trkpt>
      <trkpt lat="46.01507" lon="6.76798">
        <ele>1607.8000488281</ele>
        <time>2023-09-30T10:20:48.000Z</time>
      </trkpt>
      <trkpt lat="46.01506" lon="6.76797">
        <ele>1607.1999511719</ele>
        <time>2023-09-30T10:21:05.000Z</time>
      </trkpt>
      <trkpt lat="46.01505" lon="6.76793">
        <ele>1607.4000244141</ele>
        <time>2023-09-30T10:21:07.000Z</time>
      </trkpt>
      <trkpt lat="46.01504" lon="6.76791">
        <ele>1607.1999511719</ele>
        <time>2023-09-30T10:21:08.000Z</time>
      </trkpt>
      <trkpt lat="46.015" lon="6.7678">
        <ele>1606.4000244141</ele>
        <time>2023-09-30T10:21:12.000Z</time>
      </trkpt>
      <trkpt lat="46.01499" lon="6.76777">
        <ele>1606.1999511719</ele>
        <time>2023-09-30T10:21:13.000Z</time>
      </trkpt>
      <trkpt lat="46.01498" lon="6.76773">
        <ele>1606</ele>
        <time>2023-09-30T10:21:14.000Z</time>
      </trkpt>
      <trkpt lat="46.01498" lon="6.7677">
        <ele>1605.5999755859</ele>
        <time>2023-09-30T10:21:15.000Z</time>
      </trkpt>
      <trkpt lat="46.01498" lon="6.76768">
        <ele>1605.5999755859</ele>
        <time>2023-09-30T10:21:16.000Z</time>
      </trkpt>
      <trkpt lat="46.01498" lon="6.76767">
        <ele>1605.4000244141</ele>
        <time>2023-09-30T10:21:17.000Z</time>
      </trkpt>
      <trkpt lat="46.01498" lon="6.76767">
        <ele>1605</ele>
        <time>2023-09-30T10:21:18.000Z</time>
      </trkpt>
      <trkpt lat="46.01498" lon="6.76766">
        <ele>1603.8000488281</ele>
        <time>2023-09-30T10:21:20.000Z</time>
      </trkpt>
      <trkpt lat="46.01497" lon="6.76764">
        <ele>1603.4000244141</ele>
        <time>2023-09-30T10:21:21.000Z</time>
      </trkpt>
      <trkpt lat="46.01496" lon="6.76763">
        <ele>1603.1999511719</ele>
        <time>2023-09-30T10:21:22.000Z</time>
      </trkpt>
      <trkpt lat="46.01496" lon="6.76763">
        <ele>1602.8000488281</ele>
        <time>2023-09-30T10:21:23.000Z</time>
      </trkpt>
      <trkpt lat="46.01496" lon="6.76763">
        <ele>1602.8000488281</ele>
        <time>2023-09-30T10:21:24.000Z</time>
      </trkpt>
      <trkpt lat="46.01496" lon="6.76761">
        <ele>1601.5999755859</ele>
        <time>2023-09-30T10:21:29.000Z</time>
      </trkpt>
      <trkpt lat="46.01496" lon="6.7676">
        <ele>1601.5999755859</ele>
        <time>2023-09-30T10:21:30.000Z</time>
      </trkpt>
      <trkpt lat="46.01491" lon="6.76753">
        <ele>1600.5999755859</ele>
        <time>2023-09-30T10:21:36.000Z</time>
      </trkpt>
      <trkpt lat="46.0149" lon="6.76752">
        <ele>1600.4000244141</ele>
        <time>2023-09-30T10:21:37.000Z</time>
      </trkpt>
      <trkpt lat="46.01488" lon="6.76751">
        <ele>1600.1999511719</ele>
        <time>2023-09-30T10:21:38.000Z</time>
      </trkpt>
      <trkpt lat="46.01487" lon="6.76749">
        <ele>1600.1999511719</ele>
        <time>2023-09-30T10:21:39.000Z</time>
      </trkpt>
      <trkpt lat="46.01483" lon="6.76744">
        <ele>1599.8000488281</ele>
        <time>2023-09-30T10:21:41.000Z</time>
      </trkpt>
      <trkpt lat="46.01482" lon="6.76742">
        <ele>1599.4000244141</ele>
        <time>2023-09-30T10:21:42.000Z</time>
      </trkpt>
      <trkpt lat="46.01482" lon="6.76739">
        <ele>1599</ele>
        <time>2023-09-30T10:21:43.000Z</time>
      </trkpt>
      <trkpt lat="46.01481" lon="6.76736">
        <ele>1598.8000488281</ele>
        <time>2023-09-30T10:21:44.000Z</time>
      </trkpt>
      <trkpt lat="46.0148" lon="6.76733">
        <ele>1598.1999511719</ele>
        <time>2023-09-30T10:21:45.000Z</time>
      </trkpt>
      <trkpt lat="46.01479" lon="6.76731">
        <ele>1598</ele>
        <time>2023-09-30T10:21:46.000Z</time>
      </trkpt>
      <trkpt lat="46.01477" lon="6.76728">
        <ele>1597.1999511719</ele>
        <time>2023-09-30T10:21:47.000Z</time>
      </trkpt>
      <trkpt lat="46.01476" lon="6.76725">
        <ele>1597</ele>
        <time>2023-09-30T10:21:48.000Z</time>
      </trkpt>
      <trkpt lat="46.01475" lon="6.76719">
        <ele>1596.1999511719</ele>
        <time>2023-09-30T10:21:50.000Z</time>
      </trkpt>
      <trkpt lat="46.01474" lon="6.76715">
        <ele>1595.8000488281</ele>
        <time>2023-09-30T10:21:51.000Z</time>
      </trkpt>
      <trkpt lat="46.01474" lon="6.76712">
        <ele>1595.4000244141</ele>
        <time>2023-09-30T10:21:52.000Z</time>
      </trkpt>
      <trkpt lat="46.01473" lon="6.76709">
        <ele>1595.1999511719</ele>
        <time>2023-09-30T10:21:53.000Z</time>
      </trkpt>
      <trkpt lat="46.0147" lon="6.76707">
        <ele>1594.1999511719</ele>
        <time>2023-09-30T10:21:54.000Z</time>
      </trkpt>
      <trkpt lat="46.01469" lon="6.76704">
        <ele>1594</ele>
        <time>2023-09-30T10:21:55.000Z</time>
      </trkpt>
      <trkpt lat="46.01466" lon="6.76702">
        <ele>1593.1999511719</ele>
        <time>2023-09-30T10:21:56.000Z</time>
      </trkpt>
      <trkpt lat="46.01465" lon="6.767">
        <ele>1593</ele>
        <time>2023-09-30T10:21:57.000Z</time>
      </trkpt>
      <trkpt lat="46.01465" lon="6.76698">
        <ele>1592.4000244141</ele>
        <time>2023-09-30T10:21:58.000Z</time>
      </trkpt>
      <trkpt lat="46.01465" lon="6.76697">
        <ele>1592</ele>
        <time>2023-09-30T10:21:59.000Z</time>
      </trkpt>
      <trkpt lat="46.01465" lon="6.76695">
        <ele>1591.8000488281</ele>
        <time>2023-09-30T10:22:00.000Z</time>
      </trkpt>
      <trkpt lat="46.01465" lon="6.76695">
        <ele>1591.5999755859</ele>
        <time>2023-09-30T10:22:01.000Z</time>
      </trkpt>
      <trkpt lat="46.01466" lon="6.76695">
        <ele>1591.4000244141</ele>
        <time>2023-09-30T10:22:02.000Z</time>
      </trkpt>
      <trkpt lat="46.01466" lon="6.76695">
        <ele>1591</ele>
        <time>2023-09-30T10:22:03.000Z</time>
      </trkpt>
      <trkpt lat="46.01468" lon="6.76695">
        <ele>1590.5999755859</ele>
        <time>2023-09-30T10:22:04.000Z</time>
      </trkpt>
      <trkpt lat="46.01471" lon="6.76692">
        <ele>1589.5999755859</ele>
        <time>2023-09-30T10:22:06.000Z</time>
      </trkpt>
      <trkpt lat="46.01473" lon="6.76687">
        <ele>1589</ele>
        <time>2023-09-30T10:22:08.000Z</time>
      </trkpt>
      <trkpt lat="46.01474" lon="6.76685">
        <ele>1588.8000488281</ele>
        <time>2023-09-30T10:22:09.000Z</time>
      </trkpt>
      <trkpt lat="46.01475" lon="6.76683">
        <ele>1588.4000244141</ele>
        <time>2023-09-30T10:22:10.000Z</time>
      </trkpt>
      <trkpt lat="46.01475" lon="6.76682">
        <ele>1588</ele>
        <time>2023-09-30T10:22:11.000Z</time>
      </trkpt>
      <trkpt lat="46.01475" lon="6.76681">
        <ele>1587.5999755859</ele>
        <time>2023-09-30T10:22:12.000Z</time>
      </trkpt>
      <trkpt lat="46.01475" lon="6.76679">
        <ele>1587.1999511719</ele>
        <time>2023-09-30T10:22:13.000Z</time>
      </trkpt>
      <trkpt lat="46.01475" lon="6.76679">
        <ele>1587</ele>
        <time>2023-09-30T10:22:14.000Z</time>
      </trkpt>
      <trkpt lat="46.01475" lon="6.76679">
        <ele>1586.4000244141</ele>
        <time>2023-09-30T10:22:15.000Z</time>
      </trkpt>
      <trkpt lat="46.01474" lon="6.76678">
        <ele>1586.1999511719</ele>
        <time>2023-09-30T10:22:16.000Z</time>
      </trkpt>
      <trkpt lat="46.01474" lon="6.76678">
        <ele>1585.8000488281</ele>
        <time>2023-09-30T10:22:17.000Z</time>
      </trkpt>
      <trkpt lat="46.01474" lon="6.76678">
        <ele>1585</ele>
        <time>2023-09-30T10:22:19.000Z</time>
      </trkpt>
      <trkpt lat="46.01473" lon="6.76677">
        <ele>1584.8000488281</ele>
        <time>2023-09-30T10:22:21.000Z</time>
      </trkpt>
      <trkpt lat="46.01473" lon="6.76675">
        <ele>1584.5999755859</ele>
        <time>2023-09-30T10:22:24.000Z</time>
      </trkpt>
      <trkpt lat="46.01473" lon="6.76675">
        <ele>1584.5999755859</ele>
        <time>2023-09-30T10:22:25.000Z</time>
      </trkpt>
      <trkpt lat="46.01473" lon="6.76675">
        <ele>1584.4000244141</ele>
        <time>2023-09-30T10:22:30.000Z</time>
      </trkpt>
      <trkpt lat="46.01473" lon="6.76675">
        <ele>1584.1999511719</ele>
        <time>2023-09-30T10:22:33.000Z</time>
      </trkpt>
      <trkpt lat="46.01473" lon="6.76675">
        <ele>1583.8000488281</ele>
        <time>2023-09-30T10:22:39.000Z</time>
      </trkpt>
      <trkpt lat="46.01474" lon="6.76674">
        <ele>1583.8000488281</ele>
        <time>2023-09-30T10:22:40.000Z</time>
      </trkpt>
      <trkpt lat="46.01474" lon="6.76674">
        <ele>1583.5999755859</ele>
        <time>2023-09-30T10:22:42.000Z</time>
      </trkpt>
      <trkpt lat="46.01473" lon="6.76673">
        <ele>1583.4000244141</ele>
        <time>2023-09-30T10:22:44.000Z</time>
      </trkpt>
      <trkpt lat="46.01472" lon="6.76672">
        <ele>1583.4000244141</ele>
        <time>2023-09-30T10:22:45.000Z</time>
      </trkpt>
      <trkpt lat="46.01472" lon="6.76672">
        <ele>1583.1999511719</ele>
        <time>2023-09-30T10:22:46.000Z</time>
      </trkpt>
      <trkpt lat="46.01472" lon="6.76672">
        <ele>1583</ele>
        <time>2023-09-30T10:22:47.000Z</time>
      </trkpt>
      <trkpt lat="46.01473" lon="6.76669">
        <ele>1582.8000488281</ele>
        <time>2023-09-30T10:22:50.000Z</time>
      </trkpt>
      <trkpt lat="46.01473" lon="6.76666">
        <ele>1582.4000244141</ele>
        <time>2023-09-30T10:22:53.000Z</time>
      </trkpt>
      <trkpt lat="46.01473" lon="6.76666">
        <ele>1582.4000244141</ele>
        <time>2023-09-30T10:22:54.000Z</time>
      </trkpt>
      <trkpt lat="46.01471" lon="6.76665">
        <ele>1581.4000244141</ele>
        <time>2023-09-30T10:23:00.000Z</time>
      </trkpt>
      <trkpt lat="46.0147" lon="6.76664">
        <ele>1581</ele>
        <time>2023-09-30T10:23:01.000Z</time>
      </trkpt>
      <trkpt lat="46.01468" lon="6.76663">
        <ele>1580.8000488281</ele>
        <time>2023-09-30T10:23:02.000Z</time>
      </trkpt>
      <trkpt lat="46.01468" lon="6.76663">
        <ele>1580</ele>
        <time>2023-09-30T10:23:05.000Z</time>
      </trkpt>
      <trkpt lat="46.01468" lon="6.76663">
        <ele>1579.4000244141</ele>
        <time>2023-09-30T10:23:06.000Z</time>
      </trkpt>
      <trkpt lat="46.01468" lon="6.76663">
        <ele>1578.8000488281</ele>
        <time>2023-09-30T10:23:08.000Z</time>
      </trkpt>
      <trkpt lat="46.01467" lon="6.76662">
        <ele>1577.8000488281</ele>
        <time>2023-09-30T10:23:18.000Z</time>
      </trkpt>
      <trkpt lat="46.01467" lon="6.76662">
        <ele>1578.1999511719</ele>
        <time>2023-09-30T10:23:37.000Z</time>
      </trkpt>
      <trkpt lat="46.01467" lon="6.76662">
        <ele>1577</ele>
        <time>2023-09-30T10:23:47.000Z</time>
      </trkpt>
      <trkpt lat="46.01466" lon="6.76655">
        <ele>1576.4000244141</ele>
        <time>2023-09-30T10:23:52.000Z</time>
      </trkpt>
      <trkpt lat="46.01464" lon="6.76652">
        <ele>1575.8000488281</ele>
        <time>2023-09-30T10:23:55.000Z</time>
      </trkpt>
      <trkpt lat="46.01465" lon="6.7665">
        <ele>1575.8000488281</ele>
        <time>2023-09-30T10:23:56.000Z</time>
      </trkpt>
      <trkpt lat="46.01465" lon="6.76649">
        <ele>1575.5999755859</ele>
        <time>2023-09-30T10:23:57.000Z</time>
      </trkpt>
      <trkpt lat="46.01466" lon="6.76649">
        <ele>1575</ele>
        <time>2023-09-30T10:24:00.000Z</time>
      </trkpt>
      <trkpt lat="46.01466" lon="6.76649">
        <ele>1574.1999511719</ele>
        <time>2023-09-30T10:24:02.000Z</time>
      </trkpt>
      <trkpt lat="46.01468" lon="6.76649">
        <ele>1573.8000488281</ele>
        <time>2023-09-30T10:24:04.000Z</time>
      </trkpt>
      <trkpt lat="46.01469" lon="6.76646">
        <ele>1573.5999755859</ele>
        <time>2023-09-30T10:24:06.000Z</time>
      </trkpt>
      <trkpt lat="46.01459" lon="6.76644">
        <ele>1572.8000488281</ele>
        <time>2023-09-30T10:24:10.000Z</time>
      </trkpt>
      <trkpt lat="46.01455" lon="6.76644">
        <ele>1572.5999755859</ele>
        <time>2023-09-30T10:24:11.000Z</time>
      </trkpt>
      <trkpt lat="46.01445" lon="6.76645">
        <ele>1572</ele>
        <time>2023-09-30T10:24:14.000Z</time>
      </trkpt>
      <trkpt lat="46.0144" lon="6.76644">
        <ele>1571.5999755859</ele>
        <time>2023-09-30T10:24:15.000Z</time>
      </trkpt>
      <trkpt lat="46.01429" lon="6.7664">
        <ele>1570.4000244141</ele>
        <time>2023-09-30T10:24:18.000Z</time>
      </trkpt>
      <trkpt lat="46.01428" lon="6.76639">
        <ele>1569.8000488281</ele>
        <time>2023-09-30T10:24:19.000Z</time>
      </trkpt>
      <trkpt lat="46.01426" lon="6.76638">
        <ele>1568.5999755859</ele>
        <time>2023-09-30T10:24:20.000Z</time>
      </trkpt>
      <trkpt lat="46.01424" lon="6.76637">
        <ele>1568</ele>
        <time>2023-09-30T10:24:21.000Z</time>
      </trkpt>
      <trkpt lat="46.01423" lon="6.76636">
        <ele>1567.4000244141</ele>
        <time>2023-09-30T10:24:22.000Z</time>
      </trkpt>
      <trkpt lat="46.01422" lon="6.76634">
        <ele>1566.8000488281</ele>
        <time>2023-09-30T10:24:23.000Z</time>
      </trkpt>
      <trkpt lat="46.01422" lon="6.76633">
        <ele>1566.4000244141</ele>
        <time>2023-09-30T10:24:24.000Z</time>
      </trkpt>
      <trkpt lat="46.01421" lon="6.76633">
        <ele>1565.8000488281</ele>
        <time>2023-09-30T10:24:25.000Z</time>
      </trkpt>
      <trkpt lat="46.01419" lon="6.76632">
        <ele>1565.4000244141</ele>
        <time>2023-09-30T10:24:26.000Z</time>
      </trkpt>
      <trkpt lat="46.01418" lon="6.76631">
        <ele>1564.8000488281</ele>
        <time>2023-09-30T10:24:27.000Z</time>
      </trkpt>
      <trkpt lat="46.01417" lon="6.7663">
        <ele>1564.5999755859</ele>
        <time>2023-09-30T10:24:28.000Z</time>
      </trkpt>
      <trkpt lat="46.01416" lon="6.7663">
        <ele>1564.1999511719</ele>
        <time>2023-09-30T10:24:29.000Z</time>
      </trkpt>
      <trkpt lat="46.01415" lon="6.76631">
        <ele>1563.8000488281</ele>
        <time>2023-09-30T10:24:30.000Z</time>
      </trkpt>
      <trkpt lat="46.01414" lon="6.7663">
        <ele>1562.8000488281</ele>
        <time>2023-09-30T10:24:33.000Z</time>
      </trkpt>
      <trkpt lat="46.01413" lon="6.76629">
        <ele>1562.4000244141</ele>
        <time>2023-09-30T10:24:34.000Z</time>
      </trkpt>
      <trkpt lat="46.01409" lon="6.76629">
        <ele>1562</ele>
        <time>2023-09-30T10:24:36.000Z</time>
      </trkpt>
      <trkpt lat="46.01408" lon="6.76629">
        <ele>1561.5999755859</ele>
        <time>2023-09-30T10:24:37.000Z</time>
      </trkpt>
      <trkpt lat="46.01403" lon="6.76626">
        <ele>1560.5999755859</ele>
        <time>2023-09-30T10:24:40.000Z</time>
      </trkpt>
      <trkpt lat="46.01402" lon="6.76625">
        <ele>1560.1999511719</ele>
        <time>2023-09-30T10:24:41.000Z</time>
      </trkpt>
      <trkpt lat="46.01398" lon="6.76621">
        <ele>1559.4000244141</ele>
        <time>2023-09-30T10:24:44.000Z</time>
      </trkpt>
      <trkpt lat="46.01397" lon="6.76619">
        <ele>1559.1999511719</ele>
        <time>2023-09-30T10:24:45.000Z</time>
      </trkpt>
      <trkpt lat="46.01397" lon="6.76617">
        <ele>1559</ele>
        <time>2023-09-30T10:24:46.000Z</time>
      </trkpt>
      <trkpt lat="46.01396" lon="6.76616">
        <ele>1558.8000488281</ele>
        <time>2023-09-30T10:24:47.000Z</time>
      </trkpt>
      <trkpt lat="46.01396" lon="6.76615">
        <ele>1558.4000244141</ele>
        <time>2023-09-30T10:24:48.000Z</time>
      </trkpt>
      <trkpt lat="46.01396" lon="6.76614">
        <ele>1558.1999511719</ele>
        <time>2023-09-30T10:24:49.000Z</time>
      </trkpt>
      <trkpt lat="46.01396" lon="6.76614">
        <ele>1558</ele>
        <time>2023-09-30T10:24:50.000Z</time>
      </trkpt>
      <trkpt lat="46.01395" lon="6.76611">
        <ele>1556.8000488281</ele>
        <time>2023-09-30T10:24:53.000Z</time>
      </trkpt>
      <trkpt lat="46.01394" lon="6.7661">
        <ele>1556.4000244141</ele>
        <time>2023-09-30T10:24:54.000Z</time>
      </trkpt>
      <trkpt lat="46.01393" lon="6.7661">
        <ele>1556</ele>
        <time>2023-09-30T10:24:55.000Z</time>
      </trkpt>
      <trkpt lat="46.01392" lon="6.76608">
        <ele>1555.8000488281</ele>
        <time>2023-09-30T10:24:56.000Z</time>
      </trkpt>
      <trkpt lat="46.01389" lon="6.76606">
        <ele>1555</ele>
        <time>2023-09-30T10:24:58.000Z</time>
      </trkpt>
      <trkpt lat="46.01387" lon="6.76607">
        <ele>1554.8000488281</ele>
        <time>2023-09-30T10:24:59.000Z</time>
      </trkpt>
      <trkpt lat="46.01385" lon="6.76608">
        <ele>1554.5999755859</ele>
        <time>2023-09-30T10:25:00.000Z</time>
      </trkpt>
      <trkpt lat="46.01383" lon="6.76608">
        <ele>1554.4000244141</ele>
        <time>2023-09-30T10:25:01.000Z</time>
      </trkpt>
      <trkpt lat="46.01382" lon="6.76606">
        <ele>1554</ele>
        <time>2023-09-30T10:25:02.000Z</time>
      </trkpt>
      <trkpt lat="46.01382" lon="6.76604">
        <ele>1553.8000488281</ele>
        <time>2023-09-30T10:25:03.000Z</time>
      </trkpt>
      <trkpt lat="46.01382" lon="6.76601">
        <ele>1553.1999511719</ele>
        <time>2023-09-30T10:25:04.000Z</time>
      </trkpt>
      <trkpt lat="46.01381" lon="6.76598">
        <ele>1552.8000488281</ele>
        <time>2023-09-30T10:25:05.000Z</time>
      </trkpt>
      <trkpt lat="46.0138" lon="6.76595">
        <ele>1552.8000488281</ele>
        <time>2023-09-30T10:25:06.000Z</time>
      </trkpt>
      <trkpt lat="46.01376" lon="6.7659">
        <ele>1552.4000244141</ele>
        <time>2023-09-30T10:25:08.000Z</time>
      </trkpt>
      <trkpt lat="46.01375" lon="6.76587">
        <ele>1552.1999511719</ele>
        <time>2023-09-30T10:25:09.000Z</time>
      </trkpt>
      <trkpt lat="46.01374" lon="6.76583">
        <ele>1551.8000488281</ele>
        <time>2023-09-30T10:25:11.000Z</time>
      </trkpt>
      <trkpt lat="46.01374" lon="6.76581">
        <ele>1551.4000244141</ele>
        <time>2023-09-30T10:25:12.000Z</time>
      </trkpt>
      <trkpt lat="46.01372" lon="6.76578">
        <ele>1551.1999511719</ele>
        <time>2023-09-30T10:25:13.000Z</time>
      </trkpt>
      <trkpt lat="46.01372" lon="6.76575">
        <ele>1550.5999755859</ele>
        <time>2023-09-30T10:25:14.000Z</time>
      </trkpt>
      <trkpt lat="46.01371" lon="6.76573">
        <ele>1550</ele>
        <time>2023-09-30T10:25:15.000Z</time>
      </trkpt>
      <trkpt lat="46.01369" lon="6.76569">
        <ele>1549.4000244141</ele>
        <time>2023-09-30T10:25:16.000Z</time>
      </trkpt>
      <trkpt lat="46.01365" lon="6.76562">
        <ele>1548.1999511719</ele>
        <time>2023-09-30T10:25:19.000Z</time>
      </trkpt>
      <trkpt lat="46.01365" lon="6.76561">
        <ele>1547.8000488281</ele>
        <time>2023-09-30T10:25:20.000Z</time>
      </trkpt>
      <trkpt lat="46.01365" lon="6.76559">
        <ele>1547.4000244141</ele>
        <time>2023-09-30T10:25:21.000Z</time>
      </trkpt>
      <trkpt lat="46.01367" lon="6.76557">
        <ele>1546.8000488281</ele>
        <time>2023-09-30T10:25:22.000Z</time>
      </trkpt>
      <trkpt lat="46.01368" lon="6.76556">
        <ele>1545.5999755859</ele>
        <time>2023-09-30T10:25:23.000Z</time>
      </trkpt>
      <trkpt lat="46.01371" lon="6.76556">
        <ele>1545</ele>
        <time>2023-09-30T10:25:24.000Z</time>
      </trkpt>
      <trkpt lat="46.01372" lon="6.76556">
        <ele>1544.5999755859</ele>
        <time>2023-09-30T10:25:25.000Z</time>
      </trkpt>
      <trkpt lat="46.01372" lon="6.76556">
        <ele>1544</ele>
        <time>2023-09-30T10:25:26.000Z</time>
      </trkpt>
      <trkpt lat="46.01372" lon="6.76556">
        <ele>1543.1999511719</ele>
        <time>2023-09-30T10:25:28.000Z</time>
      </trkpt>
      <trkpt lat="46.01372" lon="6.76556">
        <ele>1542.5999755859</ele>
        <time>2023-09-30T10:25:30.000Z</time>
      </trkpt>
      <trkpt lat="46.01372" lon="6.76556">
        <ele>1541.4000244141</ele>
        <time>2023-09-30T10:25:37.000Z</time>
      </trkpt>
      <trkpt lat="46.01372" lon="6.76556">
        <ele>1541.4000244141</ele>
        <time>2023-09-30T10:25:38.000Z</time>
      </trkpt>
      <trkpt lat="46.01372" lon="6.76556">
        <ele>1541</ele>
        <time>2023-09-30T10:25:47.000Z</time>
      </trkpt>
      <trkpt lat="46.01374" lon="6.76556">
        <ele>1540.8000488281</ele>
        <time>2023-09-30T10:25:50.000Z</time>
      </trkpt>
      <trkpt lat="46.01378" lon="6.76557">
        <ele>1540.4000244141</ele>
        <time>2023-09-30T10:25:52.000Z</time>
      </trkpt>
      <trkpt lat="46.01381" lon="6.76556">
        <ele>1540.4000244141</ele>
        <time>2023-09-30T10:25:53.000Z</time>
      </trkpt>
      <trkpt lat="46.01384" lon="6.76555">
        <ele>1540</ele>
        <time>2023-09-30T10:25:55.000Z</time>
      </trkpt>
      <trkpt lat="46.01386" lon="6.76554">
        <ele>1539.8000488281</ele>
        <time>2023-09-30T10:25:56.000Z</time>
      </trkpt>
      <trkpt lat="46.01387" lon="6.76554">
        <ele>1539.8000488281</ele>
        <time>2023-09-30T10:25:57.000Z</time>
      </trkpt>
      <trkpt lat="46.01388" lon="6.76553">
        <ele>1539.1999511719</ele>
        <time>2023-09-30T10:25:58.000Z</time>
      </trkpt>
      <trkpt lat="46.01387" lon="6.76551">
        <ele>1538.8000488281</ele>
        <time>2023-09-30T10:25:59.000Z</time>
      </trkpt>
      <trkpt lat="46.01383" lon="6.76549">
        <ele>1538</ele>
        <time>2023-09-30T10:26:01.000Z</time>
      </trkpt>
      <trkpt lat="46.01382" lon="6.76547">
        <ele>1537.5999755859</ele>
        <time>2023-09-30T10:26:02.000Z</time>
      </trkpt>
      <trkpt lat="46.01381" lon="6.76545">
        <ele>1537.1999511719</ele>
        <time>2023-09-30T10:26:03.000Z</time>
      </trkpt>
      <trkpt lat="46.0138" lon="6.76544">
        <ele>1537</ele>
        <time>2023-09-30T10:26:04.000Z</time>
      </trkpt>
      <trkpt lat="46.01379" lon="6.76542">
        <ele>1536.5999755859</ele>
        <time>2023-09-30T10:26:05.000Z</time>
      </trkpt>
      <trkpt lat="46.0138" lon="6.7654">
        <ele>1536.4000244141</ele>
        <time>2023-09-30T10:26:06.000Z</time>
      </trkpt>
      <trkpt lat="46.0138" lon="6.76539">
        <ele>1536</ele>
        <time>2023-09-30T10:26:07.000Z</time>
      </trkpt>
      <trkpt lat="46.01381" lon="6.76539">
        <ele>1535.4000244141</ele>
        <time>2023-09-30T10:26:08.000Z</time>
      </trkpt>
      <trkpt lat="46.01382" lon="6.76539">
        <ele>1535.1999511719</ele>
        <time>2023-09-30T10:26:09.000Z</time>
      </trkpt>
      <trkpt lat="46.01383" lon="6.76539">
        <ele>1535</ele>
        <time>2023-09-30T10:26:10.000Z</time>
      </trkpt>
      <trkpt lat="46.01386" lon="6.76539">
        <ele>1534.8000488281</ele>
        <time>2023-09-30T10:26:11.000Z</time>
      </trkpt>
      <trkpt lat="46.01392" lon="6.7654">
        <ele>1534.4000244141</ele>
        <time>2023-09-30T10:26:13.000Z</time>
      </trkpt>
      <trkpt lat="46.01395" lon="6.7654">
        <ele>1534</ele>
        <time>2023-09-30T10:26:14.000Z</time>
      </trkpt>
      <trkpt lat="46.01397" lon="6.7654">
        <ele>1533.5999755859</ele>
        <time>2023-09-30T10:26:15.000Z</time>
      </trkpt>
      <trkpt lat="46.01399" lon="6.7654">
        <ele>1533.4000244141</ele>
        <time>2023-09-30T10:26:16.000Z</time>
      </trkpt>
      <trkpt lat="46.014" lon="6.7654">
        <ele>1533.4000244141</ele>
        <time>2023-09-30T10:26:17.000Z</time>
      </trkpt>
      <trkpt lat="46.01401" lon="6.76541">
        <ele>1533.1999511719</ele>
        <time>2023-09-30T10:26:18.000Z</time>
      </trkpt>
      <trkpt lat="46.01402" lon="6.7654">
        <ele>1532.4000244141</ele>
        <time>2023-09-30T10:26:19.000Z</time>
      </trkpt>
      <trkpt lat="46.01403" lon="6.76539">
        <ele>1532.1999511719</ele>
        <time>2023-09-30T10:26:20.000Z</time>
      </trkpt>
      <trkpt lat="46.01404" lon="6.76539">
        <ele>1531.4000244141</ele>
        <time>2023-09-30T10:26:21.000Z</time>
      </trkpt>
      <trkpt lat="46.01404" lon="6.76539">
        <ele>1530.4000244141</ele>
        <time>2023-09-30T10:26:22.000Z</time>
      </trkpt>
      <trkpt lat="46.01404" lon="6.76539">
        <ele>1530</ele>
        <time>2023-09-30T10:26:23.000Z</time>
      </trkpt>
      <trkpt lat="46.01405" lon="6.76541">
        <ele>1528.8000488281</ele>
        <time>2023-09-30T10:26:26.000Z</time>
      </trkpt>
      <trkpt lat="46.01405" lon="6.76541">
        <ele>1528.1999511719</ele>
        <time>2023-09-30T10:26:29.000Z</time>
      </trkpt>
      <trkpt lat="46.01405" lon="6.76544">
        <ele>1527.5999755859</ele>
        <time>2023-09-30T10:26:34.000Z</time>
      </trkpt>
      <trkpt lat="46.01405" lon="6.76544">
        <ele>1527.1999511719</ele>
        <time>2023-09-30T10:26:36.000Z</time>
      </trkpt>
      <trkpt lat="46.01405" lon="6.76544">
        <ele>1527</ele>
        <time>2023-09-30T10:26:38.000Z</time>
      </trkpt>
      <trkpt lat="46.01405" lon="6.76544">
        <ele>1526.5999755859</ele>
        <time>2023-09-30T10:26:40.000Z</time>
      </trkpt>
      <trkpt lat="46.01407" lon="6.76544">
        <ele>1526.5999755859</ele>
        <time>2023-09-30T10:27:47.000Z</time>
      </trkpt>
      <trkpt lat="46.01408" lon="6.76543">
        <ele>1526.8000488281</ele>
        <time>2023-09-30T10:27:49.000Z</time>
      </trkpt>
      <trkpt lat="46.01409" lon="6.76542">
        <ele>1526.4000244141</ele>
        <time>2023-09-30T10:27:54.000Z</time>
      </trkpt>
      <trkpt lat="46.01413" lon="6.7654">
        <ele>1525.5999755859</ele>
        <time>2023-09-30T10:28:00.000Z</time>
      </trkpt>
      <trkpt lat="46.01414" lon="6.76539">
        <ele>1525.5999755859</ele>
        <time>2023-09-30T10:28:01.000Z</time>
      </trkpt>
      <trkpt lat="46.01416" lon="6.76538">
        <ele>1524.4000244141</ele>
        <time>2023-09-30T10:28:05.000Z</time>
      </trkpt>
      <trkpt lat="46.01422" lon="6.76534">
        <ele>1523.1999511719</ele>
        <time>2023-09-30T10:28:09.000Z</time>
      </trkpt>
      <trkpt lat="46.01427" lon="6.76531">
        <ele>1522.1999511719</ele>
        <time>2023-09-30T10:28:12.000Z</time>
      </trkpt>
      <trkpt lat="46.01428" lon="6.7653">
        <ele>1521.5999755859</ele>
        <time>2023-09-30T10:28:13.000Z</time>
      </trkpt>
      <trkpt lat="46.01432" lon="6.76525">
        <ele>1520.8000488281</ele>
        <time>2023-09-30T10:28:16.000Z</time>
      </trkpt>
      <trkpt lat="46.01433" lon="6.76522">
        <ele>1520.5999755859</ele>
        <time>2023-09-30T10:28:17.000Z</time>
      </trkpt>
      <trkpt lat="46.01435" lon="6.7652">
        <ele>1520</ele>
        <time>2023-09-30T10:28:18.000Z</time>
      </trkpt>
      <trkpt lat="46.01436" lon="6.76518">
        <ele>1519.8000488281</ele>
        <time>2023-09-30T10:28:19.000Z</time>
      </trkpt>
      <trkpt lat="46.01437" lon="6.76517">
        <ele>1519</ele>
        <time>2023-09-30T10:28:20.000Z</time>
      </trkpt>
      <trkpt lat="46.01437" lon="6.76516">
        <ele>1518.4000244141</ele>
        <time>2023-09-30T10:28:21.000Z</time>
      </trkpt>
      <trkpt lat="46.01438" lon="6.76515">
        <ele>1517.8000488281</ele>
        <time>2023-09-30T10:28:22.000Z</time>
      </trkpt>
      <trkpt lat="46.01439" lon="6.76513">
        <ele>1517.1999511719</ele>
        <time>2023-09-30T10:28:23.000Z</time>
      </trkpt>
      <trkpt lat="46.01439" lon="6.7651">
        <ele>1516.8000488281</ele>
        <time>2023-09-30T10:28:24.000Z</time>
      </trkpt>
      <trkpt lat="46.0144" lon="6.76507">
        <ele>1516.4000244141</ele>
        <time>2023-09-30T10:28:25.000Z</time>
      </trkpt>
      <trkpt lat="46.0144" lon="6.76504">
        <ele>1516.4000244141</ele>
        <time>2023-09-30T10:28:26.000Z</time>
      </trkpt>
      <trkpt lat="46.01441" lon="6.76502">
        <ele>1516</ele>
        <time>2023-09-30T10:28:27.000Z</time>
      </trkpt>
      <trkpt lat="46.01442" lon="6.765">
        <ele>1515.1999511719</ele>
        <time>2023-09-30T10:28:28.000Z</time>
      </trkpt>
      <trkpt lat="46.01442" lon="6.76497">
        <ele>1514.8000488281</ele>
        <time>2023-09-30T10:28:29.000Z</time>
      </trkpt>
      <trkpt lat="46.01441" lon="6.76496">
        <ele>1513.8000488281</ele>
        <time>2023-09-30T10:28:30.000Z</time>
      </trkpt>
      <trkpt lat="46.0144" lon="6.76495">
        <ele>1513.4000244141</ele>
        <time>2023-09-30T10:28:31.000Z</time>
      </trkpt>
      <trkpt lat="46.0144" lon="6.76495">
        <ele>1511.8000488281</ele>
        <time>2023-09-30T10:28:32.000Z</time>
      </trkpt>
      <trkpt lat="46.0144" lon="6.76494">
        <ele>1510.8000488281</ele>
        <time>2023-09-30T10:28:35.000Z</time>
      </trkpt>
      <trkpt lat="46.01437" lon="6.76491">
        <ele>1510.5999755859</ele>
        <time>2023-09-30T10:28:37.000Z</time>
      </trkpt>
      <trkpt lat="46.01433" lon="6.76491">
        <ele>1510.4000244141</ele>
        <time>2023-09-30T10:28:39.000Z</time>
      </trkpt>
      <trkpt lat="46.01431" lon="6.7649">
        <ele>1510.4000244141</ele>
        <time>2023-09-30T10:28:40.000Z</time>
      </trkpt>
      <trkpt lat="46.01429" lon="6.76488">
        <ele>1510.1999511719</ele>
        <time>2023-09-30T10:28:41.000Z</time>
      </trkpt>
      <trkpt lat="46.01428" lon="6.76488">
        <ele>1510</ele>
        <time>2023-09-30T10:28:42.000Z</time>
      </trkpt>
      <trkpt lat="46.01427" lon="6.76487">
        <ele>1510</ele>
        <time>2023-09-30T10:28:43.000Z</time>
      </trkpt>
      <trkpt lat="46.01426" lon="6.76487">
        <ele>1509.5999755859</ele>
        <time>2023-09-30T10:28:44.000Z</time>
      </trkpt>
      <trkpt lat="46.01425" lon="6.76487">
        <ele>1509.4000244141</ele>
        <time>2023-09-30T10:28:45.000Z</time>
      </trkpt>
      <trkpt lat="46.01425" lon="6.76486">
        <ele>1509</ele>
        <time>2023-09-30T10:28:46.000Z</time>
      </trkpt>
      <trkpt lat="46.01425" lon="6.76486">
        <ele>1508.4000244141</ele>
        <time>2023-09-30T10:28:48.000Z</time>
      </trkpt>
      <trkpt lat="46.01425" lon="6.76483">
        <ele>1508</ele>
        <time>2023-09-30T10:28:50.000Z</time>
      </trkpt>
      <trkpt lat="46.01426" lon="6.7648">
        <ele>1507.8000488281</ele>
        <time>2023-09-30T10:28:52.000Z</time>
      </trkpt>
      <trkpt lat="46.01425" lon="6.7648">
        <ele>1507.5999755859</ele>
        <time>2023-09-30T10:28:53.000Z</time>
      </trkpt>
      <trkpt lat="46.01425" lon="6.76479">
        <ele>1507.4000244141</ele>
        <time>2023-09-30T10:28:54.000Z</time>
      </trkpt>
      <trkpt lat="46.01424" lon="6.76477">
        <ele>1507.1999511719</ele>
        <time>2023-09-30T10:28:55.000Z</time>
      </trkpt>
      <trkpt lat="46.01423" lon="6.76477">
        <ele>1506.5999755859</ele>
        <time>2023-09-30T10:28:56.000Z</time>
      </trkpt>
      <trkpt lat="46.01423" lon="6.76477">
        <ele>1506.4000244141</ele>
        <time>2023-09-30T10:28:57.000Z</time>
      </trkpt>
      <trkpt lat="46.01423" lon="6.76477">
        <ele>1506</ele>
        <time>2023-09-30T10:28:58.000Z</time>
      </trkpt>
      <trkpt lat="46.01422" lon="6.76476">
        <ele>1505.8000488281</ele>
        <time>2023-09-30T10:28:59.000Z</time>
      </trkpt>
      <trkpt lat="46.01421" lon="6.76474">
        <ele>1505.5999755859</ele>
        <time>2023-09-30T10:29:00.000Z</time>
      </trkpt>
      <trkpt lat="46.0142" lon="6.76472">
        <ele>1505.1999511719</ele>
        <time>2023-09-30T10:29:01.000Z</time>
      </trkpt>
      <trkpt lat="46.01419" lon="6.7647">
        <ele>1504.8000488281</ele>
        <time>2023-09-30T10:29:02.000Z</time>
      </trkpt>
      <trkpt lat="46.0142" lon="6.76468">
        <ele>1504.4000244141</ele>
        <time>2023-09-30T10:29:03.000Z</time>
      </trkpt>
      <trkpt lat="46.01419" lon="6.76464">
        <ele>1504.1999511719</ele>
        <time>2023-09-30T10:29:04.000Z</time>
      </trkpt>
      <trkpt lat="46.01418" lon="6.76462">
        <ele>1503.5999755859</ele>
        <time>2023-09-30T10:29:05.000Z</time>
      </trkpt>
      <trkpt lat="46.01417" lon="6.76459">
        <ele>1503.4000244141</ele>
        <time>2023-09-30T10:29:06.000Z</time>
      </trkpt>
      <trkpt lat="46.01415" lon="6.76457">
        <ele>1503</ele>
        <time>2023-09-30T10:29:07.000Z</time>
      </trkpt>
      <trkpt lat="46.01413" lon="6.76455">
        <ele>1502.8000488281</ele>
        <time>2023-09-30T10:29:08.000Z</time>
      </trkpt>
      <trkpt lat="46.01411" lon="6.76454">
        <ele>1502.4000244141</ele>
        <time>2023-09-30T10:29:09.000Z</time>
      </trkpt>
      <trkpt lat="46.01409" lon="6.76454">
        <ele>1502</ele>
        <time>2023-09-30T10:29:10.000Z</time>
      </trkpt>
      <trkpt lat="46.01408" lon="6.76454">
        <ele>1501.5999755859</ele>
        <time>2023-09-30T10:29:11.000Z</time>
      </trkpt>
      <trkpt lat="46.01407" lon="6.76454">
        <ele>1501.4000244141</ele>
        <time>2023-09-30T10:29:12.000Z</time>
      </trkpt>
      <trkpt lat="46.01406" lon="6.76453">
        <ele>1501.4000244141</ele>
        <time>2023-09-30T10:29:13.000Z</time>
      </trkpt>
      <trkpt lat="46.01405" lon="6.76451">
        <ele>1500.5999755859</ele>
        <time>2023-09-30T10:29:14.000Z</time>
      </trkpt>
      <trkpt lat="46.01403" lon="6.76449">
        <ele>1500.1999511719</ele>
        <time>2023-09-30T10:29:15.000Z</time>
      </trkpt>
      <trkpt lat="46.01398" lon="6.76446">
        <ele>1499.1999511719</ele>
        <time>2023-09-30T10:29:17.000Z</time>
      </trkpt>
      <trkpt lat="46.01393" lon="6.76444">
        <ele>1498.5999755859</ele>
        <time>2023-09-30T10:29:19.000Z</time>
      </trkpt>
      <trkpt lat="46.01392" lon="6.76442">
        <ele>1498.4000244141</ele>
        <time>2023-09-30T10:29:20.000Z</time>
      </trkpt>
      <trkpt lat="46.01392" lon="6.76439">
        <ele>1498</ele>
        <time>2023-09-30T10:29:21.000Z</time>
      </trkpt>
      <trkpt lat="46.01392" lon="6.76437">
        <ele>1497.4000244141</ele>
        <time>2023-09-30T10:29:22.000Z</time>
      </trkpt>
      <trkpt lat="46.01393" lon="6.76434">
        <ele>1496.5999755859</ele>
        <time>2023-09-30T10:29:23.000Z</time>
      </trkpt>
      <trkpt lat="46.01394" lon="6.76432">
        <ele>1496</ele>
        <time>2023-09-30T10:29:24.000Z</time>
      </trkpt>
      <trkpt lat="46.01395" lon="6.7643">
        <ele>1495.8000488281</ele>
        <time>2023-09-30T10:29:25.000Z</time>
      </trkpt>
      <trkpt lat="46.01395" lon="6.76428">
        <ele>1495.4000244141</ele>
        <time>2023-09-30T10:29:26.000Z</time>
      </trkpt>
      <trkpt lat="46.01396" lon="6.76426">
        <ele>1495.4000244141</ele>
        <time>2023-09-30T10:29:27.000Z</time>
      </trkpt>
      <trkpt lat="46.01396" lon="6.76425">
        <ele>1495</ele>
        <time>2023-09-30T10:29:28.000Z</time>
      </trkpt>
      <trkpt lat="46.01396" lon="6.76424">
        <ele>1495</ele>
        <time>2023-09-30T10:29:29.000Z</time>
      </trkpt>
      <trkpt lat="46.01396" lon="6.76424">
        <ele>1494.5999755859</ele>
        <time>2023-09-30T10:29:34.000Z</time>
      </trkpt>
      <trkpt lat="46.01396" lon="6.76424">
        <ele>1494.5999755859</ele>
        <time>2023-09-30T10:29:35.000Z</time>
      </trkpt>
      <trkpt lat="46.01395" lon="6.76422">
        <ele>1494.5999755859</ele>
        <time>2023-09-30T10:29:37.000Z</time>
      </trkpt>
      <trkpt lat="46.01395" lon="6.76418">
        <ele>1494.4000244141</ele>
        <time>2023-09-30T10:29:39.000Z</time>
      </trkpt>
      <trkpt lat="46.01392" lon="6.76414">
        <ele>1494.1999511719</ele>
        <time>2023-09-30T10:29:42.000Z</time>
      </trkpt>
      <trkpt lat="46.0139" lon="6.7641">
        <ele>1494</ele>
        <time>2023-09-30T10:29:44.000Z</time>
      </trkpt>
      <trkpt lat="46.01389" lon="6.76408">
        <ele>1493.5999755859</ele>
        <time>2023-09-30T10:29:45.000Z</time>
      </trkpt>
      <trkpt lat="46.01388" lon="6.76406">
        <ele>1493.4000244141</ele>
        <time>2023-09-30T10:29:46.000Z</time>
      </trkpt>
      <trkpt lat="46.01388" lon="6.76405">
        <ele>1493.1999511719</ele>
        <time>2023-09-30T10:29:47.000Z</time>
      </trkpt>
      <trkpt lat="46.01387" lon="6.76403">
        <ele>1493</ele>
        <time>2023-09-30T10:29:48.000Z</time>
      </trkpt>
      <trkpt lat="46.01388" lon="6.76401">
        <ele>1492.1999511719</ele>
        <time>2023-09-30T10:29:49.000Z</time>
      </trkpt>
      <trkpt lat="46.01389" lon="6.76399">
        <ele>1491.8000488281</ele>
        <time>2023-09-30T10:29:51.000Z</time>
      </trkpt>
      <trkpt lat="46.01388" lon="6.76397">
        <ele>1491.4000244141</ele>
        <time>2023-09-30T10:29:52.000Z</time>
      </trkpt>
      <trkpt lat="46.01388" lon="6.76395">
        <ele>1491.1999511719</ele>
        <time>2023-09-30T10:29:53.000Z</time>
      </trkpt>
      <trkpt lat="46.01387" lon="6.76394">
        <ele>1490.5999755859</ele>
        <time>2023-09-30T10:29:54.000Z</time>
      </trkpt>
      <trkpt lat="46.01388" lon="6.76392">
        <ele>1490.4000244141</ele>
        <time>2023-09-30T10:29:55.000Z</time>
      </trkpt>
      <trkpt lat="46.01387" lon="6.7639">
        <ele>1489.8000488281</ele>
        <time>2023-09-30T10:29:56.000Z</time>
      </trkpt>
      <trkpt lat="46.01386" lon="6.76388">
        <ele>1489.5999755859</ele>
        <time>2023-09-30T10:29:57.000Z</time>
      </trkpt>
      <trkpt lat="46.01385" lon="6.76384">
        <ele>1489.1999511719</ele>
        <time>2023-09-30T10:29:59.000Z</time>
      </trkpt>
      <trkpt lat="46.01384" lon="6.76382">
        <ele>1489.1999511719</ele>
        <time>2023-09-30T10:30:00.000Z</time>
      </trkpt>
      <trkpt lat="46.01381" lon="6.76374">
        <ele>1488.5999755859</ele>
        <time>2023-09-30T10:30:03.000Z</time>
      </trkpt>
      <trkpt lat="46.01381" lon="6.76372">
        <ele>1488.5999755859</ele>
        <time>2023-09-30T10:30:04.000Z</time>
      </trkpt>
      <trkpt lat="46.01379" lon="6.76371">
        <ele>1488.1999511719</ele>
        <time>2023-09-30T10:30:05.000Z</time>
      </trkpt>
      <trkpt lat="46.01378" lon="6.76369">
        <ele>1487.8000488281</ele>
        <time>2023-09-30T10:30:06.000Z</time>
      </trkpt>
      <trkpt lat="46.01376" lon="6.76367">
        <ele>1487.5999755859</ele>
        <time>2023-09-30T10:30:07.000Z</time>
      </trkpt>
      <trkpt lat="46.0137" lon="6.76357">
        <ele>1486.8000488281</ele>
        <time>2023-09-30T10:30:10.000Z</time>
      </trkpt>
      <trkpt lat="46.0137" lon="6.76354">
        <ele>1486</ele>
        <time>2023-09-30T10:30:11.000Z</time>
      </trkpt>
      <trkpt lat="46.01368" lon="6.76351">
        <ele>1485.1999511719</ele>
        <time>2023-09-30T10:30:12.000Z</time>
      </trkpt>
      <trkpt lat="46.01367" lon="6.76348">
        <ele>1484.5999755859</ele>
        <time>2023-09-30T10:30:13.000Z</time>
      </trkpt>
      <trkpt lat="46.01366" lon="6.76345">
        <ele>1484.5999755859</ele>
        <time>2023-09-30T10:30:14.000Z</time>
      </trkpt>
      <trkpt lat="46.01365" lon="6.76344">
        <ele>1484.1999511719</ele>
        <time>2023-09-30T10:30:15.000Z</time>
      </trkpt>
      <trkpt lat="46.01364" lon="6.76342">
        <ele>1484</ele>
        <time>2023-09-30T10:30:16.000Z</time>
      </trkpt>
      <trkpt lat="46.01363" lon="6.7634">
        <ele>1483.8000488281</ele>
        <time>2023-09-30T10:30:17.000Z</time>
      </trkpt>
      <trkpt lat="46.01361" lon="6.76338">
        <ele>1483.8000488281</ele>
        <time>2023-09-30T10:30:18.000Z</time>
      </trkpt>
      <trkpt lat="46.01361" lon="6.76338">
        <ele>1483.8000488281</ele>
        <time>2023-09-30T10:30:19.000Z</time>
      </trkpt>
      <trkpt lat="46.0136" lon="6.76335">
        <ele>1483.8000488281</ele>
        <time>2023-09-30T10:30:20.000Z</time>
      </trkpt>
      <trkpt lat="46.0136" lon="6.76335">
        <ele>1483.8000488281</ele>
        <time>2023-09-30T10:30:21.000Z</time>
      </trkpt>
      <trkpt lat="46.01361" lon="6.76334">
        <ele>1483.8000488281</ele>
        <time>2023-09-30T10:30:22.000Z</time>
      </trkpt>
      <trkpt lat="46.01361" lon="6.76332">
        <ele>1483.8000488281</ele>
        <time>2023-09-30T10:30:23.000Z</time>
      </trkpt>
      <trkpt lat="46.01361" lon="6.76331">
        <ele>1484</ele>
        <time>2023-09-30T10:30:24.000Z</time>
      </trkpt>
      <trkpt lat="46.01361" lon="6.76331">
        <ele>1484</ele>
        <time>2023-09-30T10:30:25.000Z</time>
      </trkpt>
      <trkpt lat="46.01362" lon="6.76328">
        <ele>1484</ele>
        <time>2023-09-30T10:30:26.000Z</time>
      </trkpt>
      <trkpt lat="46.01361" lon="6.76326">
        <ele>1484</ele>
        <time>2023-09-30T10:30:27.000Z</time>
      </trkpt>
      <trkpt lat="46.01361" lon="6.76324">
        <ele>1484</ele>
        <time>2023-09-30T10:30:28.000Z</time>
      </trkpt>
      <trkpt lat="46.01361" lon="6.7632">
        <ele>1484</ele>
        <time>2023-09-30T10:30:30.000Z</time>
      </trkpt>
      <trkpt lat="46.0136" lon="6.76318">
        <ele>1484</ele>
        <time>2023-09-30T10:30:31.000Z</time>
      </trkpt>
      <trkpt lat="46.0136" lon="6.76316">
        <ele>1484</ele>
        <time>2023-09-30T10:30:32.000Z</time>
      </trkpt>
      <trkpt lat="46.01358" lon="6.76315">
        <ele>1484</ele>
        <time>2023-09-30T10:30:33.000Z</time>
      </trkpt>
      <trkpt lat="46.01358" lon="6.76312">
        <ele>1484.1999511719</ele>
        <time>2023-09-30T10:30:34.000Z</time>
      </trkpt>
      <trkpt lat="46.01358" lon="6.76312">
        <ele>1484.1999511719</ele>
        <time>2023-09-30T10:30:35.000Z</time>
      </trkpt>
      <trkpt lat="46.01357" lon="6.76312">
        <ele>1484.5999755859</ele>
        <time>2023-09-30T10:30:38.000Z</time>
      </trkpt>
      <trkpt lat="46.01357" lon="6.76312">
        <ele>1484.5999755859</ele>
        <time>2023-09-30T10:30:39.000Z</time>
      </trkpt>
      <trkpt lat="46.01357" lon="6.76312">
        <ele>1484.5999755859</ele>
        <time>2023-09-30T10:30:40.000Z</time>
      </trkpt>
      <trkpt lat="46.01357" lon="6.76311">
        <ele>1484.5999755859</ele>
        <time>2023-09-30T10:30:41.000Z</time>
      </trkpt>
      <trkpt lat="46.01356" lon="6.7631">
        <ele>1484.5999755859</ele>
        <time>2023-09-30T10:30:42.000Z</time>
      </trkpt>
      <trkpt lat="46.01355" lon="6.76308">
        <ele>1484.5999755859</ele>
        <time>2023-09-30T10:30:43.000Z</time>
      </trkpt>
      <trkpt lat="46.01353" lon="6.76306">
        <ele>1484.5999755859</ele>
        <time>2023-09-30T10:30:44.000Z</time>
      </trkpt>
      <trkpt lat="46.01351" lon="6.76304">
        <ele>1484.4000244141</ele>
        <time>2023-09-30T10:30:45.000Z</time>
      </trkpt>
      <trkpt lat="46.01349" lon="6.76301">
        <ele>1484.4000244141</ele>
        <time>2023-09-30T10:30:46.000Z</time>
      </trkpt>
      <trkpt lat="46.01347" lon="6.76299">
        <ele>1484.4000244141</ele>
        <time>2023-09-30T10:30:47.000Z</time>
      </trkpt>
      <trkpt lat="46.01345" lon="6.76298">
        <ele>1484.4000244141</ele>
        <time>2023-09-30T10:30:48.000Z</time>
      </trkpt>
      <trkpt lat="46.01344" lon="6.76297">
        <ele>1484.1999511719</ele>
        <time>2023-09-30T10:30:49.000Z</time>
      </trkpt>
      <trkpt lat="46.01343" lon="6.76295">
        <ele>1484</ele>
        <time>2023-09-30T10:30:50.000Z</time>
      </trkpt>
      <trkpt lat="46.01342" lon="6.76295">
        <ele>1484</ele>
        <time>2023-09-30T10:30:51.000Z</time>
      </trkpt>
      <trkpt lat="46.01342" lon="6.76294">
        <ele>1484</ele>
        <time>2023-09-30T10:30:52.000Z</time>
      </trkpt>
      <trkpt lat="46.01343" lon="6.76293">
        <ele>1483.8000488281</ele>
        <time>2023-09-30T10:30:53.000Z</time>
      </trkpt>
      <trkpt lat="46.01342" lon="6.76292">
        <ele>1483.8000488281</ele>
        <time>2023-09-30T10:30:54.000Z</time>
      </trkpt>
      <trkpt lat="46.01342" lon="6.7629">
        <ele>1483.8000488281</ele>
        <time>2023-09-30T10:30:55.000Z</time>
      </trkpt>
      <trkpt lat="46.01341" lon="6.76288">
        <ele>1483.8000488281</ele>
        <time>2023-09-30T10:30:56.000Z</time>
      </trkpt>
      <trkpt lat="46.01341" lon="6.76287">
        <ele>1483.8000488281</ele>
        <time>2023-09-30T10:30:57.000Z</time>
      </trkpt>
      <trkpt lat="46.01341" lon="6.76286">
        <ele>1483.8000488281</ele>
        <time>2023-09-30T10:30:58.000Z</time>
      </trkpt>
      <trkpt lat="46.01341" lon="6.76283">
        <ele>1483.4000244141</ele>
        <time>2023-09-30T10:31:03.000Z</time>
      </trkpt>
      <trkpt lat="46.0134" lon="6.76279">
        <ele>1483.4000244141</ele>
        <time>2023-09-30T10:31:06.000Z</time>
      </trkpt>
      <trkpt lat="46.0134" lon="6.76277">
        <ele>1483.4000244141</ele>
        <time>2023-09-30T10:31:07.000Z</time>
      </trkpt>
      <trkpt lat="46.01338" lon="6.76275">
        <ele>1483.4000244141</ele>
        <time>2023-09-30T10:31:08.000Z</time>
      </trkpt>
      <trkpt lat="46.01336" lon="6.76267">
        <ele>1482.8000488281</ele>
        <time>2023-09-30T10:31:11.000Z</time>
      </trkpt>
      <trkpt lat="46.01335" lon="6.76265">
        <ele>1482.5999755859</ele>
        <time>2023-09-30T10:31:12.000Z</time>
      </trkpt>
      <trkpt lat="46.01335" lon="6.76262">
        <ele>1482.4000244141</ele>
        <time>2023-09-30T10:31:13.000Z</time>
      </trkpt>
      <trkpt lat="46.01333" lon="6.76258">
        <ele>1482.5999755859</ele>
        <time>2023-09-30T10:31:15.000Z</time>
      </trkpt>
      <trkpt lat="46.0133" lon="6.76254">
        <ele>1482.1999511719</ele>
        <time>2023-09-30T10:31:17.000Z</time>
      </trkpt>
      <trkpt lat="46.0133" lon="6.76253">
        <ele>1482.1999511719</ele>
        <time>2023-09-30T10:31:18.000Z</time>
      </trkpt>
      <trkpt lat="46.01327" lon="6.76248">
        <ele>1482</ele>
        <time>2023-09-30T10:31:20.000Z</time>
      </trkpt>
      <trkpt lat="46.01327" lon="6.76244">
        <ele>1482</ele>
        <time>2023-09-30T10:31:21.000Z</time>
      </trkpt>
      <trkpt lat="46.01325" lon="6.76242">
        <ele>1482</ele>
        <time>2023-09-30T10:31:22.000Z</time>
      </trkpt>
      <trkpt lat="46.01322" lon="6.76239">
        <ele>1482</ele>
        <time>2023-09-30T10:31:23.000Z</time>
      </trkpt>
      <trkpt lat="46.01318" lon="6.76235">
        <ele>1481.8000488281</ele>
        <time>2023-09-30T10:31:26.000Z</time>
      </trkpt>
      <trkpt lat="46.01315" lon="6.76235">
        <ele>1481.5999755859</ele>
        <time>2023-09-30T10:31:27.000Z</time>
      </trkpt>
      <trkpt lat="46.01314" lon="6.76235">
        <ele>1481.4000244141</ele>
        <time>2023-09-30T10:31:28.000Z</time>
      </trkpt>
      <trkpt lat="46.01313" lon="6.76234">
        <ele>1481.4000244141</ele>
        <time>2023-09-30T10:31:29.000Z</time>
      </trkpt>
      <trkpt lat="46.01311" lon="6.76231">
        <ele>1481.1999511719</ele>
        <time>2023-09-30T10:31:30.000Z</time>
      </trkpt>
      <trkpt lat="46.01308" lon="6.76229">
        <ele>1481.1999511719</ele>
        <time>2023-09-30T10:31:31.000Z</time>
      </trkpt>
      <trkpt lat="46.01305" lon="6.76227">
        <ele>1481</ele>
        <time>2023-09-30T10:31:32.000Z</time>
      </trkpt>
      <trkpt lat="46.01303" lon="6.76225">
        <ele>1481</ele>
        <time>2023-09-30T10:31:33.000Z</time>
      </trkpt>
      <trkpt lat="46.01302" lon="6.76225">
        <ele>1481.1999511719</ele>
        <time>2023-09-30T10:31:34.000Z</time>
      </trkpt>
      <trkpt lat="46.013" lon="6.76224">
        <ele>1481.1999511719</ele>
        <time>2023-09-30T10:31:35.000Z</time>
      </trkpt>
      <trkpt lat="46.01299" lon="6.76223">
        <ele>1481</ele>
        <time>2023-09-30T10:31:36.000Z</time>
      </trkpt>
      <trkpt lat="46.01298" lon="6.76221">
        <ele>1481</ele>
        <time>2023-09-30T10:31:37.000Z</time>
      </trkpt>
      <trkpt lat="46.01296" lon="6.76219">
        <ele>1481</ele>
        <time>2023-09-30T10:31:38.000Z</time>
      </trkpt>
      <trkpt lat="46.01293" lon="6.76217">
        <ele>1480.8000488281</ele>
        <time>2023-09-30T10:31:39.000Z</time>
      </trkpt>
      <trkpt lat="46.01281" lon="6.76208">
        <ele>1480</ele>
        <time>2023-09-30T10:31:42.000Z</time>
      </trkpt>
      <trkpt lat="46.01279" lon="6.76204">
        <ele>1479.8000488281</ele>
        <time>2023-09-30T10:31:43.000Z</time>
      </trkpt>
      <trkpt lat="46.01278" lon="6.76203">
        <ele>1479.1999511719</ele>
        <time>2023-09-30T10:31:44.000Z</time>
      </trkpt>
      <trkpt lat="46.01277" lon="6.76199">
        <ele>1479</ele>
        <time>2023-09-30T10:31:45.000Z</time>
      </trkpt>
      <trkpt lat="46.01275" lon="6.76197">
        <ele>1478.8000488281</ele>
        <time>2023-09-30T10:31:46.000Z</time>
      </trkpt>
      <trkpt lat="46.01273" lon="6.76195">
        <ele>1478.5999755859</ele>
        <time>2023-09-30T10:31:47.000Z</time>
      </trkpt>
      <trkpt lat="46.01269" lon="6.76191">
        <ele>1477.4000244141</ele>
        <time>2023-09-30T10:31:49.000Z</time>
      </trkpt>
      <trkpt lat="46.01268" lon="6.7619">
        <ele>1477.1999511719</ele>
        <time>2023-09-30T10:31:50.000Z</time>
      </trkpt>
      <trkpt lat="46.01267" lon="6.76189">
        <ele>1477</ele>
        <time>2023-09-30T10:31:51.000Z</time>
      </trkpt>
      <trkpt lat="46.01267" lon="6.76189">
        <ele>1477</ele>
        <time>2023-09-30T10:31:52.000Z</time>
      </trkpt>
      <trkpt lat="46.01267" lon="6.76189">
        <ele>1476.8000488281</ele>
        <time>2023-09-30T10:31:53.000Z</time>
      </trkpt>
      <trkpt lat="46.01267" lon="6.76189">
        <ele>1476.8000488281</ele>
        <time>2023-09-30T10:31:54.000Z</time>
      </trkpt>
      <trkpt lat="46.01267" lon="6.76189">
        <ele>1476.8000488281</ele>
        <time>2023-09-30T10:31:55.000Z</time>
      </trkpt>
      <trkpt lat="46.01267" lon="6.76189">
        <ele>1476.8000488281</ele>
        <time>2023-09-30T10:31:56.000Z</time>
      </trkpt>
      <trkpt lat="46.01267" lon="6.76188">
        <ele>1476.8000488281</ele>
        <time>2023-09-30T10:31:57.000Z</time>
      </trkpt>
      <trkpt lat="46.01267" lon="6.76188">
        <ele>1476.8000488281</ele>
        <time>2023-09-30T10:31:58.000Z</time>
      </trkpt>
      <trkpt lat="46.01267" lon="6.76188">
        <ele>1477</ele>
        <time>2023-09-30T10:32:04.000Z</time>
      </trkpt>
      <trkpt lat="46.01267" lon="6.76188">
        <ele>1477.1999511719</ele>
        <time>2023-09-30T10:32:09.000Z</time>
      </trkpt>
      <trkpt lat="46.01264" lon="6.76188">
        <ele>1477.4000244141</ele>
        <time>2023-09-30T10:32:11.000Z</time>
      </trkpt>
      <trkpt lat="46.01263" lon="6.76187">
        <ele>1477.4000244141</ele>
        <time>2023-09-30T10:32:12.000Z</time>
      </trkpt>
      <trkpt lat="46.01257" lon="6.76188">
        <ele>1477.4000244141</ele>
        <time>2023-09-30T10:32:15.000Z</time>
      </trkpt>
      <trkpt lat="46.01256" lon="6.76188">
        <ele>1477.4000244141</ele>
        <time>2023-09-30T10:32:16.000Z</time>
      </trkpt>
      <trkpt lat="46.01256" lon="6.76187">
        <ele>1477.4000244141</ele>
        <time>2023-09-30T10:32:17.000Z</time>
      </trkpt>
      <trkpt lat="46.01257" lon="6.76186">
        <ele>1477.4000244141</ele>
        <time>2023-09-30T10:32:18.000Z</time>
      </trkpt>
      <trkpt lat="46.01257" lon="6.76186">
        <ele>1477.4000244141</ele>
        <time>2023-09-30T10:32:19.000Z</time>
      </trkpt>
      <trkpt lat="46.01258" lon="6.76185">
        <ele>1477.1999511719</ele>
        <time>2023-09-30T10:32:22.000Z</time>
      </trkpt>
      <trkpt lat="46.01258" lon="6.76184">
        <ele>1477.1999511719</ele>
        <time>2023-09-30T10:32:23.000Z</time>
      </trkpt>
      <trkpt lat="46.01258" lon="6.76182">
        <ele>1477.1999511719</ele>
        <time>2023-09-30T10:32:24.000Z</time>
      </trkpt>
      <trkpt lat="46.01258" lon="6.76181">
        <ele>1477.1999511719</ele>
        <time>2023-09-30T10:32:25.000Z</time>
      </trkpt>
      <trkpt lat="46.01258" lon="6.76181">
        <ele>1477.1999511719</ele>
        <time>2023-09-30T10:32:26.000Z</time>
      </trkpt>
      <trkpt lat="46.01258" lon="6.76181">
        <ele>1477.1999511719</ele>
        <time>2023-09-30T10:32:27.000Z</time>
      </trkpt>
      <trkpt lat="46.01258" lon="6.76181">
        <ele>1476.1999511719</ele>
        <time>2023-09-30T10:32:30.000Z</time>
      </trkpt>
      <trkpt lat="46.01258" lon="6.76181">
        <ele>1475.5999755859</ele>
        <time>2023-09-30T10:32:35.000Z</time>
      </trkpt>
      <trkpt lat="46.01258" lon="6.76177">
        <ele>1475.5999755859</ele>
        <time>2023-09-30T10:32:36.000Z</time>
      </trkpt>
      <trkpt lat="46.01257" lon="6.76171">
        <ele>1475.4000244141</ele>
        <time>2023-09-30T10:32:38.000Z</time>
      </trkpt>
      <trkpt lat="46.01257" lon="6.76168">
        <ele>1475.4000244141</ele>
        <time>2023-09-30T10:32:39.000Z</time>
      </trkpt>
      <trkpt lat="46.01256" lon="6.76165">
        <ele>1475.1999511719</ele>
        <time>2023-09-30T10:32:40.000Z</time>
      </trkpt>
      <trkpt lat="46.01255" lon="6.76163">
        <ele>1475.1999511719</ele>
        <time>2023-09-30T10:32:41.000Z</time>
      </trkpt>
      <trkpt lat="46.01253" lon="6.76161">
        <ele>1475</ele>
        <time>2023-09-30T10:32:42.000Z</time>
      </trkpt>
      <trkpt lat="46.0125" lon="6.76159">
        <ele>1474.8000488281</ele>
        <time>2023-09-30T10:32:43.000Z</time>
      </trkpt>
      <trkpt lat="46.01249" lon="6.76157">
        <ele>1474.5999755859</ele>
        <time>2023-09-30T10:32:44.000Z</time>
      </trkpt>
      <trkpt lat="46.01249" lon="6.76156">
        <ele>1474.1999511719</ele>
        <time>2023-09-30T10:32:45.000Z</time>
      </trkpt>
      <trkpt lat="46.01248" lon="6.76154">
        <ele>1474.1999511719</ele>
        <time>2023-09-30T10:32:46.000Z</time>
      </trkpt>
      <trkpt lat="46.01248" lon="6.76152">
        <ele>1474</ele>
        <time>2023-09-30T10:32:47.000Z</time>
      </trkpt>
      <trkpt lat="46.01248" lon="6.76151">
        <ele>1473.8000488281</ele>
        <time>2023-09-30T10:32:48.000Z</time>
      </trkpt>
      <trkpt lat="46.01247" lon="6.76149">
        <ele>1473.4000244141</ele>
        <time>2023-09-30T10:32:49.000Z</time>
      </trkpt>
      <trkpt lat="46.01244" lon="6.76143">
        <ele>1473</ele>
        <time>2023-09-30T10:32:51.000Z</time>
      </trkpt>
      <trkpt lat="46.01242" lon="6.7614">
        <ele>1472.8000488281</ele>
        <time>2023-09-30T10:32:52.000Z</time>
      </trkpt>
      <trkpt lat="46.01242" lon="6.7614">
        <ele>1472.5999755859</ele>
        <time>2023-09-30T10:32:53.000Z</time>
      </trkpt>
      <trkpt lat="46.01241" lon="6.76139">
        <ele>1472.1999511719</ele>
        <time>2023-09-30T10:32:54.000Z</time>
      </trkpt>
      <trkpt lat="46.0124" lon="6.76136">
        <ele>1472</ele>
        <time>2023-09-30T10:32:55.000Z</time>
      </trkpt>
      <trkpt lat="46.01239" lon="6.76133">
        <ele>1471.8000488281</ele>
        <time>2023-09-30T10:32:56.000Z</time>
      </trkpt>
      <trkpt lat="46.01231" lon="6.76106">
        <ele>1470.5999755859</ele>
        <time>2023-09-30T10:33:01.000Z</time>
      </trkpt>
      <trkpt lat="46.01229" lon="6.76096">
        <ele>1469.4000244141</ele>
        <time>2023-09-30T10:33:03.000Z</time>
      </trkpt>
      <trkpt lat="46.01229" lon="6.76093">
        <ele>1468.1999511719</ele>
        <time>2023-09-30T10:33:04.000Z</time>
      </trkpt>
      <trkpt lat="46.0123" lon="6.7609">
        <ele>1467.8000488281</ele>
        <time>2023-09-30T10:33:05.000Z</time>
      </trkpt>
      <trkpt lat="46.0123" lon="6.76088">
        <ele>1466.4000244141</ele>
        <time>2023-09-30T10:33:06.000Z</time>
      </trkpt>
      <trkpt lat="46.01228" lon="6.76085">
        <ele>1465.8000488281</ele>
        <time>2023-09-30T10:33:07.000Z</time>
      </trkpt>
      <trkpt lat="46.01227" lon="6.76082">
        <ele>1465</ele>
        <time>2023-09-30T10:33:08.000Z</time>
      </trkpt>
      <trkpt lat="46.01227" lon="6.76079">
        <ele>1464.5999755859</ele>
        <time>2023-09-30T10:33:09.000Z</time>
      </trkpt>
      <trkpt lat="46.01226" lon="6.76076">
        <ele>1463.5999755859</ele>
        <time>2023-09-30T10:33:10.000Z</time>
      </trkpt>
      <trkpt lat="46.01224" lon="6.76074">
        <ele>1463</ele>
        <time>2023-09-30T10:33:11.000Z</time>
      </trkpt>
      <trkpt lat="46.01223" lon="6.76072">
        <ele>1462.8000488281</ele>
        <time>2023-09-30T10:33:12.000Z</time>
      </trkpt>
      <trkpt lat="46.01222" lon="6.76068">
        <ele>1462.1999511719</ele>
        <time>2023-09-30T10:33:13.000Z</time>
      </trkpt>
      <trkpt lat="46.01222" lon="6.76065">
        <ele>1462</ele>
        <time>2023-09-30T10:33:14.000Z</time>
      </trkpt>
      <trkpt lat="46.01223" lon="6.76062">
        <ele>1461.4000244141</ele>
        <time>2023-09-30T10:33:15.000Z</time>
      </trkpt>
      <trkpt lat="46.01219" lon="6.76057">
        <ele>1460.5999755859</ele>
        <time>2023-09-30T10:33:17.000Z</time>
      </trkpt>
      <trkpt lat="46.01216" lon="6.76055">
        <ele>1460.1999511719</ele>
        <time>2023-09-30T10:33:18.000Z</time>
      </trkpt>
      <trkpt lat="46.01214" lon="6.76053">
        <ele>1460.1999511719</ele>
        <time>2023-09-30T10:33:19.000Z</time>
      </trkpt>
      <trkpt lat="46.01214" lon="6.7605">
        <ele>1459.8000488281</ele>
        <time>2023-09-30T10:33:20.000Z</time>
      </trkpt>
      <trkpt lat="46.01215" lon="6.76048">
        <ele>1459.4000244141</ele>
        <time>2023-09-30T10:33:21.000Z</time>
      </trkpt>
      <trkpt lat="46.01217" lon="6.76045">
        <ele>1458.8000488281</ele>
        <time>2023-09-30T10:33:22.000Z</time>
      </trkpt>
      <trkpt lat="46.01219" lon="6.76041">
        <ele>1458</ele>
        <time>2023-09-30T10:33:24.000Z</time>
      </trkpt>
      <trkpt lat="46.01219" lon="6.7604">
        <ele>1457.5999755859</ele>
        <time>2023-09-30T10:33:25.000Z</time>
      </trkpt>
      <trkpt lat="46.01219" lon="6.76038">
        <ele>1457</ele>
        <time>2023-09-30T10:33:26.000Z</time>
      </trkpt>
      <trkpt lat="46.01221" lon="6.76037">
        <ele>1456.1999511719</ele>
        <time>2023-09-30T10:33:27.000Z</time>
      </trkpt>
      <trkpt lat="46.0122" lon="6.76036">
        <ele>1456</ele>
        <time>2023-09-30T10:33:28.000Z</time>
      </trkpt>
      <trkpt lat="46.0122" lon="6.76036">
        <ele>1455.4000244141</ele>
        <time>2023-09-30T10:33:29.000Z</time>
      </trkpt>
      <trkpt lat="46.0122" lon="6.76036">
        <ele>1454.4000244141</ele>
        <time>2023-09-30T10:33:31.000Z</time>
      </trkpt>
      <trkpt lat="46.0122" lon="6.76036">
        <ele>1453.5999755859</ele>
        <time>2023-09-30T10:33:33.000Z</time>
      </trkpt>
      <trkpt lat="46.0122" lon="6.76036">
        <ele>1453.1999511719</ele>
        <time>2023-09-30T10:33:35.000Z</time>
      </trkpt>
      <trkpt lat="46.01222" lon="6.76036">
        <ele>1452.8000488281</ele>
        <time>2023-09-30T10:33:40.000Z</time>
      </trkpt>
      <trkpt lat="46.0122" lon="6.76032">
        <ele>1453</ele>
        <time>2023-09-30T10:34:48.000Z</time>
      </trkpt>
      <trkpt lat="46.0122" lon="6.7603">
        <ele>1453</ele>
        <time>2023-09-30T10:34:49.000Z</time>
      </trkpt>
      <trkpt lat="46.01223" lon="6.76021">
        <ele>1452.5999755859</ele>
        <time>2023-09-30T10:34:52.000Z</time>
      </trkpt>
      <trkpt lat="46.01224" lon="6.76019">
        <ele>1452.1999511719</ele>
        <time>2023-09-30T10:34:53.000Z</time>
      </trkpt>
      <trkpt lat="46.01225" lon="6.76016">
        <ele>1452</ele>
        <time>2023-09-30T10:34:54.000Z</time>
      </trkpt>
      <trkpt lat="46.01225" lon="6.76013">
        <ele>1451.4000244141</ele>
        <time>2023-09-30T10:34:55.000Z</time>
      </trkpt>
      <trkpt lat="46.01226" lon="6.76011">
        <ele>1451</ele>
        <time>2023-09-30T10:34:56.000Z</time>
      </trkpt>
      <trkpt lat="46.01227" lon="6.76007">
        <ele>1450.5999755859</ele>
        <time>2023-09-30T10:34:58.000Z</time>
      </trkpt>
      <trkpt lat="46.01226" lon="6.76003">
        <ele>1449.8000488281</ele>
        <time>2023-09-30T10:35:00.000Z</time>
      </trkpt>
      <trkpt lat="46.01226" lon="6.76003">
        <ele>1449.4000244141</ele>
        <time>2023-09-30T10:35:01.000Z</time>
      </trkpt>
      <trkpt lat="46.01225" lon="6.76002">
        <ele>1448.8000488281</ele>
        <time>2023-09-30T10:35:02.000Z</time>
      </trkpt>
      <trkpt lat="46.01226" lon="6.76002">
        <ele>1448.1999511719</ele>
        <time>2023-09-30T10:35:03.000Z</time>
      </trkpt>
      <trkpt lat="46.01224" lon="6.76001">
        <ele>1448</ele>
        <time>2023-09-30T10:35:04.000Z</time>
      </trkpt>
      <trkpt lat="46.01224" lon="6.76002">
        <ele>1447.4000244141</ele>
        <time>2023-09-30T10:35:05.000Z</time>
      </trkpt>
      <trkpt lat="46.01225" lon="6.76002">
        <ele>1447.1999511719</ele>
        <time>2023-09-30T10:35:06.000Z</time>
      </trkpt>
      <trkpt lat="46.01225" lon="6.76003">
        <ele>1446.8000488281</ele>
        <time>2023-09-30T10:35:07.000Z</time>
      </trkpt>
      <trkpt lat="46.01226" lon="6.76006">
        <ele>1446.4000244141</ele>
        <time>2023-09-30T10:35:08.000Z</time>
      </trkpt>
      <trkpt lat="46.01227" lon="6.76008">
        <ele>1446</ele>
        <time>2023-09-30T10:35:09.000Z</time>
      </trkpt>
      <trkpt lat="46.01226" lon="6.7601">
        <ele>1445.8000488281</ele>
        <time>2023-09-30T10:35:10.000Z</time>
      </trkpt>
      <trkpt lat="46.01226" lon="6.7601">
        <ele>1445.8000488281</ele>
        <time>2023-09-30T10:35:11.000Z</time>
      </trkpt>
      <trkpt lat="46.01226" lon="6.7601">
        <ele>1445</ele>
        <time>2023-09-30T10:35:13.000Z</time>
      </trkpt>
      <trkpt lat="46.01226" lon="6.76011">
        <ele>1444.4000244141</ele>
        <time>2023-09-30T10:35:15.000Z</time>
      </trkpt>
      <trkpt lat="46.01227" lon="6.76013">
        <ele>1444.1999511719</ele>
        <time>2023-09-30T10:35:16.000Z</time>
      </trkpt>
      <trkpt lat="46.01226" lon="6.76016">
        <ele>1443.8000488281</ele>
        <time>2023-09-30T10:35:17.000Z</time>
      </trkpt>
      <trkpt lat="46.01226" lon="6.76017">
        <ele>1443.5999755859</ele>
        <time>2023-09-30T10:35:18.000Z</time>
      </trkpt>
      <trkpt lat="46.01225" lon="6.76019">
        <ele>1443.1999511719</ele>
        <time>2023-09-30T10:35:19.000Z</time>
      </trkpt>
      <trkpt lat="46.01225" lon="6.76021">
        <ele>1442.8000488281</ele>
        <time>2023-09-30T10:35:20.000Z</time>
      </trkpt>
      <trkpt lat="46.01225" lon="6.76021">
        <ele>1442.4000244141</ele>
        <time>2023-09-30T10:35:21.000Z</time>
      </trkpt>
      <trkpt lat="46.01225" lon="6.76022">
        <ele>1442.1999511719</ele>
        <time>2023-09-30T10:35:22.000Z</time>
      </trkpt>
      <trkpt lat="46.01226" lon="6.76023">
        <ele>1441.1999511719</ele>
        <time>2023-09-30T10:35:23.000Z</time>
      </trkpt>
      <trkpt lat="46.01226" lon="6.76024">
        <ele>1440.5999755859</ele>
        <time>2023-09-30T10:35:24.000Z</time>
      </trkpt>
      <trkpt lat="46.01226" lon="6.76025">
        <ele>1440.1999511719</ele>
        <time>2023-09-30T10:35:26.000Z</time>
      </trkpt>
      <trkpt lat="46.01226" lon="6.76025">
        <ele>1440</ele>
        <time>2023-09-30T10:35:27.000Z</time>
      </trkpt>
      <trkpt lat="46.01226" lon="6.76027">
        <ele>1439.1999511719</ele>
        <time>2023-09-30T10:35:29.000Z</time>
      </trkpt>
      <trkpt lat="46.01227" lon="6.76028">
        <ele>1439.1999511719</ele>
        <time>2023-09-30T10:35:30.000Z</time>
      </trkpt>
      <trkpt lat="46.01228" lon="6.76029">
        <ele>1439</ele>
        <time>2023-09-30T10:35:31.000Z</time>
      </trkpt>
      <trkpt lat="46.01229" lon="6.7603">
        <ele>1438.8000488281</ele>
        <time>2023-09-30T10:35:32.000Z</time>
      </trkpt>
      <trkpt lat="46.0123" lon="6.7603">
        <ele>1438.8000488281</ele>
        <time>2023-09-30T10:35:33.000Z</time>
      </trkpt>
      <trkpt lat="46.0123" lon="6.76029">
        <ele>1438.5999755859</ele>
        <time>2023-09-30T10:35:34.000Z</time>
      </trkpt>
      <trkpt lat="46.01231" lon="6.76029">
        <ele>1438.5999755859</ele>
        <time>2023-09-30T10:35:35.000Z</time>
      </trkpt>
      <trkpt lat="46.01232" lon="6.76028">
        <ele>1438.4000244141</ele>
        <time>2023-09-30T10:35:36.000Z</time>
      </trkpt>
      <trkpt lat="46.01233" lon="6.76028">
        <ele>1438.4000244141</ele>
        <time>2023-09-30T10:35:37.000Z</time>
      </trkpt>
      <trkpt lat="46.01234" lon="6.76029">
        <ele>1438.1999511719</ele>
        <time>2023-09-30T10:35:38.000Z</time>
      </trkpt>
      <trkpt lat="46.01236" lon="6.76029">
        <ele>1438.1999511719</ele>
        <time>2023-09-30T10:35:39.000Z</time>
      </trkpt>
      <trkpt lat="46.01238" lon="6.76028">
        <ele>1437.8000488281</ele>
        <time>2023-09-30T10:35:41.000Z</time>
      </trkpt>
      <trkpt lat="46.01239" lon="6.76028">
        <ele>1437.8000488281</ele>
        <time>2023-09-30T10:35:42.000Z</time>
      </trkpt>
      <trkpt lat="46.01241" lon="6.76027">
        <ele>1437.4000244141</ele>
        <time>2023-09-30T10:35:43.000Z</time>
      </trkpt>
      <trkpt lat="46.01243" lon="6.76025">
        <ele>1436.8000488281</ele>
        <time>2023-09-30T10:35:47.000Z</time>
      </trkpt>
      <trkpt lat="46.01244" lon="6.76025">
        <ele>1436.1999511719</ele>
        <time>2023-09-30T10:35:49.000Z</time>
      </trkpt>
      <trkpt lat="46.01245" lon="6.76024">
        <ele>1435.4000244141</ele>
        <time>2023-09-30T10:35:51.000Z</time>
      </trkpt>
      <trkpt lat="46.01246" lon="6.76023">
        <ele>1435</ele>
        <time>2023-09-30T10:35:52.000Z</time>
      </trkpt>
      <trkpt lat="46.01252" lon="6.7602">
        <ele>1434.4000244141</ele>
        <time>2023-09-30T10:35:56.000Z</time>
      </trkpt>
      <trkpt lat="46.01253" lon="6.7602">
        <ele>1434.1999511719</ele>
        <time>2023-09-30T10:35:57.000Z</time>
      </trkpt>
      <trkpt lat="46.01254" lon="6.76021">
        <ele>1433.8000488281</ele>
        <time>2023-09-30T10:35:58.000Z</time>
      </trkpt>
      <trkpt lat="46.01256" lon="6.76021">
        <ele>1433.1999511719</ele>
        <time>2023-09-30T10:35:59.000Z</time>
      </trkpt>
      <trkpt lat="46.01257" lon="6.76021">
        <ele>1433</ele>
        <time>2023-09-30T10:36:00.000Z</time>
      </trkpt>
      <trkpt lat="46.01258" lon="6.76021">
        <ele>1432.8000488281</ele>
        <time>2023-09-30T10:36:01.000Z</time>
      </trkpt>
      <trkpt lat="46.01259" lon="6.76022">
        <ele>1432.5999755859</ele>
        <time>2023-09-30T10:36:02.000Z</time>
      </trkpt>
      <trkpt lat="46.01259" lon="6.76022">
        <ele>1432.4000244141</ele>
        <time>2023-09-30T10:36:03.000Z</time>
      </trkpt>
      <trkpt lat="46.01259" lon="6.76022">
        <ele>1432</ele>
        <time>2023-09-30T10:36:04.000Z</time>
      </trkpt>
      <trkpt lat="46.01261" lon="6.76023">
        <ele>1432</ele>
        <time>2023-09-30T10:36:05.000Z</time>
      </trkpt>
      <trkpt lat="46.01261" lon="6.76025">
        <ele>1431.4000244141</ele>
        <time>2023-09-30T10:36:06.000Z</time>
      </trkpt>
      <trkpt lat="46.01261" lon="6.76026">
        <ele>1431.1999511719</ele>
        <time>2023-09-30T10:36:07.000Z</time>
      </trkpt>
      <trkpt lat="46.01264" lon="6.76029">
        <ele>1429.8000488281</ele>
        <time>2023-09-30T10:36:10.000Z</time>
      </trkpt>
      <trkpt lat="46.01265" lon="6.7603">
        <ele>1429.1999511719</ele>
        <time>2023-09-30T10:36:11.000Z</time>
      </trkpt>
      <trkpt lat="46.01265" lon="6.7603">
        <ele>1429</ele>
        <time>2023-09-30T10:36:12.000Z</time>
      </trkpt>
      <trkpt lat="46.01266" lon="6.7603">
        <ele>1428.8000488281</ele>
        <time>2023-09-30T10:36:13.000Z</time>
      </trkpt>
      <trkpt lat="46.01267" lon="6.7603">
        <ele>1428.5999755859</ele>
        <time>2023-09-30T10:36:14.000Z</time>
      </trkpt>
      <trkpt lat="46.01268" lon="6.76032">
        <ele>1428.1999511719</ele>
        <time>2023-09-30T10:36:16.000Z</time>
      </trkpt>
      <trkpt lat="46.01269" lon="6.76034">
        <ele>1428.1999511719</ele>
        <time>2023-09-30T10:36:17.000Z</time>
      </trkpt>
      <trkpt lat="46.0127" lon="6.76035">
        <ele>1427.8000488281</ele>
        <time>2023-09-30T10:36:18.000Z</time>
      </trkpt>
      <trkpt lat="46.01271" lon="6.76036">
        <ele>1427.5999755859</ele>
        <time>2023-09-30T10:36:19.000Z</time>
      </trkpt>
      <trkpt lat="46.01272" lon="6.76037">
        <ele>1427</ele>
        <time>2023-09-30T10:36:20.000Z</time>
      </trkpt>
      <trkpt lat="46.01273" lon="6.76038">
        <ele>1426.5999755859</ele>
        <time>2023-09-30T10:36:21.000Z</time>
      </trkpt>
      <trkpt lat="46.01275" lon="6.7604">
        <ele>1426.1999511719</ele>
        <time>2023-09-30T10:36:22.000Z</time>
      </trkpt>
      <trkpt lat="46.01275" lon="6.76041">
        <ele>1426</ele>
        <time>2023-09-30T10:36:23.000Z</time>
      </trkpt>
      <trkpt lat="46.01276" lon="6.76042">
        <ele>1425.5999755859</ele>
        <time>2023-09-30T10:36:24.000Z</time>
      </trkpt>
      <trkpt lat="46.01277" lon="6.76042">
        <ele>1425</ele>
        <time>2023-09-30T10:36:25.000Z</time>
      </trkpt>
      <trkpt lat="46.01279" lon="6.76042">
        <ele>1424.8000488281</ele>
        <time>2023-09-30T10:36:26.000Z</time>
      </trkpt>
      <trkpt lat="46.01279" lon="6.76042">
        <ele>1424.4000244141</ele>
        <time>2023-09-30T10:36:27.000Z</time>
      </trkpt>
      <trkpt lat="46.0128" lon="6.76043">
        <ele>1424.1999511719</ele>
        <time>2023-09-30T10:36:28.000Z</time>
      </trkpt>
      <trkpt lat="46.0128" lon="6.76043">
        <ele>1423.8000488281</ele>
        <time>2023-09-30T10:36:29.000Z</time>
      </trkpt>
      <trkpt lat="46.0128" lon="6.76043">
        <ele>1423.5999755859</ele>
        <time>2023-09-30T10:36:30.000Z</time>
      </trkpt>
      <trkpt lat="46.01281" lon="6.76043">
        <ele>1423.1999511719</ele>
        <time>2023-09-30T10:36:31.000Z</time>
      </trkpt>
      <trkpt lat="46.01282" lon="6.76044">
        <ele>1422.5999755859</ele>
        <time>2023-09-30T10:36:32.000Z</time>
      </trkpt>
      <trkpt lat="46.01283" lon="6.76044">
        <ele>1422.4000244141</ele>
        <time>2023-09-30T10:36:33.000Z</time>
      </trkpt>
      <trkpt lat="46.01284" lon="6.76045">
        <ele>1421.5999755859</ele>
        <time>2023-09-30T10:36:34.000Z</time>
      </trkpt>
      <trkpt lat="46.01285" lon="6.76045">
        <ele>1421.4000244141</ele>
        <time>2023-09-30T10:36:35.000Z</time>
      </trkpt>
      <trkpt lat="46.01285" lon="6.76045">
        <ele>1421</ele>
        <time>2023-09-30T10:36:36.000Z</time>
      </trkpt>
      <trkpt lat="46.01285" lon="6.76045">
        <ele>1420.8000488281</ele>
        <time>2023-09-30T10:36:37.000Z</time>
      </trkpt>
      <trkpt lat="46.01285" lon="6.76045">
        <ele>1420.4000244141</ele>
        <time>2023-09-30T10:36:38.000Z</time>
      </trkpt>
      <trkpt lat="46.01285" lon="6.76045">
        <ele>1419.5999755859</ele>
        <time>2023-09-30T10:36:42.000Z</time>
      </trkpt>
      <trkpt lat="46.01286" lon="6.76045">
        <ele>1419.5999755859</ele>
        <time>2023-09-30T10:36:44.000Z</time>
      </trkpt>
      <trkpt lat="46.01286" lon="6.76041">
        <ele>1419.5999755859</ele>
        <time>2023-09-30T10:36:47.000Z</time>
      </trkpt>
      <trkpt lat="46.01286" lon="6.76041">
        <ele>1419.4000244141</ele>
        <time>2023-09-30T10:36:48.000Z</time>
      </trkpt>
      <trkpt lat="46.01286" lon="6.76041">
        <ele>1419.4000244141</ele>
        <time>2023-09-30T10:36:49.000Z</time>
      </trkpt>
      <trkpt lat="46.01286" lon="6.7604">
        <ele>1418.4000244141</ele>
        <time>2023-09-30T10:36:55.000Z</time>
      </trkpt>
      <trkpt lat="46.01285" lon="6.76037">
        <ele>1418.1999511719</ele>
        <time>2023-09-30T10:36:56.000Z</time>
      </trkpt>
      <trkpt lat="46.01288" lon="6.7603">
        <ele>1417.1999511719</ele>
        <time>2023-09-30T10:36:59.000Z</time>
      </trkpt>
      <trkpt lat="46.01289" lon="6.76028">
        <ele>1416.8000488281</ele>
        <time>2023-09-30T10:37:00.000Z</time>
      </trkpt>
      <trkpt lat="46.01289" lon="6.76026">
        <ele>1416.4000244141</ele>
        <time>2023-09-30T10:37:01.000Z</time>
      </trkpt>
      <trkpt lat="46.01288" lon="6.76023">
        <ele>1415.4000244141</ele>
        <time>2023-09-30T10:37:02.000Z</time>
      </trkpt>
      <trkpt lat="46.01288" lon="6.76021">
        <ele>1415</ele>
        <time>2023-09-30T10:37:03.000Z</time>
      </trkpt>
      <trkpt lat="46.01288" lon="6.76019">
        <ele>1414.4000244141</ele>
        <time>2023-09-30T10:37:04.000Z</time>
      </trkpt>
      <trkpt lat="46.01288" lon="6.76018">
        <ele>1414</ele>
        <time>2023-09-30T10:37:05.000Z</time>
      </trkpt>
      <trkpt lat="46.01289" lon="6.76017">
        <ele>1413.8000488281</ele>
        <time>2023-09-30T10:37:06.000Z</time>
      </trkpt>
      <trkpt lat="46.01289" lon="6.76015">
        <ele>1413.4000244141</ele>
        <time>2023-09-30T10:37:07.000Z</time>
      </trkpt>
      <trkpt lat="46.0129" lon="6.76013">
        <ele>1413.1999511719</ele>
        <time>2023-09-30T10:37:08.000Z</time>
      </trkpt>
      <trkpt lat="46.01291" lon="6.76011">
        <ele>1412.8000488281</ele>
        <time>2023-09-30T10:37:09.000Z</time>
      </trkpt>
      <trkpt lat="46.01291" lon="6.76011">
        <ele>1412.5999755859</ele>
        <time>2023-09-30T10:37:10.000Z</time>
      </trkpt>
      <trkpt lat="46.0129" lon="6.76009">
        <ele>1412.1999511719</ele>
        <time>2023-09-30T10:37:11.000Z</time>
      </trkpt>
      <trkpt lat="46.01291" lon="6.76007">
        <ele>1411.8000488281</ele>
        <time>2023-09-30T10:37:12.000Z</time>
      </trkpt>
      <trkpt lat="46.01291" lon="6.76004">
        <ele>1411.5999755859</ele>
        <time>2023-09-30T10:37:13.000Z</time>
      </trkpt>
      <trkpt lat="46.01291" lon="6.76001">
        <ele>1411.1999511719</ele>
        <time>2023-09-30T10:37:14.000Z</time>
      </trkpt>
      <trkpt lat="46.01291" lon="6.76">
        <ele>1411</ele>
        <time>2023-09-30T10:37:15.000Z</time>
      </trkpt>
      <trkpt lat="46.01291" lon="6.75999">
        <ele>1410.1999511719</ele>
        <time>2023-09-30T10:37:16.000Z</time>
      </trkpt>
      <trkpt lat="46.01291" lon="6.75999">
        <ele>1410.1999511719</ele>
        <time>2023-09-30T10:37:17.000Z</time>
      </trkpt>
      <trkpt lat="46.01291" lon="6.75999">
        <ele>1409.8000488281</ele>
        <time>2023-09-30T10:37:18.000Z</time>
      </trkpt>
      <trkpt lat="46.01291" lon="6.75999">
        <ele>1409.1999511719</ele>
        <time>2023-09-30T10:37:19.000Z</time>
      </trkpt>
      <trkpt lat="46.01291" lon="6.75999">
        <ele>1408.1999511719</ele>
        <time>2023-09-30T10:37:22.000Z</time>
      </trkpt>
      <trkpt lat="46.01291" lon="6.75999">
        <ele>1407.8000488281</ele>
        <time>2023-09-30T10:37:27.000Z</time>
      </trkpt>
      <trkpt lat="46.01291" lon="6.75999">
        <ele>1407.4000244141</ele>
        <time>2023-09-30T10:38:06.000Z</time>
      </trkpt>
      <trkpt lat="46.01292" lon="6.76001">
        <ele>1407.4000244141</ele>
        <time>2023-09-30T10:38:07.000Z</time>
      </trkpt>
      <trkpt lat="46.01293" lon="6.76003">
        <ele>1407.4000244141</ele>
        <time>2023-09-30T10:38:08.000Z</time>
      </trkpt>
      <trkpt lat="46.01293" lon="6.76003">
        <ele>1407.4000244141</ele>
        <time>2023-09-30T10:38:09.000Z</time>
      </trkpt>
      <trkpt lat="46.01293" lon="6.76003">
        <ele>1407.1999511719</ele>
        <time>2023-09-30T10:38:10.000Z</time>
      </trkpt>
      <trkpt lat="46.01293" lon="6.76004">
        <ele>1407.1999511719</ele>
        <time>2023-09-30T10:38:11.000Z</time>
      </trkpt>
      <trkpt lat="46.01293" lon="6.76004">
        <ele>1406.8000488281</ele>
        <time>2023-09-30T10:38:12.000Z</time>
      </trkpt>
      <trkpt lat="46.01293" lon="6.76004">
        <ele>1406.8000488281</ele>
        <time>2023-09-30T10:38:13.000Z</time>
      </trkpt>
      <trkpt lat="46.01295" lon="6.76006">
        <ele>1406.1999511719</ele>
        <time>2023-09-30T10:38:14.000Z</time>
      </trkpt>
      <trkpt lat="46.01297" lon="6.76007">
        <ele>1405.8000488281</ele>
        <time>2023-09-30T10:38:15.000Z</time>
      </trkpt>
      <trkpt lat="46.01302" lon="6.7601">
        <ele>1405.5999755859</ele>
        <time>2023-09-30T10:38:17.000Z</time>
      </trkpt>
      <trkpt lat="46.01307" lon="6.76013">
        <ele>1405</ele>
        <time>2023-09-30T10:38:19.000Z</time>
      </trkpt>
      <trkpt lat="46.01309" lon="6.76015">
        <ele>1404.5999755859</ele>
        <time>2023-09-30T10:38:20.000Z</time>
      </trkpt>
      <trkpt lat="46.01312" lon="6.76017">
        <ele>1404</ele>
        <time>2023-09-30T10:38:21.000Z</time>
      </trkpt>
      <trkpt lat="46.01314" lon="6.76019">
        <ele>1403.1999511719</ele>
        <time>2023-09-30T10:38:22.000Z</time>
      </trkpt>
      <trkpt lat="46.01315" lon="6.7602">
        <ele>1402.8000488281</ele>
        <time>2023-09-30T10:38:23.000Z</time>
      </trkpt>
      <trkpt lat="46.01318" lon="6.76022">
        <ele>1402.4000244141</ele>
        <time>2023-09-30T10:38:24.000Z</time>
      </trkpt>
      <trkpt lat="46.0132" lon="6.76025">
        <ele>1402.1999511719</ele>
        <time>2023-09-30T10:38:25.000Z</time>
      </trkpt>
      <trkpt lat="46.01324" lon="6.76029">
        <ele>1401.4000244141</ele>
        <time>2023-09-30T10:38:26.000Z</time>
      </trkpt>
      <trkpt lat="46.01326" lon="6.76032">
        <ele>1400.8000488281</ele>
        <time>2023-09-30T10:38:27.000Z</time>
      </trkpt>
      <trkpt lat="46.01328" lon="6.76035">
        <ele>1400.4000244141</ele>
        <time>2023-09-30T10:38:28.000Z</time>
      </trkpt>
      <trkpt lat="46.01329" lon="6.76037">
        <ele>1399.4000244141</ele>
        <time>2023-09-30T10:38:29.000Z</time>
      </trkpt>
      <trkpt lat="46.0133" lon="6.7604">
        <ele>1399</ele>
        <time>2023-09-30T10:38:30.000Z</time>
      </trkpt>
      <trkpt lat="46.01331" lon="6.76042">
        <ele>1398.5999755859</ele>
        <time>2023-09-30T10:38:31.000Z</time>
      </trkpt>
      <trkpt lat="46.01332" lon="6.76042">
        <ele>1398.4000244141</ele>
        <time>2023-09-30T10:38:32.000Z</time>
      </trkpt>
      <trkpt lat="46.01333" lon="6.76043">
        <ele>1398</ele>
        <time>2023-09-30T10:38:33.000Z</time>
      </trkpt>
      <trkpt lat="46.01337" lon="6.76045">
        <ele>1398</ele>
        <time>2023-09-30T10:38:34.000Z</time>
      </trkpt>
      <trkpt lat="46.0134" lon="6.76047">
        <ele>1397.8000488281</ele>
        <time>2023-09-30T10:38:35.000Z</time>
      </trkpt>
      <trkpt lat="46.01341" lon="6.76047">
        <ele>1397.1999511719</ele>
        <time>2023-09-30T10:38:36.000Z</time>
      </trkpt>
      <trkpt lat="46.01343" lon="6.76048">
        <ele>1397</ele>
        <time>2023-09-30T10:38:37.000Z</time>
      </trkpt>
      <trkpt lat="46.01344" lon="6.76049">
        <ele>1396.4000244141</ele>
        <time>2023-09-30T10:38:38.000Z</time>
      </trkpt>
      <trkpt lat="46.01344" lon="6.7605">
        <ele>1396</ele>
        <time>2023-09-30T10:38:39.000Z</time>
      </trkpt>
      <trkpt lat="46.01344" lon="6.7605">
        <ele>1395.4000244141</ele>
        <time>2023-09-30T10:38:40.000Z</time>
      </trkpt>
      <trkpt lat="46.01344" lon="6.7605">
        <ele>1395</ele>
        <time>2023-09-30T10:38:41.000Z</time>
      </trkpt>
      <trkpt lat="46.01345" lon="6.7605">
        <ele>1394.1999511719</ele>
        <time>2023-09-30T10:38:49.000Z</time>
      </trkpt>
      <trkpt lat="46.01352" lon="6.76052">
        <ele>1394</ele>
        <time>2023-09-30T10:38:53.000Z</time>
      </trkpt>
      <trkpt lat="46.01354" lon="6.76054">
        <ele>1394</ele>
        <time>2023-09-30T10:38:54.000Z</time>
      </trkpt>
      <trkpt lat="46.01357" lon="6.76054">
        <ele>1393.8000488281</ele>
        <time>2023-09-30T10:38:55.000Z</time>
      </trkpt>
      <trkpt lat="46.01359" lon="6.76057">
        <ele>1393.5999755859</ele>
        <time>2023-09-30T10:38:56.000Z</time>
      </trkpt>
      <trkpt lat="46.01362" lon="6.76061">
        <ele>1393.1999511719</ele>
        <time>2023-09-30T10:38:58.000Z</time>
      </trkpt>
      <trkpt lat="46.01363" lon="6.76063">
        <ele>1392.5999755859</ele>
        <time>2023-09-30T10:38:59.000Z</time>
      </trkpt>
      <trkpt lat="46.01364" lon="6.76064">
        <ele>1392.4000244141</ele>
        <time>2023-09-30T10:39:00.000Z</time>
      </trkpt>
      <trkpt lat="46.01365" lon="6.76065">
        <ele>1391.5999755859</ele>
        <time>2023-09-30T10:39:01.000Z</time>
      </trkpt>
      <trkpt lat="46.01366" lon="6.76067">
        <ele>1391.1999511719</ele>
        <time>2023-09-30T10:39:02.000Z</time>
      </trkpt>
      <trkpt lat="46.01367" lon="6.76069">
        <ele>1390.8000488281</ele>
        <time>2023-09-30T10:39:03.000Z</time>
      </trkpt>
      <trkpt lat="46.01368" lon="6.76072">
        <ele>1390.1999511719</ele>
        <time>2023-09-30T10:39:04.000Z</time>
      </trkpt>
      <trkpt lat="46.0137" lon="6.76074">
        <ele>1390</ele>
        <time>2023-09-30T10:39:05.000Z</time>
      </trkpt>
      <trkpt lat="46.01371" lon="6.76076">
        <ele>1389</ele>
        <time>2023-09-30T10:39:06.000Z</time>
      </trkpt>
      <trkpt lat="46.01371" lon="6.76076">
        <ele>1388.8000488281</ele>
        <time>2023-09-30T10:39:07.000Z</time>
      </trkpt>
      <trkpt lat="46.01371" lon="6.76077">
        <ele>1388.1999511719</ele>
        <time>2023-09-30T10:39:08.000Z</time>
      </trkpt>
      <trkpt lat="46.01372" lon="6.76079">
        <ele>1387.8000488281</ele>
        <time>2023-09-30T10:39:09.000Z</time>
      </trkpt>
      <trkpt lat="46.01373" lon="6.7608">
        <ele>1387.5999755859</ele>
        <time>2023-09-30T10:39:10.000Z</time>
      </trkpt>
      <trkpt lat="46.01375" lon="6.76082">
        <ele>1387.1999511719</ele>
        <time>2023-09-30T10:39:11.000Z</time>
      </trkpt>
      <trkpt lat="46.01378" lon="6.76085">
        <ele>1387.1999511719</ele>
        <time>2023-09-30T10:39:12.000Z</time>
      </trkpt>
      <trkpt lat="46.01378" lon="6.76087">
        <ele>1386.8000488281</ele>
        <time>2023-09-30T10:39:13.000Z</time>
      </trkpt>
      <trkpt lat="46.01379" lon="6.76089">
        <ele>1386.5999755859</ele>
        <time>2023-09-30T10:39:14.000Z</time>
      </trkpt>
      <trkpt lat="46.01379" lon="6.76088">
        <ele>1385.8000488281</ele>
        <time>2023-09-30T10:39:15.000Z</time>
      </trkpt>
      <trkpt lat="46.01379" lon="6.76088">
        <ele>1384.4000244141</ele>
        <time>2023-09-30T10:39:16.000Z</time>
      </trkpt>
      <trkpt lat="46.01379" lon="6.76088">
        <ele>1382.8000488281</ele>
        <time>2023-09-30T10:39:18.000Z</time>
      </trkpt>
      <trkpt lat="46.01379" lon="6.76088">
        <ele>1382</ele>
        <time>2023-09-30T10:39:23.000Z</time>
      </trkpt>
      <trkpt lat="46.01379" lon="6.76088">
        <ele>1381.8000488281</ele>
        <time>2023-09-30T10:39:32.000Z</time>
      </trkpt>
      <trkpt lat="46.01379" lon="6.76089">
        <ele>1381.8000488281</ele>
        <time>2023-09-30T10:39:33.000Z</time>
      </trkpt>
      <trkpt lat="46.01379" lon="6.7609">
        <ele>1381.8000488281</ele>
        <time>2023-09-30T10:39:34.000Z</time>
      </trkpt>
      <trkpt lat="46.01381" lon="6.76092">
        <ele>1381.8000488281</ele>
        <time>2023-09-30T10:39:35.000Z</time>
      </trkpt>
      <trkpt lat="46.01382" lon="6.76093">
        <ele>1381.8000488281</ele>
        <time>2023-09-30T10:39:36.000Z</time>
      </trkpt>
      <trkpt lat="46.01383" lon="6.76093">
        <ele>1381.8000488281</ele>
        <time>2023-09-30T10:39:37.000Z</time>
      </trkpt>
      <trkpt lat="46.01394" lon="6.761">
        <ele>1381</ele>
        <time>2023-09-30T10:39:41.000Z</time>
      </trkpt>
      <trkpt lat="46.01396" lon="6.76102">
        <ele>1380.5999755859</ele>
        <time>2023-09-30T10:39:42.000Z</time>
      </trkpt>
      <trkpt lat="46.01397" lon="6.76103">
        <ele>1380.1999511719</ele>
        <time>2023-09-30T10:39:43.000Z</time>
      </trkpt>
      <trkpt lat="46.01398" lon="6.76105">
        <ele>1379.4000244141</ele>
        <time>2023-09-30T10:39:44.000Z</time>
      </trkpt>
      <trkpt lat="46.014" lon="6.76106">
        <ele>1379</ele>
        <time>2023-09-30T10:39:45.000Z</time>
      </trkpt>
      <trkpt lat="46.01401" lon="6.76107">
        <ele>1378.4000244141</ele>
        <time>2023-09-30T10:39:46.000Z</time>
      </trkpt>
      <trkpt lat="46.01403" lon="6.76107">
        <ele>1378.1999511719</ele>
        <time>2023-09-30T10:39:47.000Z</time>
      </trkpt>
      <trkpt lat="46.01405" lon="6.76106">
        <ele>1377.5999755859</ele>
        <time>2023-09-30T10:39:48.000Z</time>
      </trkpt>
      <trkpt lat="46.01406" lon="6.76107">
        <ele>1377.4000244141</ele>
        <time>2023-09-30T10:39:49.000Z</time>
      </trkpt>
      <trkpt lat="46.01408" lon="6.76108">
        <ele>1377</ele>
        <time>2023-09-30T10:39:50.000Z</time>
      </trkpt>
      <trkpt lat="46.01409" lon="6.76111">
        <ele>1376.5999755859</ele>
        <time>2023-09-30T10:39:51.000Z</time>
      </trkpt>
      <trkpt lat="46.0141" lon="6.76114">
        <ele>1376.4000244141</ele>
        <time>2023-09-30T10:39:52.000Z</time>
      </trkpt>
      <trkpt lat="46.01411" lon="6.76116">
        <ele>1375.8000488281</ele>
        <time>2023-09-30T10:39:53.000Z</time>
      </trkpt>
      <trkpt lat="46.01416" lon="6.76127">
        <ele>1374.1999511719</ele>
        <time>2023-09-30T10:39:57.000Z</time>
      </trkpt>
      <trkpt lat="46.01418" lon="6.7613">
        <ele>1372.5999755859</ele>
        <time>2023-09-30T10:39:58.000Z</time>
      </trkpt>
      <trkpt lat="46.0142" lon="6.76133">
        <ele>1372.1999511719</ele>
        <time>2023-09-30T10:39:59.000Z</time>
      </trkpt>
      <trkpt lat="46.01421" lon="6.76135">
        <ele>1371.1999511719</ele>
        <time>2023-09-30T10:40:00.000Z</time>
      </trkpt>
      <trkpt lat="46.01422" lon="6.76136">
        <ele>1370.8000488281</ele>
        <time>2023-09-30T10:40:01.000Z</time>
      </trkpt>
      <trkpt lat="46.01424" lon="6.76138">
        <ele>1369.5999755859</ele>
        <time>2023-09-30T10:40:02.000Z</time>
      </trkpt>
      <trkpt lat="46.01425" lon="6.76139">
        <ele>1369.1999511719</ele>
        <time>2023-09-30T10:40:03.000Z</time>
      </trkpt>
      <trkpt lat="46.01426" lon="6.7614">
        <ele>1368.4000244141</ele>
        <time>2023-09-30T10:40:04.000Z</time>
      </trkpt>
      <trkpt lat="46.01426" lon="6.76142">
        <ele>1367.4000244141</ele>
        <time>2023-09-30T10:40:05.000Z</time>
      </trkpt>
      <trkpt lat="46.01427" lon="6.76143">
        <ele>1367</ele>
        <time>2023-09-30T10:40:06.000Z</time>
      </trkpt>
      <trkpt lat="46.01429" lon="6.76145">
        <ele>1366.4000244141</ele>
        <time>2023-09-30T10:40:07.000Z</time>
      </trkpt>
      <trkpt lat="46.01432" lon="6.76146">
        <ele>1365.8000488281</ele>
        <time>2023-09-30T10:40:09.000Z</time>
      </trkpt>
      <trkpt lat="46.01433" lon="6.76146">
        <ele>1365.5999755859</ele>
        <time>2023-09-30T10:40:10.000Z</time>
      </trkpt>
      <trkpt lat="46.01433" lon="6.76146">
        <ele>1365.1999511719</ele>
        <time>2023-09-30T10:40:11.000Z</time>
      </trkpt>
      <trkpt lat="46.01433" lon="6.76146">
        <ele>1364.5999755859</ele>
        <time>2023-09-30T10:40:12.000Z</time>
      </trkpt>
      <trkpt lat="46.01434" lon="6.76147">
        <ele>1364.1999511719</ele>
        <time>2023-09-30T10:40:13.000Z</time>
      </trkpt>
      <trkpt lat="46.01435" lon="6.76149">
        <ele>1363.4000244141</ele>
        <time>2023-09-30T10:40:14.000Z</time>
      </trkpt>
      <trkpt lat="46.01436" lon="6.76151">
        <ele>1363</ele>
        <time>2023-09-30T10:40:15.000Z</time>
      </trkpt>
      <trkpt lat="46.01436" lon="6.76152">
        <ele>1362.1999511719</ele>
        <time>2023-09-30T10:40:16.000Z</time>
      </trkpt>
      <trkpt lat="46.01436" lon="6.76152">
        <ele>1361.5999755859</ele>
        <time>2023-09-30T10:40:18.000Z</time>
      </trkpt>
      <trkpt lat="46.01436" lon="6.76152">
        <ele>1361</ele>
        <time>2023-09-30T10:40:19.000Z</time>
      </trkpt>
      <trkpt lat="46.01436" lon="6.76152">
        <ele>1360</ele>
        <time>2023-09-30T10:40:28.000Z</time>
      </trkpt>
      <trkpt lat="46.01436" lon="6.76152">
        <ele>1360</ele>
        <time>2023-09-30T10:40:29.000Z</time>
      </trkpt>
      <trkpt lat="46.01437" lon="6.76152">
        <ele>1359.8000488281</ele>
        <time>2023-09-30T10:40:49.000Z</time>
      </trkpt>
      <trkpt lat="46.01438" lon="6.76154">
        <ele>1359.5999755859</ele>
        <time>2023-09-30T10:40:50.000Z</time>
      </trkpt>
      <trkpt lat="46.01439" lon="6.76155">
        <ele>1359.5999755859</ele>
        <time>2023-09-30T10:40:51.000Z</time>
      </trkpt>
      <trkpt lat="46.01441" lon="6.76157">
        <ele>1359.5999755859</ele>
        <time>2023-09-30T10:40:52.000Z</time>
      </trkpt>
      <trkpt lat="46.01441" lon="6.76159">
        <ele>1359.4000244141</ele>
        <time>2023-09-30T10:40:53.000Z</time>
      </trkpt>
      <trkpt lat="46.01441" lon="6.7616">
        <ele>1359.4000244141</ele>
        <time>2023-09-30T10:40:54.000Z</time>
      </trkpt>
      <trkpt lat="46.01441" lon="6.76161">
        <ele>1359.1999511719</ele>
        <time>2023-09-30T10:40:55.000Z</time>
      </trkpt>
      <trkpt lat="46.01442" lon="6.76162">
        <ele>1359</ele>
        <time>2023-09-30T10:40:56.000Z</time>
      </trkpt>
      <trkpt lat="46.01444" lon="6.76162">
        <ele>1359</ele>
        <time>2023-09-30T10:40:57.000Z</time>
      </trkpt>
      <trkpt lat="46.01448" lon="6.76162">
        <ele>1358.1999511719</ele>
        <time>2023-09-30T10:41:00.000Z</time>
      </trkpt>
      <trkpt lat="46.01448" lon="6.76163">
        <ele>1357.8000488281</ele>
        <time>2023-09-30T10:41:01.000Z</time>
      </trkpt>
      <trkpt lat="46.01448" lon="6.76163">
        <ele>1357.5999755859</ele>
        <time>2023-09-30T10:41:02.000Z</time>
      </trkpt>
      <trkpt lat="46.01448" lon="6.76163">
        <ele>1357.4000244141</ele>
        <time>2023-09-30T10:41:03.000Z</time>
      </trkpt>
      <trkpt lat="46.01448" lon="6.76163">
        <ele>1356.8000488281</ele>
        <time>2023-09-30T10:41:04.000Z</time>
      </trkpt>
      <trkpt lat="46.01449" lon="6.76164">
        <ele>1356.1999511719</ele>
        <time>2023-09-30T10:41:05.000Z</time>
      </trkpt>
      <trkpt lat="46.0145" lon="6.76165">
        <ele>1355.8000488281</ele>
        <time>2023-09-30T10:41:06.000Z</time>
      </trkpt>
      <trkpt lat="46.01451" lon="6.76165">
        <ele>1355.5999755859</ele>
        <time>2023-09-30T10:41:07.000Z</time>
      </trkpt>
      <trkpt lat="46.01453" lon="6.76165">
        <ele>1355.4000244141</ele>
        <time>2023-09-30T10:41:08.000Z</time>
      </trkpt>
      <trkpt lat="46.01453" lon="6.76165">
        <ele>1355.1999511719</ele>
        <time>2023-09-30T10:41:09.000Z</time>
      </trkpt>
      <trkpt lat="46.01453" lon="6.76165">
        <ele>1354.8000488281</ele>
        <time>2023-09-30T10:41:10.000Z</time>
      </trkpt>
      <trkpt lat="46.01454" lon="6.76165">
        <ele>1354.4000244141</ele>
        <time>2023-09-30T10:41:12.000Z</time>
      </trkpt>
      <trkpt lat="46.01453" lon="6.76167">
        <ele>1354</ele>
        <time>2023-09-30T10:41:14.000Z</time>
      </trkpt>
      <trkpt lat="46.01456" lon="6.76171">
        <ele>1353.8000488281</ele>
        <time>2023-09-30T10:41:16.000Z</time>
      </trkpt>
      <trkpt lat="46.01456" lon="6.76173">
        <ele>1353.4000244141</ele>
        <time>2023-09-30T10:41:18.000Z</time>
      </trkpt>
      <trkpt lat="46.01457" lon="6.76174">
        <ele>1353.4000244141</ele>
        <time>2023-09-30T10:41:19.000Z</time>
      </trkpt>
      <trkpt lat="46.01458" lon="6.76175">
        <ele>1353.1999511719</ele>
        <time>2023-09-30T10:41:20.000Z</time>
      </trkpt>
      <trkpt lat="46.0146" lon="6.76179">
        <ele>1353</ele>
        <time>2023-09-30T10:41:22.000Z</time>
      </trkpt>
      <trkpt lat="46.01462" lon="6.76182">
        <ele>1353</ele>
        <time>2023-09-30T10:41:23.000Z</time>
      </trkpt>
      <trkpt lat="46.01463" lon="6.76182">
        <ele>1352.5999755859</ele>
        <time>2023-09-30T10:41:24.000Z</time>
      </trkpt>
      <trkpt lat="46.01464" lon="6.76184">
        <ele>1352.4000244141</ele>
        <time>2023-09-30T10:41:25.000Z</time>
      </trkpt>
      <trkpt lat="46.01467" lon="6.76187">
        <ele>1351.1999511719</ele>
        <time>2023-09-30T10:41:27.000Z</time>
      </trkpt>
      <trkpt lat="46.01468" lon="6.76189">
        <ele>1351</ele>
        <time>2023-09-30T10:41:28.000Z</time>
      </trkpt>
      <trkpt lat="46.0147" lon="6.76191">
        <ele>1350.1999511719</ele>
        <time>2023-09-30T10:41:29.000Z</time>
      </trkpt>
      <trkpt lat="46.01474" lon="6.76191">
        <ele>1349.8000488281</ele>
        <time>2023-09-30T10:41:30.000Z</time>
      </trkpt>
      <trkpt lat="46.01479" lon="6.76195">
        <ele>1349</ele>
        <time>2023-09-30T10:41:32.000Z</time>
      </trkpt>
      <trkpt lat="46.01481" lon="6.76197">
        <ele>1348.1999511719</ele>
        <time>2023-09-30T10:41:33.000Z</time>
      </trkpt>
      <trkpt lat="46.01484" lon="6.76199">
        <ele>1348</ele>
        <time>2023-09-30T10:41:34.000Z</time>
      </trkpt>
      <trkpt lat="46.01485" lon="6.76201">
        <ele>1347.8000488281</ele>
        <time>2023-09-30T10:41:35.000Z</time>
      </trkpt>
      <trkpt lat="46.01488" lon="6.76203">
        <ele>1347.4000244141</ele>
        <time>2023-09-30T10:41:36.000Z</time>
      </trkpt>
      <trkpt lat="46.01488" lon="6.76205">
        <ele>1347.1999511719</ele>
        <time>2023-09-30T10:41:37.000Z</time>
      </trkpt>
      <trkpt lat="46.01487" lon="6.76209">
        <ele>1346.1999511719</ele>
        <time>2023-09-30T10:41:38.000Z</time>
      </trkpt>
      <trkpt lat="46.01487" lon="6.76216">
        <ele>1344.5999755859</ele>
        <time>2023-09-30T10:41:40.000Z</time>
      </trkpt>
      <trkpt lat="46.0149" lon="6.76217">
        <ele>1344</ele>
        <time>2023-09-30T10:41:41.000Z</time>
      </trkpt>
      <trkpt lat="46.01491" lon="6.76216">
        <ele>1343.1999511719</ele>
        <time>2023-09-30T10:41:42.000Z</time>
      </trkpt>
      <trkpt lat="46.01493" lon="6.76214">
        <ele>1342.1999511719</ele>
        <time>2023-09-30T10:41:43.000Z</time>
      </trkpt>
      <trkpt lat="46.01494" lon="6.76212">
        <ele>1341.8000488281</ele>
        <time>2023-09-30T10:41:44.000Z</time>
      </trkpt>
      <trkpt lat="46.01494" lon="6.76209">
        <ele>1341.1999511719</ele>
        <time>2023-09-30T10:41:45.000Z</time>
      </trkpt>
      <trkpt lat="46.01494" lon="6.76208">
        <ele>1341</ele>
        <time>2023-09-30T10:41:46.000Z</time>
      </trkpt>
      <trkpt lat="46.01495" lon="6.76206">
        <ele>1340.5999755859</ele>
        <time>2023-09-30T10:41:47.000Z</time>
      </trkpt>
      <trkpt lat="46.01496" lon="6.76201">
        <ele>1340</ele>
        <time>2023-09-30T10:41:49.000Z</time>
      </trkpt>
      <trkpt lat="46.01496" lon="6.76199">
        <ele>1339.4000244141</ele>
        <time>2023-09-30T10:41:50.000Z</time>
      </trkpt>
      <trkpt lat="46.01496" lon="6.76196">
        <ele>1338.8000488281</ele>
        <time>2023-09-30T10:41:51.000Z</time>
      </trkpt>
      <trkpt lat="46.01497" lon="6.76195">
        <ele>1338.4000244141</ele>
        <time>2023-09-30T10:41:52.000Z</time>
      </trkpt>
      <trkpt lat="46.01496" lon="6.76193">
        <ele>1338.1999511719</ele>
        <time>2023-09-30T10:41:53.000Z</time>
      </trkpt>
      <trkpt lat="46.01495" lon="6.76182">
        <ele>1337</ele>
        <time>2023-09-30T10:41:56.000Z</time>
      </trkpt>
      <trkpt lat="46.01495" lon="6.76179">
        <ele>1336.5999755859</ele>
        <time>2023-09-30T10:41:57.000Z</time>
      </trkpt>
      <trkpt lat="46.01496" lon="6.76175">
        <ele>1336.1999511719</ele>
        <time>2023-09-30T10:41:58.000Z</time>
      </trkpt>
      <trkpt lat="46.01497" lon="6.76174">
        <ele>1335.8000488281</ele>
        <time>2023-09-30T10:41:59.000Z</time>
      </trkpt>
      <trkpt lat="46.01499" lon="6.76174">
        <ele>1335.4000244141</ele>
        <time>2023-09-30T10:42:00.000Z</time>
      </trkpt>
      <trkpt lat="46.01502" lon="6.76174">
        <ele>1334.5999755859</ele>
        <time>2023-09-30T10:42:01.000Z</time>
      </trkpt>
      <trkpt lat="46.01513" lon="6.76175">
        <ele>1333.1999511719</ele>
        <time>2023-09-30T10:42:04.000Z</time>
      </trkpt>
      <trkpt lat="46.0152" lon="6.76179">
        <ele>1332.4000244141</ele>
        <time>2023-09-30T10:42:07.000Z</time>
      </trkpt>
      <trkpt lat="46.01522" lon="6.7618">
        <ele>1331.4000244141</ele>
        <time>2023-09-30T10:42:08.000Z</time>
      </trkpt>
      <trkpt lat="46.01528" lon="6.76181">
        <ele>1330.4000244141</ele>
        <time>2023-09-30T10:42:10.000Z</time>
      </trkpt>
      <trkpt lat="46.0153" lon="6.76182">
        <ele>1329.1999511719</ele>
        <time>2023-09-30T10:42:11.000Z</time>
      </trkpt>
      <trkpt lat="46.01531" lon="6.76184">
        <ele>1328.8000488281</ele>
        <time>2023-09-30T10:42:12.000Z</time>
      </trkpt>
      <trkpt lat="46.01533" lon="6.76185">
        <ele>1328</ele>
        <time>2023-09-30T10:42:13.000Z</time>
      </trkpt>
      <trkpt lat="46.01535" lon="6.76188">
        <ele>1327.8000488281</ele>
        <time>2023-09-30T10:42:14.000Z</time>
      </trkpt>
      <trkpt lat="46.01537" lon="6.7619">
        <ele>1327.4000244141</ele>
        <time>2023-09-30T10:42:15.000Z</time>
      </trkpt>
      <trkpt lat="46.01539" lon="6.76193">
        <ele>1326.4000244141</ele>
        <time>2023-09-30T10:42:16.000Z</time>
      </trkpt>
      <trkpt lat="46.01545" lon="6.76202">
        <ele>1325.4000244141</ele>
        <time>2023-09-30T10:42:19.000Z</time>
      </trkpt>
      <trkpt lat="46.01546" lon="6.76206">
        <ele>1324.1999511719</ele>
        <time>2023-09-30T10:42:20.000Z</time>
      </trkpt>
      <trkpt lat="46.01548" lon="6.7621">
        <ele>1323.5999755859</ele>
        <time>2023-09-30T10:42:21.000Z</time>
      </trkpt>
      <trkpt lat="46.01549" lon="6.76214">
        <ele>1322.8000488281</ele>
        <time>2023-09-30T10:42:22.000Z</time>
      </trkpt>
      <trkpt lat="46.01551" lon="6.76218">
        <ele>1321.4000244141</ele>
        <time>2023-09-30T10:42:23.000Z</time>
      </trkpt>
      <trkpt lat="46.01554" lon="6.76225">
        <ele>1319.5999755859</ele>
        <time>2023-09-30T10:42:25.000Z</time>
      </trkpt>
      <trkpt lat="46.01558" lon="6.7623">
        <ele>1319</ele>
        <time>2023-09-30T10:42:26.000Z</time>
      </trkpt>
      <trkpt lat="46.01561" lon="6.76233">
        <ele>1318.4000244141</ele>
        <time>2023-09-30T10:42:27.000Z</time>
      </trkpt>
      <trkpt lat="46.01572" lon="6.76246">
        <ele>1316.4000244141</ele>
        <time>2023-09-30T10:42:30.000Z</time>
      </trkpt>
      <trkpt lat="46.01574" lon="6.76252">
        <ele>1315.5999755859</ele>
        <time>2023-09-30T10:42:31.000Z</time>
      </trkpt>
      <trkpt lat="46.01577" lon="6.76257">
        <ele>1314.8000488281</ele>
        <time>2023-09-30T10:42:32.000Z</time>
      </trkpt>
      <trkpt lat="46.01582" lon="6.76266">
        <ele>1313.4000244141</ele>
        <time>2023-09-30T10:42:34.000Z</time>
      </trkpt>
      <trkpt lat="46.01587" lon="6.76277">
        <ele>1311.8000488281</ele>
        <time>2023-09-30T10:42:36.000Z</time>
      </trkpt>
      <trkpt lat="46.01588" lon="6.76281">
        <ele>1311</ele>
        <time>2023-09-30T10:42:37.000Z</time>
      </trkpt>
      <trkpt lat="46.0159" lon="6.76284">
        <ele>1310.8000488281</ele>
        <time>2023-09-30T10:42:38.000Z</time>
      </trkpt>
      <trkpt lat="46.01592" lon="6.76288">
        <ele>1310.1999511719</ele>
        <time>2023-09-30T10:42:39.000Z</time>
      </trkpt>
      <trkpt lat="46.01596" lon="6.76298">
        <ele>1309.1999511719</ele>
        <time>2023-09-30T10:42:41.000Z</time>
      </trkpt>
      <trkpt lat="46.01599" lon="6.76301">
        <ele>1308.8000488281</ele>
        <time>2023-09-30T10:42:42.000Z</time>
      </trkpt>
      <trkpt lat="46.01603" lon="6.76303">
        <ele>1308</ele>
        <time>2023-09-30T10:42:43.000Z</time>
      </trkpt>
      <trkpt lat="46.01607" lon="6.76305">
        <ele>1307</ele>
        <time>2023-09-30T10:42:44.000Z</time>
      </trkpt>
      <trkpt lat="46.01612" lon="6.76308">
        <ele>1306.5999755859</ele>
        <time>2023-09-30T10:42:45.000Z</time>
      </trkpt>
      <trkpt lat="46.01619" lon="6.76313">
        <ele>1306.1999511719</ele>
        <time>2023-09-30T10:42:47.000Z</time>
      </trkpt>
      <trkpt lat="46.01622" lon="6.76316">
        <ele>1305.5999755859</ele>
        <time>2023-09-30T10:42:48.000Z</time>
      </trkpt>
      <trkpt lat="46.01625" lon="6.76318">
        <ele>1305.4000244141</ele>
        <time>2023-09-30T10:42:49.000Z</time>
      </trkpt>
      <trkpt lat="46.01627" lon="6.7632">
        <ele>1305</ele>
        <time>2023-09-30T10:42:50.000Z</time>
      </trkpt>
      <trkpt lat="46.01627" lon="6.76321">
        <ele>1303.8000488281</ele>
        <time>2023-09-30T10:42:51.000Z</time>
      </trkpt>
      <trkpt lat="46.01629" lon="6.76323">
        <ele>1303</ele>
        <time>2023-09-30T10:42:52.000Z</time>
      </trkpt>
      <trkpt lat="46.0163" lon="6.76325">
        <ele>1301.8000488281</ele>
        <time>2023-09-30T10:42:53.000Z</time>
      </trkpt>
      <trkpt lat="46.01637" lon="6.7633">
        <ele>1300.5999755859</ele>
        <time>2023-09-30T10:42:55.000Z</time>
      </trkpt>
      <trkpt lat="46.01642" lon="6.76333">
        <ele>1300.4000244141</ele>
        <time>2023-09-30T10:42:56.000Z</time>
      </trkpt>
      <trkpt lat="46.01646" lon="6.76335">
        <ele>1300.1999511719</ele>
        <time>2023-09-30T10:42:57.000Z</time>
      </trkpt>
      <trkpt lat="46.01656" lon="6.7634">
        <ele>1299.5999755859</ele>
        <time>2023-09-30T10:42:59.000Z</time>
      </trkpt>
      <trkpt lat="46.01659" lon="6.76342">
        <ele>1298.4000244141</ele>
        <time>2023-09-30T10:43:00.000Z</time>
      </trkpt>
      <trkpt lat="46.01661" lon="6.76345">
        <ele>1297.8000488281</ele>
        <time>2023-09-30T10:43:01.000Z</time>
      </trkpt>
      <trkpt lat="46.01664" lon="6.76347">
        <ele>1296.8000488281</ele>
        <time>2023-09-30T10:43:02.000Z</time>
      </trkpt>
      <trkpt lat="46.01666" lon="6.7635">
        <ele>1296.1999511719</ele>
        <time>2023-09-30T10:43:03.000Z</time>
      </trkpt>
      <trkpt lat="46.01669" lon="6.76353">
        <ele>1294.4000244141</ele>
        <time>2023-09-30T10:43:04.000Z</time>
      </trkpt>
      <trkpt lat="46.01672" lon="6.76356">
        <ele>1293.4000244141</ele>
        <time>2023-09-30T10:43:05.000Z</time>
      </trkpt>
      <trkpt lat="46.01677" lon="6.76359">
        <ele>1293.1999511719</ele>
        <time>2023-09-30T10:43:06.000Z</time>
      </trkpt>
      <trkpt lat="46.01682" lon="6.76364">
        <ele>1292.5999755859</ele>
        <time>2023-09-30T10:43:07.000Z</time>
      </trkpt>
      <trkpt lat="46.01687" lon="6.76367">
        <ele>1292.4000244141</ele>
        <time>2023-09-30T10:43:08.000Z</time>
      </trkpt>
      <trkpt lat="46.01691" lon="6.76371">
        <ele>1291.8000488281</ele>
        <time>2023-09-30T10:43:09.000Z</time>
      </trkpt>
      <trkpt lat="46.01696" lon="6.76375">
        <ele>1291.4000244141</ele>
        <time>2023-09-30T10:43:10.000Z</time>
      </trkpt>
      <trkpt lat="46.01701" lon="6.76379">
        <ele>1290.5999755859</ele>
        <time>2023-09-30T10:43:11.000Z</time>
      </trkpt>
      <trkpt lat="46.01706" lon="6.76386">
        <ele>1289.4000244141</ele>
        <time>2023-09-30T10:43:12.000Z</time>
      </trkpt>
      <trkpt lat="46.0171" lon="6.7639">
        <ele>1288.8000488281</ele>
        <time>2023-09-30T10:43:13.000Z</time>
      </trkpt>
      <trkpt lat="46.01716" lon="6.76395">
        <ele>1287.8000488281</ele>
        <time>2023-09-30T10:43:14.000Z</time>
      </trkpt>
      <trkpt lat="46.01721" lon="6.76398">
        <ele>1287.1999511719</ele>
        <time>2023-09-30T10:43:15.000Z</time>
      </trkpt>
      <trkpt lat="46.01727" lon="6.76401">
        <ele>1285.5999755859</ele>
        <time>2023-09-30T10:43:16.000Z</time>
      </trkpt>
      <trkpt lat="46.01732" lon="6.76404">
        <ele>1284.5999755859</ele>
        <time>2023-09-30T10:43:17.000Z</time>
      </trkpt>
      <trkpt lat="46.01736" lon="6.76407">
        <ele>1283</ele>
        <time>2023-09-30T10:43:18.000Z</time>
      </trkpt>
      <trkpt lat="46.0174" lon="6.7641">
        <ele>1281.8000488281</ele>
        <time>2023-09-30T10:43:19.000Z</time>
      </trkpt>
      <trkpt lat="46.01745" lon="6.76415">
        <ele>1281.1999511719</ele>
        <time>2023-09-30T10:43:20.000Z</time>
      </trkpt>
      <trkpt lat="46.0175" lon="6.76419">
        <ele>1280.1999511719</ele>
        <time>2023-09-30T10:43:21.000Z</time>
      </trkpt>
      <trkpt lat="46.01753" lon="6.76423">
        <ele>1279.8000488281</ele>
        <time>2023-09-30T10:43:22.000Z</time>
      </trkpt>
      <trkpt lat="46.01757" lon="6.76426">
        <ele>1278</ele>
        <time>2023-09-30T10:43:23.000Z</time>
      </trkpt>
      <trkpt lat="46.01765" lon="6.76432">
        <ele>1275.4000244141</ele>
        <time>2023-09-30T10:43:25.000Z</time>
      </trkpt>
      <trkpt lat="46.01771" lon="6.76436">
        <ele>1273.1999511719</ele>
        <time>2023-09-30T10:43:26.000Z</time>
      </trkpt>
      <trkpt lat="46.01774" lon="6.76441">
        <ele>1272.4000244141</ele>
        <time>2023-09-30T10:43:27.000Z</time>
      </trkpt>
      <trkpt lat="46.01776" lon="6.76445">
        <ele>1270.8000488281</ele>
        <time>2023-09-30T10:43:28.000Z</time>
      </trkpt>
      <trkpt lat="46.0178" lon="6.76451">
        <ele>1269.8000488281</ele>
        <time>2023-09-30T10:43:29.000Z</time>
      </trkpt>
      <trkpt lat="46.01784" lon="6.76456">
        <ele>1268.4000244141</ele>
        <time>2023-09-30T10:43:30.000Z</time>
      </trkpt>
      <trkpt lat="46.01786" lon="6.76463">
        <ele>1267.5999755859</ele>
        <time>2023-09-30T10:43:31.000Z</time>
      </trkpt>
      <trkpt lat="46.01787" lon="6.76469">
        <ele>1266.5999755859</ele>
        <time>2023-09-30T10:43:32.000Z</time>
      </trkpt>
      <trkpt lat="46.01788" lon="6.76474">
        <ele>1265</ele>
        <time>2023-09-30T10:43:33.000Z</time>
      </trkpt>
      <trkpt lat="46.0179" lon="6.76481">
        <ele>1264.4000244141</ele>
        <time>2023-09-30T10:43:34.000Z</time>
      </trkpt>
      <trkpt lat="46.01792" lon="6.76486">
        <ele>1262.5999755859</ele>
        <time>2023-09-30T10:43:35.000Z</time>
      </trkpt>
      <trkpt lat="46.01795" lon="6.7649">
        <ele>1262</ele>
        <time>2023-09-30T10:43:36.000Z</time>
      </trkpt>
      <trkpt lat="46.01799" lon="6.76494">
        <ele>1260.4000244141</ele>
        <time>2023-09-30T10:43:37.000Z</time>
      </trkpt>
      <trkpt lat="46.01803" lon="6.76499">
        <ele>1259.8000488281</ele>
        <time>2023-09-30T10:43:38.000Z</time>
      </trkpt>
      <trkpt lat="46.01807" lon="6.76503">
        <ele>1258.1999511719</ele>
        <time>2023-09-30T10:43:39.000Z</time>
      </trkpt>
      <trkpt lat="46.01811" lon="6.76509">
        <ele>1256.4000244141</ele>
        <time>2023-09-30T10:43:40.000Z</time>
      </trkpt>
      <trkpt lat="46.01814" lon="6.76514">
        <ele>1255.8000488281</ele>
        <time>2023-09-30T10:43:41.000Z</time>
      </trkpt>
      <trkpt lat="46.01817" lon="6.76518">
        <ele>1254.1999511719</ele>
        <time>2023-09-30T10:43:42.000Z</time>
      </trkpt>
      <trkpt lat="46.0182" lon="6.76523">
        <ele>1253.5999755859</ele>
        <time>2023-09-30T10:43:43.000Z</time>
      </trkpt>
      <trkpt lat="46.01824" lon="6.76527">
        <ele>1252</ele>
        <time>2023-09-30T10:43:44.000Z</time>
      </trkpt>
      <trkpt lat="46.01829" lon="6.76531">
        <ele>1251.1999511719</ele>
        <time>2023-09-30T10:43:45.000Z</time>
      </trkpt>
      <trkpt lat="46.01834" lon="6.76534">
        <ele>1249.5999755859</ele>
        <time>2023-09-30T10:43:46.000Z</time>
      </trkpt>
      <trkpt lat="46.01839" lon="6.76536">
        <ele>1248.8000488281</ele>
        <time>2023-09-30T10:43:47.000Z</time>
      </trkpt>
      <trkpt lat="46.01844" lon="6.76536">
        <ele>1248.4000244141</ele>
        <time>2023-09-30T10:43:48.000Z</time>
      </trkpt>
      <trkpt lat="46.01849" lon="6.76535">
        <ele>1246.8000488281</ele>
        <time>2023-09-30T10:43:49.000Z</time>
      </trkpt>
      <trkpt lat="46.01853" lon="6.76535">
        <ele>1246</ele>
        <time>2023-09-30T10:43:50.000Z</time>
      </trkpt>
      <trkpt lat="46.01858" lon="6.76536">
        <ele>1245</ele>
        <time>2023-09-30T10:43:51.000Z</time>
      </trkpt>
      <trkpt lat="46.01861" lon="6.76537">
        <ele>1244.5999755859</ele>
        <time>2023-09-30T10:43:52.000Z</time>
      </trkpt>
      <trkpt lat="46.01867" lon="6.76538">
        <ele>1243.4000244141</ele>
        <time>2023-09-30T10:43:53.000Z</time>
      </trkpt>
      <trkpt lat="46.01871" lon="6.76539">
        <ele>1241.5999755859</ele>
        <time>2023-09-30T10:43:54.000Z</time>
      </trkpt>
      <trkpt lat="46.01874" lon="6.7654">
        <ele>1240.8000488281</ele>
        <time>2023-09-30T10:43:55.000Z</time>
      </trkpt>
      <trkpt lat="46.01878" lon="6.76542">
        <ele>1239.4000244141</ele>
        <time>2023-09-30T10:43:56.000Z</time>
      </trkpt>
      <trkpt lat="46.01881" lon="6.76543">
        <ele>1238.5999755859</ele>
        <time>2023-09-30T10:43:57.000Z</time>
      </trkpt>
      <trkpt lat="46.01887" lon="6.76547">
        <ele>1237.1999511719</ele>
        <time>2023-09-30T10:43:58.000Z</time>
      </trkpt>
      <trkpt lat="46.01892" lon="6.76552">
        <ele>1236.1999511719</ele>
        <time>2023-09-30T10:43:59.000Z</time>
      </trkpt>
      <trkpt lat="46.01897" lon="6.76555">
        <ele>1234.5999755859</ele>
        <time>2023-09-30T10:44:00.000Z</time>
      </trkpt>
      <trkpt lat="46.01908" lon="6.76563">
        <ele>1233.4000244141</ele>
        <time>2023-09-30T10:44:02.000Z</time>
      </trkpt>
      <trkpt lat="46.01912" lon="6.76567">
        <ele>1231.8000488281</ele>
        <time>2023-09-30T10:44:03.000Z</time>
      </trkpt>
      <trkpt lat="46.01917" lon="6.76572">
        <ele>1231.4000244141</ele>
        <time>2023-09-30T10:44:04.000Z</time>
      </trkpt>
      <trkpt lat="46.01921" lon="6.76578">
        <ele>1230</ele>
        <time>2023-09-30T10:44:05.000Z</time>
      </trkpt>
      <trkpt lat="46.01928" lon="6.76587">
        <ele>1228</ele>
        <time>2023-09-30T10:44:07.000Z</time>
      </trkpt>
      <trkpt lat="46.01932" lon="6.76593">
        <ele>1226.8000488281</ele>
        <time>2023-09-30T10:44:08.000Z</time>
      </trkpt>
      <trkpt lat="46.01936" lon="6.76598">
        <ele>1226</ele>
        <time>2023-09-30T10:44:09.000Z</time>
      </trkpt>
      <trkpt lat="46.01941" lon="6.76604">
        <ele>1224.5999755859</ele>
        <time>2023-09-30T10:44:10.000Z</time>
      </trkpt>
      <trkpt lat="46.01949" lon="6.76615">
        <ele>1223.5999755859</ele>
        <time>2023-09-30T10:44:12.000Z</time>
      </trkpt>
      <trkpt lat="46.01957" lon="6.76624">
        <ele>1221.5999755859</ele>
        <time>2023-09-30T10:44:14.000Z</time>
      </trkpt>
      <trkpt lat="46.01959" lon="6.76627">
        <ele>1220</ele>
        <time>2023-09-30T10:44:15.000Z</time>
      </trkpt>
      <trkpt lat="46.01959" lon="6.76629">
        <ele>1219.5999755859</ele>
        <time>2023-09-30T10:44:16.000Z</time>
      </trkpt>
      <trkpt lat="46.01959" lon="6.76632">
        <ele>1218.4000244141</ele>
        <time>2023-09-30T10:44:17.000Z</time>
      </trkpt>
      <trkpt lat="46.0196" lon="6.76634">
        <ele>1218</ele>
        <time>2023-09-30T10:44:18.000Z</time>
      </trkpt>
      <trkpt lat="46.01961" lon="6.76635">
        <ele>1217.1999511719</ele>
        <time>2023-09-30T10:44:19.000Z</time>
      </trkpt>
      <trkpt lat="46.01962" lon="6.76636">
        <ele>1216.8000488281</ele>
        <time>2023-09-30T10:44:20.000Z</time>
      </trkpt>
      <trkpt lat="46.01962" lon="6.76636">
        <ele>1216.5999755859</ele>
        <time>2023-09-30T10:44:21.000Z</time>
      </trkpt>
      <trkpt lat="46.01963" lon="6.76634">
        <ele>1216.4000244141</ele>
        <time>2023-09-30T10:44:22.000Z</time>
      </trkpt>
      <trkpt lat="46.01963" lon="6.76632">
        <ele>1215.8000488281</ele>
        <time>2023-09-30T10:44:23.000Z</time>
      </trkpt>
      <trkpt lat="46.01963" lon="6.7663">
        <ele>1215.4000244141</ele>
        <time>2023-09-30T10:44:24.000Z</time>
      </trkpt>
      <trkpt lat="46.01962" lon="6.7663">
        <ele>1215.4000244141</ele>
        <time>2023-09-30T10:44:25.000Z</time>
      </trkpt>
      <trkpt lat="46.01961" lon="6.7663">
        <ele>1215.1999511719</ele>
        <time>2023-09-30T10:44:26.000Z</time>
      </trkpt>
      <trkpt lat="46.01961" lon="6.76631">
        <ele>1215.4000244141</ele>
        <time>2023-09-30T10:44:27.000Z</time>
      </trkpt>
      <trkpt lat="46.0196" lon="6.76633">
        <ele>1215.1999511719</ele>
        <time>2023-09-30T10:44:28.000Z</time>
      </trkpt>
      <trkpt lat="46.01959" lon="6.76638">
        <ele>1215.1999511719</ele>
        <time>2023-09-30T10:44:30.000Z</time>
      </trkpt>
      <trkpt lat="46.01957" lon="6.7664">
        <ele>1215.4000244141</ele>
        <time>2023-09-30T10:44:31.000Z</time>
      </trkpt>
      <trkpt lat="46.01956" lon="6.76641">
        <ele>1215.4000244141</ele>
        <time>2023-09-30T10:44:32.000Z</time>
      </trkpt>
      <trkpt lat="46.01955" lon="6.76643">
        <ele>1215.4000244141</ele>
        <time>2023-09-30T10:44:33.000Z</time>
      </trkpt>
      <trkpt lat="46.01954" lon="6.76645">
        <ele>1215.5999755859</ele>
        <time>2023-09-30T10:44:34.000Z</time>
      </trkpt>
      <trkpt lat="46.01953" lon="6.76648">
        <ele>1215.5999755859</ele>
        <time>2023-09-30T10:44:35.000Z</time>
      </trkpt>
      <trkpt lat="46.01953" lon="6.76649">
        <ele>1215.5999755859</ele>
        <time>2023-09-30T10:44:36.000Z</time>
      </trkpt>
      <trkpt lat="46.01953" lon="6.76651">
        <ele>1215.8000488281</ele>
        <time>2023-09-30T10:44:38.000Z</time>
      </trkpt>
      <trkpt lat="46.01955" lon="6.76661">
        <ele>1216</ele>
        <time>2023-09-30T10:44:41.000Z</time>
      </trkpt>
      <trkpt lat="46.01961" lon="6.76665">
        <ele>1216</ele>
        <time>2023-09-30T10:44:43.000Z</time>
      </trkpt>
      <trkpt lat="46.01973" lon="6.76667">
        <ele>1216</ele>
        <time>2023-09-30T10:44:45.000Z</time>
      </trkpt>
      <trkpt lat="46.0198" lon="6.76667">
        <ele>1216</ele>
        <time>2023-09-30T10:44:46.000Z</time>
      </trkpt>
      <trkpt lat="46.01995" lon="6.76667">
        <ele>1215.5999755859</ele>
        <time>2023-09-30T10:44:48.000Z</time>
      </trkpt>
      <trkpt lat="46.02" lon="6.76667">
        <ele>1215</ele>
        <time>2023-09-30T10:44:49.000Z</time>
      </trkpt>
      <trkpt lat="46.02004" lon="6.76667">
        <ele>1214.4000244141</ele>
        <time>2023-09-30T10:44:50.000Z</time>
      </trkpt>
      <trkpt lat="46.02007" lon="6.76667">
        <ele>1213.4000244141</ele>
        <time>2023-09-30T10:44:51.000Z</time>
      </trkpt>
      <trkpt lat="46.02011" lon="6.76666">
        <ele>1212.8000488281</ele>
        <time>2023-09-30T10:44:52.000Z</time>
      </trkpt>
      <trkpt lat="46.02014" lon="6.76665">
        <ele>1211.5999755859</ele>
        <time>2023-09-30T10:44:53.000Z</time>
      </trkpt>
      <trkpt lat="46.02017" lon="6.76663">
        <ele>1209.8000488281</ele>
        <time>2023-09-30T10:44:54.000Z</time>
      </trkpt>
      <trkpt lat="46.0202" lon="6.76663">
        <ele>1209.1999511719</ele>
        <time>2023-09-30T10:44:55.000Z</time>
      </trkpt>
      <trkpt lat="46.02024" lon="6.76664">
        <ele>1207.8000488281</ele>
        <time>2023-09-30T10:44:56.000Z</time>
      </trkpt>
      <trkpt lat="46.02025" lon="6.76666">
        <ele>1207.4000244141</ele>
        <time>2023-09-30T10:44:57.000Z</time>
      </trkpt>
      <trkpt lat="46.02028" lon="6.7667">
        <ele>1206.5999755859</ele>
        <time>2023-09-30T10:44:58.000Z</time>
      </trkpt>
      <trkpt lat="46.02029" lon="6.76673">
        <ele>1206.1999511719</ele>
        <time>2023-09-30T10:44:59.000Z</time>
      </trkpt>
      <trkpt lat="46.02031" lon="6.76678">
        <ele>1205.8000488281</ele>
        <time>2023-09-30T10:45:00.000Z</time>
      </trkpt>
      <trkpt lat="46.02034" lon="6.76683">
        <ele>1205</ele>
        <time>2023-09-30T10:45:01.000Z</time>
      </trkpt>
      <trkpt lat="46.02047" lon="6.767">
        <ele>1204.4000244141</ele>
        <time>2023-09-30T10:45:03.000Z</time>
      </trkpt>
      <trkpt lat="46.02054" lon="6.76709">
        <ele>1204.1999511719</ele>
        <time>2023-09-30T10:45:04.000Z</time>
      </trkpt>
      <trkpt lat="46.02061" lon="6.7672">
        <ele>1203.4000244141</ele>
        <time>2023-09-30T10:45:05.000Z</time>
      </trkpt>
      <trkpt lat="46.02073" lon="6.76747">
        <ele>1201.8000488281</ele>
        <time>2023-09-30T10:45:07.000Z</time>
      </trkpt>
      <trkpt lat="46.02077" lon="6.76761">
        <ele>1200</ele>
        <time>2023-09-30T10:45:08.000Z</time>
      </trkpt>
      <trkpt lat="46.02081" lon="6.76772">
        <ele>1199.4000244141</ele>
        <time>2023-09-30T10:45:09.000Z</time>
      </trkpt>
      <trkpt lat="46.02083" lon="6.76782">
        <ele>1198</ele>
        <time>2023-09-30T10:45:10.000Z</time>
      </trkpt>
      <trkpt lat="46.02085" lon="6.76789">
        <ele>1197.1999511719</ele>
        <time>2023-09-30T10:45:11.000Z</time>
      </trkpt>
      <trkpt lat="46.02087" lon="6.76794">
        <ele>1195.8000488281</ele>
        <time>2023-09-30T10:45:12.000Z</time>
      </trkpt>
      <trkpt lat="46.02089" lon="6.76797">
        <ele>1194.5999755859</ele>
        <time>2023-09-30T10:45:13.000Z</time>
      </trkpt>
      <trkpt lat="46.0209" lon="6.76799">
        <ele>1193.8000488281</ele>
        <time>2023-09-30T10:45:14.000Z</time>
      </trkpt>
      <trkpt lat="46.02091" lon="6.768">
        <ele>1191.8000488281</ele>
        <time>2023-09-30T10:45:15.000Z</time>
      </trkpt>
      <trkpt lat="46.02091" lon="6.768">
        <ele>1191</ele>
        <time>2023-09-30T10:45:16.000Z</time>
      </trkpt>
      <trkpt lat="46.02091" lon="6.768">
        <ele>1189.8000488281</ele>
        <time>2023-09-30T10:45:17.000Z</time>
      </trkpt>
      <trkpt lat="46.02091" lon="6.768">
        <ele>1188.4000244141</ele>
        <time>2023-09-30T10:45:19.000Z</time>
      </trkpt>
      <trkpt lat="46.02092" lon="6.76801">
        <ele>1187.1999511719</ele>
        <time>2023-09-30T10:45:22.000Z</time>
      </trkpt>
      <trkpt lat="46.02101" lon="6.76807">
        <ele>1186.8000488281</ele>
        <time>2023-09-30T10:45:25.000Z</time>
      </trkpt>
      <trkpt lat="46.02106" lon="6.76807">
        <ele>1186.8000488281</ele>
        <time>2023-09-30T10:45:26.000Z</time>
      </trkpt>
      <trkpt lat="46.02116" lon="6.768">
        <ele>1186.5999755859</ele>
        <time>2023-09-30T10:45:28.000Z</time>
      </trkpt>
      <trkpt lat="46.02121" lon="6.76799">
        <ele>1186.4000244141</ele>
        <time>2023-09-30T10:45:29.000Z</time>
      </trkpt>
      <trkpt lat="46.02125" lon="6.76798">
        <ele>1186.1999511719</ele>
        <time>2023-09-30T10:45:30.000Z</time>
      </trkpt>
      <trkpt lat="46.02129" lon="6.768">
        <ele>1185.4000244141</ele>
        <time>2023-09-30T10:45:31.000Z</time>
      </trkpt>
      <trkpt lat="46.02133" lon="6.76802">
        <ele>1185.4000244141</ele>
        <time>2023-09-30T10:45:32.000Z</time>
      </trkpt>
      <trkpt lat="46.02135" lon="6.76808">
        <ele>1184.5999755859</ele>
        <time>2023-09-30T10:45:33.000Z</time>
      </trkpt>
      <trkpt lat="46.02136" lon="6.76815">
        <ele>1184</ele>
        <time>2023-09-30T10:45:34.000Z</time>
      </trkpt>
      <trkpt lat="46.02136" lon="6.76822">
        <ele>1183.8000488281</ele>
        <time>2023-09-30T10:45:35.000Z</time>
      </trkpt>
      <trkpt lat="46.02136" lon="6.7683">
        <ele>1183.1999511719</ele>
        <time>2023-09-30T10:45:36.000Z</time>
      </trkpt>
      <trkpt lat="46.02135" lon="6.76842">
        <ele>1183</ele>
        <time>2023-09-30T10:45:37.000Z</time>
      </trkpt>
      <trkpt lat="46.02133" lon="6.7685">
        <ele>1182.1999511719</ele>
        <time>2023-09-30T10:45:38.000Z</time>
      </trkpt>
      <trkpt lat="46.0213" lon="6.76866">
        <ele>1180.8000488281</ele>
        <time>2023-09-30T10:45:40.000Z</time>
      </trkpt>
      <trkpt lat="46.02129" lon="6.76871">
        <ele>1180</ele>
        <time>2023-09-30T10:45:41.000Z</time>
      </trkpt>
      <trkpt lat="46.02127" lon="6.76876">
        <ele>1179.5999755859</ele>
        <time>2023-09-30T10:45:42.000Z</time>
      </trkpt>
      <trkpt lat="46.02126" lon="6.76879">
        <ele>1179</ele>
        <time>2023-09-30T10:45:43.000Z</time>
      </trkpt>
      <trkpt lat="46.02123" lon="6.76883">
        <ele>1178.5999755859</ele>
        <time>2023-09-30T10:45:44.000Z</time>
      </trkpt>
      <trkpt lat="46.02122" lon="6.76885">
        <ele>1178</ele>
        <time>2023-09-30T10:45:45.000Z</time>
      </trkpt>
      <trkpt lat="46.02122" lon="6.76887">
        <ele>1177.8000488281</ele>
        <time>2023-09-30T10:45:46.000Z</time>
      </trkpt>
      <trkpt lat="46.02122" lon="6.76889">
        <ele>1177.4000244141</ele>
        <time>2023-09-30T10:45:47.000Z</time>
      </trkpt>
      <trkpt lat="46.02124" lon="6.76889">
        <ele>1176.8000488281</ele>
        <time>2023-09-30T10:45:48.000Z</time>
      </trkpt>
      <trkpt lat="46.02126" lon="6.76889">
        <ele>1176.5999755859</ele>
        <time>2023-09-30T10:45:49.000Z</time>
      </trkpt>
      <trkpt lat="46.02131" lon="6.76892">
        <ele>1176.1999511719</ele>
        <time>2023-09-30T10:45:52.000Z</time>
      </trkpt>
      <trkpt lat="46.02133" lon="6.76892">
        <ele>1176.1999511719</ele>
        <time>2023-09-30T10:45:53.000Z</time>
      </trkpt>
      <trkpt lat="46.02136" lon="6.76892">
        <ele>1176</ele>
        <time>2023-09-30T10:45:54.000Z</time>
      </trkpt>
      <trkpt lat="46.02137" lon="6.76892">
        <ele>1175.5999755859</ele>
        <time>2023-09-30T10:45:55.000Z</time>
      </trkpt>
      <trkpt lat="46.02138" lon="6.76892">
        <ele>1175</ele>
        <time>2023-09-30T10:45:56.000Z</time>
      </trkpt>
      <trkpt lat="46.0214" lon="6.76892">
        <ele>1174.4000244141</ele>
        <time>2023-09-30T10:45:57.000Z</time>
      </trkpt>
      <trkpt lat="46.02142" lon="6.76892">
        <ele>1173.8000488281</ele>
        <time>2023-09-30T10:45:58.000Z</time>
      </trkpt>
      <trkpt lat="46.02146" lon="6.76893">
        <ele>1172.1999511719</ele>
        <time>2023-09-30T10:46:00.000Z</time>
      </trkpt>
      <trkpt lat="46.02149" lon="6.76895">
        <ele>1171.1999511719</ele>
        <time>2023-09-30T10:46:01.000Z</time>
      </trkpt>
      <trkpt lat="46.02151" lon="6.76896">
        <ele>1170.8000488281</ele>
        <time>2023-09-30T10:46:02.000Z</time>
      </trkpt>
      <trkpt lat="46.02152" lon="6.76897">
        <ele>1170.1999511719</ele>
        <time>2023-09-30T10:46:03.000Z</time>
      </trkpt>
      <trkpt lat="46.02152" lon="6.76898">
        <ele>1169.4000244141</ele>
        <time>2023-09-30T10:46:04.000Z</time>
      </trkpt>
      <trkpt lat="46.02153" lon="6.76897">
        <ele>1168.8000488281</ele>
        <time>2023-09-30T10:46:05.000Z</time>
      </trkpt>
      <trkpt lat="46.02155" lon="6.76895">
        <ele>1168.1999511719</ele>
        <time>2023-09-30T10:46:06.000Z</time>
      </trkpt>
      <trkpt lat="46.02157" lon="6.76894">
        <ele>1168</ele>
        <time>2023-09-30T10:46:07.000Z</time>
      </trkpt>
      <trkpt lat="46.02158" lon="6.76892">
        <ele>1167.8000488281</ele>
        <time>2023-09-30T10:46:08.000Z</time>
      </trkpt>
      <trkpt lat="46.02158" lon="6.7689">
        <ele>1167.1999511719</ele>
        <time>2023-09-30T10:46:09.000Z</time>
      </trkpt>
      <trkpt lat="46.02167" lon="6.76878">
        <ele>1166.4000244141</ele>
        <time>2023-09-30T10:46:13.000Z</time>
      </trkpt>
      <trkpt lat="46.0217" lon="6.76875">
        <ele>1166.4000244141</ele>
        <time>2023-09-30T10:46:14.000Z</time>
      </trkpt>
      <trkpt lat="46.02174" lon="6.76872">
        <ele>1166.1999511719</ele>
        <time>2023-09-30T10:46:15.000Z</time>
      </trkpt>
      <trkpt lat="46.02179" lon="6.76871">
        <ele>1166.1999511719</ele>
        <time>2023-09-30T10:46:16.000Z</time>
      </trkpt>
      <trkpt lat="46.02185" lon="6.76873">
        <ele>1166</ele>
        <time>2023-09-30T10:46:17.000Z</time>
      </trkpt>
      <trkpt lat="46.0219" lon="6.76877">
        <ele>1166</ele>
        <time>2023-09-30T10:46:18.000Z</time>
      </trkpt>
      <trkpt lat="46.02192" lon="6.76884">
        <ele>1165.8000488281</ele>
        <time>2023-09-30T10:46:19.000Z</time>
      </trkpt>
      <trkpt lat="46.0219" lon="6.76894">
        <ele>1165.8000488281</ele>
        <time>2023-09-30T10:46:20.000Z</time>
      </trkpt>
      <trkpt lat="46.02188" lon="6.76902">
        <ele>1165.5999755859</ele>
        <time>2023-09-30T10:46:21.000Z</time>
      </trkpt>
      <trkpt lat="46.02185" lon="6.76908">
        <ele>1165</ele>
        <time>2023-09-30T10:46:22.000Z</time>
      </trkpt>
      <trkpt lat="46.02182" lon="6.76913">
        <ele>1164.8000488281</ele>
        <time>2023-09-30T10:46:23.000Z</time>
      </trkpt>
      <trkpt lat="46.02178" lon="6.76919">
        <ele>1164.4000244141</ele>
        <time>2023-09-30T10:46:24.000Z</time>
      </trkpt>
      <trkpt lat="46.02175" lon="6.76924">
        <ele>1164</ele>
        <time>2023-09-30T10:46:25.000Z</time>
      </trkpt>
      <trkpt lat="46.02175" lon="6.76928">
        <ele>1163.5999755859</ele>
        <time>2023-09-30T10:46:26.000Z</time>
      </trkpt>
      <trkpt lat="46.02174" lon="6.7693">
        <ele>1162.5999755859</ele>
        <time>2023-09-30T10:46:27.000Z</time>
      </trkpt>
      <trkpt lat="46.02174" lon="6.76931">
        <ele>1162</ele>
        <time>2023-09-30T10:46:28.000Z</time>
      </trkpt>
      <trkpt lat="46.02175" lon="6.76931">
        <ele>1161.4000244141</ele>
        <time>2023-09-30T10:46:29.000Z</time>
      </trkpt>
      <trkpt lat="46.02175" lon="6.76932">
        <ele>1161</ele>
        <time>2023-09-30T10:46:30.000Z</time>
      </trkpt>
      <trkpt lat="46.02177" lon="6.76933">
        <ele>1160.1999511719</ele>
        <time>2023-09-30T10:46:32.000Z</time>
      </trkpt>
      <trkpt lat="46.0218" lon="6.76934">
        <ele>1159.5999755859</ele>
        <time>2023-09-30T10:46:34.000Z</time>
      </trkpt>
      <trkpt lat="46.02183" lon="6.76937">
        <ele>1159.1999511719</ele>
        <time>2023-09-30T10:46:35.000Z</time>
      </trkpt>
      <trkpt lat="46.02187" lon="6.76939">
        <ele>1158.4000244141</ele>
        <time>2023-09-30T10:46:36.000Z</time>
      </trkpt>
      <trkpt lat="46.0219" lon="6.76942">
        <ele>1158</ele>
        <time>2023-09-30T10:46:37.000Z</time>
      </trkpt>
      <trkpt lat="46.02193" lon="6.76945">
        <ele>1157.4000244141</ele>
        <time>2023-09-30T10:46:38.000Z</time>
      </trkpt>
      <trkpt lat="46.02196" lon="6.76949">
        <ele>1156.8000488281</ele>
        <time>2023-09-30T10:46:39.000Z</time>
      </trkpt>
      <trkpt lat="46.02198" lon="6.76954">
        <ele>1156.5999755859</ele>
        <time>2023-09-30T10:46:40.000Z</time>
      </trkpt>
      <trkpt lat="46.022" lon="6.76959">
        <ele>1155.8000488281</ele>
        <time>2023-09-30T10:46:41.000Z</time>
      </trkpt>
      <trkpt lat="46.02202" lon="6.76965">
        <ele>1155.4000244141</ele>
        <time>2023-09-30T10:46:42.000Z</time>
      </trkpt>
      <trkpt lat="46.02208" lon="6.76974">
        <ele>1154.4000244141</ele>
        <time>2023-09-30T10:46:44.000Z</time>
      </trkpt>
      <trkpt lat="46.0221" lon="6.76977">
        <ele>1152.8000488281</ele>
        <time>2023-09-30T10:46:45.000Z</time>
      </trkpt>
      <trkpt lat="46.02212" lon="6.76979">
        <ele>1151.4000244141</ele>
        <time>2023-09-30T10:46:46.000Z</time>
      </trkpt>
      <trkpt lat="46.02214" lon="6.76981">
        <ele>1150.5999755859</ele>
        <time>2023-09-30T10:46:47.000Z</time>
      </trkpt>
      <trkpt lat="46.02216" lon="6.76983">
        <ele>1149.5999755859</ele>
        <time>2023-09-30T10:46:48.000Z</time>
      </trkpt>
      <trkpt lat="46.02217" lon="6.76985">
        <ele>1149</ele>
        <time>2023-09-30T10:46:49.000Z</time>
      </trkpt>
      <trkpt lat="46.02219" lon="6.76986">
        <ele>1147.8000488281</ele>
        <time>2023-09-30T10:46:50.000Z</time>
      </trkpt>
      <trkpt lat="46.0222" lon="6.76988">
        <ele>1147.4000244141</ele>
        <time>2023-09-30T10:46:51.000Z</time>
      </trkpt>
      <trkpt lat="46.02221" lon="6.7699">
        <ele>1147</ele>
        <time>2023-09-30T10:46:52.000Z</time>
      </trkpt>
      <trkpt lat="46.02223" lon="6.7699">
        <ele>1146.5999755859</ele>
        <time>2023-09-30T10:46:53.000Z</time>
      </trkpt>
      <trkpt lat="46.02225" lon="6.76991">
        <ele>1146.5999755859</ele>
        <time>2023-09-30T10:46:54.000Z</time>
      </trkpt>
      <trkpt lat="46.02227" lon="6.76994">
        <ele>1145.5999755859</ele>
        <time>2023-09-30T10:46:55.000Z</time>
      </trkpt>
      <trkpt lat="46.0223" lon="6.76996">
        <ele>1145.1999511719</ele>
        <time>2023-09-30T10:46:56.000Z</time>
      </trkpt>
      <trkpt lat="46.02232" lon="6.76998">
        <ele>1144.4000244141</ele>
        <time>2023-09-30T10:46:57.000Z</time>
      </trkpt>
      <trkpt lat="46.02233" lon="6.76998">
        <ele>1144.1999511719</ele>
        <time>2023-09-30T10:46:58.000Z</time>
      </trkpt>
      <trkpt lat="46.02234" lon="6.76999">
        <ele>1143.1999511719</ele>
        <time>2023-09-30T10:46:59.000Z</time>
      </trkpt>
      <trkpt lat="46.02235" lon="6.77">
        <ele>1142.8000488281</ele>
        <time>2023-09-30T10:47:00.000Z</time>
      </trkpt>
      <trkpt lat="46.02235" lon="6.77">
        <ele>1142.4000244141</ele>
        <time>2023-09-30T10:47:02.000Z</time>
      </trkpt>
      <trkpt lat="46.02235" lon="6.77">
        <ele>1141.5999755859</ele>
        <time>2023-09-30T10:47:04.000Z</time>
      </trkpt>
      <trkpt lat="46.02235" lon="6.77">
        <ele>1141.5999755859</ele>
        <time>2023-09-30T10:47:21.000Z</time>
      </trkpt>
      <trkpt lat="46.02237" lon="6.76998">
        <ele>1141.5999755859</ele>
        <time>2023-09-30T10:48:46.000Z</time>
      </trkpt>
      <trkpt lat="46.0224" lon="6.76997">
        <ele>1141.5999755859</ele>
        <time>2023-09-30T10:48:47.000Z</time>
      </trkpt>
      <trkpt lat="46.02248" lon="6.76997">
        <ele>1141.4000244141</ele>
        <time>2023-09-30T10:48:49.000Z</time>
      </trkpt>
      <trkpt lat="46.02253" lon="6.76998">
        <ele>1141.4000244141</ele>
        <time>2023-09-30T10:48:50.000Z</time>
      </trkpt>
      <trkpt lat="46.02258" lon="6.77">
        <ele>1141.4000244141</ele>
        <time>2023-09-30T10:48:51.000Z</time>
      </trkpt>
      <trkpt lat="46.02269" lon="6.77003">
        <ele>1141.1999511719</ele>
        <time>2023-09-30T10:48:53.000Z</time>
      </trkpt>
      <trkpt lat="46.02277" lon="6.77006">
        <ele>1141.1999511719</ele>
        <time>2023-09-30T10:48:54.000Z</time>
      </trkpt>
      <trkpt lat="46.02291" lon="6.77011">
        <ele>1140</ele>
        <time>2023-09-30T10:48:56.000Z</time>
      </trkpt>
      <trkpt lat="46.02305" lon="6.77014">
        <ele>1138.8000488281</ele>
        <time>2023-09-30T10:48:58.000Z</time>
      </trkpt>
      <trkpt lat="46.02323" lon="6.77015">
        <ele>1137.4000244141</ele>
        <time>2023-09-30T10:49:00.000Z</time>
      </trkpt>
      <trkpt lat="46.02331" lon="6.77012">
        <ele>1136.5999755859</ele>
        <time>2023-09-30T10:49:01.000Z</time>
      </trkpt>
      <trkpt lat="46.02337" lon="6.7701">
        <ele>1136.1999511719</ele>
        <time>2023-09-30T10:49:02.000Z</time>
      </trkpt>
      <trkpt lat="46.02344" lon="6.77008">
        <ele>1135.8000488281</ele>
        <time>2023-09-30T10:49:03.000Z</time>
      </trkpt>
      <trkpt lat="46.02353" lon="6.77008">
        <ele>1135.5999755859</ele>
        <time>2023-09-30T10:49:04.000Z</time>
      </trkpt>
      <trkpt lat="46.02361" lon="6.77014">
        <ele>1135.1999511719</ele>
        <time>2023-09-30T10:49:05.000Z</time>
      </trkpt>
      <trkpt lat="46.02368" lon="6.77028">
        <ele>1133.4000244141</ele>
        <time>2023-09-30T10:49:07.000Z</time>
      </trkpt>
      <trkpt lat="46.02371" lon="6.77036">
        <ele>1132.8000488281</ele>
        <time>2023-09-30T10:49:08.000Z</time>
      </trkpt>
      <trkpt lat="46.02373" lon="6.77043">
        <ele>1131.4000244141</ele>
        <time>2023-09-30T10:49:09.000Z</time>
      </trkpt>
      <trkpt lat="46.02375" lon="6.7705">
        <ele>1130.8000488281</ele>
        <time>2023-09-30T10:49:10.000Z</time>
      </trkpt>
      <trkpt lat="46.0238" lon="6.77064">
        <ele>1129.8000488281</ele>
        <time>2023-09-30T10:49:12.000Z</time>
      </trkpt>
      <trkpt lat="46.02384" lon="6.77081">
        <ele>1128.8000488281</ele>
        <time>2023-09-30T10:49:14.000Z</time>
      </trkpt>
      <trkpt lat="46.02384" lon="6.77091">
        <ele>1128.4000244141</ele>
        <time>2023-09-30T10:49:15.000Z</time>
      </trkpt>
      <trkpt lat="46.02381" lon="6.77101">
        <ele>1127.5999755859</ele>
        <time>2023-09-30T10:49:16.000Z</time>
      </trkpt>
      <trkpt lat="46.02377" lon="6.7711">
        <ele>1127</ele>
        <time>2023-09-30T10:49:17.000Z</time>
      </trkpt>
      <trkpt lat="46.02371" lon="6.77119">
        <ele>1126.5999755859</ele>
        <time>2023-09-30T10:49:18.000Z</time>
      </trkpt>
      <trkpt lat="46.02367" lon="6.77125">
        <ele>1125.8000488281</ele>
        <time>2023-09-30T10:49:19.000Z</time>
      </trkpt>
      <trkpt lat="46.02363" lon="6.77129">
        <ele>1125.5999755859</ele>
        <time>2023-09-30T10:49:20.000Z</time>
      </trkpt>
      <trkpt lat="46.02358" lon="6.77133">
        <ele>1124.8000488281</ele>
        <time>2023-09-30T10:49:21.000Z</time>
      </trkpt>
      <trkpt lat="46.02353" lon="6.77138">
        <ele>1124.5999755859</ele>
        <time>2023-09-30T10:49:22.000Z</time>
      </trkpt>
      <trkpt lat="46.02348" lon="6.77142">
        <ele>1123.8000488281</ele>
        <time>2023-09-30T10:49:23.000Z</time>
      </trkpt>
      <trkpt lat="46.02344" lon="6.77146">
        <ele>1123.1999511719</ele>
        <time>2023-09-30T10:49:24.000Z</time>
      </trkpt>
      <trkpt lat="46.02341" lon="6.77148">
        <ele>1123</ele>
        <time>2023-09-30T10:49:25.000Z</time>
      </trkpt>
      <trkpt lat="46.02339" lon="6.77151">
        <ele>1122.5999755859</ele>
        <time>2023-09-30T10:49:26.000Z</time>
      </trkpt>
      <trkpt lat="46.02336" lon="6.77153">
        <ele>1122.1999511719</ele>
        <time>2023-09-30T10:49:27.000Z</time>
      </trkpt>
      <trkpt lat="46.02333" lon="6.77156">
        <ele>1121.5999755859</ele>
        <time>2023-09-30T10:49:28.000Z</time>
      </trkpt>
      <trkpt lat="46.02331" lon="6.77159">
        <ele>1121.4000244141</ele>
        <time>2023-09-30T10:49:29.000Z</time>
      </trkpt>
      <trkpt lat="46.02328" lon="6.77162">
        <ele>1121</ele>
        <time>2023-09-30T10:49:30.000Z</time>
      </trkpt>
      <trkpt lat="46.02323" lon="6.77167">
        <ele>1120.5999755859</ele>
        <time>2023-09-30T10:49:32.000Z</time>
      </trkpt>
      <trkpt lat="46.0232" lon="6.77172">
        <ele>1120.1999511719</ele>
        <time>2023-09-30T10:49:33.000Z</time>
      </trkpt>
      <trkpt lat="46.02317" lon="6.77175">
        <ele>1119.8000488281</ele>
        <time>2023-09-30T10:49:34.000Z</time>
      </trkpt>
      <trkpt lat="46.02311" lon="6.77182">
        <ele>1119</ele>
        <time>2023-09-30T10:49:36.000Z</time>
      </trkpt>
      <trkpt lat="46.02307" lon="6.77185">
        <ele>1118.5999755859</ele>
        <time>2023-09-30T10:49:37.000Z</time>
      </trkpt>
      <trkpt lat="46.02294" lon="6.77198">
        <ele>1118.1999511719</ele>
        <time>2023-09-30T10:49:40.000Z</time>
      </trkpt>
      <trkpt lat="46.02287" lon="6.77209">
        <ele>1117.5999755859</ele>
        <time>2023-09-30T10:49:42.000Z</time>
      </trkpt>
      <trkpt lat="46.02283" lon="6.77218">
        <ele>1117.4000244141</ele>
        <time>2023-09-30T10:49:43.000Z</time>
      </trkpt>
      <trkpt lat="46.0228" lon="6.77227">
        <ele>1116.8000488281</ele>
        <time>2023-09-30T10:49:44.000Z</time>
      </trkpt>
      <trkpt lat="46.02278" lon="6.77238">
        <ele>1116.1999511719</ele>
        <time>2023-09-30T10:49:45.000Z</time>
      </trkpt>
      <trkpt lat="46.02277" lon="6.77248">
        <ele>1116</ele>
        <time>2023-09-30T10:49:46.000Z</time>
      </trkpt>
      <trkpt lat="46.02276" lon="6.77259">
        <ele>1115.1999511719</ele>
        <time>2023-09-30T10:49:47.000Z</time>
      </trkpt>
      <trkpt lat="46.02274" lon="6.77282">
        <ele>1114.4000244141</ele>
        <time>2023-09-30T10:49:49.000Z</time>
      </trkpt>
      <trkpt lat="46.02272" lon="6.77293">
        <ele>1114.1999511719</ele>
        <time>2023-09-30T10:49:50.000Z</time>
      </trkpt>
      <trkpt lat="46.0227" lon="6.77317">
        <ele>1112.8000488281</ele>
        <time>2023-09-30T10:49:52.000Z</time>
      </trkpt>
      <trkpt lat="46.02268" lon="6.77328">
        <ele>1112.8000488281</ele>
        <time>2023-09-30T10:49:53.000Z</time>
      </trkpt>
      <trkpt lat="46.02266" lon="6.7734">
        <ele>1112.5999755859</ele>
        <time>2023-09-30T10:49:54.000Z</time>
      </trkpt>
      <trkpt lat="46.02257" lon="6.77372">
        <ele>1111.8000488281</ele>
        <time>2023-09-30T10:49:57.000Z</time>
      </trkpt>
      <trkpt lat="46.02253" lon="6.77383">
        <ele>1111</ele>
        <time>2023-09-30T10:49:58.000Z</time>
      </trkpt>
      <trkpt lat="46.02247" lon="6.77394">
        <ele>1110.8000488281</ele>
        <time>2023-09-30T10:49:59.000Z</time>
      </trkpt>
      <trkpt lat="46.02238" lon="6.77417">
        <ele>1109</ele>
        <time>2023-09-30T10:50:01.000Z</time>
      </trkpt>
      <trkpt lat="46.02232" lon="6.77457">
        <ele>1107.8000488281</ele>
        <time>2023-09-30T10:50:04.000Z</time>
      </trkpt>
      <trkpt lat="46.02231" lon="6.77474">
        <ele>1106.5999755859</ele>
        <time>2023-09-30T10:50:05.000Z</time>
      </trkpt>
      <trkpt lat="46.0223" lon="6.77501">
        <ele>1105</ele>
        <time>2023-09-30T10:50:07.000Z</time>
      </trkpt>
      <trkpt lat="46.02231" lon="6.77525">
        <ele>1104</ele>
        <time>2023-09-30T10:50:09.000Z</time>
      </trkpt>
      <trkpt lat="46.02232" lon="6.77533">
        <ele>1103.4000244141</ele>
        <time>2023-09-30T10:50:10.000Z</time>
      </trkpt>
      <trkpt lat="46.02235" lon="6.77543">
        <ele>1103</ele>
        <time>2023-09-30T10:50:11.000Z</time>
      </trkpt>
      <trkpt lat="46.02239" lon="6.77547">
        <ele>1102.4000244141</ele>
        <time>2023-09-30T10:50:12.000Z</time>
      </trkpt>
      <trkpt lat="46.02244" lon="6.77548">
        <ele>1102</ele>
        <time>2023-09-30T10:50:13.000Z</time>
      </trkpt>
      <trkpt lat="46.02248" lon="6.77546">
        <ele>1101.5999755859</ele>
        <time>2023-09-30T10:50:14.000Z</time>
      </trkpt>
      <trkpt lat="46.02252" lon="6.77541">
        <ele>1101</ele>
        <time>2023-09-30T10:50:15.000Z</time>
      </trkpt>
      <trkpt lat="46.02254" lon="6.77534">
        <ele>1100.8000488281</ele>
        <time>2023-09-30T10:50:16.000Z</time>
      </trkpt>
      <trkpt lat="46.02254" lon="6.77525">
        <ele>1100.5999755859</ele>
        <time>2023-09-30T10:50:17.000Z</time>
      </trkpt>
      <trkpt lat="46.02256" lon="6.77505">
        <ele>1100</ele>
        <time>2023-09-30T10:50:19.000Z</time>
      </trkpt>
      <trkpt lat="46.02262" lon="6.77471">
        <ele>1098.4000244141</ele>
        <time>2023-09-30T10:50:22.000Z</time>
      </trkpt>
      <trkpt lat="46.02265" lon="6.77459">
        <ele>1098</ele>
        <time>2023-09-30T10:50:23.000Z</time>
      </trkpt>
      <trkpt lat="46.02272" lon="6.77439">
        <ele>1097.4000244141</ele>
        <time>2023-09-30T10:50:25.000Z</time>
      </trkpt>
      <trkpt lat="46.02283" lon="6.77415">
        <ele>1096.1999511719</ele>
        <time>2023-09-30T10:50:27.000Z</time>
      </trkpt>
      <trkpt lat="46.02289" lon="6.77405">
        <ele>1095.4000244141</ele>
        <time>2023-09-30T10:50:28.000Z</time>
      </trkpt>
      <trkpt lat="46.02295" lon="6.77395">
        <ele>1094.1999511719</ele>
        <time>2023-09-30T10:50:29.000Z</time>
      </trkpt>
      <trkpt lat="46.02306" lon="6.77379">
        <ele>1092.8000488281</ele>
        <time>2023-09-30T10:50:31.000Z</time>
      </trkpt>
      <trkpt lat="46.02312" lon="6.77373">
        <ele>1092.4000244141</ele>
        <time>2023-09-30T10:50:32.000Z</time>
      </trkpt>
      <trkpt lat="46.02319" lon="6.77368">
        <ele>1091.1999511719</ele>
        <time>2023-09-30T10:50:33.000Z</time>
      </trkpt>
      <trkpt lat="46.02327" lon="6.77367">
        <ele>1090.5999755859</ele>
        <time>2023-09-30T10:50:34.000Z</time>
      </trkpt>
      <trkpt lat="46.02337" lon="6.77368">
        <ele>1090</ele>
        <time>2023-09-30T10:50:35.000Z</time>
      </trkpt>
      <trkpt lat="46.02344" lon="6.77372">
        <ele>1089.4000244141</ele>
        <time>2023-09-30T10:50:36.000Z</time>
      </trkpt>
      <trkpt lat="46.02351" lon="6.77378">
        <ele>1089</ele>
        <time>2023-09-30T10:50:37.000Z</time>
      </trkpt>
      <trkpt lat="46.0236" lon="6.77384">
        <ele>1088</ele>
        <time>2023-09-30T10:50:38.000Z</time>
      </trkpt>
      <trkpt lat="46.02368" lon="6.7739">
        <ele>1087.4000244141</ele>
        <time>2023-09-30T10:50:39.000Z</time>
      </trkpt>
      <trkpt lat="46.02384" lon="6.77399">
        <ele>1086.5999755859</ele>
        <time>2023-09-30T10:50:41.000Z</time>
      </trkpt>
      <trkpt lat="46.02393" lon="6.774">
        <ele>1085.4000244141</ele>
        <time>2023-09-30T10:50:42.000Z</time>
      </trkpt>
      <trkpt lat="46.02401" lon="6.77397">
        <ele>1084.8000488281</ele>
        <time>2023-09-30T10:50:43.000Z</time>
      </trkpt>
      <trkpt lat="46.0241" lon="6.77391">
        <ele>1084</ele>
        <time>2023-09-30T10:50:44.000Z</time>
      </trkpt>
      <trkpt lat="46.02417" lon="6.77384">
        <ele>1083</ele>
        <time>2023-09-30T10:50:45.000Z</time>
      </trkpt>
      <trkpt lat="46.02424" lon="6.77377">
        <ele>1082.5999755859</ele>
        <time>2023-09-30T10:50:46.000Z</time>
      </trkpt>
      <trkpt lat="46.02431" lon="6.77373">
        <ele>1082</ele>
        <time>2023-09-30T10:50:47.000Z</time>
      </trkpt>
      <trkpt lat="46.02435" lon="6.77374">
        <ele>1082</ele>
        <time>2023-09-30T10:50:48.000Z</time>
      </trkpt>
      <trkpt lat="46.02437" lon="6.77378">
        <ele>1081.1999511719</ele>
        <time>2023-09-30T10:50:49.000Z</time>
      </trkpt>
      <trkpt lat="46.02437" lon="6.77384">
        <ele>1080.4000244141</ele>
        <time>2023-09-30T10:50:50.000Z</time>
      </trkpt>
      <trkpt lat="46.02434" lon="6.77389">
        <ele>1079.8000488281</ele>
        <time>2023-09-30T10:50:51.000Z</time>
      </trkpt>
      <trkpt lat="46.02426" lon="6.774">
        <ele>1078.4000244141</ele>
        <time>2023-09-30T10:50:53.000Z</time>
      </trkpt>
      <trkpt lat="46.02416" lon="6.7741">
        <ele>1077.1999511719</ele>
        <time>2023-09-30T10:50:55.000Z</time>
      </trkpt>
      <trkpt lat="46.02402" lon="6.77417">
        <ele>1076.1999511719</ele>
        <time>2023-09-30T10:50:57.000Z</time>
      </trkpt>
      <trkpt lat="46.02393" lon="6.77419">
        <ele>1075.5999755859</ele>
        <time>2023-09-30T10:50:58.000Z</time>
      </trkpt>
      <trkpt lat="46.02378" lon="6.77425">
        <ele>1074.5999755859</ele>
        <time>2023-09-30T10:51:00.000Z</time>
      </trkpt>
      <trkpt lat="46.02372" lon="6.77432">
        <ele>1073.8000488281</ele>
        <time>2023-09-30T10:51:01.000Z</time>
      </trkpt>
      <trkpt lat="46.02367" lon="6.77443">
        <ele>1073.1999511719</ele>
        <time>2023-09-30T10:51:02.000Z</time>
      </trkpt>
      <trkpt lat="46.02365" lon="6.77456">
        <ele>1071.8000488281</ele>
        <time>2023-09-30T10:51:03.000Z</time>
      </trkpt>
      <trkpt lat="46.02363" lon="6.7747">
        <ele>1071.1999511719</ele>
        <time>2023-09-30T10:51:04.000Z</time>
      </trkpt>
      <trkpt lat="46.02361" lon="6.77485">
        <ele>1070.4000244141</ele>
        <time>2023-09-30T10:51:05.000Z</time>
      </trkpt>
      <trkpt lat="46.02359" lon="6.775">
        <ele>1070</ele>
        <time>2023-09-30T10:51:06.000Z</time>
      </trkpt>
      <trkpt lat="46.02355" lon="6.77528">
        <ele>1068.1999511719</ele>
        <time>2023-09-30T10:51:08.000Z</time>
      </trkpt>
      <trkpt lat="46.02351" lon="6.77541">
        <ele>1067.5999755859</ele>
        <time>2023-09-30T10:51:09.000Z</time>
      </trkpt>
      <trkpt lat="46.02348" lon="6.77554">
        <ele>1066.5999755859</ele>
        <time>2023-09-30T10:51:10.000Z</time>
      </trkpt>
      <trkpt lat="46.02342" lon="6.77578">
        <ele>1065.8000488281</ele>
        <time>2023-09-30T10:51:12.000Z</time>
      </trkpt>
      <trkpt lat="46.02342" lon="6.77588">
        <ele>1065</ele>
        <time>2023-09-30T10:51:13.000Z</time>
      </trkpt>
      <trkpt lat="46.02344" lon="6.77601">
        <ele>1064.5999755859</ele>
        <time>2023-09-30T10:51:14.000Z</time>
      </trkpt>
      <trkpt lat="46.02349" lon="6.77608">
        <ele>1063.8000488281</ele>
        <time>2023-09-30T10:51:15.000Z</time>
      </trkpt>
      <trkpt lat="46.02354" lon="6.77611">
        <ele>1063.1999511719</ele>
        <time>2023-09-30T10:51:16.000Z</time>
      </trkpt>
      <trkpt lat="46.0236" lon="6.77609">
        <ele>1062</ele>
        <time>2023-09-30T10:51:17.000Z</time>
      </trkpt>
      <trkpt lat="46.02366" lon="6.77605">
        <ele>1061.5999755859</ele>
        <time>2023-09-30T10:51:18.000Z</time>
      </trkpt>
      <trkpt lat="46.02372" lon="6.77594">
        <ele>1061.1999511719</ele>
        <time>2023-09-30T10:51:19.000Z</time>
      </trkpt>
      <trkpt lat="46.02383" lon="6.77576">
        <ele>1060.1999511719</ele>
        <time>2023-09-30T10:51:21.000Z</time>
      </trkpt>
      <trkpt lat="46.02389" lon="6.7757">
        <ele>1059.4000244141</ele>
        <time>2023-09-30T10:51:22.000Z</time>
      </trkpt>
      <trkpt lat="46.02397" lon="6.77565">
        <ele>1059</ele>
        <time>2023-09-30T10:51:23.000Z</time>
      </trkpt>
      <trkpt lat="46.02405" lon="6.77562">
        <ele>1057.8000488281</ele>
        <time>2023-09-30T10:51:24.000Z</time>
      </trkpt>
      <trkpt lat="46.02409" lon="6.77562">
        <ele>1057.4000244141</ele>
        <time>2023-09-30T10:51:25.000Z</time>
      </trkpt>
      <trkpt lat="46.02412" lon="6.77562">
        <ele>1056.4000244141</ele>
        <time>2023-09-30T10:51:26.000Z</time>
      </trkpt>
      <trkpt lat="46.02413" lon="6.77562">
        <ele>1055.1999511719</ele>
        <time>2023-09-30T10:51:27.000Z</time>
      </trkpt>
      <trkpt lat="46.02414" lon="6.77563">
        <ele>1054.5999755859</ele>
        <time>2023-09-30T10:51:28.000Z</time>
      </trkpt>
    </trkseg>
  </trk>
</gpx>